<?xml version="1.0" encoding="UTF-8" standalone="no" ?>
<gpx xmlns="http://www.topografix.com/GPX/1/1" xmlns:xsi="http://www.w3.org/2001/XMLSchema-instance" xsi:schemaLocation="http://www.topografix.com/GPX/1/1 http://www.topografix.com/GPX/1/1/gpx.xsd" version="1.1" creator="VisuGPX - https://www.visugpx.com">
  <metadata>
    <name>Amiens Cagny</name>
    <desc><![CDATA[Confinement
Bug en fin]]></desc>
  </metadata>
  <trk>
    <name><![CDATA[Amiens Cagny_1]]></name>
    <trkseg>
      <trkpt lat="49.87605" lon="2.31356">
        <ele>66.4</ele>
        <time>2021-04-28T12:39:24Z</time>
      </trkpt>
      <trkpt lat="49.87602" lon="2.31347">
        <ele>66.5</ele>
        <time>2021-04-28T12:39:26Z</time>
      </trkpt>
      <trkpt lat="49.87604" lon="2.31354">
        <ele>66.6</ele>
        <time>2021-04-28T12:39:27Z</time>
      </trkpt>
      <trkpt lat="49.87604" lon="2.31356">
        <ele>66.6</ele>
        <time>2021-04-28T12:39:28Z</time>
      </trkpt>
      <trkpt lat="49.87602" lon="2.31359">
        <ele>66.6</ele>
        <time>2021-04-28T12:39:29Z</time>
      </trkpt>
      <trkpt lat="49.87601" lon="2.31362">
        <ele>66.6</ele>
        <time>2021-04-28T12:39:30Z</time>
      </trkpt>
      <trkpt lat="49.87599" lon="2.31363">
        <ele>66.7</ele>
        <time>2021-04-28T12:39:31Z</time>
      </trkpt>
      <trkpt lat="49.87598" lon="2.31364">
        <ele>66.7</ele>
        <time>2021-04-28T12:39:33Z</time>
      </trkpt>
      <trkpt lat="49.87597" lon="2.31364">
        <ele>66.7</ele>
        <time>2021-04-28T12:39:34Z</time>
      </trkpt>
      <trkpt lat="49.87596" lon="2.31365">
        <ele>66.7</ele>
        <time>2021-04-28T12:39:35Z</time>
      </trkpt>
      <trkpt lat="49.87595" lon="2.31367">
        <ele>66.7</ele>
        <time>2021-04-28T12:39:36Z</time>
      </trkpt>
      <trkpt lat="49.87593" lon="2.31368">
        <ele>66.8</ele>
        <time>2021-04-28T12:39:38Z</time>
      </trkpt>
      <trkpt lat="49.87592" lon="2.3137">
        <ele>66.8</ele>
        <time>2021-04-28T12:39:39Z</time>
      </trkpt>
      <trkpt lat="49.87591" lon="2.31371">
        <ele>66.8</ele>
        <time>2021-04-28T12:39:40Z</time>
      </trkpt>
      <trkpt lat="49.8759" lon="2.31372">
        <ele>66.8</ele>
        <time>2021-04-28T12:39:42Z</time>
      </trkpt>
      <trkpt lat="49.87588" lon="2.31374">
        <ele>66.9</ele>
        <time>2021-04-28T12:39:43Z</time>
      </trkpt>
      <trkpt lat="49.87587" lon="2.31375">
        <ele>66.9</ele>
        <time>2021-04-28T12:39:44Z</time>
      </trkpt>
      <trkpt lat="49.87587" lon="2.31375">
        <ele>66.9</ele>
        <time>2021-04-28T12:39:45Z</time>
      </trkpt>
      <trkpt lat="49.87586" lon="2.31377">
        <ele>67</ele>
        <time>2021-04-28T12:39:47Z</time>
      </trkpt>
      <trkpt lat="49.87585" lon="2.31377">
        <ele>67</ele>
        <time>2021-04-28T12:39:48Z</time>
      </trkpt>
      <trkpt lat="49.87584" lon="2.31377">
        <ele>67</ele>
        <time>2021-04-28T12:39:49Z</time>
      </trkpt>
      <trkpt lat="49.87584" lon="2.31378">
        <ele>67</ele>
        <time>2021-04-28T12:39:50Z</time>
      </trkpt>
      <trkpt lat="49.87583" lon="2.31379">
        <ele>67</ele>
        <time>2021-04-28T12:39:51Z</time>
      </trkpt>
      <trkpt lat="49.87584" lon="2.31379">
        <ele>67.1</ele>
        <time>2021-04-28T12:39:52Z</time>
      </trkpt>
      <trkpt lat="49.87584" lon="2.3138">
        <ele>67.1</ele>
        <time>2021-04-28T12:39:54Z</time>
      </trkpt>
      <trkpt lat="49.87583" lon="2.31381">
        <ele>67.1</ele>
        <time>2021-04-28T12:39:55Z</time>
      </trkpt>
      <trkpt lat="49.87582" lon="2.31382">
        <ele>67.1</ele>
        <time>2021-04-28T12:39:56Z</time>
      </trkpt>
      <trkpt lat="49.87581" lon="2.31383">
        <ele>67.2</ele>
        <time>2021-04-28T12:39:57Z</time>
      </trkpt>
      <trkpt lat="49.8758" lon="2.31384">
        <ele>67.2</ele>
        <time>2021-04-28T12:39:58Z</time>
      </trkpt>
      <trkpt lat="49.87579" lon="2.31385">
        <ele>67.2</ele>
        <time>2021-04-28T12:39:59Z</time>
      </trkpt>
      <trkpt lat="49.87579" lon="2.31386">
        <ele>67.2</ele>
        <time>2021-04-28T12:40:00Z</time>
      </trkpt>
      <trkpt lat="49.87578" lon="2.31387">
        <ele>67.2</ele>
        <time>2021-04-28T12:40:01Z</time>
      </trkpt>
      <trkpt lat="49.87578" lon="2.31387">
        <ele>67.2</ele>
        <time>2021-04-28T12:40:02Z</time>
      </trkpt>
      <trkpt lat="49.87577" lon="2.31388">
        <ele>67.3</ele>
        <time>2021-04-28T12:40:03Z</time>
      </trkpt>
      <trkpt lat="49.87577" lon="2.31389">
        <ele>67.3</ele>
        <time>2021-04-28T12:40:05Z</time>
      </trkpt>
      <trkpt lat="49.87576" lon="2.31391">
        <ele>67.3</ele>
        <time>2021-04-28T12:40:06Z</time>
      </trkpt>
      <trkpt lat="49.87575" lon="2.31394">
        <ele>67.3</ele>
        <time>2021-04-28T12:40:07Z</time>
      </trkpt>
      <trkpt lat="49.87574" lon="2.31396">
        <ele>67.4</ele>
        <time>2021-04-28T12:40:09Z</time>
      </trkpt>
      <trkpt lat="49.87573" lon="2.31397">
        <ele>67.4</ele>
        <time>2021-04-28T12:40:10Z</time>
      </trkpt>
      <trkpt lat="49.87572" lon="2.31398">
        <ele>67.4</ele>
        <time>2021-04-28T12:40:11Z</time>
      </trkpt>
      <trkpt lat="49.87571" lon="2.31398">
        <ele>67.5</ele>
        <time>2021-04-28T12:40:12Z</time>
      </trkpt>
      <trkpt lat="49.8757" lon="2.31398">
        <ele>67.5</ele>
        <time>2021-04-28T12:40:13Z</time>
      </trkpt>
      <trkpt lat="49.87569" lon="2.31398">
        <ele>67.5</ele>
        <time>2021-04-28T12:40:14Z</time>
      </trkpt>
      <trkpt lat="49.87568" lon="2.31399">
        <ele>67.5</ele>
        <time>2021-04-28T12:40:15Z</time>
      </trkpt>
      <trkpt lat="49.87567" lon="2.31401">
        <ele>67.5</ele>
        <time>2021-04-28T12:40:16Z</time>
      </trkpt>
      <trkpt lat="49.87566" lon="2.31403">
        <ele>67.6</ele>
        <time>2021-04-28T12:40:17Z</time>
      </trkpt>
      <trkpt lat="49.87565" lon="2.31404">
        <ele>67.6</ele>
        <time>2021-04-28T12:40:19Z</time>
      </trkpt>
      <trkpt lat="49.87564" lon="2.31405">
        <ele>67.6</ele>
        <time>2021-04-28T12:40:20Z</time>
      </trkpt>
      <trkpt lat="49.87564" lon="2.31406">
        <ele>67.6</ele>
        <time>2021-04-28T12:40:21Z</time>
      </trkpt>
      <trkpt lat="49.87564" lon="2.31407">
        <ele>67.7</ele>
        <time>2021-04-28T12:40:22Z</time>
      </trkpt>
      <trkpt lat="49.87563" lon="2.31408">
        <ele>67.7</ele>
        <time>2021-04-28T12:40:23Z</time>
      </trkpt>
      <trkpt lat="49.87562" lon="2.3141">
        <ele>67.7</ele>
        <time>2021-04-28T12:40:25Z</time>
      </trkpt>
      <trkpt lat="49.87562" lon="2.3141">
        <ele>67.7</ele>
        <time>2021-04-28T12:40:26Z</time>
      </trkpt>
      <trkpt lat="49.87561" lon="2.31412">
        <ele>67.7</ele>
        <time>2021-04-28T12:40:28Z</time>
      </trkpt>
      <trkpt lat="49.8756" lon="2.31413">
        <ele>67.8</ele>
        <time>2021-04-28T12:40:29Z</time>
      </trkpt>
      <trkpt lat="49.87559" lon="2.31415">
        <ele>67.8</ele>
        <time>2021-04-28T12:40:30Z</time>
      </trkpt>
      <trkpt lat="49.87558" lon="2.31416">
        <ele>67.8</ele>
        <time>2021-04-28T12:40:31Z</time>
      </trkpt>
      <trkpt lat="49.87558" lon="2.31416">
        <ele>67.8</ele>
        <time>2021-04-28T12:40:32Z</time>
      </trkpt>
      <trkpt lat="49.87557" lon="2.31417">
        <ele>67.8</ele>
        <time>2021-04-28T12:40:33Z</time>
      </trkpt>
      <trkpt lat="49.87556" lon="2.3142">
        <ele>67.9</ele>
        <time>2021-04-28T12:40:34Z</time>
      </trkpt>
      <trkpt lat="49.87555" lon="2.31421">
        <ele>67.9</ele>
        <time>2021-04-28T12:40:36Z</time>
      </trkpt>
      <trkpt lat="49.87555" lon="2.31422">
        <ele>67.9</ele>
        <time>2021-04-28T12:40:37Z</time>
      </trkpt>
      <trkpt lat="49.87554" lon="2.31423">
        <ele>67.9</ele>
        <time>2021-04-28T12:40:38Z</time>
      </trkpt>
      <trkpt lat="49.87554" lon="2.31424">
        <ele>67.9</ele>
        <time>2021-04-28T12:40:39Z</time>
      </trkpt>
      <trkpt lat="49.87554" lon="2.31425">
        <ele>68</ele>
        <time>2021-04-28T12:40:40Z</time>
      </trkpt>
      <trkpt lat="49.87553" lon="2.31425">
        <ele>68</ele>
        <time>2021-04-28T12:40:41Z</time>
      </trkpt>
      <trkpt lat="49.87554" lon="2.31424">
        <ele>68</ele>
        <time>2021-04-28T12:40:42Z</time>
      </trkpt>
      <trkpt lat="49.87553" lon="2.31424">
        <ele>68</ele>
        <time>2021-04-28T12:40:44Z</time>
      </trkpt>
      <trkpt lat="49.87552" lon="2.31424">
        <ele>68</ele>
        <time>2021-04-28T12:40:45Z</time>
      </trkpt>
      <trkpt lat="49.87551" lon="2.31426">
        <ele>68</ele>
        <time>2021-04-28T12:40:46Z</time>
      </trkpt>
      <trkpt lat="49.87551" lon="2.31427">
        <ele>68</ele>
        <time>2021-04-28T12:40:47Z</time>
      </trkpt>
      <trkpt lat="49.8755" lon="2.31428">
        <ele>68.1</ele>
        <time>2021-04-28T12:40:48Z</time>
      </trkpt>
      <trkpt lat="49.8755" lon="2.31429">
        <ele>68.1</ele>
        <time>2021-04-28T12:40:49Z</time>
      </trkpt>
      <trkpt lat="49.87549" lon="2.31432">
        <ele>68.1</ele>
        <time>2021-04-28T12:40:50Z</time>
      </trkpt>
      <trkpt lat="49.87548" lon="2.31433">
        <ele>68.1</ele>
        <time>2021-04-28T12:40:52Z</time>
      </trkpt>
      <trkpt lat="49.87548" lon="2.31434">
        <ele>68.1</ele>
        <time>2021-04-28T12:40:53Z</time>
      </trkpt>
      <trkpt lat="49.87547" lon="2.31436">
        <ele>68.2</ele>
        <time>2021-04-28T12:40:54Z</time>
      </trkpt>
      <trkpt lat="49.87546" lon="2.31437">
        <ele>68.2</ele>
        <time>2021-04-28T12:40:55Z</time>
      </trkpt>
      <trkpt lat="49.87545" lon="2.31439">
        <ele>68.2</ele>
        <time>2021-04-28T12:40:56Z</time>
      </trkpt>
      <trkpt lat="49.87544" lon="2.3144">
        <ele>68.3</ele>
        <time>2021-04-28T12:40:57Z</time>
      </trkpt>
      <trkpt lat="49.87542" lon="2.3144">
        <ele>68.3</ele>
        <time>2021-04-28T12:40:58Z</time>
      </trkpt>
      <trkpt lat="49.87541" lon="2.31441">
        <ele>68.3</ele>
        <time>2021-04-28T12:41:00Z</time>
      </trkpt>
      <trkpt lat="49.87539" lon="2.31442">
        <ele>68.2</ele>
        <time>2021-04-28T12:41:01Z</time>
      </trkpt>
      <trkpt lat="49.87537" lon="2.31442">
        <ele>68.1</ele>
        <time>2021-04-28T12:41:02Z</time>
      </trkpt>
      <trkpt lat="49.87536" lon="2.31441">
        <ele>68.1</ele>
        <time>2021-04-28T12:41:03Z</time>
      </trkpt>
      <trkpt lat="49.87535" lon="2.3144">
        <ele>68</ele>
        <time>2021-04-28T12:41:05Z</time>
      </trkpt>
      <trkpt lat="49.87535" lon="2.31439">
        <ele>68</ele>
        <time>2021-04-28T12:41:06Z</time>
      </trkpt>
      <trkpt lat="49.87535" lon="2.31436">
        <ele>67.9</ele>
        <time>2021-04-28T12:41:07Z</time>
      </trkpt>
      <trkpt lat="49.87535" lon="2.31433">
        <ele>67.8</ele>
        <time>2021-04-28T12:41:08Z</time>
      </trkpt>
      <trkpt lat="49.87533" lon="2.3143">
        <ele>67.7</ele>
        <time>2021-04-28T12:41:09Z</time>
      </trkpt>
      <trkpt lat="49.87532" lon="2.31428">
        <ele>67.7</ele>
        <time>2021-04-28T12:41:10Z</time>
      </trkpt>
      <trkpt lat="49.87531" lon="2.31426">
        <ele>67.6</ele>
        <time>2021-04-28T12:41:11Z</time>
      </trkpt>
      <trkpt lat="49.87531" lon="2.31424">
        <ele>67.6</ele>
        <time>2021-04-28T12:41:13Z</time>
      </trkpt>
      <trkpt lat="49.87531" lon="2.31423">
        <ele>67.5</ele>
        <time>2021-04-28T12:41:14Z</time>
      </trkpt>
      <trkpt lat="49.87531" lon="2.31422">
        <ele>67.5</ele>
        <time>2021-04-28T12:41:15Z</time>
      </trkpt>
      <trkpt lat="49.87531" lon="2.31421">
        <ele>67.5</ele>
        <time>2021-04-28T12:41:17Z</time>
      </trkpt>
      <trkpt lat="49.87531" lon="2.31421">
        <ele>67.5</ele>
        <time>2021-04-28T12:41:18Z</time>
      </trkpt>
      <trkpt lat="49.87531" lon="2.3142">
        <ele>67.4</ele>
        <time>2021-04-28T12:41:19Z</time>
      </trkpt>
      <trkpt lat="49.87531" lon="2.31419">
        <ele>67.4</ele>
        <time>2021-04-28T12:41:20Z</time>
      </trkpt>
      <trkpt lat="49.8753" lon="2.31417">
        <ele>67.4</ele>
        <time>2021-04-28T12:41:22Z</time>
      </trkpt>
      <trkpt lat="49.87529" lon="2.31416">
        <ele>67.3</ele>
        <time>2021-04-28T12:41:23Z</time>
      </trkpt>
      <trkpt lat="49.87527" lon="2.31413">
        <ele>67.2</ele>
        <time>2021-04-28T12:41:24Z</time>
      </trkpt>
      <trkpt lat="49.87526" lon="2.31412">
        <ele>67.1</ele>
        <time>2021-04-28T12:41:25Z</time>
      </trkpt>
      <trkpt lat="49.87525" lon="2.3141">
        <ele>67.1</ele>
        <time>2021-04-28T12:41:26Z</time>
      </trkpt>
      <trkpt lat="49.87524" lon="2.31408">
        <ele>67</ele>
        <time>2021-04-28T12:41:28Z</time>
      </trkpt>
      <trkpt lat="49.87523" lon="2.31406">
        <ele>67</ele>
        <time>2021-04-28T12:41:29Z</time>
      </trkpt>
      <trkpt lat="49.87522" lon="2.31404">
        <ele>66.9</ele>
        <time>2021-04-28T12:41:30Z</time>
      </trkpt>
      <trkpt lat="49.8752" lon="2.31403">
        <ele>66.8</ele>
        <time>2021-04-28T12:41:32Z</time>
      </trkpt>
      <trkpt lat="49.87519" lon="2.31401">
        <ele>66.8</ele>
        <time>2021-04-28T12:41:33Z</time>
      </trkpt>
      <trkpt lat="49.87518" lon="2.31399">
        <ele>66.7</ele>
        <time>2021-04-28T12:41:34Z</time>
      </trkpt>
      <trkpt lat="49.87519" lon="2.31398">
        <ele>66.7</ele>
        <time>2021-04-28T12:41:36Z</time>
      </trkpt>
      <trkpt lat="49.8752" lon="2.31398">
        <ele>66.7</ele>
        <time>2021-04-28T12:41:37Z</time>
      </trkpt>
      <trkpt lat="49.8752" lon="2.31397">
        <ele>66.6</ele>
        <time>2021-04-28T12:41:39Z</time>
      </trkpt>
      <trkpt lat="49.8752" lon="2.31397">
        <ele>66.6</ele>
        <time>2021-04-28T12:41:40Z</time>
      </trkpt>
      <trkpt lat="49.87519" lon="2.31397">
        <ele>66.6</ele>
        <time>2021-04-28T12:41:41Z</time>
      </trkpt>
      <trkpt lat="49.87519" lon="2.31398">
        <ele>66.6</ele>
        <time>2021-04-28T12:41:42Z</time>
      </trkpt>
      <trkpt lat="49.87519" lon="2.31397">
        <ele>66.6</ele>
        <time>2021-04-28T12:41:43Z</time>
      </trkpt>
      <trkpt lat="49.87519" lon="2.31397">
        <ele>66.6</ele>
        <time>2021-04-28T12:41:45Z</time>
      </trkpt>
      <trkpt lat="49.87519" lon="2.31396">
        <ele>66.6</ele>
        <time>2021-04-28T12:41:46Z</time>
      </trkpt>
      <trkpt lat="49.87518" lon="2.31395">
        <ele>66.5</ele>
        <time>2021-04-28T12:41:47Z</time>
      </trkpt>
      <trkpt lat="49.87518" lon="2.31394">
        <ele>66.5</ele>
        <time>2021-04-28T12:41:48Z</time>
      </trkpt>
      <trkpt lat="49.87517" lon="2.31393">
        <ele>66.5</ele>
        <time>2021-04-28T12:41:49Z</time>
      </trkpt>
      <trkpt lat="49.87516" lon="2.31392">
        <ele>66.4</ele>
        <time>2021-04-28T12:41:50Z</time>
      </trkpt>
      <trkpt lat="49.87515" lon="2.31391">
        <ele>66.4</ele>
        <time>2021-04-28T12:41:51Z</time>
      </trkpt>
      <trkpt lat="49.87514" lon="2.3139">
        <ele>66.4</ele>
        <time>2021-04-28T12:41:52Z</time>
      </trkpt>
      <trkpt lat="49.87514" lon="2.31388">
        <ele>66.3</ele>
        <time>2021-04-28T12:41:54Z</time>
      </trkpt>
      <trkpt lat="49.87513" lon="2.31387">
        <ele>66.3</ele>
        <time>2021-04-28T12:41:55Z</time>
      </trkpt>
      <trkpt lat="49.87513" lon="2.31386">
        <ele>66.3</ele>
        <time>2021-04-28T12:41:56Z</time>
      </trkpt>
      <trkpt lat="49.87513" lon="2.31385">
        <ele>66.3</ele>
        <time>2021-04-28T12:41:57Z</time>
      </trkpt>
      <trkpt lat="49.87511" lon="2.31384">
        <ele>66.2</ele>
        <time>2021-04-28T12:41:59Z</time>
      </trkpt>
      <trkpt lat="49.87511" lon="2.31382">
        <ele>66.2</ele>
        <time>2021-04-28T12:42:00Z</time>
      </trkpt>
      <trkpt lat="49.87509" lon="2.31378">
        <ele>66.1</ele>
        <time>2021-04-28T12:42:01Z</time>
      </trkpt>
      <trkpt lat="49.87508" lon="2.31376">
        <ele>66</ele>
        <time>2021-04-28T12:42:02Z</time>
      </trkpt>
      <trkpt lat="49.87507" lon="2.31374">
        <ele>66</ele>
        <time>2021-04-28T12:42:03Z</time>
      </trkpt>
      <trkpt lat="49.87506" lon="2.31372">
        <ele>66</ele>
        <time>2021-04-28T12:42:04Z</time>
      </trkpt>
      <trkpt lat="49.87506" lon="2.3137">
        <ele>66</ele>
        <time>2021-04-28T12:42:05Z</time>
      </trkpt>
      <trkpt lat="49.87505" lon="2.31368">
        <ele>66</ele>
        <time>2021-04-28T12:42:06Z</time>
      </trkpt>
      <trkpt lat="49.87505" lon="2.31367">
        <ele>65.9</ele>
        <time>2021-04-28T12:42:08Z</time>
      </trkpt>
      <trkpt lat="49.87504" lon="2.31365">
        <ele>65.9</ele>
        <time>2021-04-28T12:42:09Z</time>
      </trkpt>
      <trkpt lat="49.87503" lon="2.31363">
        <ele>65.9</ele>
        <time>2021-04-28T12:42:10Z</time>
      </trkpt>
      <trkpt lat="49.87502" lon="2.31361">
        <ele>65.9</ele>
        <time>2021-04-28T12:42:12Z</time>
      </trkpt>
      <trkpt lat="49.87502" lon="2.31359">
        <ele>65.9</ele>
        <time>2021-04-28T12:42:13Z</time>
      </trkpt>
      <trkpt lat="49.87501" lon="2.31357">
        <ele>65.8</ele>
        <time>2021-04-28T12:42:14Z</time>
      </trkpt>
      <trkpt lat="49.875" lon="2.31355">
        <ele>65.8</ele>
        <time>2021-04-28T12:42:15Z</time>
      </trkpt>
      <trkpt lat="49.875" lon="2.31354">
        <ele>65.8</ele>
        <time>2021-04-28T12:42:17Z</time>
      </trkpt>
      <trkpt lat="49.87499" lon="2.31353">
        <ele>65.8</ele>
        <time>2021-04-28T12:42:18Z</time>
      </trkpt>
      <trkpt lat="49.87499" lon="2.31351">
        <ele>65.8</ele>
        <time>2021-04-28T12:42:19Z</time>
      </trkpt>
      <trkpt lat="49.87498" lon="2.31349">
        <ele>65.8</ele>
        <time>2021-04-28T12:42:20Z</time>
      </trkpt>
      <trkpt lat="49.87498" lon="2.31348">
        <ele>65.8</ele>
        <time>2021-04-28T12:42:21Z</time>
      </trkpt>
      <trkpt lat="49.87497" lon="2.31345">
        <ele>65.7</ele>
        <time>2021-04-28T12:42:22Z</time>
      </trkpt>
      <trkpt lat="49.87496" lon="2.31344">
        <ele>65.7</ele>
        <time>2021-04-28T12:42:23Z</time>
      </trkpt>
      <trkpt lat="49.87496" lon="2.31343">
        <ele>65.7</ele>
        <time>2021-04-28T12:42:24Z</time>
      </trkpt>
      <trkpt lat="49.87495" lon="2.31341">
        <ele>65.7</ele>
        <time>2021-04-28T12:42:25Z</time>
      </trkpt>
      <trkpt lat="49.87496" lon="2.31342">
        <ele>65.7</ele>
        <time>2021-04-28T12:42:27Z</time>
      </trkpt>
      <trkpt lat="49.87495" lon="2.3134">
        <ele>65.7</ele>
        <time>2021-04-28T12:42:28Z</time>
      </trkpt>
      <trkpt lat="49.87495" lon="2.31339">
        <ele>65.7</ele>
        <time>2021-04-28T12:42:29Z</time>
      </trkpt>
      <trkpt lat="49.87494" lon="2.31337">
        <ele>65.7</ele>
        <time>2021-04-28T12:42:30Z</time>
      </trkpt>
      <trkpt lat="49.87493" lon="2.31335">
        <ele>65.6</ele>
        <time>2021-04-28T12:42:31Z</time>
      </trkpt>
      <trkpt lat="49.87493" lon="2.31332">
        <ele>65.6</ele>
        <time>2021-04-28T12:42:33Z</time>
      </trkpt>
      <trkpt lat="49.87492" lon="2.31331">
        <ele>65.6</ele>
        <time>2021-04-28T12:42:34Z</time>
      </trkpt>
      <trkpt lat="49.87492" lon="2.3133">
        <ele>65.6</ele>
        <time>2021-04-28T12:42:35Z</time>
      </trkpt>
      <trkpt lat="49.8749" lon="2.31328">
        <ele>65.6</ele>
        <time>2021-04-28T12:42:36Z</time>
      </trkpt>
      <trkpt lat="49.87488" lon="2.31328">
        <ele>65.6</ele>
        <time>2021-04-28T12:42:37Z</time>
      </trkpt>
      <trkpt lat="49.87487" lon="2.31328">
        <ele>65.6</ele>
        <time>2021-04-28T12:42:38Z</time>
      </trkpt>
      <trkpt lat="49.87485" lon="2.31328">
        <ele>65.6</ele>
        <time>2021-04-28T12:42:39Z</time>
      </trkpt>
      <trkpt lat="49.87483" lon="2.31327">
        <ele>65.5</ele>
        <time>2021-04-28T12:42:41Z</time>
      </trkpt>
      <trkpt lat="49.8748" lon="2.31328">
        <ele>65.5</ele>
        <time>2021-04-28T12:42:42Z</time>
      </trkpt>
      <trkpt lat="49.87478" lon="2.31329">
        <ele>65.5</ele>
        <time>2021-04-28T12:42:43Z</time>
      </trkpt>
      <trkpt lat="49.87477" lon="2.3133">
        <ele>65.5</ele>
        <time>2021-04-28T12:42:44Z</time>
      </trkpt>
      <trkpt lat="49.87476" lon="2.31329">
        <ele>65.5</ele>
        <time>2021-04-28T12:42:45Z</time>
      </trkpt>
      <trkpt lat="49.87477" lon="2.31327">
        <ele>65.5</ele>
        <time>2021-04-28T12:42:46Z</time>
      </trkpt>
      <trkpt lat="49.87477" lon="2.31324">
        <ele>65.4</ele>
        <time>2021-04-28T12:42:48Z</time>
      </trkpt>
      <trkpt lat="49.87477" lon="2.31322">
        <ele>65.4</ele>
        <time>2021-04-28T12:42:49Z</time>
      </trkpt>
      <trkpt lat="49.87477" lon="2.31318">
        <ele>65.4</ele>
        <time>2021-04-28T12:42:50Z</time>
      </trkpt>
      <trkpt lat="49.87477" lon="2.31316">
        <ele>65.4</ele>
        <time>2021-04-28T12:42:51Z</time>
      </trkpt>
      <trkpt lat="49.87476" lon="2.31311">
        <ele>65.4</ele>
        <time>2021-04-28T12:42:52Z</time>
      </trkpt>
      <trkpt lat="49.87475" lon="2.31308">
        <ele>65.3</ele>
        <time>2021-04-28T12:42:53Z</time>
      </trkpt>
      <trkpt lat="49.87474" lon="2.31307">
        <ele>65.3</ele>
        <time>2021-04-28T12:42:54Z</time>
      </trkpt>
      <trkpt lat="49.87474" lon="2.31306">
        <ele>65.3</ele>
        <time>2021-04-28T12:42:55Z</time>
      </trkpt>
      <trkpt lat="49.87472" lon="2.31301">
        <ele>65.3</ele>
        <time>2021-04-28T12:42:56Z</time>
      </trkpt>
      <trkpt lat="49.87472" lon="2.313">
        <ele>65.3</ele>
        <time>2021-04-28T12:42:57Z</time>
      </trkpt>
      <trkpt lat="49.87471" lon="2.31298">
        <ele>65.3</ele>
        <time>2021-04-28T12:42:59Z</time>
      </trkpt>
      <trkpt lat="49.8747" lon="2.31297">
        <ele>65.3</ele>
        <time>2021-04-28T12:43:00Z</time>
      </trkpt>
      <trkpt lat="49.87469" lon="2.31293">
        <ele>65.2</ele>
        <time>2021-04-28T12:43:01Z</time>
      </trkpt>
      <trkpt lat="49.87468" lon="2.3129">
        <ele>65.2</ele>
        <time>2021-04-28T12:43:02Z</time>
      </trkpt>
      <trkpt lat="49.87467" lon="2.31289">
        <ele>65.2</ele>
        <time>2021-04-28T12:43:03Z</time>
      </trkpt>
      <trkpt lat="49.87467" lon="2.31288">
        <ele>65.2</ele>
        <time>2021-04-28T12:43:04Z</time>
      </trkpt>
      <trkpt lat="49.87467" lon="2.31287">
        <ele>65.2</ele>
        <time>2021-04-28T12:43:05Z</time>
      </trkpt>
      <trkpt lat="49.87466" lon="2.31286">
        <ele>65.2</ele>
        <time>2021-04-28T12:43:06Z</time>
      </trkpt>
      <trkpt lat="49.87465" lon="2.31283">
        <ele>65.2</ele>
        <time>2021-04-28T12:43:08Z</time>
      </trkpt>
      <trkpt lat="49.87465" lon="2.31284">
        <ele>65.2</ele>
        <time>2021-04-28T12:43:09Z</time>
      </trkpt>
      <trkpt lat="49.87466" lon="2.31286">
        <ele>65.2</ele>
        <time>2021-04-28T12:43:11Z</time>
      </trkpt>
      <trkpt lat="49.87466" lon="2.31287">
        <ele>65.2</ele>
        <time>2021-04-28T12:43:12Z</time>
      </trkpt>
      <trkpt lat="49.87466" lon="2.31288">
        <ele>65.2</ele>
        <time>2021-04-28T12:43:13Z</time>
      </trkpt>
      <trkpt lat="49.87467" lon="2.31289">
        <ele>65.2</ele>
        <time>2021-04-28T12:43:15Z</time>
      </trkpt>
      <trkpt lat="49.87468" lon="2.31289">
        <ele>65.2</ele>
        <time>2021-04-28T12:43:16Z</time>
      </trkpt>
      <trkpt lat="49.87468" lon="2.31288">
        <ele>65.2</ele>
        <time>2021-04-28T12:43:17Z</time>
      </trkpt>
      <trkpt lat="49.87467" lon="2.31287">
        <ele>65.2</ele>
        <time>2021-04-28T12:43:18Z</time>
      </trkpt>
      <trkpt lat="49.87466" lon="2.31287">
        <ele>65.2</ele>
        <time>2021-04-28T12:43:19Z</time>
      </trkpt>
      <trkpt lat="49.87466" lon="2.31287">
        <ele>65.2</ele>
        <time>2021-04-28T12:43:20Z</time>
      </trkpt>
      <trkpt lat="49.87465" lon="2.31285">
        <ele>65.2</ele>
        <time>2021-04-28T12:43:22Z</time>
      </trkpt>
      <trkpt lat="49.87464" lon="2.31284">
        <ele>65.2</ele>
        <time>2021-04-28T12:43:23Z</time>
      </trkpt>
      <trkpt lat="49.87463" lon="2.31281">
        <ele>65.2</ele>
        <time>2021-04-28T12:43:24Z</time>
      </trkpt>
      <trkpt lat="49.87463" lon="2.3128">
        <ele>65.2</ele>
        <time>2021-04-28T12:43:25Z</time>
      </trkpt>
      <trkpt lat="49.87462" lon="2.31279">
        <ele>65.2</ele>
        <time>2021-04-28T12:43:26Z</time>
      </trkpt>
      <trkpt lat="49.87461" lon="2.31277">
        <ele>65.2</ele>
        <time>2021-04-28T12:43:27Z</time>
      </trkpt>
      <trkpt lat="49.87461" lon="2.31275">
        <ele>65.2</ele>
        <time>2021-04-28T12:43:29Z</time>
      </trkpt>
      <trkpt lat="49.8746" lon="2.31274">
        <ele>65.2</ele>
        <time>2021-04-28T12:43:30Z</time>
      </trkpt>
      <trkpt lat="49.8746" lon="2.31273">
        <ele>65.2</ele>
        <time>2021-04-28T12:43:31Z</time>
      </trkpt>
      <trkpt lat="49.87459" lon="2.31271">
        <ele>65.2</ele>
        <time>2021-04-28T12:43:32Z</time>
      </trkpt>
      <trkpt lat="49.87459" lon="2.31269">
        <ele>65.2</ele>
        <time>2021-04-28T12:43:33Z</time>
      </trkpt>
      <trkpt lat="49.87459" lon="2.31267">
        <ele>65.2</ele>
        <time>2021-04-28T12:43:35Z</time>
      </trkpt>
      <trkpt lat="49.87457" lon="2.31266">
        <ele>65.2</ele>
        <time>2021-04-28T12:43:36Z</time>
      </trkpt>
      <trkpt lat="49.87457" lon="2.31265">
        <ele>65.2</ele>
        <time>2021-04-28T12:43:37Z</time>
      </trkpt>
      <trkpt lat="49.87456" lon="2.31264">
        <ele>65.2</ele>
        <time>2021-04-28T12:43:38Z</time>
      </trkpt>
      <trkpt lat="49.87455" lon="2.31263">
        <ele>65.2</ele>
        <time>2021-04-28T12:43:40Z</time>
      </trkpt>
      <trkpt lat="49.87454" lon="2.31262">
        <ele>65.2</ele>
        <time>2021-04-28T12:43:41Z</time>
      </trkpt>
      <trkpt lat="49.87453" lon="2.31263">
        <ele>65.2</ele>
        <time>2021-04-28T12:43:42Z</time>
      </trkpt>
      <trkpt lat="49.87451" lon="2.31263">
        <ele>65.2</ele>
        <time>2021-04-28T12:43:43Z</time>
      </trkpt>
      <trkpt lat="49.8745" lon="2.31262">
        <ele>65.2</ele>
        <time>2021-04-28T12:43:44Z</time>
      </trkpt>
      <trkpt lat="49.87449" lon="2.31262">
        <ele>65.3</ele>
        <time>2021-04-28T12:43:45Z</time>
      </trkpt>
      <trkpt lat="49.87447" lon="2.31262">
        <ele>65.3</ele>
        <time>2021-04-28T12:43:47Z</time>
      </trkpt>
      <trkpt lat="49.87446" lon="2.31263">
        <ele>65.3</ele>
        <time>2021-04-28T12:43:48Z</time>
      </trkpt>
      <trkpt lat="49.87443" lon="2.31264">
        <ele>65.3</ele>
        <time>2021-04-28T12:43:50Z</time>
      </trkpt>
      <trkpt lat="49.87442" lon="2.31265">
        <ele>65.3</ele>
        <time>2021-04-28T12:43:51Z</time>
      </trkpt>
      <trkpt lat="49.87444" lon="2.31269">
        <ele>65.3</ele>
        <time>2021-04-28T12:43:52Z</time>
      </trkpt>
      <trkpt lat="49.8744" lon="2.31269">
        <ele>65.4</ele>
        <time>2021-04-28T12:43:54Z</time>
      </trkpt>
      <trkpt lat="49.8744" lon="2.31269">
        <ele>65.4</ele>
        <time>2021-04-28T12:43:55Z</time>
      </trkpt>
      <trkpt lat="49.87438" lon="2.31269">
        <ele>65.4</ele>
        <time>2021-04-28T12:43:56Z</time>
      </trkpt>
      <trkpt lat="49.87436" lon="2.31268">
        <ele>65.4</ele>
        <time>2021-04-28T12:43:57Z</time>
      </trkpt>
      <trkpt lat="49.87435" lon="2.31267">
        <ele>65.4</ele>
        <time>2021-04-28T12:43:58Z</time>
      </trkpt>
      <trkpt lat="49.87434" lon="2.31265">
        <ele>65.4</ele>
        <time>2021-04-28T12:43:59Z</time>
      </trkpt>
      <trkpt lat="49.87433" lon="2.31265">
        <ele>65.4</ele>
        <time>2021-04-28T12:44:01Z</time>
      </trkpt>
      <trkpt lat="49.87432" lon="2.31265">
        <ele>65.4</ele>
        <time>2021-04-28T12:44:02Z</time>
      </trkpt>
      <trkpt lat="49.8743" lon="2.31264">
        <ele>65.4</ele>
        <time>2021-04-28T12:44:03Z</time>
      </trkpt>
      <trkpt lat="49.87428" lon="2.31264">
        <ele>65.5</ele>
        <time>2021-04-28T12:44:04Z</time>
      </trkpt>
      <trkpt lat="49.87427" lon="2.31264">
        <ele>65.5</ele>
        <time>2021-04-28T12:44:06Z</time>
      </trkpt>
      <trkpt lat="49.87427" lon="2.31264">
        <ele>65.5</ele>
        <time>2021-04-28T12:44:07Z</time>
      </trkpt>
      <trkpt lat="49.87426" lon="2.31264">
        <ele>65.5</ele>
        <time>2021-04-28T12:44:08Z</time>
      </trkpt>
      <trkpt lat="49.87425" lon="2.31264">
        <ele>65.5</ele>
        <time>2021-04-28T12:44:09Z</time>
      </trkpt>
      <trkpt lat="49.87424" lon="2.31264">
        <ele>65.5</ele>
        <time>2021-04-28T12:44:10Z</time>
      </trkpt>
      <trkpt lat="49.87423" lon="2.31264">
        <ele>65.5</ele>
        <time>2021-04-28T12:44:11Z</time>
      </trkpt>
      <trkpt lat="49.87421" lon="2.31264">
        <ele>65.5</ele>
        <time>2021-04-28T12:44:12Z</time>
      </trkpt>
      <trkpt lat="49.8742" lon="2.31264">
        <ele>65.5</ele>
        <time>2021-04-28T12:44:13Z</time>
      </trkpt>
      <trkpt lat="49.87418" lon="2.31264">
        <ele>65.6</ele>
        <time>2021-04-28T12:44:15Z</time>
      </trkpt>
      <trkpt lat="49.87417" lon="2.31264">
        <ele>65.6</ele>
        <time>2021-04-28T12:44:16Z</time>
      </trkpt>
      <trkpt lat="49.87416" lon="2.31264">
        <ele>65.6</ele>
        <time>2021-04-28T12:44:17Z</time>
      </trkpt>
      <trkpt lat="49.87414" lon="2.31264">
        <ele>65.6</ele>
        <time>2021-04-28T12:44:18Z</time>
      </trkpt>
      <trkpt lat="49.87413" lon="2.31264">
        <ele>65.6</ele>
        <time>2021-04-28T12:44:19Z</time>
      </trkpt>
      <trkpt lat="49.87413" lon="2.31265">
        <ele>65.6</ele>
        <time>2021-04-28T12:44:20Z</time>
      </trkpt>
      <trkpt lat="49.87412" lon="2.31265">
        <ele>65.6</ele>
        <time>2021-04-28T12:44:21Z</time>
      </trkpt>
      <trkpt lat="49.8741" lon="2.31266">
        <ele>65.6</ele>
        <time>2021-04-28T12:44:23Z</time>
      </trkpt>
      <trkpt lat="49.87409" lon="2.31266">
        <ele>65.7</ele>
        <time>2021-04-28T12:44:24Z</time>
      </trkpt>
      <trkpt lat="49.87408" lon="2.31268">
        <ele>65.7</ele>
        <time>2021-04-28T12:44:25Z</time>
      </trkpt>
      <trkpt lat="49.87409" lon="2.31269">
        <ele>65.7</ele>
        <time>2021-04-28T12:44:26Z</time>
      </trkpt>
      <trkpt lat="49.87408" lon="2.31269">
        <ele>65.7</ele>
        <time>2021-04-28T12:44:27Z</time>
      </trkpt>
      <trkpt lat="49.87406" lon="2.3127">
        <ele>65.7</ele>
        <time>2021-04-28T12:44:28Z</time>
      </trkpt>
      <trkpt lat="49.87405" lon="2.3127">
        <ele>65.7</ele>
        <time>2021-04-28T12:44:30Z</time>
      </trkpt>
      <trkpt lat="49.87404" lon="2.3127">
        <ele>65.7</ele>
        <time>2021-04-28T12:44:31Z</time>
      </trkpt>
      <trkpt lat="49.87402" lon="2.3127">
        <ele>65.7</ele>
        <time>2021-04-28T12:44:32Z</time>
      </trkpt>
      <trkpt lat="49.874" lon="2.3127">
        <ele>65.8</ele>
        <time>2021-04-28T12:44:33Z</time>
      </trkpt>
      <trkpt lat="49.87398" lon="2.31269">
        <ele>65.8</ele>
        <time>2021-04-28T12:44:35Z</time>
      </trkpt>
      <trkpt lat="49.87397" lon="2.31268">
        <ele>65.8</ele>
        <time>2021-04-28T12:44:36Z</time>
      </trkpt>
      <trkpt lat="49.87397" lon="2.31268">
        <ele>65.8</ele>
        <time>2021-04-28T12:44:37Z</time>
      </trkpt>
      <trkpt lat="49.87394" lon="2.31267">
        <ele>65.8</ele>
        <time>2021-04-28T12:44:38Z</time>
      </trkpt>
      <trkpt lat="49.87394" lon="2.31267">
        <ele>65.8</ele>
        <time>2021-04-28T12:44:39Z</time>
      </trkpt>
      <trkpt lat="49.87393" lon="2.31267">
        <ele>65.8</ele>
        <time>2021-04-28T12:44:40Z</time>
      </trkpt>
      <trkpt lat="49.87392" lon="2.31267">
        <ele>65.8</ele>
        <time>2021-04-28T12:44:42Z</time>
      </trkpt>
      <trkpt lat="49.87391" lon="2.31267">
        <ele>65.8</ele>
        <time>2021-04-28T12:44:43Z</time>
      </trkpt>
      <trkpt lat="49.8739" lon="2.31267">
        <ele>65.9</ele>
        <time>2021-04-28T12:44:44Z</time>
      </trkpt>
      <trkpt lat="49.87389" lon="2.31267">
        <ele>65.9</ele>
        <time>2021-04-28T12:44:45Z</time>
      </trkpt>
      <trkpt lat="49.87388" lon="2.31267">
        <ele>65.9</ele>
        <time>2021-04-28T12:44:46Z</time>
      </trkpt>
      <trkpt lat="49.87386" lon="2.31267">
        <ele>65.9</ele>
        <time>2021-04-28T12:44:48Z</time>
      </trkpt>
      <trkpt lat="49.87385" lon="2.31268">
        <ele>65.9</ele>
        <time>2021-04-28T12:44:49Z</time>
      </trkpt>
      <trkpt lat="49.87384" lon="2.31268">
        <ele>65.9</ele>
        <time>2021-04-28T12:44:50Z</time>
      </trkpt>
      <trkpt lat="49.87383" lon="2.31269">
        <ele>65.9</ele>
        <time>2021-04-28T12:44:52Z</time>
      </trkpt>
      <trkpt lat="49.87382" lon="2.31269">
        <ele>65.9</ele>
        <time>2021-04-28T12:44:53Z</time>
      </trkpt>
      <trkpt lat="49.87381" lon="2.31269">
        <ele>65.8</ele>
        <time>2021-04-28T12:44:54Z</time>
      </trkpt>
      <trkpt lat="49.87378" lon="2.31269">
        <ele>65.8</ele>
        <time>2021-04-28T12:44:56Z</time>
      </trkpt>
      <trkpt lat="49.87376" lon="2.31269">
        <ele>65.8</ele>
        <time>2021-04-28T12:44:58Z</time>
      </trkpt>
      <trkpt lat="49.87375" lon="2.31269">
        <ele>65.8</ele>
        <time>2021-04-28T12:44:59Z</time>
      </trkpt>
      <trkpt lat="49.87373" lon="2.31269">
        <ele>65.7</ele>
        <time>2021-04-28T12:45:00Z</time>
      </trkpt>
      <trkpt lat="49.87371" lon="2.31269">
        <ele>65.7</ele>
        <time>2021-04-28T12:45:02Z</time>
      </trkpt>
      <trkpt lat="49.8737" lon="2.31268">
        <ele>65.7</ele>
        <time>2021-04-28T12:45:03Z</time>
      </trkpt>
      <trkpt lat="49.87368" lon="2.31268">
        <ele>65.6</ele>
        <time>2021-04-28T12:45:04Z</time>
      </trkpt>
      <trkpt lat="49.87367" lon="2.31269">
        <ele>65.6</ele>
        <time>2021-04-28T12:45:05Z</time>
      </trkpt>
      <trkpt lat="49.87368" lon="2.3127">
        <ele>65.6</ele>
        <time>2021-04-28T12:45:07Z</time>
      </trkpt>
      <trkpt lat="49.87367" lon="2.3127">
        <ele>65.6</ele>
        <time>2021-04-28T12:45:08Z</time>
      </trkpt>
      <trkpt lat="49.87365" lon="2.31271">
        <ele>65.6</ele>
        <time>2021-04-28T12:45:10Z</time>
      </trkpt>
      <trkpt lat="49.87364" lon="2.31271">
        <ele>65.6</ele>
        <time>2021-04-28T12:45:11Z</time>
      </trkpt>
      <trkpt lat="49.87365" lon="2.31272">
        <ele>65.6</ele>
        <time>2021-04-28T12:45:12Z</time>
      </trkpt>
      <trkpt lat="49.87363" lon="2.31272">
        <ele>65.6</ele>
        <time>2021-04-28T12:45:13Z</time>
      </trkpt>
      <trkpt lat="49.87362" lon="2.31273">
        <ele>65.6</ele>
        <time>2021-04-28T12:45:14Z</time>
      </trkpt>
      <trkpt lat="49.87361" lon="2.31272">
        <ele>65.6</ele>
        <time>2021-04-28T12:45:16Z</time>
      </trkpt>
      <trkpt lat="49.87359" lon="2.31272">
        <ele>65.6</ele>
        <time>2021-04-28T12:45:17Z</time>
      </trkpt>
      <trkpt lat="49.87358" lon="2.31272">
        <ele>65.6</ele>
        <time>2021-04-28T12:45:18Z</time>
      </trkpt>
      <trkpt lat="49.87358" lon="2.31272">
        <ele>65.6</ele>
        <time>2021-04-28T12:45:19Z</time>
      </trkpt>
      <trkpt lat="49.87355" lon="2.31271">
        <ele>65.6</ele>
        <time>2021-04-28T12:45:20Z</time>
      </trkpt>
      <trkpt lat="49.87354" lon="2.3127">
        <ele>65.6</ele>
        <time>2021-04-28T12:45:21Z</time>
      </trkpt>
      <trkpt lat="49.87352" lon="2.31271">
        <ele>65.6</ele>
        <time>2021-04-28T12:45:23Z</time>
      </trkpt>
      <trkpt lat="49.87351" lon="2.31272">
        <ele>65.6</ele>
        <time>2021-04-28T12:45:24Z</time>
      </trkpt>
      <trkpt lat="49.8735" lon="2.31272">
        <ele>65.6</ele>
        <time>2021-04-28T12:45:25Z</time>
      </trkpt>
      <trkpt lat="49.87349" lon="2.31272">
        <ele>65.6</ele>
        <time>2021-04-28T12:45:26Z</time>
      </trkpt>
      <trkpt lat="49.87348" lon="2.31271">
        <ele>65.6</ele>
        <time>2021-04-28T12:45:27Z</time>
      </trkpt>
      <trkpt lat="49.87348" lon="2.3127">
        <ele>65.6</ele>
        <time>2021-04-28T12:45:29Z</time>
      </trkpt>
      <trkpt lat="49.87347" lon="2.31269">
        <ele>65.6</ele>
        <time>2021-04-28T12:45:30Z</time>
      </trkpt>
      <trkpt lat="49.87348" lon="2.31267">
        <ele>65.7</ele>
        <time>2021-04-28T12:45:31Z</time>
      </trkpt>
      <trkpt lat="49.87347" lon="2.31267">
        <ele>65.7</ele>
        <time>2021-04-28T12:45:32Z</time>
      </trkpt>
      <trkpt lat="49.87344" lon="2.31267">
        <ele>65.7</ele>
        <time>2021-04-28T12:45:33Z</time>
      </trkpt>
      <trkpt lat="49.87343" lon="2.31267">
        <ele>65.7</ele>
        <time>2021-04-28T12:45:34Z</time>
      </trkpt>
      <trkpt lat="49.87342" lon="2.31267">
        <ele>65.7</ele>
        <time>2021-04-28T12:45:35Z</time>
      </trkpt>
      <trkpt lat="49.87341" lon="2.31267">
        <ele>65.7</ele>
        <time>2021-04-28T12:45:36Z</time>
      </trkpt>
      <trkpt lat="49.8734" lon="2.31267">
        <ele>65.7</ele>
        <time>2021-04-28T12:45:37Z</time>
      </trkpt>
      <trkpt lat="49.87338" lon="2.31267">
        <ele>65.7</ele>
        <time>2021-04-28T12:45:39Z</time>
      </trkpt>
      <trkpt lat="49.87337" lon="2.31267">
        <ele>65.7</ele>
        <time>2021-04-28T12:45:40Z</time>
      </trkpt>
      <trkpt lat="49.87335" lon="2.31267">
        <ele>65.7</ele>
        <time>2021-04-28T12:45:41Z</time>
      </trkpt>
      <trkpt lat="49.87333" lon="2.31268">
        <ele>65.7</ele>
        <time>2021-04-28T12:45:42Z</time>
      </trkpt>
      <trkpt lat="49.87332" lon="2.31269">
        <ele>65.7</ele>
        <time>2021-04-28T12:45:43Z</time>
      </trkpt>
      <trkpt lat="49.8733" lon="2.31269">
        <ele>65.7</ele>
        <time>2021-04-28T12:45:45Z</time>
      </trkpt>
      <trkpt lat="49.87329" lon="2.3127">
        <ele>65.7</ele>
        <time>2021-04-28T12:45:46Z</time>
      </trkpt>
      <trkpt lat="49.87329" lon="2.31268">
        <ele>65.7</ele>
        <time>2021-04-28T12:45:47Z</time>
      </trkpt>
      <trkpt lat="49.87327" lon="2.31269">
        <ele>65.6</ele>
        <time>2021-04-28T12:45:48Z</time>
      </trkpt>
      <trkpt lat="49.87326" lon="2.31269">
        <ele>65.6</ele>
        <time>2021-04-28T12:45:49Z</time>
      </trkpt>
      <trkpt lat="49.87324" lon="2.3127">
        <ele>65.6</ele>
        <time>2021-04-28T12:45:50Z</time>
      </trkpt>
      <trkpt lat="49.87323" lon="2.31269">
        <ele>65.6</ele>
        <time>2021-04-28T12:45:51Z</time>
      </trkpt>
      <trkpt lat="49.87321" lon="2.31269">
        <ele>65.6</ele>
        <time>2021-04-28T12:45:52Z</time>
      </trkpt>
      <trkpt lat="49.87319" lon="2.31269">
        <ele>65.5</ele>
        <time>2021-04-28T12:45:54Z</time>
      </trkpt>
      <trkpt lat="49.87318" lon="2.3127">
        <ele>65.5</ele>
        <time>2021-04-28T12:45:55Z</time>
      </trkpt>
      <trkpt lat="49.87317" lon="2.3127">
        <ele>65.5</ele>
        <time>2021-04-28T12:45:56Z</time>
      </trkpt>
      <trkpt lat="49.87318" lon="2.31271">
        <ele>65.5</ele>
        <time>2021-04-28T12:45:57Z</time>
      </trkpt>
      <trkpt lat="49.87316" lon="2.31272">
        <ele>65.5</ele>
        <time>2021-04-28T12:45:59Z</time>
      </trkpt>
      <trkpt lat="49.87315" lon="2.31272">
        <ele>65.4</ele>
        <time>2021-04-28T12:46:00Z</time>
      </trkpt>
      <trkpt lat="49.87313" lon="2.31272">
        <ele>65.4</ele>
        <time>2021-04-28T12:46:01Z</time>
      </trkpt>
      <trkpt lat="49.87311" lon="2.31271">
        <ele>65.4</ele>
        <time>2021-04-28T12:46:02Z</time>
      </trkpt>
      <trkpt lat="49.8731" lon="2.31271">
        <ele>65.4</ele>
        <time>2021-04-28T12:46:04Z</time>
      </trkpt>
      <trkpt lat="49.87308" lon="2.31271">
        <ele>65.3</ele>
        <time>2021-04-28T12:46:05Z</time>
      </trkpt>
      <trkpt lat="49.87307" lon="2.31271">
        <ele>65.3</ele>
        <time>2021-04-28T12:46:06Z</time>
      </trkpt>
      <trkpt lat="49.87307" lon="2.31271">
        <ele>65.3</ele>
        <time>2021-04-28T12:46:07Z</time>
      </trkpt>
      <trkpt lat="49.87305" lon="2.31271">
        <ele>65.3</ele>
        <time>2021-04-28T12:46:08Z</time>
      </trkpt>
      <trkpt lat="49.87304" lon="2.31271">
        <ele>65.2</ele>
        <time>2021-04-28T12:46:09Z</time>
      </trkpt>
      <trkpt lat="49.87303" lon="2.31272">
        <ele>65.2</ele>
        <time>2021-04-28T12:46:10Z</time>
      </trkpt>
      <trkpt lat="49.87301" lon="2.31271">
        <ele>65.2</ele>
        <time>2021-04-28T12:46:11Z</time>
      </trkpt>
      <trkpt lat="49.873" lon="2.31271">
        <ele>65.1</ele>
        <time>2021-04-28T12:46:12Z</time>
      </trkpt>
      <trkpt lat="49.87299" lon="2.31271">
        <ele>65.1</ele>
        <time>2021-04-28T12:46:13Z</time>
      </trkpt>
      <trkpt lat="49.87297" lon="2.31272">
        <ele>65.1</ele>
        <time>2021-04-28T12:46:15Z</time>
      </trkpt>
      <trkpt lat="49.87296" lon="2.31272">
        <ele>65.1</ele>
        <time>2021-04-28T12:46:16Z</time>
      </trkpt>
      <trkpt lat="49.87293" lon="2.31268">
        <ele>65</ele>
        <time>2021-04-28T12:46:17Z</time>
      </trkpt>
      <trkpt lat="49.87292" lon="2.31268">
        <ele>64.9</ele>
        <time>2021-04-28T12:46:18Z</time>
      </trkpt>
      <trkpt lat="49.8729" lon="2.31269">
        <ele>64.9</ele>
        <time>2021-04-28T12:46:19Z</time>
      </trkpt>
      <trkpt lat="49.87288" lon="2.31265">
        <ele>64.8</ele>
        <time>2021-04-28T12:46:20Z</time>
      </trkpt>
      <trkpt lat="49.87287" lon="2.31261">
        <ele>64.7</ele>
        <time>2021-04-28T12:46:21Z</time>
      </trkpt>
      <trkpt lat="49.87285" lon="2.31262">
        <ele>64.7</ele>
        <time>2021-04-28T12:46:23Z</time>
      </trkpt>
      <trkpt lat="49.87284" lon="2.31262">
        <ele>64.6</ele>
        <time>2021-04-28T12:46:24Z</time>
      </trkpt>
      <trkpt lat="49.87284" lon="2.31262">
        <ele>64.6</ele>
        <time>2021-04-28T12:46:25Z</time>
      </trkpt>
      <trkpt lat="49.87282" lon="2.31264">
        <ele>64.6</ele>
        <time>2021-04-28T12:46:26Z</time>
      </trkpt>
      <trkpt lat="49.87279" lon="2.31259">
        <ele>64.5</ele>
        <time>2021-04-28T12:46:28Z</time>
      </trkpt>
      <trkpt lat="49.87277" lon="2.3126">
        <ele>64.4</ele>
        <time>2021-04-28T12:46:29Z</time>
      </trkpt>
      <trkpt lat="49.87276" lon="2.31261">
        <ele>64.3</ele>
        <time>2021-04-28T12:46:30Z</time>
      </trkpt>
      <trkpt lat="49.87275" lon="2.31262">
        <ele>64.3</ele>
        <time>2021-04-28T12:46:31Z</time>
      </trkpt>
      <trkpt lat="49.87274" lon="2.31267">
        <ele>64.1</ele>
        <time>2021-04-28T12:46:32Z</time>
      </trkpt>
      <trkpt lat="49.87272" lon="2.31269">
        <ele>64</ele>
        <time>2021-04-28T12:46:33Z</time>
      </trkpt>
      <trkpt lat="49.87271" lon="2.3127">
        <ele>64</ele>
        <time>2021-04-28T12:46:35Z</time>
      </trkpt>
      <trkpt lat="49.87271" lon="2.3127">
        <ele>63.9</ele>
        <time>2021-04-28T12:46:36Z</time>
      </trkpt>
      <trkpt lat="49.8727" lon="2.31271">
        <ele>63.9</ele>
        <time>2021-04-28T12:46:37Z</time>
      </trkpt>
      <trkpt lat="49.87269" lon="2.31271">
        <ele>63.8</ele>
        <time>2021-04-28T12:46:38Z</time>
      </trkpt>
      <trkpt lat="49.87268" lon="2.31272">
        <ele>63.8</ele>
        <time>2021-04-28T12:46:39Z</time>
      </trkpt>
      <trkpt lat="49.87266" lon="2.31272">
        <ele>63.7</ele>
        <time>2021-04-28T12:46:40Z</time>
      </trkpt>
      <trkpt lat="49.87266" lon="2.3127">
        <ele>63.6</ele>
        <time>2021-04-28T12:46:41Z</time>
      </trkpt>
      <trkpt lat="49.87265" lon="2.3127">
        <ele>63.6</ele>
        <time>2021-04-28T12:46:42Z</time>
      </trkpt>
      <trkpt lat="49.87264" lon="2.31271">
        <ele>63.5</ele>
        <time>2021-04-28T12:46:44Z</time>
      </trkpt>
      <trkpt lat="49.87262" lon="2.31271">
        <ele>63.5</ele>
        <time>2021-04-28T12:46:45Z</time>
      </trkpt>
      <trkpt lat="49.87261" lon="2.31272">
        <ele>63.4</ele>
        <time>2021-04-28T12:46:46Z</time>
      </trkpt>
      <trkpt lat="49.87262" lon="2.31271">
        <ele>63.4</ele>
        <time>2021-04-28T12:46:47Z</time>
      </trkpt>
      <trkpt lat="49.87261" lon="2.31272">
        <ele>63.3</ele>
        <time>2021-04-28T12:46:48Z</time>
      </trkpt>
      <trkpt lat="49.87259" lon="2.31272">
        <ele>63.3</ele>
        <time>2021-04-28T12:46:49Z</time>
      </trkpt>
      <trkpt lat="49.87258" lon="2.31273">
        <ele>63.2</ele>
        <time>2021-04-28T12:46:50Z</time>
      </trkpt>
      <trkpt lat="49.87257" lon="2.31273">
        <ele>63.1</ele>
        <time>2021-04-28T12:46:51Z</time>
      </trkpt>
      <trkpt lat="49.87256" lon="2.31274">
        <ele>63.1</ele>
        <time>2021-04-28T12:46:53Z</time>
      </trkpt>
      <trkpt lat="49.87255" lon="2.31275">
        <ele>63.1</ele>
        <time>2021-04-28T12:46:54Z</time>
      </trkpt>
      <trkpt lat="49.87255" lon="2.31275">
        <ele>63</ele>
        <time>2021-04-28T12:46:55Z</time>
      </trkpt>
      <trkpt lat="49.87253" lon="2.31276">
        <ele>62.9</ele>
        <time>2021-04-28T12:46:56Z</time>
      </trkpt>
      <trkpt lat="49.87252" lon="2.31277">
        <ele>62.9</ele>
        <time>2021-04-28T12:46:58Z</time>
      </trkpt>
      <trkpt lat="49.87251" lon="2.31278">
        <ele>62.8</ele>
        <time>2021-04-28T12:46:59Z</time>
      </trkpt>
      <trkpt lat="49.8725" lon="2.31278">
        <ele>62.8</ele>
        <time>2021-04-28T12:47:00Z</time>
      </trkpt>
      <trkpt lat="49.87248" lon="2.31278">
        <ele>62.7</ele>
        <time>2021-04-28T12:47:01Z</time>
      </trkpt>
      <trkpt lat="49.87248" lon="2.31278">
        <ele>62.7</ele>
        <time>2021-04-28T12:47:02Z</time>
      </trkpt>
      <trkpt lat="49.87247" lon="2.31279">
        <ele>62.6</ele>
        <time>2021-04-28T12:47:03Z</time>
      </trkpt>
      <trkpt lat="49.87245" lon="2.31279">
        <ele>62.5</ele>
        <time>2021-04-28T12:47:04Z</time>
      </trkpt>
      <trkpt lat="49.87244" lon="2.31279">
        <ele>62.5</ele>
        <time>2021-04-28T12:47:06Z</time>
      </trkpt>
      <trkpt lat="49.87245" lon="2.31278">
        <ele>62.4</ele>
        <time>2021-04-28T12:47:07Z</time>
      </trkpt>
      <trkpt lat="49.87244" lon="2.31279">
        <ele>62.4</ele>
        <time>2021-04-28T12:47:08Z</time>
      </trkpt>
      <trkpt lat="49.87242" lon="2.3128">
        <ele>62.2</ele>
        <time>2021-04-28T12:47:09Z</time>
      </trkpt>
      <trkpt lat="49.87241" lon="2.31281">
        <ele>62.2</ele>
        <time>2021-04-28T12:47:11Z</time>
      </trkpt>
      <trkpt lat="49.8724" lon="2.3128">
        <ele>62.1</ele>
        <time>2021-04-28T12:47:12Z</time>
      </trkpt>
      <trkpt lat="49.87239" lon="2.3128">
        <ele>62.1</ele>
        <time>2021-04-28T12:47:13Z</time>
      </trkpt>
      <trkpt lat="49.87237" lon="2.31281">
        <ele>62</ele>
        <time>2021-04-28T12:47:14Z</time>
      </trkpt>
      <trkpt lat="49.87236" lon="2.31283">
        <ele>61.9</ele>
        <time>2021-04-28T12:47:15Z</time>
      </trkpt>
      <trkpt lat="49.87235" lon="2.31283">
        <ele>61.8</ele>
        <time>2021-04-28T12:47:16Z</time>
      </trkpt>
      <trkpt lat="49.87234" lon="2.31284">
        <ele>61.8</ele>
        <time>2021-04-28T12:47:17Z</time>
      </trkpt>
      <trkpt lat="49.87233" lon="2.31285">
        <ele>61.7</ele>
        <time>2021-04-28T12:47:18Z</time>
      </trkpt>
      <trkpt lat="49.87232" lon="2.31285">
        <ele>61.7</ele>
        <time>2021-04-28T12:47:20Z</time>
      </trkpt>
      <trkpt lat="49.87231" lon="2.31285">
        <ele>61.6</ele>
        <time>2021-04-28T12:47:21Z</time>
      </trkpt>
      <trkpt lat="49.8723" lon="2.31284">
        <ele>61.5</ele>
        <time>2021-04-28T12:47:22Z</time>
      </trkpt>
      <trkpt lat="49.87228" lon="2.31284">
        <ele>61.5</ele>
        <time>2021-04-28T12:47:23Z</time>
      </trkpt>
      <trkpt lat="49.87227" lon="2.31284">
        <ele>61.4</ele>
        <time>2021-04-28T12:47:24Z</time>
      </trkpt>
      <trkpt lat="49.87226" lon="2.31285">
        <ele>61.3</ele>
        <time>2021-04-28T12:47:25Z</time>
      </trkpt>
      <trkpt lat="49.87223" lon="2.31283">
        <ele>61.2</ele>
        <time>2021-04-28T12:47:27Z</time>
      </trkpt>
      <trkpt lat="49.87222" lon="2.31284">
        <ele>61.1</ele>
        <time>2021-04-28T12:47:28Z</time>
      </trkpt>
      <trkpt lat="49.87221" lon="2.31284">
        <ele>61.1</ele>
        <time>2021-04-28T12:47:29Z</time>
      </trkpt>
      <trkpt lat="49.8722" lon="2.31285">
        <ele>61</ele>
        <time>2021-04-28T12:47:30Z</time>
      </trkpt>
      <trkpt lat="49.87219" lon="2.31285">
        <ele>61</ele>
        <time>2021-04-28T12:47:31Z</time>
      </trkpt>
      <trkpt lat="49.87217" lon="2.31282">
        <ele>60.9</ele>
        <time>2021-04-28T12:47:32Z</time>
      </trkpt>
      <trkpt lat="49.87215" lon="2.3128">
        <ele>60.7</ele>
        <time>2021-04-28T12:47:33Z</time>
      </trkpt>
      <trkpt lat="49.87214" lon="2.3128">
        <ele>60.7</ele>
        <time>2021-04-28T12:47:34Z</time>
      </trkpt>
      <trkpt lat="49.87213" lon="2.31279">
        <ele>60.6</ele>
        <time>2021-04-28T12:47:35Z</time>
      </trkpt>
      <trkpt lat="49.87211" lon="2.31274">
        <ele>60.5</ele>
        <time>2021-04-28T12:47:37Z</time>
      </trkpt>
      <trkpt lat="49.8721" lon="2.31274">
        <ele>60.5</ele>
        <time>2021-04-28T12:47:38Z</time>
      </trkpt>
      <trkpt lat="49.8721" lon="2.31274">
        <ele>60.5</ele>
        <time>2021-04-28T12:47:39Z</time>
      </trkpt>
      <trkpt lat="49.87209" lon="2.31274">
        <ele>60.5</ele>
        <time>2021-04-28T12:47:40Z</time>
      </trkpt>
      <trkpt lat="49.87208" lon="2.31274">
        <ele>60.5</ele>
        <time>2021-04-28T12:47:41Z</time>
      </trkpt>
      <trkpt lat="49.87207" lon="2.31269">
        <ele>60.4</ele>
        <time>2021-04-28T12:47:42Z</time>
      </trkpt>
      <trkpt lat="49.87206" lon="2.31269">
        <ele>60.4</ele>
        <time>2021-04-28T12:47:43Z</time>
      </trkpt>
      <trkpt lat="49.87205" lon="2.3127">
        <ele>60.4</ele>
        <time>2021-04-28T12:47:44Z</time>
      </trkpt>
      <trkpt lat="49.87204" lon="2.3127">
        <ele>60.3</ele>
        <time>2021-04-28T12:47:46Z</time>
      </trkpt>
      <trkpt lat="49.87203" lon="2.31268">
        <ele>60.3</ele>
        <time>2021-04-28T12:47:47Z</time>
      </trkpt>
      <trkpt lat="49.87202" lon="2.31268">
        <ele>60.3</ele>
        <time>2021-04-28T12:47:48Z</time>
      </trkpt>
      <trkpt lat="49.87201" lon="2.31267">
        <ele>60.2</ele>
        <time>2021-04-28T12:47:49Z</time>
      </trkpt>
      <trkpt lat="49.872" lon="2.31266">
        <ele>60.2</ele>
        <time>2021-04-28T12:47:50Z</time>
      </trkpt>
      <trkpt lat="49.87203" lon="2.3126">
        <ele>60.1</ele>
        <time>2021-04-28T12:47:52Z</time>
      </trkpt>
      <trkpt lat="49.87203" lon="2.3126">
        <ele>60.1</ele>
        <time>2021-04-28T12:47:53Z</time>
      </trkpt>
      <trkpt lat="49.87203" lon="2.3126">
        <ele>60.1</ele>
        <time>2021-04-28T12:47:54Z</time>
      </trkpt>
      <trkpt lat="49.87202" lon="2.3126">
        <ele>60.1</ele>
        <time>2021-04-28T12:47:55Z</time>
      </trkpt>
      <trkpt lat="49.87202" lon="2.31261">
        <ele>60</ele>
        <time>2021-04-28T12:47:56Z</time>
      </trkpt>
      <trkpt lat="49.87201" lon="2.31261">
        <ele>60</ele>
        <time>2021-04-28T12:47:57Z</time>
      </trkpt>
      <trkpt lat="49.87201" lon="2.31261">
        <ele>60</ele>
        <time>2021-04-28T12:47:58Z</time>
      </trkpt>
      <trkpt lat="49.872" lon="2.31262">
        <ele>60</ele>
        <time>2021-04-28T12:47:59Z</time>
      </trkpt>
      <trkpt lat="49.872" lon="2.31262">
        <ele>60</ele>
        <time>2021-04-28T12:48:01Z</time>
      </trkpt>
      <trkpt lat="49.87199" lon="2.31262">
        <ele>60</ele>
        <time>2021-04-28T12:48:02Z</time>
      </trkpt>
      <trkpt lat="49.87198" lon="2.31263">
        <ele>60</ele>
        <time>2021-04-28T12:48:03Z</time>
      </trkpt>
      <trkpt lat="49.87197" lon="2.31265">
        <ele>59.9</ele>
        <time>2021-04-28T12:48:04Z</time>
      </trkpt>
      <trkpt lat="49.87195" lon="2.31266">
        <ele>59.9</ele>
        <time>2021-04-28T12:48:05Z</time>
      </trkpt>
      <trkpt lat="49.87194" lon="2.31267">
        <ele>59.9</ele>
        <time>2021-04-28T12:48:06Z</time>
      </trkpt>
      <trkpt lat="49.87192" lon="2.31269">
        <ele>59.8</ele>
        <time>2021-04-28T12:48:08Z</time>
      </trkpt>
      <trkpt lat="49.87191" lon="2.3127">
        <ele>59.8</ele>
        <time>2021-04-28T12:48:09Z</time>
      </trkpt>
      <trkpt lat="49.87189" lon="2.31272">
        <ele>59.8</ele>
        <time>2021-04-28T12:48:10Z</time>
      </trkpt>
      <trkpt lat="49.87188" lon="2.31273">
        <ele>59.8</ele>
        <time>2021-04-28T12:48:11Z</time>
      </trkpt>
      <trkpt lat="49.87187" lon="2.31274">
        <ele>59.8</ele>
        <time>2021-04-28T12:48:12Z</time>
      </trkpt>
      <trkpt lat="49.87186" lon="2.31275">
        <ele>59.8</ele>
        <time>2021-04-28T12:48:13Z</time>
      </trkpt>
      <trkpt lat="49.87185" lon="2.31276">
        <ele>59.8</ele>
        <time>2021-04-28T12:48:15Z</time>
      </trkpt>
      <trkpt lat="49.87184" lon="2.31277">
        <ele>59.7</ele>
        <time>2021-04-28T12:48:16Z</time>
      </trkpt>
      <trkpt lat="49.87184" lon="2.31278">
        <ele>59.7</ele>
        <time>2021-04-28T12:48:17Z</time>
      </trkpt>
      <trkpt lat="49.87183" lon="2.31279">
        <ele>59.7</ele>
        <time>2021-04-28T12:48:18Z</time>
      </trkpt>
      <trkpt lat="49.87182" lon="2.31279">
        <ele>59.7</ele>
        <time>2021-04-28T12:48:19Z</time>
      </trkpt>
      <trkpt lat="49.87181" lon="2.3128">
        <ele>59.7</ele>
        <time>2021-04-28T12:48:20Z</time>
      </trkpt>
      <trkpt lat="49.8718" lon="2.31281">
        <ele>59.7</ele>
        <time>2021-04-28T12:48:21Z</time>
      </trkpt>
      <trkpt lat="49.8718" lon="2.31281">
        <ele>59.7</ele>
        <time>2021-04-28T12:48:23Z</time>
      </trkpt>
      <trkpt lat="49.87179" lon="2.31282">
        <ele>59.7</ele>
        <time>2021-04-28T12:48:24Z</time>
      </trkpt>
      <trkpt lat="49.87178" lon="2.31282">
        <ele>59.7</ele>
        <time>2021-04-28T12:48:25Z</time>
      </trkpt>
      <trkpt lat="49.87177" lon="2.31283">
        <ele>59.6</ele>
        <time>2021-04-28T12:48:26Z</time>
      </trkpt>
      <trkpt lat="49.87176" lon="2.31284">
        <ele>59.6</ele>
        <time>2021-04-28T12:48:27Z</time>
      </trkpt>
      <trkpt lat="49.87175" lon="2.31285">
        <ele>59.6</ele>
        <time>2021-04-28T12:48:28Z</time>
      </trkpt>
      <trkpt lat="49.87174" lon="2.31286">
        <ele>59.6</ele>
        <time>2021-04-28T12:48:30Z</time>
      </trkpt>
      <trkpt lat="49.87173" lon="2.31287">
        <ele>59.6</ele>
        <time>2021-04-28T12:48:31Z</time>
      </trkpt>
      <trkpt lat="49.87172" lon="2.31288">
        <ele>59.6</ele>
        <time>2021-04-28T12:48:32Z</time>
      </trkpt>
      <trkpt lat="49.87171" lon="2.31287">
        <ele>59.6</ele>
        <time>2021-04-28T12:48:33Z</time>
      </trkpt>
      <trkpt lat="49.8717" lon="2.31287">
        <ele>59.6</ele>
        <time>2021-04-28T12:48:34Z</time>
      </trkpt>
      <trkpt lat="49.8717" lon="2.31286">
        <ele>59.6</ele>
        <time>2021-04-28T12:48:35Z</time>
      </trkpt>
      <trkpt lat="49.87169" lon="2.31286">
        <ele>59.6</ele>
        <time>2021-04-28T12:48:36Z</time>
      </trkpt>
      <trkpt lat="49.87168" lon="2.31285">
        <ele>59.5</ele>
        <time>2021-04-28T12:48:37Z</time>
      </trkpt>
      <trkpt lat="49.87167" lon="2.31285">
        <ele>59.5</ele>
        <time>2021-04-28T12:48:39Z</time>
      </trkpt>
      <trkpt lat="49.87165" lon="2.31285">
        <ele>59.5</ele>
        <time>2021-04-28T12:48:40Z</time>
      </trkpt>
      <trkpt lat="49.87164" lon="2.31286">
        <ele>59.5</ele>
        <time>2021-04-28T12:48:41Z</time>
      </trkpt>
      <trkpt lat="49.87162" lon="2.31286">
        <ele>59.5</ele>
        <time>2021-04-28T12:48:42Z</time>
      </trkpt>
      <trkpt lat="49.87161" lon="2.31286">
        <ele>59.5</ele>
        <time>2021-04-28T12:48:43Z</time>
      </trkpt>
      <trkpt lat="49.8716" lon="2.31287">
        <ele>59.5</ele>
        <time>2021-04-28T12:48:44Z</time>
      </trkpt>
      <trkpt lat="49.87159" lon="2.31287">
        <ele>59.4</ele>
        <time>2021-04-28T12:48:45Z</time>
      </trkpt>
      <trkpt lat="49.87158" lon="2.31287">
        <ele>59.4</ele>
        <time>2021-04-28T12:48:46Z</time>
      </trkpt>
      <trkpt lat="49.87155" lon="2.31285">
        <ele>59.4</ele>
        <time>2021-04-28T12:48:48Z</time>
      </trkpt>
      <trkpt lat="49.87154" lon="2.31285">
        <ele>59.4</ele>
        <time>2021-04-28T12:48:49Z</time>
      </trkpt>
      <trkpt lat="49.87152" lon="2.31284">
        <ele>59.4</ele>
        <time>2021-04-28T12:48:50Z</time>
      </trkpt>
      <trkpt lat="49.87151" lon="2.31284">
        <ele>59.4</ele>
        <time>2021-04-28T12:48:51Z</time>
      </trkpt>
      <trkpt lat="49.8715" lon="2.31282">
        <ele>59.3</ele>
        <time>2021-04-28T12:48:52Z</time>
      </trkpt>
      <trkpt lat="49.87148" lon="2.31282">
        <ele>59.3</ele>
        <time>2021-04-28T12:48:53Z</time>
      </trkpt>
      <trkpt lat="49.87147" lon="2.31282">
        <ele>59.3</ele>
        <time>2021-04-28T12:48:54Z</time>
      </trkpt>
      <trkpt lat="49.87146" lon="2.31281">
        <ele>59.3</ele>
        <time>2021-04-28T12:48:55Z</time>
      </trkpt>
      <trkpt lat="49.87144" lon="2.31281">
        <ele>59.3</ele>
        <time>2021-04-28T12:48:56Z</time>
      </trkpt>
      <trkpt lat="49.87143" lon="2.3128">
        <ele>59.3</ele>
        <time>2021-04-28T12:48:58Z</time>
      </trkpt>
      <trkpt lat="49.87141" lon="2.31279">
        <ele>59.3</ele>
        <time>2021-04-28T12:48:59Z</time>
      </trkpt>
      <trkpt lat="49.8714" lon="2.31279">
        <ele>59.3</ele>
        <time>2021-04-28T12:49:00Z</time>
      </trkpt>
      <trkpt lat="49.87139" lon="2.31279">
        <ele>59.3</ele>
        <time>2021-04-28T12:49:01Z</time>
      </trkpt>
      <trkpt lat="49.87138" lon="2.31277">
        <ele>59.2</ele>
        <time>2021-04-28T12:49:02Z</time>
      </trkpt>
      <trkpt lat="49.87137" lon="2.31276">
        <ele>59.2</ele>
        <time>2021-04-28T12:49:03Z</time>
      </trkpt>
      <trkpt lat="49.87136" lon="2.31275">
        <ele>59.2</ele>
        <time>2021-04-28T12:49:04Z</time>
      </trkpt>
      <trkpt lat="49.87135" lon="2.31275">
        <ele>59.2</ele>
        <time>2021-04-28T12:49:06Z</time>
      </trkpt>
      <trkpt lat="49.87134" lon="2.31274">
        <ele>59.2</ele>
        <time>2021-04-28T12:49:07Z</time>
      </trkpt>
      <trkpt lat="49.87132" lon="2.31274">
        <ele>59.2</ele>
        <time>2021-04-28T12:49:08Z</time>
      </trkpt>
      <trkpt lat="49.87131" lon="2.31274">
        <ele>59.2</ele>
        <time>2021-04-28T12:49:09Z</time>
      </trkpt>
      <trkpt lat="49.8713" lon="2.31275">
        <ele>59.2</ele>
        <time>2021-04-28T12:49:10Z</time>
      </trkpt>
      <trkpt lat="49.87129" lon="2.31275">
        <ele>59.2</ele>
        <time>2021-04-28T12:49:12Z</time>
      </trkpt>
      <trkpt lat="49.87128" lon="2.31276">
        <ele>59.2</ele>
        <time>2021-04-28T12:49:13Z</time>
      </trkpt>
      <trkpt lat="49.87127" lon="2.31276">
        <ele>59.2</ele>
        <time>2021-04-28T12:49:14Z</time>
      </trkpt>
      <trkpt lat="49.87126" lon="2.31276">
        <ele>59.2</ele>
        <time>2021-04-28T12:49:15Z</time>
      </trkpt>
      <trkpt lat="49.87125" lon="2.31276">
        <ele>59.2</ele>
        <time>2021-04-28T12:49:16Z</time>
      </trkpt>
      <trkpt lat="49.87126" lon="2.31277">
        <ele>59.2</ele>
        <time>2021-04-28T12:49:17Z</time>
      </trkpt>
      <trkpt lat="49.87125" lon="2.31277">
        <ele>59.2</ele>
        <time>2021-04-28T12:49:19Z</time>
      </trkpt>
      <trkpt lat="49.87124" lon="2.31277">
        <ele>59.2</ele>
        <time>2021-04-28T12:49:20Z</time>
      </trkpt>
      <trkpt lat="49.87123" lon="2.31277">
        <ele>59.2</ele>
        <time>2021-04-28T12:49:21Z</time>
      </trkpt>
      <trkpt lat="49.87122" lon="2.31282">
        <ele>59.3</ele>
        <time>2021-04-28T12:49:23Z</time>
      </trkpt>
      <trkpt lat="49.8712" lon="2.31283">
        <ele>59.3</ele>
        <time>2021-04-28T12:49:24Z</time>
      </trkpt>
      <trkpt lat="49.87119" lon="2.31283">
        <ele>59.3</ele>
        <time>2021-04-28T12:49:25Z</time>
      </trkpt>
      <trkpt lat="49.87118" lon="2.31283">
        <ele>59.3</ele>
        <time>2021-04-28T12:49:26Z</time>
      </trkpt>
      <trkpt lat="49.87118" lon="2.31285">
        <ele>59.3</ele>
        <time>2021-04-28T12:49:27Z</time>
      </trkpt>
      <trkpt lat="49.87117" lon="2.31285">
        <ele>59.3</ele>
        <time>2021-04-28T12:49:28Z</time>
      </trkpt>
      <trkpt lat="49.87115" lon="2.31285">
        <ele>59.3</ele>
        <time>2021-04-28T12:49:29Z</time>
      </trkpt>
      <trkpt lat="49.87113" lon="2.31285">
        <ele>59.3</ele>
        <time>2021-04-28T12:49:31Z</time>
      </trkpt>
      <trkpt lat="49.87113" lon="2.31284">
        <ele>59.3</ele>
        <time>2021-04-28T12:49:32Z</time>
      </trkpt>
      <trkpt lat="49.87112" lon="2.31284">
        <ele>59.3</ele>
        <time>2021-04-28T12:49:33Z</time>
      </trkpt>
      <trkpt lat="49.8711" lon="2.31284">
        <ele>59.3</ele>
        <time>2021-04-28T12:49:34Z</time>
      </trkpt>
      <trkpt lat="49.87109" lon="2.31284">
        <ele>59.3</ele>
        <time>2021-04-28T12:49:35Z</time>
      </trkpt>
      <trkpt lat="49.87107" lon="2.31284">
        <ele>59.3</ele>
        <time>2021-04-28T12:49:36Z</time>
      </trkpt>
      <trkpt lat="49.87106" lon="2.31284">
        <ele>59.3</ele>
        <time>2021-04-28T12:49:37Z</time>
      </trkpt>
      <trkpt lat="49.87105" lon="2.31284">
        <ele>59.4</ele>
        <time>2021-04-28T12:49:39Z</time>
      </trkpt>
      <trkpt lat="49.87104" lon="2.31284">
        <ele>59.4</ele>
        <time>2021-04-28T12:49:40Z</time>
      </trkpt>
      <trkpt lat="49.87103" lon="2.31284">
        <ele>59.4</ele>
        <time>2021-04-28T12:49:41Z</time>
      </trkpt>
      <trkpt lat="49.87101" lon="2.31283">
        <ele>59.4</ele>
        <time>2021-04-28T12:49:43Z</time>
      </trkpt>
      <trkpt lat="49.87098" lon="2.31282">
        <ele>59.4</ele>
        <time>2021-04-28T12:49:44Z</time>
      </trkpt>
      <trkpt lat="49.87098" lon="2.31282">
        <ele>59.4</ele>
        <time>2021-04-28T12:49:45Z</time>
      </trkpt>
      <trkpt lat="49.87097" lon="2.31282">
        <ele>59.4</ele>
        <time>2021-04-28T12:49:46Z</time>
      </trkpt>
      <trkpt lat="49.87095" lon="2.3128">
        <ele>59.4</ele>
        <time>2021-04-28T12:49:47Z</time>
      </trkpt>
      <trkpt lat="49.87094" lon="2.31279">
        <ele>59.4</ele>
        <time>2021-04-28T12:49:48Z</time>
      </trkpt>
      <trkpt lat="49.87093" lon="2.31279">
        <ele>59.4</ele>
        <time>2021-04-28T12:49:49Z</time>
      </trkpt>
      <trkpt lat="49.87092" lon="2.31278">
        <ele>59.5</ele>
        <time>2021-04-28T12:49:51Z</time>
      </trkpt>
      <trkpt lat="49.87092" lon="2.31278">
        <ele>59.5</ele>
        <time>2021-04-28T12:49:52Z</time>
      </trkpt>
      <trkpt lat="49.8709" lon="2.31278">
        <ele>59.5</ele>
        <time>2021-04-28T12:49:53Z</time>
      </trkpt>
      <trkpt lat="49.87091" lon="2.31276">
        <ele>59.5</ele>
        <time>2021-04-28T12:49:55Z</time>
      </trkpt>
      <trkpt lat="49.87091" lon="2.31275">
        <ele>59.5</ele>
        <time>2021-04-28T12:49:56Z</time>
      </trkpt>
      <trkpt lat="49.87092" lon="2.31274">
        <ele>59.5</ele>
        <time>2021-04-28T12:49:58Z</time>
      </trkpt>
      <trkpt lat="49.87093" lon="2.31273">
        <ele>59.5</ele>
        <time>2021-04-28T12:49:59Z</time>
      </trkpt>
      <trkpt lat="49.87094" lon="2.31272">
        <ele>59.5</ele>
        <time>2021-04-28T12:50:00Z</time>
      </trkpt>
      <trkpt lat="49.87095" lon="2.3127">
        <ele>59.5</ele>
        <time>2021-04-28T12:50:01Z</time>
      </trkpt>
      <trkpt lat="49.87096" lon="2.31269">
        <ele>59.5</ele>
        <time>2021-04-28T12:50:02Z</time>
      </trkpt>
      <trkpt lat="49.87097" lon="2.31266">
        <ele>59.5</ele>
        <time>2021-04-28T12:50:03Z</time>
      </trkpt>
      <trkpt lat="49.87097" lon="2.31262">
        <ele>59.5</ele>
        <time>2021-04-28T12:50:04Z</time>
      </trkpt>
      <trkpt lat="49.87096" lon="2.3126">
        <ele>59.5</ele>
        <time>2021-04-28T12:50:06Z</time>
      </trkpt>
      <trkpt lat="49.87095" lon="2.31258">
        <ele>59.5</ele>
        <time>2021-04-28T12:50:07Z</time>
      </trkpt>
      <trkpt lat="49.87095" lon="2.31256">
        <ele>59.5</ele>
        <time>2021-04-28T12:50:08Z</time>
      </trkpt>
      <trkpt lat="49.87093" lon="2.31255">
        <ele>59.5</ele>
        <time>2021-04-28T12:50:10Z</time>
      </trkpt>
      <trkpt lat="49.87092" lon="2.31254">
        <ele>59.5</ele>
        <time>2021-04-28T12:50:11Z</time>
      </trkpt>
      <trkpt lat="49.87091" lon="2.31253">
        <ele>59.5</ele>
        <time>2021-04-28T12:50:12Z</time>
      </trkpt>
      <trkpt lat="49.8709" lon="2.31251">
        <ele>59.5</ele>
        <time>2021-04-28T12:50:14Z</time>
      </trkpt>
      <trkpt lat="49.8709" lon="2.31249">
        <ele>59.5</ele>
        <time>2021-04-28T12:50:15Z</time>
      </trkpt>
      <trkpt lat="49.8709" lon="2.31248">
        <ele>59.5</ele>
        <time>2021-04-28T12:50:16Z</time>
      </trkpt>
      <trkpt lat="49.8709" lon="2.31248">
        <ele>59.5</ele>
        <time>2021-04-28T12:50:18Z</time>
      </trkpt>
      <trkpt lat="49.8709" lon="2.31248">
        <ele>59.5</ele>
        <time>2021-04-28T12:50:20Z</time>
      </trkpt>
      <trkpt lat="49.8709" lon="2.31249">
        <ele>59.5</ele>
        <time>2021-04-28T12:50:22Z</time>
      </trkpt>
      <trkpt lat="49.8709" lon="2.31249">
        <ele>59.5</ele>
        <time>2021-04-28T12:50:23Z</time>
      </trkpt>
      <trkpt lat="49.8709" lon="2.31249">
        <ele>59.5</ele>
        <time>2021-04-28T12:50:25Z</time>
      </trkpt>
      <trkpt lat="49.8709" lon="2.3125">
        <ele>59.5</ele>
        <time>2021-04-28T12:50:26Z</time>
      </trkpt>
      <trkpt lat="49.8709" lon="2.3125">
        <ele>59.5</ele>
        <time>2021-04-28T12:50:28Z</time>
      </trkpt>
      <trkpt lat="49.87089" lon="2.3125">
        <ele>59.5</ele>
        <time>2021-04-28T12:50:29Z</time>
      </trkpt>
      <trkpt lat="49.87089" lon="2.31251">
        <ele>59.5</ele>
        <time>2021-04-28T12:50:30Z</time>
      </trkpt>
      <trkpt lat="49.87089" lon="2.31251">
        <ele>59.5</ele>
        <time>2021-04-28T12:50:32Z</time>
      </trkpt>
      <trkpt lat="49.87089" lon="2.31251">
        <ele>59.5</ele>
        <time>2021-04-28T12:50:34Z</time>
      </trkpt>
      <trkpt lat="49.87089" lon="2.31252">
        <ele>59.5</ele>
        <time>2021-04-28T12:50:35Z</time>
      </trkpt>
      <trkpt lat="49.87089" lon="2.31252">
        <ele>59.5</ele>
        <time>2021-04-28T12:50:37Z</time>
      </trkpt>
      <trkpt lat="49.87089" lon="2.31253">
        <ele>59.5</ele>
        <time>2021-04-28T12:50:38Z</time>
      </trkpt>
      <trkpt lat="49.87089" lon="2.31253">
        <ele>59.5</ele>
        <time>2021-04-28T12:50:39Z</time>
      </trkpt>
      <trkpt lat="49.87089" lon="2.31253">
        <ele>59.5</ele>
        <time>2021-04-28T12:50:40Z</time>
      </trkpt>
      <trkpt lat="49.87089" lon="2.31254">
        <ele>59.5</ele>
        <time>2021-04-28T12:50:42Z</time>
      </trkpt>
      <trkpt lat="49.87089" lon="2.31254">
        <ele>59.5</ele>
        <time>2021-04-28T12:50:43Z</time>
      </trkpt>
      <trkpt lat="49.87089" lon="2.31254">
        <ele>59.5</ele>
        <time>2021-04-28T12:50:45Z</time>
      </trkpt>
      <trkpt lat="49.87089" lon="2.31255">
        <ele>59.5</ele>
        <time>2021-04-28T12:50:46Z</time>
      </trkpt>
      <trkpt lat="49.87089" lon="2.31249">
        <ele>59.5</ele>
        <time>2021-04-28T12:50:47Z</time>
      </trkpt>
      <trkpt lat="49.87088" lon="2.31248">
        <ele>59.5</ele>
        <time>2021-04-28T12:50:49Z</time>
      </trkpt>
      <trkpt lat="49.87087" lon="2.31248">
        <ele>59.5</ele>
        <time>2021-04-28T12:50:50Z</time>
      </trkpt>
      <trkpt lat="49.87086" lon="2.31249">
        <ele>59.5</ele>
        <time>2021-04-28T12:50:51Z</time>
      </trkpt>
      <trkpt lat="49.87084" lon="2.31249">
        <ele>59.5</ele>
        <time>2021-04-28T12:50:52Z</time>
      </trkpt>
      <trkpt lat="49.87082" lon="2.3125">
        <ele>59.5</ele>
        <time>2021-04-28T12:50:53Z</time>
      </trkpt>
      <trkpt lat="49.87081" lon="2.31248">
        <ele>59.5</ele>
        <time>2021-04-28T12:50:55Z</time>
      </trkpt>
      <trkpt lat="49.8708" lon="2.31247">
        <ele>59.5</ele>
        <time>2021-04-28T12:50:56Z</time>
      </trkpt>
      <trkpt lat="49.87079" lon="2.31245">
        <ele>59.5</ele>
        <time>2021-04-28T12:50:57Z</time>
      </trkpt>
      <trkpt lat="49.87078" lon="2.31245">
        <ele>59.5</ele>
        <time>2021-04-28T12:50:58Z</time>
      </trkpt>
      <trkpt lat="49.87077" lon="2.31244">
        <ele>59.5</ele>
        <time>2021-04-28T12:50:59Z</time>
      </trkpt>
      <trkpt lat="49.87077" lon="2.31242">
        <ele>59.5</ele>
        <time>2021-04-28T12:51:00Z</time>
      </trkpt>
      <trkpt lat="49.87077" lon="2.3124">
        <ele>59.5</ele>
        <time>2021-04-28T12:51:01Z</time>
      </trkpt>
      <trkpt lat="49.87077" lon="2.31237">
        <ele>59.5</ele>
        <time>2021-04-28T12:51:03Z</time>
      </trkpt>
      <trkpt lat="49.87078" lon="2.31234">
        <ele>59.5</ele>
        <time>2021-04-28T12:51:04Z</time>
      </trkpt>
      <trkpt lat="49.87078" lon="2.31232">
        <ele>59.5</ele>
        <time>2021-04-28T12:51:05Z</time>
      </trkpt>
      <trkpt lat="49.87078" lon="2.31231">
        <ele>59.5</ele>
        <time>2021-04-28T12:51:06Z</time>
      </trkpt>
      <trkpt lat="49.87079" lon="2.31229">
        <ele>59.5</ele>
        <time>2021-04-28T12:51:08Z</time>
      </trkpt>
      <trkpt lat="49.87079" lon="2.31228">
        <ele>59.5</ele>
        <time>2021-04-28T12:51:09Z</time>
      </trkpt>
      <trkpt lat="49.8708" lon="2.31228">
        <ele>59.5</ele>
        <time>2021-04-28T12:51:10Z</time>
      </trkpt>
      <trkpt lat="49.8708" lon="2.31227">
        <ele>59.5</ele>
        <time>2021-04-28T12:51:11Z</time>
      </trkpt>
      <trkpt lat="49.8708" lon="2.31226">
        <ele>59.6</ele>
        <time>2021-04-28T12:51:12Z</time>
      </trkpt>
      <trkpt lat="49.8708" lon="2.31223">
        <ele>59.6</ele>
        <time>2021-04-28T12:51:13Z</time>
      </trkpt>
      <trkpt lat="49.87081" lon="2.31221">
        <ele>59.6</ele>
        <time>2021-04-28T12:51:14Z</time>
      </trkpt>
      <trkpt lat="49.87081" lon="2.31219">
        <ele>59.6</ele>
        <time>2021-04-28T12:51:16Z</time>
      </trkpt>
      <trkpt lat="49.87081" lon="2.31218">
        <ele>59.6</ele>
        <time>2021-04-28T12:51:17Z</time>
      </trkpt>
      <trkpt lat="49.87081" lon="2.31216">
        <ele>59.6</ele>
        <time>2021-04-28T12:51:18Z</time>
      </trkpt>
      <trkpt lat="49.87081" lon="2.31215">
        <ele>59.6</ele>
        <time>2021-04-28T12:51:20Z</time>
      </trkpt>
      <trkpt lat="49.87081" lon="2.31213">
        <ele>59.6</ele>
        <time>2021-04-28T12:51:21Z</time>
      </trkpt>
      <trkpt lat="49.87081" lon="2.31211">
        <ele>59.6</ele>
        <time>2021-04-28T12:51:22Z</time>
      </trkpt>
      <trkpt lat="49.87081" lon="2.3121">
        <ele>59.6</ele>
        <time>2021-04-28T12:51:23Z</time>
      </trkpt>
      <trkpt lat="49.87081" lon="2.31207">
        <ele>59.6</ele>
        <time>2021-04-28T12:51:24Z</time>
      </trkpt>
      <trkpt lat="49.87081" lon="2.31205">
        <ele>59.6</ele>
        <time>2021-04-28T12:51:25Z</time>
      </trkpt>
      <trkpt lat="49.87081" lon="2.31202">
        <ele>59.6</ele>
        <time>2021-04-28T12:51:27Z</time>
      </trkpt>
      <trkpt lat="49.87081" lon="2.31199">
        <ele>59.6</ele>
        <time>2021-04-28T12:51:28Z</time>
      </trkpt>
      <trkpt lat="49.87081" lon="2.31197">
        <ele>59.6</ele>
        <time>2021-04-28T12:51:30Z</time>
      </trkpt>
      <trkpt lat="49.87081" lon="2.31195">
        <ele>59.6</ele>
        <time>2021-04-28T12:51:31Z</time>
      </trkpt>
      <trkpt lat="49.87081" lon="2.31192">
        <ele>59.6</ele>
        <time>2021-04-28T12:51:32Z</time>
      </trkpt>
      <trkpt lat="49.8708" lon="2.3119">
        <ele>59.7</ele>
        <time>2021-04-28T12:51:33Z</time>
      </trkpt>
      <trkpt lat="49.8708" lon="2.31189">
        <ele>59.7</ele>
        <time>2021-04-28T12:51:34Z</time>
      </trkpt>
      <trkpt lat="49.8708" lon="2.31186">
        <ele>59.7</ele>
        <time>2021-04-28T12:51:35Z</time>
      </trkpt>
      <trkpt lat="49.8708" lon="2.31185">
        <ele>59.7</ele>
        <time>2021-04-28T12:51:36Z</time>
      </trkpt>
      <trkpt lat="49.87079" lon="2.31183">
        <ele>59.7</ele>
        <time>2021-04-28T12:51:37Z</time>
      </trkpt>
      <trkpt lat="49.8708" lon="2.31181">
        <ele>59.7</ele>
        <time>2021-04-28T12:51:39Z</time>
      </trkpt>
      <trkpt lat="49.8708" lon="2.31179">
        <ele>59.7</ele>
        <time>2021-04-28T12:51:40Z</time>
      </trkpt>
      <trkpt lat="49.8708" lon="2.31177">
        <ele>59.7</ele>
        <time>2021-04-28T12:51:41Z</time>
      </trkpt>
      <trkpt lat="49.87081" lon="2.31175">
        <ele>59.7</ele>
        <time>2021-04-28T12:51:42Z</time>
      </trkpt>
      <trkpt lat="49.87082" lon="2.31172">
        <ele>59.7</ele>
        <time>2021-04-28T12:51:43Z</time>
      </trkpt>
      <trkpt lat="49.87083" lon="2.3117">
        <ele>59.7</ele>
        <time>2021-04-28T12:51:44Z</time>
      </trkpt>
      <trkpt lat="49.87084" lon="2.31167">
        <ele>59.7</ele>
        <time>2021-04-28T12:51:45Z</time>
      </trkpt>
      <trkpt lat="49.87084" lon="2.31166">
        <ele>59.7</ele>
        <time>2021-04-28T12:51:46Z</time>
      </trkpt>
      <trkpt lat="49.87084" lon="2.31165">
        <ele>59.7</ele>
        <time>2021-04-28T12:51:47Z</time>
      </trkpt>
      <trkpt lat="49.87084" lon="2.31164">
        <ele>59.7</ele>
        <time>2021-04-28T12:51:49Z</time>
      </trkpt>
      <trkpt lat="49.87084" lon="2.31163">
        <ele>59.7</ele>
        <time>2021-04-28T12:51:50Z</time>
      </trkpt>
      <trkpt lat="49.87083" lon="2.31162">
        <ele>59.7</ele>
        <time>2021-04-28T12:51:51Z</time>
      </trkpt>
      <trkpt lat="49.87083" lon="2.31161">
        <ele>59.7</ele>
        <time>2021-04-28T12:51:52Z</time>
      </trkpt>
      <trkpt lat="49.87083" lon="2.31161">
        <ele>59.7</ele>
        <time>2021-04-28T12:51:53Z</time>
      </trkpt>
      <trkpt lat="49.87083" lon="2.31159">
        <ele>59.7</ele>
        <time>2021-04-28T12:51:54Z</time>
      </trkpt>
      <trkpt lat="49.87083" lon="2.31157">
        <ele>59.8</ele>
        <time>2021-04-28T12:51:55Z</time>
      </trkpt>
      <trkpt lat="49.87083" lon="2.31156">
        <ele>59.8</ele>
        <time>2021-04-28T12:51:56Z</time>
      </trkpt>
      <trkpt lat="49.87083" lon="2.31154">
        <ele>59.8</ele>
        <time>2021-04-28T12:51:58Z</time>
      </trkpt>
      <trkpt lat="49.87084" lon="2.31153">
        <ele>59.8</ele>
        <time>2021-04-28T12:51:59Z</time>
      </trkpt>
      <trkpt lat="49.87084" lon="2.31151">
        <ele>59.8</ele>
        <time>2021-04-28T12:52:00Z</time>
      </trkpt>
      <trkpt lat="49.87084" lon="2.31147">
        <ele>59.8</ele>
        <time>2021-04-28T12:52:01Z</time>
      </trkpt>
      <trkpt lat="49.87084" lon="2.31146">
        <ele>59.8</ele>
        <time>2021-04-28T12:52:02Z</time>
      </trkpt>
      <trkpt lat="49.87083" lon="2.31144">
        <ele>59.8</ele>
        <time>2021-04-28T12:52:03Z</time>
      </trkpt>
      <trkpt lat="49.87083" lon="2.31142">
        <ele>59.8</ele>
        <time>2021-04-28T12:52:04Z</time>
      </trkpt>
      <trkpt lat="49.87083" lon="2.31141">
        <ele>59.8</ele>
        <time>2021-04-28T12:52:05Z</time>
      </trkpt>
      <trkpt lat="49.87083" lon="2.31139">
        <ele>59.8</ele>
        <time>2021-04-28T12:52:07Z</time>
      </trkpt>
      <trkpt lat="49.87084" lon="2.31137">
        <ele>59.8</ele>
        <time>2021-04-28T12:52:08Z</time>
      </trkpt>
      <trkpt lat="49.87083" lon="2.31134">
        <ele>59.8</ele>
        <time>2021-04-28T12:52:09Z</time>
      </trkpt>
      <trkpt lat="49.87083" lon="2.31132">
        <ele>59.8</ele>
        <time>2021-04-28T12:52:10Z</time>
      </trkpt>
      <trkpt lat="49.87083" lon="2.3113">
        <ele>59.9</ele>
        <time>2021-04-28T12:52:11Z</time>
      </trkpt>
      <trkpt lat="49.87083" lon="2.31126">
        <ele>59.9</ele>
        <time>2021-04-28T12:52:12Z</time>
      </trkpt>
      <trkpt lat="49.87083" lon="2.31124">
        <ele>59.9</ele>
        <time>2021-04-28T12:52:13Z</time>
      </trkpt>
      <trkpt lat="49.87082" lon="2.31122">
        <ele>59.9</ele>
        <time>2021-04-28T12:52:14Z</time>
      </trkpt>
      <trkpt lat="49.87082" lon="2.31121">
        <ele>59.9</ele>
        <time>2021-04-28T12:52:16Z</time>
      </trkpt>
      <trkpt lat="49.87082" lon="2.31119">
        <ele>59.9</ele>
        <time>2021-04-28T12:52:17Z</time>
      </trkpt>
      <trkpt lat="49.87081" lon="2.31115">
        <ele>59.9</ele>
        <time>2021-04-28T12:52:18Z</time>
      </trkpt>
      <trkpt lat="49.8708" lon="2.31113">
        <ele>60</ele>
        <time>2021-04-28T12:52:19Z</time>
      </trkpt>
      <trkpt lat="49.8708" lon="2.31112">
        <ele>60</ele>
        <time>2021-04-28T12:52:20Z</time>
      </trkpt>
      <trkpt lat="49.8708" lon="2.3111">
        <ele>60</ele>
        <time>2021-04-28T12:52:21Z</time>
      </trkpt>
      <trkpt lat="49.87081" lon="2.31109">
        <ele>60</ele>
        <time>2021-04-28T12:52:22Z</time>
      </trkpt>
      <trkpt lat="49.87081" lon="2.31108">
        <ele>60</ele>
        <time>2021-04-28T12:52:24Z</time>
      </trkpt>
      <trkpt lat="49.87081" lon="2.31107">
        <ele>60</ele>
        <time>2021-04-28T12:52:25Z</time>
      </trkpt>
      <trkpt lat="49.87081" lon="2.31105">
        <ele>60</ele>
        <time>2021-04-28T12:52:26Z</time>
      </trkpt>
      <trkpt lat="49.87081" lon="2.31104">
        <ele>60</ele>
        <time>2021-04-28T12:52:27Z</time>
      </trkpt>
      <trkpt lat="49.87081" lon="2.31103">
        <ele>60</ele>
        <time>2021-04-28T12:52:28Z</time>
      </trkpt>
      <trkpt lat="49.87082" lon="2.31101">
        <ele>60</ele>
        <time>2021-04-28T12:52:29Z</time>
      </trkpt>
      <trkpt lat="49.87082" lon="2.31099">
        <ele>60</ele>
        <time>2021-04-28T12:52:30Z</time>
      </trkpt>
      <trkpt lat="49.87081" lon="2.31096">
        <ele>60.1</ele>
        <time>2021-04-28T12:52:32Z</time>
      </trkpt>
      <trkpt lat="49.8708" lon="2.31095">
        <ele>60.1</ele>
        <time>2021-04-28T12:52:33Z</time>
      </trkpt>
      <trkpt lat="49.8708" lon="2.31094">
        <ele>60.1</ele>
        <time>2021-04-28T12:52:34Z</time>
      </trkpt>
      <trkpt lat="49.87079" lon="2.31092">
        <ele>60.1</ele>
        <time>2021-04-28T12:52:35Z</time>
      </trkpt>
      <trkpt lat="49.87078" lon="2.3109">
        <ele>60.1</ele>
        <time>2021-04-28T12:52:36Z</time>
      </trkpt>
      <trkpt lat="49.87075" lon="2.31087">
        <ele>60.1</ele>
        <time>2021-04-28T12:52:38Z</time>
      </trkpt>
      <trkpt lat="49.87073" lon="2.31086">
        <ele>60.1</ele>
        <time>2021-04-28T12:52:39Z</time>
      </trkpt>
      <trkpt lat="49.87071" lon="2.31084">
        <ele>60.1</ele>
        <time>2021-04-28T12:52:40Z</time>
      </trkpt>
      <trkpt lat="49.87068" lon="2.31083">
        <ele>60.1</ele>
        <time>2021-04-28T12:52:41Z</time>
      </trkpt>
      <trkpt lat="49.87067" lon="2.31083">
        <ele>60.1</ele>
        <time>2021-04-28T12:52:43Z</time>
      </trkpt>
      <trkpt lat="49.87065" lon="2.31082">
        <ele>60</ele>
        <time>2021-04-28T12:52:44Z</time>
      </trkpt>
      <trkpt lat="49.87064" lon="2.31082">
        <ele>60</ele>
        <time>2021-04-28T12:52:45Z</time>
      </trkpt>
      <trkpt lat="49.87061" lon="2.31082">
        <ele>60</ele>
        <time>2021-04-28T12:52:47Z</time>
      </trkpt>
      <trkpt lat="49.87061" lon="2.31083">
        <ele>60</ele>
        <time>2021-04-28T12:52:48Z</time>
      </trkpt>
      <trkpt lat="49.87059" lon="2.31083">
        <ele>60</ele>
        <time>2021-04-28T12:52:49Z</time>
      </trkpt>
      <trkpt lat="49.87057" lon="2.31083">
        <ele>60</ele>
        <time>2021-04-28T12:52:50Z</time>
      </trkpt>
      <trkpt lat="49.87056" lon="2.31084">
        <ele>60</ele>
        <time>2021-04-28T12:52:51Z</time>
      </trkpt>
      <trkpt lat="49.87055" lon="2.31085">
        <ele>60</ele>
        <time>2021-04-28T12:52:52Z</time>
      </trkpt>
      <trkpt lat="49.87054" lon="2.31083">
        <ele>60</ele>
        <time>2021-04-28T12:52:54Z</time>
      </trkpt>
      <trkpt lat="49.87053" lon="2.31084">
        <ele>60</ele>
        <time>2021-04-28T12:52:55Z</time>
      </trkpt>
      <trkpt lat="49.87052" lon="2.31085">
        <ele>60</ele>
        <time>2021-04-28T12:52:56Z</time>
      </trkpt>
      <trkpt lat="49.8705" lon="2.31089">
        <ele>59.9</ele>
        <time>2021-04-28T12:52:58Z</time>
      </trkpt>
      <trkpt lat="49.87049" lon="2.31091">
        <ele>59.9</ele>
        <time>2021-04-28T12:53:00Z</time>
      </trkpt>
      <trkpt lat="49.87048" lon="2.31093">
        <ele>59.9</ele>
        <time>2021-04-28T12:53:01Z</time>
      </trkpt>
      <trkpt lat="49.87048" lon="2.31095">
        <ele>59.9</ele>
        <time>2021-04-28T12:53:02Z</time>
      </trkpt>
      <trkpt lat="49.87048" lon="2.31098">
        <ele>59.9</ele>
        <time>2021-04-28T12:53:04Z</time>
      </trkpt>
      <trkpt lat="49.87048" lon="2.31101">
        <ele>59.9</ele>
        <time>2021-04-28T12:53:05Z</time>
      </trkpt>
      <trkpt lat="49.87048" lon="2.31103">
        <ele>59.9</ele>
        <time>2021-04-28T12:53:06Z</time>
      </trkpt>
      <trkpt lat="49.87048" lon="2.31105">
        <ele>59.9</ele>
        <time>2021-04-28T12:53:07Z</time>
      </trkpt>
      <trkpt lat="49.87047" lon="2.31106">
        <ele>59.9</ele>
        <time>2021-04-28T12:53:08Z</time>
      </trkpt>
      <trkpt lat="49.87047" lon="2.31108">
        <ele>59.9</ele>
        <time>2021-04-28T12:53:09Z</time>
      </trkpt>
      <trkpt lat="49.87045" lon="2.3111">
        <ele>59.9</ele>
        <time>2021-04-28T12:53:11Z</time>
      </trkpt>
      <trkpt lat="49.87044" lon="2.31111">
        <ele>59.9</ele>
        <time>2021-04-28T12:53:12Z</time>
      </trkpt>
      <trkpt lat="49.87044" lon="2.31112">
        <ele>59.9</ele>
        <time>2021-04-28T12:53:13Z</time>
      </trkpt>
      <trkpt lat="49.87042" lon="2.31112">
        <ele>59.8</ele>
        <time>2021-04-28T12:53:14Z</time>
      </trkpt>
      <trkpt lat="49.87041" lon="2.31113">
        <ele>59.8</ele>
        <time>2021-04-28T12:53:15Z</time>
      </trkpt>
      <trkpt lat="49.87041" lon="2.31115">
        <ele>59.8</ele>
        <time>2021-04-28T12:53:16Z</time>
      </trkpt>
      <trkpt lat="49.8704" lon="2.31116">
        <ele>59.8</ele>
        <time>2021-04-28T12:53:17Z</time>
      </trkpt>
      <trkpt lat="49.8704" lon="2.31112">
        <ele>59.8</ele>
        <time>2021-04-28T12:53:18Z</time>
      </trkpt>
      <trkpt lat="49.87039" lon="2.31113">
        <ele>59.8</ele>
        <time>2021-04-28T12:53:20Z</time>
      </trkpt>
      <trkpt lat="49.87038" lon="2.31114">
        <ele>59.8</ele>
        <time>2021-04-28T12:53:21Z</time>
      </trkpt>
      <trkpt lat="49.87038" lon="2.31115">
        <ele>59.8</ele>
        <time>2021-04-28T12:53:22Z</time>
      </trkpt>
      <trkpt lat="49.87037" lon="2.31115">
        <ele>59.8</ele>
        <time>2021-04-28T12:53:23Z</time>
      </trkpt>
      <trkpt lat="49.87037" lon="2.31113">
        <ele>59.8</ele>
        <time>2021-04-28T12:53:24Z</time>
      </trkpt>
      <trkpt lat="49.87036" lon="2.31113">
        <ele>59.8</ele>
        <time>2021-04-28T12:53:25Z</time>
      </trkpt>
      <trkpt lat="49.87036" lon="2.31114">
        <ele>59.8</ele>
        <time>2021-04-28T12:53:27Z</time>
      </trkpt>
      <trkpt lat="49.87035" lon="2.31115">
        <ele>59.8</ele>
        <time>2021-04-28T12:53:28Z</time>
      </trkpt>
      <trkpt lat="49.87037" lon="2.31115">
        <ele>59.8</ele>
        <time>2021-04-28T12:53:29Z</time>
      </trkpt>
      <trkpt lat="49.87036" lon="2.31115">
        <ele>59.8</ele>
        <time>2021-04-28T12:53:30Z</time>
      </trkpt>
      <trkpt lat="49.87035" lon="2.31116">
        <ele>59.8</ele>
        <time>2021-04-28T12:53:31Z</time>
      </trkpt>
      <trkpt lat="49.87034" lon="2.31116">
        <ele>59.8</ele>
        <time>2021-04-28T12:53:32Z</time>
      </trkpt>
      <trkpt lat="49.87032" lon="2.31116">
        <ele>59.8</ele>
        <time>2021-04-28T12:53:33Z</time>
      </trkpt>
      <trkpt lat="49.87031" lon="2.31117">
        <ele>59.8</ele>
        <time>2021-04-28T12:53:35Z</time>
      </trkpt>
      <trkpt lat="49.87031" lon="2.31117">
        <ele>59.8</ele>
        <time>2021-04-28T12:53:36Z</time>
      </trkpt>
      <trkpt lat="49.8703" lon="2.31118">
        <ele>59.7</ele>
        <time>2021-04-28T12:53:37Z</time>
      </trkpt>
      <trkpt lat="49.87029" lon="2.31118">
        <ele>59.7</ele>
        <time>2021-04-28T12:53:38Z</time>
      </trkpt>
      <trkpt lat="49.87027" lon="2.31117">
        <ele>59.7</ele>
        <time>2021-04-28T12:53:39Z</time>
      </trkpt>
      <trkpt lat="49.87025" lon="2.31117">
        <ele>59.7</ele>
        <time>2021-04-28T12:53:40Z</time>
      </trkpt>
      <trkpt lat="49.87024" lon="2.31116">
        <ele>59.7</ele>
        <time>2021-04-28T12:53:41Z</time>
      </trkpt>
      <trkpt lat="49.87022" lon="2.31114">
        <ele>59.7</ele>
        <time>2021-04-28T12:53:43Z</time>
      </trkpt>
      <trkpt lat="49.87021" lon="2.31112">
        <ele>59.7</ele>
        <time>2021-04-28T12:53:44Z</time>
      </trkpt>
      <trkpt lat="49.8702" lon="2.31112">
        <ele>59.7</ele>
        <time>2021-04-28T12:53:45Z</time>
      </trkpt>
      <trkpt lat="49.87019" lon="2.31113">
        <ele>59.7</ele>
        <time>2021-04-28T12:53:46Z</time>
      </trkpt>
      <trkpt lat="49.87019" lon="2.31114">
        <ele>59.7</ele>
        <time>2021-04-28T12:53:47Z</time>
      </trkpt>
      <trkpt lat="49.87018" lon="2.31115">
        <ele>59.7</ele>
        <time>2021-04-28T12:53:48Z</time>
      </trkpt>
      <trkpt lat="49.87016" lon="2.31114">
        <ele>59.7</ele>
        <time>2021-04-28T12:53:49Z</time>
      </trkpt>
      <trkpt lat="49.87015" lon="2.31114">
        <ele>59.7</ele>
        <time>2021-04-28T12:53:51Z</time>
      </trkpt>
      <trkpt lat="49.87014" lon="2.31114">
        <ele>59.7</ele>
        <time>2021-04-28T12:53:52Z</time>
      </trkpt>
      <trkpt lat="49.87013" lon="2.31115">
        <ele>59.7</ele>
        <time>2021-04-28T12:53:53Z</time>
      </trkpt>
      <trkpt lat="49.87012" lon="2.31115">
        <ele>59.7</ele>
        <time>2021-04-28T12:53:54Z</time>
      </trkpt>
      <trkpt lat="49.8701" lon="2.31115">
        <ele>59.7</ele>
        <time>2021-04-28T12:53:55Z</time>
      </trkpt>
      <trkpt lat="49.87009" lon="2.31115">
        <ele>59.7</ele>
        <time>2021-04-28T12:53:56Z</time>
      </trkpt>
      <trkpt lat="49.87008" lon="2.31115">
        <ele>59.7</ele>
        <time>2021-04-28T12:53:57Z</time>
      </trkpt>
      <trkpt lat="49.87007" lon="2.31116">
        <ele>59.7</ele>
        <time>2021-04-28T12:53:59Z</time>
      </trkpt>
      <trkpt lat="49.87006" lon="2.31116">
        <ele>59.7</ele>
        <time>2021-04-28T12:54:01Z</time>
      </trkpt>
      <trkpt lat="49.87005" lon="2.31116">
        <ele>59.7</ele>
        <time>2021-04-28T12:54:02Z</time>
      </trkpt>
      <trkpt lat="49.87004" lon="2.31117">
        <ele>59.7</ele>
        <time>2021-04-28T12:54:03Z</time>
      </trkpt>
      <trkpt lat="49.87005" lon="2.31114">
        <ele>59.7</ele>
        <time>2021-04-28T12:54:04Z</time>
      </trkpt>
      <trkpt lat="49.87003" lon="2.31114">
        <ele>59.7</ele>
        <time>2021-04-28T12:54:05Z</time>
      </trkpt>
      <trkpt lat="49.87003" lon="2.31117">
        <ele>59.7</ele>
        <time>2021-04-28T12:54:06Z</time>
      </trkpt>
      <trkpt lat="49.87002" lon="2.3112">
        <ele>59.7</ele>
        <time>2021-04-28T12:54:07Z</time>
      </trkpt>
      <trkpt lat="49.87001" lon="2.31126">
        <ele>59.7</ele>
        <time>2021-04-28T12:54:09Z</time>
      </trkpt>
      <trkpt lat="49.87" lon="2.31126">
        <ele>59.7</ele>
        <time>2021-04-28T12:54:10Z</time>
      </trkpt>
      <trkpt lat="49.86999" lon="2.31128">
        <ele>59.7</ele>
        <time>2021-04-28T12:54:11Z</time>
      </trkpt>
      <trkpt lat="49.86998" lon="2.3113">
        <ele>59.7</ele>
        <time>2021-04-28T12:54:13Z</time>
      </trkpt>
      <trkpt lat="49.86996" lon="2.31132">
        <ele>59.7</ele>
        <time>2021-04-28T12:54:14Z</time>
      </trkpt>
      <trkpt lat="49.86996" lon="2.31133">
        <ele>59.7</ele>
        <time>2021-04-28T12:54:15Z</time>
      </trkpt>
      <trkpt lat="49.86994" lon="2.31136">
        <ele>59.7</ele>
        <time>2021-04-28T12:54:16Z</time>
      </trkpt>
      <trkpt lat="49.86993" lon="2.31137">
        <ele>59.7</ele>
        <time>2021-04-28T12:54:17Z</time>
      </trkpt>
      <trkpt lat="49.86993" lon="2.31138">
        <ele>59.7</ele>
        <time>2021-04-28T12:54:18Z</time>
      </trkpt>
      <trkpt lat="49.86992" lon="2.3114">
        <ele>59.7</ele>
        <time>2021-04-28T12:54:19Z</time>
      </trkpt>
      <trkpt lat="49.86991" lon="2.31142">
        <ele>59.7</ele>
        <time>2021-04-28T12:54:21Z</time>
      </trkpt>
      <trkpt lat="49.8699" lon="2.31143">
        <ele>59.7</ele>
        <time>2021-04-28T12:54:22Z</time>
      </trkpt>
      <trkpt lat="49.86989" lon="2.31145">
        <ele>59.7</ele>
        <time>2021-04-28T12:54:23Z</time>
      </trkpt>
      <trkpt lat="49.86986" lon="2.31148">
        <ele>59.7</ele>
        <time>2021-04-28T12:54:24Z</time>
      </trkpt>
      <trkpt lat="49.86985" lon="2.31148">
        <ele>59.7</ele>
        <time>2021-04-28T12:54:25Z</time>
      </trkpt>
      <trkpt lat="49.86984" lon="2.3115">
        <ele>59.7</ele>
        <time>2021-04-28T12:54:26Z</time>
      </trkpt>
      <trkpt lat="49.86983" lon="2.31152">
        <ele>59.7</ele>
        <time>2021-04-28T12:54:27Z</time>
      </trkpt>
      <trkpt lat="49.8698" lon="2.31155">
        <ele>59.7</ele>
        <time>2021-04-28T12:54:29Z</time>
      </trkpt>
      <trkpt lat="49.8698" lon="2.31155">
        <ele>59.7</ele>
        <time>2021-04-28T12:54:30Z</time>
      </trkpt>
      <trkpt lat="49.86979" lon="2.31157">
        <ele>59.7</ele>
        <time>2021-04-28T12:54:31Z</time>
      </trkpt>
      <trkpt lat="49.86977" lon="2.31158">
        <ele>59.7</ele>
        <time>2021-04-28T12:54:32Z</time>
      </trkpt>
      <trkpt lat="49.86976" lon="2.31159">
        <ele>59.7</ele>
        <time>2021-04-28T12:54:33Z</time>
      </trkpt>
      <trkpt lat="49.86974" lon="2.31159">
        <ele>59.7</ele>
        <time>2021-04-28T12:54:35Z</time>
      </trkpt>
      <trkpt lat="49.86972" lon="2.31161">
        <ele>59.7</ele>
        <time>2021-04-28T12:54:36Z</time>
      </trkpt>
      <trkpt lat="49.86971" lon="2.31162">
        <ele>59.7</ele>
        <time>2021-04-28T12:54:37Z</time>
      </trkpt>
      <trkpt lat="49.8697" lon="2.31162">
        <ele>59.7</ele>
        <time>2021-04-28T12:54:38Z</time>
      </trkpt>
      <trkpt lat="49.86969" lon="2.31165">
        <ele>59.7</ele>
        <time>2021-04-28T12:54:39Z</time>
      </trkpt>
      <trkpt lat="49.86968" lon="2.31166">
        <ele>59.7</ele>
        <time>2021-04-28T12:54:40Z</time>
      </trkpt>
      <trkpt lat="49.86968" lon="2.31167">
        <ele>59.7</ele>
        <time>2021-04-28T12:54:41Z</time>
      </trkpt>
      <trkpt lat="49.86967" lon="2.31168">
        <ele>59.7</ele>
        <time>2021-04-28T12:54:43Z</time>
      </trkpt>
      <trkpt lat="49.86966" lon="2.3117">
        <ele>59.7</ele>
        <time>2021-04-28T12:54:44Z</time>
      </trkpt>
      <trkpt lat="49.86964" lon="2.31172">
        <ele>59.7</ele>
        <time>2021-04-28T12:54:45Z</time>
      </trkpt>
      <trkpt lat="49.86963" lon="2.31173">
        <ele>59.7</ele>
        <time>2021-04-28T12:54:46Z</time>
      </trkpt>
      <trkpt lat="49.86963" lon="2.31174">
        <ele>59.7</ele>
        <time>2021-04-28T12:54:47Z</time>
      </trkpt>
      <trkpt lat="49.86962" lon="2.31175">
        <ele>59.8</ele>
        <time>2021-04-28T12:54:48Z</time>
      </trkpt>
      <trkpt lat="49.86962" lon="2.31176">
        <ele>59.8</ele>
        <time>2021-04-28T12:54:50Z</time>
      </trkpt>
      <trkpt lat="49.86961" lon="2.31177">
        <ele>59.8</ele>
        <time>2021-04-28T12:54:51Z</time>
      </trkpt>
      <trkpt lat="49.8696" lon="2.31177">
        <ele>59.8</ele>
        <time>2021-04-28T12:54:52Z</time>
      </trkpt>
      <trkpt lat="49.86958" lon="2.31178">
        <ele>59.8</ele>
        <time>2021-04-28T12:54:53Z</time>
      </trkpt>
      <trkpt lat="49.86957" lon="2.31179">
        <ele>59.8</ele>
        <time>2021-04-28T12:54:54Z</time>
      </trkpt>
      <trkpt lat="49.86957" lon="2.3118">
        <ele>59.8</ele>
        <time>2021-04-28T12:54:56Z</time>
      </trkpt>
      <trkpt lat="49.86956" lon="2.31181">
        <ele>59.8</ele>
        <time>2021-04-28T12:54:57Z</time>
      </trkpt>
      <trkpt lat="49.86954" lon="2.31182">
        <ele>59.8</ele>
        <time>2021-04-28T12:54:59Z</time>
      </trkpt>
      <trkpt lat="49.86955" lon="2.31183">
        <ele>59.8</ele>
        <time>2021-04-28T12:55:00Z</time>
      </trkpt>
      <trkpt lat="49.86954" lon="2.31184">
        <ele>59.8</ele>
        <time>2021-04-28T12:55:01Z</time>
      </trkpt>
      <trkpt lat="49.86953" lon="2.31185">
        <ele>59.8</ele>
        <time>2021-04-28T12:55:02Z</time>
      </trkpt>
      <trkpt lat="49.86952" lon="2.31186">
        <ele>59.8</ele>
        <time>2021-04-28T12:55:03Z</time>
      </trkpt>
      <trkpt lat="49.86951" lon="2.31184">
        <ele>59.8</ele>
        <time>2021-04-28T12:55:04Z</time>
      </trkpt>
      <trkpt lat="49.8695" lon="2.31184">
        <ele>59.9</ele>
        <time>2021-04-28T12:55:05Z</time>
      </trkpt>
      <trkpt lat="49.86948" lon="2.31185">
        <ele>59.9</ele>
        <time>2021-04-28T12:55:07Z</time>
      </trkpt>
      <trkpt lat="49.86947" lon="2.31186">
        <ele>59.9</ele>
        <time>2021-04-28T12:55:08Z</time>
      </trkpt>
      <trkpt lat="49.86946" lon="2.31186">
        <ele>59.9</ele>
        <time>2021-04-28T12:55:09Z</time>
      </trkpt>
      <trkpt lat="49.86945" lon="2.31187">
        <ele>59.9</ele>
        <time>2021-04-28T12:55:10Z</time>
      </trkpt>
      <trkpt lat="49.86945" lon="2.31187">
        <ele>59.9</ele>
        <time>2021-04-28T12:55:11Z</time>
      </trkpt>
      <trkpt lat="49.86944" lon="2.31187">
        <ele>59.9</ele>
        <time>2021-04-28T12:55:12Z</time>
      </trkpt>
      <trkpt lat="49.86943" lon="2.31188">
        <ele>59.9</ele>
        <time>2021-04-28T12:55:13Z</time>
      </trkpt>
      <trkpt lat="49.86941" lon="2.31185">
        <ele>59.9</ele>
        <time>2021-04-28T12:55:15Z</time>
      </trkpt>
      <trkpt lat="49.8694" lon="2.31186">
        <ele>60</ele>
        <time>2021-04-28T12:55:16Z</time>
      </trkpt>
      <trkpt lat="49.86939" lon="2.31186">
        <ele>60</ele>
        <time>2021-04-28T12:55:17Z</time>
      </trkpt>
      <trkpt lat="49.86937" lon="2.31187">
        <ele>60</ele>
        <time>2021-04-28T12:55:18Z</time>
      </trkpt>
      <trkpt lat="49.86936" lon="2.31188">
        <ele>60</ele>
        <time>2021-04-28T12:55:19Z</time>
      </trkpt>
      <trkpt lat="49.86935" lon="2.31189">
        <ele>60</ele>
        <time>2021-04-28T12:55:21Z</time>
      </trkpt>
      <trkpt lat="49.86934" lon="2.3119">
        <ele>60</ele>
        <time>2021-04-28T12:55:22Z</time>
      </trkpt>
      <trkpt lat="49.86933" lon="2.3119">
        <ele>60.1</ele>
        <time>2021-04-28T12:55:23Z</time>
      </trkpt>
      <trkpt lat="49.86932" lon="2.31191">
        <ele>60.1</ele>
        <time>2021-04-28T12:55:24Z</time>
      </trkpt>
      <trkpt lat="49.8693" lon="2.31191">
        <ele>60.1</ele>
        <time>2021-04-28T12:55:25Z</time>
      </trkpt>
      <trkpt lat="49.86929" lon="2.31192">
        <ele>60.1</ele>
        <time>2021-04-28T12:55:26Z</time>
      </trkpt>
      <trkpt lat="49.86927" lon="2.31192">
        <ele>60.1</ele>
        <time>2021-04-28T12:55:27Z</time>
      </trkpt>
      <trkpt lat="49.86926" lon="2.31192">
        <ele>60.2</ele>
        <time>2021-04-28T12:55:28Z</time>
      </trkpt>
      <trkpt lat="49.86925" lon="2.31193">
        <ele>60.2</ele>
        <time>2021-04-28T12:55:30Z</time>
      </trkpt>
      <trkpt lat="49.86924" lon="2.31194">
        <ele>60.2</ele>
        <time>2021-04-28T12:55:31Z</time>
      </trkpt>
      <trkpt lat="49.86923" lon="2.31194">
        <ele>60.2</ele>
        <time>2021-04-28T12:55:32Z</time>
      </trkpt>
      <trkpt lat="49.86921" lon="2.31195">
        <ele>60.2</ele>
        <time>2021-04-28T12:55:33Z</time>
      </trkpt>
      <trkpt lat="49.86919" lon="2.31196">
        <ele>60.3</ele>
        <time>2021-04-28T12:55:34Z</time>
      </trkpt>
      <trkpt lat="49.86918" lon="2.31196">
        <ele>60.3</ele>
        <time>2021-04-28T12:55:36Z</time>
      </trkpt>
      <trkpt lat="49.86916" lon="2.31196">
        <ele>60.3</ele>
        <time>2021-04-28T12:55:37Z</time>
      </trkpt>
      <trkpt lat="49.86915" lon="2.31197">
        <ele>60.4</ele>
        <time>2021-04-28T12:55:38Z</time>
      </trkpt>
      <trkpt lat="49.86913" lon="2.31197">
        <ele>60.4</ele>
        <time>2021-04-28T12:55:39Z</time>
      </trkpt>
      <trkpt lat="49.86912" lon="2.31197">
        <ele>60.4</ele>
        <time>2021-04-28T12:55:41Z</time>
      </trkpt>
      <trkpt lat="49.86911" lon="2.31198">
        <ele>60.4</ele>
        <time>2021-04-28T12:55:42Z</time>
      </trkpt>
      <trkpt lat="49.86909" lon="2.31197">
        <ele>60.5</ele>
        <time>2021-04-28T12:55:44Z</time>
      </trkpt>
      <trkpt lat="49.86909" lon="2.31198">
        <ele>60.5</ele>
        <time>2021-04-28T12:55:45Z</time>
      </trkpt>
      <trkpt lat="49.86908" lon="2.31199">
        <ele>60.5</ele>
        <time>2021-04-28T12:55:46Z</time>
      </trkpt>
      <trkpt lat="49.86906" lon="2.31201">
        <ele>60.6</ele>
        <time>2021-04-28T12:55:48Z</time>
      </trkpt>
      <trkpt lat="49.86907" lon="2.31205">
        <ele>60.6</ele>
        <time>2021-04-28T12:55:49Z</time>
      </trkpt>
      <trkpt lat="49.86906" lon="2.31207">
        <ele>60.6</ele>
        <time>2021-04-28T12:55:51Z</time>
      </trkpt>
      <trkpt lat="49.86905" lon="2.31208">
        <ele>60.6</ele>
        <time>2021-04-28T12:55:52Z</time>
      </trkpt>
      <trkpt lat="49.86903" lon="2.3121">
        <ele>60.7</ele>
        <time>2021-04-28T12:55:54Z</time>
      </trkpt>
      <trkpt lat="49.86903" lon="2.3121">
        <ele>60.7</ele>
        <time>2021-04-28T12:55:55Z</time>
      </trkpt>
      <trkpt lat="49.86902" lon="2.31212">
        <ele>60.7</ele>
        <time>2021-04-28T12:55:56Z</time>
      </trkpt>
      <trkpt lat="49.86901" lon="2.31213">
        <ele>60.7</ele>
        <time>2021-04-28T12:55:57Z</time>
      </trkpt>
      <trkpt lat="49.869" lon="2.31214">
        <ele>60.8</ele>
        <time>2021-04-28T12:55:58Z</time>
      </trkpt>
      <trkpt lat="49.869" lon="2.31215">
        <ele>60.8</ele>
        <time>2021-04-28T12:56:00Z</time>
      </trkpt>
      <trkpt lat="49.86899" lon="2.31217">
        <ele>60.8</ele>
        <time>2021-04-28T12:56:01Z</time>
      </trkpt>
      <trkpt lat="49.86899" lon="2.31221">
        <ele>60.8</ele>
        <time>2021-04-28T12:56:03Z</time>
      </trkpt>
      <trkpt lat="49.869" lon="2.31223">
        <ele>60.8</ele>
        <time>2021-04-28T12:56:04Z</time>
      </trkpt>
      <trkpt lat="49.86901" lon="2.31225">
        <ele>60.9</ele>
        <time>2021-04-28T12:56:05Z</time>
      </trkpt>
      <trkpt lat="49.869" lon="2.31227">
        <ele>60.9</ele>
        <time>2021-04-28T12:56:06Z</time>
      </trkpt>
      <trkpt lat="49.869" lon="2.31228">
        <ele>60.9</ele>
        <time>2021-04-28T12:56:07Z</time>
      </trkpt>
      <trkpt lat="49.86899" lon="2.31229">
        <ele>60.9</ele>
        <time>2021-04-28T12:56:08Z</time>
      </trkpt>
      <trkpt lat="49.86899" lon="2.3123">
        <ele>60.9</ele>
        <time>2021-04-28T12:56:10Z</time>
      </trkpt>
      <trkpt lat="49.86899" lon="2.31232">
        <ele>60.9</ele>
        <time>2021-04-28T12:56:11Z</time>
      </trkpt>
      <trkpt lat="49.86899" lon="2.31234">
        <ele>61</ele>
        <time>2021-04-28T12:56:12Z</time>
      </trkpt>
      <trkpt lat="49.86899" lon="2.31235">
        <ele>61</ele>
        <time>2021-04-28T12:56:13Z</time>
      </trkpt>
      <trkpt lat="49.86899" lon="2.31236">
        <ele>61</ele>
        <time>2021-04-28T12:56:14Z</time>
      </trkpt>
      <trkpt lat="49.86899" lon="2.31238">
        <ele>61</ele>
        <time>2021-04-28T12:56:15Z</time>
      </trkpt>
      <trkpt lat="49.86898" lon="2.31239">
        <ele>61</ele>
        <time>2021-04-28T12:56:17Z</time>
      </trkpt>
      <trkpt lat="49.86898" lon="2.31241">
        <ele>61</ele>
        <time>2021-04-28T12:56:18Z</time>
      </trkpt>
      <trkpt lat="49.86897" lon="2.31242">
        <ele>61.1</ele>
        <time>2021-04-28T12:56:19Z</time>
      </trkpt>
      <trkpt lat="49.86896" lon="2.31244">
        <ele>61.1</ele>
        <time>2021-04-28T12:56:20Z</time>
      </trkpt>
      <trkpt lat="49.86896" lon="2.31245">
        <ele>61.1</ele>
        <time>2021-04-28T12:56:21Z</time>
      </trkpt>
      <trkpt lat="49.86895" lon="2.31246">
        <ele>61.1</ele>
        <time>2021-04-28T12:56:22Z</time>
      </trkpt>
      <trkpt lat="49.86894" lon="2.31248">
        <ele>61.1</ele>
        <time>2021-04-28T12:56:24Z</time>
      </trkpt>
      <trkpt lat="49.86894" lon="2.31249">
        <ele>61.1</ele>
        <time>2021-04-28T12:56:25Z</time>
      </trkpt>
      <trkpt lat="49.86893" lon="2.31251">
        <ele>61.2</ele>
        <time>2021-04-28T12:56:26Z</time>
      </trkpt>
      <trkpt lat="49.86892" lon="2.31252">
        <ele>61.2</ele>
        <time>2021-04-28T12:56:27Z</time>
      </trkpt>
      <trkpt lat="49.86891" lon="2.31254">
        <ele>61.2</ele>
        <time>2021-04-28T12:56:28Z</time>
      </trkpt>
      <trkpt lat="49.86891" lon="2.31255">
        <ele>61.2</ele>
        <time>2021-04-28T12:56:29Z</time>
      </trkpt>
      <trkpt lat="49.86889" lon="2.31258">
        <ele>61.3</ele>
        <time>2021-04-28T12:56:30Z</time>
      </trkpt>
      <trkpt lat="49.86889" lon="2.31259">
        <ele>61.3</ele>
        <time>2021-04-28T12:56:32Z</time>
      </trkpt>
      <trkpt lat="49.86888" lon="2.3126">
        <ele>61.3</ele>
        <time>2021-04-28T12:56:33Z</time>
      </trkpt>
      <trkpt lat="49.86887" lon="2.31261">
        <ele>61.3</ele>
        <time>2021-04-28T12:56:34Z</time>
      </trkpt>
      <trkpt lat="49.86888" lon="2.31264">
        <ele>61.3</ele>
        <time>2021-04-28T12:56:35Z</time>
      </trkpt>
      <trkpt lat="49.86888" lon="2.31266">
        <ele>61.4</ele>
        <time>2021-04-28T12:56:36Z</time>
      </trkpt>
      <trkpt lat="49.86887" lon="2.31267">
        <ele>61.4</ele>
        <time>2021-04-28T12:56:37Z</time>
      </trkpt>
      <trkpt lat="49.86886" lon="2.31269">
        <ele>61.4</ele>
        <time>2021-04-28T12:56:39Z</time>
      </trkpt>
      <trkpt lat="49.86886" lon="2.31272">
        <ele>61.4</ele>
        <time>2021-04-28T12:56:40Z</time>
      </trkpt>
      <trkpt lat="49.86885" lon="2.31274">
        <ele>61.5</ele>
        <time>2021-04-28T12:56:41Z</time>
      </trkpt>
      <trkpt lat="49.86885" lon="2.31277">
        <ele>61.5</ele>
        <time>2021-04-28T12:56:42Z</time>
      </trkpt>
      <trkpt lat="49.86885" lon="2.31279">
        <ele>61.5</ele>
        <time>2021-04-28T12:56:44Z</time>
      </trkpt>
      <trkpt lat="49.86886" lon="2.31281">
        <ele>61.5</ele>
        <time>2021-04-28T12:56:45Z</time>
      </trkpt>
      <trkpt lat="49.86885" lon="2.31282">
        <ele>61.5</ele>
        <time>2021-04-28T12:56:46Z</time>
      </trkpt>
      <trkpt lat="49.86884" lon="2.31284">
        <ele>61.6</ele>
        <time>2021-04-28T12:56:47Z</time>
      </trkpt>
      <trkpt lat="49.86884" lon="2.31285">
        <ele>61.6</ele>
        <time>2021-04-28T12:56:48Z</time>
      </trkpt>
      <trkpt lat="49.86884" lon="2.31287">
        <ele>61.6</ele>
        <time>2021-04-28T12:56:50Z</time>
      </trkpt>
      <trkpt lat="49.86884" lon="2.31288">
        <ele>61.6</ele>
        <time>2021-04-28T12:56:51Z</time>
      </trkpt>
      <trkpt lat="49.86883" lon="2.3129">
        <ele>61.6</ele>
        <time>2021-04-28T12:56:52Z</time>
      </trkpt>
      <trkpt lat="49.86882" lon="2.31291">
        <ele>61.6</ele>
        <time>2021-04-28T12:56:53Z</time>
      </trkpt>
      <trkpt lat="49.86883" lon="2.31289">
        <ele>61.7</ele>
        <time>2021-04-28T12:56:54Z</time>
      </trkpt>
      <trkpt lat="49.86882" lon="2.31291">
        <ele>61.7</ele>
        <time>2021-04-28T12:56:55Z</time>
      </trkpt>
      <trkpt lat="49.86882" lon="2.31292">
        <ele>61.7</ele>
        <time>2021-04-28T12:56:57Z</time>
      </trkpt>
      <trkpt lat="49.86881" lon="2.31294">
        <ele>61.7</ele>
        <time>2021-04-28T12:56:58Z</time>
      </trkpt>
      <trkpt lat="49.8688" lon="2.31296">
        <ele>61.7</ele>
        <time>2021-04-28T12:56:59Z</time>
      </trkpt>
      <trkpt lat="49.8688" lon="2.31295">
        <ele>61.7</ele>
        <time>2021-04-28T12:57:00Z</time>
      </trkpt>
      <trkpt lat="49.86879" lon="2.31297">
        <ele>61.8</ele>
        <time>2021-04-28T12:57:01Z</time>
      </trkpt>
      <trkpt lat="49.86878" lon="2.31299">
        <ele>61.8</ele>
        <time>2021-04-28T12:57:02Z</time>
      </trkpt>
      <trkpt lat="49.86877" lon="2.313">
        <ele>61.8</ele>
        <time>2021-04-28T12:57:03Z</time>
      </trkpt>
      <trkpt lat="49.86877" lon="2.31301">
        <ele>61.8</ele>
        <time>2021-04-28T12:57:04Z</time>
      </trkpt>
      <trkpt lat="49.86876" lon="2.31302">
        <ele>61.8</ele>
        <time>2021-04-28T12:57:06Z</time>
      </trkpt>
      <trkpt lat="49.86875" lon="2.31304">
        <ele>61.9</ele>
        <time>2021-04-28T12:57:07Z</time>
      </trkpt>
      <trkpt lat="49.86874" lon="2.31305">
        <ele>61.9</ele>
        <time>2021-04-28T12:57:08Z</time>
      </trkpt>
      <trkpt lat="49.86872" lon="2.31307">
        <ele>61.9</ele>
        <time>2021-04-28T12:57:09Z</time>
      </trkpt>
      <trkpt lat="49.86872" lon="2.31307">
        <ele>61.9</ele>
        <time>2021-04-28T12:57:10Z</time>
      </trkpt>
      <trkpt lat="49.86871" lon="2.31308">
        <ele>61.9</ele>
        <time>2021-04-28T12:57:11Z</time>
      </trkpt>
      <trkpt lat="49.8687" lon="2.31309">
        <ele>61.9</ele>
        <time>2021-04-28T12:57:12Z</time>
      </trkpt>
      <trkpt lat="49.86869" lon="2.31311">
        <ele>62</ele>
        <time>2021-04-28T12:57:14Z</time>
      </trkpt>
      <trkpt lat="49.8687" lon="2.31312">
        <ele>62</ele>
        <time>2021-04-28T12:57:15Z</time>
      </trkpt>
      <trkpt lat="49.86869" lon="2.31313">
        <ele>62</ele>
        <time>2021-04-28T12:57:16Z</time>
      </trkpt>
      <trkpt lat="49.86868" lon="2.31315">
        <ele>62</ele>
        <time>2021-04-28T12:57:17Z</time>
      </trkpt>
      <trkpt lat="49.86867" lon="2.31317">
        <ele>62</ele>
        <time>2021-04-28T12:57:18Z</time>
      </trkpt>
      <trkpt lat="49.8687" lon="2.31319">
        <ele>62</ele>
        <time>2021-04-28T12:57:20Z</time>
      </trkpt>
      <trkpt lat="49.86869" lon="2.31321">
        <ele>62.1</ele>
        <time>2021-04-28T12:57:21Z</time>
      </trkpt>
      <trkpt lat="49.86868" lon="2.31323">
        <ele>62.1</ele>
        <time>2021-04-28T12:57:22Z</time>
      </trkpt>
      <trkpt lat="49.86868" lon="2.31327">
        <ele>62.1</ele>
        <time>2021-04-28T12:57:23Z</time>
      </trkpt>
      <trkpt lat="49.86869" lon="2.31329">
        <ele>62.1</ele>
        <time>2021-04-28T12:57:24Z</time>
      </trkpt>
      <trkpt lat="49.86868" lon="2.3133">
        <ele>62.1</ele>
        <time>2021-04-28T12:57:26Z</time>
      </trkpt>
      <trkpt lat="49.86867" lon="2.31332">
        <ele>62.1</ele>
        <time>2021-04-28T12:57:27Z</time>
      </trkpt>
      <trkpt lat="49.86866" lon="2.31334">
        <ele>62.1</ele>
        <time>2021-04-28T12:57:28Z</time>
      </trkpt>
      <trkpt lat="49.86864" lon="2.31335">
        <ele>62.1</ele>
        <time>2021-04-28T12:57:29Z</time>
      </trkpt>
      <trkpt lat="49.86864" lon="2.31339">
        <ele>62.1</ele>
        <time>2021-04-28T12:57:30Z</time>
      </trkpt>
      <trkpt lat="49.86864" lon="2.3134">
        <ele>62.1</ele>
        <time>2021-04-28T12:57:31Z</time>
      </trkpt>
      <trkpt lat="49.86863" lon="2.31341">
        <ele>62.1</ele>
        <time>2021-04-28T12:57:32Z</time>
      </trkpt>
      <trkpt lat="49.86862" lon="2.31342">
        <ele>62.1</ele>
        <time>2021-04-28T12:57:33Z</time>
      </trkpt>
      <trkpt lat="49.86863" lon="2.31344">
        <ele>62.1</ele>
        <time>2021-04-28T12:57:35Z</time>
      </trkpt>
      <trkpt lat="49.86862" lon="2.31346">
        <ele>62.1</ele>
        <time>2021-04-28T12:57:36Z</time>
      </trkpt>
      <trkpt lat="49.86861" lon="2.31347">
        <ele>62.1</ele>
        <time>2021-04-28T12:57:37Z</time>
      </trkpt>
      <trkpt lat="49.8686" lon="2.31349">
        <ele>62.1</ele>
        <time>2021-04-28T12:57:38Z</time>
      </trkpt>
      <trkpt lat="49.86858" lon="2.3135">
        <ele>62.1</ele>
        <time>2021-04-28T12:57:39Z</time>
      </trkpt>
      <trkpt lat="49.86857" lon="2.31353">
        <ele>62.1</ele>
        <time>2021-04-28T12:57:40Z</time>
      </trkpt>
      <trkpt lat="49.86856" lon="2.31355">
        <ele>62.1</ele>
        <time>2021-04-28T12:57:41Z</time>
      </trkpt>
      <trkpt lat="49.86855" lon="2.31356">
        <ele>62.1</ele>
        <time>2021-04-28T12:57:42Z</time>
      </trkpt>
      <trkpt lat="49.86854" lon="2.31358">
        <ele>62.1</ele>
        <time>2021-04-28T12:57:44Z</time>
      </trkpt>
      <trkpt lat="49.86854" lon="2.31361">
        <ele>62.1</ele>
        <time>2021-04-28T12:57:45Z</time>
      </trkpt>
      <trkpt lat="49.86852" lon="2.31362">
        <ele>62.1</ele>
        <time>2021-04-28T12:57:46Z</time>
      </trkpt>
      <trkpt lat="49.86851" lon="2.31362">
        <ele>62.1</ele>
        <time>2021-04-28T12:57:47Z</time>
      </trkpt>
      <trkpt lat="49.86851" lon="2.31363">
        <ele>62.1</ele>
        <time>2021-04-28T12:57:48Z</time>
      </trkpt>
      <trkpt lat="49.86849" lon="2.31361">
        <ele>62.1</ele>
        <time>2021-04-28T12:57:50Z</time>
      </trkpt>
      <trkpt lat="49.86848" lon="2.31359">
        <ele>62.1</ele>
        <time>2021-04-28T12:57:52Z</time>
      </trkpt>
      <trkpt lat="49.86848" lon="2.31357">
        <ele>62.1</ele>
        <time>2021-04-28T12:57:54Z</time>
      </trkpt>
      <trkpt lat="49.86848" lon="2.31355">
        <ele>62.1</ele>
        <time>2021-04-28T12:57:56Z</time>
      </trkpt>
      <trkpt lat="49.86848" lon="2.31355">
        <ele>62.1</ele>
        <time>2021-04-28T12:57:57Z</time>
      </trkpt>
      <trkpt lat="49.86847" lon="2.31354">
        <ele>62.1</ele>
        <time>2021-04-28T12:57:58Z</time>
      </trkpt>
      <trkpt lat="49.86847" lon="2.31352">
        <ele>62.1</ele>
        <time>2021-04-28T12:57:59Z</time>
      </trkpt>
      <trkpt lat="49.86847" lon="2.31351">
        <ele>62.1</ele>
        <time>2021-04-28T12:58:00Z</time>
      </trkpt>
      <trkpt lat="49.86846" lon="2.31349">
        <ele>62.1</ele>
        <time>2021-04-28T12:58:02Z</time>
      </trkpt>
      <trkpt lat="49.86846" lon="2.31349">
        <ele>62.1</ele>
        <time>2021-04-28T12:58:03Z</time>
      </trkpt>
      <trkpt lat="49.86844" lon="2.31348">
        <ele>62.1</ele>
        <time>2021-04-28T12:58:05Z</time>
      </trkpt>
      <trkpt lat="49.86844" lon="2.31347">
        <ele>62.1</ele>
        <time>2021-04-28T12:58:06Z</time>
      </trkpt>
      <trkpt lat="49.86844" lon="2.31347">
        <ele>62.1</ele>
        <time>2021-04-28T12:58:07Z</time>
      </trkpt>
      <trkpt lat="49.86844" lon="2.31348">
        <ele>62.1</ele>
        <time>2021-04-28T12:58:09Z</time>
      </trkpt>
      <trkpt lat="49.86844" lon="2.31348">
        <ele>62.1</ele>
        <time>2021-04-28T12:58:11Z</time>
      </trkpt>
      <trkpt lat="49.86844" lon="2.31347">
        <ele>62.1</ele>
        <time>2021-04-28T12:58:13Z</time>
      </trkpt>
      <trkpt lat="49.86843" lon="2.31347">
        <ele>62.1</ele>
        <time>2021-04-28T12:58:14Z</time>
      </trkpt>
      <trkpt lat="49.86843" lon="2.31347">
        <ele>62.1</ele>
        <time>2021-04-28T12:58:16Z</time>
      </trkpt>
      <trkpt lat="49.86843" lon="2.31347">
        <ele>62.1</ele>
        <time>2021-04-28T12:58:18Z</time>
      </trkpt>
      <trkpt lat="49.86843" lon="2.31348">
        <ele>62.1</ele>
        <time>2021-04-28T12:58:20Z</time>
      </trkpt>
      <trkpt lat="49.86843" lon="2.31348">
        <ele>62.1</ele>
        <time>2021-04-28T12:58:22Z</time>
      </trkpt>
      <trkpt lat="49.86843" lon="2.31349">
        <ele>62.1</ele>
        <time>2021-04-28T12:58:23Z</time>
      </trkpt>
      <trkpt lat="49.86843" lon="2.31349">
        <ele>62.1</ele>
        <time>2021-04-28T12:58:24Z</time>
      </trkpt>
      <trkpt lat="49.86843" lon="2.31351">
        <ele>62.1</ele>
        <time>2021-04-28T12:58:25Z</time>
      </trkpt>
      <trkpt lat="49.86843" lon="2.31353">
        <ele>62.1</ele>
        <time>2021-04-28T12:58:26Z</time>
      </trkpt>
      <trkpt lat="49.86842" lon="2.31355">
        <ele>62.1</ele>
        <time>2021-04-28T12:58:27Z</time>
      </trkpt>
      <trkpt lat="49.86842" lon="2.31356">
        <ele>62.1</ele>
        <time>2021-04-28T12:58:28Z</time>
      </trkpt>
      <trkpt lat="49.86842" lon="2.31357">
        <ele>62.1</ele>
        <time>2021-04-28T12:58:29Z</time>
      </trkpt>
      <trkpt lat="49.86845" lon="2.31362">
        <ele>62.1</ele>
        <time>2021-04-28T12:58:31Z</time>
      </trkpt>
      <trkpt lat="49.86847" lon="2.31365">
        <ele>62.1</ele>
        <time>2021-04-28T12:58:32Z</time>
      </trkpt>
      <trkpt lat="49.86849" lon="2.31369">
        <ele>62.1</ele>
        <time>2021-04-28T12:58:33Z</time>
      </trkpt>
      <trkpt lat="49.86849" lon="2.31371">
        <ele>62.1</ele>
        <time>2021-04-28T12:58:34Z</time>
      </trkpt>
      <trkpt lat="49.86848" lon="2.31372">
        <ele>62.1</ele>
        <time>2021-04-28T12:58:36Z</time>
      </trkpt>
      <trkpt lat="49.86847" lon="2.31373">
        <ele>62.1</ele>
        <time>2021-04-28T12:58:37Z</time>
      </trkpt>
      <trkpt lat="49.86847" lon="2.31375">
        <ele>62.1</ele>
        <time>2021-04-28T12:58:38Z</time>
      </trkpt>
      <trkpt lat="49.86846" lon="2.31376">
        <ele>62.1</ele>
        <time>2021-04-28T12:58:39Z</time>
      </trkpt>
      <trkpt lat="49.86845" lon="2.31377">
        <ele>62.1</ele>
        <time>2021-04-28T12:58:40Z</time>
      </trkpt>
      <trkpt lat="49.86845" lon="2.3138">
        <ele>62.1</ele>
        <time>2021-04-28T12:58:42Z</time>
      </trkpt>
      <trkpt lat="49.86845" lon="2.31382">
        <ele>62.1</ele>
        <time>2021-04-28T12:58:43Z</time>
      </trkpt>
      <trkpt lat="49.86844" lon="2.31384">
        <ele>62.1</ele>
        <time>2021-04-28T12:58:44Z</time>
      </trkpt>
      <trkpt lat="49.86844" lon="2.31386">
        <ele>62.1</ele>
        <time>2021-04-28T12:58:45Z</time>
      </trkpt>
      <trkpt lat="49.86843" lon="2.31389">
        <ele>62.1</ele>
        <time>2021-04-28T12:58:46Z</time>
      </trkpt>
      <trkpt lat="49.86843" lon="2.31391">
        <ele>62.1</ele>
        <time>2021-04-28T12:58:47Z</time>
      </trkpt>
      <trkpt lat="49.86843" lon="2.31394">
        <ele>62.2</ele>
        <time>2021-04-28T12:58:48Z</time>
      </trkpt>
      <trkpt lat="49.86842" lon="2.31397">
        <ele>62.2</ele>
        <time>2021-04-28T12:58:49Z</time>
      </trkpt>
      <trkpt lat="49.86841" lon="2.314">
        <ele>62.2</ele>
        <time>2021-04-28T12:58:51Z</time>
      </trkpt>
      <trkpt lat="49.8684" lon="2.31405">
        <ele>62.2</ele>
        <time>2021-04-28T12:58:53Z</time>
      </trkpt>
      <trkpt lat="49.86839" lon="2.31407">
        <ele>62.2</ele>
        <time>2021-04-28T12:58:54Z</time>
      </trkpt>
      <trkpt lat="49.86838" lon="2.3141">
        <ele>62.2</ele>
        <time>2021-04-28T12:58:55Z</time>
      </trkpt>
      <trkpt lat="49.86837" lon="2.31414">
        <ele>62.1</ele>
        <time>2021-04-28T12:58:56Z</time>
      </trkpt>
      <trkpt lat="49.86837" lon="2.31415">
        <ele>62.1</ele>
        <time>2021-04-28T12:58:57Z</time>
      </trkpt>
      <trkpt lat="49.86836" lon="2.31417">
        <ele>62.1</ele>
        <time>2021-04-28T12:58:58Z</time>
      </trkpt>
      <trkpt lat="49.86835" lon="2.31419">
        <ele>62.1</ele>
        <time>2021-04-28T12:58:59Z</time>
      </trkpt>
      <trkpt lat="49.86834" lon="2.31421">
        <ele>62.1</ele>
        <time>2021-04-28T12:59:01Z</time>
      </trkpt>
      <trkpt lat="49.86834" lon="2.31423">
        <ele>62.1</ele>
        <time>2021-04-28T12:59:02Z</time>
      </trkpt>
      <trkpt lat="49.86833" lon="2.31425">
        <ele>62.1</ele>
        <time>2021-04-28T12:59:03Z</time>
      </trkpt>
      <trkpt lat="49.86833" lon="2.31427">
        <ele>62.1</ele>
        <time>2021-04-28T12:59:04Z</time>
      </trkpt>
      <trkpt lat="49.86832" lon="2.3143">
        <ele>62.1</ele>
        <time>2021-04-28T12:59:05Z</time>
      </trkpt>
      <trkpt lat="49.86832" lon="2.31432">
        <ele>62.1</ele>
        <time>2021-04-28T12:59:06Z</time>
      </trkpt>
      <trkpt lat="49.86832" lon="2.31433">
        <ele>62.1</ele>
        <time>2021-04-28T12:59:07Z</time>
      </trkpt>
      <trkpt lat="49.86831" lon="2.31436">
        <ele>62.1</ele>
        <time>2021-04-28T12:59:08Z</time>
      </trkpt>
      <trkpt lat="49.86831" lon="2.31438">
        <ele>62.1</ele>
        <time>2021-04-28T12:59:09Z</time>
      </trkpt>
      <trkpt lat="49.8683" lon="2.3144">
        <ele>62.1</ele>
        <time>2021-04-28T12:59:10Z</time>
      </trkpt>
      <trkpt lat="49.8683" lon="2.31442">
        <ele>62.1</ele>
        <time>2021-04-28T12:59:12Z</time>
      </trkpt>
      <trkpt lat="49.8683" lon="2.31444">
        <ele>62.1</ele>
        <time>2021-04-28T12:59:13Z</time>
      </trkpt>
      <trkpt lat="49.86829" lon="2.31446">
        <ele>62.1</ele>
        <time>2021-04-28T12:59:14Z</time>
      </trkpt>
      <trkpt lat="49.86828" lon="2.31448">
        <ele>62.1</ele>
        <time>2021-04-28T12:59:15Z</time>
      </trkpt>
      <trkpt lat="49.86829" lon="2.3145">
        <ele>62.1</ele>
        <time>2021-04-28T12:59:16Z</time>
      </trkpt>
      <trkpt lat="49.86829" lon="2.31452">
        <ele>62.1</ele>
        <time>2021-04-28T12:59:17Z</time>
      </trkpt>
      <trkpt lat="49.86828" lon="2.31454">
        <ele>62.1</ele>
        <time>2021-04-28T12:59:18Z</time>
      </trkpt>
      <trkpt lat="49.86828" lon="2.31456">
        <ele>62.1</ele>
        <time>2021-04-28T12:59:19Z</time>
      </trkpt>
      <trkpt lat="49.86827" lon="2.31458">
        <ele>62.1</ele>
        <time>2021-04-28T12:59:21Z</time>
      </trkpt>
      <trkpt lat="49.86827" lon="2.31459">
        <ele>62.1</ele>
        <time>2021-04-28T12:59:22Z</time>
      </trkpt>
      <trkpt lat="49.86827" lon="2.31461">
        <ele>62.1</ele>
        <time>2021-04-28T12:59:23Z</time>
      </trkpt>
      <trkpt lat="49.86827" lon="2.31462">
        <ele>62.1</ele>
        <time>2021-04-28T12:59:24Z</time>
      </trkpt>
      <trkpt lat="49.86826" lon="2.31464">
        <ele>62</ele>
        <time>2021-04-28T12:59:25Z</time>
      </trkpt>
      <trkpt lat="49.86826" lon="2.31465">
        <ele>62</ele>
        <time>2021-04-28T12:59:26Z</time>
      </trkpt>
      <trkpt lat="49.86825" lon="2.31468">
        <ele>62</ele>
        <time>2021-04-28T12:59:27Z</time>
      </trkpt>
      <trkpt lat="49.86824" lon="2.3147">
        <ele>62</ele>
        <time>2021-04-28T12:59:28Z</time>
      </trkpt>
      <trkpt lat="49.86824" lon="2.31471">
        <ele>62</ele>
        <time>2021-04-28T12:59:29Z</time>
      </trkpt>
      <trkpt lat="49.86823" lon="2.31473">
        <ele>62</ele>
        <time>2021-04-28T12:59:31Z</time>
      </trkpt>
      <trkpt lat="49.86823" lon="2.31475">
        <ele>62</ele>
        <time>2021-04-28T12:59:32Z</time>
      </trkpt>
      <trkpt lat="49.86821" lon="2.31477">
        <ele>62</ele>
        <time>2021-04-28T12:59:33Z</time>
      </trkpt>
      <trkpt lat="49.8682" lon="2.31478">
        <ele>62</ele>
        <time>2021-04-28T12:59:35Z</time>
      </trkpt>
      <trkpt lat="49.8682" lon="2.31479">
        <ele>62</ele>
        <time>2021-04-28T12:59:36Z</time>
      </trkpt>
      <trkpt lat="49.86819" lon="2.31479">
        <ele>62</ele>
        <time>2021-04-28T12:59:37Z</time>
      </trkpt>
      <trkpt lat="49.86818" lon="2.31482">
        <ele>62</ele>
        <time>2021-04-28T12:59:39Z</time>
      </trkpt>
      <trkpt lat="49.86818" lon="2.31483">
        <ele>62</ele>
        <time>2021-04-28T12:59:40Z</time>
      </trkpt>
      <trkpt lat="49.86817" lon="2.31485">
        <ele>62</ele>
        <time>2021-04-28T12:59:41Z</time>
      </trkpt>
      <trkpt lat="49.86817" lon="2.31486">
        <ele>62</ele>
        <time>2021-04-28T12:59:43Z</time>
      </trkpt>
      <trkpt lat="49.86816" lon="2.31487">
        <ele>62</ele>
        <time>2021-04-28T12:59:44Z</time>
      </trkpt>
      <trkpt lat="49.86814" lon="2.31489">
        <ele>62</ele>
        <time>2021-04-28T12:59:45Z</time>
      </trkpt>
      <trkpt lat="49.86813" lon="2.31489">
        <ele>62</ele>
        <time>2021-04-28T12:59:46Z</time>
      </trkpt>
      <trkpt lat="49.86812" lon="2.3149">
        <ele>62</ele>
        <time>2021-04-28T12:59:47Z</time>
      </trkpt>
      <trkpt lat="49.86811" lon="2.31491">
        <ele>62</ele>
        <time>2021-04-28T12:59:48Z</time>
      </trkpt>
      <trkpt lat="49.8681" lon="2.31492">
        <ele>62</ele>
        <time>2021-04-28T12:59:49Z</time>
      </trkpt>
      <trkpt lat="49.86809" lon="2.31494">
        <ele>62</ele>
        <time>2021-04-28T12:59:51Z</time>
      </trkpt>
      <trkpt lat="49.86808" lon="2.31494">
        <ele>62.1</ele>
        <time>2021-04-28T12:59:52Z</time>
      </trkpt>
      <trkpt lat="49.86807" lon="2.31496">
        <ele>62.1</ele>
        <time>2021-04-28T12:59:54Z</time>
      </trkpt>
      <trkpt lat="49.86807" lon="2.31497">
        <ele>62.1</ele>
        <time>2021-04-28T12:59:55Z</time>
      </trkpt>
      <trkpt lat="49.86806" lon="2.31499">
        <ele>62.1</ele>
        <time>2021-04-28T12:59:56Z</time>
      </trkpt>
      <trkpt lat="49.86806" lon="2.315">
        <ele>62.1</ele>
        <time>2021-04-28T12:59:57Z</time>
      </trkpt>
      <trkpt lat="49.86806" lon="2.31502">
        <ele>62.1</ele>
        <time>2021-04-28T12:59:58Z</time>
      </trkpt>
      <trkpt lat="49.86805" lon="2.31504">
        <ele>62.1</ele>
        <time>2021-04-28T12:59:59Z</time>
      </trkpt>
      <trkpt lat="49.86805" lon="2.31506">
        <ele>62.1</ele>
        <time>2021-04-28T13:00:00Z</time>
      </trkpt>
      <trkpt lat="49.86804" lon="2.31508">
        <ele>62.1</ele>
        <time>2021-04-28T13:00:02Z</time>
      </trkpt>
      <trkpt lat="49.86804" lon="2.31509">
        <ele>62.1</ele>
        <time>2021-04-28T13:00:03Z</time>
      </trkpt>
      <trkpt lat="49.86803" lon="2.31511">
        <ele>62.1</ele>
        <time>2021-04-28T13:00:04Z</time>
      </trkpt>
      <trkpt lat="49.86803" lon="2.31513">
        <ele>62.1</ele>
        <time>2021-04-28T13:00:05Z</time>
      </trkpt>
      <trkpt lat="49.86802" lon="2.31515">
        <ele>62.1</ele>
        <time>2021-04-28T13:00:07Z</time>
      </trkpt>
      <trkpt lat="49.86801" lon="2.31517">
        <ele>62.1</ele>
        <time>2021-04-28T13:00:08Z</time>
      </trkpt>
      <trkpt lat="49.86801" lon="2.31519">
        <ele>62.1</ele>
        <time>2021-04-28T13:00:09Z</time>
      </trkpt>
      <trkpt lat="49.868" lon="2.31521">
        <ele>62.1</ele>
        <time>2021-04-28T13:00:10Z</time>
      </trkpt>
      <trkpt lat="49.86801" lon="2.31524">
        <ele>62.1</ele>
        <time>2021-04-28T13:00:11Z</time>
      </trkpt>
      <trkpt lat="49.86801" lon="2.31526">
        <ele>62.1</ele>
        <time>2021-04-28T13:00:12Z</time>
      </trkpt>
      <trkpt lat="49.868" lon="2.31528">
        <ele>62.1</ele>
        <time>2021-04-28T13:00:14Z</time>
      </trkpt>
      <trkpt lat="49.868" lon="2.3153">
        <ele>62.1</ele>
        <time>2021-04-28T13:00:15Z</time>
      </trkpt>
      <trkpt lat="49.86799" lon="2.31533">
        <ele>62.1</ele>
        <time>2021-04-28T13:00:17Z</time>
      </trkpt>
      <trkpt lat="49.86798" lon="2.31535">
        <ele>62.1</ele>
        <time>2021-04-28T13:00:18Z</time>
      </trkpt>
      <trkpt lat="49.86798" lon="2.31536">
        <ele>62.1</ele>
        <time>2021-04-28T13:00:19Z</time>
      </trkpt>
      <trkpt lat="49.86798" lon="2.31538">
        <ele>62.1</ele>
        <time>2021-04-28T13:00:20Z</time>
      </trkpt>
      <trkpt lat="49.86799" lon="2.31541">
        <ele>62.1</ele>
        <time>2021-04-28T13:00:21Z</time>
      </trkpt>
      <trkpt lat="49.86801" lon="2.31543">
        <ele>62.1</ele>
        <time>2021-04-28T13:00:22Z</time>
      </trkpt>
      <trkpt lat="49.868" lon="2.31546">
        <ele>62.1</ele>
        <time>2021-04-28T13:00:23Z</time>
      </trkpt>
      <trkpt lat="49.868" lon="2.31547">
        <ele>62.1</ele>
        <time>2021-04-28T13:00:25Z</time>
      </trkpt>
      <trkpt lat="49.868" lon="2.31549">
        <ele>62.1</ele>
        <time>2021-04-28T13:00:26Z</time>
      </trkpt>
      <trkpt lat="49.86801" lon="2.31549">
        <ele>62.1</ele>
        <time>2021-04-28T13:00:27Z</time>
      </trkpt>
      <trkpt lat="49.868" lon="2.31551">
        <ele>62.1</ele>
        <time>2021-04-28T13:00:28Z</time>
      </trkpt>
      <trkpt lat="49.868" lon="2.31553">
        <ele>62.1</ele>
        <time>2021-04-28T13:00:29Z</time>
      </trkpt>
      <trkpt lat="49.86799" lon="2.31555">
        <ele>62.1</ele>
        <time>2021-04-28T13:00:30Z</time>
      </trkpt>
      <trkpt lat="49.86802" lon="2.31557">
        <ele>62.1</ele>
        <time>2021-04-28T13:00:31Z</time>
      </trkpt>
      <trkpt lat="49.86802" lon="2.31559">
        <ele>62.1</ele>
        <time>2021-04-28T13:00:33Z</time>
      </trkpt>
      <trkpt lat="49.86801" lon="2.31561">
        <ele>62.1</ele>
        <time>2021-04-28T13:00:34Z</time>
      </trkpt>
      <trkpt lat="49.86798" lon="2.31563">
        <ele>62.1</ele>
        <time>2021-04-28T13:00:35Z</time>
      </trkpt>
      <trkpt lat="49.86797" lon="2.31563">
        <ele>62.1</ele>
        <time>2021-04-28T13:00:36Z</time>
      </trkpt>
      <trkpt lat="49.86794" lon="2.31562">
        <ele>62.1</ele>
        <time>2021-04-28T13:00:37Z</time>
      </trkpt>
      <trkpt lat="49.86793" lon="2.31562">
        <ele>62.1</ele>
        <time>2021-04-28T13:00:38Z</time>
      </trkpt>
      <trkpt lat="49.86791" lon="2.31563">
        <ele>62.1</ele>
        <time>2021-04-28T13:00:39Z</time>
      </trkpt>
      <trkpt lat="49.86791" lon="2.31563">
        <ele>62.1</ele>
        <time>2021-04-28T13:00:40Z</time>
      </trkpt>
      <trkpt lat="49.8679" lon="2.31566">
        <ele>62.1</ele>
        <time>2021-04-28T13:00:42Z</time>
      </trkpt>
      <trkpt lat="49.86789" lon="2.31567">
        <ele>62.1</ele>
        <time>2021-04-28T13:00:43Z</time>
      </trkpt>
      <trkpt lat="49.86789" lon="2.31569">
        <ele>62.1</ele>
        <time>2021-04-28T13:00:44Z</time>
      </trkpt>
      <trkpt lat="49.86788" lon="2.3157">
        <ele>62.1</ele>
        <time>2021-04-28T13:00:45Z</time>
      </trkpt>
      <trkpt lat="49.86788" lon="2.31572">
        <ele>62.1</ele>
        <time>2021-04-28T13:00:46Z</time>
      </trkpt>
      <trkpt lat="49.86787" lon="2.31574">
        <ele>62.1</ele>
        <time>2021-04-28T13:00:48Z</time>
      </trkpt>
      <trkpt lat="49.86786" lon="2.31576">
        <ele>62.1</ele>
        <time>2021-04-28T13:00:49Z</time>
      </trkpt>
      <trkpt lat="49.86786" lon="2.31578">
        <ele>62.1</ele>
        <time>2021-04-28T13:00:50Z</time>
      </trkpt>
      <trkpt lat="49.86783" lon="2.31582">
        <ele>62.1</ele>
        <time>2021-04-28T13:00:52Z</time>
      </trkpt>
      <trkpt lat="49.86782" lon="2.31583">
        <ele>62.1</ele>
        <time>2021-04-28T13:00:53Z</time>
      </trkpt>
      <trkpt lat="49.86781" lon="2.31584">
        <ele>62.1</ele>
        <time>2021-04-28T13:00:54Z</time>
      </trkpt>
      <trkpt lat="49.8678" lon="2.31586">
        <ele>62.1</ele>
        <time>2021-04-28T13:00:56Z</time>
      </trkpt>
      <trkpt lat="49.8678" lon="2.31588">
        <ele>62.1</ele>
        <time>2021-04-28T13:00:57Z</time>
      </trkpt>
      <trkpt lat="49.86779" lon="2.31591">
        <ele>62.1</ele>
        <time>2021-04-28T13:00:58Z</time>
      </trkpt>
      <trkpt lat="49.86778" lon="2.31592">
        <ele>62.1</ele>
        <time>2021-04-28T13:00:59Z</time>
      </trkpt>
      <trkpt lat="49.86778" lon="2.31593">
        <ele>62.1</ele>
        <time>2021-04-28T13:01:00Z</time>
      </trkpt>
      <trkpt lat="49.86777" lon="2.31597">
        <ele>62.1</ele>
        <time>2021-04-28T13:01:01Z</time>
      </trkpt>
      <trkpt lat="49.86777" lon="2.31598">
        <ele>62.1</ele>
        <time>2021-04-28T13:01:03Z</time>
      </trkpt>
      <trkpt lat="49.86777" lon="2.316">
        <ele>62.1</ele>
        <time>2021-04-28T13:01:04Z</time>
      </trkpt>
      <trkpt lat="49.86776" lon="2.31601">
        <ele>62.1</ele>
        <time>2021-04-28T13:01:05Z</time>
      </trkpt>
      <trkpt lat="49.86776" lon="2.31603">
        <ele>62.1</ele>
        <time>2021-04-28T13:01:06Z</time>
      </trkpt>
      <trkpt lat="49.86775" lon="2.31607">
        <ele>62.1</ele>
        <time>2021-04-28T13:01:07Z</time>
      </trkpt>
      <trkpt lat="49.86775" lon="2.31609">
        <ele>62.1</ele>
        <time>2021-04-28T13:01:09Z</time>
      </trkpt>
      <trkpt lat="49.86775" lon="2.3161">
        <ele>62.2</ele>
        <time>2021-04-28T13:01:10Z</time>
      </trkpt>
      <trkpt lat="49.86775" lon="2.31612">
        <ele>62.2</ele>
        <time>2021-04-28T13:01:11Z</time>
      </trkpt>
      <trkpt lat="49.86774" lon="2.31613">
        <ele>62.2</ele>
        <time>2021-04-28T13:01:12Z</time>
      </trkpt>
      <trkpt lat="49.86774" lon="2.31616">
        <ele>62.2</ele>
        <time>2021-04-28T13:01:13Z</time>
      </trkpt>
      <trkpt lat="49.86774" lon="2.31618">
        <ele>62.2</ele>
        <time>2021-04-28T13:01:14Z</time>
      </trkpt>
      <trkpt lat="49.86774" lon="2.31619">
        <ele>62.2</ele>
        <time>2021-04-28T13:01:15Z</time>
      </trkpt>
      <trkpt lat="49.86774" lon="2.31621">
        <ele>62.2</ele>
        <time>2021-04-28T13:01:17Z</time>
      </trkpt>
      <trkpt lat="49.86773" lon="2.31623">
        <ele>62.2</ele>
        <time>2021-04-28T13:01:18Z</time>
      </trkpt>
      <trkpt lat="49.86773" lon="2.31625">
        <ele>62.2</ele>
        <time>2021-04-28T13:01:19Z</time>
      </trkpt>
      <trkpt lat="49.86773" lon="2.31626">
        <ele>62.2</ele>
        <time>2021-04-28T13:01:20Z</time>
      </trkpt>
      <trkpt lat="49.86773" lon="2.31628">
        <ele>62.2</ele>
        <time>2021-04-28T13:01:22Z</time>
      </trkpt>
      <trkpt lat="49.86773" lon="2.3163">
        <ele>62.2</ele>
        <time>2021-04-28T13:01:23Z</time>
      </trkpt>
      <trkpt lat="49.86772" lon="2.31631">
        <ele>62.2</ele>
        <time>2021-04-28T13:01:24Z</time>
      </trkpt>
      <trkpt lat="49.86772" lon="2.31633">
        <ele>62.2</ele>
        <time>2021-04-28T13:01:25Z</time>
      </trkpt>
      <trkpt lat="49.86772" lon="2.31635">
        <ele>62.2</ele>
        <time>2021-04-28T13:01:26Z</time>
      </trkpt>
      <trkpt lat="49.86772" lon="2.31637">
        <ele>62.2</ele>
        <time>2021-04-28T13:01:27Z</time>
      </trkpt>
      <trkpt lat="49.86772" lon="2.31638">
        <ele>62.2</ele>
        <time>2021-04-28T13:01:28Z</time>
      </trkpt>
      <trkpt lat="49.86771" lon="2.31642">
        <ele>62.2</ele>
        <time>2021-04-28T13:01:29Z</time>
      </trkpt>
      <trkpt lat="49.86771" lon="2.31643">
        <ele>62.2</ele>
        <time>2021-04-28T13:01:31Z</time>
      </trkpt>
      <trkpt lat="49.86771" lon="2.31645">
        <ele>62.2</ele>
        <time>2021-04-28T13:01:32Z</time>
      </trkpt>
      <trkpt lat="49.86771" lon="2.31647">
        <ele>62.2</ele>
        <time>2021-04-28T13:01:33Z</time>
      </trkpt>
      <trkpt lat="49.86771" lon="2.31649">
        <ele>62.2</ele>
        <time>2021-04-28T13:01:34Z</time>
      </trkpt>
      <trkpt lat="49.8677" lon="2.3165">
        <ele>62.2</ele>
        <time>2021-04-28T13:01:35Z</time>
      </trkpt>
      <trkpt lat="49.8677" lon="2.31652">
        <ele>62.2</ele>
        <time>2021-04-28T13:01:36Z</time>
      </trkpt>
      <trkpt lat="49.8677" lon="2.31654">
        <ele>62.2</ele>
        <time>2021-04-28T13:01:37Z</time>
      </trkpt>
      <trkpt lat="49.86769" lon="2.31656">
        <ele>62.2</ele>
        <time>2021-04-28T13:01:38Z</time>
      </trkpt>
      <trkpt lat="49.86769" lon="2.31658">
        <ele>62.2</ele>
        <time>2021-04-28T13:01:40Z</time>
      </trkpt>
      <trkpt lat="49.86768" lon="2.3166">
        <ele>62.2</ele>
        <time>2021-04-28T13:01:41Z</time>
      </trkpt>
      <trkpt lat="49.86768" lon="2.3166">
        <ele>62.2</ele>
        <time>2021-04-28T13:01:42Z</time>
      </trkpt>
      <trkpt lat="49.86768" lon="2.31663">
        <ele>62.2</ele>
        <time>2021-04-28T13:01:43Z</time>
      </trkpt>
      <trkpt lat="49.86767" lon="2.31665">
        <ele>62.3</ele>
        <time>2021-04-28T13:01:44Z</time>
      </trkpt>
      <trkpt lat="49.86767" lon="2.31666">
        <ele>62.3</ele>
        <time>2021-04-28T13:01:45Z</time>
      </trkpt>
      <trkpt lat="49.86767" lon="2.31669">
        <ele>62.3</ele>
        <time>2021-04-28T13:01:47Z</time>
      </trkpt>
      <trkpt lat="49.86766" lon="2.3167">
        <ele>62.3</ele>
        <time>2021-04-28T13:01:48Z</time>
      </trkpt>
      <trkpt lat="49.86766" lon="2.31671">
        <ele>62.3</ele>
        <time>2021-04-28T13:01:49Z</time>
      </trkpt>
      <trkpt lat="49.86766" lon="2.31673">
        <ele>62.3</ele>
        <time>2021-04-28T13:01:50Z</time>
      </trkpt>
      <trkpt lat="49.86765" lon="2.31675">
        <ele>62.3</ele>
        <time>2021-04-28T13:01:51Z</time>
      </trkpt>
      <trkpt lat="49.86764" lon="2.31676">
        <ele>62.3</ele>
        <time>2021-04-28T13:01:52Z</time>
      </trkpt>
      <trkpt lat="49.86764" lon="2.31678">
        <ele>62.3</ele>
        <time>2021-04-28T13:01:53Z</time>
      </trkpt>
      <trkpt lat="49.86763" lon="2.31679">
        <ele>62.3</ele>
        <time>2021-04-28T13:01:54Z</time>
      </trkpt>
      <trkpt lat="49.86763" lon="2.31681">
        <ele>62.3</ele>
        <time>2021-04-28T13:01:56Z</time>
      </trkpt>
      <trkpt lat="49.86761" lon="2.31683">
        <ele>62.3</ele>
        <time>2021-04-28T13:01:57Z</time>
      </trkpt>
      <trkpt lat="49.86761" lon="2.31685">
        <ele>62.3</ele>
        <time>2021-04-28T13:01:58Z</time>
      </trkpt>
      <trkpt lat="49.86759" lon="2.31688">
        <ele>62.3</ele>
        <time>2021-04-28T13:01:59Z</time>
      </trkpt>
      <trkpt lat="49.86759" lon="2.31689">
        <ele>62.3</ele>
        <time>2021-04-28T13:02:01Z</time>
      </trkpt>
      <trkpt lat="49.86758" lon="2.3169">
        <ele>62.3</ele>
        <time>2021-04-28T13:02:02Z</time>
      </trkpt>
      <trkpt lat="49.86758" lon="2.3169">
        <ele>62.3</ele>
        <time>2021-04-28T13:02:03Z</time>
      </trkpt>
      <trkpt lat="49.86758" lon="2.3169">
        <ele>62.3</ele>
        <time>2021-04-28T13:02:04Z</time>
      </trkpt>
      <trkpt lat="49.86757" lon="2.31691">
        <ele>62.3</ele>
        <time>2021-04-28T13:02:05Z</time>
      </trkpt>
      <trkpt lat="49.86756" lon="2.31692">
        <ele>62.3</ele>
        <time>2021-04-28T13:02:06Z</time>
      </trkpt>
      <trkpt lat="49.86755" lon="2.31693">
        <ele>62.4</ele>
        <time>2021-04-28T13:02:07Z</time>
      </trkpt>
      <trkpt lat="49.86755" lon="2.31695">
        <ele>62.4</ele>
        <time>2021-04-28T13:02:08Z</time>
      </trkpt>
      <trkpt lat="49.86754" lon="2.31696">
        <ele>62.4</ele>
        <time>2021-04-28T13:02:10Z</time>
      </trkpt>
      <trkpt lat="49.86753" lon="2.31698">
        <ele>62.4</ele>
        <time>2021-04-28T13:02:11Z</time>
      </trkpt>
      <trkpt lat="49.86753" lon="2.31699">
        <ele>62.4</ele>
        <time>2021-04-28T13:02:12Z</time>
      </trkpt>
      <trkpt lat="49.86753" lon="2.317">
        <ele>62.4</ele>
        <time>2021-04-28T13:02:13Z</time>
      </trkpt>
      <trkpt lat="49.86752" lon="2.31702">
        <ele>62.4</ele>
        <time>2021-04-28T13:02:14Z</time>
      </trkpt>
      <trkpt lat="49.86751" lon="2.31704">
        <ele>62.4</ele>
        <time>2021-04-28T13:02:15Z</time>
      </trkpt>
      <trkpt lat="49.86751" lon="2.31705">
        <ele>62.4</ele>
        <time>2021-04-28T13:02:16Z</time>
      </trkpt>
      <trkpt lat="49.8675" lon="2.31707">
        <ele>62.4</ele>
        <time>2021-04-28T13:02:18Z</time>
      </trkpt>
      <trkpt lat="49.86749" lon="2.31709">
        <ele>62.4</ele>
        <time>2021-04-28T13:02:19Z</time>
      </trkpt>
      <trkpt lat="49.86749" lon="2.3171">
        <ele>62.4</ele>
        <time>2021-04-28T13:02:20Z</time>
      </trkpt>
      <trkpt lat="49.86748" lon="2.31712">
        <ele>62.4</ele>
        <time>2021-04-28T13:02:21Z</time>
      </trkpt>
      <trkpt lat="49.86748" lon="2.31714">
        <ele>62.4</ele>
        <time>2021-04-28T13:02:22Z</time>
      </trkpt>
      <trkpt lat="49.86747" lon="2.31716">
        <ele>62.4</ele>
        <time>2021-04-28T13:02:23Z</time>
      </trkpt>
      <trkpt lat="49.86746" lon="2.31718">
        <ele>62.4</ele>
        <time>2021-04-28T13:02:25Z</time>
      </trkpt>
      <trkpt lat="49.86745" lon="2.31719">
        <ele>62.4</ele>
        <time>2021-04-28T13:02:26Z</time>
      </trkpt>
      <trkpt lat="49.86745" lon="2.31721">
        <ele>62.4</ele>
        <time>2021-04-28T13:02:27Z</time>
      </trkpt>
      <trkpt lat="49.86744" lon="2.31722">
        <ele>62.4</ele>
        <time>2021-04-28T13:02:29Z</time>
      </trkpt>
      <trkpt lat="49.86743" lon="2.31724">
        <ele>62.4</ele>
        <time>2021-04-28T13:02:30Z</time>
      </trkpt>
      <trkpt lat="49.86743" lon="2.31725">
        <ele>62.4</ele>
        <time>2021-04-28T13:02:31Z</time>
      </trkpt>
      <trkpt lat="49.86742" lon="2.31727">
        <ele>62.4</ele>
        <time>2021-04-28T13:02:32Z</time>
      </trkpt>
      <trkpt lat="49.86742" lon="2.31728">
        <ele>62.4</ele>
        <time>2021-04-28T13:02:33Z</time>
      </trkpt>
      <trkpt lat="49.86741" lon="2.3173">
        <ele>62.5</ele>
        <time>2021-04-28T13:02:34Z</time>
      </trkpt>
      <trkpt lat="49.86741" lon="2.31731">
        <ele>62.5</ele>
        <time>2021-04-28T13:02:36Z</time>
      </trkpt>
      <trkpt lat="49.8674" lon="2.31733">
        <ele>62.5</ele>
        <time>2021-04-28T13:02:37Z</time>
      </trkpt>
      <trkpt lat="49.8674" lon="2.31734">
        <ele>62.5</ele>
        <time>2021-04-28T13:02:38Z</time>
      </trkpt>
      <trkpt lat="49.86739" lon="2.31736">
        <ele>62.5</ele>
        <time>2021-04-28T13:02:39Z</time>
      </trkpt>
      <trkpt lat="49.86739" lon="2.31737">
        <ele>62.5</ele>
        <time>2021-04-28T13:02:40Z</time>
      </trkpt>
      <trkpt lat="49.86738" lon="2.31739">
        <ele>62.5</ele>
        <time>2021-04-28T13:02:41Z</time>
      </trkpt>
      <trkpt lat="49.86738" lon="2.31742">
        <ele>62.5</ele>
        <time>2021-04-28T13:02:42Z</time>
      </trkpt>
      <trkpt lat="49.86737" lon="2.31743">
        <ele>62.5</ele>
        <time>2021-04-28T13:02:44Z</time>
      </trkpt>
      <trkpt lat="49.86737" lon="2.31744">
        <ele>62.5</ele>
        <time>2021-04-28T13:02:45Z</time>
      </trkpt>
      <trkpt lat="49.86737" lon="2.31746">
        <ele>62.5</ele>
        <time>2021-04-28T13:02:46Z</time>
      </trkpt>
      <trkpt lat="49.86736" lon="2.31749">
        <ele>62.5</ele>
        <time>2021-04-28T13:02:47Z</time>
      </trkpt>
      <trkpt lat="49.86736" lon="2.3175">
        <ele>62.5</ele>
        <time>2021-04-28T13:02:48Z</time>
      </trkpt>
      <trkpt lat="49.86736" lon="2.31751">
        <ele>62.5</ele>
        <time>2021-04-28T13:02:49Z</time>
      </trkpt>
      <trkpt lat="49.86735" lon="2.31752">
        <ele>62.6</ele>
        <time>2021-04-28T13:02:51Z</time>
      </trkpt>
      <trkpt lat="49.86735" lon="2.31753">
        <ele>62.6</ele>
        <time>2021-04-28T13:02:52Z</time>
      </trkpt>
      <trkpt lat="49.86735" lon="2.31755">
        <ele>62.6</ele>
        <time>2021-04-28T13:02:53Z</time>
      </trkpt>
      <trkpt lat="49.86735" lon="2.31757">
        <ele>62.6</ele>
        <time>2021-04-28T13:02:54Z</time>
      </trkpt>
      <trkpt lat="49.86734" lon="2.31758">
        <ele>62.6</ele>
        <time>2021-04-28T13:02:55Z</time>
      </trkpt>
      <trkpt lat="49.86734" lon="2.3176">
        <ele>62.6</ele>
        <time>2021-04-28T13:02:56Z</time>
      </trkpt>
      <trkpt lat="49.86734" lon="2.31761">
        <ele>62.6</ele>
        <time>2021-04-28T13:02:58Z</time>
      </trkpt>
      <trkpt lat="49.86733" lon="2.31763">
        <ele>62.6</ele>
        <time>2021-04-28T13:02:59Z</time>
      </trkpt>
      <trkpt lat="49.86733" lon="2.31764">
        <ele>62.6</ele>
        <time>2021-04-28T13:03:00Z</time>
      </trkpt>
      <trkpt lat="49.86732" lon="2.31766">
        <ele>62.6</ele>
        <time>2021-04-28T13:03:01Z</time>
      </trkpt>
      <trkpt lat="49.86731" lon="2.31767">
        <ele>62.6</ele>
        <time>2021-04-28T13:03:02Z</time>
      </trkpt>
      <trkpt lat="49.8673" lon="2.31769">
        <ele>62.6</ele>
        <time>2021-04-28T13:03:03Z</time>
      </trkpt>
      <trkpt lat="49.8673" lon="2.3177">
        <ele>62.7</ele>
        <time>2021-04-28T13:03:04Z</time>
      </trkpt>
      <trkpt lat="49.86729" lon="2.31772">
        <ele>62.7</ele>
        <time>2021-04-28T13:03:06Z</time>
      </trkpt>
      <trkpt lat="49.86729" lon="2.31775">
        <ele>62.7</ele>
        <time>2021-04-28T13:03:07Z</time>
      </trkpt>
      <trkpt lat="49.86729" lon="2.31777">
        <ele>62.7</ele>
        <time>2021-04-28T13:03:08Z</time>
      </trkpt>
      <trkpt lat="49.86729" lon="2.31778">
        <ele>62.7</ele>
        <time>2021-04-28T13:03:09Z</time>
      </trkpt>
      <trkpt lat="49.86728" lon="2.31779">
        <ele>62.7</ele>
        <time>2021-04-28T13:03:10Z</time>
      </trkpt>
      <trkpt lat="49.86728" lon="2.3178">
        <ele>62.7</ele>
        <time>2021-04-28T13:03:11Z</time>
      </trkpt>
      <trkpt lat="49.86727" lon="2.31782">
        <ele>62.7</ele>
        <time>2021-04-28T13:03:12Z</time>
      </trkpt>
      <trkpt lat="49.86726" lon="2.31783">
        <ele>62.7</ele>
        <time>2021-04-28T13:03:14Z</time>
      </trkpt>
      <trkpt lat="49.86726" lon="2.31784">
        <ele>62.8</ele>
        <time>2021-04-28T13:03:15Z</time>
      </trkpt>
      <trkpt lat="49.86725" lon="2.31786">
        <ele>62.7</ele>
        <time>2021-04-28T13:03:16Z</time>
      </trkpt>
      <trkpt lat="49.86724" lon="2.31788">
        <ele>62.7</ele>
        <time>2021-04-28T13:03:17Z</time>
      </trkpt>
      <trkpt lat="49.86724" lon="2.31789">
        <ele>62.7</ele>
        <time>2021-04-28T13:03:18Z</time>
      </trkpt>
      <trkpt lat="49.86723" lon="2.31791">
        <ele>62.7</ele>
        <time>2021-04-28T13:03:19Z</time>
      </trkpt>
      <trkpt lat="49.86722" lon="2.31793">
        <ele>62.7</ele>
        <time>2021-04-28T13:03:20Z</time>
      </trkpt>
      <trkpt lat="49.86721" lon="2.31794">
        <ele>62.8</ele>
        <time>2021-04-28T13:03:22Z</time>
      </trkpt>
      <trkpt lat="49.86721" lon="2.31795">
        <ele>62.8</ele>
        <time>2021-04-28T13:03:23Z</time>
      </trkpt>
      <trkpt lat="49.8672" lon="2.31797">
        <ele>62.8</ele>
        <time>2021-04-28T13:03:24Z</time>
      </trkpt>
      <trkpt lat="49.8672" lon="2.31798">
        <ele>62.8</ele>
        <time>2021-04-28T13:03:25Z</time>
      </trkpt>
      <trkpt lat="49.86719" lon="2.318">
        <ele>62.8</ele>
        <time>2021-04-28T13:03:26Z</time>
      </trkpt>
      <trkpt lat="49.86719" lon="2.31802">
        <ele>62.8</ele>
        <time>2021-04-28T13:03:27Z</time>
      </trkpt>
      <trkpt lat="49.86718" lon="2.31803">
        <ele>62.9</ele>
        <time>2021-04-28T13:03:28Z</time>
      </trkpt>
      <trkpt lat="49.86718" lon="2.31805">
        <ele>62.9</ele>
        <time>2021-04-28T13:03:30Z</time>
      </trkpt>
      <trkpt lat="49.86717" lon="2.31808">
        <ele>62.9</ele>
        <time>2021-04-28T13:03:31Z</time>
      </trkpt>
      <trkpt lat="49.86716" lon="2.31809">
        <ele>62.9</ele>
        <time>2021-04-28T13:03:32Z</time>
      </trkpt>
      <trkpt lat="49.86716" lon="2.3181">
        <ele>62.9</ele>
        <time>2021-04-28T13:03:33Z</time>
      </trkpt>
      <trkpt lat="49.86715" lon="2.31813">
        <ele>63</ele>
        <time>2021-04-28T13:03:34Z</time>
      </trkpt>
      <trkpt lat="49.86714" lon="2.31814">
        <ele>63</ele>
        <time>2021-04-28T13:03:35Z</time>
      </trkpt>
      <trkpt lat="49.86714" lon="2.31815">
        <ele>63</ele>
        <time>2021-04-28T13:03:36Z</time>
      </trkpt>
      <trkpt lat="49.86713" lon="2.31818">
        <ele>63</ele>
        <time>2021-04-28T13:03:38Z</time>
      </trkpt>
      <trkpt lat="49.86712" lon="2.31819">
        <ele>63</ele>
        <time>2021-04-28T13:03:39Z</time>
      </trkpt>
      <trkpt lat="49.86712" lon="2.3182">
        <ele>63</ele>
        <time>2021-04-28T13:03:40Z</time>
      </trkpt>
      <trkpt lat="49.86711" lon="2.31822">
        <ele>63.1</ele>
        <time>2021-04-28T13:03:41Z</time>
      </trkpt>
      <trkpt lat="49.86711" lon="2.31824">
        <ele>63.1</ele>
        <time>2021-04-28T13:03:42Z</time>
      </trkpt>
      <trkpt lat="49.8671" lon="2.31826">
        <ele>63.1</ele>
        <time>2021-04-28T13:03:43Z</time>
      </trkpt>
      <trkpt lat="49.8671" lon="2.31828">
        <ele>63.1</ele>
        <time>2021-04-28T13:03:44Z</time>
      </trkpt>
      <trkpt lat="49.86709" lon="2.3183">
        <ele>63.1</ele>
        <time>2021-04-28T13:03:46Z</time>
      </trkpt>
      <trkpt lat="49.86709" lon="2.31832">
        <ele>63.1</ele>
        <time>2021-04-28T13:03:47Z</time>
      </trkpt>
      <trkpt lat="49.86707" lon="2.31834">
        <ele>63.2</ele>
        <time>2021-04-28T13:03:48Z</time>
      </trkpt>
      <trkpt lat="49.86707" lon="2.31836">
        <ele>63.2</ele>
        <time>2021-04-28T13:03:49Z</time>
      </trkpt>
      <trkpt lat="49.86706" lon="2.31837">
        <ele>63.2</ele>
        <time>2021-04-28T13:03:50Z</time>
      </trkpt>
      <trkpt lat="49.86705" lon="2.31839">
        <ele>63.3</ele>
        <time>2021-04-28T13:03:52Z</time>
      </trkpt>
      <trkpt lat="49.86704" lon="2.31841">
        <ele>63.3</ele>
        <time>2021-04-28T13:03:53Z</time>
      </trkpt>
      <trkpt lat="49.86703" lon="2.31842">
        <ele>63.3</ele>
        <time>2021-04-28T13:03:54Z</time>
      </trkpt>
      <trkpt lat="49.86703" lon="2.31844">
        <ele>63.3</ele>
        <time>2021-04-28T13:03:55Z</time>
      </trkpt>
      <trkpt lat="49.86701" lon="2.31846">
        <ele>63.4</ele>
        <time>2021-04-28T13:03:56Z</time>
      </trkpt>
      <trkpt lat="49.86701" lon="2.31847">
        <ele>63.4</ele>
        <time>2021-04-28T13:03:58Z</time>
      </trkpt>
      <trkpt lat="49.86701" lon="2.31848">
        <ele>63.4</ele>
        <time>2021-04-28T13:03:59Z</time>
      </trkpt>
      <trkpt lat="49.867" lon="2.3185">
        <ele>63.4</ele>
        <time>2021-04-28T13:04:00Z</time>
      </trkpt>
      <trkpt lat="49.867" lon="2.31851">
        <ele>63.5</ele>
        <time>2021-04-28T13:04:01Z</time>
      </trkpt>
      <trkpt lat="49.86699" lon="2.31853">
        <ele>63.5</ele>
        <time>2021-04-28T13:04:02Z</time>
      </trkpt>
      <trkpt lat="49.86699" lon="2.31855">
        <ele>63.5</ele>
        <time>2021-04-28T13:04:03Z</time>
      </trkpt>
      <trkpt lat="49.86698" lon="2.31857">
        <ele>63.6</ele>
        <time>2021-04-28T13:04:05Z</time>
      </trkpt>
      <trkpt lat="49.86698" lon="2.31858">
        <ele>63.6</ele>
        <time>2021-04-28T13:04:06Z</time>
      </trkpt>
      <trkpt lat="49.86697" lon="2.3186">
        <ele>63.6</ele>
        <time>2021-04-28T13:04:07Z</time>
      </trkpt>
      <trkpt lat="49.86697" lon="2.31862">
        <ele>63.6</ele>
        <time>2021-04-28T13:04:08Z</time>
      </trkpt>
      <trkpt lat="49.86697" lon="2.31863">
        <ele>63.7</ele>
        <time>2021-04-28T13:04:09Z</time>
      </trkpt>
      <trkpt lat="49.86696" lon="2.31865">
        <ele>63.7</ele>
        <time>2021-04-28T13:04:10Z</time>
      </trkpt>
      <trkpt lat="49.86695" lon="2.31866">
        <ele>63.7</ele>
        <time>2021-04-28T13:04:12Z</time>
      </trkpt>
      <trkpt lat="49.86694" lon="2.31867">
        <ele>63.8</ele>
        <time>2021-04-28T13:04:13Z</time>
      </trkpt>
      <trkpt lat="49.86694" lon="2.31869">
        <ele>63.8</ele>
        <time>2021-04-28T13:04:14Z</time>
      </trkpt>
      <trkpt lat="49.86694" lon="2.3187">
        <ele>63.8</ele>
        <time>2021-04-28T13:04:15Z</time>
      </trkpt>
      <trkpt lat="49.86693" lon="2.31872">
        <ele>63.8</ele>
        <time>2021-04-28T13:04:16Z</time>
      </trkpt>
      <trkpt lat="49.86693" lon="2.31872">
        <ele>63.9</ele>
        <time>2021-04-28T13:04:18Z</time>
      </trkpt>
      <trkpt lat="49.86693" lon="2.31873">
        <ele>63.9</ele>
        <time>2021-04-28T13:04:19Z</time>
      </trkpt>
      <trkpt lat="49.86693" lon="2.31874">
        <ele>63.9</ele>
        <time>2021-04-28T13:04:20Z</time>
      </trkpt>
      <trkpt lat="49.86693" lon="2.31875">
        <ele>63.9</ele>
        <time>2021-04-28T13:04:21Z</time>
      </trkpt>
      <trkpt lat="49.86692" lon="2.31876">
        <ele>63.9</ele>
        <time>2021-04-28T13:04:23Z</time>
      </trkpt>
      <trkpt lat="49.86692" lon="2.31878">
        <ele>64</ele>
        <time>2021-04-28T13:04:24Z</time>
      </trkpt>
      <trkpt lat="49.86691" lon="2.31879">
        <ele>64</ele>
        <time>2021-04-28T13:04:25Z</time>
      </trkpt>
      <trkpt lat="49.86691" lon="2.3188">
        <ele>64</ele>
        <time>2021-04-28T13:04:26Z</time>
      </trkpt>
      <trkpt lat="49.8669" lon="2.31882">
        <ele>64</ele>
        <time>2021-04-28T13:04:27Z</time>
      </trkpt>
      <trkpt lat="49.8669" lon="2.31884">
        <ele>64.1</ele>
        <time>2021-04-28T13:04:28Z</time>
      </trkpt>
      <trkpt lat="49.8669" lon="2.31886">
        <ele>64.1</ele>
        <time>2021-04-28T13:04:30Z</time>
      </trkpt>
      <trkpt lat="49.8669" lon="2.31888">
        <ele>64.1</ele>
        <time>2021-04-28T13:04:31Z</time>
      </trkpt>
      <trkpt lat="49.86689" lon="2.3189">
        <ele>64.2</ele>
        <time>2021-04-28T13:04:32Z</time>
      </trkpt>
      <trkpt lat="49.86688" lon="2.31891">
        <ele>64.2</ele>
        <time>2021-04-28T13:04:33Z</time>
      </trkpt>
      <trkpt lat="49.86688" lon="2.31892">
        <ele>64.2</ele>
        <time>2021-04-28T13:04:34Z</time>
      </trkpt>
      <trkpt lat="49.86687" lon="2.31893">
        <ele>64.3</ele>
        <time>2021-04-28T13:04:35Z</time>
      </trkpt>
      <trkpt lat="49.86687" lon="2.31895">
        <ele>64.3</ele>
        <time>2021-04-28T13:04:36Z</time>
      </trkpt>
      <trkpt lat="49.86687" lon="2.31896">
        <ele>64.3</ele>
        <time>2021-04-28T13:04:38Z</time>
      </trkpt>
      <trkpt lat="49.86686" lon="2.31898">
        <ele>64.3</ele>
        <time>2021-04-28T13:04:39Z</time>
      </trkpt>
      <trkpt lat="49.86686" lon="2.31899">
        <ele>64.4</ele>
        <time>2021-04-28T13:04:40Z</time>
      </trkpt>
      <trkpt lat="49.86686" lon="2.31901">
        <ele>64.4</ele>
        <time>2021-04-28T13:04:41Z</time>
      </trkpt>
      <trkpt lat="49.86685" lon="2.31902">
        <ele>64.4</ele>
        <time>2021-04-28T13:04:42Z</time>
      </trkpt>
      <trkpt lat="49.86685" lon="2.31903">
        <ele>64.4</ele>
        <time>2021-04-28T13:04:44Z</time>
      </trkpt>
      <trkpt lat="49.86684" lon="2.31904">
        <ele>64.5</ele>
        <time>2021-04-28T13:04:45Z</time>
      </trkpt>
      <trkpt lat="49.86684" lon="2.31906">
        <ele>64.5</ele>
        <time>2021-04-28T13:04:46Z</time>
      </trkpt>
      <trkpt lat="49.86683" lon="2.31908">
        <ele>64.5</ele>
        <time>2021-04-28T13:04:47Z</time>
      </trkpt>
      <trkpt lat="49.86683" lon="2.3191">
        <ele>64.6</ele>
        <time>2021-04-28T13:04:49Z</time>
      </trkpt>
      <trkpt lat="49.86682" lon="2.31912">
        <ele>64.6</ele>
        <time>2021-04-28T13:04:50Z</time>
      </trkpt>
      <trkpt lat="49.86682" lon="2.31913">
        <ele>64.6</ele>
        <time>2021-04-28T13:04:51Z</time>
      </trkpt>
      <trkpt lat="49.86681" lon="2.31915">
        <ele>64.7</ele>
        <time>2021-04-28T13:04:52Z</time>
      </trkpt>
      <trkpt lat="49.86681" lon="2.31916">
        <ele>64.7</ele>
        <time>2021-04-28T13:04:53Z</time>
      </trkpt>
      <trkpt lat="49.8668" lon="2.31918">
        <ele>64.8</ele>
        <time>2021-04-28T13:04:55Z</time>
      </trkpt>
      <trkpt lat="49.8668" lon="2.3192">
        <ele>64.8</ele>
        <time>2021-04-28T13:04:56Z</time>
      </trkpt>
      <trkpt lat="49.86679" lon="2.31921">
        <ele>64.8</ele>
        <time>2021-04-28T13:04:57Z</time>
      </trkpt>
      <trkpt lat="49.86679" lon="2.31922">
        <ele>64.9</ele>
        <time>2021-04-28T13:04:58Z</time>
      </trkpt>
      <trkpt lat="49.86678" lon="2.31924">
        <ele>64.9</ele>
        <time>2021-04-28T13:04:59Z</time>
      </trkpt>
      <trkpt lat="49.86677" lon="2.31927">
        <ele>65</ele>
        <time>2021-04-28T13:05:00Z</time>
      </trkpt>
      <trkpt lat="49.86677" lon="2.31928">
        <ele>65</ele>
        <time>2021-04-28T13:05:02Z</time>
      </trkpt>
      <trkpt lat="49.86676" lon="2.31929">
        <ele>65</ele>
        <time>2021-04-28T13:05:03Z</time>
      </trkpt>
      <trkpt lat="49.86675" lon="2.31932">
        <ele>65.1</ele>
        <time>2021-04-28T13:05:04Z</time>
      </trkpt>
      <trkpt lat="49.86675" lon="2.31933">
        <ele>65.1</ele>
        <time>2021-04-28T13:05:05Z</time>
      </trkpt>
      <trkpt lat="49.86674" lon="2.31934">
        <ele>65.2</ele>
        <time>2021-04-28T13:05:06Z</time>
      </trkpt>
      <trkpt lat="49.86673" lon="2.31936">
        <ele>65.2</ele>
        <time>2021-04-28T13:05:08Z</time>
      </trkpt>
      <trkpt lat="49.86673" lon="2.31938">
        <ele>65.2</ele>
        <time>2021-04-28T13:05:09Z</time>
      </trkpt>
      <trkpt lat="49.86672" lon="2.31939">
        <ele>65.3</ele>
        <time>2021-04-28T13:05:10Z</time>
      </trkpt>
      <trkpt lat="49.86672" lon="2.3194">
        <ele>65.3</ele>
        <time>2021-04-28T13:05:12Z</time>
      </trkpt>
      <trkpt lat="49.86671" lon="2.31942">
        <ele>65.3</ele>
        <time>2021-04-28T13:05:13Z</time>
      </trkpt>
      <trkpt lat="49.8667" lon="2.31943">
        <ele>65.4</ele>
        <time>2021-04-28T13:05:14Z</time>
      </trkpt>
      <trkpt lat="49.8667" lon="2.31945">
        <ele>65.4</ele>
        <time>2021-04-28T13:05:15Z</time>
      </trkpt>
      <trkpt lat="49.86669" lon="2.31947">
        <ele>65.4</ele>
        <time>2021-04-28T13:05:16Z</time>
      </trkpt>
      <trkpt lat="49.86668" lon="2.31948">
        <ele>65.5</ele>
        <time>2021-04-28T13:05:17Z</time>
      </trkpt>
      <trkpt lat="49.86668" lon="2.3195">
        <ele>65.5</ele>
        <time>2021-04-28T13:05:19Z</time>
      </trkpt>
      <trkpt lat="49.86667" lon="2.31951">
        <ele>65.5</ele>
        <time>2021-04-28T13:05:20Z</time>
      </trkpt>
      <trkpt lat="49.86666" lon="2.31953">
        <ele>65.6</ele>
        <time>2021-04-28T13:05:21Z</time>
      </trkpt>
      <trkpt lat="49.86665" lon="2.31954">
        <ele>65.6</ele>
        <time>2021-04-28T13:05:22Z</time>
      </trkpt>
      <trkpt lat="49.86665" lon="2.31955">
        <ele>65.6</ele>
        <time>2021-04-28T13:05:23Z</time>
      </trkpt>
      <trkpt lat="49.86664" lon="2.31957">
        <ele>65.7</ele>
        <time>2021-04-28T13:05:24Z</time>
      </trkpt>
      <trkpt lat="49.86664" lon="2.31958">
        <ele>65.7</ele>
        <time>2021-04-28T13:05:26Z</time>
      </trkpt>
      <trkpt lat="49.86663" lon="2.31959">
        <ele>65.7</ele>
        <time>2021-04-28T13:05:27Z</time>
      </trkpt>
      <trkpt lat="49.86661" lon="2.31962">
        <ele>65.8</ele>
        <time>2021-04-28T13:05:28Z</time>
      </trkpt>
      <trkpt lat="49.86661" lon="2.31962">
        <ele>65.8</ele>
        <time>2021-04-28T13:05:29Z</time>
      </trkpt>
      <trkpt lat="49.8666" lon="2.31963">
        <ele>65.8</ele>
        <time>2021-04-28T13:05:30Z</time>
      </trkpt>
      <trkpt lat="49.86659" lon="2.31966">
        <ele>65.9</ele>
        <time>2021-04-28T13:05:31Z</time>
      </trkpt>
      <trkpt lat="49.86659" lon="2.31967">
        <ele>65.9</ele>
        <time>2021-04-28T13:05:33Z</time>
      </trkpt>
      <trkpt lat="49.86659" lon="2.31969">
        <ele>65.9</ele>
        <time>2021-04-28T13:05:34Z</time>
      </trkpt>
      <trkpt lat="49.86658" lon="2.3197">
        <ele>65.9</ele>
        <time>2021-04-28T13:05:35Z</time>
      </trkpt>
      <trkpt lat="49.86658" lon="2.31972">
        <ele>66</ele>
        <time>2021-04-28T13:05:36Z</time>
      </trkpt>
      <trkpt lat="49.86658" lon="2.31973">
        <ele>66</ele>
        <time>2021-04-28T13:05:37Z</time>
      </trkpt>
      <trkpt lat="49.86658" lon="2.31975">
        <ele>66</ele>
        <time>2021-04-28T13:05:38Z</time>
      </trkpt>
      <trkpt lat="49.86657" lon="2.31977">
        <ele>66.1</ele>
        <time>2021-04-28T13:05:40Z</time>
      </trkpt>
      <trkpt lat="49.86657" lon="2.31978">
        <ele>66.1</ele>
        <time>2021-04-28T13:05:41Z</time>
      </trkpt>
      <trkpt lat="49.86656" lon="2.3198">
        <ele>66.1</ele>
        <time>2021-04-28T13:05:42Z</time>
      </trkpt>
      <trkpt lat="49.86655" lon="2.31981">
        <ele>66.2</ele>
        <time>2021-04-28T13:05:43Z</time>
      </trkpt>
      <trkpt lat="49.86655" lon="2.31983">
        <ele>66.2</ele>
        <time>2021-04-28T13:05:44Z</time>
      </trkpt>
      <trkpt lat="49.86654" lon="2.31984">
        <ele>66.2</ele>
        <time>2021-04-28T13:05:46Z</time>
      </trkpt>
      <trkpt lat="49.86653" lon="2.31986">
        <ele>66.2</ele>
        <time>2021-04-28T13:05:47Z</time>
      </trkpt>
      <trkpt lat="49.86653" lon="2.31989">
        <ele>66.3</ele>
        <time>2021-04-28T13:05:49Z</time>
      </trkpt>
      <trkpt lat="49.86652" lon="2.3199">
        <ele>66.3</ele>
        <time>2021-04-28T13:05:50Z</time>
      </trkpt>
      <trkpt lat="49.86652" lon="2.31991">
        <ele>66.3</ele>
        <time>2021-04-28T13:05:51Z</time>
      </trkpt>
      <trkpt lat="49.86651" lon="2.31993">
        <ele>66.4</ele>
        <time>2021-04-28T13:05:53Z</time>
      </trkpt>
      <trkpt lat="49.8665" lon="2.31994">
        <ele>66.4</ele>
        <time>2021-04-28T13:05:54Z</time>
      </trkpt>
      <trkpt lat="49.86649" lon="2.31995">
        <ele>66.4</ele>
        <time>2021-04-28T13:05:55Z</time>
      </trkpt>
      <trkpt lat="49.86648" lon="2.31996">
        <ele>66.5</ele>
        <time>2021-04-28T13:05:56Z</time>
      </trkpt>
      <trkpt lat="49.86647" lon="2.31997">
        <ele>66.5</ele>
        <time>2021-04-28T13:05:57Z</time>
      </trkpt>
      <trkpt lat="49.86646" lon="2.31999">
        <ele>66.5</ele>
        <time>2021-04-28T13:05:59Z</time>
      </trkpt>
      <trkpt lat="49.86646" lon="2.32">
        <ele>66.6</ele>
        <time>2021-04-28T13:06:00Z</time>
      </trkpt>
      <trkpt lat="49.86645" lon="2.32001">
        <ele>66.6</ele>
        <time>2021-04-28T13:06:01Z</time>
      </trkpt>
      <trkpt lat="49.86645" lon="2.32003">
        <ele>66.6</ele>
        <time>2021-04-28T13:06:02Z</time>
      </trkpt>
      <trkpt lat="49.86645" lon="2.32005">
        <ele>66.7</ele>
        <time>2021-04-28T13:06:03Z</time>
      </trkpt>
      <trkpt lat="49.86645" lon="2.32007">
        <ele>66.7</ele>
        <time>2021-04-28T13:06:04Z</time>
      </trkpt>
      <trkpt lat="49.86646" lon="2.32008">
        <ele>66.7</ele>
        <time>2021-04-28T13:06:05Z</time>
      </trkpt>
      <trkpt lat="49.86646" lon="2.3201">
        <ele>66.7</ele>
        <time>2021-04-28T13:06:07Z</time>
      </trkpt>
      <trkpt lat="49.86646" lon="2.32011">
        <ele>66.7</ele>
        <time>2021-04-28T13:06:08Z</time>
      </trkpt>
      <trkpt lat="49.86647" lon="2.32012">
        <ele>66.8</ele>
        <time>2021-04-28T13:06:09Z</time>
      </trkpt>
      <trkpt lat="49.86647" lon="2.32013">
        <ele>66.8</ele>
        <time>2021-04-28T13:06:10Z</time>
      </trkpt>
      <trkpt lat="49.86649" lon="2.32012">
        <ele>66.8</ele>
        <time>2021-04-28T13:06:12Z</time>
      </trkpt>
      <trkpt lat="49.8665" lon="2.32011">
        <ele>66.9</ele>
        <time>2021-04-28T13:06:14Z</time>
      </trkpt>
      <trkpt lat="49.8665" lon="2.32011">
        <ele>66.9</ele>
        <time>2021-04-28T13:06:15Z</time>
      </trkpt>
      <trkpt lat="49.8665" lon="2.32009">
        <ele>66.9</ele>
        <time>2021-04-28T13:06:17Z</time>
      </trkpt>
      <trkpt lat="49.8665" lon="2.32009">
        <ele>66.9</ele>
        <time>2021-04-28T13:06:18Z</time>
      </trkpt>
      <trkpt lat="49.86651" lon="2.32009">
        <ele>66.9</ele>
        <time>2021-04-28T13:06:20Z</time>
      </trkpt>
      <trkpt lat="49.86651" lon="2.32008">
        <ele>66.9</ele>
        <time>2021-04-28T13:06:22Z</time>
      </trkpt>
      <trkpt lat="49.86651" lon="2.32008">
        <ele>66.9</ele>
        <time>2021-04-28T13:06:23Z</time>
      </trkpt>
      <trkpt lat="49.86651" lon="2.32008">
        <ele>66.9</ele>
        <time>2021-04-28T13:06:25Z</time>
      </trkpt>
      <trkpt lat="49.86651" lon="2.32008">
        <ele>66.9</ele>
        <time>2021-04-28T13:06:26Z</time>
      </trkpt>
      <trkpt lat="49.86651" lon="2.32008">
        <ele>66.9</ele>
        <time>2021-04-28T13:06:28Z</time>
      </trkpt>
      <trkpt lat="49.86651" lon="2.32008">
        <ele>66.9</ele>
        <time>2021-04-28T13:06:29Z</time>
      </trkpt>
      <trkpt lat="49.86651" lon="2.32008">
        <ele>66.9</ele>
        <time>2021-04-28T13:06:30Z</time>
      </trkpt>
      <trkpt lat="49.86651" lon="2.32008">
        <ele>66.9</ele>
        <time>2021-04-28T13:06:32Z</time>
      </trkpt>
      <trkpt lat="49.86651" lon="2.32008">
        <ele>66.9</ele>
        <time>2021-04-28T13:06:33Z</time>
      </trkpt>
      <trkpt lat="49.86651" lon="2.32008">
        <ele>66.9</ele>
        <time>2021-04-28T13:06:34Z</time>
      </trkpt>
      <trkpt lat="49.86651" lon="2.32008">
        <ele>66.9</ele>
        <time>2021-04-28T13:06:36Z</time>
      </trkpt>
      <trkpt lat="49.86651" lon="2.32008">
        <ele>66.9</ele>
        <time>2021-04-28T13:06:37Z</time>
      </trkpt>
      <trkpt lat="49.86651" lon="2.32008">
        <ele>66.9</ele>
        <time>2021-04-28T13:06:38Z</time>
      </trkpt>
      <trkpt lat="49.86651" lon="2.32008">
        <ele>66.9</ele>
        <time>2021-04-28T13:06:40Z</time>
      </trkpt>
      <trkpt lat="49.86651" lon="2.32008">
        <ele>66.9</ele>
        <time>2021-04-28T13:06:41Z</time>
      </trkpt>
      <trkpt lat="49.86651" lon="2.32008">
        <ele>66.9</ele>
        <time>2021-04-28T13:06:42Z</time>
      </trkpt>
      <trkpt lat="49.8665" lon="2.32007">
        <ele>66.9</ele>
        <time>2021-04-28T13:06:43Z</time>
      </trkpt>
      <trkpt lat="49.86651" lon="2.32007">
        <ele>67</ele>
        <time>2021-04-28T13:06:45Z</time>
      </trkpt>
      <trkpt lat="49.86651" lon="2.32007">
        <ele>67</ele>
        <time>2021-04-28T13:06:46Z</time>
      </trkpt>
      <trkpt lat="49.86652" lon="2.32008">
        <ele>67</ele>
        <time>2021-04-28T13:06:48Z</time>
      </trkpt>
      <trkpt lat="49.86652" lon="2.32008">
        <ele>67</ele>
        <time>2021-04-28T13:06:50Z</time>
      </trkpt>
      <trkpt lat="49.86652" lon="2.32008">
        <ele>67</ele>
        <time>2021-04-28T13:06:51Z</time>
      </trkpt>
      <trkpt lat="49.86652" lon="2.32008">
        <ele>67</ele>
        <time>2021-04-28T13:06:53Z</time>
      </trkpt>
      <trkpt lat="49.86651" lon="2.32008">
        <ele>67</ele>
        <time>2021-04-28T13:06:55Z</time>
      </trkpt>
      <trkpt lat="49.8665" lon="2.32009">
        <ele>67</ele>
        <time>2021-04-28T13:06:56Z</time>
      </trkpt>
      <trkpt lat="49.86648" lon="2.3201">
        <ele>67.1</ele>
        <time>2021-04-28T13:06:58Z</time>
      </trkpt>
      <trkpt lat="49.86648" lon="2.32011">
        <ele>67.1</ele>
        <time>2021-04-28T13:06:59Z</time>
      </trkpt>
      <trkpt lat="49.86648" lon="2.32011">
        <ele>67.1</ele>
        <time>2021-04-28T13:07:01Z</time>
      </trkpt>
      <trkpt lat="49.86647" lon="2.32012">
        <ele>67.1</ele>
        <time>2021-04-28T13:07:02Z</time>
      </trkpt>
      <trkpt lat="49.86645" lon="2.32013">
        <ele>67.2</ele>
        <time>2021-04-28T13:07:03Z</time>
      </trkpt>
      <trkpt lat="49.86643" lon="2.32017">
        <ele>67.2</ele>
        <time>2021-04-28T13:07:04Z</time>
      </trkpt>
      <trkpt lat="49.86643" lon="2.32018">
        <ele>67.3</ele>
        <time>2021-04-28T13:07:05Z</time>
      </trkpt>
      <trkpt lat="49.86642" lon="2.32021">
        <ele>67.3</ele>
        <time>2021-04-28T13:07:06Z</time>
      </trkpt>
      <trkpt lat="49.86642" lon="2.32023">
        <ele>67.3</ele>
        <time>2021-04-28T13:07:08Z</time>
      </trkpt>
      <trkpt lat="49.86641" lon="2.32025">
        <ele>67.4</ele>
        <time>2021-04-28T13:07:09Z</time>
      </trkpt>
      <trkpt lat="49.86641" lon="2.32028">
        <ele>67.4</ele>
        <time>2021-04-28T13:07:10Z</time>
      </trkpt>
      <trkpt lat="49.8664" lon="2.3203">
        <ele>67.4</ele>
        <time>2021-04-28T13:07:11Z</time>
      </trkpt>
      <trkpt lat="49.8664" lon="2.32033">
        <ele>67.4</ele>
        <time>2021-04-28T13:07:12Z</time>
      </trkpt>
      <trkpt lat="49.86639" lon="2.32035">
        <ele>67.5</ele>
        <time>2021-04-28T13:07:13Z</time>
      </trkpt>
      <trkpt lat="49.86638" lon="2.32037">
        <ele>67.5</ele>
        <time>2021-04-28T13:07:14Z</time>
      </trkpt>
      <trkpt lat="49.86637" lon="2.32038">
        <ele>67.5</ele>
        <time>2021-04-28T13:07:16Z</time>
      </trkpt>
      <trkpt lat="49.86637" lon="2.32041">
        <ele>67.5</ele>
        <time>2021-04-28T13:07:17Z</time>
      </trkpt>
      <trkpt lat="49.86636" lon="2.32043">
        <ele>67.6</ele>
        <time>2021-04-28T13:07:18Z</time>
      </trkpt>
      <trkpt lat="49.86635" lon="2.32045">
        <ele>67.6</ele>
        <time>2021-04-28T13:07:19Z</time>
      </trkpt>
      <trkpt lat="49.86634" lon="2.32048">
        <ele>67.6</ele>
        <time>2021-04-28T13:07:20Z</time>
      </trkpt>
      <trkpt lat="49.86634" lon="2.32049">
        <ele>67.6</ele>
        <time>2021-04-28T13:07:21Z</time>
      </trkpt>
      <trkpt lat="49.86633" lon="2.3205">
        <ele>67.7</ele>
        <time>2021-04-28T13:07:22Z</time>
      </trkpt>
      <trkpt lat="49.86632" lon="2.32053">
        <ele>67.7</ele>
        <time>2021-04-28T13:07:24Z</time>
      </trkpt>
      <trkpt lat="49.86632" lon="2.32054">
        <ele>67.7</ele>
        <time>2021-04-28T13:07:25Z</time>
      </trkpt>
      <trkpt lat="49.86631" lon="2.32055">
        <ele>67.7</ele>
        <time>2021-04-28T13:07:26Z</time>
      </trkpt>
      <trkpt lat="49.8663" lon="2.32056">
        <ele>67.7</ele>
        <time>2021-04-28T13:07:27Z</time>
      </trkpt>
      <trkpt lat="49.86629" lon="2.32058">
        <ele>67.8</ele>
        <time>2021-04-28T13:07:28Z</time>
      </trkpt>
      <trkpt lat="49.86628" lon="2.32061">
        <ele>67.8</ele>
        <time>2021-04-28T13:07:29Z</time>
      </trkpt>
      <trkpt lat="49.86628" lon="2.32062">
        <ele>67.8</ele>
        <time>2021-04-28T13:07:30Z</time>
      </trkpt>
      <trkpt lat="49.86627" lon="2.32063">
        <ele>67.8</ele>
        <time>2021-04-28T13:07:32Z</time>
      </trkpt>
      <trkpt lat="49.86626" lon="2.32065">
        <ele>67.8</ele>
        <time>2021-04-28T13:07:33Z</time>
      </trkpt>
      <trkpt lat="49.86626" lon="2.32066">
        <ele>67.9</ele>
        <time>2021-04-28T13:07:34Z</time>
      </trkpt>
      <trkpt lat="49.86625" lon="2.32067">
        <ele>67.9</ele>
        <time>2021-04-28T13:07:35Z</time>
      </trkpt>
      <trkpt lat="49.86625" lon="2.32069">
        <ele>67.9</ele>
        <time>2021-04-28T13:07:36Z</time>
      </trkpt>
      <trkpt lat="49.86624" lon="2.3207">
        <ele>67.9</ele>
        <time>2021-04-28T13:07:37Z</time>
      </trkpt>
      <trkpt lat="49.86623" lon="2.32071">
        <ele>67.9</ele>
        <time>2021-04-28T13:07:38Z</time>
      </trkpt>
      <trkpt lat="49.86622" lon="2.32071">
        <ele>67.9</ele>
        <time>2021-04-28T13:07:40Z</time>
      </trkpt>
      <trkpt lat="49.8662" lon="2.3207">
        <ele>68</ele>
        <time>2021-04-28T13:07:41Z</time>
      </trkpt>
      <trkpt lat="49.86619" lon="2.3207">
        <ele>68</ele>
        <time>2021-04-28T13:07:43Z</time>
      </trkpt>
      <trkpt lat="49.86619" lon="2.32071">
        <ele>68</ele>
        <time>2021-04-28T13:07:44Z</time>
      </trkpt>
      <trkpt lat="49.86618" lon="2.32072">
        <ele>68</ele>
        <time>2021-04-28T13:07:45Z</time>
      </trkpt>
      <trkpt lat="49.86618" lon="2.32074">
        <ele>68</ele>
        <time>2021-04-28T13:07:46Z</time>
      </trkpt>
      <trkpt lat="49.86618" lon="2.32076">
        <ele>68.1</ele>
        <time>2021-04-28T13:07:47Z</time>
      </trkpt>
      <trkpt lat="49.86618" lon="2.32079">
        <ele>68.1</ele>
        <time>2021-04-28T13:07:48Z</time>
      </trkpt>
      <trkpt lat="49.86618" lon="2.32081">
        <ele>68.1</ele>
        <time>2021-04-28T13:07:50Z</time>
      </trkpt>
      <trkpt lat="49.86617" lon="2.32083">
        <ele>68.1</ele>
        <time>2021-04-28T13:07:51Z</time>
      </trkpt>
      <trkpt lat="49.86617" lon="2.32083">
        <ele>68.1</ele>
        <time>2021-04-28T13:07:52Z</time>
      </trkpt>
      <trkpt lat="49.86616" lon="2.32082">
        <ele>68.2</ele>
        <time>2021-04-28T13:07:53Z</time>
      </trkpt>
      <trkpt lat="49.86615" lon="2.32082">
        <ele>68.2</ele>
        <time>2021-04-28T13:07:54Z</time>
      </trkpt>
      <trkpt lat="49.86615" lon="2.32083">
        <ele>68.2</ele>
        <time>2021-04-28T13:07:55Z</time>
      </trkpt>
      <trkpt lat="49.86614" lon="2.32084">
        <ele>68.2</ele>
        <time>2021-04-28T13:07:56Z</time>
      </trkpt>
      <trkpt lat="49.86614" lon="2.32086">
        <ele>68.2</ele>
        <time>2021-04-28T13:07:57Z</time>
      </trkpt>
      <trkpt lat="49.86613" lon="2.32088">
        <ele>68.2</ele>
        <time>2021-04-28T13:07:59Z</time>
      </trkpt>
      <trkpt lat="49.86613" lon="2.3209">
        <ele>68.3</ele>
        <time>2021-04-28T13:08:00Z</time>
      </trkpt>
      <trkpt lat="49.86612" lon="2.32091">
        <ele>68.3</ele>
        <time>2021-04-28T13:08:01Z</time>
      </trkpt>
      <trkpt lat="49.86612" lon="2.32094">
        <ele>68.3</ele>
        <time>2021-04-28T13:08:02Z</time>
      </trkpt>
      <trkpt lat="49.86611" lon="2.32097">
        <ele>68.3</ele>
        <time>2021-04-28T13:08:03Z</time>
      </trkpt>
      <trkpt lat="49.86611" lon="2.32098">
        <ele>68.3</ele>
        <time>2021-04-28T13:08:05Z</time>
      </trkpt>
      <trkpt lat="49.8661" lon="2.321">
        <ele>68.3</ele>
        <time>2021-04-28T13:08:06Z</time>
      </trkpt>
      <trkpt lat="49.8661" lon="2.32101">
        <ele>68.4</ele>
        <time>2021-04-28T13:08:07Z</time>
      </trkpt>
      <trkpt lat="49.86609" lon="2.32103">
        <ele>68.4</ele>
        <time>2021-04-28T13:08:08Z</time>
      </trkpt>
      <trkpt lat="49.86608" lon="2.32105">
        <ele>68.4</ele>
        <time>2021-04-28T13:08:09Z</time>
      </trkpt>
      <trkpt lat="49.86608" lon="2.32106">
        <ele>68.4</ele>
        <time>2021-04-28T13:08:10Z</time>
      </trkpt>
      <trkpt lat="49.86607" lon="2.32108">
        <ele>68.4</ele>
        <time>2021-04-28T13:08:12Z</time>
      </trkpt>
      <trkpt lat="49.86606" lon="2.32109">
        <ele>68.4</ele>
        <time>2021-04-28T13:08:13Z</time>
      </trkpt>
      <trkpt lat="49.86605" lon="2.3211">
        <ele>68.4</ele>
        <time>2021-04-28T13:08:14Z</time>
      </trkpt>
      <trkpt lat="49.86604" lon="2.32111">
        <ele>68.4</ele>
        <time>2021-04-28T13:08:15Z</time>
      </trkpt>
      <trkpt lat="49.86603" lon="2.32114">
        <ele>68.4</ele>
        <time>2021-04-28T13:08:16Z</time>
      </trkpt>
      <trkpt lat="49.86602" lon="2.32115">
        <ele>68.4</ele>
        <time>2021-04-28T13:08:18Z</time>
      </trkpt>
      <trkpt lat="49.86601" lon="2.32116">
        <ele>68.4</ele>
        <time>2021-04-28T13:08:19Z</time>
      </trkpt>
      <trkpt lat="49.866" lon="2.32117">
        <ele>68.4</ele>
        <time>2021-04-28T13:08:20Z</time>
      </trkpt>
      <trkpt lat="49.866" lon="2.32118">
        <ele>68.4</ele>
        <time>2021-04-28T13:08:21Z</time>
      </trkpt>
      <trkpt lat="49.86599" lon="2.3212">
        <ele>68.5</ele>
        <time>2021-04-28T13:08:23Z</time>
      </trkpt>
      <trkpt lat="49.86598" lon="2.32121">
        <ele>68.5</ele>
        <time>2021-04-28T13:08:24Z</time>
      </trkpt>
      <trkpt lat="49.86597" lon="2.32122">
        <ele>68.5</ele>
        <time>2021-04-28T13:08:25Z</time>
      </trkpt>
      <trkpt lat="49.86596" lon="2.32123">
        <ele>68.5</ele>
        <time>2021-04-28T13:08:26Z</time>
      </trkpt>
      <trkpt lat="49.86595" lon="2.32124">
        <ele>68.5</ele>
        <time>2021-04-28T13:08:27Z</time>
      </trkpt>
      <trkpt lat="49.86595" lon="2.32125">
        <ele>68.5</ele>
        <time>2021-04-28T13:08:28Z</time>
      </trkpt>
      <trkpt lat="49.86593" lon="2.32128">
        <ele>68.5</ele>
        <time>2021-04-28T13:08:30Z</time>
      </trkpt>
      <trkpt lat="49.86593" lon="2.32129">
        <ele>68.5</ele>
        <time>2021-04-28T13:08:31Z</time>
      </trkpt>
      <trkpt lat="49.86592" lon="2.3213">
        <ele>68.5</ele>
        <time>2021-04-28T13:08:32Z</time>
      </trkpt>
      <trkpt lat="49.86591" lon="2.32133">
        <ele>68.5</ele>
        <time>2021-04-28T13:08:33Z</time>
      </trkpt>
      <trkpt lat="49.86591" lon="2.32134">
        <ele>68.5</ele>
        <time>2021-04-28T13:08:34Z</time>
      </trkpt>
      <trkpt lat="49.8659" lon="2.32135">
        <ele>68.5</ele>
        <time>2021-04-28T13:08:35Z</time>
      </trkpt>
      <trkpt lat="49.86589" lon="2.32136">
        <ele>68.5</ele>
        <time>2021-04-28T13:08:36Z</time>
      </trkpt>
      <trkpt lat="49.86589" lon="2.32138">
        <ele>68.5</ele>
        <time>2021-04-28T13:08:38Z</time>
      </trkpt>
      <trkpt lat="49.86588" lon="2.32139">
        <ele>68.5</ele>
        <time>2021-04-28T13:08:39Z</time>
      </trkpt>
      <trkpt lat="49.86587" lon="2.32141">
        <ele>68.5</ele>
        <time>2021-04-28T13:08:40Z</time>
      </trkpt>
      <trkpt lat="49.86586" lon="2.32142">
        <ele>68.5</ele>
        <time>2021-04-28T13:08:41Z</time>
      </trkpt>
      <trkpt lat="49.86585" lon="2.32143">
        <ele>68.5</ele>
        <time>2021-04-28T13:08:42Z</time>
      </trkpt>
      <trkpt lat="49.86585" lon="2.32144">
        <ele>68.5</ele>
        <time>2021-04-28T13:08:43Z</time>
      </trkpt>
      <trkpt lat="49.86584" lon="2.32145">
        <ele>68.5</ele>
        <time>2021-04-28T13:08:44Z</time>
      </trkpt>
      <trkpt lat="49.86583" lon="2.32146">
        <ele>68.5</ele>
        <time>2021-04-28T13:08:46Z</time>
      </trkpt>
      <trkpt lat="49.86582" lon="2.32147">
        <ele>68.5</ele>
        <time>2021-04-28T13:08:47Z</time>
      </trkpt>
      <trkpt lat="49.86582" lon="2.32149">
        <ele>68.5</ele>
        <time>2021-04-28T13:08:48Z</time>
      </trkpt>
      <trkpt lat="49.86581" lon="2.3215">
        <ele>68.5</ele>
        <time>2021-04-28T13:08:49Z</time>
      </trkpt>
      <trkpt lat="49.8658" lon="2.32151">
        <ele>68.5</ele>
        <time>2021-04-28T13:08:50Z</time>
      </trkpt>
      <trkpt lat="49.86579" lon="2.32152">
        <ele>68.5</ele>
        <time>2021-04-28T13:08:51Z</time>
      </trkpt>
      <trkpt lat="49.86578" lon="2.32153">
        <ele>68.5</ele>
        <time>2021-04-28T13:08:53Z</time>
      </trkpt>
      <trkpt lat="49.86576" lon="2.32155">
        <ele>68.5</ele>
        <time>2021-04-28T13:08:54Z</time>
      </trkpt>
      <trkpt lat="49.86575" lon="2.32156">
        <ele>68.5</ele>
        <time>2021-04-28T13:08:55Z</time>
      </trkpt>
      <trkpt lat="49.86575" lon="2.32157">
        <ele>68.5</ele>
        <time>2021-04-28T13:08:56Z</time>
      </trkpt>
      <trkpt lat="49.86573" lon="2.32159">
        <ele>68.5</ele>
        <time>2021-04-28T13:08:57Z</time>
      </trkpt>
      <trkpt lat="49.86573" lon="2.3216">
        <ele>68.5</ele>
        <time>2021-04-28T13:08:58Z</time>
      </trkpt>
      <trkpt lat="49.86572" lon="2.32161">
        <ele>68.5</ele>
        <time>2021-04-28T13:08:59Z</time>
      </trkpt>
      <trkpt lat="49.86571" lon="2.32161">
        <ele>68.4</ele>
        <time>2021-04-28T13:09:01Z</time>
      </trkpt>
      <trkpt lat="49.8657" lon="2.32162">
        <ele>68.4</ele>
        <time>2021-04-28T13:09:02Z</time>
      </trkpt>
      <trkpt lat="49.86569" lon="2.32163">
        <ele>68.4</ele>
        <time>2021-04-28T13:09:03Z</time>
      </trkpt>
      <trkpt lat="49.86568" lon="2.32165">
        <ele>68.4</ele>
        <time>2021-04-28T13:09:04Z</time>
      </trkpt>
      <trkpt lat="49.86568" lon="2.32166">
        <ele>68.4</ele>
        <time>2021-04-28T13:09:05Z</time>
      </trkpt>
      <trkpt lat="49.86567" lon="2.32168">
        <ele>68.4</ele>
        <time>2021-04-28T13:09:06Z</time>
      </trkpt>
      <trkpt lat="49.86567" lon="2.32169">
        <ele>68.4</ele>
        <time>2021-04-28T13:09:08Z</time>
      </trkpt>
      <trkpt lat="49.86566" lon="2.32171">
        <ele>68.4</ele>
        <time>2021-04-28T13:09:09Z</time>
      </trkpt>
      <trkpt lat="49.86566" lon="2.32172">
        <ele>68.4</ele>
        <time>2021-04-28T13:09:10Z</time>
      </trkpt>
      <trkpt lat="49.86565" lon="2.32173">
        <ele>68.4</ele>
        <time>2021-04-28T13:09:11Z</time>
      </trkpt>
      <trkpt lat="49.86564" lon="2.32175">
        <ele>68.3</ele>
        <time>2021-04-28T13:09:12Z</time>
      </trkpt>
      <trkpt lat="49.86563" lon="2.32177">
        <ele>68.3</ele>
        <time>2021-04-28T13:09:14Z</time>
      </trkpt>
      <trkpt lat="49.86563" lon="2.32179">
        <ele>68.3</ele>
        <time>2021-04-28T13:09:15Z</time>
      </trkpt>
      <trkpt lat="49.86562" lon="2.3218">
        <ele>68.3</ele>
        <time>2021-04-28T13:09:16Z</time>
      </trkpt>
      <trkpt lat="49.86561" lon="2.32182">
        <ele>68.3</ele>
        <time>2021-04-28T13:09:18Z</time>
      </trkpt>
      <trkpt lat="49.86561" lon="2.32183">
        <ele>68.3</ele>
        <time>2021-04-28T13:09:19Z</time>
      </trkpt>
      <trkpt lat="49.8656" lon="2.32184">
        <ele>68.3</ele>
        <time>2021-04-28T13:09:20Z</time>
      </trkpt>
      <trkpt lat="49.86559" lon="2.32186">
        <ele>68.2</ele>
        <time>2021-04-28T13:09:21Z</time>
      </trkpt>
      <trkpt lat="49.86559" lon="2.32187">
        <ele>68.2</ele>
        <time>2021-04-28T13:09:22Z</time>
      </trkpt>
      <trkpt lat="49.86558" lon="2.32189">
        <ele>68.2</ele>
        <time>2021-04-28T13:09:23Z</time>
      </trkpt>
      <trkpt lat="49.86558" lon="2.3219">
        <ele>68.2</ele>
        <time>2021-04-28T13:09:25Z</time>
      </trkpt>
      <trkpt lat="49.86557" lon="2.32191">
        <ele>68.2</ele>
        <time>2021-04-28T13:09:26Z</time>
      </trkpt>
      <trkpt lat="49.86557" lon="2.32193">
        <ele>68.2</ele>
        <time>2021-04-28T13:09:27Z</time>
      </trkpt>
      <trkpt lat="49.86557" lon="2.32194">
        <ele>68.2</ele>
        <time>2021-04-28T13:09:28Z</time>
      </trkpt>
      <trkpt lat="49.86556" lon="2.32195">
        <ele>68.1</ele>
        <time>2021-04-28T13:09:29Z</time>
      </trkpt>
      <trkpt lat="49.86555" lon="2.32197">
        <ele>68.1</ele>
        <time>2021-04-28T13:09:31Z</time>
      </trkpt>
      <trkpt lat="49.86555" lon="2.32198">
        <ele>68.1</ele>
        <time>2021-04-28T13:09:32Z</time>
      </trkpt>
      <trkpt lat="49.86554" lon="2.32199">
        <ele>68.1</ele>
        <time>2021-04-28T13:09:33Z</time>
      </trkpt>
      <trkpt lat="49.86553" lon="2.32199">
        <ele>68.1</ele>
        <time>2021-04-28T13:09:34Z</time>
      </trkpt>
      <trkpt lat="49.86552" lon="2.322">
        <ele>68.1</ele>
        <time>2021-04-28T13:09:35Z</time>
      </trkpt>
      <trkpt lat="49.8655" lon="2.32202">
        <ele>68</ele>
        <time>2021-04-28T13:09:36Z</time>
      </trkpt>
      <trkpt lat="49.86549" lon="2.32203">
        <ele>68</ele>
        <time>2021-04-28T13:09:38Z</time>
      </trkpt>
      <trkpt lat="49.86548" lon="2.32203">
        <ele>68</ele>
        <time>2021-04-28T13:09:39Z</time>
      </trkpt>
      <trkpt lat="49.86547" lon="2.32204">
        <ele>68</ele>
        <time>2021-04-28T13:09:41Z</time>
      </trkpt>
      <trkpt lat="49.86546" lon="2.32205">
        <ele>68</ele>
        <time>2021-04-28T13:09:42Z</time>
      </trkpt>
      <trkpt lat="49.86545" lon="2.32206">
        <ele>67.9</ele>
        <time>2021-04-28T13:09:43Z</time>
      </trkpt>
      <trkpt lat="49.86544" lon="2.32206">
        <ele>67.9</ele>
        <time>2021-04-28T13:09:45Z</time>
      </trkpt>
      <trkpt lat="49.86543" lon="2.32207">
        <ele>67.9</ele>
        <time>2021-04-28T13:09:46Z</time>
      </trkpt>
      <trkpt lat="49.86542" lon="2.32208">
        <ele>67.9</ele>
        <time>2021-04-28T13:09:47Z</time>
      </trkpt>
      <trkpt lat="49.86541" lon="2.32208">
        <ele>67.9</ele>
        <time>2021-04-28T13:09:48Z</time>
      </trkpt>
      <trkpt lat="49.8654" lon="2.3221">
        <ele>67.8</ele>
        <time>2021-04-28T13:09:49Z</time>
      </trkpt>
      <trkpt lat="49.86539" lon="2.3221">
        <ele>67.8</ele>
        <time>2021-04-28T13:09:50Z</time>
      </trkpt>
      <trkpt lat="49.86538" lon="2.32212">
        <ele>67.8</ele>
        <time>2021-04-28T13:09:52Z</time>
      </trkpt>
      <trkpt lat="49.86537" lon="2.32213">
        <ele>67.8</ele>
        <time>2021-04-28T13:09:53Z</time>
      </trkpt>
      <trkpt lat="49.86537" lon="2.32213">
        <ele>67.8</ele>
        <time>2021-04-28T13:09:54Z</time>
      </trkpt>
      <trkpt lat="49.86536" lon="2.32215">
        <ele>67.7</ele>
        <time>2021-04-28T13:09:55Z</time>
      </trkpt>
      <trkpt lat="49.86535" lon="2.32216">
        <ele>67.7</ele>
        <time>2021-04-28T13:09:56Z</time>
      </trkpt>
      <trkpt lat="49.86534" lon="2.32217">
        <ele>67.7</ele>
        <time>2021-04-28T13:09:57Z</time>
      </trkpt>
      <trkpt lat="49.86532" lon="2.32219">
        <ele>67.7</ele>
        <time>2021-04-28T13:09:58Z</time>
      </trkpt>
      <trkpt lat="49.86531" lon="2.32219">
        <ele>67.6</ele>
        <time>2021-04-28T13:10:00Z</time>
      </trkpt>
      <trkpt lat="49.86531" lon="2.3222">
        <ele>67.6</ele>
        <time>2021-04-28T13:10:01Z</time>
      </trkpt>
      <trkpt lat="49.8653" lon="2.32221">
        <ele>67.6</ele>
        <time>2021-04-28T13:10:02Z</time>
      </trkpt>
      <trkpt lat="49.86529" lon="2.32222">
        <ele>67.6</ele>
        <time>2021-04-28T13:10:03Z</time>
      </trkpt>
      <trkpt lat="49.86528" lon="2.32223">
        <ele>67.5</ele>
        <time>2021-04-28T13:10:04Z</time>
      </trkpt>
      <trkpt lat="49.86527" lon="2.32224">
        <ele>67.5</ele>
        <time>2021-04-28T13:10:05Z</time>
      </trkpt>
      <trkpt lat="49.86526" lon="2.32225">
        <ele>67.5</ele>
        <time>2021-04-28T13:10:07Z</time>
      </trkpt>
      <trkpt lat="49.86526" lon="2.32227">
        <ele>67.5</ele>
        <time>2021-04-28T13:10:08Z</time>
      </trkpt>
      <trkpt lat="49.86525" lon="2.32228">
        <ele>67.4</ele>
        <time>2021-04-28T13:10:09Z</time>
      </trkpt>
      <trkpt lat="49.86524" lon="2.32229">
        <ele>67.4</ele>
        <time>2021-04-28T13:10:10Z</time>
      </trkpt>
      <trkpt lat="49.86524" lon="2.3223">
        <ele>67.4</ele>
        <time>2021-04-28T13:10:11Z</time>
      </trkpt>
      <trkpt lat="49.86523" lon="2.32231">
        <ele>67.4</ele>
        <time>2021-04-28T13:10:12Z</time>
      </trkpt>
      <trkpt lat="49.86522" lon="2.32232">
        <ele>67.3</ele>
        <time>2021-04-28T13:10:13Z</time>
      </trkpt>
      <trkpt lat="49.86521" lon="2.32234">
        <ele>67.3</ele>
        <time>2021-04-28T13:10:15Z</time>
      </trkpt>
      <trkpt lat="49.8652" lon="2.32235">
        <ele>67.3</ele>
        <time>2021-04-28T13:10:16Z</time>
      </trkpt>
      <trkpt lat="49.8652" lon="2.32236">
        <ele>67.2</ele>
        <time>2021-04-28T13:10:17Z</time>
      </trkpt>
      <trkpt lat="49.86519" lon="2.32237">
        <ele>67.2</ele>
        <time>2021-04-28T13:10:18Z</time>
      </trkpt>
      <trkpt lat="49.86518" lon="2.3224">
        <ele>67.2</ele>
        <time>2021-04-28T13:10:19Z</time>
      </trkpt>
      <trkpt lat="49.86518" lon="2.32241">
        <ele>67.1</ele>
        <time>2021-04-28T13:10:20Z</time>
      </trkpt>
      <trkpt lat="49.86517" lon="2.32242">
        <ele>67.1</ele>
        <time>2021-04-28T13:10:22Z</time>
      </trkpt>
      <trkpt lat="49.86516" lon="2.32243">
        <ele>67.1</ele>
        <time>2021-04-28T13:10:23Z</time>
      </trkpt>
      <trkpt lat="49.86516" lon="2.32245">
        <ele>67</ele>
        <time>2021-04-28T13:10:24Z</time>
      </trkpt>
      <trkpt lat="49.86515" lon="2.32246">
        <ele>67</ele>
        <time>2021-04-28T13:10:25Z</time>
      </trkpt>
      <trkpt lat="49.86514" lon="2.32249">
        <ele>67</ele>
        <time>2021-04-28T13:10:26Z</time>
      </trkpt>
      <trkpt lat="49.86513" lon="2.3225">
        <ele>66.9</ele>
        <time>2021-04-28T13:10:27Z</time>
      </trkpt>
      <trkpt lat="49.86513" lon="2.32251">
        <ele>66.9</ele>
        <time>2021-04-28T13:10:28Z</time>
      </trkpt>
      <trkpt lat="49.86512" lon="2.32253">
        <ele>66.9</ele>
        <time>2021-04-28T13:10:30Z</time>
      </trkpt>
      <trkpt lat="49.86511" lon="2.32254">
        <ele>66.8</ele>
        <time>2021-04-28T13:10:31Z</time>
      </trkpt>
      <trkpt lat="49.86511" lon="2.32256">
        <ele>66.8</ele>
        <time>2021-04-28T13:10:32Z</time>
      </trkpt>
      <trkpt lat="49.8651" lon="2.32257">
        <ele>66.8</ele>
        <time>2021-04-28T13:10:33Z</time>
      </trkpt>
      <trkpt lat="49.86509" lon="2.32259">
        <ele>66.7</ele>
        <time>2021-04-28T13:10:34Z</time>
      </trkpt>
      <trkpt lat="49.86509" lon="2.3226">
        <ele>66.7</ele>
        <time>2021-04-28T13:10:35Z</time>
      </trkpt>
      <trkpt lat="49.86508" lon="2.32261">
        <ele>66.7</ele>
        <time>2021-04-28T13:10:37Z</time>
      </trkpt>
      <trkpt lat="49.86507" lon="2.32263">
        <ele>66.6</ele>
        <time>2021-04-28T13:10:38Z</time>
      </trkpt>
      <trkpt lat="49.86507" lon="2.32264">
        <ele>66.6</ele>
        <time>2021-04-28T13:10:39Z</time>
      </trkpt>
      <trkpt lat="49.86506" lon="2.32266">
        <ele>66.5</ele>
        <time>2021-04-28T13:10:40Z</time>
      </trkpt>
      <trkpt lat="49.86505" lon="2.32266">
        <ele>66.5</ele>
        <time>2021-04-28T13:10:41Z</time>
      </trkpt>
      <trkpt lat="49.86504" lon="2.32268">
        <ele>66.5</ele>
        <time>2021-04-28T13:10:42Z</time>
      </trkpt>
      <trkpt lat="49.86503" lon="2.32269">
        <ele>66.4</ele>
        <time>2021-04-28T13:10:43Z</time>
      </trkpt>
      <trkpt lat="49.86502" lon="2.32271">
        <ele>66.4</ele>
        <time>2021-04-28T13:10:45Z</time>
      </trkpt>
      <trkpt lat="49.86501" lon="2.32272">
        <ele>66.4</ele>
        <time>2021-04-28T13:10:46Z</time>
      </trkpt>
      <trkpt lat="49.86501" lon="2.32273">
        <ele>66.3</ele>
        <time>2021-04-28T13:10:47Z</time>
      </trkpt>
      <trkpt lat="49.865" lon="2.32274">
        <ele>66.3</ele>
        <time>2021-04-28T13:10:48Z</time>
      </trkpt>
      <trkpt lat="49.86499" lon="2.32276">
        <ele>66.2</ele>
        <time>2021-04-28T13:10:49Z</time>
      </trkpt>
      <trkpt lat="49.86498" lon="2.32277">
        <ele>66.2</ele>
        <time>2021-04-28T13:10:50Z</time>
      </trkpt>
      <trkpt lat="49.86496" lon="2.32279">
        <ele>66.1</ele>
        <time>2021-04-28T13:10:51Z</time>
      </trkpt>
      <trkpt lat="49.86496" lon="2.3228">
        <ele>66.1</ele>
        <time>2021-04-28T13:10:53Z</time>
      </trkpt>
      <trkpt lat="49.86495" lon="2.32281">
        <ele>66.1</ele>
        <time>2021-04-28T13:10:54Z</time>
      </trkpt>
      <trkpt lat="49.86493" lon="2.32283">
        <ele>66</ele>
        <time>2021-04-28T13:10:55Z</time>
      </trkpt>
      <trkpt lat="49.86493" lon="2.32284">
        <ele>66</ele>
        <time>2021-04-28T13:10:56Z</time>
      </trkpt>
      <trkpt lat="49.86492" lon="2.32284">
        <ele>66</ele>
        <time>2021-04-28T13:10:57Z</time>
      </trkpt>
      <trkpt lat="49.86491" lon="2.32286">
        <ele>65.9</ele>
        <time>2021-04-28T13:10:58Z</time>
      </trkpt>
      <trkpt lat="49.8649" lon="2.32287">
        <ele>65.9</ele>
        <time>2021-04-28T13:11:00Z</time>
      </trkpt>
      <trkpt lat="49.86489" lon="2.32288">
        <ele>65.8</ele>
        <time>2021-04-28T13:11:01Z</time>
      </trkpt>
      <trkpt lat="49.86489" lon="2.3229">
        <ele>65.8</ele>
        <time>2021-04-28T13:11:02Z</time>
      </trkpt>
      <trkpt lat="49.86488" lon="2.32291">
        <ele>65.8</ele>
        <time>2021-04-28T13:11:03Z</time>
      </trkpt>
      <trkpt lat="49.86487" lon="2.32293">
        <ele>65.7</ele>
        <time>2021-04-28T13:11:04Z</time>
      </trkpt>
      <trkpt lat="49.86486" lon="2.32294">
        <ele>65.7</ele>
        <time>2021-04-28T13:11:05Z</time>
      </trkpt>
      <trkpt lat="49.86485" lon="2.32296">
        <ele>65.6</ele>
        <time>2021-04-28T13:11:06Z</time>
      </trkpt>
      <trkpt lat="49.86485" lon="2.32297">
        <ele>65.6</ele>
        <time>2021-04-28T13:11:08Z</time>
      </trkpt>
      <trkpt lat="49.86484" lon="2.32298">
        <ele>65.6</ele>
        <time>2021-04-28T13:11:09Z</time>
      </trkpt>
      <trkpt lat="49.86483" lon="2.32299">
        <ele>65.5</ele>
        <time>2021-04-28T13:11:10Z</time>
      </trkpt>
      <trkpt lat="49.86482" lon="2.323">
        <ele>65.5</ele>
        <time>2021-04-28T13:11:11Z</time>
      </trkpt>
      <trkpt lat="49.86482" lon="2.32301">
        <ele>65.5</ele>
        <time>2021-04-28T13:11:12Z</time>
      </trkpt>
      <trkpt lat="49.86481" lon="2.32302">
        <ele>65.4</ele>
        <time>2021-04-28T13:11:13Z</time>
      </trkpt>
      <trkpt lat="49.8648" lon="2.32304">
        <ele>65.4</ele>
        <time>2021-04-28T13:11:14Z</time>
      </trkpt>
      <trkpt lat="49.86479" lon="2.32305">
        <ele>65.4</ele>
        <time>2021-04-28T13:11:16Z</time>
      </trkpt>
      <trkpt lat="49.86478" lon="2.32306">
        <ele>65.3</ele>
        <time>2021-04-28T13:11:17Z</time>
      </trkpt>
      <trkpt lat="49.86478" lon="2.32306">
        <ele>65.3</ele>
        <time>2021-04-28T13:11:18Z</time>
      </trkpt>
      <trkpt lat="49.86477" lon="2.32307">
        <ele>65.3</ele>
        <time>2021-04-28T13:11:19Z</time>
      </trkpt>
      <trkpt lat="49.86476" lon="2.32308">
        <ele>65.2</ele>
        <time>2021-04-28T13:11:20Z</time>
      </trkpt>
      <trkpt lat="49.86475" lon="2.32309">
        <ele>65.2</ele>
        <time>2021-04-28T13:11:21Z</time>
      </trkpt>
      <trkpt lat="49.86474" lon="2.3231">
        <ele>65.1</ele>
        <time>2021-04-28T13:11:23Z</time>
      </trkpt>
      <trkpt lat="49.86473" lon="2.32311">
        <ele>65.1</ele>
        <time>2021-04-28T13:11:24Z</time>
      </trkpt>
      <trkpt lat="49.86472" lon="2.32312">
        <ele>65.1</ele>
        <time>2021-04-28T13:11:25Z</time>
      </trkpt>
      <trkpt lat="49.86471" lon="2.32313">
        <ele>65</ele>
        <time>2021-04-28T13:11:26Z</time>
      </trkpt>
      <trkpt lat="49.8647" lon="2.32315">
        <ele>65</ele>
        <time>2021-04-28T13:11:27Z</time>
      </trkpt>
      <trkpt lat="49.86469" lon="2.32316">
        <ele>64.9</ele>
        <time>2021-04-28T13:11:28Z</time>
      </trkpt>
      <trkpt lat="49.86468" lon="2.32317">
        <ele>64.9</ele>
        <time>2021-04-28T13:11:29Z</time>
      </trkpt>
      <trkpt lat="49.86467" lon="2.32318">
        <ele>64.9</ele>
        <time>2021-04-28T13:11:31Z</time>
      </trkpt>
      <trkpt lat="49.86467" lon="2.32319">
        <ele>64.9</ele>
        <time>2021-04-28T13:11:32Z</time>
      </trkpt>
      <trkpt lat="49.86466" lon="2.3232">
        <ele>64.8</ele>
        <time>2021-04-28T13:11:33Z</time>
      </trkpt>
      <trkpt lat="49.86466" lon="2.32321">
        <ele>64.8</ele>
        <time>2021-04-28T13:11:34Z</time>
      </trkpt>
      <trkpt lat="49.86465" lon="2.32323">
        <ele>64.8</ele>
        <time>2021-04-28T13:11:35Z</time>
      </trkpt>
      <trkpt lat="49.86464" lon="2.32324">
        <ele>64.7</ele>
        <time>2021-04-28T13:11:36Z</time>
      </trkpt>
      <trkpt lat="49.86463" lon="2.32325">
        <ele>64.7</ele>
        <time>2021-04-28T13:11:38Z</time>
      </trkpt>
      <trkpt lat="49.86463" lon="2.32326">
        <ele>64.6</ele>
        <time>2021-04-28T13:11:39Z</time>
      </trkpt>
      <trkpt lat="49.86462" lon="2.32327">
        <ele>64.6</ele>
        <time>2021-04-28T13:11:40Z</time>
      </trkpt>
      <trkpt lat="49.86461" lon="2.32328">
        <ele>64.6</ele>
        <time>2021-04-28T13:11:41Z</time>
      </trkpt>
      <trkpt lat="49.86461" lon="2.32329">
        <ele>64.5</ele>
        <time>2021-04-28T13:11:42Z</time>
      </trkpt>
      <trkpt lat="49.8646" lon="2.32331">
        <ele>64.5</ele>
        <time>2021-04-28T13:11:43Z</time>
      </trkpt>
      <trkpt lat="49.86458" lon="2.32333">
        <ele>64.4</ele>
        <time>2021-04-28T13:11:45Z</time>
      </trkpt>
      <trkpt lat="49.86458" lon="2.32333">
        <ele>64.4</ele>
        <time>2021-04-28T13:11:46Z</time>
      </trkpt>
      <trkpt lat="49.86457" lon="2.32333">
        <ele>64.4</ele>
        <time>2021-04-28T13:11:47Z</time>
      </trkpt>
      <trkpt lat="49.86456" lon="2.32334">
        <ele>64.3</ele>
        <time>2021-04-28T13:11:48Z</time>
      </trkpt>
      <trkpt lat="49.86454" lon="2.32336">
        <ele>64.3</ele>
        <time>2021-04-28T13:11:50Z</time>
      </trkpt>
      <trkpt lat="49.86454" lon="2.32337">
        <ele>64.2</ele>
        <time>2021-04-28T13:11:51Z</time>
      </trkpt>
      <trkpt lat="49.86453" lon="2.32338">
        <ele>64.2</ele>
        <time>2021-04-28T13:11:52Z</time>
      </trkpt>
      <trkpt lat="49.86452" lon="2.32339">
        <ele>64.2</ele>
        <time>2021-04-28T13:11:53Z</time>
      </trkpt>
      <trkpt lat="49.86451" lon="2.3234">
        <ele>64.1</ele>
        <time>2021-04-28T13:11:54Z</time>
      </trkpt>
      <trkpt lat="49.86451" lon="2.32341">
        <ele>64.1</ele>
        <time>2021-04-28T13:11:56Z</time>
      </trkpt>
      <trkpt lat="49.8645" lon="2.32342">
        <ele>64</ele>
        <time>2021-04-28T13:11:57Z</time>
      </trkpt>
      <trkpt lat="49.86449" lon="2.32344">
        <ele>64</ele>
        <time>2021-04-28T13:11:58Z</time>
      </trkpt>
      <trkpt lat="49.86448" lon="2.32345">
        <ele>63.9</ele>
        <time>2021-04-28T13:11:59Z</time>
      </trkpt>
      <trkpt lat="49.86447" lon="2.32347">
        <ele>63.9</ele>
        <time>2021-04-28T13:12:00Z</time>
      </trkpt>
      <trkpt lat="49.86447" lon="2.32348">
        <ele>63.8</ele>
        <time>2021-04-28T13:12:01Z</time>
      </trkpt>
      <trkpt lat="49.86446" lon="2.32349">
        <ele>63.8</ele>
        <time>2021-04-28T13:12:02Z</time>
      </trkpt>
      <trkpt lat="49.86445" lon="2.3235">
        <ele>63.7</ele>
        <time>2021-04-28T13:12:04Z</time>
      </trkpt>
      <trkpt lat="49.86444" lon="2.32352">
        <ele>63.6</ele>
        <time>2021-04-28T13:12:05Z</time>
      </trkpt>
      <trkpt lat="49.86444" lon="2.32352">
        <ele>63.6</ele>
        <time>2021-04-28T13:12:06Z</time>
      </trkpt>
      <trkpt lat="49.86443" lon="2.32353">
        <ele>63.6</ele>
        <time>2021-04-28T13:12:07Z</time>
      </trkpt>
      <trkpt lat="49.86442" lon="2.32355">
        <ele>63.5</ele>
        <time>2021-04-28T13:12:08Z</time>
      </trkpt>
      <trkpt lat="49.86441" lon="2.32356">
        <ele>63.4</ele>
        <time>2021-04-28T13:12:09Z</time>
      </trkpt>
      <trkpt lat="49.8644" lon="2.32358">
        <ele>63.4</ele>
        <time>2021-04-28T13:12:10Z</time>
      </trkpt>
      <trkpt lat="49.86439" lon="2.32359">
        <ele>63.3</ele>
        <time>2021-04-28T13:12:12Z</time>
      </trkpt>
      <trkpt lat="49.86438" lon="2.3236">
        <ele>63.3</ele>
        <time>2021-04-28T13:12:13Z</time>
      </trkpt>
      <trkpt lat="49.86438" lon="2.32361">
        <ele>63.2</ele>
        <time>2021-04-28T13:12:14Z</time>
      </trkpt>
      <trkpt lat="49.86437" lon="2.32362">
        <ele>63.2</ele>
        <time>2021-04-28T13:12:15Z</time>
      </trkpt>
      <trkpt lat="49.86436" lon="2.32363">
        <ele>63.1</ele>
        <time>2021-04-28T13:12:16Z</time>
      </trkpt>
      <trkpt lat="49.86436" lon="2.32364">
        <ele>63.1</ele>
        <time>2021-04-28T13:12:17Z</time>
      </trkpt>
      <trkpt lat="49.86435" lon="2.32365">
        <ele>63</ele>
        <time>2021-04-28T13:12:18Z</time>
      </trkpt>
      <trkpt lat="49.86434" lon="2.32367">
        <ele>63</ele>
        <time>2021-04-28T13:12:20Z</time>
      </trkpt>
      <trkpt lat="49.86433" lon="2.32368">
        <ele>62.9</ele>
        <time>2021-04-28T13:12:21Z</time>
      </trkpt>
      <trkpt lat="49.86433" lon="2.32369">
        <ele>62.9</ele>
        <time>2021-04-28T13:12:22Z</time>
      </trkpt>
      <trkpt lat="49.86432" lon="2.3237">
        <ele>62.8</ele>
        <time>2021-04-28T13:12:23Z</time>
      </trkpt>
      <trkpt lat="49.86431" lon="2.32371">
        <ele>62.8</ele>
        <time>2021-04-28T13:12:24Z</time>
      </trkpt>
      <trkpt lat="49.8643" lon="2.32373">
        <ele>62.7</ele>
        <time>2021-04-28T13:12:25Z</time>
      </trkpt>
      <trkpt lat="49.8643" lon="2.32374">
        <ele>62.7</ele>
        <time>2021-04-28T13:12:26Z</time>
      </trkpt>
      <trkpt lat="49.86429" lon="2.32375">
        <ele>62.6</ele>
        <time>2021-04-28T13:12:28Z</time>
      </trkpt>
      <trkpt lat="49.86428" lon="2.32376">
        <ele>62.5</ele>
        <time>2021-04-28T13:12:29Z</time>
      </trkpt>
      <trkpt lat="49.86426" lon="2.32378">
        <ele>62.5</ele>
        <time>2021-04-28T13:12:30Z</time>
      </trkpt>
      <trkpt lat="49.86426" lon="2.32379">
        <ele>62.4</ele>
        <time>2021-04-28T13:12:31Z</time>
      </trkpt>
      <trkpt lat="49.86425" lon="2.3238">
        <ele>62.4</ele>
        <time>2021-04-28T13:12:32Z</time>
      </trkpt>
      <trkpt lat="49.86424" lon="2.32381">
        <ele>62.3</ele>
        <time>2021-04-28T13:12:33Z</time>
      </trkpt>
      <trkpt lat="49.86424" lon="2.32382">
        <ele>62.3</ele>
        <time>2021-04-28T13:12:35Z</time>
      </trkpt>
      <trkpt lat="49.86423" lon="2.32384">
        <ele>62.2</ele>
        <time>2021-04-28T13:12:36Z</time>
      </trkpt>
      <trkpt lat="49.86422" lon="2.32385">
        <ele>62.2</ele>
        <time>2021-04-28T13:12:37Z</time>
      </trkpt>
      <trkpt lat="49.86421" lon="2.32386">
        <ele>62.1</ele>
        <time>2021-04-28T13:12:38Z</time>
      </trkpt>
      <trkpt lat="49.8642" lon="2.32387">
        <ele>62.1</ele>
        <time>2021-04-28T13:12:39Z</time>
      </trkpt>
      <trkpt lat="49.86419" lon="2.32388">
        <ele>62</ele>
        <time>2021-04-28T13:12:40Z</time>
      </trkpt>
      <trkpt lat="49.86419" lon="2.32389">
        <ele>62</ele>
        <time>2021-04-28T13:12:42Z</time>
      </trkpt>
      <trkpt lat="49.86418" lon="2.3239">
        <ele>62</ele>
        <time>2021-04-28T13:12:43Z</time>
      </trkpt>
      <trkpt lat="49.86418" lon="2.32392">
        <ele>61.9</ele>
        <time>2021-04-28T13:12:44Z</time>
      </trkpt>
      <trkpt lat="49.86417" lon="2.32394">
        <ele>61.8</ele>
        <time>2021-04-28T13:12:46Z</time>
      </trkpt>
      <trkpt lat="49.86416" lon="2.32395">
        <ele>61.8</ele>
        <time>2021-04-28T13:12:47Z</time>
      </trkpt>
      <trkpt lat="49.86415" lon="2.32397">
        <ele>61.7</ele>
        <time>2021-04-28T13:12:48Z</time>
      </trkpt>
      <trkpt lat="49.86414" lon="2.32397">
        <ele>61.7</ele>
        <time>2021-04-28T13:12:49Z</time>
      </trkpt>
      <trkpt lat="49.86414" lon="2.32399">
        <ele>61.6</ele>
        <time>2021-04-28T13:12:50Z</time>
      </trkpt>
      <trkpt lat="49.86413" lon="2.324">
        <ele>61.6</ele>
        <time>2021-04-28T13:12:51Z</time>
      </trkpt>
      <trkpt lat="49.86412" lon="2.32401">
        <ele>61.5</ele>
        <time>2021-04-28T13:12:52Z</time>
      </trkpt>
      <trkpt lat="49.86411" lon="2.32402">
        <ele>61.5</ele>
        <time>2021-04-28T13:12:54Z</time>
      </trkpt>
      <trkpt lat="49.8641" lon="2.32404">
        <ele>61.4</ele>
        <time>2021-04-28T13:12:55Z</time>
      </trkpt>
      <trkpt lat="49.86409" lon="2.32406">
        <ele>61.4</ele>
        <time>2021-04-28T13:12:57Z</time>
      </trkpt>
      <trkpt lat="49.86409" lon="2.32407">
        <ele>61.3</ele>
        <time>2021-04-28T13:12:58Z</time>
      </trkpt>
      <trkpt lat="49.86408" lon="2.32408">
        <ele>61.3</ele>
        <time>2021-04-28T13:12:59Z</time>
      </trkpt>
      <trkpt lat="49.86407" lon="2.3241">
        <ele>61.2</ele>
        <time>2021-04-28T13:13:01Z</time>
      </trkpt>
      <trkpt lat="49.86406" lon="2.32411">
        <ele>61.2</ele>
        <time>2021-04-28T13:13:02Z</time>
      </trkpt>
      <trkpt lat="49.86405" lon="2.32412">
        <ele>61.1</ele>
        <time>2021-04-28T13:13:04Z</time>
      </trkpt>
      <trkpt lat="49.86404" lon="2.32414">
        <ele>61.1</ele>
        <time>2021-04-28T13:13:05Z</time>
      </trkpt>
      <trkpt lat="49.86404" lon="2.32415">
        <ele>61</ele>
        <time>2021-04-28T13:13:06Z</time>
      </trkpt>
      <trkpt lat="49.86403" lon="2.32417">
        <ele>61</ele>
        <time>2021-04-28T13:13:07Z</time>
      </trkpt>
      <trkpt lat="49.86402" lon="2.32419">
        <ele>60.9</ele>
        <time>2021-04-28T13:13:09Z</time>
      </trkpt>
      <trkpt lat="49.86402" lon="2.32421">
        <ele>60.9</ele>
        <time>2021-04-28T13:13:10Z</time>
      </trkpt>
      <trkpt lat="49.86401" lon="2.32423">
        <ele>60.8</ele>
        <time>2021-04-28T13:13:12Z</time>
      </trkpt>
      <trkpt lat="49.86401" lon="2.32424">
        <ele>60.8</ele>
        <time>2021-04-28T13:13:13Z</time>
      </trkpt>
      <trkpt lat="49.86401" lon="2.32426">
        <ele>60.8</ele>
        <time>2021-04-28T13:13:14Z</time>
      </trkpt>
      <trkpt lat="49.86401" lon="2.32428">
        <ele>60.7</ele>
        <time>2021-04-28T13:13:15Z</time>
      </trkpt>
      <trkpt lat="49.864" lon="2.32429">
        <ele>60.7</ele>
        <time>2021-04-28T13:13:17Z</time>
      </trkpt>
      <trkpt lat="49.86399" lon="2.3243">
        <ele>60.6</ele>
        <time>2021-04-28T13:13:18Z</time>
      </trkpt>
      <trkpt lat="49.86398" lon="2.32431">
        <ele>60.6</ele>
        <time>2021-04-28T13:13:20Z</time>
      </trkpt>
      <trkpt lat="49.86397" lon="2.3243">
        <ele>60.5</ele>
        <time>2021-04-28T13:13:22Z</time>
      </trkpt>
      <trkpt lat="49.86397" lon="2.32429">
        <ele>60.5</ele>
        <time>2021-04-28T13:13:24Z</time>
      </trkpt>
      <trkpt lat="49.86397" lon="2.32429">
        <ele>60.5</ele>
        <time>2021-04-28T13:13:26Z</time>
      </trkpt>
      <trkpt lat="49.86397" lon="2.32429">
        <ele>60.5</ele>
        <time>2021-04-28T13:13:27Z</time>
      </trkpt>
      <trkpt lat="49.86397" lon="2.32429">
        <ele>60.5</ele>
        <time>2021-04-28T13:13:29Z</time>
      </trkpt>
      <trkpt lat="49.86397" lon="2.32428">
        <ele>60.5</ele>
        <time>2021-04-28T13:13:31Z</time>
      </trkpt>
      <trkpt lat="49.86397" lon="2.32428">
        <ele>60.5</ele>
        <time>2021-04-28T13:13:32Z</time>
      </trkpt>
      <trkpt lat="49.86397" lon="2.32428">
        <ele>60.5</ele>
        <time>2021-04-28T13:13:34Z</time>
      </trkpt>
      <trkpt lat="49.86397" lon="2.32428">
        <ele>60.5</ele>
        <time>2021-04-28T13:13:36Z</time>
      </trkpt>
      <trkpt lat="49.86397" lon="2.32429">
        <ele>60.5</ele>
        <time>2021-04-28T13:13:38Z</time>
      </trkpt>
      <trkpt lat="49.86398" lon="2.32429">
        <ele>60.5</ele>
        <time>2021-04-28T13:13:39Z</time>
      </trkpt>
      <trkpt lat="49.86398" lon="2.32429">
        <ele>60.5</ele>
        <time>2021-04-28T13:13:40Z</time>
      </trkpt>
      <trkpt lat="49.86398" lon="2.32429">
        <ele>60.5</ele>
        <time>2021-04-28T13:13:42Z</time>
      </trkpt>
      <trkpt lat="49.86398" lon="2.32429">
        <ele>60.5</ele>
        <time>2021-04-28T13:13:43Z</time>
      </trkpt>
      <trkpt lat="49.86398" lon="2.32429">
        <ele>60.5</ele>
        <time>2021-04-28T13:13:45Z</time>
      </trkpt>
      <trkpt lat="49.86398" lon="2.32429">
        <ele>60.5</ele>
        <time>2021-04-28T13:13:47Z</time>
      </trkpt>
      <trkpt lat="49.86398" lon="2.32429">
        <ele>60.5</ele>
        <time>2021-04-28T13:13:48Z</time>
      </trkpt>
      <trkpt lat="49.86398" lon="2.32429">
        <ele>60.5</ele>
        <time>2021-04-28T13:13:50Z</time>
      </trkpt>
      <trkpt lat="49.86398" lon="2.32429">
        <ele>60.5</ele>
        <time>2021-04-28T13:13:51Z</time>
      </trkpt>
      <trkpt lat="49.86398" lon="2.32429">
        <ele>60.5</ele>
        <time>2021-04-28T13:13:52Z</time>
      </trkpt>
      <trkpt lat="49.86398" lon="2.32429">
        <ele>60.5</ele>
        <time>2021-04-28T13:13:54Z</time>
      </trkpt>
      <trkpt lat="49.86398" lon="2.32429">
        <ele>60.5</ele>
        <time>2021-04-28T13:13:55Z</time>
      </trkpt>
      <trkpt lat="49.86398" lon="2.32429">
        <ele>60.5</ele>
        <time>2021-04-28T13:13:56Z</time>
      </trkpt>
      <trkpt lat="49.86398" lon="2.32429">
        <ele>60.5</ele>
        <time>2021-04-28T13:13:58Z</time>
      </trkpt>
      <trkpt lat="49.86398" lon="2.32429">
        <ele>60.5</ele>
        <time>2021-04-28T13:14:00Z</time>
      </trkpt>
      <trkpt lat="49.86398" lon="2.32429">
        <ele>60.5</ele>
        <time>2021-04-28T13:14:02Z</time>
      </trkpt>
      <trkpt lat="49.86398" lon="2.32429">
        <ele>60.5</ele>
        <time>2021-04-28T13:14:04Z</time>
      </trkpt>
      <trkpt lat="49.86398" lon="2.32429">
        <ele>60.5</ele>
        <time>2021-04-28T13:14:06Z</time>
      </trkpt>
      <trkpt lat="49.86398" lon="2.32429">
        <ele>60.5</ele>
        <time>2021-04-28T13:14:07Z</time>
      </trkpt>
      <trkpt lat="49.86398" lon="2.32429">
        <ele>60.5</ele>
        <time>2021-04-28T13:14:09Z</time>
      </trkpt>
      <trkpt lat="49.86398" lon="2.32429">
        <ele>60.5</ele>
        <time>2021-04-28T13:14:10Z</time>
      </trkpt>
      <trkpt lat="49.86398" lon="2.32429">
        <ele>60.5</ele>
        <time>2021-04-28T13:14:12Z</time>
      </trkpt>
      <trkpt lat="49.86398" lon="2.32429">
        <ele>60.5</ele>
        <time>2021-04-28T13:14:13Z</time>
      </trkpt>
      <trkpt lat="49.86398" lon="2.32429">
        <ele>60.5</ele>
        <time>2021-04-28T13:14:15Z</time>
      </trkpt>
      <trkpt lat="49.86398" lon="2.32429">
        <ele>60.5</ele>
        <time>2021-04-28T13:14:16Z</time>
      </trkpt>
      <trkpt lat="49.86398" lon="2.32429">
        <ele>60.5</ele>
        <time>2021-04-28T13:14:17Z</time>
      </trkpt>
      <trkpt lat="49.86398" lon="2.32429">
        <ele>60.5</ele>
        <time>2021-04-28T13:14:19Z</time>
      </trkpt>
      <trkpt lat="49.86398" lon="2.32429">
        <ele>60.5</ele>
        <time>2021-04-28T13:14:21Z</time>
      </trkpt>
      <trkpt lat="49.86399" lon="2.32428">
        <ele>60.4</ele>
        <time>2021-04-28T13:14:22Z</time>
      </trkpt>
      <trkpt lat="49.864" lon="2.32428">
        <ele>60.4</ele>
        <time>2021-04-28T13:14:23Z</time>
      </trkpt>
      <trkpt lat="49.86401" lon="2.32428">
        <ele>60.4</ele>
        <time>2021-04-28T13:14:24Z</time>
      </trkpt>
      <trkpt lat="49.864" lon="2.32428">
        <ele>60.3</ele>
        <time>2021-04-28T13:14:26Z</time>
      </trkpt>
      <trkpt lat="49.864" lon="2.32428">
        <ele>60.3</ele>
        <time>2021-04-28T13:14:27Z</time>
      </trkpt>
      <trkpt lat="49.864" lon="2.32428">
        <ele>60.3</ele>
        <time>2021-04-28T13:14:28Z</time>
      </trkpt>
      <trkpt lat="49.864" lon="2.32428">
        <ele>60.3</ele>
        <time>2021-04-28T13:14:29Z</time>
      </trkpt>
      <trkpt lat="49.864" lon="2.32428">
        <ele>60.3</ele>
        <time>2021-04-28T13:14:30Z</time>
      </trkpt>
      <trkpt lat="49.864" lon="2.32428">
        <ele>60.3</ele>
        <time>2021-04-28T13:14:31Z</time>
      </trkpt>
      <trkpt lat="49.864" lon="2.32427">
        <ele>60.3</ele>
        <time>2021-04-28T13:14:33Z</time>
      </trkpt>
      <trkpt lat="49.864" lon="2.32427">
        <ele>60.3</ele>
        <time>2021-04-28T13:14:34Z</time>
      </trkpt>
      <trkpt lat="49.864" lon="2.32427">
        <ele>60.3</ele>
        <time>2021-04-28T13:14:35Z</time>
      </trkpt>
      <trkpt lat="49.864" lon="2.32427">
        <ele>60.3</ele>
        <time>2021-04-28T13:14:37Z</time>
      </trkpt>
      <trkpt lat="49.864" lon="2.32427">
        <ele>60.3</ele>
        <time>2021-04-28T13:14:38Z</time>
      </trkpt>
      <trkpt lat="49.864" lon="2.32427">
        <ele>60.3</ele>
        <time>2021-04-28T13:14:39Z</time>
      </trkpt>
      <trkpt lat="49.864" lon="2.32427">
        <ele>60.3</ele>
        <time>2021-04-28T13:14:41Z</time>
      </trkpt>
      <trkpt lat="49.864" lon="2.32427">
        <ele>60.3</ele>
        <time>2021-04-28T13:14:42Z</time>
      </trkpt>
      <trkpt lat="49.864" lon="2.32427">
        <ele>60.3</ele>
        <time>2021-04-28T13:14:44Z</time>
      </trkpt>
      <trkpt lat="49.864" lon="2.32427">
        <ele>60.3</ele>
        <time>2021-04-28T13:14:45Z</time>
      </trkpt>
      <trkpt lat="49.864" lon="2.32427">
        <ele>60.3</ele>
        <time>2021-04-28T13:14:47Z</time>
      </trkpt>
      <trkpt lat="49.864" lon="2.32427">
        <ele>60.3</ele>
        <time>2021-04-28T13:14:48Z</time>
      </trkpt>
      <trkpt lat="49.864" lon="2.32427">
        <ele>60.3</ele>
        <time>2021-04-28T13:14:49Z</time>
      </trkpt>
      <trkpt lat="49.864" lon="2.32427">
        <ele>60.3</ele>
        <time>2021-04-28T13:14:50Z</time>
      </trkpt>
      <trkpt lat="49.864" lon="2.32427">
        <ele>60.3</ele>
        <time>2021-04-28T13:14:51Z</time>
      </trkpt>
      <trkpt lat="49.864" lon="2.32427">
        <ele>60.3</ele>
        <time>2021-04-28T13:14:53Z</time>
      </trkpt>
      <trkpt lat="49.864" lon="2.32427">
        <ele>60.3</ele>
        <time>2021-04-28T13:14:55Z</time>
      </trkpt>
      <trkpt lat="49.864" lon="2.32426">
        <ele>60.3</ele>
        <time>2021-04-28T13:14:56Z</time>
      </trkpt>
      <trkpt lat="49.86399" lon="2.32425">
        <ele>60.3</ele>
        <time>2021-04-28T13:14:58Z</time>
      </trkpt>
      <trkpt lat="49.86399" lon="2.32425">
        <ele>60.3</ele>
        <time>2021-04-28T13:14:59Z</time>
      </trkpt>
      <trkpt lat="49.86399" lon="2.32424">
        <ele>60.2</ele>
        <time>2021-04-28T13:15:01Z</time>
      </trkpt>
      <trkpt lat="49.86399" lon="2.32424">
        <ele>60.2</ele>
        <time>2021-04-28T13:15:03Z</time>
      </trkpt>
      <trkpt lat="49.86399" lon="2.32423">
        <ele>60.2</ele>
        <time>2021-04-28T13:15:04Z</time>
      </trkpt>
      <trkpt lat="49.86399" lon="2.32421">
        <ele>60.2</ele>
        <time>2021-04-28T13:15:05Z</time>
      </trkpt>
      <trkpt lat="49.86398" lon="2.32416">
        <ele>60.2</ele>
        <time>2021-04-28T13:15:07Z</time>
      </trkpt>
      <trkpt lat="49.86397" lon="2.32413">
        <ele>60.1</ele>
        <time>2021-04-28T13:15:09Z</time>
      </trkpt>
      <trkpt lat="49.86397" lon="2.32411">
        <ele>60.1</ele>
        <time>2021-04-28T13:15:10Z</time>
      </trkpt>
      <trkpt lat="49.86396" lon="2.32408">
        <ele>60.1</ele>
        <time>2021-04-28T13:15:12Z</time>
      </trkpt>
      <trkpt lat="49.86396" lon="2.32404">
        <ele>60.1</ele>
        <time>2021-04-28T13:15:14Z</time>
      </trkpt>
      <trkpt lat="49.86395" lon="2.32403">
        <ele>60.1</ele>
        <time>2021-04-28T13:15:15Z</time>
      </trkpt>
      <trkpt lat="49.86394" lon="2.324">
        <ele>60.1</ele>
        <time>2021-04-28T13:15:16Z</time>
      </trkpt>
      <trkpt lat="49.86394" lon="2.32399">
        <ele>60.1</ele>
        <time>2021-04-28T13:15:17Z</time>
      </trkpt>
      <trkpt lat="49.86393" lon="2.32397">
        <ele>60.1</ele>
        <time>2021-04-28T13:15:18Z</time>
      </trkpt>
      <trkpt lat="49.86392" lon="2.32396">
        <ele>60.1</ele>
        <time>2021-04-28T13:15:20Z</time>
      </trkpt>
      <trkpt lat="49.8639" lon="2.32393">
        <ele>60.1</ele>
        <time>2021-04-28T13:15:21Z</time>
      </trkpt>
      <trkpt lat="49.8639" lon="2.32393">
        <ele>60.1</ele>
        <time>2021-04-28T13:15:22Z</time>
      </trkpt>
      <trkpt lat="49.86389" lon="2.32392">
        <ele>60.1</ele>
        <time>2021-04-28T13:15:23Z</time>
      </trkpt>
      <trkpt lat="49.86388" lon="2.3239">
        <ele>60.2</ele>
        <time>2021-04-28T13:15:24Z</time>
      </trkpt>
      <trkpt lat="49.86387" lon="2.32389">
        <ele>60.2</ele>
        <time>2021-04-28T13:15:25Z</time>
      </trkpt>
      <trkpt lat="49.86387" lon="2.32387">
        <ele>60.2</ele>
        <time>2021-04-28T13:15:27Z</time>
      </trkpt>
      <trkpt lat="49.86386" lon="2.32385">
        <ele>60.2</ele>
        <time>2021-04-28T13:15:28Z</time>
      </trkpt>
      <trkpt lat="49.86385" lon="2.32385">
        <ele>60.2</ele>
        <time>2021-04-28T13:15:29Z</time>
      </trkpt>
      <trkpt lat="49.86383" lon="2.32384">
        <ele>60.2</ele>
        <time>2021-04-28T13:15:30Z</time>
      </trkpt>
      <trkpt lat="49.86382" lon="2.32382">
        <ele>60.2</ele>
        <time>2021-04-28T13:15:32Z</time>
      </trkpt>
      <trkpt lat="49.86381" lon="2.3238">
        <ele>60.2</ele>
        <time>2021-04-28T13:15:33Z</time>
      </trkpt>
      <trkpt lat="49.8638" lon="2.32377">
        <ele>60.3</ele>
        <time>2021-04-28T13:15:34Z</time>
      </trkpt>
      <trkpt lat="49.86379" lon="2.32376">
        <ele>60.3</ele>
        <time>2021-04-28T13:15:35Z</time>
      </trkpt>
      <trkpt lat="49.86379" lon="2.32374">
        <ele>60.3</ele>
        <time>2021-04-28T13:15:36Z</time>
      </trkpt>
      <trkpt lat="49.86378" lon="2.32372">
        <ele>60.3</ele>
        <time>2021-04-28T13:15:37Z</time>
      </trkpt>
      <trkpt lat="49.86377" lon="2.3237">
        <ele>60.3</ele>
        <time>2021-04-28T13:15:38Z</time>
      </trkpt>
      <trkpt lat="49.86377" lon="2.32369">
        <ele>60.3</ele>
        <time>2021-04-28T13:15:39Z</time>
      </trkpt>
      <trkpt lat="49.86377" lon="2.32367">
        <ele>60.4</ele>
        <time>2021-04-28T13:15:41Z</time>
      </trkpt>
      <trkpt lat="49.86376" lon="2.32365">
        <ele>60.4</ele>
        <time>2021-04-28T13:15:42Z</time>
      </trkpt>
      <trkpt lat="49.86376" lon="2.32362">
        <ele>60.4</ele>
        <time>2021-04-28T13:15:43Z</time>
      </trkpt>
      <trkpt lat="49.86376" lon="2.3236">
        <ele>60.4</ele>
        <time>2021-04-28T13:15:44Z</time>
      </trkpt>
      <trkpt lat="49.86375" lon="2.32359">
        <ele>60.4</ele>
        <time>2021-04-28T13:15:45Z</time>
      </trkpt>
      <trkpt lat="49.86374" lon="2.32357">
        <ele>60.5</ele>
        <time>2021-04-28T13:15:46Z</time>
      </trkpt>
      <trkpt lat="49.86374" lon="2.32355">
        <ele>60.5</ele>
        <time>2021-04-28T13:15:47Z</time>
      </trkpt>
      <trkpt lat="49.86373" lon="2.32352">
        <ele>60.5</ele>
        <time>2021-04-28T13:15:48Z</time>
      </trkpt>
      <trkpt lat="49.86372" lon="2.32351">
        <ele>60.6</ele>
        <time>2021-04-28T13:15:50Z</time>
      </trkpt>
      <trkpt lat="49.86372" lon="2.3235">
        <ele>60.6</ele>
        <time>2021-04-28T13:15:51Z</time>
      </trkpt>
      <trkpt lat="49.86371" lon="2.32349">
        <ele>60.6</ele>
        <time>2021-04-28T13:15:52Z</time>
      </trkpt>
      <trkpt lat="49.86371" lon="2.32348">
        <ele>60.6</ele>
        <time>2021-04-28T13:15:53Z</time>
      </trkpt>
      <trkpt lat="49.8637" lon="2.32346">
        <ele>60.6</ele>
        <time>2021-04-28T13:15:54Z</time>
      </trkpt>
      <trkpt lat="49.86369" lon="2.32343">
        <ele>60.7</ele>
        <time>2021-04-28T13:15:55Z</time>
      </trkpt>
      <trkpt lat="49.86368" lon="2.32342">
        <ele>60.7</ele>
        <time>2021-04-28T13:15:57Z</time>
      </trkpt>
      <trkpt lat="49.86368" lon="2.32341">
        <ele>60.7</ele>
        <time>2021-04-28T13:15:58Z</time>
      </trkpt>
      <trkpt lat="49.86367" lon="2.3234">
        <ele>60.7</ele>
        <time>2021-04-28T13:15:59Z</time>
      </trkpt>
      <trkpt lat="49.86366" lon="2.32338">
        <ele>60.8</ele>
        <time>2021-04-28T13:16:00Z</time>
      </trkpt>
      <trkpt lat="49.86366" lon="2.32337">
        <ele>60.8</ele>
        <time>2021-04-28T13:16:01Z</time>
      </trkpt>
      <trkpt lat="49.86365" lon="2.32336">
        <ele>60.8</ele>
        <time>2021-04-28T13:16:02Z</time>
      </trkpt>
      <trkpt lat="49.86364" lon="2.32335">
        <ele>60.8</ele>
        <time>2021-04-28T13:16:03Z</time>
      </trkpt>
      <trkpt lat="49.86364" lon="2.32333">
        <ele>60.8</ele>
        <time>2021-04-28T13:16:05Z</time>
      </trkpt>
      <trkpt lat="49.86363" lon="2.32332">
        <ele>60.9</ele>
        <time>2021-04-28T13:16:06Z</time>
      </trkpt>
      <trkpt lat="49.86362" lon="2.32331">
        <ele>60.9</ele>
        <time>2021-04-28T13:16:07Z</time>
      </trkpt>
      <trkpt lat="49.86361" lon="2.3233">
        <ele>60.9</ele>
        <time>2021-04-28T13:16:08Z</time>
      </trkpt>
      <trkpt lat="49.8636" lon="2.32329">
        <ele>60.9</ele>
        <time>2021-04-28T13:16:09Z</time>
      </trkpt>
      <trkpt lat="49.86359" lon="2.32328">
        <ele>61</ele>
        <time>2021-04-28T13:16:10Z</time>
      </trkpt>
      <trkpt lat="49.86357" lon="2.32326">
        <ele>61</ele>
        <time>2021-04-28T13:16:12Z</time>
      </trkpt>
      <trkpt lat="49.86357" lon="2.32325">
        <ele>61.1</ele>
        <time>2021-04-28T13:16:13Z</time>
      </trkpt>
      <trkpt lat="49.86356" lon="2.32324">
        <ele>61.1</ele>
        <time>2021-04-28T13:16:14Z</time>
      </trkpt>
      <trkpt lat="49.86355" lon="2.32323">
        <ele>61.1</ele>
        <time>2021-04-28T13:16:15Z</time>
      </trkpt>
      <trkpt lat="49.86354" lon="2.32322">
        <ele>61.2</ele>
        <time>2021-04-28T13:16:16Z</time>
      </trkpt>
      <trkpt lat="49.86353" lon="2.32321">
        <ele>61.2</ele>
        <time>2021-04-28T13:16:17Z</time>
      </trkpt>
      <trkpt lat="49.86353" lon="2.3232">
        <ele>61.2</ele>
        <time>2021-04-28T13:16:18Z</time>
      </trkpt>
      <trkpt lat="49.86351" lon="2.32318">
        <ele>61.3</ele>
        <time>2021-04-28T13:16:19Z</time>
      </trkpt>
      <trkpt lat="49.86351" lon="2.32317">
        <ele>61.3</ele>
        <time>2021-04-28T13:16:21Z</time>
      </trkpt>
      <trkpt lat="49.8635" lon="2.32316">
        <ele>61.3</ele>
        <time>2021-04-28T13:16:22Z</time>
      </trkpt>
      <trkpt lat="49.86349" lon="2.32315">
        <ele>61.3</ele>
        <time>2021-04-28T13:16:23Z</time>
      </trkpt>
      <trkpt lat="49.86349" lon="2.32314">
        <ele>61.3</ele>
        <time>2021-04-28T13:16:24Z</time>
      </trkpt>
      <trkpt lat="49.86348" lon="2.32313">
        <ele>61.4</ele>
        <time>2021-04-28T13:16:26Z</time>
      </trkpt>
      <trkpt lat="49.86347" lon="2.32311">
        <ele>61.4</ele>
        <time>2021-04-28T13:16:27Z</time>
      </trkpt>
      <trkpt lat="49.86347" lon="2.3231">
        <ele>61.4</ele>
        <time>2021-04-28T13:16:28Z</time>
      </trkpt>
      <trkpt lat="49.86346" lon="2.32309">
        <ele>61.5</ele>
        <time>2021-04-28T13:16:29Z</time>
      </trkpt>
      <trkpt lat="49.86346" lon="2.32307">
        <ele>61.5</ele>
        <time>2021-04-28T13:16:30Z</time>
      </trkpt>
      <trkpt lat="49.86345" lon="2.32305">
        <ele>61.6</ele>
        <time>2021-04-28T13:16:31Z</time>
      </trkpt>
      <trkpt lat="49.86344" lon="2.32304">
        <ele>61.6</ele>
        <time>2021-04-28T13:16:33Z</time>
      </trkpt>
      <trkpt lat="49.86344" lon="2.32303">
        <ele>61.6</ele>
        <time>2021-04-28T13:16:34Z</time>
      </trkpt>
      <trkpt lat="49.86343" lon="2.32302">
        <ele>61.6</ele>
        <time>2021-04-28T13:16:35Z</time>
      </trkpt>
      <trkpt lat="49.86342" lon="2.323">
        <ele>61.7</ele>
        <time>2021-04-28T13:16:37Z</time>
      </trkpt>
      <trkpt lat="49.86341" lon="2.32299">
        <ele>61.7</ele>
        <time>2021-04-28T13:16:38Z</time>
      </trkpt>
      <trkpt lat="49.8634" lon="2.32298">
        <ele>61.8</ele>
        <time>2021-04-28T13:16:39Z</time>
      </trkpt>
      <trkpt lat="49.8634" lon="2.32297">
        <ele>61.8</ele>
        <time>2021-04-28T13:16:40Z</time>
      </trkpt>
      <trkpt lat="49.86339" lon="2.32295">
        <ele>61.9</ele>
        <time>2021-04-28T13:16:42Z</time>
      </trkpt>
      <trkpt lat="49.86339" lon="2.32294">
        <ele>61.9</ele>
        <time>2021-04-28T13:16:43Z</time>
      </trkpt>
      <trkpt lat="49.86338" lon="2.32293">
        <ele>61.9</ele>
        <time>2021-04-28T13:16:44Z</time>
      </trkpt>
      <trkpt lat="49.86337" lon="2.32291">
        <ele>62</ele>
        <time>2021-04-28T13:16:45Z</time>
      </trkpt>
      <trkpt lat="49.86336" lon="2.32289">
        <ele>62</ele>
        <time>2021-04-28T13:16:47Z</time>
      </trkpt>
      <trkpt lat="49.86336" lon="2.32288">
        <ele>62.1</ele>
        <time>2021-04-28T13:16:48Z</time>
      </trkpt>
      <trkpt lat="49.86334" lon="2.32287">
        <ele>62.1</ele>
        <time>2021-04-28T13:16:50Z</time>
      </trkpt>
      <trkpt lat="49.86334" lon="2.32285">
        <ele>62.2</ele>
        <time>2021-04-28T13:16:51Z</time>
      </trkpt>
      <trkpt lat="49.86333" lon="2.32284">
        <ele>62.2</ele>
        <time>2021-04-28T13:16:52Z</time>
      </trkpt>
      <trkpt lat="49.86332" lon="2.32282">
        <ele>62.3</ele>
        <time>2021-04-28T13:16:53Z</time>
      </trkpt>
      <trkpt lat="49.86332" lon="2.32281">
        <ele>62.3</ele>
        <time>2021-04-28T13:16:55Z</time>
      </trkpt>
      <trkpt lat="49.86331" lon="2.3228">
        <ele>62.4</ele>
        <time>2021-04-28T13:16:56Z</time>
      </trkpt>
      <trkpt lat="49.8633" lon="2.32278">
        <ele>62.4</ele>
        <time>2021-04-28T13:16:57Z</time>
      </trkpt>
      <trkpt lat="49.8633" lon="2.32277">
        <ele>62.5</ele>
        <time>2021-04-28T13:16:58Z</time>
      </trkpt>
      <trkpt lat="49.86328" lon="2.32275">
        <ele>62.6</ele>
        <time>2021-04-28T13:16:59Z</time>
      </trkpt>
      <trkpt lat="49.86327" lon="2.32274">
        <ele>62.6</ele>
        <time>2021-04-28T13:17:01Z</time>
      </trkpt>
      <trkpt lat="49.86327" lon="2.32272">
        <ele>62.6</ele>
        <time>2021-04-28T13:17:02Z</time>
      </trkpt>
      <trkpt lat="49.86326" lon="2.32272">
        <ele>62.7</ele>
        <time>2021-04-28T13:17:03Z</time>
      </trkpt>
      <trkpt lat="49.86325" lon="2.3227">
        <ele>62.7</ele>
        <time>2021-04-28T13:17:05Z</time>
      </trkpt>
      <trkpt lat="49.86324" lon="2.32267">
        <ele>62.8</ele>
        <time>2021-04-28T13:17:07Z</time>
      </trkpt>
      <trkpt lat="49.86323" lon="2.32265">
        <ele>62.9</ele>
        <time>2021-04-28T13:17:08Z</time>
      </trkpt>
      <trkpt lat="49.86322" lon="2.32264">
        <ele>62.9</ele>
        <time>2021-04-28T13:17:10Z</time>
      </trkpt>
      <trkpt lat="49.86322" lon="2.32262">
        <ele>63</ele>
        <time>2021-04-28T13:17:11Z</time>
      </trkpt>
      <trkpt lat="49.86321" lon="2.3226">
        <ele>63</ele>
        <time>2021-04-28T13:17:12Z</time>
      </trkpt>
      <trkpt lat="49.8632" lon="2.32259">
        <ele>63.1</ele>
        <time>2021-04-28T13:17:13Z</time>
      </trkpt>
      <trkpt lat="49.86319" lon="2.32256">
        <ele>63.2</ele>
        <time>2021-04-28T13:17:14Z</time>
      </trkpt>
      <trkpt lat="49.86318" lon="2.32255">
        <ele>63.2</ele>
        <time>2021-04-28T13:17:16Z</time>
      </trkpt>
      <trkpt lat="49.86317" lon="2.32254">
        <ele>63.2</ele>
        <time>2021-04-28T13:17:17Z</time>
      </trkpt>
      <trkpt lat="49.86317" lon="2.32253">
        <ele>63.3</ele>
        <time>2021-04-28T13:17:18Z</time>
      </trkpt>
      <trkpt lat="49.86316" lon="2.32251">
        <ele>63.3</ele>
        <time>2021-04-28T13:17:19Z</time>
      </trkpt>
      <trkpt lat="49.86315" lon="2.3225">
        <ele>63.3</ele>
        <time>2021-04-28T13:17:21Z</time>
      </trkpt>
      <trkpt lat="49.86315" lon="2.32249">
        <ele>63.4</ele>
        <time>2021-04-28T13:17:22Z</time>
      </trkpt>
      <trkpt lat="49.86314" lon="2.32247">
        <ele>63.4</ele>
        <time>2021-04-28T13:17:24Z</time>
      </trkpt>
      <trkpt lat="49.86313" lon="2.32245">
        <ele>63.5</ele>
        <time>2021-04-28T13:17:25Z</time>
      </trkpt>
      <trkpt lat="49.86313" lon="2.32244">
        <ele>63.5</ele>
        <time>2021-04-28T13:17:26Z</time>
      </trkpt>
      <trkpt lat="49.86312" lon="2.32242">
        <ele>63.5</ele>
        <time>2021-04-28T13:17:27Z</time>
      </trkpt>
      <trkpt lat="49.86311" lon="2.32241">
        <ele>63.6</ele>
        <time>2021-04-28T13:17:29Z</time>
      </trkpt>
      <trkpt lat="49.86311" lon="2.3224">
        <ele>63.6</ele>
        <time>2021-04-28T13:17:30Z</time>
      </trkpt>
      <trkpt lat="49.8631" lon="2.32238">
        <ele>63.6</ele>
        <time>2021-04-28T13:17:32Z</time>
      </trkpt>
      <trkpt lat="49.86309" lon="2.32237">
        <ele>63.7</ele>
        <time>2021-04-28T13:17:33Z</time>
      </trkpt>
      <trkpt lat="49.86308" lon="2.32236">
        <ele>63.7</ele>
        <time>2021-04-28T13:17:34Z</time>
      </trkpt>
      <trkpt lat="49.86307" lon="2.32235">
        <ele>63.7</ele>
        <time>2021-04-28T13:17:35Z</time>
      </trkpt>
      <trkpt lat="49.86306" lon="2.32234">
        <ele>63.8</ele>
        <time>2021-04-28T13:17:37Z</time>
      </trkpt>
      <trkpt lat="49.86306" lon="2.32233">
        <ele>63.8</ele>
        <time>2021-04-28T13:17:38Z</time>
      </trkpt>
      <trkpt lat="49.86304" lon="2.32232">
        <ele>63.9</ele>
        <time>2021-04-28T13:17:40Z</time>
      </trkpt>
      <trkpt lat="49.86302" lon="2.3223">
        <ele>63.9</ele>
        <time>2021-04-28T13:17:41Z</time>
      </trkpt>
      <trkpt lat="49.86302" lon="2.32229">
        <ele>63.9</ele>
        <time>2021-04-28T13:17:42Z</time>
      </trkpt>
      <trkpt lat="49.86301" lon="2.32228">
        <ele>64</ele>
        <time>2021-04-28T13:17:43Z</time>
      </trkpt>
      <trkpt lat="49.86299" lon="2.32226">
        <ele>64</ele>
        <time>2021-04-28T13:17:45Z</time>
      </trkpt>
      <trkpt lat="49.86299" lon="2.32225">
        <ele>64</ele>
        <time>2021-04-28T13:17:46Z</time>
      </trkpt>
      <trkpt lat="49.86298" lon="2.32224">
        <ele>64.1</ele>
        <time>2021-04-28T13:17:47Z</time>
      </trkpt>
      <trkpt lat="49.86297" lon="2.32223">
        <ele>64.1</ele>
        <time>2021-04-28T13:17:48Z</time>
      </trkpt>
      <trkpt lat="49.86296" lon="2.32222">
        <ele>64.1</ele>
        <time>2021-04-28T13:17:49Z</time>
      </trkpt>
      <trkpt lat="49.86295" lon="2.32221">
        <ele>64.2</ele>
        <time>2021-04-28T13:17:51Z</time>
      </trkpt>
      <trkpt lat="49.86294" lon="2.32219">
        <ele>64.2</ele>
        <time>2021-04-28T13:17:52Z</time>
      </trkpt>
      <trkpt lat="49.86294" lon="2.32218">
        <ele>64.3</ele>
        <time>2021-04-28T13:17:53Z</time>
      </trkpt>
      <trkpt lat="49.86293" lon="2.32216">
        <ele>64.3</ele>
        <time>2021-04-28T13:17:54Z</time>
      </trkpt>
      <trkpt lat="49.86292" lon="2.32214">
        <ele>64.4</ele>
        <time>2021-04-28T13:17:55Z</time>
      </trkpt>
      <trkpt lat="49.86292" lon="2.32213">
        <ele>64.4</ele>
        <time>2021-04-28T13:17:56Z</time>
      </trkpt>
      <trkpt lat="49.86291" lon="2.32211">
        <ele>64.4</ele>
        <time>2021-04-28T13:17:57Z</time>
      </trkpt>
      <trkpt lat="49.86291" lon="2.3221">
        <ele>64.5</ele>
        <time>2021-04-28T13:17:58Z</time>
      </trkpt>
      <trkpt lat="49.8629" lon="2.32209">
        <ele>64.5</ele>
        <time>2021-04-28T13:18:00Z</time>
      </trkpt>
      <trkpt lat="49.8629" lon="2.32207">
        <ele>64.5</ele>
        <time>2021-04-28T13:18:01Z</time>
      </trkpt>
      <trkpt lat="49.86288" lon="2.32204">
        <ele>64.6</ele>
        <time>2021-04-28T13:18:02Z</time>
      </trkpt>
      <trkpt lat="49.86288" lon="2.32204">
        <ele>64.6</ele>
        <time>2021-04-28T13:18:03Z</time>
      </trkpt>
      <trkpt lat="49.86287" lon="2.32203">
        <ele>64.7</ele>
        <time>2021-04-28T13:18:04Z</time>
      </trkpt>
      <trkpt lat="49.86287" lon="2.32202">
        <ele>64.7</ele>
        <time>2021-04-28T13:18:05Z</time>
      </trkpt>
      <trkpt lat="49.86286" lon="2.322">
        <ele>64.7</ele>
        <time>2021-04-28T13:18:07Z</time>
      </trkpt>
      <trkpt lat="49.86285" lon="2.32199">
        <ele>64.8</ele>
        <time>2021-04-28T13:18:08Z</time>
      </trkpt>
      <trkpt lat="49.86285" lon="2.32198">
        <ele>64.8</ele>
        <time>2021-04-28T13:18:09Z</time>
      </trkpt>
      <trkpt lat="49.86284" lon="2.32197">
        <ele>64.8</ele>
        <time>2021-04-28T13:18:10Z</time>
      </trkpt>
      <trkpt lat="49.86284" lon="2.32195">
        <ele>64.9</ele>
        <time>2021-04-28T13:18:11Z</time>
      </trkpt>
      <trkpt lat="49.86283" lon="2.32193">
        <ele>64.9</ele>
        <time>2021-04-28T13:18:13Z</time>
      </trkpt>
      <trkpt lat="49.86282" lon="2.32192">
        <ele>64.9</ele>
        <time>2021-04-28T13:18:14Z</time>
      </trkpt>
      <trkpt lat="49.86281" lon="2.32192">
        <ele>65</ele>
        <time>2021-04-28T13:18:15Z</time>
      </trkpt>
      <trkpt lat="49.86279" lon="2.32193">
        <ele>65</ele>
        <time>2021-04-28T13:18:17Z</time>
      </trkpt>
      <trkpt lat="49.86279" lon="2.32194">
        <ele>65</ele>
        <time>2021-04-28T13:18:18Z</time>
      </trkpt>
      <trkpt lat="49.86279" lon="2.32195">
        <ele>65.1</ele>
        <time>2021-04-28T13:18:19Z</time>
      </trkpt>
      <trkpt lat="49.86279" lon="2.32196">
        <ele>65.1</ele>
        <time>2021-04-28T13:18:20Z</time>
      </trkpt>
      <trkpt lat="49.86279" lon="2.32196">
        <ele>65.1</ele>
        <time>2021-04-28T13:18:22Z</time>
      </trkpt>
      <trkpt lat="49.86279" lon="2.32197">
        <ele>65.1</ele>
        <time>2021-04-28T13:18:24Z</time>
      </trkpt>
      <trkpt lat="49.8628" lon="2.32197">
        <ele>65.1</ele>
        <time>2021-04-28T13:18:25Z</time>
      </trkpt>
      <trkpt lat="49.8628" lon="2.32197">
        <ele>65.1</ele>
        <time>2021-04-28T13:18:26Z</time>
      </trkpt>
      <trkpt lat="49.86281" lon="2.32198">
        <ele>65.1</ele>
        <time>2021-04-28T13:18:28Z</time>
      </trkpt>
      <trkpt lat="49.86281" lon="2.32198">
        <ele>65.2</ele>
        <time>2021-04-28T13:18:29Z</time>
      </trkpt>
      <trkpt lat="49.86282" lon="2.32199">
        <ele>65.2</ele>
        <time>2021-04-28T13:18:31Z</time>
      </trkpt>
      <trkpt lat="49.86282" lon="2.322">
        <ele>65.2</ele>
        <time>2021-04-28T13:18:33Z</time>
      </trkpt>
      <trkpt lat="49.86282" lon="2.322">
        <ele>65.2</ele>
        <time>2021-04-28T13:18:34Z</time>
      </trkpt>
      <trkpt lat="49.86283" lon="2.322">
        <ele>65.2</ele>
        <time>2021-04-28T13:18:35Z</time>
      </trkpt>
      <trkpt lat="49.86283" lon="2.322">
        <ele>65.2</ele>
        <time>2021-04-28T13:18:36Z</time>
      </trkpt>
      <trkpt lat="49.86283" lon="2.322">
        <ele>65.2</ele>
        <time>2021-04-28T13:18:37Z</time>
      </trkpt>
      <trkpt lat="49.86283" lon="2.32199">
        <ele>65.2</ele>
        <time>2021-04-28T13:18:39Z</time>
      </trkpt>
      <trkpt lat="49.86283" lon="2.32199">
        <ele>65.2</ele>
        <time>2021-04-28T13:18:40Z</time>
      </trkpt>
      <trkpt lat="49.86283" lon="2.32198">
        <ele>65.3</ele>
        <time>2021-04-28T13:18:42Z</time>
      </trkpt>
      <trkpt lat="49.86283" lon="2.32197">
        <ele>65.3</ele>
        <time>2021-04-28T13:18:43Z</time>
      </trkpt>
      <trkpt lat="49.86283" lon="2.32196">
        <ele>65.3</ele>
        <time>2021-04-28T13:18:44Z</time>
      </trkpt>
      <trkpt lat="49.86283" lon="2.32194">
        <ele>65.3</ele>
        <time>2021-04-28T13:18:45Z</time>
      </trkpt>
      <trkpt lat="49.86282" lon="2.3219">
        <ele>65.4</ele>
        <time>2021-04-28T13:18:48Z</time>
      </trkpt>
      <trkpt lat="49.86282" lon="2.32189">
        <ele>65.4</ele>
        <time>2021-04-28T13:18:49Z</time>
      </trkpt>
      <trkpt lat="49.86282" lon="2.32187">
        <ele>65.5</ele>
        <time>2021-04-28T13:18:51Z</time>
      </trkpt>
      <trkpt lat="49.8628" lon="2.32185">
        <ele>65.5</ele>
        <time>2021-04-28T13:18:52Z</time>
      </trkpt>
      <trkpt lat="49.86279" lon="2.32183">
        <ele>65.6</ele>
        <time>2021-04-28T13:18:53Z</time>
      </trkpt>
      <trkpt lat="49.86278" lon="2.32182">
        <ele>65.6</ele>
        <time>2021-04-28T13:18:55Z</time>
      </trkpt>
      <trkpt lat="49.86278" lon="2.32181">
        <ele>65.6</ele>
        <time>2021-04-28T13:18:56Z</time>
      </trkpt>
      <trkpt lat="49.86276" lon="2.32179">
        <ele>65.7</ele>
        <time>2021-04-28T13:18:57Z</time>
      </trkpt>
      <trkpt lat="49.86275" lon="2.32178">
        <ele>65.7</ele>
        <time>2021-04-28T13:18:58Z</time>
      </trkpt>
      <trkpt lat="49.86274" lon="2.32176">
        <ele>65.8</ele>
        <time>2021-04-28T13:19:00Z</time>
      </trkpt>
      <trkpt lat="49.86273" lon="2.32175">
        <ele>65.8</ele>
        <time>2021-04-28T13:19:01Z</time>
      </trkpt>
      <trkpt lat="49.86272" lon="2.32174">
        <ele>65.8</ele>
        <time>2021-04-28T13:19:02Z</time>
      </trkpt>
      <trkpt lat="49.86271" lon="2.32173">
        <ele>65.8</ele>
        <time>2021-04-28T13:19:03Z</time>
      </trkpt>
      <trkpt lat="49.8627" lon="2.32172">
        <ele>65.9</ele>
        <time>2021-04-28T13:19:04Z</time>
      </trkpt>
      <trkpt lat="49.86269" lon="2.32171">
        <ele>65.9</ele>
        <time>2021-04-28T13:19:06Z</time>
      </trkpt>
      <trkpt lat="49.86268" lon="2.32171">
        <ele>65.9</ele>
        <time>2021-04-28T13:19:07Z</time>
      </trkpt>
      <trkpt lat="49.86267" lon="2.3217">
        <ele>65.9</ele>
        <time>2021-04-28T13:19:09Z</time>
      </trkpt>
      <trkpt lat="49.86266" lon="2.32169">
        <ele>66</ele>
        <time>2021-04-28T13:19:10Z</time>
      </trkpt>
      <trkpt lat="49.86265" lon="2.32168">
        <ele>66</ele>
        <time>2021-04-28T13:19:11Z</time>
      </trkpt>
      <trkpt lat="49.86264" lon="2.32167">
        <ele>66</ele>
        <time>2021-04-28T13:19:12Z</time>
      </trkpt>
      <trkpt lat="49.86263" lon="2.32166">
        <ele>66</ele>
        <time>2021-04-28T13:19:13Z</time>
      </trkpt>
      <trkpt lat="49.86262" lon="2.32165">
        <ele>66.1</ele>
        <time>2021-04-28T13:19:14Z</time>
      </trkpt>
      <trkpt lat="49.8626" lon="2.32164">
        <ele>66.1</ele>
        <time>2021-04-28T13:19:16Z</time>
      </trkpt>
      <trkpt lat="49.86259" lon="2.32163">
        <ele>66.1</ele>
        <time>2021-04-28T13:19:17Z</time>
      </trkpt>
      <trkpt lat="49.86258" lon="2.32163">
        <ele>66.1</ele>
        <time>2021-04-28T13:19:18Z</time>
      </trkpt>
      <trkpt lat="49.86257" lon="2.32162">
        <ele>66.1</ele>
        <time>2021-04-28T13:19:19Z</time>
      </trkpt>
      <trkpt lat="49.86257" lon="2.32161">
        <ele>66.2</ele>
        <time>2021-04-28T13:19:20Z</time>
      </trkpt>
      <trkpt lat="49.86255" lon="2.3216">
        <ele>66.2</ele>
        <time>2021-04-28T13:19:21Z</time>
      </trkpt>
      <trkpt lat="49.86254" lon="2.32159">
        <ele>66.2</ele>
        <time>2021-04-28T13:19:23Z</time>
      </trkpt>
      <trkpt lat="49.86253" lon="2.32158">
        <ele>66.2</ele>
        <time>2021-04-28T13:19:24Z</time>
      </trkpt>
      <trkpt lat="49.86252" lon="2.32157">
        <ele>66.2</ele>
        <time>2021-04-28T13:19:26Z</time>
      </trkpt>
      <trkpt lat="49.86251" lon="2.32155">
        <ele>66.3</ele>
        <time>2021-04-28T13:19:27Z</time>
      </trkpt>
      <trkpt lat="49.86249" lon="2.32153">
        <ele>66.3</ele>
        <time>2021-04-28T13:19:28Z</time>
      </trkpt>
      <trkpt lat="49.86249" lon="2.32153">
        <ele>66.3</ele>
        <time>2021-04-28T13:19:29Z</time>
      </trkpt>
      <trkpt lat="49.86248" lon="2.32152">
        <ele>66.3</ele>
        <time>2021-04-28T13:19:30Z</time>
      </trkpt>
      <trkpt lat="49.86247" lon="2.32151">
        <ele>66.3</ele>
        <time>2021-04-28T13:19:31Z</time>
      </trkpt>
      <trkpt lat="49.86247" lon="2.32149">
        <ele>66.4</ele>
        <time>2021-04-28T13:19:33Z</time>
      </trkpt>
      <trkpt lat="49.86246" lon="2.32149">
        <ele>66.4</ele>
        <time>2021-04-28T13:19:34Z</time>
      </trkpt>
      <trkpt lat="49.86244" lon="2.32147">
        <ele>66.4</ele>
        <time>2021-04-28T13:19:36Z</time>
      </trkpt>
      <trkpt lat="49.86243" lon="2.32147">
        <ele>66.4</ele>
        <time>2021-04-28T13:19:37Z</time>
      </trkpt>
      <trkpt lat="49.86242" lon="2.32146">
        <ele>66.4</ele>
        <time>2021-04-28T13:19:38Z</time>
      </trkpt>
      <trkpt lat="49.86241" lon="2.32145">
        <ele>66.5</ele>
        <time>2021-04-28T13:19:40Z</time>
      </trkpt>
      <trkpt lat="49.86241" lon="2.32144">
        <ele>66.5</ele>
        <time>2021-04-28T13:19:41Z</time>
      </trkpt>
      <trkpt lat="49.86239" lon="2.32142">
        <ele>66.5</ele>
        <time>2021-04-28T13:19:42Z</time>
      </trkpt>
      <trkpt lat="49.86239" lon="2.32142">
        <ele>66.5</ele>
        <time>2021-04-28T13:19:43Z</time>
      </trkpt>
      <trkpt lat="49.86238" lon="2.32141">
        <ele>66.5</ele>
        <time>2021-04-28T13:19:44Z</time>
      </trkpt>
      <trkpt lat="49.86237" lon="2.3214">
        <ele>66.5</ele>
        <time>2021-04-28T13:19:46Z</time>
      </trkpt>
      <trkpt lat="49.86236" lon="2.32139">
        <ele>66.6</ele>
        <time>2021-04-28T13:19:47Z</time>
      </trkpt>
      <trkpt lat="49.86235" lon="2.32138">
        <ele>66.6</ele>
        <time>2021-04-28T13:19:48Z</time>
      </trkpt>
      <trkpt lat="49.86234" lon="2.32137">
        <ele>66.6</ele>
        <time>2021-04-28T13:19:49Z</time>
      </trkpt>
      <trkpt lat="49.86233" lon="2.32136">
        <ele>66.6</ele>
        <time>2021-04-28T13:19:50Z</time>
      </trkpt>
      <trkpt lat="49.86233" lon="2.32135">
        <ele>66.6</ele>
        <time>2021-04-28T13:19:52Z</time>
      </trkpt>
      <trkpt lat="49.86232" lon="2.32133">
        <ele>66.7</ele>
        <time>2021-04-28T13:19:53Z</time>
      </trkpt>
      <trkpt lat="49.86231" lon="2.32132">
        <ele>66.7</ele>
        <time>2021-04-28T13:19:54Z</time>
      </trkpt>
      <trkpt lat="49.86231" lon="2.32131">
        <ele>66.7</ele>
        <time>2021-04-28T13:19:55Z</time>
      </trkpt>
      <trkpt lat="49.8623" lon="2.3213">
        <ele>66.7</ele>
        <time>2021-04-28T13:19:56Z</time>
      </trkpt>
      <trkpt lat="49.86229" lon="2.32128">
        <ele>66.7</ele>
        <time>2021-04-28T13:19:57Z</time>
      </trkpt>
      <trkpt lat="49.86228" lon="2.32128">
        <ele>66.7</ele>
        <time>2021-04-28T13:19:59Z</time>
      </trkpt>
      <trkpt lat="49.86227" lon="2.32127">
        <ele>66.7</ele>
        <time>2021-04-28T13:20:00Z</time>
      </trkpt>
      <trkpt lat="49.86226" lon="2.32126">
        <ele>66.8</ele>
        <time>2021-04-28T13:20:02Z</time>
      </trkpt>
      <trkpt lat="49.86225" lon="2.32125">
        <ele>66.8</ele>
        <time>2021-04-28T13:20:03Z</time>
      </trkpt>
      <trkpt lat="49.86224" lon="2.32123">
        <ele>66.8</ele>
        <time>2021-04-28T13:20:05Z</time>
      </trkpt>
      <trkpt lat="49.86223" lon="2.32122">
        <ele>66.8</ele>
        <time>2021-04-28T13:20:06Z</time>
      </trkpt>
      <trkpt lat="49.86221" lon="2.3212">
        <ele>66.9</ele>
        <time>2021-04-28T13:20:08Z</time>
      </trkpt>
      <trkpt lat="49.86221" lon="2.32119">
        <ele>66.9</ele>
        <time>2021-04-28T13:20:09Z</time>
      </trkpt>
      <trkpt lat="49.8622" lon="2.32118">
        <ele>66.9</ele>
        <time>2021-04-28T13:20:10Z</time>
      </trkpt>
      <trkpt lat="49.86219" lon="2.32117">
        <ele>66.9</ele>
        <time>2021-04-28T13:20:12Z</time>
      </trkpt>
      <trkpt lat="49.86218" lon="2.32116">
        <ele>66.9</ele>
        <time>2021-04-28T13:20:13Z</time>
      </trkpt>
      <trkpt lat="49.86216" lon="2.32114">
        <ele>67</ele>
        <time>2021-04-28T13:20:15Z</time>
      </trkpt>
      <trkpt lat="49.86215" lon="2.32113">
        <ele>67</ele>
        <time>2021-04-28T13:20:16Z</time>
      </trkpt>
      <trkpt lat="49.86214" lon="2.32112">
        <ele>67</ele>
        <time>2021-04-28T13:20:17Z</time>
      </trkpt>
      <trkpt lat="49.86213" lon="2.32111">
        <ele>67</ele>
        <time>2021-04-28T13:20:18Z</time>
      </trkpt>
      <trkpt lat="49.86213" lon="2.3211">
        <ele>67</ele>
        <time>2021-04-28T13:20:20Z</time>
      </trkpt>
      <trkpt lat="49.86212" lon="2.32109">
        <ele>67</ele>
        <time>2021-04-28T13:20:21Z</time>
      </trkpt>
      <trkpt lat="49.86211" lon="2.32108">
        <ele>67.1</ele>
        <time>2021-04-28T13:20:22Z</time>
      </trkpt>
      <trkpt lat="49.8621" lon="2.32107">
        <ele>67.1</ele>
        <time>2021-04-28T13:20:23Z</time>
      </trkpt>
      <trkpt lat="49.86209" lon="2.32106">
        <ele>67.1</ele>
        <time>2021-04-28T13:20:24Z</time>
      </trkpt>
      <trkpt lat="49.86208" lon="2.32104">
        <ele>67.1</ele>
        <time>2021-04-28T13:20:26Z</time>
      </trkpt>
      <trkpt lat="49.8621" lon="2.32101">
        <ele>67.1</ele>
        <time>2021-04-28T13:20:28Z</time>
      </trkpt>
      <trkpt lat="49.8621" lon="2.32102">
        <ele>67.1</ele>
        <time>2021-04-28T13:20:29Z</time>
      </trkpt>
      <trkpt lat="49.8621" lon="2.32105">
        <ele>67.1</ele>
        <time>2021-04-28T13:20:30Z</time>
      </trkpt>
      <trkpt lat="49.86209" lon="2.32104">
        <ele>67.2</ele>
        <time>2021-04-28T13:20:32Z</time>
      </trkpt>
      <trkpt lat="49.86209" lon="2.32103">
        <ele>67.2</ele>
        <time>2021-04-28T13:20:33Z</time>
      </trkpt>
      <trkpt lat="49.86209" lon="2.32101">
        <ele>67.2</ele>
        <time>2021-04-28T13:20:35Z</time>
      </trkpt>
      <trkpt lat="49.8621" lon="2.32099">
        <ele>67.2</ele>
        <time>2021-04-28T13:20:37Z</time>
      </trkpt>
      <trkpt lat="49.86211" lon="2.32099">
        <ele>67.2</ele>
        <time>2021-04-28T13:20:39Z</time>
      </trkpt>
      <trkpt lat="49.86211" lon="2.32099">
        <ele>67.2</ele>
        <time>2021-04-28T13:20:41Z</time>
      </trkpt>
      <trkpt lat="49.86211" lon="2.32099">
        <ele>67.2</ele>
        <time>2021-04-28T13:20:42Z</time>
      </trkpt>
      <trkpt lat="49.86211" lon="2.32099">
        <ele>67.2</ele>
        <time>2021-04-28T13:20:43Z</time>
      </trkpt>
      <trkpt lat="49.86211" lon="2.32099">
        <ele>67.2</ele>
        <time>2021-04-28T13:20:45Z</time>
      </trkpt>
      <trkpt lat="49.86211" lon="2.32099">
        <ele>67.2</ele>
        <time>2021-04-28T13:20:47Z</time>
      </trkpt>
      <trkpt lat="49.86211" lon="2.32099">
        <ele>67.2</ele>
        <time>2021-04-28T13:20:48Z</time>
      </trkpt>
      <trkpt lat="49.86211" lon="2.32099">
        <ele>67.2</ele>
        <time>2021-04-28T13:20:49Z</time>
      </trkpt>
      <trkpt lat="49.86211" lon="2.32099">
        <ele>67.2</ele>
        <time>2021-04-28T13:20:50Z</time>
      </trkpt>
      <trkpt lat="49.86211" lon="2.32099">
        <ele>67.2</ele>
        <time>2021-04-28T13:20:52Z</time>
      </trkpt>
      <trkpt lat="49.86211" lon="2.32098">
        <ele>67.2</ele>
        <time>2021-04-28T13:20:53Z</time>
      </trkpt>
      <trkpt lat="49.8621" lon="2.32099">
        <ele>67.2</ele>
        <time>2021-04-28T13:20:55Z</time>
      </trkpt>
      <trkpt lat="49.86209" lon="2.32099">
        <ele>67.2</ele>
        <time>2021-04-28T13:20:56Z</time>
      </trkpt>
      <trkpt lat="49.86208" lon="2.32099">
        <ele>67.2</ele>
        <time>2021-04-28T13:20:57Z</time>
      </trkpt>
      <trkpt lat="49.86206" lon="2.321">
        <ele>67.2</ele>
        <time>2021-04-28T13:20:58Z</time>
      </trkpt>
      <trkpt lat="49.86204" lon="2.32099">
        <ele>67.2</ele>
        <time>2021-04-28T13:20:59Z</time>
      </trkpt>
      <trkpt lat="49.86202" lon="2.32099">
        <ele>67.2</ele>
        <time>2021-04-28T13:21:01Z</time>
      </trkpt>
      <trkpt lat="49.86201" lon="2.32099">
        <ele>67.2</ele>
        <time>2021-04-28T13:21:02Z</time>
      </trkpt>
      <trkpt lat="49.862" lon="2.32099">
        <ele>67.2</ele>
        <time>2021-04-28T13:21:03Z</time>
      </trkpt>
      <trkpt lat="49.86198" lon="2.32099">
        <ele>67.3</ele>
        <time>2021-04-28T13:21:04Z</time>
      </trkpt>
      <trkpt lat="49.86197" lon="2.32099">
        <ele>67.3</ele>
        <time>2021-04-28T13:21:06Z</time>
      </trkpt>
      <trkpt lat="49.86196" lon="2.32099">
        <ele>67.3</ele>
        <time>2021-04-28T13:21:07Z</time>
      </trkpt>
      <trkpt lat="49.86194" lon="2.32097">
        <ele>67.3</ele>
        <time>2021-04-28T13:21:08Z</time>
      </trkpt>
      <trkpt lat="49.86193" lon="2.32097">
        <ele>67.3</ele>
        <time>2021-04-28T13:21:09Z</time>
      </trkpt>
      <trkpt lat="49.86193" lon="2.32096">
        <ele>67.3</ele>
        <time>2021-04-28T13:21:10Z</time>
      </trkpt>
      <trkpt lat="49.86192" lon="2.32095">
        <ele>67.3</ele>
        <time>2021-04-28T13:21:12Z</time>
      </trkpt>
      <trkpt lat="49.8619" lon="2.32093">
        <ele>67.3</ele>
        <time>2021-04-28T13:21:13Z</time>
      </trkpt>
      <trkpt lat="49.8619" lon="2.32092">
        <ele>67.3</ele>
        <time>2021-04-28T13:21:14Z</time>
      </trkpt>
      <trkpt lat="49.86188" lon="2.3209">
        <ele>67.3</ele>
        <time>2021-04-28T13:21:16Z</time>
      </trkpt>
      <trkpt lat="49.86188" lon="2.32088">
        <ele>67.3</ele>
        <time>2021-04-28T13:21:17Z</time>
      </trkpt>
      <trkpt lat="49.86187" lon="2.32086">
        <ele>67.3</ele>
        <time>2021-04-28T13:21:18Z</time>
      </trkpt>
      <trkpt lat="49.86186" lon="2.32085">
        <ele>67.3</ele>
        <time>2021-04-28T13:21:20Z</time>
      </trkpt>
      <trkpt lat="49.86186" lon="2.32085">
        <ele>67.3</ele>
        <time>2021-04-28T13:21:21Z</time>
      </trkpt>
      <trkpt lat="49.86185" lon="2.32083">
        <ele>67.4</ele>
        <time>2021-04-28T13:21:22Z</time>
      </trkpt>
      <trkpt lat="49.86184" lon="2.32082">
        <ele>67.4</ele>
        <time>2021-04-28T13:21:23Z</time>
      </trkpt>
      <trkpt lat="49.86184" lon="2.32081">
        <ele>67.4</ele>
        <time>2021-04-28T13:21:25Z</time>
      </trkpt>
      <trkpt lat="49.86184" lon="2.32081">
        <ele>67.4</ele>
        <time>2021-04-28T13:21:26Z</time>
      </trkpt>
      <trkpt lat="49.86183" lon="2.32078">
        <ele>67.4</ele>
        <time>2021-04-28T13:21:28Z</time>
      </trkpt>
      <trkpt lat="49.86182" lon="2.32077">
        <ele>67.4</ele>
        <time>2021-04-28T13:21:30Z</time>
      </trkpt>
      <trkpt lat="49.86181" lon="2.32076">
        <ele>67.4</ele>
        <time>2021-04-28T13:21:31Z</time>
      </trkpt>
      <trkpt lat="49.86179" lon="2.32073">
        <ele>67.4</ele>
        <time>2021-04-28T13:21:33Z</time>
      </trkpt>
      <trkpt lat="49.86179" lon="2.32073">
        <ele>67.4</ele>
        <time>2021-04-28T13:21:34Z</time>
      </trkpt>
      <trkpt lat="49.86177" lon="2.32072">
        <ele>67.4</ele>
        <time>2021-04-28T13:21:36Z</time>
      </trkpt>
      <trkpt lat="49.86176" lon="2.32072">
        <ele>67.4</ele>
        <time>2021-04-28T13:21:37Z</time>
      </trkpt>
      <trkpt lat="49.86175" lon="2.3207">
        <ele>67.4</ele>
        <time>2021-04-28T13:21:38Z</time>
      </trkpt>
      <trkpt lat="49.86174" lon="2.32068">
        <ele>67.5</ele>
        <time>2021-04-28T13:21:39Z</time>
      </trkpt>
      <trkpt lat="49.86173" lon="2.32067">
        <ele>67.5</ele>
        <time>2021-04-28T13:21:41Z</time>
      </trkpt>
      <trkpt lat="49.86172" lon="2.32066">
        <ele>67.5</ele>
        <time>2021-04-28T13:21:42Z</time>
      </trkpt>
      <trkpt lat="49.86171" lon="2.32065">
        <ele>67.5</ele>
        <time>2021-04-28T13:21:44Z</time>
      </trkpt>
      <trkpt lat="49.8617" lon="2.32064">
        <ele>67.5</ele>
        <time>2021-04-28T13:21:45Z</time>
      </trkpt>
      <trkpt lat="49.86169" lon="2.32063">
        <ele>67.5</ele>
        <time>2021-04-28T13:21:47Z</time>
      </trkpt>
      <trkpt lat="49.86168" lon="2.32062">
        <ele>67.5</ele>
        <time>2021-04-28T13:21:48Z</time>
      </trkpt>
      <trkpt lat="49.86167" lon="2.32061">
        <ele>67.5</ele>
        <time>2021-04-28T13:21:49Z</time>
      </trkpt>
      <trkpt lat="49.86166" lon="2.3206">
        <ele>67.5</ele>
        <time>2021-04-28T13:21:50Z</time>
      </trkpt>
      <trkpt lat="49.86166" lon="2.32059">
        <ele>67.5</ele>
        <time>2021-04-28T13:21:51Z</time>
      </trkpt>
      <trkpt lat="49.86164" lon="2.32058">
        <ele>67.5</ele>
        <time>2021-04-28T13:21:53Z</time>
      </trkpt>
      <trkpt lat="49.86164" lon="2.32057">
        <ele>67.5</ele>
        <time>2021-04-28T13:21:54Z</time>
      </trkpt>
      <trkpt lat="49.86163" lon="2.32056">
        <ele>67.5</ele>
        <time>2021-04-28T13:21:55Z</time>
      </trkpt>
      <trkpt lat="49.86162" lon="2.32055">
        <ele>67.5</ele>
        <time>2021-04-28T13:21:56Z</time>
      </trkpt>
      <trkpt lat="49.86162" lon="2.32054">
        <ele>67.5</ele>
        <time>2021-04-28T13:21:57Z</time>
      </trkpt>
      <trkpt lat="49.86161" lon="2.32053">
        <ele>67.5</ele>
        <time>2021-04-28T13:21:58Z</time>
      </trkpt>
      <trkpt lat="49.8616" lon="2.32052">
        <ele>67.5</ele>
        <time>2021-04-28T13:21:59Z</time>
      </trkpt>
      <trkpt lat="49.86159" lon="2.32051">
        <ele>67.5</ele>
        <time>2021-04-28T13:22:01Z</time>
      </trkpt>
      <trkpt lat="49.86158" lon="2.3205">
        <ele>67.5</ele>
        <time>2021-04-28T13:22:02Z</time>
      </trkpt>
      <trkpt lat="49.86157" lon="2.32048">
        <ele>67.5</ele>
        <time>2021-04-28T13:22:03Z</time>
      </trkpt>
      <trkpt lat="49.86156" lon="2.32048">
        <ele>67.5</ele>
        <time>2021-04-28T13:22:04Z</time>
      </trkpt>
      <trkpt lat="49.86155" lon="2.32047">
        <ele>67.5</ele>
        <time>2021-04-28T13:22:05Z</time>
      </trkpt>
      <trkpt lat="49.86155" lon="2.32046">
        <ele>67.5</ele>
        <time>2021-04-28T13:22:06Z</time>
      </trkpt>
      <trkpt lat="49.86154" lon="2.32044">
        <ele>67.5</ele>
        <time>2021-04-28T13:22:08Z</time>
      </trkpt>
      <trkpt lat="49.86153" lon="2.32043">
        <ele>67.5</ele>
        <time>2021-04-28T13:22:09Z</time>
      </trkpt>
      <trkpt lat="49.86152" lon="2.32042">
        <ele>67.5</ele>
        <time>2021-04-28T13:22:11Z</time>
      </trkpt>
      <trkpt lat="49.86151" lon="2.32042">
        <ele>67.5</ele>
        <time>2021-04-28T13:22:12Z</time>
      </trkpt>
      <trkpt lat="49.8615" lon="2.3204">
        <ele>67.5</ele>
        <time>2021-04-28T13:22:13Z</time>
      </trkpt>
      <trkpt lat="49.8615" lon="2.3204">
        <ele>67.5</ele>
        <time>2021-04-28T13:22:14Z</time>
      </trkpt>
      <trkpt lat="49.86149" lon="2.32039">
        <ele>67.5</ele>
        <time>2021-04-28T13:22:15Z</time>
      </trkpt>
      <trkpt lat="49.86148" lon="2.32037">
        <ele>67.5</ele>
        <time>2021-04-28T13:22:16Z</time>
      </trkpt>
      <trkpt lat="49.86146" lon="2.32035">
        <ele>67.5</ele>
        <time>2021-04-28T13:22:18Z</time>
      </trkpt>
      <trkpt lat="49.86145" lon="2.32034">
        <ele>67.5</ele>
        <time>2021-04-28T13:22:19Z</time>
      </trkpt>
      <trkpt lat="49.86145" lon="2.32033">
        <ele>67.5</ele>
        <time>2021-04-28T13:22:21Z</time>
      </trkpt>
      <trkpt lat="49.86144" lon="2.32032">
        <ele>67.5</ele>
        <time>2021-04-28T13:22:22Z</time>
      </trkpt>
      <trkpt lat="49.86142" lon="2.3203">
        <ele>67.5</ele>
        <time>2021-04-28T13:22:24Z</time>
      </trkpt>
      <trkpt lat="49.86141" lon="2.32028">
        <ele>67.5</ele>
        <time>2021-04-28T13:22:25Z</time>
      </trkpt>
      <trkpt lat="49.8614" lon="2.32028">
        <ele>67.5</ele>
        <time>2021-04-28T13:22:27Z</time>
      </trkpt>
      <trkpt lat="49.86139" lon="2.32027">
        <ele>67.5</ele>
        <time>2021-04-28T13:22:28Z</time>
      </trkpt>
      <trkpt lat="49.86138" lon="2.32026">
        <ele>67.5</ele>
        <time>2021-04-28T13:22:29Z</time>
      </trkpt>
      <trkpt lat="49.86137" lon="2.32024">
        <ele>67.5</ele>
        <time>2021-04-28T13:22:31Z</time>
      </trkpt>
      <trkpt lat="49.86137" lon="2.32023">
        <ele>67.5</ele>
        <time>2021-04-28T13:22:32Z</time>
      </trkpt>
      <trkpt lat="49.86136" lon="2.32021">
        <ele>67.5</ele>
        <time>2021-04-28T13:22:33Z</time>
      </trkpt>
      <trkpt lat="49.86136" lon="2.3202">
        <ele>67.5</ele>
        <time>2021-04-28T13:22:34Z</time>
      </trkpt>
      <trkpt lat="49.86135" lon="2.32018">
        <ele>67.5</ele>
        <time>2021-04-28T13:22:36Z</time>
      </trkpt>
      <trkpt lat="49.86135" lon="2.32017">
        <ele>67.6</ele>
        <time>2021-04-28T13:22:37Z</time>
      </trkpt>
      <trkpt lat="49.86135" lon="2.32014">
        <ele>67.6</ele>
        <time>2021-04-28T13:22:38Z</time>
      </trkpt>
      <trkpt lat="49.86134" lon="2.32013">
        <ele>67.6</ele>
        <time>2021-04-28T13:22:39Z</time>
      </trkpt>
      <trkpt lat="49.86134" lon="2.32012">
        <ele>67.6</ele>
        <time>2021-04-28T13:22:40Z</time>
      </trkpt>
      <trkpt lat="49.86133" lon="2.32012">
        <ele>67.6</ele>
        <time>2021-04-28T13:22:42Z</time>
      </trkpt>
      <trkpt lat="49.86132" lon="2.32011">
        <ele>67.6</ele>
        <time>2021-04-28T13:22:43Z</time>
      </trkpt>
      <trkpt lat="49.8613" lon="2.3201">
        <ele>67.6</ele>
        <time>2021-04-28T13:22:44Z</time>
      </trkpt>
      <trkpt lat="49.86129" lon="2.32009">
        <ele>67.6</ele>
        <time>2021-04-28T13:22:46Z</time>
      </trkpt>
      <trkpt lat="49.86129" lon="2.32008">
        <ele>67.6</ele>
        <time>2021-04-28T13:22:47Z</time>
      </trkpt>
      <trkpt lat="49.86128" lon="2.32008">
        <ele>67.6</ele>
        <time>2021-04-28T13:22:48Z</time>
      </trkpt>
      <trkpt lat="49.86127" lon="2.32007">
        <ele>67.6</ele>
        <time>2021-04-28T13:22:49Z</time>
      </trkpt>
      <trkpt lat="49.86126" lon="2.32007">
        <ele>67.6</ele>
        <time>2021-04-28T13:22:51Z</time>
      </trkpt>
      <trkpt lat="49.86125" lon="2.32006">
        <ele>67.6</ele>
        <time>2021-04-28T13:22:52Z</time>
      </trkpt>
      <trkpt lat="49.86124" lon="2.32005">
        <ele>67.6</ele>
        <time>2021-04-28T13:22:54Z</time>
      </trkpt>
      <trkpt lat="49.86123" lon="2.32002">
        <ele>67.7</ele>
        <time>2021-04-28T13:22:55Z</time>
      </trkpt>
      <trkpt lat="49.86122" lon="2.32001">
        <ele>67.7</ele>
        <time>2021-04-28T13:22:57Z</time>
      </trkpt>
      <trkpt lat="49.86122" lon="2.31999">
        <ele>67.7</ele>
        <time>2021-04-28T13:22:58Z</time>
      </trkpt>
      <trkpt lat="49.86121" lon="2.31998">
        <ele>67.7</ele>
        <time>2021-04-28T13:23:00Z</time>
      </trkpt>
      <trkpt lat="49.8612" lon="2.31997">
        <ele>67.7</ele>
        <time>2021-04-28T13:23:01Z</time>
      </trkpt>
      <trkpt lat="49.86119" lon="2.31996">
        <ele>67.7</ele>
        <time>2021-04-28T13:23:02Z</time>
      </trkpt>
      <trkpt lat="49.86118" lon="2.31995">
        <ele>67.7</ele>
        <time>2021-04-28T13:23:03Z</time>
      </trkpt>
      <trkpt lat="49.86118" lon="2.31993">
        <ele>67.7</ele>
        <time>2021-04-28T13:23:04Z</time>
      </trkpt>
      <trkpt lat="49.86116" lon="2.31992">
        <ele>67.7</ele>
        <time>2021-04-28T13:23:06Z</time>
      </trkpt>
      <trkpt lat="49.86115" lon="2.3199">
        <ele>67.7</ele>
        <time>2021-04-28T13:23:07Z</time>
      </trkpt>
      <trkpt lat="49.86115" lon="2.31989">
        <ele>67.8</ele>
        <time>2021-04-28T13:23:08Z</time>
      </trkpt>
      <trkpt lat="49.86114" lon="2.31987">
        <ele>67.8</ele>
        <time>2021-04-28T13:23:10Z</time>
      </trkpt>
      <trkpt lat="49.86114" lon="2.31984">
        <ele>67.8</ele>
        <time>2021-04-28T13:23:12Z</time>
      </trkpt>
      <trkpt lat="49.86115" lon="2.31984">
        <ele>67.8</ele>
        <time>2021-04-28T13:23:13Z</time>
      </trkpt>
      <trkpt lat="49.86115" lon="2.31983">
        <ele>67.8</ele>
        <time>2021-04-28T13:23:14Z</time>
      </trkpt>
      <trkpt lat="49.86115" lon="2.31982">
        <ele>67.8</ele>
        <time>2021-04-28T13:23:16Z</time>
      </trkpt>
      <trkpt lat="49.86115" lon="2.31981">
        <ele>67.8</ele>
        <time>2021-04-28T13:23:17Z</time>
      </trkpt>
      <trkpt lat="49.86116" lon="2.31981">
        <ele>67.8</ele>
        <time>2021-04-28T13:23:18Z</time>
      </trkpt>
      <trkpt lat="49.86116" lon="2.31979">
        <ele>67.9</ele>
        <time>2021-04-28T13:23:20Z</time>
      </trkpt>
      <trkpt lat="49.86115" lon="2.31979">
        <ele>67.9</ele>
        <time>2021-04-28T13:23:21Z</time>
      </trkpt>
      <trkpt lat="49.86115" lon="2.31978">
        <ele>67.9</ele>
        <time>2021-04-28T13:23:23Z</time>
      </trkpt>
      <trkpt lat="49.86115" lon="2.31977">
        <ele>67.9</ele>
        <time>2021-04-28T13:23:24Z</time>
      </trkpt>
      <trkpt lat="49.86115" lon="2.31977">
        <ele>67.9</ele>
        <time>2021-04-28T13:23:25Z</time>
      </trkpt>
      <trkpt lat="49.86115" lon="2.31977">
        <ele>67.9</ele>
        <time>2021-04-28T13:23:26Z</time>
      </trkpt>
      <trkpt lat="49.86114" lon="2.31977">
        <ele>67.9</ele>
        <time>2021-04-28T13:23:27Z</time>
      </trkpt>
      <trkpt lat="49.86114" lon="2.31977">
        <ele>67.9</ele>
        <time>2021-04-28T13:23:29Z</time>
      </trkpt>
      <trkpt lat="49.86113" lon="2.31976">
        <ele>67.9</ele>
        <time>2021-04-28T13:23:30Z</time>
      </trkpt>
      <trkpt lat="49.86111" lon="2.31975">
        <ele>67.9</ele>
        <time>2021-04-28T13:23:32Z</time>
      </trkpt>
      <trkpt lat="49.86109" lon="2.31975">
        <ele>68</ele>
        <time>2021-04-28T13:23:33Z</time>
      </trkpt>
      <trkpt lat="49.86108" lon="2.31975">
        <ele>68</ele>
        <time>2021-04-28T13:23:34Z</time>
      </trkpt>
      <trkpt lat="49.86107" lon="2.31975">
        <ele>68</ele>
        <time>2021-04-28T13:23:35Z</time>
      </trkpt>
      <trkpt lat="49.86106" lon="2.31974">
        <ele>68</ele>
        <time>2021-04-28T13:23:37Z</time>
      </trkpt>
      <trkpt lat="49.86104" lon="2.31974">
        <ele>68.1</ele>
        <time>2021-04-28T13:23:38Z</time>
      </trkpt>
      <trkpt lat="49.86103" lon="2.31974">
        <ele>68.1</ele>
        <time>2021-04-28T13:23:39Z</time>
      </trkpt>
      <trkpt lat="49.86102" lon="2.31973">
        <ele>68.1</ele>
        <time>2021-04-28T13:23:40Z</time>
      </trkpt>
      <trkpt lat="49.86101" lon="2.31972">
        <ele>68.1</ele>
        <time>2021-04-28T13:23:41Z</time>
      </trkpt>
      <trkpt lat="49.861" lon="2.31971">
        <ele>68.2</ele>
        <time>2021-04-28T13:23:43Z</time>
      </trkpt>
      <trkpt lat="49.86099" lon="2.3197">
        <ele>68.2</ele>
        <time>2021-04-28T13:23:44Z</time>
      </trkpt>
      <trkpt lat="49.86098" lon="2.31969">
        <ele>68.2</ele>
        <time>2021-04-28T13:23:45Z</time>
      </trkpt>
      <trkpt lat="49.86098" lon="2.31968">
        <ele>68.2</ele>
        <time>2021-04-28T13:23:46Z</time>
      </trkpt>
      <trkpt lat="49.86097" lon="2.31966">
        <ele>68.3</ele>
        <time>2021-04-28T13:23:47Z</time>
      </trkpt>
      <trkpt lat="49.86095" lon="2.31964">
        <ele>68.3</ele>
        <time>2021-04-28T13:23:48Z</time>
      </trkpt>
      <trkpt lat="49.86095" lon="2.31963">
        <ele>68.3</ele>
        <time>2021-04-28T13:23:50Z</time>
      </trkpt>
      <trkpt lat="49.86094" lon="2.31961">
        <ele>68.4</ele>
        <time>2021-04-28T13:23:51Z</time>
      </trkpt>
      <trkpt lat="49.86093" lon="2.3196">
        <ele>68.4</ele>
        <time>2021-04-28T13:23:52Z</time>
      </trkpt>
      <trkpt lat="49.86092" lon="2.31957">
        <ele>68.4</ele>
        <time>2021-04-28T13:23:54Z</time>
      </trkpt>
      <trkpt lat="49.86092" lon="2.31956">
        <ele>68.5</ele>
        <time>2021-04-28T13:23:55Z</time>
      </trkpt>
      <trkpt lat="49.86091" lon="2.31955">
        <ele>68.5</ele>
        <time>2021-04-28T13:23:56Z</time>
      </trkpt>
      <trkpt lat="49.8609" lon="2.31953">
        <ele>68.5</ele>
        <time>2021-04-28T13:23:57Z</time>
      </trkpt>
      <trkpt lat="49.86089" lon="2.31951">
        <ele>68.6</ele>
        <time>2021-04-28T13:23:58Z</time>
      </trkpt>
      <trkpt lat="49.86089" lon="2.3195">
        <ele>68.6</ele>
        <time>2021-04-28T13:24:00Z</time>
      </trkpt>
      <trkpt lat="49.86088" lon="2.31949">
        <ele>68.6</ele>
        <time>2021-04-28T13:24:01Z</time>
      </trkpt>
      <trkpt lat="49.86087" lon="2.31947">
        <ele>68.6</ele>
        <time>2021-04-28T13:24:03Z</time>
      </trkpt>
      <trkpt lat="49.86086" lon="2.31945">
        <ele>68.7</ele>
        <time>2021-04-28T13:24:04Z</time>
      </trkpt>
      <trkpt lat="49.86085" lon="2.31944">
        <ele>68.7</ele>
        <time>2021-04-28T13:24:05Z</time>
      </trkpt>
      <trkpt lat="49.86084" lon="2.31943">
        <ele>68.7</ele>
        <time>2021-04-28T13:24:06Z</time>
      </trkpt>
      <trkpt lat="49.86083" lon="2.31942">
        <ele>68.7</ele>
        <time>2021-04-28T13:24:08Z</time>
      </trkpt>
      <trkpt lat="49.86083" lon="2.31941">
        <ele>68.8</ele>
        <time>2021-04-28T13:24:09Z</time>
      </trkpt>
      <trkpt lat="49.86082" lon="2.3194">
        <ele>68.8</ele>
        <time>2021-04-28T13:24:10Z</time>
      </trkpt>
      <trkpt lat="49.86081" lon="2.31939">
        <ele>68.8</ele>
        <time>2021-04-28T13:24:11Z</time>
      </trkpt>
      <trkpt lat="49.8608" lon="2.31937">
        <ele>68.8</ele>
        <time>2021-04-28T13:24:12Z</time>
      </trkpt>
      <trkpt lat="49.86079" lon="2.31935">
        <ele>68.9</ele>
        <time>2021-04-28T13:24:14Z</time>
      </trkpt>
      <trkpt lat="49.86079" lon="2.31934">
        <ele>68.9</ele>
        <time>2021-04-28T13:24:15Z</time>
      </trkpt>
      <trkpt lat="49.86078" lon="2.31933">
        <ele>68.9</ele>
        <time>2021-04-28T13:24:16Z</time>
      </trkpt>
      <trkpt lat="49.86078" lon="2.31932">
        <ele>68.9</ele>
        <time>2021-04-28T13:24:17Z</time>
      </trkpt>
      <trkpt lat="49.86077" lon="2.3193">
        <ele>69</ele>
        <time>2021-04-28T13:24:19Z</time>
      </trkpt>
      <trkpt lat="49.86076" lon="2.3193">
        <ele>69</ele>
        <time>2021-04-28T13:24:20Z</time>
      </trkpt>
      <trkpt lat="49.86075" lon="2.31929">
        <ele>69</ele>
        <time>2021-04-28T13:24:21Z</time>
      </trkpt>
      <trkpt lat="49.86074" lon="2.31927">
        <ele>69.1</ele>
        <time>2021-04-28T13:24:23Z</time>
      </trkpt>
      <trkpt lat="49.86074" lon="2.31925">
        <ele>69.1</ele>
        <time>2021-04-28T13:24:24Z</time>
      </trkpt>
      <trkpt lat="49.86073" lon="2.31924">
        <ele>69.1</ele>
        <time>2021-04-28T13:24:25Z</time>
      </trkpt>
      <trkpt lat="49.86072" lon="2.31922">
        <ele>69.2</ele>
        <time>2021-04-28T13:24:26Z</time>
      </trkpt>
      <trkpt lat="49.86071" lon="2.31922">
        <ele>69.2</ele>
        <time>2021-04-28T13:24:28Z</time>
      </trkpt>
      <trkpt lat="49.86071" lon="2.3192">
        <ele>69.2</ele>
        <time>2021-04-28T13:24:29Z</time>
      </trkpt>
      <trkpt lat="49.86069" lon="2.31918">
        <ele>69.3</ele>
        <time>2021-04-28T13:24:31Z</time>
      </trkpt>
      <trkpt lat="49.86068" lon="2.31916">
        <ele>69.3</ele>
        <time>2021-04-28T13:24:32Z</time>
      </trkpt>
      <trkpt lat="49.86067" lon="2.31915">
        <ele>69.4</ele>
        <time>2021-04-28T13:24:33Z</time>
      </trkpt>
      <trkpt lat="49.86067" lon="2.31914">
        <ele>69.4</ele>
        <time>2021-04-28T13:24:34Z</time>
      </trkpt>
      <trkpt lat="49.86066" lon="2.31913">
        <ele>69.4</ele>
        <time>2021-04-28T13:24:36Z</time>
      </trkpt>
      <trkpt lat="49.86066" lon="2.31912">
        <ele>69.4</ele>
        <time>2021-04-28T13:24:37Z</time>
      </trkpt>
      <trkpt lat="49.86065" lon="2.31911">
        <ele>69.5</ele>
        <time>2021-04-28T13:24:38Z</time>
      </trkpt>
      <trkpt lat="49.86064" lon="2.31908">
        <ele>69.5</ele>
        <time>2021-04-28T13:24:40Z</time>
      </trkpt>
      <trkpt lat="49.86064" lon="2.31907">
        <ele>69.5</ele>
        <time>2021-04-28T13:24:41Z</time>
      </trkpt>
      <trkpt lat="49.86063" lon="2.31906">
        <ele>69.6</ele>
        <time>2021-04-28T13:24:42Z</time>
      </trkpt>
      <trkpt lat="49.86062" lon="2.31904">
        <ele>69.6</ele>
        <time>2021-04-28T13:24:44Z</time>
      </trkpt>
      <trkpt lat="49.86062" lon="2.31903">
        <ele>69.6</ele>
        <time>2021-04-28T13:24:45Z</time>
      </trkpt>
      <trkpt lat="49.86061" lon="2.31902">
        <ele>69.7</ele>
        <time>2021-04-28T13:24:46Z</time>
      </trkpt>
      <trkpt lat="49.86061" lon="2.31901">
        <ele>69.7</ele>
        <time>2021-04-28T13:24:47Z</time>
      </trkpt>
      <trkpt lat="49.8606" lon="2.319">
        <ele>69.7</ele>
        <time>2021-04-28T13:24:48Z</time>
      </trkpt>
      <trkpt lat="49.86059" lon="2.31897">
        <ele>69.8</ele>
        <time>2021-04-28T13:24:49Z</time>
      </trkpt>
      <trkpt lat="49.86058" lon="2.31896">
        <ele>69.8</ele>
        <time>2021-04-28T13:24:50Z</time>
      </trkpt>
      <trkpt lat="49.86057" lon="2.31895">
        <ele>69.8</ele>
        <time>2021-04-28T13:24:52Z</time>
      </trkpt>
      <trkpt lat="49.86056" lon="2.31894">
        <ele>69.9</ele>
        <time>2021-04-28T13:24:53Z</time>
      </trkpt>
      <trkpt lat="49.86056" lon="2.31893">
        <ele>69.9</ele>
        <time>2021-04-28T13:24:54Z</time>
      </trkpt>
      <trkpt lat="49.86055" lon="2.31892">
        <ele>69.9</ele>
        <time>2021-04-28T13:24:56Z</time>
      </trkpt>
      <trkpt lat="49.86054" lon="2.3189">
        <ele>70</ele>
        <time>2021-04-28T13:24:57Z</time>
      </trkpt>
      <trkpt lat="49.86053" lon="2.31889">
        <ele>70</ele>
        <time>2021-04-28T13:24:58Z</time>
      </trkpt>
      <trkpt lat="49.86052" lon="2.31888">
        <ele>70</ele>
        <time>2021-04-28T13:24:59Z</time>
      </trkpt>
      <trkpt lat="49.86052" lon="2.31887">
        <ele>70</ele>
        <time>2021-04-28T13:25:01Z</time>
      </trkpt>
      <trkpt lat="49.86051" lon="2.31886">
        <ele>70.1</ele>
        <time>2021-04-28T13:25:02Z</time>
      </trkpt>
      <trkpt lat="49.8605" lon="2.31885">
        <ele>70.1</ele>
        <time>2021-04-28T13:25:03Z</time>
      </trkpt>
      <trkpt lat="49.86049" lon="2.31884">
        <ele>70.2</ele>
        <time>2021-04-28T13:25:04Z</time>
      </trkpt>
      <trkpt lat="49.86048" lon="2.31883">
        <ele>70.2</ele>
        <time>2021-04-28T13:25:05Z</time>
      </trkpt>
      <trkpt lat="49.86048" lon="2.31881">
        <ele>70.2</ele>
        <time>2021-04-28T13:25:06Z</time>
      </trkpt>
      <trkpt lat="49.86047" lon="2.3188">
        <ele>70.2</ele>
        <time>2021-04-28T13:25:07Z</time>
      </trkpt>
      <trkpt lat="49.86046" lon="2.31878">
        <ele>70.3</ele>
        <time>2021-04-28T13:25:09Z</time>
      </trkpt>
      <trkpt lat="49.86045" lon="2.31877">
        <ele>70.3</ele>
        <time>2021-04-28T13:25:10Z</time>
      </trkpt>
      <trkpt lat="49.86045" lon="2.31876">
        <ele>70.4</ele>
        <time>2021-04-28T13:25:12Z</time>
      </trkpt>
      <trkpt lat="49.86044" lon="2.31874">
        <ele>70.4</ele>
        <time>2021-04-28T13:25:13Z</time>
      </trkpt>
      <trkpt lat="49.86043" lon="2.31873">
        <ele>70.4</ele>
        <time>2021-04-28T13:25:14Z</time>
      </trkpt>
      <trkpt lat="49.86043" lon="2.31872">
        <ele>70.5</ele>
        <time>2021-04-28T13:25:15Z</time>
      </trkpt>
      <trkpt lat="49.86043" lon="2.3187">
        <ele>70.5</ele>
        <time>2021-04-28T13:25:17Z</time>
      </trkpt>
      <trkpt lat="49.86042" lon="2.31869">
        <ele>70.5</ele>
        <time>2021-04-28T13:25:18Z</time>
      </trkpt>
      <trkpt lat="49.86042" lon="2.31866">
        <ele>70.6</ele>
        <time>2021-04-28T13:25:19Z</time>
      </trkpt>
      <trkpt lat="49.86041" lon="2.31865">
        <ele>70.7</ele>
        <time>2021-04-28T13:25:20Z</time>
      </trkpt>
      <trkpt lat="49.8604" lon="2.31863">
        <ele>70.7</ele>
        <time>2021-04-28T13:25:21Z</time>
      </trkpt>
      <trkpt lat="49.8604" lon="2.31862">
        <ele>70.7</ele>
        <time>2021-04-28T13:25:23Z</time>
      </trkpt>
      <trkpt lat="49.86039" lon="2.31859">
        <ele>70.8</ele>
        <time>2021-04-28T13:25:24Z</time>
      </trkpt>
      <trkpt lat="49.86038" lon="2.31859">
        <ele>70.8</ele>
        <time>2021-04-28T13:25:25Z</time>
      </trkpt>
      <trkpt lat="49.86038" lon="2.31858">
        <ele>70.9</ele>
        <time>2021-04-28T13:25:26Z</time>
      </trkpt>
      <trkpt lat="49.86036" lon="2.31856">
        <ele>70.9</ele>
        <time>2021-04-28T13:25:27Z</time>
      </trkpt>
      <trkpt lat="49.86036" lon="2.31854">
        <ele>71</ele>
        <time>2021-04-28T13:25:28Z</time>
      </trkpt>
      <trkpt lat="49.86035" lon="2.31853">
        <ele>71</ele>
        <time>2021-04-28T13:25:30Z</time>
      </trkpt>
      <trkpt lat="49.86034" lon="2.31852">
        <ele>71</ele>
        <time>2021-04-28T13:25:31Z</time>
      </trkpt>
      <trkpt lat="49.86034" lon="2.31851">
        <ele>71.1</ele>
        <time>2021-04-28T13:25:32Z</time>
      </trkpt>
      <trkpt lat="49.86033" lon="2.3185">
        <ele>71.1</ele>
        <time>2021-04-28T13:25:33Z</time>
      </trkpt>
      <trkpt lat="49.86033" lon="2.31849">
        <ele>71.1</ele>
        <time>2021-04-28T13:25:34Z</time>
      </trkpt>
      <trkpt lat="49.86032" lon="2.31848">
        <ele>71.2</ele>
        <time>2021-04-28T13:25:36Z</time>
      </trkpt>
      <trkpt lat="49.86031" lon="2.31847">
        <ele>71.2</ele>
        <time>2021-04-28T13:25:37Z</time>
      </trkpt>
      <trkpt lat="49.8603" lon="2.31845">
        <ele>71.3</ele>
        <time>2021-04-28T13:25:39Z</time>
      </trkpt>
      <trkpt lat="49.86029" lon="2.31843">
        <ele>71.3</ele>
        <time>2021-04-28T13:25:41Z</time>
      </trkpt>
      <trkpt lat="49.86028" lon="2.31842">
        <ele>71.4</ele>
        <time>2021-04-28T13:25:42Z</time>
      </trkpt>
      <trkpt lat="49.86027" lon="2.31839">
        <ele>71.4</ele>
        <time>2021-04-28T13:25:44Z</time>
      </trkpt>
      <trkpt lat="49.86026" lon="2.31838">
        <ele>71.5</ele>
        <time>2021-04-28T13:25:46Z</time>
      </trkpt>
      <trkpt lat="49.86026" lon="2.31836">
        <ele>71.5</ele>
        <time>2021-04-28T13:25:47Z</time>
      </trkpt>
      <trkpt lat="49.86026" lon="2.31835">
        <ele>71.6</ele>
        <time>2021-04-28T13:25:48Z</time>
      </trkpt>
      <trkpt lat="49.86025" lon="2.31833">
        <ele>71.6</ele>
        <time>2021-04-28T13:25:49Z</time>
      </trkpt>
      <trkpt lat="49.86025" lon="2.31832">
        <ele>71.7</ele>
        <time>2021-04-28T13:25:51Z</time>
      </trkpt>
      <trkpt lat="49.86024" lon="2.31831">
        <ele>71.7</ele>
        <time>2021-04-28T13:25:52Z</time>
      </trkpt>
      <trkpt lat="49.86022" lon="2.31827">
        <ele>71.8</ele>
        <time>2021-04-28T13:25:54Z</time>
      </trkpt>
      <trkpt lat="49.86021" lon="2.31826">
        <ele>71.9</ele>
        <time>2021-04-28T13:25:56Z</time>
      </trkpt>
      <trkpt lat="49.86021" lon="2.31824">
        <ele>71.9</ele>
        <time>2021-04-28T13:25:57Z</time>
      </trkpt>
      <trkpt lat="49.8602" lon="2.31823">
        <ele>71.9</ele>
        <time>2021-04-28T13:25:58Z</time>
      </trkpt>
      <trkpt lat="49.8602" lon="2.31822">
        <ele>72</ele>
        <time>2021-04-28T13:25:59Z</time>
      </trkpt>
      <trkpt lat="49.86019" lon="2.31821">
        <ele>72</ele>
        <time>2021-04-28T13:26:00Z</time>
      </trkpt>
      <trkpt lat="49.86019" lon="2.31819">
        <ele>72.1</ele>
        <time>2021-04-28T13:26:02Z</time>
      </trkpt>
      <trkpt lat="49.86019" lon="2.31818">
        <ele>72.1</ele>
        <time>2021-04-28T13:26:03Z</time>
      </trkpt>
      <trkpt lat="49.86018" lon="2.31816">
        <ele>72.2</ele>
        <time>2021-04-28T13:26:04Z</time>
      </trkpt>
      <trkpt lat="49.86017" lon="2.31814">
        <ele>72.2</ele>
        <time>2021-04-28T13:26:06Z</time>
      </trkpt>
      <trkpt lat="49.86017" lon="2.31813">
        <ele>72.3</ele>
        <time>2021-04-28T13:26:07Z</time>
      </trkpt>
      <trkpt lat="49.86015" lon="2.31809">
        <ele>72.4</ele>
        <time>2021-04-28T13:26:09Z</time>
      </trkpt>
      <trkpt lat="49.86014" lon="2.31808">
        <ele>72.4</ele>
        <time>2021-04-28T13:26:11Z</time>
      </trkpt>
      <trkpt lat="49.86014" lon="2.31807">
        <ele>72.4</ele>
        <time>2021-04-28T13:26:12Z</time>
      </trkpt>
      <trkpt lat="49.86013" lon="2.31806">
        <ele>72.5</ele>
        <time>2021-04-28T13:26:13Z</time>
      </trkpt>
      <trkpt lat="49.86013" lon="2.31804">
        <ele>72.5</ele>
        <time>2021-04-28T13:26:14Z</time>
      </trkpt>
      <trkpt lat="49.86012" lon="2.31803">
        <ele>72.6</ele>
        <time>2021-04-28T13:26:16Z</time>
      </trkpt>
      <trkpt lat="49.86011" lon="2.31802">
        <ele>72.6</ele>
        <time>2021-04-28T13:26:17Z</time>
      </trkpt>
      <trkpt lat="49.86011" lon="2.318">
        <ele>72.7</ele>
        <time>2021-04-28T13:26:18Z</time>
      </trkpt>
      <trkpt lat="49.8601" lon="2.31799">
        <ele>72.7</ele>
        <time>2021-04-28T13:26:19Z</time>
      </trkpt>
      <trkpt lat="49.86009" lon="2.31798">
        <ele>72.8</ele>
        <time>2021-04-28T13:26:21Z</time>
      </trkpt>
      <trkpt lat="49.86009" lon="2.31797">
        <ele>72.8</ele>
        <time>2021-04-28T13:26:22Z</time>
      </trkpt>
      <trkpt lat="49.86008" lon="2.31795">
        <ele>72.9</ele>
        <time>2021-04-28T13:26:23Z</time>
      </trkpt>
      <trkpt lat="49.86007" lon="2.31793">
        <ele>72.9</ele>
        <time>2021-04-28T13:26:24Z</time>
      </trkpt>
      <trkpt lat="49.86007" lon="2.31792">
        <ele>73</ele>
        <time>2021-04-28T13:26:26Z</time>
      </trkpt>
      <trkpt lat="49.86006" lon="2.31791">
        <ele>73</ele>
        <time>2021-04-28T13:26:27Z</time>
      </trkpt>
      <trkpt lat="49.86006" lon="2.3179">
        <ele>73</ele>
        <time>2021-04-28T13:26:28Z</time>
      </trkpt>
      <trkpt lat="49.86005" lon="2.31788">
        <ele>73.1</ele>
        <time>2021-04-28T13:26:30Z</time>
      </trkpt>
      <trkpt lat="49.86005" lon="2.31787">
        <ele>73.1</ele>
        <time>2021-04-28T13:26:31Z</time>
      </trkpt>
      <trkpt lat="49.86005" lon="2.31785">
        <ele>73.1</ele>
        <time>2021-04-28T13:26:32Z</time>
      </trkpt>
      <trkpt lat="49.86004" lon="2.31784">
        <ele>73.1</ele>
        <time>2021-04-28T13:26:33Z</time>
      </trkpt>
      <trkpt lat="49.86004" lon="2.31782">
        <ele>73.2</ele>
        <time>2021-04-28T13:26:35Z</time>
      </trkpt>
      <trkpt lat="49.86003" lon="2.31781">
        <ele>73.2</ele>
        <time>2021-04-28T13:26:36Z</time>
      </trkpt>
      <trkpt lat="49.86003" lon="2.31779">
        <ele>73.3</ele>
        <time>2021-04-28T13:26:37Z</time>
      </trkpt>
      <trkpt lat="49.86002" lon="2.31778">
        <ele>73.3</ele>
        <time>2021-04-28T13:26:38Z</time>
      </trkpt>
      <trkpt lat="49.86001" lon="2.31777">
        <ele>73.4</ele>
        <time>2021-04-28T13:26:40Z</time>
      </trkpt>
      <trkpt lat="49.86001" lon="2.31775">
        <ele>73.4</ele>
        <time>2021-04-28T13:26:41Z</time>
      </trkpt>
      <trkpt lat="49.86" lon="2.31774">
        <ele>73.5</ele>
        <time>2021-04-28T13:26:42Z</time>
      </trkpt>
      <trkpt lat="49.86" lon="2.31772">
        <ele>73.6</ele>
        <time>2021-04-28T13:26:43Z</time>
      </trkpt>
      <trkpt lat="49.85999" lon="2.31771">
        <ele>73.6</ele>
        <time>2021-04-28T13:26:45Z</time>
      </trkpt>
      <trkpt lat="49.85999" lon="2.3177">
        <ele>73.6</ele>
        <time>2021-04-28T13:26:46Z</time>
      </trkpt>
      <trkpt lat="49.85998" lon="2.31767">
        <ele>73.7</ele>
        <time>2021-04-28T13:26:47Z</time>
      </trkpt>
      <trkpt lat="49.85998" lon="2.31766">
        <ele>73.7</ele>
        <time>2021-04-28T13:26:48Z</time>
      </trkpt>
      <trkpt lat="49.85998" lon="2.31764">
        <ele>73.8</ele>
        <time>2021-04-28T13:26:50Z</time>
      </trkpt>
      <trkpt lat="49.85997" lon="2.31762">
        <ele>73.8</ele>
        <time>2021-04-28T13:26:51Z</time>
      </trkpt>
      <trkpt lat="49.85997" lon="2.31761">
        <ele>73.9</ele>
        <time>2021-04-28T13:26:52Z</time>
      </trkpt>
      <trkpt lat="49.85997" lon="2.3176">
        <ele>73.9</ele>
        <time>2021-04-28T13:26:54Z</time>
      </trkpt>
      <trkpt lat="49.85997" lon="2.31758">
        <ele>73.9</ele>
        <time>2021-04-28T13:26:55Z</time>
      </trkpt>
      <trkpt lat="49.85998" lon="2.31758">
        <ele>74</ele>
        <time>2021-04-28T13:26:56Z</time>
      </trkpt>
      <trkpt lat="49.85998" lon="2.31757">
        <ele>74</ele>
        <time>2021-04-28T13:26:58Z</time>
      </trkpt>
      <trkpt lat="49.85998" lon="2.31756">
        <ele>74.1</ele>
        <time>2021-04-28T13:26:59Z</time>
      </trkpt>
      <trkpt lat="49.85998" lon="2.31754">
        <ele>74.1</ele>
        <time>2021-04-28T13:27:00Z</time>
      </trkpt>
      <trkpt lat="49.85997" lon="2.31752">
        <ele>74.2</ele>
        <time>2021-04-28T13:27:01Z</time>
      </trkpt>
      <trkpt lat="49.85997" lon="2.31751">
        <ele>74.2</ele>
        <time>2021-04-28T13:27:03Z</time>
      </trkpt>
      <trkpt lat="49.85996" lon="2.3175">
        <ele>74.3</ele>
        <time>2021-04-28T13:27:04Z</time>
      </trkpt>
      <trkpt lat="49.85994" lon="2.31747">
        <ele>74.4</ele>
        <time>2021-04-28T13:27:06Z</time>
      </trkpt>
      <trkpt lat="49.85993" lon="2.31746">
        <ele>74.4</ele>
        <time>2021-04-28T13:27:07Z</time>
      </trkpt>
      <trkpt lat="49.85991" lon="2.31743">
        <ele>74.5</ele>
        <time>2021-04-28T13:27:08Z</time>
      </trkpt>
      <trkpt lat="49.85991" lon="2.31742">
        <ele>74.6</ele>
        <time>2021-04-28T13:27:10Z</time>
      </trkpt>
      <trkpt lat="49.8599" lon="2.31741">
        <ele>74.6</ele>
        <time>2021-04-28T13:27:11Z</time>
      </trkpt>
      <trkpt lat="49.85989" lon="2.3174">
        <ele>74.7</ele>
        <time>2021-04-28T13:27:13Z</time>
      </trkpt>
      <trkpt lat="49.85988" lon="2.31739">
        <ele>74.7</ele>
        <time>2021-04-28T13:27:14Z</time>
      </trkpt>
      <trkpt lat="49.85987" lon="2.31737">
        <ele>74.7</ele>
        <time>2021-04-28T13:27:15Z</time>
      </trkpt>
      <trkpt lat="49.85987" lon="2.31736">
        <ele>74.7</ele>
        <time>2021-04-28T13:27:16Z</time>
      </trkpt>
      <trkpt lat="49.85986" lon="2.31735">
        <ele>74.8</ele>
        <time>2021-04-28T13:27:18Z</time>
      </trkpt>
      <trkpt lat="49.85985" lon="2.31734">
        <ele>74.8</ele>
        <time>2021-04-28T13:27:19Z</time>
      </trkpt>
      <trkpt lat="49.85984" lon="2.31732">
        <ele>74.9</ele>
        <time>2021-04-28T13:27:20Z</time>
      </trkpt>
      <trkpt lat="49.85984" lon="2.3173">
        <ele>75</ele>
        <time>2021-04-28T13:27:21Z</time>
      </trkpt>
      <trkpt lat="49.85984" lon="2.31729">
        <ele>75</ele>
        <time>2021-04-28T13:27:23Z</time>
      </trkpt>
      <trkpt lat="49.85984" lon="2.31728">
        <ele>75</ele>
        <time>2021-04-28T13:27:24Z</time>
      </trkpt>
      <trkpt lat="49.85983" lon="2.31725">
        <ele>75.1</ele>
        <time>2021-04-28T13:27:26Z</time>
      </trkpt>
      <trkpt lat="49.85982" lon="2.31722">
        <ele>75.2</ele>
        <time>2021-04-28T13:27:27Z</time>
      </trkpt>
      <trkpt lat="49.85982" lon="2.31721">
        <ele>75.2</ele>
        <time>2021-04-28T13:27:28Z</time>
      </trkpt>
      <trkpt lat="49.85982" lon="2.31719">
        <ele>75.3</ele>
        <time>2021-04-28T13:27:30Z</time>
      </trkpt>
      <trkpt lat="49.85981" lon="2.31718">
        <ele>75.3</ele>
        <time>2021-04-28T13:27:31Z</time>
      </trkpt>
      <trkpt lat="49.85981" lon="2.31716">
        <ele>75.4</ele>
        <time>2021-04-28T13:27:32Z</time>
      </trkpt>
      <trkpt lat="49.85981" lon="2.31715">
        <ele>75.4</ele>
        <time>2021-04-28T13:27:33Z</time>
      </trkpt>
      <trkpt lat="49.8598" lon="2.31713">
        <ele>75.5</ele>
        <time>2021-04-28T13:27:34Z</time>
      </trkpt>
      <trkpt lat="49.8598" lon="2.31712">
        <ele>75.5</ele>
        <time>2021-04-28T13:27:36Z</time>
      </trkpt>
      <trkpt lat="49.8598" lon="2.31711">
        <ele>75.4</ele>
        <time>2021-04-28T13:27:37Z</time>
      </trkpt>
      <trkpt lat="49.85979" lon="2.31709">
        <ele>75.5</ele>
        <time>2021-04-28T13:27:38Z</time>
      </trkpt>
      <trkpt lat="49.85978" lon="2.31707">
        <ele>75.6</ele>
        <time>2021-04-28T13:27:40Z</time>
      </trkpt>
      <trkpt lat="49.85978" lon="2.31705">
        <ele>75.6</ele>
        <time>2021-04-28T13:27:41Z</time>
      </trkpt>
      <trkpt lat="49.85978" lon="2.31704">
        <ele>75.7</ele>
        <time>2021-04-28T13:27:42Z</time>
      </trkpt>
      <trkpt lat="49.85977" lon="2.31703">
        <ele>75.7</ele>
        <time>2021-04-28T13:27:43Z</time>
      </trkpt>
      <trkpt lat="49.85977" lon="2.317">
        <ele>75.7</ele>
        <time>2021-04-28T13:27:44Z</time>
      </trkpt>
      <trkpt lat="49.85976" lon="2.31699">
        <ele>75.8</ele>
        <time>2021-04-28T13:27:46Z</time>
      </trkpt>
      <trkpt lat="49.85976" lon="2.31698">
        <ele>75.8</ele>
        <time>2021-04-28T13:27:47Z</time>
      </trkpt>
      <trkpt lat="49.85975" lon="2.31697">
        <ele>75.9</ele>
        <time>2021-04-28T13:27:48Z</time>
      </trkpt>
      <trkpt lat="49.85974" lon="2.31695">
        <ele>75.9</ele>
        <time>2021-04-28T13:27:49Z</time>
      </trkpt>
      <trkpt lat="49.85974" lon="2.31694">
        <ele>76</ele>
        <time>2021-04-28T13:27:51Z</time>
      </trkpt>
      <trkpt lat="49.85974" lon="2.31693">
        <ele>76</ele>
        <time>2021-04-28T13:27:52Z</time>
      </trkpt>
      <trkpt lat="49.85974" lon="2.31692">
        <ele>76</ele>
        <time>2021-04-28T13:27:53Z</time>
      </trkpt>
      <trkpt lat="49.85973" lon="2.3169">
        <ele>76.1</ele>
        <time>2021-04-28T13:27:54Z</time>
      </trkpt>
      <trkpt lat="49.85973" lon="2.31689">
        <ele>76.1</ele>
        <time>2021-04-28T13:27:55Z</time>
      </trkpt>
      <trkpt lat="49.85972" lon="2.31687">
        <ele>76.2</ele>
        <time>2021-04-28T13:27:56Z</time>
      </trkpt>
      <trkpt lat="49.85972" lon="2.31686">
        <ele>76.2</ele>
        <time>2021-04-28T13:27:57Z</time>
      </trkpt>
      <trkpt lat="49.85971" lon="2.31684">
        <ele>76.2</ele>
        <time>2021-04-28T13:27:59Z</time>
      </trkpt>
      <trkpt lat="49.8597" lon="2.31683">
        <ele>76.3</ele>
        <time>2021-04-28T13:28:00Z</time>
      </trkpt>
      <trkpt lat="49.85969" lon="2.31682">
        <ele>76.3</ele>
        <time>2021-04-28T13:28:01Z</time>
      </trkpt>
      <trkpt lat="49.85969" lon="2.31681">
        <ele>76.3</ele>
        <time>2021-04-28T13:28:03Z</time>
      </trkpt>
      <trkpt lat="49.85969" lon="2.31681">
        <ele>76.3</ele>
        <time>2021-04-28T13:28:04Z</time>
      </trkpt>
      <trkpt lat="49.8597" lon="2.31682">
        <ele>76.4</ele>
        <time>2021-04-28T13:28:06Z</time>
      </trkpt>
      <trkpt lat="49.8597" lon="2.31683">
        <ele>76.4</ele>
        <time>2021-04-28T13:28:07Z</time>
      </trkpt>
      <trkpt lat="49.8597" lon="2.31684">
        <ele>76.4</ele>
        <time>2021-04-28T13:28:08Z</time>
      </trkpt>
      <trkpt lat="49.85969" lon="2.31685">
        <ele>76.5</ele>
        <time>2021-04-28T13:28:10Z</time>
      </trkpt>
      <trkpt lat="49.85969" lon="2.31684">
        <ele>76.5</ele>
        <time>2021-04-28T13:28:11Z</time>
      </trkpt>
      <trkpt lat="49.85968" lon="2.31683">
        <ele>76.5</ele>
        <time>2021-04-28T13:28:12Z</time>
      </trkpt>
      <trkpt lat="49.85968" lon="2.31682">
        <ele>76.6</ele>
        <time>2021-04-28T13:28:14Z</time>
      </trkpt>
      <trkpt lat="49.85967" lon="2.31681">
        <ele>76.6</ele>
        <time>2021-04-28T13:28:15Z</time>
      </trkpt>
      <trkpt lat="49.85967" lon="2.3168">
        <ele>76.7</ele>
        <time>2021-04-28T13:28:16Z</time>
      </trkpt>
      <trkpt lat="49.85966" lon="2.31678">
        <ele>76.7</ele>
        <time>2021-04-28T13:28:17Z</time>
      </trkpt>
      <trkpt lat="49.85965" lon="2.31674">
        <ele>76.8</ele>
        <time>2021-04-28T13:28:18Z</time>
      </trkpt>
      <trkpt lat="49.85965" lon="2.31672">
        <ele>76.8</ele>
        <time>2021-04-28T13:28:20Z</time>
      </trkpt>
      <trkpt lat="49.85965" lon="2.3167">
        <ele>76.9</ele>
        <time>2021-04-28T13:28:22Z</time>
      </trkpt>
      <trkpt lat="49.85965" lon="2.31668">
        <ele>76.9</ele>
        <time>2021-04-28T13:28:23Z</time>
      </trkpt>
      <trkpt lat="49.85965" lon="2.31666">
        <ele>77</ele>
        <time>2021-04-28T13:28:24Z</time>
      </trkpt>
      <trkpt lat="49.85964" lon="2.31664">
        <ele>77</ele>
        <time>2021-04-28T13:28:26Z</time>
      </trkpt>
      <trkpt lat="49.85964" lon="2.31663">
        <ele>77.1</ele>
        <time>2021-04-28T13:28:27Z</time>
      </trkpt>
      <trkpt lat="49.85963" lon="2.31662">
        <ele>77.1</ele>
        <time>2021-04-28T13:28:28Z</time>
      </trkpt>
      <trkpt lat="49.85963" lon="2.31661">
        <ele>77.2</ele>
        <time>2021-04-28T13:28:29Z</time>
      </trkpt>
      <trkpt lat="49.85962" lon="2.3166">
        <ele>77.2</ele>
        <time>2021-04-28T13:28:31Z</time>
      </trkpt>
      <trkpt lat="49.85962" lon="2.31659">
        <ele>77.2</ele>
        <time>2021-04-28T13:28:32Z</time>
      </trkpt>
      <trkpt lat="49.85962" lon="2.31657">
        <ele>77.3</ele>
        <time>2021-04-28T13:28:33Z</time>
      </trkpt>
      <trkpt lat="49.85962" lon="2.31655">
        <ele>77.3</ele>
        <time>2021-04-28T13:28:35Z</time>
      </trkpt>
      <trkpt lat="49.85961" lon="2.31654">
        <ele>77.4</ele>
        <time>2021-04-28T13:28:36Z</time>
      </trkpt>
      <trkpt lat="49.85961" lon="2.31652">
        <ele>77.4</ele>
        <time>2021-04-28T13:28:37Z</time>
      </trkpt>
      <trkpt lat="49.8596" lon="2.31651">
        <ele>77.5</ele>
        <time>2021-04-28T13:28:38Z</time>
      </trkpt>
      <trkpt lat="49.85959" lon="2.31649">
        <ele>77.5</ele>
        <time>2021-04-28T13:28:40Z</time>
      </trkpt>
      <trkpt lat="49.85959" lon="2.31648">
        <ele>77.6</ele>
        <time>2021-04-28T13:28:41Z</time>
      </trkpt>
      <trkpt lat="49.85958" lon="2.31646">
        <ele>77.6</ele>
        <time>2021-04-28T13:28:42Z</time>
      </trkpt>
      <trkpt lat="49.85958" lon="2.31645">
        <ele>77.7</ele>
        <time>2021-04-28T13:28:43Z</time>
      </trkpt>
      <trkpt lat="49.85957" lon="2.31643">
        <ele>77.7</ele>
        <time>2021-04-28T13:28:45Z</time>
      </trkpt>
      <trkpt lat="49.85957" lon="2.31642">
        <ele>77.8</ele>
        <time>2021-04-28T13:28:46Z</time>
      </trkpt>
      <trkpt lat="49.85956" lon="2.31641">
        <ele>77.8</ele>
        <time>2021-04-28T13:28:47Z</time>
      </trkpt>
      <trkpt lat="49.85956" lon="2.31639">
        <ele>77.9</ele>
        <time>2021-04-28T13:28:48Z</time>
      </trkpt>
      <trkpt lat="49.85956" lon="2.31637">
        <ele>77.9</ele>
        <time>2021-04-28T13:28:50Z</time>
      </trkpt>
      <trkpt lat="49.85955" lon="2.31636">
        <ele>78</ele>
        <time>2021-04-28T13:28:51Z</time>
      </trkpt>
      <trkpt lat="49.85955" lon="2.31634">
        <ele>78</ele>
        <time>2021-04-28T13:28:52Z</time>
      </trkpt>
      <trkpt lat="49.85955" lon="2.31632">
        <ele>78</ele>
        <time>2021-04-28T13:28:54Z</time>
      </trkpt>
      <trkpt lat="49.85955" lon="2.31631">
        <ele>78.1</ele>
        <time>2021-04-28T13:28:55Z</time>
      </trkpt>
      <trkpt lat="49.85955" lon="2.3163">
        <ele>78.1</ele>
        <time>2021-04-28T13:28:56Z</time>
      </trkpt>
      <trkpt lat="49.85955" lon="2.31629">
        <ele>78.1</ele>
        <time>2021-04-28T13:28:58Z</time>
      </trkpt>
      <trkpt lat="49.85955" lon="2.31627">
        <ele>78.2</ele>
        <time>2021-04-28T13:28:59Z</time>
      </trkpt>
      <trkpt lat="49.85954" lon="2.31627">
        <ele>78.2</ele>
        <time>2021-04-28T13:29:00Z</time>
      </trkpt>
      <trkpt lat="49.85954" lon="2.31625">
        <ele>78.2</ele>
        <time>2021-04-28T13:29:01Z</time>
      </trkpt>
      <trkpt lat="49.85953" lon="2.31624">
        <ele>78.3</ele>
        <time>2021-04-28T13:29:03Z</time>
      </trkpt>
      <trkpt lat="49.85952" lon="2.31623">
        <ele>78.3</ele>
        <time>2021-04-28T13:29:04Z</time>
      </trkpt>
      <trkpt lat="49.85951" lon="2.31622">
        <ele>78.3</ele>
        <time>2021-04-28T13:29:05Z</time>
      </trkpt>
      <trkpt lat="49.85951" lon="2.31621">
        <ele>78.4</ele>
        <time>2021-04-28T13:29:06Z</time>
      </trkpt>
      <trkpt lat="49.8595" lon="2.31619">
        <ele>78.4</ele>
        <time>2021-04-28T13:29:07Z</time>
      </trkpt>
      <trkpt lat="49.85949" lon="2.31618">
        <ele>78.5</ele>
        <time>2021-04-28T13:29:09Z</time>
      </trkpt>
      <trkpt lat="49.85949" lon="2.31617">
        <ele>78.5</ele>
        <time>2021-04-28T13:29:10Z</time>
      </trkpt>
      <trkpt lat="49.85948" lon="2.31615">
        <ele>78.6</ele>
        <time>2021-04-28T13:29:11Z</time>
      </trkpt>
      <trkpt lat="49.85947" lon="2.31614">
        <ele>78.6</ele>
        <time>2021-04-28T13:29:13Z</time>
      </trkpt>
      <trkpt lat="49.85946" lon="2.31613">
        <ele>78.6</ele>
        <time>2021-04-28T13:29:14Z</time>
      </trkpt>
      <trkpt lat="49.85945" lon="2.3161">
        <ele>78.7</ele>
        <time>2021-04-28T13:29:15Z</time>
      </trkpt>
      <trkpt lat="49.85944" lon="2.31609">
        <ele>78.8</ele>
        <time>2021-04-28T13:29:16Z</time>
      </trkpt>
      <trkpt lat="49.85944" lon="2.31608">
        <ele>78.8</ele>
        <time>2021-04-28T13:29:18Z</time>
      </trkpt>
      <trkpt lat="49.85943" lon="2.31607">
        <ele>78.8</ele>
        <time>2021-04-28T13:29:19Z</time>
      </trkpt>
      <trkpt lat="49.85942" lon="2.31606">
        <ele>78.9</ele>
        <time>2021-04-28T13:29:20Z</time>
      </trkpt>
      <trkpt lat="49.85942" lon="2.31605">
        <ele>78.9</ele>
        <time>2021-04-28T13:29:21Z</time>
      </trkpt>
      <trkpt lat="49.85941" lon="2.31603">
        <ele>78.9</ele>
        <time>2021-04-28T13:29:23Z</time>
      </trkpt>
      <trkpt lat="49.8594" lon="2.31601">
        <ele>79</ele>
        <time>2021-04-28T13:29:24Z</time>
      </trkpt>
      <trkpt lat="49.85939" lon="2.316">
        <ele>79</ele>
        <time>2021-04-28T13:29:25Z</time>
      </trkpt>
      <trkpt lat="49.85939" lon="2.31599">
        <ele>79</ele>
        <time>2021-04-28T13:29:26Z</time>
      </trkpt>
      <trkpt lat="49.85938" lon="2.31598">
        <ele>79.1</ele>
        <time>2021-04-28T13:29:28Z</time>
      </trkpt>
      <trkpt lat="49.85938" lon="2.31596">
        <ele>79.1</ele>
        <time>2021-04-28T13:29:29Z</time>
      </trkpt>
      <trkpt lat="49.85937" lon="2.31594">
        <ele>79.2</ele>
        <time>2021-04-28T13:29:31Z</time>
      </trkpt>
      <trkpt lat="49.85936" lon="2.31593">
        <ele>79.2</ele>
        <time>2021-04-28T13:29:32Z</time>
      </trkpt>
      <trkpt lat="49.85936" lon="2.31591">
        <ele>79.2</ele>
        <time>2021-04-28T13:29:33Z</time>
      </trkpt>
      <trkpt lat="49.85936" lon="2.3159">
        <ele>79.3</ele>
        <time>2021-04-28T13:29:34Z</time>
      </trkpt>
      <trkpt lat="49.85935" lon="2.31589">
        <ele>79.3</ele>
        <time>2021-04-28T13:29:36Z</time>
      </trkpt>
      <trkpt lat="49.85935" lon="2.31588">
        <ele>79.3</ele>
        <time>2021-04-28T13:29:37Z</time>
      </trkpt>
      <trkpt lat="49.85934" lon="2.31586">
        <ele>79.4</ele>
        <time>2021-04-28T13:29:38Z</time>
      </trkpt>
      <trkpt lat="49.85934" lon="2.31585">
        <ele>79.4</ele>
        <time>2021-04-28T13:29:39Z</time>
      </trkpt>
      <trkpt lat="49.85933" lon="2.31583">
        <ele>79.4</ele>
        <time>2021-04-28T13:29:41Z</time>
      </trkpt>
      <trkpt lat="49.85933" lon="2.31582">
        <ele>79.5</ele>
        <time>2021-04-28T13:29:42Z</time>
      </trkpt>
      <trkpt lat="49.85932" lon="2.3158">
        <ele>79.5</ele>
        <time>2021-04-28T13:29:43Z</time>
      </trkpt>
      <trkpt lat="49.85932" lon="2.31579">
        <ele>79.5</ele>
        <time>2021-04-28T13:29:44Z</time>
      </trkpt>
      <trkpt lat="49.85931" lon="2.31577">
        <ele>79.6</ele>
        <time>2021-04-28T13:29:46Z</time>
      </trkpt>
      <trkpt lat="49.85931" lon="2.31575">
        <ele>79.6</ele>
        <time>2021-04-28T13:29:47Z</time>
      </trkpt>
      <trkpt lat="49.8593" lon="2.31574">
        <ele>79.6</ele>
        <time>2021-04-28T13:29:48Z</time>
      </trkpt>
      <trkpt lat="49.8593" lon="2.31572">
        <ele>79.7</ele>
        <time>2021-04-28T13:29:49Z</time>
      </trkpt>
      <trkpt lat="49.85929" lon="2.3157">
        <ele>79.7</ele>
        <time>2021-04-28T13:29:50Z</time>
      </trkpt>
      <trkpt lat="49.85929" lon="2.31567">
        <ele>79.8</ele>
        <time>2021-04-28T13:29:52Z</time>
      </trkpt>
      <trkpt lat="49.85929" lon="2.31566">
        <ele>79.8</ele>
        <time>2021-04-28T13:29:53Z</time>
      </trkpt>
      <trkpt lat="49.85928" lon="2.31565">
        <ele>79.8</ele>
        <time>2021-04-28T13:29:54Z</time>
      </trkpt>
      <trkpt lat="49.85928" lon="2.31564">
        <ele>79.8</ele>
        <time>2021-04-28T13:29:55Z</time>
      </trkpt>
      <trkpt lat="49.85927" lon="2.31563">
        <ele>79.9</ele>
        <time>2021-04-28T13:29:57Z</time>
      </trkpt>
      <trkpt lat="49.85927" lon="2.31562">
        <ele>79.9</ele>
        <time>2021-04-28T13:29:58Z</time>
      </trkpt>
      <trkpt lat="49.85927" lon="2.3156">
        <ele>79.9</ele>
        <time>2021-04-28T13:29:59Z</time>
      </trkpt>
      <trkpt lat="49.85926" lon="2.31559">
        <ele>80</ele>
        <time>2021-04-28T13:30:00Z</time>
      </trkpt>
      <trkpt lat="49.85926" lon="2.31556">
        <ele>80</ele>
        <time>2021-04-28T13:30:02Z</time>
      </trkpt>
      <trkpt lat="49.85925" lon="2.31555">
        <ele>80</ele>
        <time>2021-04-28T13:30:03Z</time>
      </trkpt>
      <trkpt lat="49.85925" lon="2.31554">
        <ele>80.1</ele>
        <time>2021-04-28T13:30:04Z</time>
      </trkpt>
      <trkpt lat="49.85925" lon="2.31554">
        <ele>80.1</ele>
        <time>2021-04-28T13:30:05Z</time>
      </trkpt>
      <trkpt lat="49.85924" lon="2.31553">
        <ele>80.1</ele>
        <time>2021-04-28T13:30:06Z</time>
      </trkpt>
      <trkpt lat="49.85923" lon="2.31551">
        <ele>80.1</ele>
        <time>2021-04-28T13:30:08Z</time>
      </trkpt>
      <trkpt lat="49.85923" lon="2.3155">
        <ele>80.2</ele>
        <time>2021-04-28T13:30:09Z</time>
      </trkpt>
      <trkpt lat="49.85922" lon="2.31548">
        <ele>80.2</ele>
        <time>2021-04-28T13:30:10Z</time>
      </trkpt>
      <trkpt lat="49.85921" lon="2.31546">
        <ele>80.3</ele>
        <time>2021-04-28T13:30:11Z</time>
      </trkpt>
      <trkpt lat="49.85921" lon="2.31545">
        <ele>80.3</ele>
        <time>2021-04-28T13:30:12Z</time>
      </trkpt>
      <trkpt lat="49.85921" lon="2.31544">
        <ele>80.3</ele>
        <time>2021-04-28T13:30:13Z</time>
      </trkpt>
      <trkpt lat="49.8592" lon="2.31543">
        <ele>80.3</ele>
        <time>2021-04-28T13:30:14Z</time>
      </trkpt>
      <trkpt lat="49.8592" lon="2.31541">
        <ele>80.4</ele>
        <time>2021-04-28T13:30:15Z</time>
      </trkpt>
      <trkpt lat="49.85919" lon="2.3154">
        <ele>80.4</ele>
        <time>2021-04-28T13:30:17Z</time>
      </trkpt>
      <trkpt lat="49.85919" lon="2.31538">
        <ele>80.4</ele>
        <time>2021-04-28T13:30:18Z</time>
      </trkpt>
      <trkpt lat="49.85917" lon="2.31536">
        <ele>80.5</ele>
        <time>2021-04-28T13:30:20Z</time>
      </trkpt>
      <trkpt lat="49.85917" lon="2.31534">
        <ele>80.5</ele>
        <time>2021-04-28T13:30:21Z</time>
      </trkpt>
      <trkpt lat="49.85916" lon="2.3153">
        <ele>80.6</ele>
        <time>2021-04-28T13:30:22Z</time>
      </trkpt>
      <trkpt lat="49.85916" lon="2.31529">
        <ele>80.6</ele>
        <time>2021-04-28T13:30:24Z</time>
      </trkpt>
      <trkpt lat="49.85915" lon="2.31528">
        <ele>80.6</ele>
        <time>2021-04-28T13:30:25Z</time>
      </trkpt>
      <trkpt lat="49.85914" lon="2.31526">
        <ele>80.7</ele>
        <time>2021-04-28T13:30:27Z</time>
      </trkpt>
      <trkpt lat="49.85914" lon="2.31524">
        <ele>80.7</ele>
        <time>2021-04-28T13:30:28Z</time>
      </trkpt>
      <trkpt lat="49.85913" lon="2.31521">
        <ele>80.8</ele>
        <time>2021-04-28T13:30:29Z</time>
      </trkpt>
      <trkpt lat="49.85913" lon="2.3152">
        <ele>80.8</ele>
        <time>2021-04-28T13:30:30Z</time>
      </trkpt>
      <trkpt lat="49.85912" lon="2.31519">
        <ele>80.8</ele>
        <time>2021-04-28T13:30:31Z</time>
      </trkpt>
      <trkpt lat="49.85912" lon="2.31517">
        <ele>80.8</ele>
        <time>2021-04-28T13:30:33Z</time>
      </trkpt>
      <trkpt lat="49.85912" lon="2.31516">
        <ele>80.9</ele>
        <time>2021-04-28T13:30:34Z</time>
      </trkpt>
      <trkpt lat="49.85911" lon="2.31514">
        <ele>80.9</ele>
        <time>2021-04-28T13:30:35Z</time>
      </trkpt>
      <trkpt lat="49.85911" lon="2.31513">
        <ele>80.9</ele>
        <time>2021-04-28T13:30:36Z</time>
      </trkpt>
      <trkpt lat="49.8591" lon="2.31512">
        <ele>80.9</ele>
        <time>2021-04-28T13:30:37Z</time>
      </trkpt>
      <trkpt lat="49.8591" lon="2.3151">
        <ele>81</ele>
        <time>2021-04-28T13:30:39Z</time>
      </trkpt>
      <trkpt lat="49.85909" lon="2.31508">
        <ele>81</ele>
        <time>2021-04-28T13:30:40Z</time>
      </trkpt>
      <trkpt lat="49.85909" lon="2.31506">
        <ele>81</ele>
        <time>2021-04-28T13:30:41Z</time>
      </trkpt>
      <trkpt lat="49.85909" lon="2.31505">
        <ele>81.1</ele>
        <time>2021-04-28T13:30:42Z</time>
      </trkpt>
      <trkpt lat="49.85908" lon="2.31503">
        <ele>81.1</ele>
        <time>2021-04-28T13:30:43Z</time>
      </trkpt>
      <trkpt lat="49.85907" lon="2.31502">
        <ele>81.1</ele>
        <time>2021-04-28T13:30:44Z</time>
      </trkpt>
      <trkpt lat="49.85907" lon="2.31501">
        <ele>81.2</ele>
        <time>2021-04-28T13:30:46Z</time>
      </trkpt>
      <trkpt lat="49.85906" lon="2.31499">
        <ele>81.2</ele>
        <time>2021-04-28T13:30:47Z</time>
      </trkpt>
      <trkpt lat="49.85905" lon="2.31498">
        <ele>81.2</ele>
        <time>2021-04-28T13:30:48Z</time>
      </trkpt>
      <trkpt lat="49.85904" lon="2.31497">
        <ele>81.2</ele>
        <time>2021-04-28T13:30:49Z</time>
      </trkpt>
      <trkpt lat="49.85903" lon="2.31495">
        <ele>81.3</ele>
        <time>2021-04-28T13:30:50Z</time>
      </trkpt>
      <trkpt lat="49.85903" lon="2.31494">
        <ele>81.3</ele>
        <time>2021-04-28T13:30:52Z</time>
      </trkpt>
      <trkpt lat="49.85902" lon="2.31492">
        <ele>81.3</ele>
        <time>2021-04-28T13:30:53Z</time>
      </trkpt>
      <trkpt lat="49.85902" lon="2.31491">
        <ele>81.3</ele>
        <time>2021-04-28T13:30:54Z</time>
      </trkpt>
      <trkpt lat="49.85901" lon="2.31489">
        <ele>81.4</ele>
        <time>2021-04-28T13:30:55Z</time>
      </trkpt>
      <trkpt lat="49.859" lon="2.31488">
        <ele>81.4</ele>
        <time>2021-04-28T13:30:57Z</time>
      </trkpt>
      <trkpt lat="49.85899" lon="2.31486">
        <ele>81.4</ele>
        <time>2021-04-28T13:30:58Z</time>
      </trkpt>
      <trkpt lat="49.85899" lon="2.31485">
        <ele>81.5</ele>
        <time>2021-04-28T13:30:59Z</time>
      </trkpt>
      <trkpt lat="49.85898" lon="2.31483">
        <ele>81.5</ele>
        <time>2021-04-28T13:31:00Z</time>
      </trkpt>
      <trkpt lat="49.85897" lon="2.31481">
        <ele>81.5</ele>
        <time>2021-04-28T13:31:02Z</time>
      </trkpt>
      <trkpt lat="49.85896" lon="2.3148">
        <ele>81.6</ele>
        <time>2021-04-28T13:31:04Z</time>
      </trkpt>
      <trkpt lat="49.85896" lon="2.31479">
        <ele>81.6</ele>
        <time>2021-04-28T13:31:05Z</time>
      </trkpt>
      <trkpt lat="49.85896" lon="2.31479">
        <ele>81.6</ele>
        <time>2021-04-28T13:31:07Z</time>
      </trkpt>
      <trkpt lat="49.85895" lon="2.31479">
        <ele>81.6</ele>
        <time>2021-04-28T13:31:08Z</time>
      </trkpt>
      <trkpt lat="49.85896" lon="2.3148">
        <ele>81.6</ele>
        <time>2021-04-28T13:31:10Z</time>
      </trkpt>
      <trkpt lat="49.85896" lon="2.3148">
        <ele>81.6</ele>
        <time>2021-04-28T13:31:11Z</time>
      </trkpt>
      <trkpt lat="49.85896" lon="2.3148">
        <ele>81.6</ele>
        <time>2021-04-28T13:31:13Z</time>
      </trkpt>
      <trkpt lat="49.85896" lon="2.3148">
        <ele>81.6</ele>
        <time>2021-04-28T13:31:15Z</time>
      </trkpt>
      <trkpt lat="49.85896" lon="2.3148">
        <ele>81.6</ele>
        <time>2021-04-28T13:31:16Z</time>
      </trkpt>
      <trkpt lat="49.85896" lon="2.3148">
        <ele>81.6</ele>
        <time>2021-04-28T13:31:17Z</time>
      </trkpt>
      <trkpt lat="49.85896" lon="2.3148">
        <ele>81.6</ele>
        <time>2021-04-28T13:31:19Z</time>
      </trkpt>
      <trkpt lat="49.85896" lon="2.3148">
        <ele>81.6</ele>
        <time>2021-04-28T13:31:21Z</time>
      </trkpt>
      <trkpt lat="49.85896" lon="2.3148">
        <ele>81.6</ele>
        <time>2021-04-28T13:31:22Z</time>
      </trkpt>
      <trkpt lat="49.85896" lon="2.31481">
        <ele>81.6</ele>
        <time>2021-04-28T13:31:23Z</time>
      </trkpt>
      <trkpt lat="49.85897" lon="2.31482">
        <ele>81.6</ele>
        <time>2021-04-28T13:31:25Z</time>
      </trkpt>
      <trkpt lat="49.85898" lon="2.31483">
        <ele>81.7</ele>
        <time>2021-04-28T13:31:26Z</time>
      </trkpt>
      <trkpt lat="49.85899" lon="2.31485">
        <ele>81.7</ele>
        <time>2021-04-28T13:31:28Z</time>
      </trkpt>
      <trkpt lat="49.85899" lon="2.31485">
        <ele>81.7</ele>
        <time>2021-04-28T13:31:29Z</time>
      </trkpt>
      <trkpt lat="49.85899" lon="2.31486">
        <ele>81.7</ele>
        <time>2021-04-28T13:31:30Z</time>
      </trkpt>
      <trkpt lat="49.859" lon="2.31486">
        <ele>81.7</ele>
        <time>2021-04-28T13:31:32Z</time>
      </trkpt>
      <trkpt lat="49.859" lon="2.31486">
        <ele>81.7</ele>
        <time>2021-04-28T13:31:33Z</time>
      </trkpt>
      <trkpt lat="49.859" lon="2.31485">
        <ele>81.8</ele>
        <time>2021-04-28T13:31:35Z</time>
      </trkpt>
      <trkpt lat="49.85901" lon="2.31485">
        <ele>81.8</ele>
        <time>2021-04-28T13:31:36Z</time>
      </trkpt>
      <trkpt lat="49.85901" lon="2.31484">
        <ele>81.8</ele>
        <time>2021-04-28T13:31:38Z</time>
      </trkpt>
      <trkpt lat="49.859" lon="2.31483">
        <ele>81.8</ele>
        <time>2021-04-28T13:31:39Z</time>
      </trkpt>
      <trkpt lat="49.859" lon="2.31482">
        <ele>81.8</ele>
        <time>2021-04-28T13:31:40Z</time>
      </trkpt>
      <trkpt lat="49.85899" lon="2.31481">
        <ele>81.8</ele>
        <time>2021-04-28T13:31:41Z</time>
      </trkpt>
      <trkpt lat="49.85899" lon="2.3148">
        <ele>81.9</ele>
        <time>2021-04-28T13:31:43Z</time>
      </trkpt>
      <trkpt lat="49.85899" lon="2.31479">
        <ele>81.9</ele>
        <time>2021-04-28T13:31:44Z</time>
      </trkpt>
      <trkpt lat="49.85899" lon="2.31477">
        <ele>81.9</ele>
        <time>2021-04-28T13:31:45Z</time>
      </trkpt>
      <trkpt lat="49.85898" lon="2.31474">
        <ele>82</ele>
        <time>2021-04-28T13:31:47Z</time>
      </trkpt>
      <trkpt lat="49.85898" lon="2.31473">
        <ele>82</ele>
        <time>2021-04-28T13:31:48Z</time>
      </trkpt>
      <trkpt lat="49.85898" lon="2.31471">
        <ele>82</ele>
        <time>2021-04-28T13:31:49Z</time>
      </trkpt>
      <trkpt lat="49.85897" lon="2.3147">
        <ele>82.1</ele>
        <time>2021-04-28T13:31:50Z</time>
      </trkpt>
      <trkpt lat="49.85896" lon="2.31468">
        <ele>82.1</ele>
        <time>2021-04-28T13:31:52Z</time>
      </trkpt>
      <trkpt lat="49.85896" lon="2.31467">
        <ele>82.1</ele>
        <time>2021-04-28T13:31:53Z</time>
      </trkpt>
      <trkpt lat="49.85895" lon="2.31466">
        <ele>82.2</ele>
        <time>2021-04-28T13:31:54Z</time>
      </trkpt>
      <trkpt lat="49.85894" lon="2.31465">
        <ele>82.2</ele>
        <time>2021-04-28T13:31:55Z</time>
      </trkpt>
      <trkpt lat="49.85893" lon="2.31464">
        <ele>82.3</ele>
        <time>2021-04-28T13:31:57Z</time>
      </trkpt>
      <trkpt lat="49.85891" lon="2.31461">
        <ele>82.3</ele>
        <time>2021-04-28T13:31:58Z</time>
      </trkpt>
      <trkpt lat="49.8589" lon="2.3146">
        <ele>82.4</ele>
        <time>2021-04-28T13:32:00Z</time>
      </trkpt>
      <trkpt lat="49.85889" lon="2.31459">
        <ele>82.4</ele>
        <time>2021-04-28T13:32:01Z</time>
      </trkpt>
      <trkpt lat="49.85889" lon="2.31458">
        <ele>82.4</ele>
        <time>2021-04-28T13:32:02Z</time>
      </trkpt>
      <trkpt lat="49.85888" lon="2.31457">
        <ele>82.5</ele>
        <time>2021-04-28T13:32:03Z</time>
      </trkpt>
      <trkpt lat="49.85887" lon="2.31454">
        <ele>82.5</ele>
        <time>2021-04-28T13:32:04Z</time>
      </trkpt>
      <trkpt lat="49.85886" lon="2.31453">
        <ele>82.6</ele>
        <time>2021-04-28T13:32:06Z</time>
      </trkpt>
      <trkpt lat="49.85886" lon="2.31452">
        <ele>82.6</ele>
        <time>2021-04-28T13:32:07Z</time>
      </trkpt>
      <trkpt lat="49.85885" lon="2.3145">
        <ele>82.6</ele>
        <time>2021-04-28T13:32:08Z</time>
      </trkpt>
      <trkpt lat="49.85883" lon="2.31447">
        <ele>82.7</ele>
        <time>2021-04-28T13:32:10Z</time>
      </trkpt>
      <trkpt lat="49.85883" lon="2.31446">
        <ele>82.7</ele>
        <time>2021-04-28T13:32:11Z</time>
      </trkpt>
      <trkpt lat="49.85882" lon="2.31444">
        <ele>82.8</ele>
        <time>2021-04-28T13:32:13Z</time>
      </trkpt>
      <trkpt lat="49.85881" lon="2.31442">
        <ele>82.8</ele>
        <time>2021-04-28T13:32:14Z</time>
      </trkpt>
      <trkpt lat="49.8588" lon="2.31442">
        <ele>82.8</ele>
        <time>2021-04-28T13:32:15Z</time>
      </trkpt>
      <trkpt lat="49.85879" lon="2.31441">
        <ele>82.8</ele>
        <time>2021-04-28T13:32:16Z</time>
      </trkpt>
      <trkpt lat="49.85879" lon="2.3144">
        <ele>82.9</ele>
        <time>2021-04-28T13:32:18Z</time>
      </trkpt>
      <trkpt lat="49.85878" lon="2.3144">
        <ele>82.9</ele>
        <time>2021-04-28T13:32:19Z</time>
      </trkpt>
      <trkpt lat="49.85877" lon="2.31439">
        <ele>82.9</ele>
        <time>2021-04-28T13:32:20Z</time>
      </trkpt>
      <trkpt lat="49.85876" lon="2.31439">
        <ele>82.9</ele>
        <time>2021-04-28T13:32:21Z</time>
      </trkpt>
      <trkpt lat="49.85875" lon="2.31439">
        <ele>82.9</ele>
        <time>2021-04-28T13:32:22Z</time>
      </trkpt>
      <trkpt lat="49.85874" lon="2.31439">
        <ele>83</ele>
        <time>2021-04-28T13:32:24Z</time>
      </trkpt>
      <trkpt lat="49.85873" lon="2.3144">
        <ele>83</ele>
        <time>2021-04-28T13:32:25Z</time>
      </trkpt>
      <trkpt lat="49.85872" lon="2.31441">
        <ele>83</ele>
        <time>2021-04-28T13:32:27Z</time>
      </trkpt>
      <trkpt lat="49.85872" lon="2.31442">
        <ele>83</ele>
        <time>2021-04-28T13:32:28Z</time>
      </trkpt>
      <trkpt lat="49.85872" lon="2.31442">
        <ele>83</ele>
        <time>2021-04-28T13:32:29Z</time>
      </trkpt>
      <trkpt lat="49.85872" lon="2.31442">
        <ele>83</ele>
        <time>2021-04-28T13:32:31Z</time>
      </trkpt>
      <trkpt lat="49.85872" lon="2.31443">
        <ele>83</ele>
        <time>2021-04-28T13:32:33Z</time>
      </trkpt>
      <trkpt lat="49.85872" lon="2.31443">
        <ele>83</ele>
        <time>2021-04-28T13:32:34Z</time>
      </trkpt>
      <trkpt lat="49.85872" lon="2.31443">
        <ele>83</ele>
        <time>2021-04-28T13:32:36Z</time>
      </trkpt>
      <trkpt lat="49.85872" lon="2.31443">
        <ele>83</ele>
        <time>2021-04-28T13:32:37Z</time>
      </trkpt>
      <trkpt lat="49.85872" lon="2.31442">
        <ele>83</ele>
        <time>2021-04-28T13:32:38Z</time>
      </trkpt>
      <trkpt lat="49.85872" lon="2.31442">
        <ele>83</ele>
        <time>2021-04-28T13:32:40Z</time>
      </trkpt>
      <trkpt lat="49.85872" lon="2.31442">
        <ele>83</ele>
        <time>2021-04-28T13:32:42Z</time>
      </trkpt>
      <trkpt lat="49.85872" lon="2.31441">
        <ele>83</ele>
        <time>2021-04-28T13:32:43Z</time>
      </trkpt>
      <trkpt lat="49.85872" lon="2.31441">
        <ele>83</ele>
        <time>2021-04-28T13:32:44Z</time>
      </trkpt>
      <trkpt lat="49.85872" lon="2.31441">
        <ele>83</ele>
        <time>2021-04-28T13:32:46Z</time>
      </trkpt>
      <trkpt lat="49.85872" lon="2.3144">
        <ele>83</ele>
        <time>2021-04-28T13:32:47Z</time>
      </trkpt>
      <trkpt lat="49.85872" lon="2.3144">
        <ele>83.1</ele>
        <time>2021-04-28T13:32:48Z</time>
      </trkpt>
      <trkpt lat="49.85871" lon="2.31439">
        <ele>83.1</ele>
        <time>2021-04-28T13:32:50Z</time>
      </trkpt>
      <trkpt lat="49.85871" lon="2.31438">
        <ele>83.1</ele>
        <time>2021-04-28T13:32:51Z</time>
      </trkpt>
      <trkpt lat="49.85871" lon="2.31437">
        <ele>83.1</ele>
        <time>2021-04-28T13:32:52Z</time>
      </trkpt>
      <trkpt lat="49.8587" lon="2.31435">
        <ele>83.1</ele>
        <time>2021-04-28T13:32:54Z</time>
      </trkpt>
      <trkpt lat="49.85869" lon="2.31433">
        <ele>83.1</ele>
        <time>2021-04-28T13:32:55Z</time>
      </trkpt>
      <trkpt lat="49.85869" lon="2.31431">
        <ele>83.2</ele>
        <time>2021-04-28T13:32:56Z</time>
      </trkpt>
      <trkpt lat="49.85868" lon="2.31429">
        <ele>83.2</ele>
        <time>2021-04-28T13:32:57Z</time>
      </trkpt>
      <trkpt lat="49.85867" lon="2.31427">
        <ele>83.2</ele>
        <time>2021-04-28T13:32:58Z</time>
      </trkpt>
      <trkpt lat="49.85867" lon="2.31425">
        <ele>83.3</ele>
        <time>2021-04-28T13:33:00Z</time>
      </trkpt>
      <trkpt lat="49.85866" lon="2.31423">
        <ele>83.3</ele>
        <time>2021-04-28T13:33:01Z</time>
      </trkpt>
      <trkpt lat="49.85865" lon="2.31421">
        <ele>83.3</ele>
        <time>2021-04-28T13:33:02Z</time>
      </trkpt>
      <trkpt lat="49.85864" lon="2.31419">
        <ele>83.4</ele>
        <time>2021-04-28T13:33:03Z</time>
      </trkpt>
      <trkpt lat="49.85863" lon="2.31417">
        <ele>83.4</ele>
        <time>2021-04-28T13:33:04Z</time>
      </trkpt>
      <trkpt lat="49.85862" lon="2.31416">
        <ele>83.5</ele>
        <time>2021-04-28T13:33:05Z</time>
      </trkpt>
      <trkpt lat="49.85861" lon="2.31414">
        <ele>83.5</ele>
        <time>2021-04-28T13:33:06Z</time>
      </trkpt>
      <trkpt lat="49.85859" lon="2.31412">
        <ele>83.5</ele>
        <time>2021-04-28T13:33:08Z</time>
      </trkpt>
      <trkpt lat="49.85859" lon="2.31411">
        <ele>83.6</ele>
        <time>2021-04-28T13:33:09Z</time>
      </trkpt>
      <trkpt lat="49.85858" lon="2.3141">
        <ele>83.6</ele>
        <time>2021-04-28T13:33:10Z</time>
      </trkpt>
      <trkpt lat="49.85857" lon="2.31407">
        <ele>83.7</ele>
        <time>2021-04-28T13:33:11Z</time>
      </trkpt>
      <trkpt lat="49.85856" lon="2.31406">
        <ele>83.7</ele>
        <time>2021-04-28T13:33:12Z</time>
      </trkpt>
      <trkpt lat="49.85856" lon="2.31405">
        <ele>83.7</ele>
        <time>2021-04-28T13:33:13Z</time>
      </trkpt>
      <trkpt lat="49.85855" lon="2.31402">
        <ele>83.8</ele>
        <time>2021-04-28T13:33:15Z</time>
      </trkpt>
      <trkpt lat="49.85855" lon="2.314">
        <ele>83.8</ele>
        <time>2021-04-28T13:33:16Z</time>
      </trkpt>
      <trkpt lat="49.85855" lon="2.31399">
        <ele>83.8</ele>
        <time>2021-04-28T13:33:17Z</time>
      </trkpt>
      <trkpt lat="49.85854" lon="2.31397">
        <ele>83.9</ele>
        <time>2021-04-28T13:33:18Z</time>
      </trkpt>
      <trkpt lat="49.85854" lon="2.31395">
        <ele>83.9</ele>
        <time>2021-04-28T13:33:19Z</time>
      </trkpt>
      <trkpt lat="49.85854" lon="2.31394">
        <ele>84</ele>
        <time>2021-04-28T13:33:21Z</time>
      </trkpt>
      <trkpt lat="49.85855" lon="2.3139">
        <ele>84</ele>
        <time>2021-04-28T13:33:22Z</time>
      </trkpt>
      <trkpt lat="49.85855" lon="2.31389">
        <ele>84.1</ele>
        <time>2021-04-28T13:33:23Z</time>
      </trkpt>
      <trkpt lat="49.85855" lon="2.31388">
        <ele>84.1</ele>
        <time>2021-04-28T13:33:24Z</time>
      </trkpt>
      <trkpt lat="49.85855" lon="2.31384">
        <ele>84.2</ele>
        <time>2021-04-28T13:33:25Z</time>
      </trkpt>
      <trkpt lat="49.85855" lon="2.31383">
        <ele>84.2</ele>
        <time>2021-04-28T13:33:27Z</time>
      </trkpt>
      <trkpt lat="49.85855" lon="2.31382">
        <ele>84.3</ele>
        <time>2021-04-28T13:33:28Z</time>
      </trkpt>
      <trkpt lat="49.85855" lon="2.31379">
        <ele>84.4</ele>
        <time>2021-04-28T13:33:29Z</time>
      </trkpt>
      <trkpt lat="49.85855" lon="2.31377">
        <ele>84.4</ele>
        <time>2021-04-28T13:33:31Z</time>
      </trkpt>
      <trkpt lat="49.85855" lon="2.31376">
        <ele>84.5</ele>
        <time>2021-04-28T13:33:32Z</time>
      </trkpt>
      <trkpt lat="49.85855" lon="2.31374">
        <ele>84.5</ele>
        <time>2021-04-28T13:33:33Z</time>
      </trkpt>
      <trkpt lat="49.85855" lon="2.31373">
        <ele>84.6</ele>
        <time>2021-04-28T13:33:34Z</time>
      </trkpt>
      <trkpt lat="49.85855" lon="2.3137">
        <ele>84.7</ele>
        <time>2021-04-28T13:33:36Z</time>
      </trkpt>
      <trkpt lat="49.85855" lon="2.31368">
        <ele>84.7</ele>
        <time>2021-04-28T13:33:37Z</time>
      </trkpt>
      <trkpt lat="49.85855" lon="2.31365">
        <ele>84.8</ele>
        <time>2021-04-28T13:33:38Z</time>
      </trkpt>
      <trkpt lat="49.85855" lon="2.31363">
        <ele>84.9</ele>
        <time>2021-04-28T13:33:39Z</time>
      </trkpt>
      <trkpt lat="49.85855" lon="2.31361">
        <ele>85</ele>
        <time>2021-04-28T13:33:40Z</time>
      </trkpt>
      <trkpt lat="49.85855" lon="2.3136">
        <ele>85.1</ele>
        <time>2021-04-28T13:33:42Z</time>
      </trkpt>
      <trkpt lat="49.85855" lon="2.31358">
        <ele>85.1</ele>
        <time>2021-04-28T13:33:43Z</time>
      </trkpt>
      <trkpt lat="49.85854" lon="2.31355">
        <ele>85.3</ele>
        <time>2021-04-28T13:33:44Z</time>
      </trkpt>
      <trkpt lat="49.85853" lon="2.31354">
        <ele>85.3</ele>
        <time>2021-04-28T13:33:45Z</time>
      </trkpt>
      <trkpt lat="49.85852" lon="2.31353">
        <ele>85.4</ele>
        <time>2021-04-28T13:33:46Z</time>
      </trkpt>
      <trkpt lat="49.85851" lon="2.31351">
        <ele>85.5</ele>
        <time>2021-04-28T13:33:47Z</time>
      </trkpt>
      <trkpt lat="49.85851" lon="2.3135">
        <ele>85.6</ele>
        <time>2021-04-28T13:33:49Z</time>
      </trkpt>
      <trkpt lat="49.8585" lon="2.31348">
        <ele>85.7</ele>
        <time>2021-04-28T13:33:50Z</time>
      </trkpt>
      <trkpt lat="49.8585" lon="2.31347">
        <ele>85.7</ele>
        <time>2021-04-28T13:33:51Z</time>
      </trkpt>
      <trkpt lat="49.85849" lon="2.31346">
        <ele>85.8</ele>
        <time>2021-04-28T13:33:52Z</time>
      </trkpt>
      <trkpt lat="49.85848" lon="2.31344">
        <ele>85.9</ele>
        <time>2021-04-28T13:33:54Z</time>
      </trkpt>
      <trkpt lat="49.85847" lon="2.31343">
        <ele>86</ele>
        <time>2021-04-28T13:33:55Z</time>
      </trkpt>
      <trkpt lat="49.85847" lon="2.31341">
        <ele>86.1</ele>
        <time>2021-04-28T13:33:56Z</time>
      </trkpt>
      <trkpt lat="49.85847" lon="2.31339">
        <ele>86.2</ele>
        <time>2021-04-28T13:33:58Z</time>
      </trkpt>
      <trkpt lat="49.85847" lon="2.31338">
        <ele>86.2</ele>
        <time>2021-04-28T13:33:59Z</time>
      </trkpt>
      <trkpt lat="49.85847" lon="2.31337">
        <ele>86.3</ele>
        <time>2021-04-28T13:34:00Z</time>
      </trkpt>
      <trkpt lat="49.85847" lon="2.31336">
        <ele>86.4</ele>
        <time>2021-04-28T13:34:01Z</time>
      </trkpt>
      <trkpt lat="49.85847" lon="2.31334">
        <ele>86.4</ele>
        <time>2021-04-28T13:34:02Z</time>
      </trkpt>
      <trkpt lat="49.85847" lon="2.31332">
        <ele>86.5</ele>
        <time>2021-04-28T13:34:03Z</time>
      </trkpt>
      <trkpt lat="49.85847" lon="2.31331">
        <ele>86.6</ele>
        <time>2021-04-28T13:34:05Z</time>
      </trkpt>
      <trkpt lat="49.85847" lon="2.31329">
        <ele>86.7</ele>
        <time>2021-04-28T13:34:07Z</time>
      </trkpt>
      <trkpt lat="49.85847" lon="2.31328">
        <ele>86.8</ele>
        <time>2021-04-28T13:34:08Z</time>
      </trkpt>
      <trkpt lat="49.85847" lon="2.31326">
        <ele>86.8</ele>
        <time>2021-04-28T13:34:09Z</time>
      </trkpt>
      <trkpt lat="49.85847" lon="2.31324">
        <ele>86.9</ele>
        <time>2021-04-28T13:34:11Z</time>
      </trkpt>
      <trkpt lat="49.85847" lon="2.31323">
        <ele>87</ele>
        <time>2021-04-28T13:34:12Z</time>
      </trkpt>
      <trkpt lat="49.85846" lon="2.31322">
        <ele>87.1</ele>
        <time>2021-04-28T13:34:13Z</time>
      </trkpt>
      <trkpt lat="49.85846" lon="2.31319">
        <ele>87.2</ele>
        <time>2021-04-28T13:34:14Z</time>
      </trkpt>
      <trkpt lat="49.85847" lon="2.31316">
        <ele>87.4</ele>
        <time>2021-04-28T13:34:16Z</time>
      </trkpt>
      <trkpt lat="49.85847" lon="2.31315">
        <ele>87.4</ele>
        <time>2021-04-28T13:34:17Z</time>
      </trkpt>
      <trkpt lat="49.85847" lon="2.31313">
        <ele>87.5</ele>
        <time>2021-04-28T13:34:18Z</time>
      </trkpt>
      <trkpt lat="49.85848" lon="2.31312">
        <ele>87.6</ele>
        <time>2021-04-28T13:34:19Z</time>
      </trkpt>
      <trkpt lat="49.85848" lon="2.31311">
        <ele>87.6</ele>
        <time>2021-04-28T13:34:21Z</time>
      </trkpt>
      <trkpt lat="49.85849" lon="2.3131">
        <ele>87.7</ele>
        <time>2021-04-28T13:34:22Z</time>
      </trkpt>
      <trkpt lat="49.85849" lon="2.31308">
        <ele>87.8</ele>
        <time>2021-04-28T13:34:23Z</time>
      </trkpt>
      <trkpt lat="49.8585" lon="2.31306">
        <ele>87.9</ele>
        <time>2021-04-28T13:34:24Z</time>
      </trkpt>
      <trkpt lat="49.8585" lon="2.31305">
        <ele>88</ele>
        <time>2021-04-28T13:34:25Z</time>
      </trkpt>
      <trkpt lat="49.85851" lon="2.31303">
        <ele>88.1</ele>
        <time>2021-04-28T13:34:27Z</time>
      </trkpt>
      <trkpt lat="49.85851" lon="2.31302">
        <ele>88.1</ele>
        <time>2021-04-28T13:34:28Z</time>
      </trkpt>
      <trkpt lat="49.85852" lon="2.31301">
        <ele>88.2</ele>
        <time>2021-04-28T13:34:29Z</time>
      </trkpt>
      <trkpt lat="49.85853" lon="2.313">
        <ele>88.3</ele>
        <time>2021-04-28T13:34:31Z</time>
      </trkpt>
      <trkpt lat="49.85854" lon="2.313">
        <ele>88.4</ele>
        <time>2021-04-28T13:34:32Z</time>
      </trkpt>
      <trkpt lat="49.85854" lon="2.31299">
        <ele>88.5</ele>
        <time>2021-04-28T13:34:33Z</time>
      </trkpt>
      <trkpt lat="49.85855" lon="2.31298">
        <ele>88.5</ele>
        <time>2021-04-28T13:34:34Z</time>
      </trkpt>
      <trkpt lat="49.85856" lon="2.31297">
        <ele>88.6</ele>
        <time>2021-04-28T13:34:36Z</time>
      </trkpt>
      <trkpt lat="49.85856" lon="2.31296">
        <ele>88.7</ele>
        <time>2021-04-28T13:34:37Z</time>
      </trkpt>
      <trkpt lat="49.85857" lon="2.31294">
        <ele>88.7</ele>
        <time>2021-04-28T13:34:38Z</time>
      </trkpt>
      <trkpt lat="49.85857" lon="2.31293">
        <ele>88.8</ele>
        <time>2021-04-28T13:34:40Z</time>
      </trkpt>
      <trkpt lat="49.85858" lon="2.31292">
        <ele>88.9</ele>
        <time>2021-04-28T13:34:41Z</time>
      </trkpt>
      <trkpt lat="49.85858" lon="2.3129">
        <ele>89</ele>
        <time>2021-04-28T13:34:42Z</time>
      </trkpt>
      <trkpt lat="49.85859" lon="2.31289">
        <ele>89.1</ele>
        <time>2021-04-28T13:34:43Z</time>
      </trkpt>
      <trkpt lat="49.85859" lon="2.31287">
        <ele>89.1</ele>
        <time>2021-04-28T13:34:45Z</time>
      </trkpt>
      <trkpt lat="49.85858" lon="2.31285">
        <ele>89.2</ele>
        <time>2021-04-28T13:34:46Z</time>
      </trkpt>
      <trkpt lat="49.85858" lon="2.31283">
        <ele>89.3</ele>
        <time>2021-04-28T13:34:47Z</time>
      </trkpt>
      <trkpt lat="49.85858" lon="2.3128">
        <ele>89.5</ele>
        <time>2021-04-28T13:34:48Z</time>
      </trkpt>
      <trkpt lat="49.85858" lon="2.31279">
        <ele>89.5</ele>
        <time>2021-04-28T13:34:50Z</time>
      </trkpt>
      <trkpt lat="49.85858" lon="2.31278">
        <ele>89.6</ele>
        <time>2021-04-28T13:34:51Z</time>
      </trkpt>
      <trkpt lat="49.85858" lon="2.31275">
        <ele>89.7</ele>
        <time>2021-04-28T13:34:52Z</time>
      </trkpt>
      <trkpt lat="49.85858" lon="2.31273">
        <ele>89.8</ele>
        <time>2021-04-28T13:34:53Z</time>
      </trkpt>
      <trkpt lat="49.85858" lon="2.31272">
        <ele>89.8</ele>
        <time>2021-04-28T13:34:55Z</time>
      </trkpt>
      <trkpt lat="49.85858" lon="2.3127">
        <ele>89.9</ele>
        <time>2021-04-28T13:34:56Z</time>
      </trkpt>
      <trkpt lat="49.85858" lon="2.31268">
        <ele>90</ele>
        <time>2021-04-28T13:34:57Z</time>
      </trkpt>
      <trkpt lat="49.85858" lon="2.31267">
        <ele>90</ele>
        <time>2021-04-28T13:34:58Z</time>
      </trkpt>
      <trkpt lat="49.85858" lon="2.31265">
        <ele>90.1</ele>
        <time>2021-04-28T13:35:00Z</time>
      </trkpt>
      <trkpt lat="49.85859" lon="2.31264">
        <ele>90.2</ele>
        <time>2021-04-28T13:35:01Z</time>
      </trkpt>
      <trkpt lat="49.85859" lon="2.31262">
        <ele>90.2</ele>
        <time>2021-04-28T13:35:02Z</time>
      </trkpt>
      <trkpt lat="49.85859" lon="2.3126">
        <ele>90.3</ele>
        <time>2021-04-28T13:35:03Z</time>
      </trkpt>
      <trkpt lat="49.85859" lon="2.31258">
        <ele>90.4</ele>
        <time>2021-04-28T13:35:05Z</time>
      </trkpt>
      <trkpt lat="49.85859" lon="2.31257">
        <ele>90.5</ele>
        <time>2021-04-28T13:35:06Z</time>
      </trkpt>
      <trkpt lat="49.8586" lon="2.31255">
        <ele>90.5</ele>
        <time>2021-04-28T13:35:07Z</time>
      </trkpt>
      <trkpt lat="49.8586" lon="2.31254">
        <ele>90.6</ele>
        <time>2021-04-28T13:35:09Z</time>
      </trkpt>
      <trkpt lat="49.8586" lon="2.31252">
        <ele>90.7</ele>
        <time>2021-04-28T13:35:10Z</time>
      </trkpt>
      <trkpt lat="49.8586" lon="2.3125">
        <ele>90.7</ele>
        <time>2021-04-28T13:35:12Z</time>
      </trkpt>
      <trkpt lat="49.8586" lon="2.31248">
        <ele>90.8</ele>
        <time>2021-04-28T13:35:13Z</time>
      </trkpt>
      <trkpt lat="49.8586" lon="2.31247">
        <ele>90.9</ele>
        <time>2021-04-28T13:35:14Z</time>
      </trkpt>
      <trkpt lat="49.85861" lon="2.31245">
        <ele>90.9</ele>
        <time>2021-04-28T13:35:16Z</time>
      </trkpt>
      <trkpt lat="49.85861" lon="2.31244">
        <ele>91</ele>
        <time>2021-04-28T13:35:17Z</time>
      </trkpt>
      <trkpt lat="49.85861" lon="2.31243">
        <ele>91</ele>
        <time>2021-04-28T13:35:18Z</time>
      </trkpt>
      <trkpt lat="49.85862" lon="2.31241">
        <ele>91.1</ele>
        <time>2021-04-28T13:35:19Z</time>
      </trkpt>
      <trkpt lat="49.85862" lon="2.3124">
        <ele>91.1</ele>
        <time>2021-04-28T13:35:21Z</time>
      </trkpt>
      <trkpt lat="49.85862" lon="2.31238">
        <ele>91.2</ele>
        <time>2021-04-28T13:35:22Z</time>
      </trkpt>
      <trkpt lat="49.85863" lon="2.31237">
        <ele>91.3</ele>
        <time>2021-04-28T13:35:24Z</time>
      </trkpt>
      <trkpt lat="49.85863" lon="2.31235">
        <ele>91.3</ele>
        <time>2021-04-28T13:35:25Z</time>
      </trkpt>
      <trkpt lat="49.85863" lon="2.31234">
        <ele>91.4</ele>
        <time>2021-04-28T13:35:26Z</time>
      </trkpt>
      <trkpt lat="49.85863" lon="2.31233">
        <ele>91.4</ele>
        <time>2021-04-28T13:35:28Z</time>
      </trkpt>
      <trkpt lat="49.85863" lon="2.31232">
        <ele>91.5</ele>
        <time>2021-04-28T13:35:29Z</time>
      </trkpt>
      <trkpt lat="49.85864" lon="2.3123">
        <ele>91.5</ele>
        <time>2021-04-28T13:35:30Z</time>
      </trkpt>
      <trkpt lat="49.85865" lon="2.31229">
        <ele>91.6</ele>
        <time>2021-04-28T13:35:32Z</time>
      </trkpt>
      <trkpt lat="49.85865" lon="2.31229">
        <ele>91.6</ele>
        <time>2021-04-28T13:35:33Z</time>
      </trkpt>
      <trkpt lat="49.85865" lon="2.31229">
        <ele>91.7</ele>
        <time>2021-04-28T13:35:34Z</time>
      </trkpt>
      <trkpt lat="49.85866" lon="2.31229">
        <ele>91.7</ele>
        <time>2021-04-28T13:35:35Z</time>
      </trkpt>
      <trkpt lat="49.85866" lon="2.31229">
        <ele>91.7</ele>
        <time>2021-04-28T13:35:36Z</time>
      </trkpt>
      <trkpt lat="49.85866" lon="2.3123">
        <ele>91.7</ele>
        <time>2021-04-28T13:35:37Z</time>
      </trkpt>
      <trkpt lat="49.85866" lon="2.3123">
        <ele>91.7</ele>
        <time>2021-04-28T13:35:39Z</time>
      </trkpt>
      <trkpt lat="49.85865" lon="2.3123">
        <ele>91.7</ele>
        <time>2021-04-28T13:35:41Z</time>
      </trkpt>
      <trkpt lat="49.85865" lon="2.3123">
        <ele>91.7</ele>
        <time>2021-04-28T13:35:42Z</time>
      </trkpt>
      <trkpt lat="49.85865" lon="2.31229">
        <ele>91.8</ele>
        <time>2021-04-28T13:35:43Z</time>
      </trkpt>
      <trkpt lat="49.85866" lon="2.31228">
        <ele>91.8</ele>
        <time>2021-04-28T13:35:45Z</time>
      </trkpt>
      <trkpt lat="49.85866" lon="2.31227">
        <ele>91.8</ele>
        <time>2021-04-28T13:35:46Z</time>
      </trkpt>
      <trkpt lat="49.85867" lon="2.31226">
        <ele>91.9</ele>
        <time>2021-04-28T13:35:47Z</time>
      </trkpt>
      <trkpt lat="49.85867" lon="2.31224">
        <ele>92</ele>
        <time>2021-04-28T13:35:49Z</time>
      </trkpt>
      <trkpt lat="49.85868" lon="2.31223">
        <ele>92.1</ele>
        <time>2021-04-28T13:35:50Z</time>
      </trkpt>
      <trkpt lat="49.85868" lon="2.3122">
        <ele>92.1</ele>
        <time>2021-04-28T13:35:51Z</time>
      </trkpt>
      <trkpt lat="49.85869" lon="2.31218">
        <ele>92.2</ele>
        <time>2021-04-28T13:35:52Z</time>
      </trkpt>
      <trkpt lat="49.85869" lon="2.31216">
        <ele>92.3</ele>
        <time>2021-04-28T13:35:54Z</time>
      </trkpt>
      <trkpt lat="49.85869" lon="2.31214">
        <ele>92.4</ele>
        <time>2021-04-28T13:35:55Z</time>
      </trkpt>
      <trkpt lat="49.8587" lon="2.31212">
        <ele>92.5</ele>
        <time>2021-04-28T13:35:56Z</time>
      </trkpt>
      <trkpt lat="49.8587" lon="2.3121">
        <ele>92.6</ele>
        <time>2021-04-28T13:35:57Z</time>
      </trkpt>
      <trkpt lat="49.8587" lon="2.31206">
        <ele>92.7</ele>
        <time>2021-04-28T13:35:59Z</time>
      </trkpt>
      <trkpt lat="49.8587" lon="2.31205">
        <ele>92.7</ele>
        <time>2021-04-28T13:36:00Z</time>
      </trkpt>
      <trkpt lat="49.8587" lon="2.31204">
        <ele>92.8</ele>
        <time>2021-04-28T13:36:01Z</time>
      </trkpt>
      <trkpt lat="49.8587" lon="2.31202">
        <ele>92.8</ele>
        <time>2021-04-28T13:36:02Z</time>
      </trkpt>
      <trkpt lat="49.8587" lon="2.312">
        <ele>92.9</ele>
        <time>2021-04-28T13:36:04Z</time>
      </trkpt>
      <trkpt lat="49.8587" lon="2.31198">
        <ele>92.9</ele>
        <time>2021-04-28T13:36:05Z</time>
      </trkpt>
      <trkpt lat="49.85871" lon="2.31196">
        <ele>93</ele>
        <time>2021-04-28T13:36:06Z</time>
      </trkpt>
      <trkpt lat="49.85871" lon="2.31194">
        <ele>93.1</ele>
        <time>2021-04-28T13:36:07Z</time>
      </trkpt>
      <trkpt lat="49.85871" lon="2.31192">
        <ele>93.1</ele>
        <time>2021-04-28T13:36:09Z</time>
      </trkpt>
      <trkpt lat="49.85871" lon="2.3119">
        <ele>93.2</ele>
        <time>2021-04-28T13:36:10Z</time>
      </trkpt>
      <trkpt lat="49.85872" lon="2.31188">
        <ele>93.3</ele>
        <time>2021-04-28T13:36:12Z</time>
      </trkpt>
      <trkpt lat="49.85872" lon="2.31186">
        <ele>93.3</ele>
        <time>2021-04-28T13:36:13Z</time>
      </trkpt>
      <trkpt lat="49.85872" lon="2.31185">
        <ele>93.3</ele>
        <time>2021-04-28T13:36:14Z</time>
      </trkpt>
      <trkpt lat="49.85873" lon="2.31183">
        <ele>93.4</ele>
        <time>2021-04-28T13:36:15Z</time>
      </trkpt>
      <trkpt lat="49.85873" lon="2.31181">
        <ele>93.4</ele>
        <time>2021-04-28T13:36:17Z</time>
      </trkpt>
      <trkpt lat="49.85873" lon="2.3118">
        <ele>93.5</ele>
        <time>2021-04-28T13:36:18Z</time>
      </trkpt>
      <trkpt lat="49.85874" lon="2.31178">
        <ele>93.5</ele>
        <time>2021-04-28T13:36:20Z</time>
      </trkpt>
      <trkpt lat="49.85875" lon="2.31176">
        <ele>93.6</ele>
        <time>2021-04-28T13:36:21Z</time>
      </trkpt>
      <trkpt lat="49.85875" lon="2.31175">
        <ele>93.6</ele>
        <time>2021-04-28T13:36:22Z</time>
      </trkpt>
      <trkpt lat="49.85875" lon="2.31173">
        <ele>93.6</ele>
        <time>2021-04-28T13:36:23Z</time>
      </trkpt>
      <trkpt lat="49.85876" lon="2.31171">
        <ele>93.7</ele>
        <time>2021-04-28T13:36:24Z</time>
      </trkpt>
      <trkpt lat="49.85875" lon="2.31169">
        <ele>93.7</ele>
        <time>2021-04-28T13:36:26Z</time>
      </trkpt>
      <trkpt lat="49.85875" lon="2.31167">
        <ele>93.7</ele>
        <time>2021-04-28T13:36:27Z</time>
      </trkpt>
      <trkpt lat="49.85876" lon="2.31165">
        <ele>93.8</ele>
        <time>2021-04-28T13:36:28Z</time>
      </trkpt>
      <trkpt lat="49.85876" lon="2.31164">
        <ele>93.8</ele>
        <time>2021-04-28T13:36:29Z</time>
      </trkpt>
      <trkpt lat="49.85877" lon="2.31162">
        <ele>93.8</ele>
        <time>2021-04-28T13:36:30Z</time>
      </trkpt>
      <trkpt lat="49.85877" lon="2.3116">
        <ele>93.8</ele>
        <time>2021-04-28T13:36:32Z</time>
      </trkpt>
      <trkpt lat="49.85878" lon="2.31159">
        <ele>93.9</ele>
        <time>2021-04-28T13:36:33Z</time>
      </trkpt>
      <trkpt lat="49.85878" lon="2.31156">
        <ele>93.9</ele>
        <time>2021-04-28T13:36:34Z</time>
      </trkpt>
      <trkpt lat="49.85878" lon="2.31154">
        <ele>93.9</ele>
        <time>2021-04-28T13:36:35Z</time>
      </trkpt>
      <trkpt lat="49.85878" lon="2.31153">
        <ele>93.9</ele>
        <time>2021-04-28T13:36:36Z</time>
      </trkpt>
      <trkpt lat="49.85878" lon="2.31151">
        <ele>93.9</ele>
        <time>2021-04-28T13:36:37Z</time>
      </trkpt>
      <trkpt lat="49.85879" lon="2.31149">
        <ele>93.9</ele>
        <time>2021-04-28T13:36:39Z</time>
      </trkpt>
      <trkpt lat="49.85879" lon="2.31148">
        <ele>94</ele>
        <time>2021-04-28T13:36:40Z</time>
      </trkpt>
      <trkpt lat="49.85879" lon="2.31146">
        <ele>94</ele>
        <time>2021-04-28T13:36:41Z</time>
      </trkpt>
      <trkpt lat="49.85879" lon="2.31145">
        <ele>94</ele>
        <time>2021-04-28T13:36:42Z</time>
      </trkpt>
      <trkpt lat="49.8588" lon="2.31143">
        <ele>94</ele>
        <time>2021-04-28T13:36:43Z</time>
      </trkpt>
      <trkpt lat="49.8588" lon="2.31141">
        <ele>94</ele>
        <time>2021-04-28T13:36:44Z</time>
      </trkpt>
      <trkpt lat="49.8588" lon="2.3114">
        <ele>94</ele>
        <time>2021-04-28T13:36:45Z</time>
      </trkpt>
      <trkpt lat="49.85881" lon="2.31138">
        <ele>94</ele>
        <time>2021-04-28T13:36:47Z</time>
      </trkpt>
      <trkpt lat="49.85881" lon="2.31136">
        <ele>94</ele>
        <time>2021-04-28T13:36:48Z</time>
      </trkpt>
      <trkpt lat="49.85881" lon="2.31135">
        <ele>94</ele>
        <time>2021-04-28T13:36:49Z</time>
      </trkpt>
      <trkpt lat="49.85882" lon="2.31133">
        <ele>94</ele>
        <time>2021-04-28T13:36:50Z</time>
      </trkpt>
      <trkpt lat="49.85882" lon="2.31131">
        <ele>94</ele>
        <time>2021-04-28T13:36:51Z</time>
      </trkpt>
      <trkpt lat="49.85882" lon="2.3113">
        <ele>94</ele>
        <time>2021-04-28T13:36:53Z</time>
      </trkpt>
      <trkpt lat="49.85883" lon="2.31128">
        <ele>94</ele>
        <time>2021-04-28T13:36:54Z</time>
      </trkpt>
      <trkpt lat="49.85883" lon="2.31126">
        <ele>94</ele>
        <time>2021-04-28T13:36:55Z</time>
      </trkpt>
      <trkpt lat="49.85883" lon="2.31125">
        <ele>94</ele>
        <time>2021-04-28T13:36:56Z</time>
      </trkpt>
      <trkpt lat="49.85884" lon="2.31123">
        <ele>94</ele>
        <time>2021-04-28T13:36:57Z</time>
      </trkpt>
      <trkpt lat="49.85884" lon="2.31121">
        <ele>94</ele>
        <time>2021-04-28T13:36:58Z</time>
      </trkpt>
      <trkpt lat="49.85885" lon="2.31119">
        <ele>94</ele>
        <time>2021-04-28T13:37:00Z</time>
      </trkpt>
      <trkpt lat="49.85884" lon="2.31118">
        <ele>94</ele>
        <time>2021-04-28T13:37:01Z</time>
      </trkpt>
      <trkpt lat="49.85884" lon="2.31116">
        <ele>94</ele>
        <time>2021-04-28T13:37:02Z</time>
      </trkpt>
      <trkpt lat="49.85884" lon="2.31115">
        <ele>94</ele>
        <time>2021-04-28T13:37:04Z</time>
      </trkpt>
      <trkpt lat="49.85885" lon="2.31116">
        <ele>94</ele>
        <time>2021-04-28T13:37:05Z</time>
      </trkpt>
      <trkpt lat="49.85885" lon="2.31116">
        <ele>94</ele>
        <time>2021-04-28T13:37:06Z</time>
      </trkpt>
      <trkpt lat="49.85886" lon="2.31117">
        <ele>94</ele>
        <time>2021-04-28T13:37:08Z</time>
      </trkpt>
      <trkpt lat="49.85886" lon="2.31117">
        <ele>94</ele>
        <time>2021-04-28T13:37:09Z</time>
      </trkpt>
      <trkpt lat="49.85886" lon="2.31118">
        <ele>94</ele>
        <time>2021-04-28T13:37:10Z</time>
      </trkpt>
      <trkpt lat="49.85887" lon="2.31118">
        <ele>94</ele>
        <time>2021-04-28T13:37:12Z</time>
      </trkpt>
      <trkpt lat="49.85887" lon="2.31118">
        <ele>94</ele>
        <time>2021-04-28T13:37:13Z</time>
      </trkpt>
      <trkpt lat="49.85887" lon="2.31118">
        <ele>94</ele>
        <time>2021-04-28T13:37:14Z</time>
      </trkpt>
      <trkpt lat="49.85886" lon="2.31118">
        <ele>94</ele>
        <time>2021-04-28T13:37:16Z</time>
      </trkpt>
      <trkpt lat="49.85886" lon="2.31119">
        <ele>94</ele>
        <time>2021-04-28T13:37:18Z</time>
      </trkpt>
      <trkpt lat="49.85886" lon="2.31119">
        <ele>94</ele>
        <time>2021-04-28T13:37:20Z</time>
      </trkpt>
      <trkpt lat="49.85886" lon="2.31118">
        <ele>94</ele>
        <time>2021-04-28T13:37:21Z</time>
      </trkpt>
      <trkpt lat="49.85886" lon="2.31118">
        <ele>94</ele>
        <time>2021-04-28T13:37:23Z</time>
      </trkpt>
      <trkpt lat="49.85886" lon="2.31118">
        <ele>94</ele>
        <time>2021-04-28T13:37:24Z</time>
      </trkpt>
      <trkpt lat="49.85886" lon="2.31118">
        <ele>94</ele>
        <time>2021-04-28T13:37:26Z</time>
      </trkpt>
      <trkpt lat="49.85886" lon="2.31117">
        <ele>94</ele>
        <time>2021-04-28T13:37:27Z</time>
      </trkpt>
      <trkpt lat="49.85886" lon="2.31117">
        <ele>94</ele>
        <time>2021-04-28T13:37:28Z</time>
      </trkpt>
      <trkpt lat="49.85886" lon="2.31117">
        <ele>94</ele>
        <time>2021-04-28T13:37:29Z</time>
      </trkpt>
      <trkpt lat="49.85886" lon="2.31117">
        <ele>94</ele>
        <time>2021-04-28T13:37:30Z</time>
      </trkpt>
      <trkpt lat="49.85887" lon="2.31116">
        <ele>94</ele>
        <time>2021-04-28T13:37:32Z</time>
      </trkpt>
      <trkpt lat="49.85887" lon="2.31116">
        <ele>94</ele>
        <time>2021-04-28T13:37:33Z</time>
      </trkpt>
      <trkpt lat="49.85887" lon="2.31116">
        <ele>94</ele>
        <time>2021-04-28T13:37:34Z</time>
      </trkpt>
      <trkpt lat="49.85888" lon="2.31116">
        <ele>94</ele>
        <time>2021-04-28T13:37:35Z</time>
      </trkpt>
      <trkpt lat="49.85888" lon="2.31116">
        <ele>94</ele>
        <time>2021-04-28T13:37:36Z</time>
      </trkpt>
      <trkpt lat="49.85889" lon="2.31115">
        <ele>94.2</ele>
        <time>2021-04-28T13:37:37Z</time>
      </trkpt>
      <trkpt lat="49.8589" lon="2.31115">
        <ele>94.2</ele>
        <time>2021-04-28T13:37:39Z</time>
      </trkpt>
      <trkpt lat="49.85891" lon="2.31114">
        <ele>94.2</ele>
        <time>2021-04-28T13:37:40Z</time>
      </trkpt>
      <trkpt lat="49.85892" lon="2.31114">
        <ele>94.3</ele>
        <time>2021-04-28T13:37:41Z</time>
      </trkpt>
      <trkpt lat="49.85893" lon="2.31113">
        <ele>94.3</ele>
        <time>2021-04-28T13:37:42Z</time>
      </trkpt>
      <trkpt lat="49.85894" lon="2.31112">
        <ele>94.4</ele>
        <time>2021-04-28T13:37:43Z</time>
      </trkpt>
      <trkpt lat="49.85895" lon="2.31111">
        <ele>94.4</ele>
        <time>2021-04-28T13:37:45Z</time>
      </trkpt>
      <trkpt lat="49.85896" lon="2.3111">
        <ele>94.4</ele>
        <time>2021-04-28T13:37:46Z</time>
      </trkpt>
      <trkpt lat="49.85898" lon="2.31107">
        <ele>94.6</ele>
        <time>2021-04-28T13:37:48Z</time>
      </trkpt>
      <trkpt lat="49.85899" lon="2.31106">
        <ele>94.6</ele>
        <time>2021-04-28T13:37:49Z</time>
      </trkpt>
      <trkpt lat="49.859" lon="2.31106">
        <ele>94.6</ele>
        <time>2021-04-28T13:37:51Z</time>
      </trkpt>
      <trkpt lat="49.859" lon="2.31106">
        <ele>94.7</ele>
        <time>2021-04-28T13:37:52Z</time>
      </trkpt>
      <trkpt lat="49.859" lon="2.31106">
        <ele>94.7</ele>
        <time>2021-04-28T13:37:53Z</time>
      </trkpt>
      <trkpt lat="49.85901" lon="2.31106">
        <ele>94.7</ele>
        <time>2021-04-28T13:37:54Z</time>
      </trkpt>
      <trkpt lat="49.85902" lon="2.31104">
        <ele>94.8</ele>
        <time>2021-04-28T13:37:55Z</time>
      </trkpt>
      <trkpt lat="49.85903" lon="2.31104">
        <ele>94.8</ele>
        <time>2021-04-28T13:37:57Z</time>
      </trkpt>
      <trkpt lat="49.85904" lon="2.31103">
        <ele>94.8</ele>
        <time>2021-04-28T13:37:58Z</time>
      </trkpt>
      <trkpt lat="49.85905" lon="2.31102">
        <ele>94.9</ele>
        <time>2021-04-28T13:37:59Z</time>
      </trkpt>
      <trkpt lat="49.85906" lon="2.31099">
        <ele>95</ele>
        <time>2021-04-28T13:38:00Z</time>
      </trkpt>
      <trkpt lat="49.85907" lon="2.31098">
        <ele>95</ele>
        <time>2021-04-28T13:38:02Z</time>
      </trkpt>
      <trkpt lat="49.85907" lon="2.31097">
        <ele>95</ele>
        <time>2021-04-28T13:38:03Z</time>
      </trkpt>
      <trkpt lat="49.85908" lon="2.31094">
        <ele>95.1</ele>
        <time>2021-04-28T13:38:05Z</time>
      </trkpt>
      <trkpt lat="49.85907" lon="2.31091">
        <ele>95.2</ele>
        <time>2021-04-28T13:38:06Z</time>
      </trkpt>
      <trkpt lat="49.85907" lon="2.3109">
        <ele>95.2</ele>
        <time>2021-04-28T13:38:07Z</time>
      </trkpt>
      <trkpt lat="49.85907" lon="2.31088">
        <ele>95.3</ele>
        <time>2021-04-28T13:38:08Z</time>
      </trkpt>
      <trkpt lat="49.85907" lon="2.31087">
        <ele>95.3</ele>
        <time>2021-04-28T13:38:09Z</time>
      </trkpt>
      <trkpt lat="49.85906" lon="2.31085">
        <ele>95.4</ele>
        <time>2021-04-28T13:38:11Z</time>
      </trkpt>
      <trkpt lat="49.85906" lon="2.31083">
        <ele>95.4</ele>
        <time>2021-04-28T13:38:12Z</time>
      </trkpt>
      <trkpt lat="49.85906" lon="2.31081">
        <ele>95.5</ele>
        <time>2021-04-28T13:38:13Z</time>
      </trkpt>
      <trkpt lat="49.85907" lon="2.31079">
        <ele>95.5</ele>
        <time>2021-04-28T13:38:14Z</time>
      </trkpt>
      <trkpt lat="49.85907" lon="2.31078">
        <ele>95.6</ele>
        <time>2021-04-28T13:38:15Z</time>
      </trkpt>
      <trkpt lat="49.85908" lon="2.31077">
        <ele>95.6</ele>
        <time>2021-04-28T13:38:16Z</time>
      </trkpt>
      <trkpt lat="49.85909" lon="2.31076">
        <ele>95.6</ele>
        <time>2021-04-28T13:38:17Z</time>
      </trkpt>
      <trkpt lat="49.8591" lon="2.31076">
        <ele>95.7</ele>
        <time>2021-04-28T13:38:19Z</time>
      </trkpt>
      <trkpt lat="49.85911" lon="2.31076">
        <ele>95.7</ele>
        <time>2021-04-28T13:38:20Z</time>
      </trkpt>
      <trkpt lat="49.85912" lon="2.31076">
        <ele>95.7</ele>
        <time>2021-04-28T13:38:21Z</time>
      </trkpt>
      <trkpt lat="49.85913" lon="2.31075">
        <ele>95.8</ele>
        <time>2021-04-28T13:38:22Z</time>
      </trkpt>
      <trkpt lat="49.85914" lon="2.31075">
        <ele>95.8</ele>
        <time>2021-04-28T13:38:23Z</time>
      </trkpt>
      <trkpt lat="49.85916" lon="2.31074">
        <ele>95.9</ele>
        <time>2021-04-28T13:38:24Z</time>
      </trkpt>
      <trkpt lat="49.85917" lon="2.31074">
        <ele>95.9</ele>
        <time>2021-04-28T13:38:25Z</time>
      </trkpt>
      <trkpt lat="49.85918" lon="2.31073">
        <ele>96</ele>
        <time>2021-04-28T13:38:27Z</time>
      </trkpt>
      <trkpt lat="49.85919" lon="2.31073">
        <ele>96</ele>
        <time>2021-04-28T13:38:28Z</time>
      </trkpt>
      <trkpt lat="49.8592" lon="2.31072">
        <ele>96</ele>
        <time>2021-04-28T13:38:29Z</time>
      </trkpt>
      <trkpt lat="49.85921" lon="2.31072">
        <ele>96.1</ele>
        <time>2021-04-28T13:38:30Z</time>
      </trkpt>
      <trkpt lat="49.85922" lon="2.31072">
        <ele>96.1</ele>
        <time>2021-04-28T13:38:31Z</time>
      </trkpt>
      <trkpt lat="49.85923" lon="2.31072">
        <ele>96.1</ele>
        <time>2021-04-28T13:38:32Z</time>
      </trkpt>
      <trkpt lat="49.85924" lon="2.31071">
        <ele>96.2</ele>
        <time>2021-04-28T13:38:33Z</time>
      </trkpt>
      <trkpt lat="49.85925" lon="2.31071">
        <ele>96.2</ele>
        <time>2021-04-28T13:38:35Z</time>
      </trkpt>
      <trkpt lat="49.85926" lon="2.3107">
        <ele>96.2</ele>
        <time>2021-04-28T13:38:36Z</time>
      </trkpt>
      <trkpt lat="49.85926" lon="2.31068">
        <ele>96.3</ele>
        <time>2021-04-28T13:38:38Z</time>
      </trkpt>
      <trkpt lat="49.85926" lon="2.31066">
        <ele>96.3</ele>
        <time>2021-04-28T13:38:39Z</time>
      </trkpt>
      <trkpt lat="49.85925" lon="2.31064">
        <ele>96.4</ele>
        <time>2021-04-28T13:38:41Z</time>
      </trkpt>
      <trkpt lat="49.85925" lon="2.31064">
        <ele>96.4</ele>
        <time>2021-04-28T13:38:42Z</time>
      </trkpt>
      <trkpt lat="49.85925" lon="2.31063">
        <ele>96.4</ele>
        <time>2021-04-28T13:38:44Z</time>
      </trkpt>
      <trkpt lat="49.85925" lon="2.31063">
        <ele>96.4</ele>
        <time>2021-04-28T13:38:45Z</time>
      </trkpt>
      <trkpt lat="49.85926" lon="2.31063">
        <ele>96.4</ele>
        <time>2021-04-28T13:38:46Z</time>
      </trkpt>
      <trkpt lat="49.85926" lon="2.31063">
        <ele>96.5</ele>
        <time>2021-04-28T13:38:48Z</time>
      </trkpt>
      <trkpt lat="49.85927" lon="2.31063">
        <ele>96.5</ele>
        <time>2021-04-28T13:38:49Z</time>
      </trkpt>
      <trkpt lat="49.85928" lon="2.31062">
        <ele>96.5</ele>
        <time>2021-04-28T13:38:50Z</time>
      </trkpt>
      <trkpt lat="49.8593" lon="2.31062">
        <ele>96.6</ele>
        <time>2021-04-28T13:38:52Z</time>
      </trkpt>
      <trkpt lat="49.85931" lon="2.31062">
        <ele>96.6</ele>
        <time>2021-04-28T13:38:53Z</time>
      </trkpt>
      <trkpt lat="49.85931" lon="2.31062">
        <ele>96.6</ele>
        <time>2021-04-28T13:38:54Z</time>
      </trkpt>
      <trkpt lat="49.85933" lon="2.31061">
        <ele>96.7</ele>
        <time>2021-04-28T13:38:55Z</time>
      </trkpt>
      <trkpt lat="49.85934" lon="2.3106">
        <ele>96.7</ele>
        <time>2021-04-28T13:38:56Z</time>
      </trkpt>
      <trkpt lat="49.85935" lon="2.3106">
        <ele>96.7</ele>
        <time>2021-04-28T13:38:58Z</time>
      </trkpt>
      <trkpt lat="49.85936" lon="2.31059">
        <ele>96.8</ele>
        <time>2021-04-28T13:38:59Z</time>
      </trkpt>
      <trkpt lat="49.85937" lon="2.31059">
        <ele>96.8</ele>
        <time>2021-04-28T13:39:00Z</time>
      </trkpt>
      <trkpt lat="49.85938" lon="2.31059">
        <ele>96.8</ele>
        <time>2021-04-28T13:39:01Z</time>
      </trkpt>
      <trkpt lat="49.8594" lon="2.31058">
        <ele>96.9</ele>
        <time>2021-04-28T13:39:02Z</time>
      </trkpt>
      <trkpt lat="49.85941" lon="2.31057">
        <ele>96.9</ele>
        <time>2021-04-28T13:39:04Z</time>
      </trkpt>
      <trkpt lat="49.85943" lon="2.31056">
        <ele>97</ele>
        <time>2021-04-28T13:39:05Z</time>
      </trkpt>
      <trkpt lat="49.85944" lon="2.31056">
        <ele>97</ele>
        <time>2021-04-28T13:39:06Z</time>
      </trkpt>
      <trkpt lat="49.85945" lon="2.31055">
        <ele>97</ele>
        <time>2021-04-28T13:39:07Z</time>
      </trkpt>
      <trkpt lat="49.85946" lon="2.31054">
        <ele>97.1</ele>
        <time>2021-04-28T13:39:09Z</time>
      </trkpt>
      <trkpt lat="49.85948" lon="2.31054">
        <ele>97.1</ele>
        <time>2021-04-28T13:39:10Z</time>
      </trkpt>
      <trkpt lat="49.8595" lon="2.31053">
        <ele>97.2</ele>
        <time>2021-04-28T13:39:11Z</time>
      </trkpt>
      <trkpt lat="49.8595" lon="2.31052">
        <ele>97.2</ele>
        <time>2021-04-28T13:39:13Z</time>
      </trkpt>
      <trkpt lat="49.85951" lon="2.31052">
        <ele>97.2</ele>
        <time>2021-04-28T13:39:14Z</time>
      </trkpt>
      <trkpt lat="49.85952" lon="2.31051">
        <ele>97.3</ele>
        <time>2021-04-28T13:39:15Z</time>
      </trkpt>
      <trkpt lat="49.85953" lon="2.3105">
        <ele>97.3</ele>
        <time>2021-04-28T13:39:16Z</time>
      </trkpt>
      <trkpt lat="49.85954" lon="2.3105">
        <ele>97.3</ele>
        <time>2021-04-28T13:39:17Z</time>
      </trkpt>
      <trkpt lat="49.85955" lon="2.31049">
        <ele>97.3</ele>
        <time>2021-04-28T13:39:19Z</time>
      </trkpt>
      <trkpt lat="49.85956" lon="2.31048">
        <ele>97.4</ele>
        <time>2021-04-28T13:39:20Z</time>
      </trkpt>
      <trkpt lat="49.85957" lon="2.31047">
        <ele>97.4</ele>
        <time>2021-04-28T13:39:21Z</time>
      </trkpt>
      <trkpt lat="49.85959" lon="2.31045">
        <ele>97.4</ele>
        <time>2021-04-28T13:39:23Z</time>
      </trkpt>
      <trkpt lat="49.8596" lon="2.31044">
        <ele>97.5</ele>
        <time>2021-04-28T13:39:24Z</time>
      </trkpt>
      <trkpt lat="49.85961" lon="2.31043">
        <ele>97.5</ele>
        <time>2021-04-28T13:39:25Z</time>
      </trkpt>
      <trkpt lat="49.85962" lon="2.31041">
        <ele>97.5</ele>
        <time>2021-04-28T13:39:27Z</time>
      </trkpt>
      <trkpt lat="49.85963" lon="2.3104">
        <ele>97.6</ele>
        <time>2021-04-28T13:39:28Z</time>
      </trkpt>
      <trkpt lat="49.85963" lon="2.31039">
        <ele>97.6</ele>
        <time>2021-04-28T13:39:29Z</time>
      </trkpt>
      <trkpt lat="49.85964" lon="2.31038">
        <ele>97.6</ele>
        <time>2021-04-28T13:39:30Z</time>
      </trkpt>
      <trkpt lat="49.85965" lon="2.31036">
        <ele>97.6</ele>
        <time>2021-04-28T13:39:32Z</time>
      </trkpt>
      <trkpt lat="49.85966" lon="2.31035">
        <ele>97.6</ele>
        <time>2021-04-28T13:39:33Z</time>
      </trkpt>
      <trkpt lat="49.85967" lon="2.31034">
        <ele>97.7</ele>
        <time>2021-04-28T13:39:34Z</time>
      </trkpt>
      <trkpt lat="49.85968" lon="2.31033">
        <ele>97.7</ele>
        <time>2021-04-28T13:39:35Z</time>
      </trkpt>
      <trkpt lat="49.85969" lon="2.31032">
        <ele>97.7</ele>
        <time>2021-04-28T13:39:37Z</time>
      </trkpt>
      <trkpt lat="49.8597" lon="2.31032">
        <ele>97.7</ele>
        <time>2021-04-28T13:39:38Z</time>
      </trkpt>
      <trkpt lat="49.85971" lon="2.31031">
        <ele>97.8</ele>
        <time>2021-04-28T13:39:39Z</time>
      </trkpt>
      <trkpt lat="49.85972" lon="2.3103">
        <ele>97.8</ele>
        <time>2021-04-28T13:39:41Z</time>
      </trkpt>
      <trkpt lat="49.85973" lon="2.31029">
        <ele>97.8</ele>
        <time>2021-04-28T13:39:42Z</time>
      </trkpt>
      <trkpt lat="49.85973" lon="2.31028">
        <ele>97.8</ele>
        <time>2021-04-28T13:39:43Z</time>
      </trkpt>
      <trkpt lat="49.85974" lon="2.31027">
        <ele>97.8</ele>
        <time>2021-04-28T13:39:44Z</time>
      </trkpt>
      <trkpt lat="49.85975" lon="2.31027">
        <ele>97.9</ele>
        <time>2021-04-28T13:39:45Z</time>
      </trkpt>
      <trkpt lat="49.85976" lon="2.31026">
        <ele>97.9</ele>
        <time>2021-04-28T13:39:47Z</time>
      </trkpt>
      <trkpt lat="49.85978" lon="2.31024">
        <ele>97.9</ele>
        <time>2021-04-28T13:39:48Z</time>
      </trkpt>
      <trkpt lat="49.85978" lon="2.31024">
        <ele>97.9</ele>
        <time>2021-04-28T13:39:49Z</time>
      </trkpt>
      <trkpt lat="49.85979" lon="2.31023">
        <ele>97.9</ele>
        <time>2021-04-28T13:39:50Z</time>
      </trkpt>
      <trkpt lat="49.8598" lon="2.31023">
        <ele>97.9</ele>
        <time>2021-04-28T13:39:51Z</time>
      </trkpt>
      <trkpt lat="49.85981" lon="2.31022">
        <ele>98</ele>
        <time>2021-04-28T13:39:53Z</time>
      </trkpt>
      <trkpt lat="49.85981" lon="2.31021">
        <ele>98</ele>
        <time>2021-04-28T13:39:54Z</time>
      </trkpt>
      <trkpt lat="49.85982" lon="2.3102">
        <ele>98</ele>
        <time>2021-04-28T13:39:55Z</time>
      </trkpt>
      <trkpt lat="49.85984" lon="2.31019">
        <ele>98</ele>
        <time>2021-04-28T13:39:57Z</time>
      </trkpt>
      <trkpt lat="49.85985" lon="2.31018">
        <ele>98.1</ele>
        <time>2021-04-28T13:39:58Z</time>
      </trkpt>
      <trkpt lat="49.85986" lon="2.31017">
        <ele>98.1</ele>
        <time>2021-04-28T13:40:00Z</time>
      </trkpt>
      <trkpt lat="49.85987" lon="2.31016">
        <ele>98.1</ele>
        <time>2021-04-28T13:40:01Z</time>
      </trkpt>
      <trkpt lat="49.85988" lon="2.31015">
        <ele>98.1</ele>
        <time>2021-04-28T13:40:02Z</time>
      </trkpt>
      <trkpt lat="49.85988" lon="2.31014">
        <ele>98.1</ele>
        <time>2021-04-28T13:40:03Z</time>
      </trkpt>
      <trkpt lat="49.85989" lon="2.31014">
        <ele>98.1</ele>
        <time>2021-04-28T13:40:05Z</time>
      </trkpt>
      <trkpt lat="49.85989" lon="2.31012">
        <ele>98.2</ele>
        <time>2021-04-28T13:40:06Z</time>
      </trkpt>
      <trkpt lat="49.85989" lon="2.31011">
        <ele>98.2</ele>
        <time>2021-04-28T13:40:07Z</time>
      </trkpt>
      <trkpt lat="49.8599" lon="2.3101">
        <ele>98.2</ele>
        <time>2021-04-28T13:40:08Z</time>
      </trkpt>
      <trkpt lat="49.8599" lon="2.31009">
        <ele>98.2</ele>
        <time>2021-04-28T13:40:09Z</time>
      </trkpt>
      <trkpt lat="49.85991" lon="2.31008">
        <ele>98.2</ele>
        <time>2021-04-28T13:40:11Z</time>
      </trkpt>
      <trkpt lat="49.85991" lon="2.31007">
        <ele>98.2</ele>
        <time>2021-04-28T13:40:12Z</time>
      </trkpt>
      <trkpt lat="49.85992" lon="2.31005">
        <ele>98.2</ele>
        <time>2021-04-28T13:40:14Z</time>
      </trkpt>
      <trkpt lat="49.85993" lon="2.31004">
        <ele>98.2</ele>
        <time>2021-04-28T13:40:15Z</time>
      </trkpt>
      <trkpt lat="49.85994" lon="2.31002">
        <ele>98.3</ele>
        <time>2021-04-28T13:40:16Z</time>
      </trkpt>
      <trkpt lat="49.85994" lon="2.31002">
        <ele>98.3</ele>
        <time>2021-04-28T13:40:18Z</time>
      </trkpt>
      <trkpt lat="49.85995" lon="2.31002">
        <ele>98.3</ele>
        <time>2021-04-28T13:40:19Z</time>
      </trkpt>
      <trkpt lat="49.85996" lon="2.31001">
        <ele>98.3</ele>
        <time>2021-04-28T13:40:20Z</time>
      </trkpt>
      <trkpt lat="49.85997" lon="2.31">
        <ele>98.3</ele>
        <time>2021-04-28T13:40:21Z</time>
      </trkpt>
      <trkpt lat="49.85998" lon="2.30999">
        <ele>98.3</ele>
        <time>2021-04-28T13:40:22Z</time>
      </trkpt>
      <trkpt lat="49.85999" lon="2.30999">
        <ele>98.3</ele>
        <time>2021-04-28T13:40:23Z</time>
      </trkpt>
      <trkpt lat="49.86" lon="2.30999">
        <ele>98.3</ele>
        <time>2021-04-28T13:40:25Z</time>
      </trkpt>
      <trkpt lat="49.86" lon="2.30999">
        <ele>98.3</ele>
        <time>2021-04-28T13:40:26Z</time>
      </trkpt>
      <trkpt lat="49.86002" lon="2.30998">
        <ele>98.4</ele>
        <time>2021-04-28T13:40:27Z</time>
      </trkpt>
      <trkpt lat="49.86003" lon="2.30997">
        <ele>98.4</ele>
        <time>2021-04-28T13:40:28Z</time>
      </trkpt>
      <trkpt lat="49.86004" lon="2.30996">
        <ele>98.4</ele>
        <time>2021-04-28T13:40:29Z</time>
      </trkpt>
      <trkpt lat="49.86005" lon="2.30995">
        <ele>98.4</ele>
        <time>2021-04-28T13:40:30Z</time>
      </trkpt>
      <trkpt lat="49.86006" lon="2.30994">
        <ele>98.4</ele>
        <time>2021-04-28T13:40:32Z</time>
      </trkpt>
      <trkpt lat="49.86007" lon="2.30993">
        <ele>98.4</ele>
        <time>2021-04-28T13:40:33Z</time>
      </trkpt>
      <trkpt lat="49.86008" lon="2.30992">
        <ele>98.4</ele>
        <time>2021-04-28T13:40:34Z</time>
      </trkpt>
      <trkpt lat="49.86009" lon="2.30992">
        <ele>98.4</ele>
        <time>2021-04-28T13:40:35Z</time>
      </trkpt>
      <trkpt lat="49.86011" lon="2.3099">
        <ele>98.5</ele>
        <time>2021-04-28T13:40:36Z</time>
      </trkpt>
      <trkpt lat="49.86012" lon="2.30989">
        <ele>98.5</ele>
        <time>2021-04-28T13:40:37Z</time>
      </trkpt>
      <trkpt lat="49.86013" lon="2.30989">
        <ele>98.5</ele>
        <time>2021-04-28T13:40:38Z</time>
      </trkpt>
      <trkpt lat="49.86015" lon="2.30987">
        <ele>98.5</ele>
        <time>2021-04-28T13:40:40Z</time>
      </trkpt>
      <trkpt lat="49.86015" lon="2.30987">
        <ele>98.5</ele>
        <time>2021-04-28T13:40:41Z</time>
      </trkpt>
      <trkpt lat="49.86016" lon="2.30986">
        <ele>98.5</ele>
        <time>2021-04-28T13:40:42Z</time>
      </trkpt>
      <trkpt lat="49.86017" lon="2.30985">
        <ele>98.5</ele>
        <time>2021-04-28T13:40:43Z</time>
      </trkpt>
      <trkpt lat="49.86018" lon="2.30984">
        <ele>98.5</ele>
        <time>2021-04-28T13:40:44Z</time>
      </trkpt>
      <trkpt lat="49.86019" lon="2.30983">
        <ele>98.5</ele>
        <time>2021-04-28T13:40:45Z</time>
      </trkpt>
      <trkpt lat="49.86022" lon="2.30982">
        <ele>98.5</ele>
        <time>2021-04-28T13:40:47Z</time>
      </trkpt>
      <trkpt lat="49.86022" lon="2.30981">
        <ele>98.5</ele>
        <time>2021-04-28T13:40:48Z</time>
      </trkpt>
      <trkpt lat="49.86023" lon="2.30981">
        <ele>98.5</ele>
        <time>2021-04-28T13:40:49Z</time>
      </trkpt>
      <trkpt lat="49.86024" lon="2.3098">
        <ele>98.5</ele>
        <time>2021-04-28T13:40:50Z</time>
      </trkpt>
      <trkpt lat="49.86026" lon="2.30979">
        <ele>98.6</ele>
        <time>2021-04-28T13:40:51Z</time>
      </trkpt>
      <trkpt lat="49.86026" lon="2.30979">
        <ele>98.6</ele>
        <time>2021-04-28T13:40:52Z</time>
      </trkpt>
      <trkpt lat="49.86027" lon="2.30978">
        <ele>98.6</ele>
        <time>2021-04-28T13:40:54Z</time>
      </trkpt>
      <trkpt lat="49.86028" lon="2.30977">
        <ele>98.6</ele>
        <time>2021-04-28T13:40:55Z</time>
      </trkpt>
      <trkpt lat="49.86029" lon="2.30977">
        <ele>98.6</ele>
        <time>2021-04-28T13:40:56Z</time>
      </trkpt>
      <trkpt lat="49.86031" lon="2.30975">
        <ele>98.6</ele>
        <time>2021-04-28T13:40:57Z</time>
      </trkpt>
      <trkpt lat="49.86032" lon="2.30975">
        <ele>98.6</ele>
        <time>2021-04-28T13:40:58Z</time>
      </trkpt>
      <trkpt lat="49.86033" lon="2.30974">
        <ele>98.6</ele>
        <time>2021-04-28T13:40:59Z</time>
      </trkpt>
      <trkpt lat="49.86033" lon="2.30973">
        <ele>98.6</ele>
        <time>2021-04-28T13:41:01Z</time>
      </trkpt>
      <trkpt lat="49.86035" lon="2.30972">
        <ele>98.6</ele>
        <time>2021-04-28T13:41:02Z</time>
      </trkpt>
      <trkpt lat="49.86035" lon="2.30972">
        <ele>98.6</ele>
        <time>2021-04-28T13:41:03Z</time>
      </trkpt>
      <trkpt lat="49.86037" lon="2.30971">
        <ele>98.6</ele>
        <time>2021-04-28T13:41:04Z</time>
      </trkpt>
      <trkpt lat="49.86038" lon="2.30971">
        <ele>98.6</ele>
        <time>2021-04-28T13:41:05Z</time>
      </trkpt>
      <trkpt lat="49.86039" lon="2.30969">
        <ele>98.6</ele>
        <time>2021-04-28T13:41:07Z</time>
      </trkpt>
      <trkpt lat="49.8604" lon="2.30969">
        <ele>98.6</ele>
        <time>2021-04-28T13:41:08Z</time>
      </trkpt>
      <trkpt lat="49.86041" lon="2.30968">
        <ele>98.7</ele>
        <time>2021-04-28T13:41:09Z</time>
      </trkpt>
      <trkpt lat="49.86042" lon="2.30967">
        <ele>98.7</ele>
        <time>2021-04-28T13:41:10Z</time>
      </trkpt>
      <trkpt lat="49.86044" lon="2.30966">
        <ele>98.7</ele>
        <time>2021-04-28T13:41:11Z</time>
      </trkpt>
      <trkpt lat="49.86044" lon="2.30966">
        <ele>98.7</ele>
        <time>2021-04-28T13:41:12Z</time>
      </trkpt>
      <trkpt lat="49.86045" lon="2.30966">
        <ele>98.7</ele>
        <time>2021-04-28T13:41:14Z</time>
      </trkpt>
      <trkpt lat="49.86046" lon="2.30965">
        <ele>98.7</ele>
        <time>2021-04-28T13:41:15Z</time>
      </trkpt>
      <trkpt lat="49.86047" lon="2.30965">
        <ele>98.7</ele>
        <time>2021-04-28T13:41:16Z</time>
      </trkpt>
      <trkpt lat="49.86048" lon="2.30964">
        <ele>98.7</ele>
        <time>2021-04-28T13:41:17Z</time>
      </trkpt>
      <trkpt lat="49.86049" lon="2.30963">
        <ele>98.7</ele>
        <time>2021-04-28T13:41:18Z</time>
      </trkpt>
      <trkpt lat="49.8605" lon="2.30962">
        <ele>98.7</ele>
        <time>2021-04-28T13:41:19Z</time>
      </trkpt>
      <trkpt lat="49.86051" lon="2.30962">
        <ele>98.7</ele>
        <time>2021-04-28T13:41:20Z</time>
      </trkpt>
      <trkpt lat="49.86053" lon="2.3096">
        <ele>98.7</ele>
        <time>2021-04-28T13:41:22Z</time>
      </trkpt>
      <trkpt lat="49.86053" lon="2.3096">
        <ele>98.7</ele>
        <time>2021-04-28T13:41:23Z</time>
      </trkpt>
      <trkpt lat="49.86054" lon="2.30959">
        <ele>98.7</ele>
        <time>2021-04-28T13:41:24Z</time>
      </trkpt>
      <trkpt lat="49.86055" lon="2.30959">
        <ele>98.7</ele>
        <time>2021-04-28T13:41:25Z</time>
      </trkpt>
      <trkpt lat="49.86056" lon="2.30957">
        <ele>98.7</ele>
        <time>2021-04-28T13:41:26Z</time>
      </trkpt>
      <trkpt lat="49.86057" lon="2.30957">
        <ele>98.7</ele>
        <time>2021-04-28T13:41:27Z</time>
      </trkpt>
      <trkpt lat="49.86058" lon="2.30956">
        <ele>98.7</ele>
        <time>2021-04-28T13:41:29Z</time>
      </trkpt>
      <trkpt lat="49.86058" lon="2.30956">
        <ele>98.7</ele>
        <time>2021-04-28T13:41:30Z</time>
      </trkpt>
      <trkpt lat="49.86058" lon="2.30956">
        <ele>98.7</ele>
        <time>2021-04-28T13:41:31Z</time>
      </trkpt>
      <trkpt lat="49.86059" lon="2.30956">
        <ele>98.7</ele>
        <time>2021-04-28T13:41:32Z</time>
      </trkpt>
      <trkpt lat="49.86059" lon="2.30956">
        <ele>98.7</ele>
        <time>2021-04-28T13:41:34Z</time>
      </trkpt>
      <trkpt lat="49.86058" lon="2.30956">
        <ele>98.7</ele>
        <time>2021-04-28T13:41:36Z</time>
      </trkpt>
      <trkpt lat="49.86058" lon="2.30957">
        <ele>98.7</ele>
        <time>2021-04-28T13:41:37Z</time>
      </trkpt>
      <trkpt lat="49.86058" lon="2.30957">
        <ele>98.7</ele>
        <time>2021-04-28T13:41:38Z</time>
      </trkpt>
      <trkpt lat="49.86058" lon="2.30957">
        <ele>98.7</ele>
        <time>2021-04-28T13:41:40Z</time>
      </trkpt>
      <trkpt lat="49.86059" lon="2.30957">
        <ele>98.7</ele>
        <time>2021-04-28T13:41:41Z</time>
      </trkpt>
      <trkpt lat="49.8606" lon="2.30956">
        <ele>98.7</ele>
        <time>2021-04-28T13:41:42Z</time>
      </trkpt>
      <trkpt lat="49.8606" lon="2.30956">
        <ele>98.7</ele>
        <time>2021-04-28T13:41:43Z</time>
      </trkpt>
      <trkpt lat="49.86061" lon="2.30955">
        <ele>98.7</ele>
        <time>2021-04-28T13:41:45Z</time>
      </trkpt>
      <trkpt lat="49.86062" lon="2.30955">
        <ele>98.6</ele>
        <time>2021-04-28T13:41:46Z</time>
      </trkpt>
      <trkpt lat="49.86063" lon="2.30955">
        <ele>98.6</ele>
        <time>2021-04-28T13:41:47Z</time>
      </trkpt>
      <trkpt lat="49.86065" lon="2.30954">
        <ele>98.6</ele>
        <time>2021-04-28T13:41:49Z</time>
      </trkpt>
      <trkpt lat="49.86065" lon="2.30954">
        <ele>98.6</ele>
        <time>2021-04-28T13:41:50Z</time>
      </trkpt>
      <trkpt lat="49.86066" lon="2.30953">
        <ele>98.6</ele>
        <time>2021-04-28T13:41:51Z</time>
      </trkpt>
      <trkpt lat="49.86067" lon="2.30953">
        <ele>98.6</ele>
        <time>2021-04-28T13:41:52Z</time>
      </trkpt>
      <trkpt lat="49.86068" lon="2.30952">
        <ele>98.6</ele>
        <time>2021-04-28T13:41:54Z</time>
      </trkpt>
      <trkpt lat="49.86069" lon="2.30952">
        <ele>98.6</ele>
        <time>2021-04-28T13:41:55Z</time>
      </trkpt>
      <trkpt lat="49.8607" lon="2.30952">
        <ele>98.6</ele>
        <time>2021-04-28T13:41:56Z</time>
      </trkpt>
      <trkpt lat="49.86071" lon="2.30954">
        <ele>98.6</ele>
        <time>2021-04-28T13:41:58Z</time>
      </trkpt>
      <trkpt lat="49.8607" lon="2.30955">
        <ele>98.6</ele>
        <time>2021-04-28T13:41:59Z</time>
      </trkpt>
      <trkpt lat="49.86071" lon="2.30957">
        <ele>98.6</ele>
        <time>2021-04-28T13:42:00Z</time>
      </trkpt>
      <trkpt lat="49.86072" lon="2.30959">
        <ele>98.6</ele>
        <time>2021-04-28T13:42:01Z</time>
      </trkpt>
      <trkpt lat="49.86072" lon="2.3096">
        <ele>98.6</ele>
        <time>2021-04-28T13:42:03Z</time>
      </trkpt>
      <trkpt lat="49.86073" lon="2.30961">
        <ele>98.6</ele>
        <time>2021-04-28T13:42:04Z</time>
      </trkpt>
      <trkpt lat="49.86074" lon="2.30963">
        <ele>98.6</ele>
        <time>2021-04-28T13:42:05Z</time>
      </trkpt>
      <trkpt lat="49.86076" lon="2.30965">
        <ele>98.6</ele>
        <time>2021-04-28T13:42:07Z</time>
      </trkpt>
      <trkpt lat="49.86078" lon="2.30967">
        <ele>98.6</ele>
        <time>2021-04-28T13:42:08Z</time>
      </trkpt>
      <trkpt lat="49.8608" lon="2.30967">
        <ele>98.6</ele>
        <time>2021-04-28T13:42:10Z</time>
      </trkpt>
      <trkpt lat="49.86081" lon="2.30967">
        <ele>98.6</ele>
        <time>2021-04-28T13:42:11Z</time>
      </trkpt>
      <trkpt lat="49.86083" lon="2.30967">
        <ele>98.5</ele>
        <time>2021-04-28T13:42:12Z</time>
      </trkpt>
      <trkpt lat="49.86085" lon="2.30966">
        <ele>98.5</ele>
        <time>2021-04-28T13:42:13Z</time>
      </trkpt>
      <trkpt lat="49.86086" lon="2.30966">
        <ele>98.5</ele>
        <time>2021-04-28T13:42:14Z</time>
      </trkpt>
      <trkpt lat="49.86087" lon="2.30965">
        <ele>98.5</ele>
        <time>2021-04-28T13:42:15Z</time>
      </trkpt>
      <trkpt lat="49.86088" lon="2.30965">
        <ele>98.5</ele>
        <time>2021-04-28T13:42:16Z</time>
      </trkpt>
      <trkpt lat="49.8609" lon="2.30964">
        <ele>98.5</ele>
        <time>2021-04-28T13:42:17Z</time>
      </trkpt>
      <trkpt lat="49.86092" lon="2.30963">
        <ele>98.5</ele>
        <time>2021-04-28T13:42:18Z</time>
      </trkpt>
      <trkpt lat="49.86093" lon="2.30963">
        <ele>98.5</ele>
        <time>2021-04-28T13:42:19Z</time>
      </trkpt>
      <trkpt lat="49.86094" lon="2.30963">
        <ele>98.5</ele>
        <time>2021-04-28T13:42:21Z</time>
      </trkpt>
      <trkpt lat="49.86095" lon="2.30962">
        <ele>98.5</ele>
        <time>2021-04-28T13:42:22Z</time>
      </trkpt>
      <trkpt lat="49.86096" lon="2.30962">
        <ele>98.5</ele>
        <time>2021-04-28T13:42:23Z</time>
      </trkpt>
      <trkpt lat="49.86097" lon="2.30961">
        <ele>98.5</ele>
        <time>2021-04-28T13:42:24Z</time>
      </trkpt>
      <trkpt lat="49.86098" lon="2.30961">
        <ele>98.5</ele>
        <time>2021-04-28T13:42:26Z</time>
      </trkpt>
      <trkpt lat="49.861" lon="2.3096">
        <ele>98.5</ele>
        <time>2021-04-28T13:42:27Z</time>
      </trkpt>
      <trkpt lat="49.86101" lon="2.3096">
        <ele>98.5</ele>
        <time>2021-04-28T13:42:28Z</time>
      </trkpt>
      <trkpt lat="49.86101" lon="2.30959">
        <ele>98.5</ele>
        <time>2021-04-28T13:42:29Z</time>
      </trkpt>
      <trkpt lat="49.86102" lon="2.30959">
        <ele>98.4</ele>
        <time>2021-04-28T13:42:30Z</time>
      </trkpt>
      <trkpt lat="49.86104" lon="2.30959">
        <ele>98.4</ele>
        <time>2021-04-28T13:42:31Z</time>
      </trkpt>
      <trkpt lat="49.86106" lon="2.30958">
        <ele>98.4</ele>
        <time>2021-04-28T13:42:32Z</time>
      </trkpt>
      <trkpt lat="49.86107" lon="2.30958">
        <ele>98.4</ele>
        <time>2021-04-28T13:42:33Z</time>
      </trkpt>
      <trkpt lat="49.86107" lon="2.30958">
        <ele>98.4</ele>
        <time>2021-04-28T13:42:34Z</time>
      </trkpt>
      <trkpt lat="49.86108" lon="2.30958">
        <ele>98.4</ele>
        <time>2021-04-28T13:42:35Z</time>
      </trkpt>
      <trkpt lat="49.8611" lon="2.30958">
        <ele>98.4</ele>
        <time>2021-04-28T13:42:37Z</time>
      </trkpt>
      <trkpt lat="49.86111" lon="2.30959">
        <ele>98.4</ele>
        <time>2021-04-28T13:42:38Z</time>
      </trkpt>
      <trkpt lat="49.86112" lon="2.30959">
        <ele>98.4</ele>
        <time>2021-04-28T13:42:39Z</time>
      </trkpt>
      <trkpt lat="49.86113" lon="2.30959">
        <ele>98.4</ele>
        <time>2021-04-28T13:42:40Z</time>
      </trkpt>
      <trkpt lat="49.86115" lon="2.30958">
        <ele>98.4</ele>
        <time>2021-04-28T13:42:42Z</time>
      </trkpt>
      <trkpt lat="49.86117" lon="2.30958">
        <ele>98.4</ele>
        <time>2021-04-28T13:42:43Z</time>
      </trkpt>
      <trkpt lat="49.86118" lon="2.30958">
        <ele>98.4</ele>
        <time>2021-04-28T13:42:44Z</time>
      </trkpt>
      <trkpt lat="49.86119" lon="2.30958">
        <ele>98.3</ele>
        <time>2021-04-28T13:42:45Z</time>
      </trkpt>
      <trkpt lat="49.8612" lon="2.30958">
        <ele>98.3</ele>
        <time>2021-04-28T13:42:46Z</time>
      </trkpt>
      <trkpt lat="49.86121" lon="2.30959">
        <ele>98.3</ele>
        <time>2021-04-28T13:42:48Z</time>
      </trkpt>
      <trkpt lat="49.86122" lon="2.30959">
        <ele>98.3</ele>
        <time>2021-04-28T13:42:49Z</time>
      </trkpt>
      <trkpt lat="49.86124" lon="2.30961">
        <ele>98.3</ele>
        <time>2021-04-28T13:42:50Z</time>
      </trkpt>
      <trkpt lat="49.86124" lon="2.30962">
        <ele>98.3</ele>
        <time>2021-04-28T13:42:51Z</time>
      </trkpt>
      <trkpt lat="49.86125" lon="2.30964">
        <ele>98.3</ele>
        <time>2021-04-28T13:42:52Z</time>
      </trkpt>
      <trkpt lat="49.86126" lon="2.30966">
        <ele>98.3</ele>
        <time>2021-04-28T13:42:53Z</time>
      </trkpt>
      <trkpt lat="49.86127" lon="2.30967">
        <ele>98.3</ele>
        <time>2021-04-28T13:42:54Z</time>
      </trkpt>
      <trkpt lat="49.86127" lon="2.30968">
        <ele>98.3</ele>
        <time>2021-04-28T13:42:55Z</time>
      </trkpt>
      <trkpt lat="49.86129" lon="2.3097">
        <ele>98.3</ele>
        <time>2021-04-28T13:42:56Z</time>
      </trkpt>
      <trkpt lat="49.8613" lon="2.30971">
        <ele>98.3</ele>
        <time>2021-04-28T13:42:58Z</time>
      </trkpt>
      <trkpt lat="49.8613" lon="2.30972">
        <ele>98.3</ele>
        <time>2021-04-28T13:42:59Z</time>
      </trkpt>
      <trkpt lat="49.86132" lon="2.30973">
        <ele>98.3</ele>
        <time>2021-04-28T13:43:00Z</time>
      </trkpt>
      <trkpt lat="49.86133" lon="2.30974">
        <ele>98.3</ele>
        <time>2021-04-28T13:43:01Z</time>
      </trkpt>
      <trkpt lat="49.86134" lon="2.30975">
        <ele>98.3</ele>
        <time>2021-04-28T13:43:02Z</time>
      </trkpt>
      <trkpt lat="49.86134" lon="2.30976">
        <ele>98.3</ele>
        <time>2021-04-28T13:43:03Z</time>
      </trkpt>
      <trkpt lat="49.86136" lon="2.30976">
        <ele>98.3</ele>
        <time>2021-04-28T13:43:04Z</time>
      </trkpt>
      <trkpt lat="49.86137" lon="2.30977">
        <ele>98.2</ele>
        <time>2021-04-28T13:43:05Z</time>
      </trkpt>
      <trkpt lat="49.86138" lon="2.30977">
        <ele>98.2</ele>
        <time>2021-04-28T13:43:06Z</time>
      </trkpt>
      <trkpt lat="49.8614" lon="2.30977">
        <ele>98.2</ele>
        <time>2021-04-28T13:43:07Z</time>
      </trkpt>
      <trkpt lat="49.86141" lon="2.30977">
        <ele>98.2</ele>
        <time>2021-04-28T13:43:09Z</time>
      </trkpt>
      <trkpt lat="49.86143" lon="2.30978">
        <ele>98.2</ele>
        <time>2021-04-28T13:43:11Z</time>
      </trkpt>
      <trkpt lat="49.86145" lon="2.30978">
        <ele>98.2</ele>
        <time>2021-04-28T13:43:12Z</time>
      </trkpt>
      <trkpt lat="49.86146" lon="2.30978">
        <ele>98.2</ele>
        <time>2021-04-28T13:43:13Z</time>
      </trkpt>
      <trkpt lat="49.86149" lon="2.30979">
        <ele>98.1</ele>
        <time>2021-04-28T13:43:15Z</time>
      </trkpt>
      <trkpt lat="49.8615" lon="2.30979">
        <ele>98.1</ele>
        <time>2021-04-28T13:43:16Z</time>
      </trkpt>
      <trkpt lat="49.86151" lon="2.30979">
        <ele>98.1</ele>
        <time>2021-04-28T13:43:17Z</time>
      </trkpt>
      <trkpt lat="49.86151" lon="2.30979">
        <ele>98.1</ele>
        <time>2021-04-28T13:43:18Z</time>
      </trkpt>
      <trkpt lat="49.86152" lon="2.30979">
        <ele>98.1</ele>
        <time>2021-04-28T13:43:19Z</time>
      </trkpt>
      <trkpt lat="49.86153" lon="2.30978">
        <ele>98.1</ele>
        <time>2021-04-28T13:43:20Z</time>
      </trkpt>
      <trkpt lat="49.86155" lon="2.30977">
        <ele>98.1</ele>
        <time>2021-04-28T13:43:21Z</time>
      </trkpt>
      <trkpt lat="49.86156" lon="2.30977">
        <ele>98.1</ele>
        <time>2021-04-28T13:43:22Z</time>
      </trkpt>
      <trkpt lat="49.86157" lon="2.30976">
        <ele>98.1</ele>
        <time>2021-04-28T13:43:23Z</time>
      </trkpt>
      <trkpt lat="49.86159" lon="2.30975">
        <ele>98</ele>
        <time>2021-04-28T13:43:24Z</time>
      </trkpt>
      <trkpt lat="49.86159" lon="2.30974">
        <ele>98</ele>
        <time>2021-04-28T13:43:26Z</time>
      </trkpt>
      <trkpt lat="49.8616" lon="2.30973">
        <ele>98</ele>
        <time>2021-04-28T13:43:27Z</time>
      </trkpt>
      <trkpt lat="49.86161" lon="2.30971">
        <ele>98</ele>
        <time>2021-04-28T13:43:28Z</time>
      </trkpt>
      <trkpt lat="49.86162" lon="2.3097">
        <ele>98</ele>
        <time>2021-04-28T13:43:29Z</time>
      </trkpt>
      <trkpt lat="49.86163" lon="2.30969">
        <ele>98</ele>
        <time>2021-04-28T13:43:31Z</time>
      </trkpt>
      <trkpt lat="49.86164" lon="2.30968">
        <ele>98</ele>
        <time>2021-04-28T13:43:32Z</time>
      </trkpt>
      <trkpt lat="49.86165" lon="2.30966">
        <ele>97.9</ele>
        <time>2021-04-28T13:43:33Z</time>
      </trkpt>
      <trkpt lat="49.86166" lon="2.30963">
        <ele>97.9</ele>
        <time>2021-04-28T13:43:34Z</time>
      </trkpt>
      <trkpt lat="49.86166" lon="2.30962">
        <ele>97.9</ele>
        <time>2021-04-28T13:43:36Z</time>
      </trkpt>
      <trkpt lat="49.86167" lon="2.3096">
        <ele>97.9</ele>
        <time>2021-04-28T13:43:37Z</time>
      </trkpt>
      <trkpt lat="49.86167" lon="2.30959">
        <ele>97.8</ele>
        <time>2021-04-28T13:43:38Z</time>
      </trkpt>
      <trkpt lat="49.86168" lon="2.30957">
        <ele>97.8</ele>
        <time>2021-04-28T13:43:39Z</time>
      </trkpt>
      <trkpt lat="49.86168" lon="2.30956">
        <ele>97.7</ele>
        <time>2021-04-28T13:43:40Z</time>
      </trkpt>
      <trkpt lat="49.86169" lon="2.30954">
        <ele>97.7</ele>
        <time>2021-04-28T13:43:41Z</time>
      </trkpt>
      <trkpt lat="49.8617" lon="2.30951">
        <ele>97.7</ele>
        <time>2021-04-28T13:43:42Z</time>
      </trkpt>
      <trkpt lat="49.86171" lon="2.3095">
        <ele>97.6</ele>
        <time>2021-04-28T13:43:43Z</time>
      </trkpt>
      <trkpt lat="49.86171" lon="2.30949">
        <ele>97.6</ele>
        <time>2021-04-28T13:43:44Z</time>
      </trkpt>
      <trkpt lat="49.86172" lon="2.30948">
        <ele>97.6</ele>
        <time>2021-04-28T13:43:46Z</time>
      </trkpt>
      <trkpt lat="49.86173" lon="2.30946">
        <ele>97.6</ele>
        <time>2021-04-28T13:43:47Z</time>
      </trkpt>
      <trkpt lat="49.86174" lon="2.30945">
        <ele>97.5</ele>
        <time>2021-04-28T13:43:48Z</time>
      </trkpt>
      <trkpt lat="49.86175" lon="2.30944">
        <ele>97.5</ele>
        <time>2021-04-28T13:43:49Z</time>
      </trkpt>
      <trkpt lat="49.86176" lon="2.30943">
        <ele>97.5</ele>
        <time>2021-04-28T13:43:50Z</time>
      </trkpt>
      <trkpt lat="49.86177" lon="2.30942">
        <ele>97.4</ele>
        <time>2021-04-28T13:43:51Z</time>
      </trkpt>
      <trkpt lat="49.86179" lon="2.30941">
        <ele>97.4</ele>
        <time>2021-04-28T13:43:52Z</time>
      </trkpt>
      <trkpt lat="49.8618" lon="2.3094">
        <ele>97.4</ele>
        <time>2021-04-28T13:43:53Z</time>
      </trkpt>
      <trkpt lat="49.86181" lon="2.3094">
        <ele>97.3</ele>
        <time>2021-04-28T13:43:54Z</time>
      </trkpt>
      <trkpt lat="49.86182" lon="2.30939">
        <ele>97.3</ele>
        <time>2021-04-28T13:43:55Z</time>
      </trkpt>
      <trkpt lat="49.86183" lon="2.30939">
        <ele>97.3</ele>
        <time>2021-04-28T13:43:56Z</time>
      </trkpt>
      <trkpt lat="49.86184" lon="2.30938">
        <ele>97.2</ele>
        <time>2021-04-28T13:43:58Z</time>
      </trkpt>
      <trkpt lat="49.86185" lon="2.30937">
        <ele>97.2</ele>
        <time>2021-04-28T13:43:59Z</time>
      </trkpt>
      <trkpt lat="49.86186" lon="2.30937">
        <ele>97.2</ele>
        <time>2021-04-28T13:44:00Z</time>
      </trkpt>
      <trkpt lat="49.86187" lon="2.30936">
        <ele>97.1</ele>
        <time>2021-04-28T13:44:01Z</time>
      </trkpt>
      <trkpt lat="49.86189" lon="2.30935">
        <ele>97.1</ele>
        <time>2021-04-28T13:44:02Z</time>
      </trkpt>
      <trkpt lat="49.8619" lon="2.30935">
        <ele>97.1</ele>
        <time>2021-04-28T13:44:03Z</time>
      </trkpt>
      <trkpt lat="49.86191" lon="2.30935">
        <ele>97</ele>
        <time>2021-04-28T13:44:04Z</time>
      </trkpt>
      <trkpt lat="49.86193" lon="2.30934">
        <ele>97</ele>
        <time>2021-04-28T13:44:05Z</time>
      </trkpt>
      <trkpt lat="49.86194" lon="2.30934">
        <ele>96.9</ele>
        <time>2021-04-28T13:44:06Z</time>
      </trkpt>
      <trkpt lat="49.86195" lon="2.30934">
        <ele>96.9</ele>
        <time>2021-04-28T13:44:07Z</time>
      </trkpt>
      <trkpt lat="49.86196" lon="2.30934">
        <ele>96.9</ele>
        <time>2021-04-28T13:44:09Z</time>
      </trkpt>
      <trkpt lat="49.86197" lon="2.30933">
        <ele>96.8</ele>
        <time>2021-04-28T13:44:10Z</time>
      </trkpt>
      <trkpt lat="49.86198" lon="2.30933">
        <ele>96.8</ele>
        <time>2021-04-28T13:44:11Z</time>
      </trkpt>
      <trkpt lat="49.86199" lon="2.30933">
        <ele>96.8</ele>
        <time>2021-04-28T13:44:12Z</time>
      </trkpt>
      <trkpt lat="49.86201" lon="2.30932">
        <ele>96.7</ele>
        <time>2021-04-28T13:44:13Z</time>
      </trkpt>
      <trkpt lat="49.86202" lon="2.30932">
        <ele>96.7</ele>
        <time>2021-04-28T13:44:14Z</time>
      </trkpt>
      <trkpt lat="49.86203" lon="2.30931">
        <ele>96.6</ele>
        <time>2021-04-28T13:44:15Z</time>
      </trkpt>
      <trkpt lat="49.86204" lon="2.30931">
        <ele>96.6</ele>
        <time>2021-04-28T13:44:16Z</time>
      </trkpt>
      <trkpt lat="49.86206" lon="2.3093">
        <ele>96.5</ele>
        <time>2021-04-28T13:44:17Z</time>
      </trkpt>
      <trkpt lat="49.86206" lon="2.3093">
        <ele>96.5</ele>
        <time>2021-04-28T13:44:18Z</time>
      </trkpt>
      <trkpt lat="49.86207" lon="2.30929">
        <ele>96.5</ele>
        <time>2021-04-28T13:44:19Z</time>
      </trkpt>
      <trkpt lat="49.86208" lon="2.30929">
        <ele>96.5</ele>
        <time>2021-04-28T13:44:20Z</time>
      </trkpt>
      <trkpt lat="49.86209" lon="2.30929">
        <ele>96.4</ele>
        <time>2021-04-28T13:44:22Z</time>
      </trkpt>
      <trkpt lat="49.8621" lon="2.30928">
        <ele>96.4</ele>
        <time>2021-04-28T13:44:23Z</time>
      </trkpt>
      <trkpt lat="49.86211" lon="2.30928">
        <ele>96.3</ele>
        <time>2021-04-28T13:44:24Z</time>
      </trkpt>
      <trkpt lat="49.86213" lon="2.30927">
        <ele>96.3</ele>
        <time>2021-04-28T13:44:25Z</time>
      </trkpt>
      <trkpt lat="49.86214" lon="2.30927">
        <ele>96.2</ele>
        <time>2021-04-28T13:44:26Z</time>
      </trkpt>
      <trkpt lat="49.86216" lon="2.30927">
        <ele>96.2</ele>
        <time>2021-04-28T13:44:27Z</time>
      </trkpt>
      <trkpt lat="49.86217" lon="2.30926">
        <ele>96.1</ele>
        <time>2021-04-28T13:44:29Z</time>
      </trkpt>
      <trkpt lat="49.86219" lon="2.30925">
        <ele>96.1</ele>
        <time>2021-04-28T13:44:30Z</time>
      </trkpt>
      <trkpt lat="49.8622" lon="2.30925">
        <ele>96</ele>
        <time>2021-04-28T13:44:31Z</time>
      </trkpt>
      <trkpt lat="49.86221" lon="2.30924">
        <ele>96</ele>
        <time>2021-04-28T13:44:32Z</time>
      </trkpt>
      <trkpt lat="49.86222" lon="2.30924">
        <ele>95.9</ele>
        <time>2021-04-28T13:44:33Z</time>
      </trkpt>
      <trkpt lat="49.86223" lon="2.30923">
        <ele>95.9</ele>
        <time>2021-04-28T13:44:34Z</time>
      </trkpt>
      <trkpt lat="49.86224" lon="2.30923">
        <ele>95.9</ele>
        <time>2021-04-28T13:44:35Z</time>
      </trkpt>
      <trkpt lat="49.86225" lon="2.30922">
        <ele>95.8</ele>
        <time>2021-04-28T13:44:36Z</time>
      </trkpt>
      <trkpt lat="49.86226" lon="2.30921">
        <ele>95.8</ele>
        <time>2021-04-28T13:44:37Z</time>
      </trkpt>
      <trkpt lat="49.86227" lon="2.3092">
        <ele>95.8</ele>
        <time>2021-04-28T13:44:38Z</time>
      </trkpt>
      <trkpt lat="49.86228" lon="2.3092">
        <ele>95.7</ele>
        <time>2021-04-28T13:44:40Z</time>
      </trkpt>
      <trkpt lat="49.8623" lon="2.30918">
        <ele>95.6</ele>
        <time>2021-04-28T13:44:42Z</time>
      </trkpt>
      <trkpt lat="49.86231" lon="2.30917">
        <ele>95.6</ele>
        <time>2021-04-28T13:44:43Z</time>
      </trkpt>
      <trkpt lat="49.86231" lon="2.30916">
        <ele>95.6</ele>
        <time>2021-04-28T13:44:44Z</time>
      </trkpt>
      <trkpt lat="49.86232" lon="2.30915">
        <ele>95.5</ele>
        <time>2021-04-28T13:44:45Z</time>
      </trkpt>
      <trkpt lat="49.86234" lon="2.30915">
        <ele>95.5</ele>
        <time>2021-04-28T13:44:47Z</time>
      </trkpt>
      <trkpt lat="49.86235" lon="2.30915">
        <ele>95.4</ele>
        <time>2021-04-28T13:44:48Z</time>
      </trkpt>
      <trkpt lat="49.86236" lon="2.30914">
        <ele>95.4</ele>
        <time>2021-04-28T13:44:49Z</time>
      </trkpt>
      <trkpt lat="49.86237" lon="2.30914">
        <ele>95.3</ele>
        <time>2021-04-28T13:44:50Z</time>
      </trkpt>
      <trkpt lat="49.86238" lon="2.30915">
        <ele>95.3</ele>
        <time>2021-04-28T13:44:51Z</time>
      </trkpt>
      <trkpt lat="49.8624" lon="2.30914">
        <ele>95.2</ele>
        <time>2021-04-28T13:44:52Z</time>
      </trkpt>
      <trkpt lat="49.86241" lon="2.30914">
        <ele>95.2</ele>
        <time>2021-04-28T13:44:54Z</time>
      </trkpt>
      <trkpt lat="49.86243" lon="2.30915">
        <ele>95.1</ele>
        <time>2021-04-28T13:44:55Z</time>
      </trkpt>
      <trkpt lat="49.86244" lon="2.30915">
        <ele>95.1</ele>
        <time>2021-04-28T13:44:56Z</time>
      </trkpt>
      <trkpt lat="49.86245" lon="2.30915">
        <ele>95.1</ele>
        <time>2021-04-28T13:44:57Z</time>
      </trkpt>
      <trkpt lat="49.86246" lon="2.30915">
        <ele>95</ele>
        <time>2021-04-28T13:44:58Z</time>
      </trkpt>
      <trkpt lat="49.86247" lon="2.30915">
        <ele>95</ele>
        <time>2021-04-28T13:44:59Z</time>
      </trkpt>
      <trkpt lat="49.86249" lon="2.30915">
        <ele>94.9</ele>
        <time>2021-04-28T13:45:00Z</time>
      </trkpt>
      <trkpt lat="49.86251" lon="2.30915">
        <ele>94.9</ele>
        <time>2021-04-28T13:45:01Z</time>
      </trkpt>
      <trkpt lat="49.86252" lon="2.30915">
        <ele>94.8</ele>
        <time>2021-04-28T13:45:03Z</time>
      </trkpt>
      <trkpt lat="49.86254" lon="2.30915">
        <ele>94.8</ele>
        <time>2021-04-28T13:45:04Z</time>
      </trkpt>
      <trkpt lat="49.86255" lon="2.30915">
        <ele>94.7</ele>
        <time>2021-04-28T13:45:06Z</time>
      </trkpt>
      <trkpt lat="49.86257" lon="2.30916">
        <ele>94.6</ele>
        <time>2021-04-28T13:45:07Z</time>
      </trkpt>
      <trkpt lat="49.86258" lon="2.30916">
        <ele>94.6</ele>
        <time>2021-04-28T13:45:08Z</time>
      </trkpt>
      <trkpt lat="49.86259" lon="2.30916">
        <ele>94.6</ele>
        <time>2021-04-28T13:45:09Z</time>
      </trkpt>
      <trkpt lat="49.8626" lon="2.30916">
        <ele>94.5</ele>
        <time>2021-04-28T13:45:10Z</time>
      </trkpt>
      <trkpt lat="49.86261" lon="2.30917">
        <ele>94.5</ele>
        <time>2021-04-28T13:45:11Z</time>
      </trkpt>
      <trkpt lat="49.86262" lon="2.30917">
        <ele>94.4</ele>
        <time>2021-04-28T13:45:12Z</time>
      </trkpt>
      <trkpt lat="49.86263" lon="2.30917">
        <ele>94.4</ele>
        <time>2021-04-28T13:45:13Z</time>
      </trkpt>
      <trkpt lat="49.86264" lon="2.30917">
        <ele>94.4</ele>
        <time>2021-04-28T13:45:14Z</time>
      </trkpt>
      <trkpt lat="49.86265" lon="2.30917">
        <ele>94.3</ele>
        <time>2021-04-28T13:45:15Z</time>
      </trkpt>
      <trkpt lat="49.86267" lon="2.30916">
        <ele>94.2</ele>
        <time>2021-04-28T13:45:16Z</time>
      </trkpt>
      <trkpt lat="49.86268" lon="2.30916">
        <ele>94.2</ele>
        <time>2021-04-28T13:45:17Z</time>
      </trkpt>
      <trkpt lat="49.86269" lon="2.30915">
        <ele>94.2</ele>
        <time>2021-04-28T13:45:19Z</time>
      </trkpt>
      <trkpt lat="49.8627" lon="2.30914">
        <ele>94.1</ele>
        <time>2021-04-28T13:45:20Z</time>
      </trkpt>
      <trkpt lat="49.86273" lon="2.30913">
        <ele>94</ele>
        <time>2021-04-28T13:45:22Z</time>
      </trkpt>
      <trkpt lat="49.86274" lon="2.30912">
        <ele>94</ele>
        <time>2021-04-28T13:45:23Z</time>
      </trkpt>
      <trkpt lat="49.86276" lon="2.30911">
        <ele>93.9</ele>
        <time>2021-04-28T13:45:25Z</time>
      </trkpt>
      <trkpt lat="49.86277" lon="2.30911">
        <ele>93.8</ele>
        <time>2021-04-28T13:45:26Z</time>
      </trkpt>
      <trkpt lat="49.86279" lon="2.30911">
        <ele>93.8</ele>
        <time>2021-04-28T13:45:27Z</time>
      </trkpt>
      <trkpt lat="49.86279" lon="2.30911">
        <ele>93.7</ele>
        <time>2021-04-28T13:45:28Z</time>
      </trkpt>
      <trkpt lat="49.8628" lon="2.3091">
        <ele>93.7</ele>
        <time>2021-04-28T13:45:29Z</time>
      </trkpt>
      <trkpt lat="49.86281" lon="2.3091">
        <ele>93.7</ele>
        <time>2021-04-28T13:45:30Z</time>
      </trkpt>
      <trkpt lat="49.86282" lon="2.3091">
        <ele>93.6</ele>
        <time>2021-04-28T13:45:31Z</time>
      </trkpt>
      <trkpt lat="49.86283" lon="2.30909">
        <ele>93.6</ele>
        <time>2021-04-28T13:45:32Z</time>
      </trkpt>
      <trkpt lat="49.86284" lon="2.30909">
        <ele>93.5</ele>
        <time>2021-04-28T13:45:33Z</time>
      </trkpt>
      <trkpt lat="49.86285" lon="2.30908">
        <ele>93.5</ele>
        <time>2021-04-28T13:45:34Z</time>
      </trkpt>
      <trkpt lat="49.86286" lon="2.30908">
        <ele>93.4</ele>
        <time>2021-04-28T13:45:35Z</time>
      </trkpt>
      <trkpt lat="49.86288" lon="2.30907">
        <ele>93.4</ele>
        <time>2021-04-28T13:45:36Z</time>
      </trkpt>
      <trkpt lat="49.86289" lon="2.30907">
        <ele>93.3</ele>
        <time>2021-04-28T13:45:37Z</time>
      </trkpt>
      <trkpt lat="49.8629" lon="2.30906">
        <ele>93.3</ele>
        <time>2021-04-28T13:45:39Z</time>
      </trkpt>
      <trkpt lat="49.86291" lon="2.30906">
        <ele>93.2</ele>
        <time>2021-04-28T13:45:40Z</time>
      </trkpt>
      <trkpt lat="49.86293" lon="2.30905">
        <ele>93.1</ele>
        <time>2021-04-28T13:45:41Z</time>
      </trkpt>
      <trkpt lat="49.86294" lon="2.30905">
        <ele>93.1</ele>
        <time>2021-04-28T13:45:42Z</time>
      </trkpt>
      <trkpt lat="49.86294" lon="2.30904">
        <ele>93.1</ele>
        <time>2021-04-28T13:45:43Z</time>
      </trkpt>
      <trkpt lat="49.86295" lon="2.30903">
        <ele>93</ele>
        <time>2021-04-28T13:45:44Z</time>
      </trkpt>
      <trkpt lat="49.86296" lon="2.30902">
        <ele>93</ele>
        <time>2021-04-28T13:45:45Z</time>
      </trkpt>
      <trkpt lat="49.86298" lon="2.30902">
        <ele>92.9</ele>
        <time>2021-04-28T13:45:47Z</time>
      </trkpt>
      <trkpt lat="49.86299" lon="2.30902">
        <ele>92.9</ele>
        <time>2021-04-28T13:45:48Z</time>
      </trkpt>
      <trkpt lat="49.863" lon="2.30903">
        <ele>92.8</ele>
        <time>2021-04-28T13:45:49Z</time>
      </trkpt>
      <trkpt lat="49.86301" lon="2.30903">
        <ele>92.7</ele>
        <time>2021-04-28T13:45:50Z</time>
      </trkpt>
      <trkpt lat="49.86303" lon="2.30904">
        <ele>92.7</ele>
        <time>2021-04-28T13:45:51Z</time>
      </trkpt>
      <trkpt lat="49.86304" lon="2.30905">
        <ele>92.6</ele>
        <time>2021-04-28T13:45:52Z</time>
      </trkpt>
      <trkpt lat="49.86305" lon="2.30905">
        <ele>92.6</ele>
        <time>2021-04-28T13:45:54Z</time>
      </trkpt>
      <trkpt lat="49.86307" lon="2.30907">
        <ele>92.5</ele>
        <time>2021-04-28T13:45:55Z</time>
      </trkpt>
      <trkpt lat="49.86308" lon="2.30907">
        <ele>92.4</ele>
        <time>2021-04-28T13:45:56Z</time>
      </trkpt>
      <trkpt lat="49.86309" lon="2.30908">
        <ele>92.4</ele>
        <time>2021-04-28T13:45:57Z</time>
      </trkpt>
      <trkpt lat="49.8631" lon="2.30908">
        <ele>92.4</ele>
        <time>2021-04-28T13:45:58Z</time>
      </trkpt>
      <trkpt lat="49.86311" lon="2.30908">
        <ele>92.3</ele>
        <time>2021-04-28T13:46:00Z</time>
      </trkpt>
      <trkpt lat="49.86312" lon="2.30908">
        <ele>92.3</ele>
        <time>2021-04-28T13:46:01Z</time>
      </trkpt>
      <trkpt lat="49.86313" lon="2.30908">
        <ele>92.2</ele>
        <time>2021-04-28T13:46:02Z</time>
      </trkpt>
      <trkpt lat="49.86314" lon="2.30908">
        <ele>92.2</ele>
        <time>2021-04-28T13:46:03Z</time>
      </trkpt>
      <trkpt lat="49.86314" lon="2.30908">
        <ele>92.2</ele>
        <time>2021-04-28T13:46:04Z</time>
      </trkpt>
      <trkpt lat="49.86315" lon="2.30908">
        <ele>92.1</ele>
        <time>2021-04-28T13:46:05Z</time>
      </trkpt>
      <trkpt lat="49.86316" lon="2.30908">
        <ele>92.1</ele>
        <time>2021-04-28T13:46:06Z</time>
      </trkpt>
      <trkpt lat="49.86317" lon="2.30908">
        <ele>92</ele>
        <time>2021-04-28T13:46:07Z</time>
      </trkpt>
      <trkpt lat="49.86319" lon="2.30907">
        <ele>92</ele>
        <time>2021-04-28T13:46:09Z</time>
      </trkpt>
      <trkpt lat="49.8632" lon="2.30907">
        <ele>91.9</ele>
        <time>2021-04-28T13:46:10Z</time>
      </trkpt>
      <trkpt lat="49.86321" lon="2.30906">
        <ele>91.8</ele>
        <time>2021-04-28T13:46:11Z</time>
      </trkpt>
      <trkpt lat="49.86322" lon="2.30905">
        <ele>91.8</ele>
        <time>2021-04-28T13:46:12Z</time>
      </trkpt>
      <trkpt lat="49.86324" lon="2.30905">
        <ele>91.7</ele>
        <time>2021-04-28T13:46:13Z</time>
      </trkpt>
      <trkpt lat="49.86325" lon="2.30904">
        <ele>91.7</ele>
        <time>2021-04-28T13:46:14Z</time>
      </trkpt>
      <trkpt lat="49.86327" lon="2.30903">
        <ele>91.6</ele>
        <time>2021-04-28T13:46:16Z</time>
      </trkpt>
      <trkpt lat="49.86327" lon="2.30902">
        <ele>91.6</ele>
        <time>2021-04-28T13:46:17Z</time>
      </trkpt>
      <trkpt lat="49.86328" lon="2.30902">
        <ele>91.5</ele>
        <time>2021-04-28T13:46:18Z</time>
      </trkpt>
      <trkpt lat="49.8633" lon="2.30901">
        <ele>91.4</ele>
        <time>2021-04-28T13:46:19Z</time>
      </trkpt>
      <trkpt lat="49.86331" lon="2.30901">
        <ele>91.4</ele>
        <time>2021-04-28T13:46:20Z</time>
      </trkpt>
      <trkpt lat="49.86332" lon="2.309">
        <ele>91.4</ele>
        <time>2021-04-28T13:46:21Z</time>
      </trkpt>
      <trkpt lat="49.86334" lon="2.309">
        <ele>91.3</ele>
        <time>2021-04-28T13:46:22Z</time>
      </trkpt>
      <trkpt lat="49.86335" lon="2.30899">
        <ele>91.2</ele>
        <time>2021-04-28T13:46:23Z</time>
      </trkpt>
      <trkpt lat="49.86336" lon="2.30899">
        <ele>91.2</ele>
        <time>2021-04-28T13:46:24Z</time>
      </trkpt>
      <trkpt lat="49.86337" lon="2.30899">
        <ele>91.1</ele>
        <time>2021-04-28T13:46:25Z</time>
      </trkpt>
      <trkpt lat="49.86338" lon="2.30899">
        <ele>91.1</ele>
        <time>2021-04-28T13:46:27Z</time>
      </trkpt>
      <trkpt lat="49.86339" lon="2.30898">
        <ele>91</ele>
        <time>2021-04-28T13:46:28Z</time>
      </trkpt>
      <trkpt lat="49.8634" lon="2.30898">
        <ele>91</ele>
        <time>2021-04-28T13:46:29Z</time>
      </trkpt>
      <trkpt lat="49.86341" lon="2.30897">
        <ele>90.9</ele>
        <time>2021-04-28T13:46:30Z</time>
      </trkpt>
      <trkpt lat="49.86342" lon="2.30897">
        <ele>90.9</ele>
        <time>2021-04-28T13:46:31Z</time>
      </trkpt>
      <trkpt lat="49.86343" lon="2.30896">
        <ele>90.8</ele>
        <time>2021-04-28T13:46:32Z</time>
      </trkpt>
      <trkpt lat="49.86345" lon="2.30896">
        <ele>90.8</ele>
        <time>2021-04-28T13:46:33Z</time>
      </trkpt>
      <trkpt lat="49.86346" lon="2.30896">
        <ele>90.7</ele>
        <time>2021-04-28T13:46:34Z</time>
      </trkpt>
      <trkpt lat="49.86346" lon="2.30896">
        <ele>90.7</ele>
        <time>2021-04-28T13:46:35Z</time>
      </trkpt>
      <trkpt lat="49.86348" lon="2.30895">
        <ele>90.6</ele>
        <time>2021-04-28T13:46:36Z</time>
      </trkpt>
      <trkpt lat="49.86348" lon="2.30895">
        <ele>90.6</ele>
        <time>2021-04-28T13:46:37Z</time>
      </trkpt>
      <trkpt lat="49.8635" lon="2.30894">
        <ele>90.5</ele>
        <time>2021-04-28T13:46:39Z</time>
      </trkpt>
      <trkpt lat="49.86351" lon="2.30894">
        <ele>90.4</ele>
        <time>2021-04-28T13:46:40Z</time>
      </trkpt>
      <trkpt lat="49.86352" lon="2.30893">
        <ele>90.4</ele>
        <time>2021-04-28T13:46:41Z</time>
      </trkpt>
      <trkpt lat="49.86353" lon="2.30893">
        <ele>90.4</ele>
        <time>2021-04-28T13:46:42Z</time>
      </trkpt>
      <trkpt lat="49.86354" lon="2.30893">
        <ele>90.3</ele>
        <time>2021-04-28T13:46:43Z</time>
      </trkpt>
      <trkpt lat="49.86355" lon="2.30892">
        <ele>90.3</ele>
        <time>2021-04-28T13:46:44Z</time>
      </trkpt>
      <trkpt lat="49.86357" lon="2.30892">
        <ele>90.1</ele>
        <time>2021-04-28T13:46:45Z</time>
      </trkpt>
      <trkpt lat="49.86358" lon="2.30892">
        <ele>90.1</ele>
        <time>2021-04-28T13:46:46Z</time>
      </trkpt>
      <trkpt lat="49.86359" lon="2.30892">
        <ele>90.1</ele>
        <time>2021-04-28T13:46:47Z</time>
      </trkpt>
      <trkpt lat="49.8636" lon="2.30892">
        <ele>90</ele>
        <time>2021-04-28T13:46:48Z</time>
      </trkpt>
      <trkpt lat="49.86361" lon="2.30892">
        <ele>90</ele>
        <time>2021-04-28T13:46:50Z</time>
      </trkpt>
      <trkpt lat="49.86362" lon="2.30891">
        <ele>89.9</ele>
        <time>2021-04-28T13:46:51Z</time>
      </trkpt>
      <trkpt lat="49.86363" lon="2.30891">
        <ele>89.8</ele>
        <time>2021-04-28T13:46:52Z</time>
      </trkpt>
      <trkpt lat="49.86364" lon="2.30891">
        <ele>89.8</ele>
        <time>2021-04-28T13:46:53Z</time>
      </trkpt>
      <trkpt lat="49.86365" lon="2.30891">
        <ele>89.7</ele>
        <time>2021-04-28T13:46:54Z</time>
      </trkpt>
      <trkpt lat="49.86367" lon="2.3089">
        <ele>89.7</ele>
        <time>2021-04-28T13:46:55Z</time>
      </trkpt>
      <trkpt lat="49.86367" lon="2.3089">
        <ele>89.6</ele>
        <time>2021-04-28T13:46:56Z</time>
      </trkpt>
      <trkpt lat="49.86368" lon="2.3089">
        <ele>89.6</ele>
        <time>2021-04-28T13:46:57Z</time>
      </trkpt>
      <trkpt lat="49.86369" lon="2.3089">
        <ele>89.5</ele>
        <time>2021-04-28T13:46:58Z</time>
      </trkpt>
      <trkpt lat="49.8637" lon="2.30889">
        <ele>89.5</ele>
        <time>2021-04-28T13:46:59Z</time>
      </trkpt>
      <trkpt lat="49.86371" lon="2.30889">
        <ele>89.4</ele>
        <time>2021-04-28T13:47:00Z</time>
      </trkpt>
      <trkpt lat="49.86372" lon="2.30888">
        <ele>89.4</ele>
        <time>2021-04-28T13:47:02Z</time>
      </trkpt>
      <trkpt lat="49.86373" lon="2.30888">
        <ele>89.3</ele>
        <time>2021-04-28T13:47:03Z</time>
      </trkpt>
      <trkpt lat="49.86374" lon="2.30887">
        <ele>89.3</ele>
        <time>2021-04-28T13:47:04Z</time>
      </trkpt>
      <trkpt lat="49.86376" lon="2.30886">
        <ele>89.1</ele>
        <time>2021-04-28T13:47:05Z</time>
      </trkpt>
      <trkpt lat="49.86377" lon="2.30886">
        <ele>89.1</ele>
        <time>2021-04-28T13:47:07Z</time>
      </trkpt>
      <trkpt lat="49.86378" lon="2.30885">
        <ele>89.1</ele>
        <time>2021-04-28T13:47:08Z</time>
      </trkpt>
      <trkpt lat="49.86379" lon="2.30885">
        <ele>89</ele>
        <time>2021-04-28T13:47:09Z</time>
      </trkpt>
      <trkpt lat="49.8638" lon="2.30884">
        <ele>88.9</ele>
        <time>2021-04-28T13:47:10Z</time>
      </trkpt>
      <trkpt lat="49.86381" lon="2.30883">
        <ele>88.9</ele>
        <time>2021-04-28T13:47:11Z</time>
      </trkpt>
      <trkpt lat="49.86382" lon="2.30883">
        <ele>88.9</ele>
        <time>2021-04-28T13:47:12Z</time>
      </trkpt>
      <trkpt lat="49.86382" lon="2.30883">
        <ele>88.8</ele>
        <time>2021-04-28T13:47:14Z</time>
      </trkpt>
      <trkpt lat="49.86383" lon="2.30883">
        <ele>88.8</ele>
        <time>2021-04-28T13:47:15Z</time>
      </trkpt>
      <trkpt lat="49.86384" lon="2.30883">
        <ele>88.7</ele>
        <time>2021-04-28T13:47:16Z</time>
      </trkpt>
      <trkpt lat="49.86386" lon="2.30883">
        <ele>88.6</ele>
        <time>2021-04-28T13:47:17Z</time>
      </trkpt>
      <trkpt lat="49.86387" lon="2.30883">
        <ele>88.6</ele>
        <time>2021-04-28T13:47:18Z</time>
      </trkpt>
      <trkpt lat="49.86388" lon="2.30883">
        <ele>88.6</ele>
        <time>2021-04-28T13:47:19Z</time>
      </trkpt>
      <trkpt lat="49.86389" lon="2.30883">
        <ele>88.5</ele>
        <time>2021-04-28T13:47:21Z</time>
      </trkpt>
      <trkpt lat="49.8639" lon="2.30883">
        <ele>88.4</ele>
        <time>2021-04-28T13:47:22Z</time>
      </trkpt>
      <trkpt lat="49.86393" lon="2.30882">
        <ele>88.3</ele>
        <time>2021-04-28T13:47:23Z</time>
      </trkpt>
      <trkpt lat="49.86394" lon="2.30882">
        <ele>88.2</ele>
        <time>2021-04-28T13:47:24Z</time>
      </trkpt>
      <trkpt lat="49.86395" lon="2.30881">
        <ele>88.2</ele>
        <time>2021-04-28T13:47:25Z</time>
      </trkpt>
      <trkpt lat="49.86396" lon="2.30881">
        <ele>88.1</ele>
        <time>2021-04-28T13:47:27Z</time>
      </trkpt>
      <trkpt lat="49.86397" lon="2.3088">
        <ele>88</ele>
        <time>2021-04-28T13:47:28Z</time>
      </trkpt>
      <trkpt lat="49.86398" lon="2.3088">
        <ele>88</ele>
        <time>2021-04-28T13:47:29Z</time>
      </trkpt>
      <trkpt lat="49.864" lon="2.30879">
        <ele>87.8</ele>
        <time>2021-04-28T13:47:30Z</time>
      </trkpt>
      <trkpt lat="49.86401" lon="2.30879">
        <ele>87.8</ele>
        <time>2021-04-28T13:47:31Z</time>
      </trkpt>
      <trkpt lat="49.86403" lon="2.30878">
        <ele>87.7</ele>
        <time>2021-04-28T13:47:32Z</time>
      </trkpt>
      <trkpt lat="49.86404" lon="2.30878">
        <ele>87.6</ele>
        <time>2021-04-28T13:47:33Z</time>
      </trkpt>
      <trkpt lat="49.86404" lon="2.30877">
        <ele>87.6</ele>
        <time>2021-04-28T13:47:34Z</time>
      </trkpt>
      <trkpt lat="49.86405" lon="2.30877">
        <ele>87.5</ele>
        <time>2021-04-28T13:47:35Z</time>
      </trkpt>
      <trkpt lat="49.86406" lon="2.30876">
        <ele>87.5</ele>
        <time>2021-04-28T13:47:36Z</time>
      </trkpt>
      <trkpt lat="49.86407" lon="2.30876">
        <ele>87.4</ele>
        <time>2021-04-28T13:47:37Z</time>
      </trkpt>
      <trkpt lat="49.86409" lon="2.30876">
        <ele>87.3</ele>
        <time>2021-04-28T13:47:39Z</time>
      </trkpt>
      <trkpt lat="49.86409" lon="2.30875">
        <ele>87.3</ele>
        <time>2021-04-28T13:47:40Z</time>
      </trkpt>
      <trkpt lat="49.86411" lon="2.30875">
        <ele>87.2</ele>
        <time>2021-04-28T13:47:41Z</time>
      </trkpt>
      <trkpt lat="49.86412" lon="2.30874">
        <ele>87.1</ele>
        <time>2021-04-28T13:47:42Z</time>
      </trkpt>
      <trkpt lat="49.86413" lon="2.30874">
        <ele>87</ele>
        <time>2021-04-28T13:47:43Z</time>
      </trkpt>
      <trkpt lat="49.86414" lon="2.30873">
        <ele>87</ele>
        <time>2021-04-28T13:47:45Z</time>
      </trkpt>
      <trkpt lat="49.86415" lon="2.30872">
        <ele>86.9</ele>
        <time>2021-04-28T13:47:46Z</time>
      </trkpt>
      <trkpt lat="49.86416" lon="2.30872">
        <ele>86.9</ele>
        <time>2021-04-28T13:47:47Z</time>
      </trkpt>
      <trkpt lat="49.86417" lon="2.30871">
        <ele>86.8</ele>
        <time>2021-04-28T13:47:48Z</time>
      </trkpt>
      <trkpt lat="49.86418" lon="2.30871">
        <ele>86.7</ele>
        <time>2021-04-28T13:47:49Z</time>
      </trkpt>
      <trkpt lat="49.8642" lon="2.30869">
        <ele>86.6</ele>
        <time>2021-04-28T13:47:51Z</time>
      </trkpt>
      <trkpt lat="49.86421" lon="2.30869">
        <ele>86.5</ele>
        <time>2021-04-28T13:47:52Z</time>
      </trkpt>
      <trkpt lat="49.86422" lon="2.30868">
        <ele>86.5</ele>
        <time>2021-04-28T13:47:53Z</time>
      </trkpt>
      <trkpt lat="49.86423" lon="2.30868">
        <ele>86.4</ele>
        <time>2021-04-28T13:47:54Z</time>
      </trkpt>
      <trkpt lat="49.86424" lon="2.30868">
        <ele>86.4</ele>
        <time>2021-04-28T13:47:55Z</time>
      </trkpt>
      <trkpt lat="49.86426" lon="2.30868">
        <ele>86.3</ele>
        <time>2021-04-28T13:47:56Z</time>
      </trkpt>
      <trkpt lat="49.86427" lon="2.30868">
        <ele>86.2</ele>
        <time>2021-04-28T13:47:57Z</time>
      </trkpt>
      <trkpt lat="49.86428" lon="2.30868">
        <ele>86.1</ele>
        <time>2021-04-28T13:47:58Z</time>
      </trkpt>
      <trkpt lat="49.86429" lon="2.30868">
        <ele>86.1</ele>
        <time>2021-04-28T13:47:59Z</time>
      </trkpt>
      <trkpt lat="49.86431" lon="2.30867">
        <ele>86</ele>
        <time>2021-04-28T13:48:01Z</time>
      </trkpt>
      <trkpt lat="49.86433" lon="2.30868">
        <ele>85.9</ele>
        <time>2021-04-28T13:48:03Z</time>
      </trkpt>
      <trkpt lat="49.86433" lon="2.30868">
        <ele>85.8</ele>
        <time>2021-04-28T13:48:04Z</time>
      </trkpt>
      <trkpt lat="49.86434" lon="2.30868">
        <ele>85.8</ele>
        <time>2021-04-28T13:48:05Z</time>
      </trkpt>
      <trkpt lat="49.86436" lon="2.30868">
        <ele>85.7</ele>
        <time>2021-04-28T13:48:07Z</time>
      </trkpt>
      <trkpt lat="49.86438" lon="2.30868">
        <ele>85.5</ele>
        <time>2021-04-28T13:48:08Z</time>
      </trkpt>
      <trkpt lat="49.86439" lon="2.30868">
        <ele>85.5</ele>
        <time>2021-04-28T13:48:09Z</time>
      </trkpt>
      <trkpt lat="49.8644" lon="2.30868">
        <ele>85.4</ele>
        <time>2021-04-28T13:48:10Z</time>
      </trkpt>
      <trkpt lat="49.86442" lon="2.30868">
        <ele>85.3</ele>
        <time>2021-04-28T13:48:11Z</time>
      </trkpt>
      <trkpt lat="49.86443" lon="2.30868">
        <ele>85.3</ele>
        <time>2021-04-28T13:48:12Z</time>
      </trkpt>
      <trkpt lat="49.86444" lon="2.30868">
        <ele>85.2</ele>
        <time>2021-04-28T13:48:14Z</time>
      </trkpt>
      <trkpt lat="49.86445" lon="2.30867">
        <ele>85.1</ele>
        <time>2021-04-28T13:48:15Z</time>
      </trkpt>
      <trkpt lat="49.86446" lon="2.30868">
        <ele>85.1</ele>
        <time>2021-04-28T13:48:16Z</time>
      </trkpt>
      <trkpt lat="49.86447" lon="2.30868">
        <ele>85</ele>
        <time>2021-04-28T13:48:17Z</time>
      </trkpt>
      <trkpt lat="49.86448" lon="2.30868">
        <ele>85</ele>
        <time>2021-04-28T13:48:18Z</time>
      </trkpt>
      <trkpt lat="49.8645" lon="2.30868">
        <ele>84.9</ele>
        <time>2021-04-28T13:48:20Z</time>
      </trkpt>
      <trkpt lat="49.86452" lon="2.30867">
        <ele>84.8</ele>
        <time>2021-04-28T13:48:21Z</time>
      </trkpt>
      <trkpt lat="49.86453" lon="2.30867">
        <ele>84.7</ele>
        <time>2021-04-28T13:48:22Z</time>
      </trkpt>
      <trkpt lat="49.86454" lon="2.30867">
        <ele>84.7</ele>
        <time>2021-04-28T13:48:23Z</time>
      </trkpt>
      <trkpt lat="49.86455" lon="2.30867">
        <ele>84.7</ele>
        <time>2021-04-28T13:48:24Z</time>
      </trkpt>
      <trkpt lat="49.86456" lon="2.30867">
        <ele>84.6</ele>
        <time>2021-04-28T13:48:25Z</time>
      </trkpt>
      <trkpt lat="49.86458" lon="2.30867">
        <ele>84.5</ele>
        <time>2021-04-28T13:48:27Z</time>
      </trkpt>
      <trkpt lat="49.86459" lon="2.30867">
        <ele>84.5</ele>
        <time>2021-04-28T13:48:28Z</time>
      </trkpt>
      <trkpt lat="49.8646" lon="2.30867">
        <ele>84.4</ele>
        <time>2021-04-28T13:48:29Z</time>
      </trkpt>
      <trkpt lat="49.86461" lon="2.30867">
        <ele>84.4</ele>
        <time>2021-04-28T13:48:30Z</time>
      </trkpt>
      <trkpt lat="49.86464" lon="2.30866">
        <ele>84.2</ele>
        <time>2021-04-28T13:48:31Z</time>
      </trkpt>
      <trkpt lat="49.86465" lon="2.30866">
        <ele>84.2</ele>
        <time>2021-04-28T13:48:33Z</time>
      </trkpt>
      <trkpt lat="49.86466" lon="2.30866">
        <ele>84.1</ele>
        <time>2021-04-28T13:48:34Z</time>
      </trkpt>
      <trkpt lat="49.86467" lon="2.30866">
        <ele>84.1</ele>
        <time>2021-04-28T13:48:35Z</time>
      </trkpt>
      <trkpt lat="49.86468" lon="2.30866">
        <ele>84</ele>
        <time>2021-04-28T13:48:36Z</time>
      </trkpt>
      <trkpt lat="49.86469" lon="2.30865">
        <ele>84</ele>
        <time>2021-04-28T13:48:37Z</time>
      </trkpt>
      <trkpt lat="49.8647" lon="2.30865">
        <ele>83.9</ele>
        <time>2021-04-28T13:48:38Z</time>
      </trkpt>
      <trkpt lat="49.86472" lon="2.30865">
        <ele>83.8</ele>
        <time>2021-04-28T13:48:40Z</time>
      </trkpt>
      <trkpt lat="49.86473" lon="2.30865">
        <ele>83.8</ele>
        <time>2021-04-28T13:48:41Z</time>
      </trkpt>
      <trkpt lat="49.86474" lon="2.30865">
        <ele>83.7</ele>
        <time>2021-04-28T13:48:42Z</time>
      </trkpt>
      <trkpt lat="49.86474" lon="2.30865">
        <ele>83.7</ele>
        <time>2021-04-28T13:48:43Z</time>
      </trkpt>
      <trkpt lat="49.86477" lon="2.30865">
        <ele>83.5</ele>
        <time>2021-04-28T13:48:45Z</time>
      </trkpt>
      <trkpt lat="49.86478" lon="2.30865">
        <ele>83.5</ele>
        <time>2021-04-28T13:48:46Z</time>
      </trkpt>
      <trkpt lat="49.86479" lon="2.30865">
        <ele>83.5</ele>
        <time>2021-04-28T13:48:47Z</time>
      </trkpt>
      <trkpt lat="49.8648" lon="2.30865">
        <ele>83.4</ele>
        <time>2021-04-28T13:48:48Z</time>
      </trkpt>
      <trkpt lat="49.86481" lon="2.30865">
        <ele>83.4</ele>
        <time>2021-04-28T13:48:49Z</time>
      </trkpt>
      <trkpt lat="49.86482" lon="2.30864">
        <ele>83.3</ele>
        <time>2021-04-28T13:48:50Z</time>
      </trkpt>
      <trkpt lat="49.86484" lon="2.30864">
        <ele>83.2</ele>
        <time>2021-04-28T13:48:51Z</time>
      </trkpt>
      <trkpt lat="49.86486" lon="2.30863">
        <ele>83.1</ele>
        <time>2021-04-28T13:48:52Z</time>
      </trkpt>
      <trkpt lat="49.86487" lon="2.30863">
        <ele>83.1</ele>
        <time>2021-04-28T13:48:53Z</time>
      </trkpt>
      <trkpt lat="49.86488" lon="2.30863">
        <ele>83.1</ele>
        <time>2021-04-28T13:48:54Z</time>
      </trkpt>
      <trkpt lat="49.8649" lon="2.30862">
        <ele>83</ele>
        <time>2021-04-28T13:48:56Z</time>
      </trkpt>
      <trkpt lat="49.86491" lon="2.30862">
        <ele>82.9</ele>
        <time>2021-04-28T13:48:57Z</time>
      </trkpt>
      <trkpt lat="49.86492" lon="2.30861">
        <ele>82.9</ele>
        <time>2021-04-28T13:48:58Z</time>
      </trkpt>
      <trkpt lat="49.86493" lon="2.30862">
        <ele>82.8</ele>
        <time>2021-04-28T13:48:59Z</time>
      </trkpt>
      <trkpt lat="49.86494" lon="2.30862">
        <ele>82.8</ele>
        <time>2021-04-28T13:49:00Z</time>
      </trkpt>
      <trkpt lat="49.86496" lon="2.30862">
        <ele>82.7</ele>
        <time>2021-04-28T13:49:02Z</time>
      </trkpt>
      <trkpt lat="49.86495" lon="2.30864">
        <ele>82.6</ele>
        <time>2021-04-28T13:49:04Z</time>
      </trkpt>
      <trkpt lat="49.86493" lon="2.30865">
        <ele>82.5</ele>
        <time>2021-04-28T13:49:05Z</time>
      </trkpt>
      <trkpt lat="49.86492" lon="2.30863">
        <ele>82.4</ele>
        <time>2021-04-28T13:49:07Z</time>
      </trkpt>
      <trkpt lat="49.86493" lon="2.30862">
        <ele>82.4</ele>
        <time>2021-04-28T13:49:08Z</time>
      </trkpt>
      <trkpt lat="49.86494" lon="2.30861">
        <ele>82.3</ele>
        <time>2021-04-28T13:49:09Z</time>
      </trkpt>
      <trkpt lat="49.86495" lon="2.30861">
        <ele>82.3</ele>
        <time>2021-04-28T13:49:10Z</time>
      </trkpt>
      <trkpt lat="49.86497" lon="2.3086">
        <ele>82.2</ele>
        <time>2021-04-28T13:49:11Z</time>
      </trkpt>
      <trkpt lat="49.86499" lon="2.30859">
        <ele>82.1</ele>
        <time>2021-04-28T13:49:12Z</time>
      </trkpt>
      <trkpt lat="49.865" lon="2.30859">
        <ele>82</ele>
        <time>2021-04-28T13:49:13Z</time>
      </trkpt>
      <trkpt lat="49.86502" lon="2.30857">
        <ele>81.9</ele>
        <time>2021-04-28T13:49:14Z</time>
      </trkpt>
      <trkpt lat="49.86502" lon="2.30857">
        <ele>81.9</ele>
        <time>2021-04-28T13:49:17Z</time>
      </trkpt>
      <trkpt lat="49.86503" lon="2.30856">
        <ele>81.9</ele>
        <time>2021-04-28T13:49:19Z</time>
      </trkpt>
      <trkpt lat="49.86503" lon="2.30856">
        <ele>81.8</ele>
        <time>2021-04-28T13:49:21Z</time>
      </trkpt>
      <trkpt lat="49.86504" lon="2.30855">
        <ele>81.8</ele>
        <time>2021-04-28T13:49:22Z</time>
      </trkpt>
      <trkpt lat="49.86504" lon="2.30855">
        <ele>81.8</ele>
        <time>2021-04-28T13:49:23Z</time>
      </trkpt>
      <trkpt lat="49.86505" lon="2.30854">
        <ele>81.8</ele>
        <time>2021-04-28T13:49:24Z</time>
      </trkpt>
      <trkpt lat="49.86505" lon="2.30853">
        <ele>81.7</ele>
        <time>2021-04-28T13:49:25Z</time>
      </trkpt>
      <trkpt lat="49.86506" lon="2.30853">
        <ele>81.7</ele>
        <time>2021-04-28T13:49:27Z</time>
      </trkpt>
      <trkpt lat="49.86506" lon="2.30852">
        <ele>81.7</ele>
        <time>2021-04-28T13:49:28Z</time>
      </trkpt>
      <trkpt lat="49.86507" lon="2.30852">
        <ele>81.6</ele>
        <time>2021-04-28T13:49:29Z</time>
      </trkpt>
      <trkpt lat="49.86507" lon="2.30851">
        <ele>81.6</ele>
        <time>2021-04-28T13:49:30Z</time>
      </trkpt>
      <trkpt lat="49.86508" lon="2.3085">
        <ele>81.6</ele>
        <time>2021-04-28T13:49:31Z</time>
      </trkpt>
      <trkpt lat="49.8651" lon="2.3085">
        <ele>81.4</ele>
        <time>2021-04-28T13:49:32Z</time>
      </trkpt>
      <trkpt lat="49.86512" lon="2.3085">
        <ele>81.4</ele>
        <time>2021-04-28T13:49:34Z</time>
      </trkpt>
      <trkpt lat="49.86513" lon="2.30849">
        <ele>81.3</ele>
        <time>2021-04-28T13:49:35Z</time>
      </trkpt>
      <trkpt lat="49.86515" lon="2.30849">
        <ele>81.2</ele>
        <time>2021-04-28T13:49:36Z</time>
      </trkpt>
      <trkpt lat="49.86516" lon="2.30849">
        <ele>81.1</ele>
        <time>2021-04-28T13:49:37Z</time>
      </trkpt>
      <trkpt lat="49.86518" lon="2.30848">
        <ele>81</ele>
        <time>2021-04-28T13:49:38Z</time>
      </trkpt>
      <trkpt lat="49.86521" lon="2.30848">
        <ele>80.9</ele>
        <time>2021-04-28T13:49:40Z</time>
      </trkpt>
      <trkpt lat="49.86522" lon="2.30848">
        <ele>80.8</ele>
        <time>2021-04-28T13:49:41Z</time>
      </trkpt>
      <trkpt lat="49.86524" lon="2.30848">
        <ele>80.7</ele>
        <time>2021-04-28T13:49:42Z</time>
      </trkpt>
      <trkpt lat="49.86525" lon="2.30848">
        <ele>80.6</ele>
        <time>2021-04-28T13:49:43Z</time>
      </trkpt>
      <trkpt lat="49.86525" lon="2.30848">
        <ele>80.6</ele>
        <time>2021-04-28T13:49:44Z</time>
      </trkpt>
      <trkpt lat="49.86527" lon="2.30848">
        <ele>80.5</ele>
        <time>2021-04-28T13:49:45Z</time>
      </trkpt>
      <trkpt lat="49.86529" lon="2.30849">
        <ele>80.4</ele>
        <time>2021-04-28T13:49:46Z</time>
      </trkpt>
      <trkpt lat="49.8653" lon="2.3085">
        <ele>80.3</ele>
        <time>2021-04-28T13:49:47Z</time>
      </trkpt>
      <trkpt lat="49.86531" lon="2.30851">
        <ele>80.2</ele>
        <time>2021-04-28T13:49:49Z</time>
      </trkpt>
      <trkpt lat="49.86533" lon="2.30852">
        <ele>80.1</ele>
        <time>2021-04-28T13:49:50Z</time>
      </trkpt>
      <trkpt lat="49.86534" lon="2.30852">
        <ele>80</ele>
        <time>2021-04-28T13:49:51Z</time>
      </trkpt>
      <trkpt lat="49.86535" lon="2.30852">
        <ele>80</ele>
        <time>2021-04-28T13:49:52Z</time>
      </trkpt>
      <trkpt lat="49.86537" lon="2.30852">
        <ele>79.9</ele>
        <time>2021-04-28T13:49:53Z</time>
      </trkpt>
      <trkpt lat="49.86538" lon="2.30852">
        <ele>79.8</ele>
        <time>2021-04-28T13:49:55Z</time>
      </trkpt>
      <trkpt lat="49.8654" lon="2.30851">
        <ele>79.7</ele>
        <time>2021-04-28T13:49:56Z</time>
      </trkpt>
      <trkpt lat="49.8654" lon="2.30851">
        <ele>79.7</ele>
        <time>2021-04-28T13:49:57Z</time>
      </trkpt>
      <trkpt lat="49.86541" lon="2.30851">
        <ele>79.7</ele>
        <time>2021-04-28T13:49:58Z</time>
      </trkpt>
      <trkpt lat="49.86543" lon="2.30851">
        <ele>79.7</ele>
        <time>2021-04-28T13:49:59Z</time>
      </trkpt>
      <trkpt lat="49.86544" lon="2.30851">
        <ele>79.6</ele>
        <time>2021-04-28T13:50:00Z</time>
      </trkpt>
      <trkpt lat="49.86545" lon="2.3085">
        <ele>79.6</ele>
        <time>2021-04-28T13:50:02Z</time>
      </trkpt>
      <trkpt lat="49.86546" lon="2.3085">
        <ele>79.6</ele>
        <time>2021-04-28T13:50:03Z</time>
      </trkpt>
      <trkpt lat="49.86547" lon="2.3085">
        <ele>79.6</ele>
        <time>2021-04-28T13:50:04Z</time>
      </trkpt>
      <trkpt lat="49.86548" lon="2.3085">
        <ele>79.5</ele>
        <time>2021-04-28T13:50:05Z</time>
      </trkpt>
      <trkpt lat="49.86549" lon="2.30849">
        <ele>79.5</ele>
        <time>2021-04-28T13:50:06Z</time>
      </trkpt>
      <trkpt lat="49.8655" lon="2.30849">
        <ele>79.5</ele>
        <time>2021-04-28T13:50:07Z</time>
      </trkpt>
      <trkpt lat="49.86551" lon="2.30849">
        <ele>79.5</ele>
        <time>2021-04-28T13:50:09Z</time>
      </trkpt>
      <trkpt lat="49.86552" lon="2.30849">
        <ele>79.4</ele>
        <time>2021-04-28T13:50:10Z</time>
      </trkpt>
      <trkpt lat="49.86553" lon="2.30847">
        <ele>79.4</ele>
        <time>2021-04-28T13:50:11Z</time>
      </trkpt>
      <trkpt lat="49.86553" lon="2.30846">
        <ele>79.4</ele>
        <time>2021-04-28T13:50:12Z</time>
      </trkpt>
      <trkpt lat="49.86553" lon="2.30843">
        <ele>79.3</ele>
        <time>2021-04-28T13:50:14Z</time>
      </trkpt>
      <trkpt lat="49.86551" lon="2.30841">
        <ele>79.3</ele>
        <time>2021-04-28T13:50:15Z</time>
      </trkpt>
      <trkpt lat="49.86551" lon="2.30839">
        <ele>79.3</ele>
        <time>2021-04-28T13:50:16Z</time>
      </trkpt>
      <trkpt lat="49.86551" lon="2.30838">
        <ele>79.2</ele>
        <time>2021-04-28T13:50:17Z</time>
      </trkpt>
      <trkpt lat="49.86551" lon="2.30837">
        <ele>79.2</ele>
        <time>2021-04-28T13:50:18Z</time>
      </trkpt>
      <trkpt lat="49.8655" lon="2.30835">
        <ele>79.2</ele>
        <time>2021-04-28T13:50:20Z</time>
      </trkpt>
      <trkpt lat="49.8655" lon="2.30833">
        <ele>79.2</ele>
        <time>2021-04-28T13:50:21Z</time>
      </trkpt>
      <trkpt lat="49.8655" lon="2.3083">
        <ele>79.1</ele>
        <time>2021-04-28T13:50:22Z</time>
      </trkpt>
      <trkpt lat="49.8655" lon="2.30829">
        <ele>79.1</ele>
        <time>2021-04-28T13:50:23Z</time>
      </trkpt>
      <trkpt lat="49.86551" lon="2.30827">
        <ele>79.1</ele>
        <time>2021-04-28T13:50:24Z</time>
      </trkpt>
      <trkpt lat="49.86552" lon="2.30826">
        <ele>79</ele>
        <time>2021-04-28T13:50:25Z</time>
      </trkpt>
      <trkpt lat="49.86553" lon="2.30826">
        <ele>79</ele>
        <time>2021-04-28T13:50:26Z</time>
      </trkpt>
      <trkpt lat="49.86554" lon="2.30826">
        <ele>79</ele>
        <time>2021-04-28T13:50:27Z</time>
      </trkpt>
      <trkpt lat="49.86556" lon="2.30827">
        <ele>78.9</ele>
        <time>2021-04-28T13:50:29Z</time>
      </trkpt>
      <trkpt lat="49.86556" lon="2.30828">
        <ele>78.9</ele>
        <time>2021-04-28T13:50:30Z</time>
      </trkpt>
      <trkpt lat="49.86558" lon="2.3083">
        <ele>78.8</ele>
        <time>2021-04-28T13:50:32Z</time>
      </trkpt>
      <trkpt lat="49.86558" lon="2.30831">
        <ele>78.8</ele>
        <time>2021-04-28T13:50:33Z</time>
      </trkpt>
      <trkpt lat="49.86559" lon="2.30832">
        <ele>78.8</ele>
        <time>2021-04-28T13:50:34Z</time>
      </trkpt>
      <trkpt lat="49.8656" lon="2.30833">
        <ele>78.8</ele>
        <time>2021-04-28T13:50:36Z</time>
      </trkpt>
      <trkpt lat="49.86561" lon="2.30832">
        <ele>78.8</ele>
        <time>2021-04-28T13:50:37Z</time>
      </trkpt>
      <trkpt lat="49.86562" lon="2.30832">
        <ele>78.7</ele>
        <time>2021-04-28T13:50:38Z</time>
      </trkpt>
      <trkpt lat="49.86563" lon="2.30832">
        <ele>78.6</ele>
        <time>2021-04-28T13:50:39Z</time>
      </trkpt>
      <trkpt lat="49.86564" lon="2.30832">
        <ele>78.6</ele>
        <time>2021-04-28T13:50:40Z</time>
      </trkpt>
      <trkpt lat="49.86564" lon="2.30832">
        <ele>78.5</ele>
        <time>2021-04-28T13:50:41Z</time>
      </trkpt>
      <trkpt lat="49.86565" lon="2.30831">
        <ele>78.5</ele>
        <time>2021-04-28T13:50:42Z</time>
      </trkpt>
      <trkpt lat="49.86566" lon="2.30831">
        <ele>78.4</ele>
        <time>2021-04-28T13:50:44Z</time>
      </trkpt>
      <trkpt lat="49.86567" lon="2.3083">
        <ele>78.4</ele>
        <time>2021-04-28T13:50:45Z</time>
      </trkpt>
      <trkpt lat="49.86567" lon="2.30828">
        <ele>78.3</ele>
        <time>2021-04-28T13:50:47Z</time>
      </trkpt>
      <trkpt lat="49.86567" lon="2.30827">
        <ele>78.2</ele>
        <time>2021-04-28T13:50:48Z</time>
      </trkpt>
      <trkpt lat="49.86567" lon="2.30827">
        <ele>78.2</ele>
        <time>2021-04-28T13:50:49Z</time>
      </trkpt>
      <trkpt lat="49.86567" lon="2.30827">
        <ele>78.2</ele>
        <time>2021-04-28T13:50:51Z</time>
      </trkpt>
      <trkpt lat="49.86569" lon="2.30828">
        <ele>78.1</ele>
        <time>2021-04-28T13:50:52Z</time>
      </trkpt>
      <trkpt lat="49.8657" lon="2.30828">
        <ele>78.1</ele>
        <time>2021-04-28T13:50:53Z</time>
      </trkpt>
      <trkpt lat="49.8657" lon="2.30828">
        <ele>78</ele>
        <time>2021-04-28T13:50:54Z</time>
      </trkpt>
      <trkpt lat="49.86571" lon="2.30828">
        <ele>77.9</ele>
        <time>2021-04-28T13:50:56Z</time>
      </trkpt>
      <trkpt lat="49.86573" lon="2.30828">
        <ele>77.9</ele>
        <time>2021-04-28T13:50:57Z</time>
      </trkpt>
      <trkpt lat="49.86574" lon="2.30828">
        <ele>77.8</ele>
        <time>2021-04-28T13:50:58Z</time>
      </trkpt>
      <trkpt lat="49.86576" lon="2.30828">
        <ele>77.7</ele>
        <time>2021-04-28T13:50:59Z</time>
      </trkpt>
      <trkpt lat="49.86577" lon="2.30829">
        <ele>77.6</ele>
        <time>2021-04-28T13:51:00Z</time>
      </trkpt>
      <trkpt lat="49.86577" lon="2.30829">
        <ele>77.5</ele>
        <time>2021-04-28T13:51:01Z</time>
      </trkpt>
      <trkpt lat="49.86578" lon="2.3083">
        <ele>77.5</ele>
        <time>2021-04-28T13:51:03Z</time>
      </trkpt>
      <trkpt lat="49.86579" lon="2.3083">
        <ele>77.4</ele>
        <time>2021-04-28T13:51:04Z</time>
      </trkpt>
      <trkpt lat="49.86579" lon="2.3083">
        <ele>77.4</ele>
        <time>2021-04-28T13:51:06Z</time>
      </trkpt>
      <trkpt lat="49.8658" lon="2.3083">
        <ele>77.3</ele>
        <time>2021-04-28T13:51:07Z</time>
      </trkpt>
      <trkpt lat="49.86581" lon="2.30831">
        <ele>77.3</ele>
        <time>2021-04-28T13:51:08Z</time>
      </trkpt>
      <trkpt lat="49.86582" lon="2.30831">
        <ele>77.2</ele>
        <time>2021-04-28T13:51:09Z</time>
      </trkpt>
      <trkpt lat="49.86583" lon="2.30831">
        <ele>77.2</ele>
        <time>2021-04-28T13:51:10Z</time>
      </trkpt>
      <trkpt lat="49.86584" lon="2.30832">
        <ele>77.1</ele>
        <time>2021-04-28T13:51:12Z</time>
      </trkpt>
      <trkpt lat="49.86583" lon="2.30833">
        <ele>77</ele>
        <time>2021-04-28T13:51:13Z</time>
      </trkpt>
      <trkpt lat="49.86583" lon="2.30832">
        <ele>77</ele>
        <time>2021-04-28T13:51:14Z</time>
      </trkpt>
      <trkpt lat="49.86584" lon="2.30832">
        <ele>76.9</ele>
        <time>2021-04-28T13:51:16Z</time>
      </trkpt>
      <trkpt lat="49.86585" lon="2.30832">
        <ele>76.8</ele>
        <time>2021-04-28T13:51:17Z</time>
      </trkpt>
      <trkpt lat="49.86586" lon="2.30833">
        <ele>76.8</ele>
        <time>2021-04-28T13:51:18Z</time>
      </trkpt>
      <trkpt lat="49.86587" lon="2.30833">
        <ele>76.7</ele>
        <time>2021-04-28T13:51:19Z</time>
      </trkpt>
      <trkpt lat="49.86588" lon="2.30832">
        <ele>76.6</ele>
        <time>2021-04-28T13:51:20Z</time>
      </trkpt>
      <trkpt lat="49.8659" lon="2.30832">
        <ele>76.5</ele>
        <time>2021-04-28T13:51:21Z</time>
      </trkpt>
      <trkpt lat="49.86591" lon="2.30831">
        <ele>76.4</ele>
        <time>2021-04-28T13:51:23Z</time>
      </trkpt>
      <trkpt lat="49.86592" lon="2.30831">
        <ele>76.3</ele>
        <time>2021-04-28T13:51:24Z</time>
      </trkpt>
      <trkpt lat="49.86593" lon="2.30831">
        <ele>76.3</ele>
        <time>2021-04-28T13:51:25Z</time>
      </trkpt>
      <trkpt lat="49.86595" lon="2.3083">
        <ele>76.2</ele>
        <time>2021-04-28T13:51:26Z</time>
      </trkpt>
      <trkpt lat="49.86596" lon="2.3083">
        <ele>76</ele>
        <time>2021-04-28T13:51:27Z</time>
      </trkpt>
      <trkpt lat="49.86598" lon="2.3083">
        <ele>76</ele>
        <time>2021-04-28T13:51:28Z</time>
      </trkpt>
      <trkpt lat="49.86599" lon="2.3083">
        <ele>75.9</ele>
        <time>2021-04-28T13:51:29Z</time>
      </trkpt>
      <trkpt lat="49.866" lon="2.3083">
        <ele>75.8</ele>
        <time>2021-04-28T13:51:31Z</time>
      </trkpt>
      <trkpt lat="49.86602" lon="2.30829">
        <ele>75.6</ele>
        <time>2021-04-28T13:51:32Z</time>
      </trkpt>
      <trkpt lat="49.86603" lon="2.30829">
        <ele>75.6</ele>
        <time>2021-04-28T13:51:33Z</time>
      </trkpt>
      <trkpt lat="49.86605" lon="2.30829">
        <ele>75.4</ele>
        <time>2021-04-28T13:51:34Z</time>
      </trkpt>
      <trkpt lat="49.86606" lon="2.30829">
        <ele>75.4</ele>
        <time>2021-04-28T13:51:35Z</time>
      </trkpt>
      <trkpt lat="49.86607" lon="2.30829">
        <ele>75.3</ele>
        <time>2021-04-28T13:51:36Z</time>
      </trkpt>
      <trkpt lat="49.86609" lon="2.30829">
        <ele>75.2</ele>
        <time>2021-04-28T13:51:37Z</time>
      </trkpt>
      <trkpt lat="49.8661" lon="2.3083">
        <ele>75.1</ele>
        <time>2021-04-28T13:51:39Z</time>
      </trkpt>
      <trkpt lat="49.86611" lon="2.3083">
        <ele>75.1</ele>
        <time>2021-04-28T13:51:40Z</time>
      </trkpt>
      <trkpt lat="49.86612" lon="2.3083">
        <ele>75</ele>
        <time>2021-04-28T13:51:41Z</time>
      </trkpt>
      <trkpt lat="49.86613" lon="2.3083">
        <ele>74.9</ele>
        <time>2021-04-28T13:51:42Z</time>
      </trkpt>
      <trkpt lat="49.86614" lon="2.30829">
        <ele>74.8</ele>
        <time>2021-04-28T13:51:43Z</time>
      </trkpt>
      <trkpt lat="49.86616" lon="2.3083">
        <ele>74.7</ele>
        <time>2021-04-28T13:51:44Z</time>
      </trkpt>
      <trkpt lat="49.86617" lon="2.3083">
        <ele>74.7</ele>
        <time>2021-04-28T13:51:46Z</time>
      </trkpt>
      <trkpt lat="49.86618" lon="2.3083">
        <ele>74.6</ele>
        <time>2021-04-28T13:51:47Z</time>
      </trkpt>
      <trkpt lat="49.8662" lon="2.3083">
        <ele>74.5</ele>
        <time>2021-04-28T13:51:48Z</time>
      </trkpt>
      <trkpt lat="49.86621" lon="2.3083">
        <ele>74.4</ele>
        <time>2021-04-28T13:51:49Z</time>
      </trkpt>
      <trkpt lat="49.86622" lon="2.30829">
        <ele>74.3</ele>
        <time>2021-04-28T13:51:50Z</time>
      </trkpt>
      <trkpt lat="49.86624" lon="2.30829">
        <ele>74.2</ele>
        <time>2021-04-28T13:51:51Z</time>
      </trkpt>
      <trkpt lat="49.86625" lon="2.30829">
        <ele>74.1</ele>
        <time>2021-04-28T13:51:53Z</time>
      </trkpt>
      <trkpt lat="49.86626" lon="2.30829">
        <ele>74.1</ele>
        <time>2021-04-28T13:51:54Z</time>
      </trkpt>
      <trkpt lat="49.86627" lon="2.30828">
        <ele>74</ele>
        <time>2021-04-28T13:51:55Z</time>
      </trkpt>
      <trkpt lat="49.86628" lon="2.30828">
        <ele>74</ele>
        <time>2021-04-28T13:51:56Z</time>
      </trkpt>
      <trkpt lat="49.86629" lon="2.30828">
        <ele>73.9</ele>
        <time>2021-04-28T13:51:57Z</time>
      </trkpt>
      <trkpt lat="49.8663" lon="2.30828">
        <ele>73.8</ele>
        <time>2021-04-28T13:51:58Z</time>
      </trkpt>
      <trkpt lat="49.86632" lon="2.30827">
        <ele>73.7</ele>
        <time>2021-04-28T13:51:59Z</time>
      </trkpt>
      <trkpt lat="49.86633" lon="2.30827">
        <ele>73.6</ele>
        <time>2021-04-28T13:52:01Z</time>
      </trkpt>
      <trkpt lat="49.86634" lon="2.30826">
        <ele>73.6</ele>
        <time>2021-04-28T13:52:02Z</time>
      </trkpt>
      <trkpt lat="49.86635" lon="2.30826">
        <ele>73.5</ele>
        <time>2021-04-28T13:52:03Z</time>
      </trkpt>
      <trkpt lat="49.86636" lon="2.30825">
        <ele>73.5</ele>
        <time>2021-04-28T13:52:04Z</time>
      </trkpt>
      <trkpt lat="49.86637" lon="2.30825">
        <ele>73.4</ele>
        <time>2021-04-28T13:52:05Z</time>
      </trkpt>
      <trkpt lat="49.86638" lon="2.30824">
        <ele>73.4</ele>
        <time>2021-04-28T13:52:07Z</time>
      </trkpt>
      <trkpt lat="49.86639" lon="2.30823">
        <ele>73.3</ele>
        <time>2021-04-28T13:52:08Z</time>
      </trkpt>
      <trkpt lat="49.8664" lon="2.30824">
        <ele>73.3</ele>
        <time>2021-04-28T13:52:09Z</time>
      </trkpt>
      <trkpt lat="49.8664" lon="2.30824">
        <ele>73.3</ele>
        <time>2021-04-28T13:52:10Z</time>
      </trkpt>
      <trkpt lat="49.86641" lon="2.30826">
        <ele>73.3</ele>
        <time>2021-04-28T13:52:12Z</time>
      </trkpt>
      <trkpt lat="49.86641" lon="2.30826">
        <ele>73.3</ele>
        <time>2021-04-28T13:52:13Z</time>
      </trkpt>
      <trkpt lat="49.86642" lon="2.30826">
        <ele>73.2</ele>
        <time>2021-04-28T13:52:14Z</time>
      </trkpt>
      <trkpt lat="49.86642" lon="2.30825">
        <ele>73.2</ele>
        <time>2021-04-28T13:52:16Z</time>
      </trkpt>
      <trkpt lat="49.86643" lon="2.30824">
        <ele>73.2</ele>
        <time>2021-04-28T13:52:17Z</time>
      </trkpt>
      <trkpt lat="49.86644" lon="2.30824">
        <ele>73.2</ele>
        <time>2021-04-28T13:52:18Z</time>
      </trkpt>
      <trkpt lat="49.86645" lon="2.30823">
        <ele>73.1</ele>
        <time>2021-04-28T13:52:20Z</time>
      </trkpt>
      <trkpt lat="49.86646" lon="2.30822">
        <ele>73.1</ele>
        <time>2021-04-28T13:52:21Z</time>
      </trkpt>
      <trkpt lat="49.86647" lon="2.30822">
        <ele>73.1</ele>
        <time>2021-04-28T13:52:22Z</time>
      </trkpt>
      <trkpt lat="49.86647" lon="2.30822">
        <ele>73.1</ele>
        <time>2021-04-28T13:52:23Z</time>
      </trkpt>
      <trkpt lat="49.86648" lon="2.30823">
        <ele>73</ele>
        <time>2021-04-28T13:52:25Z</time>
      </trkpt>
      <trkpt lat="49.86648" lon="2.30823">
        <ele>73</ele>
        <time>2021-04-28T13:52:26Z</time>
      </trkpt>
      <trkpt lat="49.86649" lon="2.30824">
        <ele>73</ele>
        <time>2021-04-28T13:52:28Z</time>
      </trkpt>
      <trkpt lat="49.86649" lon="2.30825">
        <ele>73</ele>
        <time>2021-04-28T13:52:29Z</time>
      </trkpt>
      <trkpt lat="49.86648" lon="2.30825">
        <ele>73</ele>
        <time>2021-04-28T13:52:30Z</time>
      </trkpt>
      <trkpt lat="49.86649" lon="2.30825">
        <ele>73</ele>
        <time>2021-04-28T13:52:31Z</time>
      </trkpt>
      <trkpt lat="49.8665" lon="2.30825">
        <ele>72.9</ele>
        <time>2021-04-28T13:52:32Z</time>
      </trkpt>
      <trkpt lat="49.8665" lon="2.30825">
        <ele>72.9</ele>
        <time>2021-04-28T13:52:34Z</time>
      </trkpt>
      <trkpt lat="49.86651" lon="2.30825">
        <ele>72.9</ele>
        <time>2021-04-28T13:52:35Z</time>
      </trkpt>
      <trkpt lat="49.86652" lon="2.30824">
        <ele>72.9</ele>
        <time>2021-04-28T13:52:36Z</time>
      </trkpt>
      <trkpt lat="49.86653" lon="2.30824">
        <ele>72.8</ele>
        <time>2021-04-28T13:52:37Z</time>
      </trkpt>
      <trkpt lat="49.86654" lon="2.30823">
        <ele>72.8</ele>
        <time>2021-04-28T13:52:38Z</time>
      </trkpt>
      <trkpt lat="49.86655" lon="2.30823">
        <ele>72.7</ele>
        <time>2021-04-28T13:52:39Z</time>
      </trkpt>
      <trkpt lat="49.86656" lon="2.30823">
        <ele>72.6</ele>
        <time>2021-04-28T13:52:40Z</time>
      </trkpt>
      <trkpt lat="49.86657" lon="2.30823">
        <ele>72.5</ele>
        <time>2021-04-28T13:52:42Z</time>
      </trkpt>
      <trkpt lat="49.86657" lon="2.30823">
        <ele>72.5</ele>
        <time>2021-04-28T13:52:43Z</time>
      </trkpt>
      <trkpt lat="49.86658" lon="2.30823">
        <ele>72.4</ele>
        <time>2021-04-28T13:52:44Z</time>
      </trkpt>
      <trkpt lat="49.8666" lon="2.30822">
        <ele>72.3</ele>
        <time>2021-04-28T13:52:46Z</time>
      </trkpt>
      <trkpt lat="49.86661" lon="2.30822">
        <ele>72.2</ele>
        <time>2021-04-28T13:52:47Z</time>
      </trkpt>
      <trkpt lat="49.86662" lon="2.30821">
        <ele>72.2</ele>
        <time>2021-04-28T13:52:48Z</time>
      </trkpt>
      <trkpt lat="49.86663" lon="2.30821">
        <ele>72.1</ele>
        <time>2021-04-28T13:52:49Z</time>
      </trkpt>
      <trkpt lat="49.86664" lon="2.30821">
        <ele>72</ele>
        <time>2021-04-28T13:52:50Z</time>
      </trkpt>
      <trkpt lat="49.86665" lon="2.30821">
        <ele>71.9</ele>
        <time>2021-04-28T13:52:51Z</time>
      </trkpt>
      <trkpt lat="49.86666" lon="2.30821">
        <ele>71.9</ele>
        <time>2021-04-28T13:52:52Z</time>
      </trkpt>
      <trkpt lat="49.86667" lon="2.30821">
        <ele>71.8</ele>
        <time>2021-04-28T13:52:53Z</time>
      </trkpt>
      <trkpt lat="49.86668" lon="2.30822">
        <ele>71.7</ele>
        <time>2021-04-28T13:52:55Z</time>
      </trkpt>
      <trkpt lat="49.86668" lon="2.30823">
        <ele>71.7</ele>
        <time>2021-04-28T13:52:56Z</time>
      </trkpt>
      <trkpt lat="49.86669" lon="2.30823">
        <ele>71.6</ele>
        <time>2021-04-28T13:52:57Z</time>
      </trkpt>
      <trkpt lat="49.86669" lon="2.30823">
        <ele>71.6</ele>
        <time>2021-04-28T13:52:58Z</time>
      </trkpt>
      <trkpt lat="49.8667" lon="2.30823">
        <ele>71.5</ele>
        <time>2021-04-28T13:52:59Z</time>
      </trkpt>
      <trkpt lat="49.86671" lon="2.30822">
        <ele>71.4</ele>
        <time>2021-04-28T13:53:00Z</time>
      </trkpt>
      <trkpt lat="49.86672" lon="2.30822">
        <ele>71.4</ele>
        <time>2021-04-28T13:53:02Z</time>
      </trkpt>
      <trkpt lat="49.86673" lon="2.30821">
        <ele>71.3</ele>
        <time>2021-04-28T13:53:03Z</time>
      </trkpt>
      <trkpt lat="49.86674" lon="2.30821">
        <ele>71.2</ele>
        <time>2021-04-28T13:53:04Z</time>
      </trkpt>
      <trkpt lat="49.86675" lon="2.30821">
        <ele>71.1</ele>
        <time>2021-04-28T13:53:05Z</time>
      </trkpt>
      <trkpt lat="49.86677" lon="2.30821">
        <ele>71</ele>
        <time>2021-04-28T13:53:06Z</time>
      </trkpt>
      <trkpt lat="49.86678" lon="2.30821">
        <ele>70.9</ele>
        <time>2021-04-28T13:53:08Z</time>
      </trkpt>
      <trkpt lat="49.86679" lon="2.30821">
        <ele>70.9</ele>
        <time>2021-04-28T13:53:09Z</time>
      </trkpt>
      <trkpt lat="49.8668" lon="2.30821">
        <ele>70.8</ele>
        <time>2021-04-28T13:53:10Z</time>
      </trkpt>
      <trkpt lat="49.86681" lon="2.30821">
        <ele>70.7</ele>
        <time>2021-04-28T13:53:12Z</time>
      </trkpt>
      <trkpt lat="49.86682" lon="2.30822">
        <ele>70.7</ele>
        <time>2021-04-28T13:53:13Z</time>
      </trkpt>
      <trkpt lat="49.86682" lon="2.30823">
        <ele>70.6</ele>
        <time>2021-04-28T13:53:14Z</time>
      </trkpt>
      <trkpt lat="49.86683" lon="2.30823">
        <ele>70.6</ele>
        <time>2021-04-28T13:53:15Z</time>
      </trkpt>
      <trkpt lat="49.86684" lon="2.30822">
        <ele>70.5</ele>
        <time>2021-04-28T13:53:16Z</time>
      </trkpt>
      <trkpt lat="49.86685" lon="2.30821">
        <ele>70.4</ele>
        <time>2021-04-28T13:53:17Z</time>
      </trkpt>
      <trkpt lat="49.86685" lon="2.30821">
        <ele>70.4</ele>
        <time>2021-04-28T13:53:18Z</time>
      </trkpt>
      <trkpt lat="49.86686" lon="2.3082">
        <ele>70.3</ele>
        <time>2021-04-28T13:53:19Z</time>
      </trkpt>
      <trkpt lat="49.86687" lon="2.3082">
        <ele>70.3</ele>
        <time>2021-04-28T13:53:21Z</time>
      </trkpt>
      <trkpt lat="49.86688" lon="2.30819">
        <ele>70.2</ele>
        <time>2021-04-28T13:53:22Z</time>
      </trkpt>
      <trkpt lat="49.86689" lon="2.30818">
        <ele>70.2</ele>
        <time>2021-04-28T13:53:23Z</time>
      </trkpt>
      <trkpt lat="49.86689" lon="2.30818">
        <ele>70.1</ele>
        <time>2021-04-28T13:53:24Z</time>
      </trkpt>
      <trkpt lat="49.8669" lon="2.30817">
        <ele>70.1</ele>
        <time>2021-04-28T13:53:25Z</time>
      </trkpt>
      <trkpt lat="49.86691" lon="2.30817">
        <ele>70</ele>
        <time>2021-04-28T13:53:26Z</time>
      </trkpt>
      <trkpt lat="49.86692" lon="2.30817">
        <ele>70</ele>
        <time>2021-04-28T13:53:27Z</time>
      </trkpt>
      <trkpt lat="49.86693" lon="2.30817">
        <ele>69.9</ele>
        <time>2021-04-28T13:53:29Z</time>
      </trkpt>
      <trkpt lat="49.86694" lon="2.30817">
        <ele>69.9</ele>
        <time>2021-04-28T13:53:30Z</time>
      </trkpt>
      <trkpt lat="49.86696" lon="2.30817">
        <ele>69.8</ele>
        <time>2021-04-28T13:53:31Z</time>
      </trkpt>
      <trkpt lat="49.86697" lon="2.30817">
        <ele>69.7</ele>
        <time>2021-04-28T13:53:33Z</time>
      </trkpt>
      <trkpt lat="49.86698" lon="2.30818">
        <ele>69.7</ele>
        <time>2021-04-28T13:53:34Z</time>
      </trkpt>
      <trkpt lat="49.86698" lon="2.30818">
        <ele>69.6</ele>
        <time>2021-04-28T13:53:35Z</time>
      </trkpt>
      <trkpt lat="49.86699" lon="2.30818">
        <ele>69.6</ele>
        <time>2021-04-28T13:53:36Z</time>
      </trkpt>
      <trkpt lat="49.867" lon="2.30818">
        <ele>69.5</ele>
        <time>2021-04-28T13:53:37Z</time>
      </trkpt>
      <trkpt lat="49.86701" lon="2.30818">
        <ele>69.5</ele>
        <time>2021-04-28T13:53:38Z</time>
      </trkpt>
      <trkpt lat="49.86702" lon="2.30817">
        <ele>69.4</ele>
        <time>2021-04-28T13:53:40Z</time>
      </trkpt>
      <trkpt lat="49.86703" lon="2.30816">
        <ele>69.4</ele>
        <time>2021-04-28T13:53:41Z</time>
      </trkpt>
      <trkpt lat="49.86704" lon="2.30815">
        <ele>69.3</ele>
        <time>2021-04-28T13:53:42Z</time>
      </trkpt>
      <trkpt lat="49.86705" lon="2.30814">
        <ele>69.2</ele>
        <time>2021-04-28T13:53:43Z</time>
      </trkpt>
      <trkpt lat="49.86706" lon="2.30814">
        <ele>69.2</ele>
        <time>2021-04-28T13:53:44Z</time>
      </trkpt>
      <trkpt lat="49.86707" lon="2.30813">
        <ele>69.1</ele>
        <time>2021-04-28T13:53:45Z</time>
      </trkpt>
      <trkpt lat="49.86708" lon="2.30812">
        <ele>69.1</ele>
        <time>2021-04-28T13:53:46Z</time>
      </trkpt>
      <trkpt lat="49.86709" lon="2.30812">
        <ele>69</ele>
        <time>2021-04-28T13:53:48Z</time>
      </trkpt>
      <trkpt lat="49.8671" lon="2.30811">
        <ele>68.9</ele>
        <time>2021-04-28T13:53:49Z</time>
      </trkpt>
      <trkpt lat="49.86711" lon="2.30811">
        <ele>68.9</ele>
        <time>2021-04-28T13:53:50Z</time>
      </trkpt>
      <trkpt lat="49.86712" lon="2.3081">
        <ele>68.8</ele>
        <time>2021-04-28T13:53:51Z</time>
      </trkpt>
      <trkpt lat="49.86714" lon="2.30809">
        <ele>68.7</ele>
        <time>2021-04-28T13:53:52Z</time>
      </trkpt>
      <trkpt lat="49.86715" lon="2.30808">
        <ele>68.6</ele>
        <time>2021-04-28T13:53:53Z</time>
      </trkpt>
      <trkpt lat="49.86715" lon="2.30808">
        <ele>68.6</ele>
        <time>2021-04-28T13:53:54Z</time>
      </trkpt>
      <trkpt lat="49.86716" lon="2.30807">
        <ele>68.5</ele>
        <time>2021-04-28T13:53:55Z</time>
      </trkpt>
      <trkpt lat="49.86718" lon="2.30807">
        <ele>68.5</ele>
        <time>2021-04-28T13:53:56Z</time>
      </trkpt>
      <trkpt lat="49.86719" lon="2.30806">
        <ele>68.4</ele>
        <time>2021-04-28T13:53:58Z</time>
      </trkpt>
      <trkpt lat="49.8672" lon="2.30805">
        <ele>68.4</ele>
        <time>2021-04-28T13:53:59Z</time>
      </trkpt>
      <trkpt lat="49.86721" lon="2.30804">
        <ele>68.3</ele>
        <time>2021-04-28T13:54:00Z</time>
      </trkpt>
      <trkpt lat="49.86722" lon="2.30804">
        <ele>68.2</ele>
        <time>2021-04-28T13:54:01Z</time>
      </trkpt>
      <trkpt lat="49.86724" lon="2.30802">
        <ele>68.1</ele>
        <time>2021-04-28T13:54:02Z</time>
      </trkpt>
      <trkpt lat="49.86724" lon="2.30802">
        <ele>68.1</ele>
        <time>2021-04-28T13:54:03Z</time>
      </trkpt>
      <trkpt lat="49.86725" lon="2.30801">
        <ele>68</ele>
        <time>2021-04-28T13:54:04Z</time>
      </trkpt>
      <trkpt lat="49.86726" lon="2.308">
        <ele>68</ele>
        <time>2021-04-28T13:54:05Z</time>
      </trkpt>
      <trkpt lat="49.86727" lon="2.308">
        <ele>67.9</ele>
        <time>2021-04-28T13:54:06Z</time>
      </trkpt>
      <trkpt lat="49.86729" lon="2.30799">
        <ele>67.8</ele>
        <time>2021-04-28T13:54:08Z</time>
      </trkpt>
      <trkpt lat="49.8673" lon="2.30798">
        <ele>67.8</ele>
        <time>2021-04-28T13:54:09Z</time>
      </trkpt>
      <trkpt lat="49.86732" lon="2.30798">
        <ele>67.7</ele>
        <time>2021-04-28T13:54:10Z</time>
      </trkpt>
      <trkpt lat="49.86733" lon="2.30797">
        <ele>67.6</ele>
        <time>2021-04-28T13:54:11Z</time>
      </trkpt>
      <trkpt lat="49.86734" lon="2.30797">
        <ele>67.6</ele>
        <time>2021-04-28T13:54:12Z</time>
      </trkpt>
      <trkpt lat="49.86735" lon="2.30796">
        <ele>67.5</ele>
        <time>2021-04-28T13:54:13Z</time>
      </trkpt>
      <trkpt lat="49.86736" lon="2.30796">
        <ele>67.5</ele>
        <time>2021-04-28T13:54:14Z</time>
      </trkpt>
      <trkpt lat="49.86737" lon="2.30795">
        <ele>67.4</ele>
        <time>2021-04-28T13:54:15Z</time>
      </trkpt>
      <trkpt lat="49.86738" lon="2.30795">
        <ele>67.4</ele>
        <time>2021-04-28T13:54:17Z</time>
      </trkpt>
      <trkpt lat="49.8674" lon="2.30795">
        <ele>67.3</ele>
        <time>2021-04-28T13:54:18Z</time>
      </trkpt>
      <trkpt lat="49.86741" lon="2.30794">
        <ele>67.3</ele>
        <time>2021-04-28T13:54:19Z</time>
      </trkpt>
      <trkpt lat="49.86742" lon="2.30793">
        <ele>67.2</ele>
        <time>2021-04-28T13:54:20Z</time>
      </trkpt>
      <trkpt lat="49.86744" lon="2.30793">
        <ele>67.2</ele>
        <time>2021-04-28T13:54:21Z</time>
      </trkpt>
      <trkpt lat="49.86745" lon="2.30792">
        <ele>67.2</ele>
        <time>2021-04-28T13:54:22Z</time>
      </trkpt>
      <trkpt lat="49.86746" lon="2.30791">
        <ele>67.1</ele>
        <time>2021-04-28T13:54:24Z</time>
      </trkpt>
      <trkpt lat="49.86747" lon="2.30791">
        <ele>67.1</ele>
        <time>2021-04-28T13:54:25Z</time>
      </trkpt>
      <trkpt lat="49.86747" lon="2.3079">
        <ele>67.1</ele>
        <time>2021-04-28T13:54:26Z</time>
      </trkpt>
      <trkpt lat="49.86747" lon="2.30787">
        <ele>67</ele>
        <time>2021-04-28T13:54:28Z</time>
      </trkpt>
      <trkpt lat="49.86748" lon="2.30785">
        <ele>67</ele>
        <time>2021-04-28T13:54:30Z</time>
      </trkpt>
      <trkpt lat="49.86747" lon="2.30783">
        <ele>66.9</ele>
        <time>2021-04-28T13:54:32Z</time>
      </trkpt>
      <trkpt lat="49.86746" lon="2.30784">
        <ele>66.9</ele>
        <time>2021-04-28T13:54:33Z</time>
      </trkpt>
      <trkpt lat="49.86746" lon="2.30784">
        <ele>66.9</ele>
        <time>2021-04-28T13:54:34Z</time>
      </trkpt>
      <trkpt lat="49.86746" lon="2.30784">
        <ele>66.9</ele>
        <time>2021-04-28T13:54:35Z</time>
      </trkpt>
      <trkpt lat="49.86745" lon="2.30784">
        <ele>66.9</ele>
        <time>2021-04-28T13:54:36Z</time>
      </trkpt>
      <trkpt lat="49.86745" lon="2.30785">
        <ele>66.9</ele>
        <time>2021-04-28T13:54:38Z</time>
      </trkpt>
      <trkpt lat="49.86745" lon="2.30785">
        <ele>66.9</ele>
        <time>2021-04-28T13:54:39Z</time>
      </trkpt>
      <trkpt lat="49.86745" lon="2.30785">
        <ele>66.9</ele>
        <time>2021-04-28T13:54:40Z</time>
      </trkpt>
      <trkpt lat="49.86745" lon="2.30785">
        <ele>66.9</ele>
        <time>2021-04-28T13:54:42Z</time>
      </trkpt>
      <trkpt lat="49.86745" lon="2.30785">
        <ele>66.8</ele>
        <time>2021-04-28T13:54:44Z</time>
      </trkpt>
      <trkpt lat="49.86746" lon="2.30785">
        <ele>66.8</ele>
        <time>2021-04-28T13:54:45Z</time>
      </trkpt>
      <trkpt lat="49.86747" lon="2.30786">
        <ele>66.8</ele>
        <time>2021-04-28T13:54:47Z</time>
      </trkpt>
      <trkpt lat="49.86748" lon="2.30786">
        <ele>66.8</ele>
        <time>2021-04-28T13:54:48Z</time>
      </trkpt>
      <trkpt lat="49.86749" lon="2.30787">
        <ele>66.7</ele>
        <time>2021-04-28T13:54:50Z</time>
      </trkpt>
      <trkpt lat="49.86751" lon="2.30788">
        <ele>66.7</ele>
        <time>2021-04-28T13:54:51Z</time>
      </trkpt>
      <trkpt lat="49.86753" lon="2.30789">
        <ele>66.6</ele>
        <time>2021-04-28T13:54:52Z</time>
      </trkpt>
      <trkpt lat="49.86754" lon="2.30789">
        <ele>66.6</ele>
        <time>2021-04-28T13:54:53Z</time>
      </trkpt>
      <trkpt lat="49.86755" lon="2.30789">
        <ele>66.6</ele>
        <time>2021-04-28T13:54:54Z</time>
      </trkpt>
      <trkpt lat="49.86756" lon="2.3079">
        <ele>66.5</ele>
        <time>2021-04-28T13:54:55Z</time>
      </trkpt>
      <trkpt lat="49.86757" lon="2.3079">
        <ele>66.5</ele>
        <time>2021-04-28T13:54:56Z</time>
      </trkpt>
      <trkpt lat="49.86759" lon="2.3079">
        <ele>66.5</ele>
        <time>2021-04-28T13:54:58Z</time>
      </trkpt>
      <trkpt lat="49.8676" lon="2.30791">
        <ele>66.4</ele>
        <time>2021-04-28T13:54:59Z</time>
      </trkpt>
      <trkpt lat="49.86761" lon="2.30791">
        <ele>66.4</ele>
        <time>2021-04-28T13:55:00Z</time>
      </trkpt>
      <trkpt lat="49.86762" lon="2.30792">
        <ele>66.4</ele>
        <time>2021-04-28T13:55:01Z</time>
      </trkpt>
      <trkpt lat="49.86763" lon="2.30792">
        <ele>66.3</ele>
        <time>2021-04-28T13:55:02Z</time>
      </trkpt>
      <trkpt lat="49.86764" lon="2.30792">
        <ele>66.3</ele>
        <time>2021-04-28T13:55:04Z</time>
      </trkpt>
      <trkpt lat="49.86765" lon="2.30792">
        <ele>66.3</ele>
        <time>2021-04-28T13:55:05Z</time>
      </trkpt>
      <trkpt lat="49.86767" lon="2.30792">
        <ele>66.2</ele>
        <time>2021-04-28T13:55:06Z</time>
      </trkpt>
      <trkpt lat="49.86768" lon="2.30792">
        <ele>66.2</ele>
        <time>2021-04-28T13:55:07Z</time>
      </trkpt>
      <trkpt lat="49.86769" lon="2.30792">
        <ele>66.2</ele>
        <time>2021-04-28T13:55:08Z</time>
      </trkpt>
      <trkpt lat="49.8677" lon="2.30792">
        <ele>66.2</ele>
        <time>2021-04-28T13:55:09Z</time>
      </trkpt>
      <trkpt lat="49.86771" lon="2.30792">
        <ele>66.1</ele>
        <time>2021-04-28T13:55:10Z</time>
      </trkpt>
      <trkpt lat="49.86772" lon="2.30792">
        <ele>66.1</ele>
        <time>2021-04-28T13:55:12Z</time>
      </trkpt>
      <trkpt lat="49.86773" lon="2.30792">
        <ele>66.1</ele>
        <time>2021-04-28T13:55:13Z</time>
      </trkpt>
      <trkpt lat="49.86775" lon="2.30792">
        <ele>66.1</ele>
        <time>2021-04-28T13:55:14Z</time>
      </trkpt>
      <trkpt lat="49.86776" lon="2.30791">
        <ele>65.9</ele>
        <time>2021-04-28T13:55:16Z</time>
      </trkpt>
      <trkpt lat="49.86776" lon="2.30788">
        <ele>65.8</ele>
        <time>2021-04-28T13:55:17Z</time>
      </trkpt>
      <trkpt lat="49.86776" lon="2.30786">
        <ele>65.9</ele>
        <time>2021-04-28T13:55:19Z</time>
      </trkpt>
      <trkpt lat="49.86777" lon="2.30784">
        <ele>65.8</ele>
        <time>2021-04-28T13:55:20Z</time>
      </trkpt>
      <trkpt lat="49.86776" lon="2.30783">
        <ele>65.8</ele>
        <time>2021-04-28T13:55:21Z</time>
      </trkpt>
      <trkpt lat="49.86776" lon="2.30782">
        <ele>65.8</ele>
        <time>2021-04-28T13:55:22Z</time>
      </trkpt>
      <trkpt lat="49.86777" lon="2.3078">
        <ele>65.8</ele>
        <time>2021-04-28T13:55:24Z</time>
      </trkpt>
      <trkpt lat="49.86777" lon="2.30779">
        <ele>65.8</ele>
        <time>2021-04-28T13:55:25Z</time>
      </trkpt>
      <trkpt lat="49.86777" lon="2.30778">
        <ele>65.8</ele>
        <time>2021-04-28T13:55:26Z</time>
      </trkpt>
      <trkpt lat="49.86778" lon="2.30777">
        <ele>65.8</ele>
        <time>2021-04-28T13:55:28Z</time>
      </trkpt>
      <trkpt lat="49.86778" lon="2.30776">
        <ele>65.8</ele>
        <time>2021-04-28T13:55:29Z</time>
      </trkpt>
      <trkpt lat="49.86778" lon="2.30776">
        <ele>65.8</ele>
        <time>2021-04-28T13:55:30Z</time>
      </trkpt>
      <trkpt lat="49.86778" lon="2.30775">
        <ele>65.8</ele>
        <time>2021-04-28T13:55:31Z</time>
      </trkpt>
      <trkpt lat="49.86777" lon="2.30774">
        <ele>65.8</ele>
        <time>2021-04-28T13:55:33Z</time>
      </trkpt>
      <trkpt lat="49.86777" lon="2.30773">
        <ele>65.9</ele>
        <time>2021-04-28T13:55:34Z</time>
      </trkpt>
      <trkpt lat="49.86777" lon="2.30774">
        <ele>65.9</ele>
        <time>2021-04-28T13:55:35Z</time>
      </trkpt>
      <trkpt lat="49.86777" lon="2.30773">
        <ele>65.9</ele>
        <time>2021-04-28T13:55:36Z</time>
      </trkpt>
      <trkpt lat="49.86777" lon="2.30772">
        <ele>65.9</ele>
        <time>2021-04-28T13:55:38Z</time>
      </trkpt>
      <trkpt lat="49.86776" lon="2.30771">
        <ele>65.9</ele>
        <time>2021-04-28T13:55:39Z</time>
      </trkpt>
      <trkpt lat="49.86774" lon="2.30775">
        <ele>66.1</ele>
        <time>2021-04-28T13:55:40Z</time>
      </trkpt>
      <trkpt lat="49.86774" lon="2.30773">
        <ele>66.1</ele>
        <time>2021-04-28T13:55:41Z</time>
      </trkpt>
      <trkpt lat="49.86773" lon="2.30772">
        <ele>66.1</ele>
        <time>2021-04-28T13:55:42Z</time>
      </trkpt>
      <trkpt lat="49.86773" lon="2.30771">
        <ele>66.1</ele>
        <time>2021-04-28T13:55:44Z</time>
      </trkpt>
      <trkpt lat="49.86772" lon="2.30771">
        <ele>66.3</ele>
        <time>2021-04-28T13:55:45Z</time>
      </trkpt>
      <trkpt lat="49.86771" lon="2.30769">
        <ele>66.3</ele>
        <time>2021-04-28T13:55:47Z</time>
      </trkpt>
      <trkpt lat="49.8677" lon="2.30767">
        <ele>66.5</ele>
        <time>2021-04-28T13:55:48Z</time>
      </trkpt>
      <trkpt lat="49.86769" lon="2.30766">
        <ele>66.5</ele>
        <time>2021-04-28T13:55:49Z</time>
      </trkpt>
      <trkpt lat="49.86768" lon="2.30765">
        <ele>66.5</ele>
        <time>2021-04-28T13:55:50Z</time>
      </trkpt>
      <trkpt lat="49.86768" lon="2.30765">
        <ele>66.5</ele>
        <time>2021-04-28T13:55:51Z</time>
      </trkpt>
      <trkpt lat="49.86767" lon="2.30765">
        <ele>66.7</ele>
        <time>2021-04-28T13:55:53Z</time>
      </trkpt>
      <trkpt lat="49.86767" lon="2.30764">
        <ele>66.7</ele>
        <time>2021-04-28T13:55:54Z</time>
      </trkpt>
      <trkpt lat="49.86767" lon="2.30765">
        <ele>66.7</ele>
        <time>2021-04-28T13:55:55Z</time>
      </trkpt>
      <trkpt lat="49.86766" lon="2.30763">
        <ele>66.7</ele>
        <time>2021-04-28T13:55:56Z</time>
      </trkpt>
      <trkpt lat="49.86764" lon="2.3076">
        <ele>66.9</ele>
        <time>2021-04-28T13:55:57Z</time>
      </trkpt>
      <trkpt lat="49.86764" lon="2.30759">
        <ele>66.9</ele>
        <time>2021-04-28T13:55:58Z</time>
      </trkpt>
      <trkpt lat="49.86763" lon="2.30757">
        <ele>66.9</ele>
        <time>2021-04-28T13:56:00Z</time>
      </trkpt>
      <trkpt lat="49.86763" lon="2.30756">
        <ele>66.9</ele>
        <time>2021-04-28T13:56:01Z</time>
      </trkpt>
      <trkpt lat="49.86762" lon="2.30755">
        <ele>67</ele>
        <time>2021-04-28T13:56:02Z</time>
      </trkpt>
      <trkpt lat="49.86762" lon="2.30753">
        <ele>67.1</ele>
        <time>2021-04-28T13:56:03Z</time>
      </trkpt>
      <trkpt lat="49.86761" lon="2.30752">
        <ele>67.2</ele>
        <time>2021-04-28T13:56:04Z</time>
      </trkpt>
      <trkpt lat="49.8676" lon="2.3075">
        <ele>67.2</ele>
        <time>2021-04-28T13:56:05Z</time>
      </trkpt>
      <trkpt lat="49.8676" lon="2.30749">
        <ele>67.2</ele>
        <time>2021-04-28T13:56:07Z</time>
      </trkpt>
      <trkpt lat="49.86759" lon="2.30748">
        <ele>67.2</ele>
        <time>2021-04-28T13:56:08Z</time>
      </trkpt>
      <trkpt lat="49.86759" lon="2.30746">
        <ele>67.4</ele>
        <time>2021-04-28T13:56:09Z</time>
      </trkpt>
      <trkpt lat="49.86759" lon="2.30745">
        <ele>67.4</ele>
        <time>2021-04-28T13:56:10Z</time>
      </trkpt>
      <trkpt lat="49.86758" lon="2.30744">
        <ele>67.4</ele>
        <time>2021-04-28T13:56:11Z</time>
      </trkpt>
      <trkpt lat="49.86757" lon="2.30742">
        <ele>67.5</ele>
        <time>2021-04-28T13:56:13Z</time>
      </trkpt>
      <trkpt lat="49.86756" lon="2.30741">
        <ele>67.5</ele>
        <time>2021-04-28T13:56:14Z</time>
      </trkpt>
      <trkpt lat="49.86755" lon="2.30739">
        <ele>67.6</ele>
        <time>2021-04-28T13:56:15Z</time>
      </trkpt>
      <trkpt lat="49.86754" lon="2.30738">
        <ele>67.7</ele>
        <time>2021-04-28T13:56:16Z</time>
      </trkpt>
      <trkpt lat="49.86753" lon="2.30735">
        <ele>67.8</ele>
        <time>2021-04-28T13:56:17Z</time>
      </trkpt>
      <trkpt lat="49.86753" lon="2.30734">
        <ele>67.9</ele>
        <time>2021-04-28T13:56:19Z</time>
      </trkpt>
      <trkpt lat="49.86752" lon="2.30732">
        <ele>67.9</ele>
        <time>2021-04-28T13:56:20Z</time>
      </trkpt>
      <trkpt lat="49.86752" lon="2.3073">
        <ele>67.9</ele>
        <time>2021-04-28T13:56:21Z</time>
      </trkpt>
      <trkpt lat="49.86751" lon="2.30728">
        <ele>68</ele>
        <time>2021-04-28T13:56:22Z</time>
      </trkpt>
      <trkpt lat="49.8675" lon="2.30725">
        <ele>68.2</ele>
        <time>2021-04-28T13:56:23Z</time>
      </trkpt>
      <trkpt lat="49.86749" lon="2.30724">
        <ele>68.2</ele>
        <time>2021-04-28T13:56:25Z</time>
      </trkpt>
      <trkpt lat="49.86749" lon="2.30722">
        <ele>68.2</ele>
        <time>2021-04-28T13:56:26Z</time>
      </trkpt>
      <trkpt lat="49.86748" lon="2.30721">
        <ele>68.2</ele>
        <time>2021-04-28T13:56:27Z</time>
      </trkpt>
      <trkpt lat="49.86748" lon="2.3072">
        <ele>68.4</ele>
        <time>2021-04-28T13:56:28Z</time>
      </trkpt>
      <trkpt lat="49.86747" lon="2.30716">
        <ele>68.4</ele>
        <time>2021-04-28T13:56:30Z</time>
      </trkpt>
      <trkpt lat="49.86746" lon="2.30715">
        <ele>68.4</ele>
        <time>2021-04-28T13:56:31Z</time>
      </trkpt>
      <trkpt lat="49.86746" lon="2.30713">
        <ele>68.4</ele>
        <time>2021-04-28T13:56:33Z</time>
      </trkpt>
      <trkpt lat="49.86747" lon="2.30712">
        <ele>68.5</ele>
        <time>2021-04-28T13:56:35Z</time>
      </trkpt>
      <trkpt lat="49.86747" lon="2.30711">
        <ele>68.5</ele>
        <time>2021-04-28T13:56:36Z</time>
      </trkpt>
      <trkpt lat="49.86746" lon="2.3071">
        <ele>68.5</ele>
        <time>2021-04-28T13:56:37Z</time>
      </trkpt>
      <trkpt lat="49.86745" lon="2.30709">
        <ele>68.5</ele>
        <time>2021-04-28T13:56:39Z</time>
      </trkpt>
      <trkpt lat="49.86744" lon="2.30708">
        <ele>68.6</ele>
        <time>2021-04-28T13:56:40Z</time>
      </trkpt>
      <trkpt lat="49.86744" lon="2.30707">
        <ele>68.6</ele>
        <time>2021-04-28T13:56:42Z</time>
      </trkpt>
      <trkpt lat="49.86743" lon="2.30706">
        <ele>68.6</ele>
        <time>2021-04-28T13:56:43Z</time>
      </trkpt>
      <trkpt lat="49.86742" lon="2.30705">
        <ele>68.7</ele>
        <time>2021-04-28T13:56:45Z</time>
      </trkpt>
      <trkpt lat="49.86741" lon="2.30704">
        <ele>68.7</ele>
        <time>2021-04-28T13:56:46Z</time>
      </trkpt>
      <trkpt lat="49.8674" lon="2.30703">
        <ele>68.8</ele>
        <time>2021-04-28T13:56:47Z</time>
      </trkpt>
      <trkpt lat="49.8674" lon="2.30702">
        <ele>68.9</ele>
        <time>2021-04-28T13:56:48Z</time>
      </trkpt>
      <trkpt lat="49.86739" lon="2.30701">
        <ele>68.9</ele>
        <time>2021-04-28T13:56:50Z</time>
      </trkpt>
      <trkpt lat="49.86739" lon="2.307">
        <ele>68.9</ele>
        <time>2021-04-28T13:56:51Z</time>
      </trkpt>
      <trkpt lat="49.86738" lon="2.30698">
        <ele>68.9</ele>
        <time>2021-04-28T13:56:52Z</time>
      </trkpt>
      <trkpt lat="49.86738" lon="2.30697">
        <ele>68.9</ele>
        <time>2021-04-28T13:56:53Z</time>
      </trkpt>
      <trkpt lat="49.86737" lon="2.30695">
        <ele>68.9</ele>
        <time>2021-04-28T13:56:54Z</time>
      </trkpt>
      <trkpt lat="49.86737" lon="2.30694">
        <ele>69</ele>
        <time>2021-04-28T13:56:56Z</time>
      </trkpt>
      <trkpt lat="49.86736" lon="2.30694">
        <ele>69</ele>
        <time>2021-04-28T13:56:57Z</time>
      </trkpt>
      <trkpt lat="49.86735" lon="2.30692">
        <ele>69</ele>
        <time>2021-04-28T13:56:59Z</time>
      </trkpt>
      <trkpt lat="49.86735" lon="2.3069">
        <ele>69</ele>
        <time>2021-04-28T13:57:00Z</time>
      </trkpt>
      <trkpt lat="49.86733" lon="2.30688">
        <ele>69.1</ele>
        <time>2021-04-28T13:57:02Z</time>
      </trkpt>
      <trkpt lat="49.86733" lon="2.30687">
        <ele>69.1</ele>
        <time>2021-04-28T13:57:03Z</time>
      </trkpt>
      <trkpt lat="49.86732" lon="2.30686">
        <ele>69.1</ele>
        <time>2021-04-28T13:57:04Z</time>
      </trkpt>
      <trkpt lat="49.86732" lon="2.30684">
        <ele>69.1</ele>
        <time>2021-04-28T13:57:05Z</time>
      </trkpt>
      <trkpt lat="49.86732" lon="2.30682">
        <ele>69.1</ele>
        <time>2021-04-28T13:57:06Z</time>
      </trkpt>
      <trkpt lat="49.86732" lon="2.3068">
        <ele>69.1</ele>
        <time>2021-04-28T13:57:07Z</time>
      </trkpt>
      <trkpt lat="49.86732" lon="2.30679">
        <ele>69.1</ele>
        <time>2021-04-28T13:57:08Z</time>
      </trkpt>
      <trkpt lat="49.86731" lon="2.30676">
        <ele>69.1</ele>
        <time>2021-04-28T13:57:10Z</time>
      </trkpt>
      <trkpt lat="49.86731" lon="2.30674">
        <ele>69.2</ele>
        <time>2021-04-28T13:57:11Z</time>
      </trkpt>
      <trkpt lat="49.86731" lon="2.30672">
        <ele>69.2</ele>
        <time>2021-04-28T13:57:12Z</time>
      </trkpt>
      <trkpt lat="49.8673" lon="2.30671">
        <ele>69.2</ele>
        <time>2021-04-28T13:57:14Z</time>
      </trkpt>
      <trkpt lat="49.8673" lon="2.30668">
        <ele>69.2</ele>
        <time>2021-04-28T13:57:15Z</time>
      </trkpt>
      <trkpt lat="49.8673" lon="2.30668">
        <ele>69.2</ele>
        <time>2021-04-28T13:57:16Z</time>
      </trkpt>
      <trkpt lat="49.8673" lon="2.30666">
        <ele>69.2</ele>
        <time>2021-04-28T13:57:17Z</time>
      </trkpt>
      <trkpt lat="49.86729" lon="2.30665">
        <ele>69.1</ele>
        <time>2021-04-28T13:57:18Z</time>
      </trkpt>
      <trkpt lat="49.86729" lon="2.30663">
        <ele>69.1</ele>
        <time>2021-04-28T13:57:20Z</time>
      </trkpt>
      <trkpt lat="49.86728" lon="2.30662">
        <ele>69.3</ele>
        <time>2021-04-28T13:57:21Z</time>
      </trkpt>
      <trkpt lat="49.86728" lon="2.30661">
        <ele>69.3</ele>
        <time>2021-04-28T13:57:23Z</time>
      </trkpt>
      <trkpt lat="49.86728" lon="2.3066">
        <ele>69.3</ele>
        <time>2021-04-28T13:57:24Z</time>
      </trkpt>
      <trkpt lat="49.86728" lon="2.30659">
        <ele>69.3</ele>
        <time>2021-04-28T13:57:25Z</time>
      </trkpt>
      <trkpt lat="49.86728" lon="2.30658">
        <ele>69.3</ele>
        <time>2021-04-28T13:57:26Z</time>
      </trkpt>
      <trkpt lat="49.86728" lon="2.30657">
        <ele>69.3</ele>
        <time>2021-04-28T13:57:28Z</time>
      </trkpt>
      <trkpt lat="49.86728" lon="2.30656">
        <ele>69.3</ele>
        <time>2021-04-28T13:57:29Z</time>
      </trkpt>
      <trkpt lat="49.86728" lon="2.30655">
        <ele>69.3</ele>
        <time>2021-04-28T13:57:30Z</time>
      </trkpt>
      <trkpt lat="49.86728" lon="2.30655">
        <ele>69.3</ele>
        <time>2021-04-28T13:57:31Z</time>
      </trkpt>
      <trkpt lat="49.86728" lon="2.30655">
        <ele>69.3</ele>
        <time>2021-04-28T13:57:33Z</time>
      </trkpt>
      <trkpt lat="49.86727" lon="2.30654">
        <ele>69.3</ele>
        <time>2021-04-28T13:57:34Z</time>
      </trkpt>
      <trkpt lat="49.86727" lon="2.30651">
        <ele>69.3</ele>
        <time>2021-04-28T13:57:36Z</time>
      </trkpt>
      <trkpt lat="49.86726" lon="2.3065">
        <ele>69.3</ele>
        <time>2021-04-28T13:57:37Z</time>
      </trkpt>
      <trkpt lat="49.86726" lon="2.30649">
        <ele>69.4</ele>
        <time>2021-04-28T13:57:38Z</time>
      </trkpt>
      <trkpt lat="49.86726" lon="2.30646">
        <ele>69.3</ele>
        <time>2021-04-28T13:57:40Z</time>
      </trkpt>
      <trkpt lat="49.86726" lon="2.30644">
        <ele>69.3</ele>
        <time>2021-04-28T13:57:41Z</time>
      </trkpt>
      <trkpt lat="49.86726" lon="2.3064">
        <ele>69.3</ele>
        <time>2021-04-28T13:57:42Z</time>
      </trkpt>
      <trkpt lat="49.86726" lon="2.30639">
        <ele>69.3</ele>
        <time>2021-04-28T13:57:44Z</time>
      </trkpt>
      <trkpt lat="49.86726" lon="2.30637">
        <ele>69.4</ele>
        <time>2021-04-28T13:57:45Z</time>
      </trkpt>
      <trkpt lat="49.86726" lon="2.30632">
        <ele>69.6</ele>
        <time>2021-04-28T13:57:47Z</time>
      </trkpt>
      <trkpt lat="49.86725" lon="2.30631">
        <ele>69.6</ele>
        <time>2021-04-28T13:57:49Z</time>
      </trkpt>
      <trkpt lat="49.86725" lon="2.30629">
        <ele>69.6</ele>
        <time>2021-04-28T13:57:50Z</time>
      </trkpt>
      <trkpt lat="49.86724" lon="2.30627">
        <ele>69.6</ele>
        <time>2021-04-28T13:57:52Z</time>
      </trkpt>
      <trkpt lat="49.86724" lon="2.30625">
        <ele>69.6</ele>
        <time>2021-04-28T13:57:53Z</time>
      </trkpt>
      <trkpt lat="49.86724" lon="2.30623">
        <ele>69.6</ele>
        <time>2021-04-28T13:57:54Z</time>
      </trkpt>
      <trkpt lat="49.86723" lon="2.30622">
        <ele>69.6</ele>
        <time>2021-04-28T13:57:55Z</time>
      </trkpt>
      <trkpt lat="49.86723" lon="2.3062">
        <ele>69.9</ele>
        <time>2021-04-28T13:57:57Z</time>
      </trkpt>
      <trkpt lat="49.86722" lon="2.30619">
        <ele>69.9</ele>
        <time>2021-04-28T13:57:58Z</time>
      </trkpt>
      <trkpt lat="49.86722" lon="2.30618">
        <ele>69.9</ele>
        <time>2021-04-28T13:57:59Z</time>
      </trkpt>
      <trkpt lat="49.86722" lon="2.30616">
        <ele>69.9</ele>
        <time>2021-04-28T13:58:00Z</time>
      </trkpt>
      <trkpt lat="49.86721" lon="2.30614">
        <ele>70</ele>
        <time>2021-04-28T13:58:02Z</time>
      </trkpt>
      <trkpt lat="49.86721" lon="2.30612">
        <ele>70</ele>
        <time>2021-04-28T13:58:03Z</time>
      </trkpt>
      <trkpt lat="49.8672" lon="2.3061">
        <ele>70</ele>
        <time>2021-04-28T13:58:05Z</time>
      </trkpt>
      <trkpt lat="49.8672" lon="2.30608">
        <ele>70</ele>
        <time>2021-04-28T13:58:06Z</time>
      </trkpt>
      <trkpt lat="49.8672" lon="2.30606">
        <ele>70</ele>
        <time>2021-04-28T13:58:07Z</time>
      </trkpt>
      <trkpt lat="49.8672" lon="2.30602">
        <ele>70.3</ele>
        <time>2021-04-28T13:58:09Z</time>
      </trkpt>
      <trkpt lat="49.8672" lon="2.30601">
        <ele>70.3</ele>
        <time>2021-04-28T13:58:10Z</time>
      </trkpt>
      <trkpt lat="49.86719" lon="2.30598">
        <ele>70.3</ele>
        <time>2021-04-28T13:58:11Z</time>
      </trkpt>
      <trkpt lat="49.86719" lon="2.30595">
        <ele>70.3</ele>
        <time>2021-04-28T13:58:13Z</time>
      </trkpt>
      <trkpt lat="49.86718" lon="2.30593">
        <ele>70.3</ele>
        <time>2021-04-28T13:58:14Z</time>
      </trkpt>
      <trkpt lat="49.86717" lon="2.30591">
        <ele>70.6</ele>
        <time>2021-04-28T13:58:15Z</time>
      </trkpt>
      <trkpt lat="49.86717" lon="2.30589">
        <ele>70.6</ele>
        <time>2021-04-28T13:58:16Z</time>
      </trkpt>
      <trkpt lat="49.86716" lon="2.30587">
        <ele>70.7</ele>
        <time>2021-04-28T13:58:18Z</time>
      </trkpt>
      <trkpt lat="49.86716" lon="2.30585">
        <ele>70.7</ele>
        <time>2021-04-28T13:58:19Z</time>
      </trkpt>
      <trkpt lat="49.86715" lon="2.30583">
        <ele>70.7</ele>
        <time>2021-04-28T13:58:21Z</time>
      </trkpt>
      <trkpt lat="49.86715" lon="2.30582">
        <ele>70.8</ele>
        <time>2021-04-28T13:58:22Z</time>
      </trkpt>
      <trkpt lat="49.86715" lon="2.30581">
        <ele>71</ele>
        <time>2021-04-28T13:58:23Z</time>
      </trkpt>
      <trkpt lat="49.86714" lon="2.30579">
        <ele>71.1</ele>
        <time>2021-04-28T13:58:24Z</time>
      </trkpt>
      <trkpt lat="49.86714" lon="2.30577">
        <ele>71.1</ele>
        <time>2021-04-28T13:58:26Z</time>
      </trkpt>
      <trkpt lat="49.86714" lon="2.30577">
        <ele>71.1</ele>
        <time>2021-04-28T13:58:27Z</time>
      </trkpt>
      <trkpt lat="49.86713" lon="2.30575">
        <ele>71.2</ele>
        <time>2021-04-28T13:58:28Z</time>
      </trkpt>
      <trkpt lat="49.86713" lon="2.30574">
        <ele>71.2</ele>
        <time>2021-04-28T13:58:29Z</time>
      </trkpt>
      <trkpt lat="49.86713" lon="2.30573">
        <ele>71.2</ele>
        <time>2021-04-28T13:58:31Z</time>
      </trkpt>
      <trkpt lat="49.86713" lon="2.30572">
        <ele>71.2</ele>
        <time>2021-04-28T13:58:32Z</time>
      </trkpt>
      <trkpt lat="49.86712" lon="2.30571">
        <ele>71.3</ele>
        <time>2021-04-28T13:58:33Z</time>
      </trkpt>
      <trkpt lat="49.86712" lon="2.3057">
        <ele>71.4</ele>
        <time>2021-04-28T13:58:34Z</time>
      </trkpt>
      <trkpt lat="49.86712" lon="2.30569">
        <ele>71.4</ele>
        <time>2021-04-28T13:58:36Z</time>
      </trkpt>
      <trkpt lat="49.86712" lon="2.30568">
        <ele>71.6</ele>
        <time>2021-04-28T13:58:37Z</time>
      </trkpt>
      <trkpt lat="49.86711" lon="2.30566">
        <ele>71.7</ele>
        <time>2021-04-28T13:58:38Z</time>
      </trkpt>
      <trkpt lat="49.86711" lon="2.30565">
        <ele>71.7</ele>
        <time>2021-04-28T13:58:39Z</time>
      </trkpt>
      <trkpt lat="49.86709" lon="2.30562">
        <ele>71.9</ele>
        <time>2021-04-28T13:58:41Z</time>
      </trkpt>
      <trkpt lat="49.86709" lon="2.30561">
        <ele>72.1</ele>
        <time>2021-04-28T13:58:42Z</time>
      </trkpt>
      <trkpt lat="49.86708" lon="2.30559">
        <ele>72.1</ele>
        <time>2021-04-28T13:58:43Z</time>
      </trkpt>
      <trkpt lat="49.86707" lon="2.30557">
        <ele>72.3</ele>
        <time>2021-04-28T13:58:44Z</time>
      </trkpt>
      <trkpt lat="49.86706" lon="2.30554">
        <ele>72.7</ele>
        <time>2021-04-28T13:58:46Z</time>
      </trkpt>
      <trkpt lat="49.86706" lon="2.30552">
        <ele>72.7</ele>
        <time>2021-04-28T13:58:48Z</time>
      </trkpt>
      <trkpt lat="49.86705" lon="2.3055">
        <ele>72.9</ele>
        <time>2021-04-28T13:58:49Z</time>
      </trkpt>
      <trkpt lat="49.86705" lon="2.30547">
        <ele>72.9</ele>
        <time>2021-04-28T13:58:51Z</time>
      </trkpt>
      <trkpt lat="49.86705" lon="2.30547">
        <ele>72.9</ele>
        <time>2021-04-28T13:58:52Z</time>
      </trkpt>
      <trkpt lat="49.86706" lon="2.30548">
        <ele>72.9</ele>
        <time>2021-04-28T13:58:53Z</time>
      </trkpt>
      <trkpt lat="49.86707" lon="2.30548">
        <ele>72.7</ele>
        <time>2021-04-28T13:58:54Z</time>
      </trkpt>
      <trkpt lat="49.86706" lon="2.30549">
        <ele>72.9</ele>
        <time>2021-04-28T13:58:56Z</time>
      </trkpt>
      <trkpt lat="49.86706" lon="2.30549">
        <ele>72.9</ele>
        <time>2021-04-28T13:58:58Z</time>
      </trkpt>
      <trkpt lat="49.86706" lon="2.30548">
        <ele>72.9</ele>
        <time>2021-04-28T13:59:00Z</time>
      </trkpt>
      <trkpt lat="49.86706" lon="2.30548">
        <ele>73</ele>
        <time>2021-04-28T13:59:01Z</time>
      </trkpt>
      <trkpt lat="49.86705" lon="2.30547">
        <ele>73</ele>
        <time>2021-04-28T13:59:03Z</time>
      </trkpt>
      <trkpt lat="49.86705" lon="2.30546">
        <ele>73</ele>
        <time>2021-04-28T13:59:04Z</time>
      </trkpt>
      <trkpt lat="49.86704" lon="2.30545">
        <ele>73.2</ele>
        <time>2021-04-28T13:59:05Z</time>
      </trkpt>
      <trkpt lat="49.86703" lon="2.30543">
        <ele>73.4</ele>
        <time>2021-04-28T13:59:07Z</time>
      </trkpt>
      <trkpt lat="49.86702" lon="2.30542">
        <ele>73.4</ele>
        <time>2021-04-28T13:59:08Z</time>
      </trkpt>
      <trkpt lat="49.867" lon="2.30539">
        <ele>73.8</ele>
        <time>2021-04-28T13:59:10Z</time>
      </trkpt>
      <trkpt lat="49.86699" lon="2.30537">
        <ele>74</ele>
        <time>2021-04-28T13:59:11Z</time>
      </trkpt>
      <trkpt lat="49.86699" lon="2.30535">
        <ele>74</ele>
        <time>2021-04-28T13:59:13Z</time>
      </trkpt>
      <trkpt lat="49.86698" lon="2.30534">
        <ele>74</ele>
        <time>2021-04-28T13:59:14Z</time>
      </trkpt>
      <trkpt lat="49.86698" lon="2.30532">
        <ele>74.4</ele>
        <time>2021-04-28T13:59:15Z</time>
      </trkpt>
      <trkpt lat="49.86698" lon="2.3053">
        <ele>74.3</ele>
        <time>2021-04-28T13:59:17Z</time>
      </trkpt>
      <trkpt lat="49.86698" lon="2.30529">
        <ele>74.3</ele>
        <time>2021-04-28T13:59:18Z</time>
      </trkpt>
      <trkpt lat="49.86698" lon="2.30529">
        <ele>74.3</ele>
        <time>2021-04-28T13:59:19Z</time>
      </trkpt>
      <trkpt lat="49.86698" lon="2.30529">
        <ele>74.3</ele>
        <time>2021-04-28T13:59:20Z</time>
      </trkpt>
      <trkpt lat="49.86698" lon="2.30529">
        <ele>74.3</ele>
        <time>2021-04-28T13:59:22Z</time>
      </trkpt>
      <trkpt lat="49.86698" lon="2.30529">
        <ele>74.3</ele>
        <time>2021-04-28T13:59:24Z</time>
      </trkpt>
      <trkpt lat="49.86698" lon="2.30529">
        <ele>74.3</ele>
        <time>2021-04-28T13:59:26Z</time>
      </trkpt>
      <trkpt lat="49.86698" lon="2.30529">
        <ele>74.3</ele>
        <time>2021-04-28T13:59:28Z</time>
      </trkpt>
      <trkpt lat="49.86698" lon="2.30529">
        <ele>74.3</ele>
        <time>2021-04-28T13:59:29Z</time>
      </trkpt>
      <trkpt lat="49.86698" lon="2.30529">
        <ele>74.3</ele>
        <time>2021-04-28T13:59:31Z</time>
      </trkpt>
      <trkpt lat="49.86698" lon="2.30528">
        <ele>74.7</ele>
        <time>2021-04-28T13:59:32Z</time>
      </trkpt>
      <trkpt lat="49.86697" lon="2.30528">
        <ele>74.7</ele>
        <time>2021-04-28T13:59:33Z</time>
      </trkpt>
      <trkpt lat="49.86696" lon="2.30527">
        <ele>74.7</ele>
        <time>2021-04-28T13:59:34Z</time>
      </trkpt>
      <trkpt lat="49.86696" lon="2.30526">
        <ele>74.7</ele>
        <time>2021-04-28T13:59:35Z</time>
      </trkpt>
      <trkpt lat="49.86695" lon="2.30525">
        <ele>74.9</ele>
        <time>2021-04-28T13:59:37Z</time>
      </trkpt>
      <trkpt lat="49.86694" lon="2.30524">
        <ele>74.9</ele>
        <time>2021-04-28T13:59:38Z</time>
      </trkpt>
      <trkpt lat="49.86693" lon="2.30523">
        <ele>75.1</ele>
        <time>2021-04-28T13:59:39Z</time>
      </trkpt>
      <trkpt lat="49.86693" lon="2.30522">
        <ele>75.2</ele>
        <time>2021-04-28T13:59:40Z</time>
      </trkpt>
      <trkpt lat="49.86692" lon="2.30519">
        <ele>75.5</ele>
        <time>2021-04-28T13:59:42Z</time>
      </trkpt>
      <trkpt lat="49.86692" lon="2.30518">
        <ele>75.5</ele>
        <time>2021-04-28T13:59:43Z</time>
      </trkpt>
      <trkpt lat="49.86691" lon="2.30515">
        <ele>75.7</ele>
        <time>2021-04-28T13:59:45Z</time>
      </trkpt>
      <trkpt lat="49.8669" lon="2.30513">
        <ele>75.7</ele>
        <time>2021-04-28T13:59:46Z</time>
      </trkpt>
      <trkpt lat="49.86689" lon="2.3051">
        <ele>76</ele>
        <time>2021-04-28T13:59:48Z</time>
      </trkpt>
      <trkpt lat="49.86688" lon="2.30508">
        <ele>76</ele>
        <time>2021-04-28T13:59:49Z</time>
      </trkpt>
      <trkpt lat="49.86687" lon="2.30506">
        <ele>76.3</ele>
        <time>2021-04-28T13:59:50Z</time>
      </trkpt>
      <trkpt lat="49.86686" lon="2.30502">
        <ele>76.4</ele>
        <time>2021-04-28T13:59:51Z</time>
      </trkpt>
      <trkpt lat="49.86685" lon="2.30501">
        <ele>76.4</ele>
        <time>2021-04-28T13:59:52Z</time>
      </trkpt>
      <trkpt lat="49.86685" lon="2.30498">
        <ele>76.4</ele>
        <time>2021-04-28T13:59:53Z</time>
      </trkpt>
      <trkpt lat="49.86684" lon="2.30496">
        <ele>76.7</ele>
        <time>2021-04-28T13:59:55Z</time>
      </trkpt>
      <trkpt lat="49.86684" lon="2.30494">
        <ele>76.7</ele>
        <time>2021-04-28T13:59:56Z</time>
      </trkpt>
      <trkpt lat="49.86683" lon="2.30491">
        <ele>76.7</ele>
        <time>2021-04-28T13:59:57Z</time>
      </trkpt>
      <trkpt lat="49.86683" lon="2.3049">
        <ele>76.8</ele>
        <time>2021-04-28T13:59:58Z</time>
      </trkpt>
      <trkpt lat="49.86682" lon="2.30488">
        <ele>76.8</ele>
        <time>2021-04-28T13:59:59Z</time>
      </trkpt>
      <trkpt lat="49.86682" lon="2.30486">
        <ele>76.8</ele>
        <time>2021-04-28T14:00:00Z</time>
      </trkpt>
      <trkpt lat="49.86681" lon="2.30483">
        <ele>77</ele>
        <time>2021-04-28T14:00:02Z</time>
      </trkpt>
      <trkpt lat="49.86681" lon="2.30482">
        <ele>77</ele>
        <time>2021-04-28T14:00:03Z</time>
      </trkpt>
      <trkpt lat="49.8668" lon="2.3048">
        <ele>77</ele>
        <time>2021-04-28T14:00:04Z</time>
      </trkpt>
      <trkpt lat="49.86679" lon="2.30478">
        <ele>77</ele>
        <time>2021-04-28T14:00:06Z</time>
      </trkpt>
      <trkpt lat="49.86679" lon="2.30475">
        <ele>77.1</ele>
        <time>2021-04-28T14:00:07Z</time>
      </trkpt>
      <trkpt lat="49.86679" lon="2.30474">
        <ele>77.2</ele>
        <time>2021-04-28T14:00:08Z</time>
      </trkpt>
      <trkpt lat="49.86679" lon="2.30473">
        <ele>77.2</ele>
        <time>2021-04-28T14:00:09Z</time>
      </trkpt>
      <trkpt lat="49.86679" lon="2.30471">
        <ele>77.1</ele>
        <time>2021-04-28T14:00:10Z</time>
      </trkpt>
      <trkpt lat="49.86679" lon="2.30469">
        <ele>77.1</ele>
        <time>2021-04-28T14:00:12Z</time>
      </trkpt>
      <trkpt lat="49.86679" lon="2.30468">
        <ele>77.1</ele>
        <time>2021-04-28T14:00:13Z</time>
      </trkpt>
      <trkpt lat="49.86679" lon="2.30467">
        <ele>77.1</ele>
        <time>2021-04-28T14:00:14Z</time>
      </trkpt>
      <trkpt lat="49.8668" lon="2.30465">
        <ele>77.1</ele>
        <time>2021-04-28T14:00:15Z</time>
      </trkpt>
      <trkpt lat="49.8668" lon="2.30463">
        <ele>77.1</ele>
        <time>2021-04-28T14:00:16Z</time>
      </trkpt>
      <trkpt lat="49.8668" lon="2.30461">
        <ele>77.2</ele>
        <time>2021-04-28T14:00:17Z</time>
      </trkpt>
      <trkpt lat="49.8668" lon="2.3046">
        <ele>77.2</ele>
        <time>2021-04-28T14:00:18Z</time>
      </trkpt>
      <trkpt lat="49.8668" lon="2.30458">
        <ele>77.2</ele>
        <time>2021-04-28T14:00:20Z</time>
      </trkpt>
      <trkpt lat="49.8668" lon="2.30456">
        <ele>77.2</ele>
        <time>2021-04-28T14:00:21Z</time>
      </trkpt>
      <trkpt lat="49.8668" lon="2.30454">
        <ele>77.2</ele>
        <time>2021-04-28T14:00:22Z</time>
      </trkpt>
      <trkpt lat="49.8668" lon="2.30451">
        <ele>77.2</ele>
        <time>2021-04-28T14:00:23Z</time>
      </trkpt>
      <trkpt lat="49.8668" lon="2.30449">
        <ele>77.2</ele>
        <time>2021-04-28T14:00:24Z</time>
      </trkpt>
      <trkpt lat="49.8668" lon="2.30448">
        <ele>77.3</ele>
        <time>2021-04-28T14:00:25Z</time>
      </trkpt>
      <trkpt lat="49.8668" lon="2.30446">
        <ele>77.3</ele>
        <time>2021-04-28T14:00:26Z</time>
      </trkpt>
      <trkpt lat="49.8668" lon="2.30443">
        <ele>77.3</ele>
        <time>2021-04-28T14:00:27Z</time>
      </trkpt>
      <trkpt lat="49.8668" lon="2.30442">
        <ele>77.4</ele>
        <time>2021-04-28T14:00:28Z</time>
      </trkpt>
      <trkpt lat="49.8668" lon="2.3044">
        <ele>77.4</ele>
        <time>2021-04-28T14:00:30Z</time>
      </trkpt>
      <trkpt lat="49.86681" lon="2.30438">
        <ele>77.4</ele>
        <time>2021-04-28T14:00:31Z</time>
      </trkpt>
      <trkpt lat="49.86682" lon="2.30436">
        <ele>77.3</ele>
        <time>2021-04-28T14:00:33Z</time>
      </trkpt>
      <trkpt lat="49.86683" lon="2.30436">
        <ele>77.3</ele>
        <time>2021-04-28T14:00:34Z</time>
      </trkpt>
      <trkpt lat="49.86684" lon="2.30436">
        <ele>77.3</ele>
        <time>2021-04-28T14:00:35Z</time>
      </trkpt>
      <trkpt lat="49.86684" lon="2.30436">
        <ele>77.3</ele>
        <time>2021-04-28T14:00:36Z</time>
      </trkpt>
      <trkpt lat="49.86684" lon="2.30437">
        <ele>77.2</ele>
        <time>2021-04-28T14:00:38Z</time>
      </trkpt>
      <trkpt lat="49.86684" lon="2.30437">
        <ele>77.2</ele>
        <time>2021-04-28T14:00:39Z</time>
      </trkpt>
      <trkpt lat="49.86684" lon="2.30437">
        <ele>77.2</ele>
        <time>2021-04-28T14:00:41Z</time>
      </trkpt>
      <trkpt lat="49.86684" lon="2.30437">
        <ele>77.4</ele>
        <time>2021-04-28T14:00:42Z</time>
      </trkpt>
      <trkpt lat="49.86684" lon="2.30437">
        <ele>77.4</ele>
        <time>2021-04-28T14:00:44Z</time>
      </trkpt>
      <trkpt lat="49.86684" lon="2.30437">
        <ele>77.4</ele>
        <time>2021-04-28T14:00:46Z</time>
      </trkpt>
      <trkpt lat="49.86684" lon="2.30438">
        <ele>77.3</ele>
        <time>2021-04-28T14:00:48Z</time>
      </trkpt>
      <trkpt lat="49.86684" lon="2.30438">
        <ele>77.3</ele>
        <time>2021-04-28T14:00:49Z</time>
      </trkpt>
      <trkpt lat="49.86684" lon="2.30438">
        <ele>77.2</ele>
        <time>2021-04-28T14:00:50Z</time>
      </trkpt>
      <trkpt lat="49.86684" lon="2.30438">
        <ele>77.2</ele>
        <time>2021-04-28T14:00:52Z</time>
      </trkpt>
      <trkpt lat="49.86684" lon="2.30438">
        <ele>77.4</ele>
        <time>2021-04-28T14:00:53Z</time>
      </trkpt>
      <trkpt lat="49.86684" lon="2.30438">
        <ele>77.4</ele>
        <time>2021-04-28T14:00:55Z</time>
      </trkpt>
      <trkpt lat="49.86684" lon="2.30438">
        <ele>77.4</ele>
        <time>2021-04-28T14:00:56Z</time>
      </trkpt>
      <trkpt lat="49.86684" lon="2.30438">
        <ele>77.4</ele>
        <time>2021-04-28T14:00:58Z</time>
      </trkpt>
      <trkpt lat="49.86684" lon="2.30438">
        <ele>77.4</ele>
        <time>2021-04-28T14:01:00Z</time>
      </trkpt>
      <trkpt lat="49.86685" lon="2.30439">
        <ele>77.3</ele>
        <time>2021-04-28T14:01:02Z</time>
      </trkpt>
      <trkpt lat="49.86685" lon="2.3044">
        <ele>77.3</ele>
        <time>2021-04-28T14:01:03Z</time>
      </trkpt>
      <trkpt lat="49.86685" lon="2.3044">
        <ele>77.3</ele>
        <time>2021-04-28T14:01:05Z</time>
      </trkpt>
      <trkpt lat="49.86685" lon="2.3044">
        <ele>77.3</ele>
        <time>2021-04-28T14:01:06Z</time>
      </trkpt>
      <trkpt lat="49.86685" lon="2.3044">
        <ele>77.3</ele>
        <time>2021-04-28T14:01:07Z</time>
      </trkpt>
      <trkpt lat="49.86685" lon="2.3044">
        <ele>77.3</ele>
        <time>2021-04-28T14:01:09Z</time>
      </trkpt>
      <trkpt lat="49.86685" lon="2.3044">
        <ele>77.3</ele>
        <time>2021-04-28T14:01:10Z</time>
      </trkpt>
      <trkpt lat="49.86685" lon="2.3044">
        <ele>77.3</ele>
        <time>2021-04-28T14:01:12Z</time>
      </trkpt>
      <trkpt lat="49.86685" lon="2.3044">
        <ele>77.3</ele>
        <time>2021-04-28T14:01:14Z</time>
      </trkpt>
      <trkpt lat="49.86685" lon="2.3044">
        <ele>77.3</ele>
        <time>2021-04-28T14:01:15Z</time>
      </trkpt>
      <trkpt lat="49.86685" lon="2.3044">
        <ele>77.4</ele>
        <time>2021-04-28T14:01:17Z</time>
      </trkpt>
      <trkpt lat="49.86685" lon="2.3044">
        <ele>77.4</ele>
        <time>2021-04-28T14:01:19Z</time>
      </trkpt>
      <trkpt lat="49.86685" lon="2.3044">
        <ele>77.4</ele>
        <time>2021-04-28T14:01:20Z</time>
      </trkpt>
      <trkpt lat="49.86685" lon="2.3044">
        <ele>77.4</ele>
        <time>2021-04-28T14:01:22Z</time>
      </trkpt>
      <trkpt lat="49.86685" lon="2.3044">
        <ele>77.4</ele>
        <time>2021-04-28T14:01:23Z</time>
      </trkpt>
      <trkpt lat="49.86685" lon="2.3044">
        <ele>77.4</ele>
        <time>2021-04-28T14:01:24Z</time>
      </trkpt>
      <trkpt lat="49.86685" lon="2.3044">
        <ele>77.4</ele>
        <time>2021-04-28T14:01:26Z</time>
      </trkpt>
      <trkpt lat="49.86685" lon="2.3044">
        <ele>77.4</ele>
        <time>2021-04-28T14:01:28Z</time>
      </trkpt>
      <trkpt lat="49.86685" lon="2.3044">
        <ele>77.4</ele>
        <time>2021-04-28T14:01:29Z</time>
      </trkpt>
      <trkpt lat="49.86685" lon="2.3044">
        <ele>77.4</ele>
        <time>2021-04-28T14:01:30Z</time>
      </trkpt>
      <trkpt lat="49.86685" lon="2.3044">
        <ele>77.4</ele>
        <time>2021-04-28T14:01:31Z</time>
      </trkpt>
      <trkpt lat="49.86685" lon="2.3044">
        <ele>77.4</ele>
        <time>2021-04-28T14:01:32Z</time>
      </trkpt>
      <trkpt lat="49.86685" lon="2.3044">
        <ele>77.4</ele>
        <time>2021-04-28T14:01:33Z</time>
      </trkpt>
      <trkpt lat="49.86685" lon="2.3044">
        <ele>77.5</ele>
        <time>2021-04-28T14:01:34Z</time>
      </trkpt>
      <trkpt lat="49.86685" lon="2.3044">
        <ele>77.5</ele>
        <time>2021-04-28T14:01:36Z</time>
      </trkpt>
      <trkpt lat="49.86685" lon="2.3044">
        <ele>77.5</ele>
        <time>2021-04-28T14:01:37Z</time>
      </trkpt>
      <trkpt lat="49.86685" lon="2.3044">
        <ele>77.5</ele>
        <time>2021-04-28T14:01:39Z</time>
      </trkpt>
      <trkpt lat="49.86685" lon="2.3044">
        <ele>77.5</ele>
        <time>2021-04-28T14:01:40Z</time>
      </trkpt>
      <trkpt lat="49.86685" lon="2.3044">
        <ele>77.5</ele>
        <time>2021-04-28T14:01:41Z</time>
      </trkpt>
      <trkpt lat="49.86685" lon="2.3044">
        <ele>77.5</ele>
        <time>2021-04-28T14:01:43Z</time>
      </trkpt>
      <trkpt lat="49.86685" lon="2.3044">
        <ele>77.5</ele>
        <time>2021-04-28T14:01:44Z</time>
      </trkpt>
      <trkpt lat="49.86685" lon="2.3044">
        <ele>77.5</ele>
        <time>2021-04-28T14:01:45Z</time>
      </trkpt>
      <trkpt lat="49.86685" lon="2.3044">
        <ele>77.5</ele>
        <time>2021-04-28T14:01:46Z</time>
      </trkpt>
      <trkpt lat="49.86685" lon="2.3044">
        <ele>77.5</ele>
        <time>2021-04-28T14:01:47Z</time>
      </trkpt>
      <trkpt lat="49.86685" lon="2.3044">
        <ele>77.5</ele>
        <time>2021-04-28T14:01:48Z</time>
      </trkpt>
      <trkpt lat="49.86685" lon="2.3044">
        <ele>77.5</ele>
        <time>2021-04-28T14:01:50Z</time>
      </trkpt>
      <trkpt lat="49.86685" lon="2.3044">
        <ele>77.6</ele>
        <time>2021-04-28T14:01:52Z</time>
      </trkpt>
      <trkpt lat="49.86685" lon="2.3044">
        <ele>77.6</ele>
        <time>2021-04-28T14:01:54Z</time>
      </trkpt>
      <trkpt lat="49.86685" lon="2.3044">
        <ele>77.6</ele>
        <time>2021-04-28T14:01:55Z</time>
      </trkpt>
      <trkpt lat="49.86685" lon="2.3044">
        <ele>77.6</ele>
        <time>2021-04-28T14:01:57Z</time>
      </trkpt>
      <trkpt lat="49.86684" lon="2.30439">
        <ele>77.6</ele>
        <time>2021-04-28T14:01:58Z</time>
      </trkpt>
      <trkpt lat="49.86684" lon="2.30438">
        <ele>77.8</ele>
        <time>2021-04-28T14:01:59Z</time>
      </trkpt>
      <trkpt lat="49.86684" lon="2.30436">
        <ele>77.8</ele>
        <time>2021-04-28T14:02:00Z</time>
      </trkpt>
      <trkpt lat="49.86683" lon="2.30434">
        <ele>77.8</ele>
        <time>2021-04-28T14:02:02Z</time>
      </trkpt>
      <trkpt lat="49.86683" lon="2.30432">
        <ele>77.9</ele>
        <time>2021-04-28T14:02:04Z</time>
      </trkpt>
      <trkpt lat="49.86683" lon="2.3043">
        <ele>77.9</ele>
        <time>2021-04-28T14:02:05Z</time>
      </trkpt>
      <trkpt lat="49.86684" lon="2.30428">
        <ele>77.9</ele>
        <time>2021-04-28T14:02:07Z</time>
      </trkpt>
      <trkpt lat="49.86685" lon="2.30428">
        <ele>77.9</ele>
        <time>2021-04-28T14:02:08Z</time>
      </trkpt>
      <trkpt lat="49.86684" lon="2.30428">
        <ele>77.9</ele>
        <time>2021-04-28T14:02:10Z</time>
      </trkpt>
      <trkpt lat="49.86684" lon="2.30428">
        <ele>77.9</ele>
        <time>2021-04-28T14:02:12Z</time>
      </trkpt>
      <trkpt lat="49.86684" lon="2.30429">
        <ele>77.9</ele>
        <time>2021-04-28T14:02:14Z</time>
      </trkpt>
      <trkpt lat="49.86684" lon="2.30429">
        <ele>77.9</ele>
        <time>2021-04-28T14:02:16Z</time>
      </trkpt>
      <trkpt lat="49.86684" lon="2.30427">
        <ele>78</ele>
        <time>2021-04-28T14:02:18Z</time>
      </trkpt>
      <trkpt lat="49.86683" lon="2.30426">
        <ele>78</ele>
        <time>2021-04-28T14:02:19Z</time>
      </trkpt>
      <trkpt lat="49.86683" lon="2.30424">
        <ele>78.1</ele>
        <time>2021-04-28T14:02:20Z</time>
      </trkpt>
      <trkpt lat="49.86683" lon="2.30423">
        <ele>78.1</ele>
        <time>2021-04-28T14:02:21Z</time>
      </trkpt>
      <trkpt lat="49.86682" lon="2.30421">
        <ele>78.2</ele>
        <time>2021-04-28T14:02:23Z</time>
      </trkpt>
      <trkpt lat="49.86681" lon="2.30418">
        <ele>78.4</ele>
        <time>2021-04-28T14:02:25Z</time>
      </trkpt>
      <trkpt lat="49.86682" lon="2.30418">
        <ele>78.3</ele>
        <time>2021-04-28T14:02:26Z</time>
      </trkpt>
      <trkpt lat="49.86682" lon="2.30416">
        <ele>78.4</ele>
        <time>2021-04-28T14:02:28Z</time>
      </trkpt>
      <trkpt lat="49.86682" lon="2.30417">
        <ele>78.4</ele>
        <time>2021-04-28T14:02:30Z</time>
      </trkpt>
      <trkpt lat="49.86682" lon="2.30417">
        <ele>78.3</ele>
        <time>2021-04-28T14:02:31Z</time>
      </trkpt>
      <trkpt lat="49.86681" lon="2.30417">
        <ele>78.4</ele>
        <time>2021-04-28T14:02:33Z</time>
      </trkpt>
      <trkpt lat="49.86681" lon="2.30417">
        <ele>78.4</ele>
        <time>2021-04-28T14:02:35Z</time>
      </trkpt>
      <trkpt lat="49.86679" lon="2.30416">
        <ele>78.5</ele>
        <time>2021-04-28T14:02:37Z</time>
      </trkpt>
      <trkpt lat="49.86678" lon="2.30415">
        <ele>78.6</ele>
        <time>2021-04-28T14:02:39Z</time>
      </trkpt>
      <trkpt lat="49.86677" lon="2.30413">
        <ele>78.6</ele>
        <time>2021-04-28T14:02:41Z</time>
      </trkpt>
      <trkpt lat="49.86676" lon="2.30411">
        <ele>78.9</ele>
        <time>2021-04-28T14:02:43Z</time>
      </trkpt>
      <trkpt lat="49.86675" lon="2.30411">
        <ele>78.9</ele>
        <time>2021-04-28T14:02:44Z</time>
      </trkpt>
      <trkpt lat="49.86675" lon="2.3041">
        <ele>78.9</ele>
        <time>2021-04-28T14:02:45Z</time>
      </trkpt>
      <trkpt lat="49.86675" lon="2.30409">
        <ele>78.9</ele>
        <time>2021-04-28T14:02:46Z</time>
      </trkpt>
      <trkpt lat="49.86674" lon="2.30407">
        <ele>79</ele>
        <time>2021-04-28T14:02:48Z</time>
      </trkpt>
      <trkpt lat="49.86673" lon="2.30406">
        <ele>79</ele>
        <time>2021-04-28T14:02:49Z</time>
      </trkpt>
      <trkpt lat="49.86673" lon="2.30405">
        <ele>79.1</ele>
        <time>2021-04-28T14:02:50Z</time>
      </trkpt>
      <trkpt lat="49.86672" lon="2.30404">
        <ele>79.3</ele>
        <time>2021-04-28T14:02:52Z</time>
      </trkpt>
      <trkpt lat="49.8667" lon="2.30402">
        <ele>79.4</ele>
        <time>2021-04-28T14:02:54Z</time>
      </trkpt>
      <trkpt lat="49.8667" lon="2.30401">
        <ele>79.4</ele>
        <time>2021-04-28T14:02:55Z</time>
      </trkpt>
      <trkpt lat="49.86669" lon="2.30401">
        <ele>79.4</ele>
        <time>2021-04-28T14:02:56Z</time>
      </trkpt>
      <trkpt lat="49.86669" lon="2.304">
        <ele>79.4</ele>
        <time>2021-04-28T14:02:57Z</time>
      </trkpt>
      <trkpt lat="49.86668" lon="2.30399">
        <ele>79.6</ele>
        <time>2021-04-28T14:02:58Z</time>
      </trkpt>
      <trkpt lat="49.86668" lon="2.30399">
        <ele>79.6</ele>
        <time>2021-04-28T14:02:59Z</time>
      </trkpt>
      <trkpt lat="49.86667" lon="2.30398">
        <ele>79.7</ele>
        <time>2021-04-28T14:03:00Z</time>
      </trkpt>
      <trkpt lat="49.86666" lon="2.30398">
        <ele>79.7</ele>
        <time>2021-04-28T14:03:02Z</time>
      </trkpt>
      <trkpt lat="49.86666" lon="2.30397">
        <ele>79.7</ele>
        <time>2021-04-28T14:03:03Z</time>
      </trkpt>
      <trkpt lat="49.86665" lon="2.30396">
        <ele>79.8</ele>
        <time>2021-04-28T14:03:04Z</time>
      </trkpt>
      <trkpt lat="49.86664" lon="2.30394">
        <ele>80</ele>
        <time>2021-04-28T14:03:05Z</time>
      </trkpt>
      <trkpt lat="49.86663" lon="2.30393">
        <ele>80</ele>
        <time>2021-04-28T14:03:07Z</time>
      </trkpt>
      <trkpt lat="49.86663" lon="2.30392">
        <ele>80</ele>
        <time>2021-04-28T14:03:08Z</time>
      </trkpt>
      <trkpt lat="49.86663" lon="2.30391">
        <ele>80</ele>
        <time>2021-04-28T14:03:09Z</time>
      </trkpt>
      <trkpt lat="49.86663" lon="2.30391">
        <ele>80.1</ele>
        <time>2021-04-28T14:03:11Z</time>
      </trkpt>
      <trkpt lat="49.86662" lon="2.30391">
        <ele>80.1</ele>
        <time>2021-04-28T14:03:12Z</time>
      </trkpt>
      <trkpt lat="49.86662" lon="2.3039">
        <ele>80.2</ele>
        <time>2021-04-28T14:03:13Z</time>
      </trkpt>
      <trkpt lat="49.86662" lon="2.3039">
        <ele>80.1</ele>
        <time>2021-04-28T14:03:15Z</time>
      </trkpt>
      <trkpt lat="49.86662" lon="2.3039">
        <ele>80.3</ele>
        <time>2021-04-28T14:03:16Z</time>
      </trkpt>
      <trkpt lat="49.86662" lon="2.30389">
        <ele>80.3</ele>
        <time>2021-04-28T14:03:17Z</time>
      </trkpt>
      <trkpt lat="49.86662" lon="2.30388">
        <ele>80.3</ele>
        <time>2021-04-28T14:03:19Z</time>
      </trkpt>
      <trkpt lat="49.86661" lon="2.30387">
        <ele>80.3</ele>
        <time>2021-04-28T14:03:20Z</time>
      </trkpt>
      <trkpt lat="49.86661" lon="2.30386">
        <ele>80.4</ele>
        <time>2021-04-28T14:03:21Z</time>
      </trkpt>
      <trkpt lat="49.8666" lon="2.30385">
        <ele>80.4</ele>
        <time>2021-04-28T14:03:23Z</time>
      </trkpt>
      <trkpt lat="49.86659" lon="2.30384">
        <ele>80.5</ele>
        <time>2021-04-28T14:03:25Z</time>
      </trkpt>
      <trkpt lat="49.86659" lon="2.30382">
        <ele>80.7</ele>
        <time>2021-04-28T14:03:26Z</time>
      </trkpt>
      <trkpt lat="49.86658" lon="2.3038">
        <ele>80.7</ele>
        <time>2021-04-28T14:03:27Z</time>
      </trkpt>
      <trkpt lat="49.86657" lon="2.30378">
        <ele>80.7</ele>
        <time>2021-04-28T14:03:28Z</time>
      </trkpt>
      <trkpt lat="49.86656" lon="2.30377">
        <ele>80.9</ele>
        <time>2021-04-28T14:03:30Z</time>
      </trkpt>
      <trkpt lat="49.86656" lon="2.30375">
        <ele>80.9</ele>
        <time>2021-04-28T14:03:31Z</time>
      </trkpt>
      <trkpt lat="49.86655" lon="2.30374">
        <ele>80.9</ele>
        <time>2021-04-28T14:03:32Z</time>
      </trkpt>
      <trkpt lat="49.86654" lon="2.30372">
        <ele>81</ele>
        <time>2021-04-28T14:03:33Z</time>
      </trkpt>
      <trkpt lat="49.86653" lon="2.3037">
        <ele>81.2</ele>
        <time>2021-04-28T14:03:35Z</time>
      </trkpt>
      <trkpt lat="49.86653" lon="2.30369">
        <ele>81.2</ele>
        <time>2021-04-28T14:03:36Z</time>
      </trkpt>
      <trkpt lat="49.86652" lon="2.30368">
        <ele>81.2</ele>
        <time>2021-04-28T14:03:37Z</time>
      </trkpt>
      <trkpt lat="49.86651" lon="2.30366">
        <ele>81.2</ele>
        <time>2021-04-28T14:03:38Z</time>
      </trkpt>
      <trkpt lat="49.86651" lon="2.30365">
        <ele>81.4</ele>
        <time>2021-04-28T14:03:40Z</time>
      </trkpt>
      <trkpt lat="49.8665" lon="2.30363">
        <ele>81.4</ele>
        <time>2021-04-28T14:03:41Z</time>
      </trkpt>
      <trkpt lat="49.86648" lon="2.30362">
        <ele>81.6</ele>
        <time>2021-04-28T14:03:43Z</time>
      </trkpt>
      <trkpt lat="49.86647" lon="2.30359">
        <ele>81.6</ele>
        <time>2021-04-28T14:03:44Z</time>
      </trkpt>
      <trkpt lat="49.86646" lon="2.30358">
        <ele>81.6</ele>
        <time>2021-04-28T14:03:45Z</time>
      </trkpt>
      <trkpt lat="49.86646" lon="2.30358">
        <ele>81.6</ele>
        <time>2021-04-28T14:03:46Z</time>
      </trkpt>
      <trkpt lat="49.86645" lon="2.30356">
        <ele>81.8</ele>
        <time>2021-04-28T14:03:47Z</time>
      </trkpt>
      <trkpt lat="49.86644" lon="2.30355">
        <ele>81.8</ele>
        <time>2021-04-28T14:03:49Z</time>
      </trkpt>
      <trkpt lat="49.86644" lon="2.30354">
        <ele>81.8</ele>
        <time>2021-04-28T14:03:50Z</time>
      </trkpt>
      <trkpt lat="49.86643" lon="2.30353">
        <ele>81.8</ele>
        <time>2021-04-28T14:03:51Z</time>
      </trkpt>
      <trkpt lat="49.86643" lon="2.30351">
        <ele>82</ele>
        <time>2021-04-28T14:03:53Z</time>
      </trkpt>
      <trkpt lat="49.86642" lon="2.3035">
        <ele>82</ele>
        <time>2021-04-28T14:03:54Z</time>
      </trkpt>
      <trkpt lat="49.86642" lon="2.30349">
        <ele>82</ele>
        <time>2021-04-28T14:03:55Z</time>
      </trkpt>
      <trkpt lat="49.86641" lon="2.30348">
        <ele>82</ele>
        <time>2021-04-28T14:03:56Z</time>
      </trkpt>
      <trkpt lat="49.86641" lon="2.30347">
        <ele>82</ele>
        <time>2021-04-28T14:03:57Z</time>
      </trkpt>
      <trkpt lat="49.8664" lon="2.30346">
        <ele>82.2</ele>
        <time>2021-04-28T14:03:58Z</time>
      </trkpt>
      <trkpt lat="49.86639" lon="2.30344">
        <ele>82.1</ele>
        <time>2021-04-28T14:04:00Z</time>
      </trkpt>
      <trkpt lat="49.86639" lon="2.30343">
        <ele>82.1</ele>
        <time>2021-04-28T14:04:01Z</time>
      </trkpt>
      <trkpt lat="49.86639" lon="2.30342">
        <ele>82.1</ele>
        <time>2021-04-28T14:04:02Z</time>
      </trkpt>
      <trkpt lat="49.86638" lon="2.30341">
        <ele>82.2</ele>
        <time>2021-04-28T14:04:03Z</time>
      </trkpt>
      <trkpt lat="49.86638" lon="2.30339">
        <ele>82.1</ele>
        <time>2021-04-28T14:04:04Z</time>
      </trkpt>
      <trkpt lat="49.86638" lon="2.30338">
        <ele>82.1</ele>
        <time>2021-04-28T14:04:06Z</time>
      </trkpt>
      <trkpt lat="49.86637" lon="2.30336">
        <ele>82.3</ele>
        <time>2021-04-28T14:04:07Z</time>
      </trkpt>
      <trkpt lat="49.86636" lon="2.30333">
        <ele>82.2</ele>
        <time>2021-04-28T14:04:08Z</time>
      </trkpt>
      <trkpt lat="49.86635" lon="2.30331">
        <ele>82.3</ele>
        <time>2021-04-28T14:04:10Z</time>
      </trkpt>
      <trkpt lat="49.86635" lon="2.3033">
        <ele>82.1</ele>
        <time>2021-04-28T14:04:11Z</time>
      </trkpt>
      <trkpt lat="49.86634" lon="2.30328">
        <ele>82.4</ele>
        <time>2021-04-28T14:04:12Z</time>
      </trkpt>
      <trkpt lat="49.86634" lon="2.30327">
        <ele>82.4</ele>
        <time>2021-04-28T14:04:13Z</time>
      </trkpt>
      <trkpt lat="49.86633" lon="2.30326">
        <ele>82.3</ele>
        <time>2021-04-28T14:04:15Z</time>
      </trkpt>
      <trkpt lat="49.86633" lon="2.30324">
        <ele>82.3</ele>
        <time>2021-04-28T14:04:16Z</time>
      </trkpt>
      <trkpt lat="49.86632" lon="2.30323">
        <ele>82.3</ele>
        <time>2021-04-28T14:04:18Z</time>
      </trkpt>
      <trkpt lat="49.86631" lon="2.30321">
        <ele>82.7</ele>
        <time>2021-04-28T14:04:19Z</time>
      </trkpt>
      <trkpt lat="49.86631" lon="2.3032">
        <ele>82.7</ele>
        <time>2021-04-28T14:04:20Z</time>
      </trkpt>
      <trkpt lat="49.8663" lon="2.30318">
        <ele>82.7</ele>
        <time>2021-04-28T14:04:21Z</time>
      </trkpt>
      <trkpt lat="49.86629" lon="2.30317">
        <ele>82.6</ele>
        <time>2021-04-28T14:04:23Z</time>
      </trkpt>
      <trkpt lat="49.86628" lon="2.30316">
        <ele>83</ele>
        <time>2021-04-28T14:04:24Z</time>
      </trkpt>
      <trkpt lat="49.86628" lon="2.30315">
        <ele>83</ele>
        <time>2021-04-28T14:04:25Z</time>
      </trkpt>
      <trkpt lat="49.86627" lon="2.30314">
        <ele>83</ele>
        <time>2021-04-28T14:04:27Z</time>
      </trkpt>
      <trkpt lat="49.86625" lon="2.30313">
        <ele>83.2</ele>
        <time>2021-04-28T14:04:28Z</time>
      </trkpt>
      <trkpt lat="49.86625" lon="2.30313">
        <ele>83.2</ele>
        <time>2021-04-28T14:04:30Z</time>
      </trkpt>
      <trkpt lat="49.86624" lon="2.30312">
        <ele>83.2</ele>
        <time>2021-04-28T14:04:31Z</time>
      </trkpt>
      <trkpt lat="49.86623" lon="2.30312">
        <ele>83.6</ele>
        <time>2021-04-28T14:04:32Z</time>
      </trkpt>
      <trkpt lat="49.86622" lon="2.30311">
        <ele>83.6</ele>
        <time>2021-04-28T14:04:33Z</time>
      </trkpt>
      <trkpt lat="49.86621" lon="2.3031">
        <ele>83.6</ele>
        <time>2021-04-28T14:04:35Z</time>
      </trkpt>
      <trkpt lat="49.8662" lon="2.30309">
        <ele>83.8</ele>
        <time>2021-04-28T14:04:36Z</time>
      </trkpt>
      <trkpt lat="49.86619" lon="2.30308">
        <ele>83.8</ele>
        <time>2021-04-28T14:04:37Z</time>
      </trkpt>
      <trkpt lat="49.86619" lon="2.30308">
        <ele>83.8</ele>
        <time>2021-04-28T14:04:38Z</time>
      </trkpt>
      <trkpt lat="49.86618" lon="2.30307">
        <ele>83.9</ele>
        <time>2021-04-28T14:04:40Z</time>
      </trkpt>
      <trkpt lat="49.86617" lon="2.30306">
        <ele>84.2</ele>
        <time>2021-04-28T14:04:41Z</time>
      </trkpt>
      <trkpt lat="49.86616" lon="2.30305">
        <ele>84.2</ele>
        <time>2021-04-28T14:04:43Z</time>
      </trkpt>
      <trkpt lat="49.86615" lon="2.30304">
        <ele>84.5</ele>
        <time>2021-04-28T14:04:44Z</time>
      </trkpt>
      <trkpt lat="49.86614" lon="2.30303">
        <ele>84.5</ele>
        <time>2021-04-28T14:04:45Z</time>
      </trkpt>
      <trkpt lat="49.86614" lon="2.30303">
        <ele>84.5</ele>
        <time>2021-04-28T14:04:46Z</time>
      </trkpt>
      <trkpt lat="49.86613" lon="2.30302">
        <ele>84.5</ele>
        <time>2021-04-28T14:04:47Z</time>
      </trkpt>
      <trkpt lat="49.86612" lon="2.303">
        <ele>84.8</ele>
        <time>2021-04-28T14:04:48Z</time>
      </trkpt>
      <trkpt lat="49.86612" lon="2.30299">
        <ele>84.8</ele>
        <time>2021-04-28T14:04:49Z</time>
      </trkpt>
      <trkpt lat="49.86611" lon="2.30298">
        <ele>84.9</ele>
        <time>2021-04-28T14:04:51Z</time>
      </trkpt>
      <trkpt lat="49.86611" lon="2.30297">
        <ele>84.9</ele>
        <time>2021-04-28T14:04:52Z</time>
      </trkpt>
      <trkpt lat="49.86612" lon="2.30295">
        <ele>84.9</ele>
        <time>2021-04-28T14:04:54Z</time>
      </trkpt>
      <trkpt lat="49.86614" lon="2.30296">
        <ele>84.5</ele>
        <time>2021-04-28T14:04:56Z</time>
      </trkpt>
      <trkpt lat="49.86615" lon="2.30296">
        <ele>84.5</ele>
        <time>2021-04-28T14:04:58Z</time>
      </trkpt>
      <trkpt lat="49.86615" lon="2.30295">
        <ele>84.6</ele>
        <time>2021-04-28T14:04:59Z</time>
      </trkpt>
      <trkpt lat="49.86615" lon="2.30294">
        <ele>84.6</ele>
        <time>2021-04-28T14:05:00Z</time>
      </trkpt>
      <trkpt lat="49.86615" lon="2.30293">
        <ele>84.6</ele>
        <time>2021-04-28T14:05:01Z</time>
      </trkpt>
      <trkpt lat="49.86614" lon="2.30291">
        <ele>84.6</ele>
        <time>2021-04-28T14:05:02Z</time>
      </trkpt>
      <trkpt lat="49.86614" lon="2.30289">
        <ele>84.6</ele>
        <time>2021-04-28T14:05:04Z</time>
      </trkpt>
      <trkpt lat="49.86613" lon="2.30288">
        <ele>84.6</ele>
        <time>2021-04-28T14:05:05Z</time>
      </trkpt>
      <trkpt lat="49.86612" lon="2.30285">
        <ele>85</ele>
        <time>2021-04-28T14:05:07Z</time>
      </trkpt>
      <trkpt lat="49.86611" lon="2.30284">
        <ele>85</ele>
        <time>2021-04-28T14:05:08Z</time>
      </trkpt>
      <trkpt lat="49.86611" lon="2.30283">
        <ele>85</ele>
        <time>2021-04-28T14:05:09Z</time>
      </trkpt>
      <trkpt lat="49.86609" lon="2.30281">
        <ele>85.4</ele>
        <time>2021-04-28T14:05:11Z</time>
      </trkpt>
      <trkpt lat="49.86609" lon="2.30279">
        <ele>85.4</ele>
        <time>2021-04-28T14:05:12Z</time>
      </trkpt>
      <trkpt lat="49.86608" lon="2.30278">
        <ele>85.4</ele>
        <time>2021-04-28T14:05:13Z</time>
      </trkpt>
      <trkpt lat="49.86608" lon="2.30277">
        <ele>85.4</ele>
        <time>2021-04-28T14:05:15Z</time>
      </trkpt>
      <trkpt lat="49.86606" lon="2.30276">
        <ele>85.8</ele>
        <time>2021-04-28T14:05:16Z</time>
      </trkpt>
      <trkpt lat="49.86606" lon="2.30275">
        <ele>85.8</ele>
        <time>2021-04-28T14:05:17Z</time>
      </trkpt>
      <trkpt lat="49.86605" lon="2.30273">
        <ele>85.8</ele>
        <time>2021-04-28T14:05:19Z</time>
      </trkpt>
      <trkpt lat="49.86605" lon="2.30272">
        <ele>85.8</ele>
        <time>2021-04-28T14:05:20Z</time>
      </trkpt>
      <trkpt lat="49.86605" lon="2.30272">
        <ele>85.8</ele>
        <time>2021-04-28T14:05:21Z</time>
      </trkpt>
      <trkpt lat="49.86604" lon="2.30271">
        <ele>85.9</ele>
        <time>2021-04-28T14:05:23Z</time>
      </trkpt>
      <trkpt lat="49.86604" lon="2.30271">
        <ele>86.2</ele>
        <time>2021-04-28T14:05:24Z</time>
      </trkpt>
      <trkpt lat="49.86603" lon="2.3027">
        <ele>86.2</ele>
        <time>2021-04-28T14:05:25Z</time>
      </trkpt>
      <trkpt lat="49.86603" lon="2.30269">
        <ele>86.2</ele>
        <time>2021-04-28T14:05:27Z</time>
      </trkpt>
      <trkpt lat="49.86601" lon="2.30268">
        <ele>86.5</ele>
        <time>2021-04-28T14:05:29Z</time>
      </trkpt>
      <trkpt lat="49.866" lon="2.30266">
        <ele>86.5</ele>
        <time>2021-04-28T14:05:30Z</time>
      </trkpt>
      <trkpt lat="49.86599" lon="2.30265">
        <ele>86.5</ele>
        <time>2021-04-28T14:05:31Z</time>
      </trkpt>
      <trkpt lat="49.86599" lon="2.30264">
        <ele>86.5</ele>
        <time>2021-04-28T14:05:33Z</time>
      </trkpt>
      <trkpt lat="49.86598" lon="2.30263">
        <ele>86.8</ele>
        <time>2021-04-28T14:05:34Z</time>
      </trkpt>
      <trkpt lat="49.86598" lon="2.30262">
        <ele>86.8</ele>
        <time>2021-04-28T14:05:35Z</time>
      </trkpt>
      <trkpt lat="49.86597" lon="2.30261">
        <ele>86.8</ele>
        <time>2021-04-28T14:05:36Z</time>
      </trkpt>
      <trkpt lat="49.86596" lon="2.30261">
        <ele>86.8</ele>
        <time>2021-04-28T14:05:38Z</time>
      </trkpt>
      <trkpt lat="49.86596" lon="2.3026">
        <ele>86.8</ele>
        <time>2021-04-28T14:05:39Z</time>
      </trkpt>
      <trkpt lat="49.86595" lon="2.30259">
        <ele>87.1</ele>
        <time>2021-04-28T14:05:40Z</time>
      </trkpt>
      <trkpt lat="49.86595" lon="2.30258">
        <ele>87.1</ele>
        <time>2021-04-28T14:05:41Z</time>
      </trkpt>
      <trkpt lat="49.86594" lon="2.30257">
        <ele>87.1</ele>
        <time>2021-04-28T14:05:42Z</time>
      </trkpt>
      <trkpt lat="49.86593" lon="2.30255">
        <ele>87.1</ele>
        <time>2021-04-28T14:05:44Z</time>
      </trkpt>
      <trkpt lat="49.86593" lon="2.30255">
        <ele>87.3</ele>
        <time>2021-04-28T14:05:45Z</time>
      </trkpt>
      <trkpt lat="49.86592" lon="2.30254">
        <ele>87.3</ele>
        <time>2021-04-28T14:05:46Z</time>
      </trkpt>
      <trkpt lat="49.86591" lon="2.30252">
        <ele>87.3</ele>
        <time>2021-04-28T14:05:47Z</time>
      </trkpt>
      <trkpt lat="49.86591" lon="2.30251">
        <ele>87.3</ele>
        <time>2021-04-28T14:05:49Z</time>
      </trkpt>
      <trkpt lat="49.8659" lon="2.30249">
        <ele>87.2</ele>
        <time>2021-04-28T14:05:50Z</time>
      </trkpt>
      <trkpt lat="49.8659" lon="2.30248">
        <ele>87.4</ele>
        <time>2021-04-28T14:05:51Z</time>
      </trkpt>
      <trkpt lat="49.86589" lon="2.30247">
        <ele>87.5</ele>
        <time>2021-04-28T14:05:52Z</time>
      </trkpt>
      <trkpt lat="49.86588" lon="2.30245">
        <ele>87.4</ele>
        <time>2021-04-28T14:05:53Z</time>
      </trkpt>
      <trkpt lat="49.86588" lon="2.30244">
        <ele>87.4</ele>
        <time>2021-04-28T14:05:55Z</time>
      </trkpt>
      <trkpt lat="49.86587" lon="2.30242">
        <ele>87.6</ele>
        <time>2021-04-28T14:05:56Z</time>
      </trkpt>
      <trkpt lat="49.86586" lon="2.3024">
        <ele>87.5</ele>
        <time>2021-04-28T14:05:58Z</time>
      </trkpt>
      <trkpt lat="49.86585" lon="2.30239">
        <ele>87.5</ele>
        <time>2021-04-28T14:05:59Z</time>
      </trkpt>
      <trkpt lat="49.86584" lon="2.30238">
        <ele>87.8</ele>
        <time>2021-04-28T14:06:00Z</time>
      </trkpt>
      <trkpt lat="49.86583" lon="2.30236">
        <ele>87.7</ele>
        <time>2021-04-28T14:06:02Z</time>
      </trkpt>
      <trkpt lat="49.86583" lon="2.30235">
        <ele>87.7</ele>
        <time>2021-04-28T14:06:03Z</time>
      </trkpt>
      <trkpt lat="49.86582" lon="2.30234">
        <ele>87.7</ele>
        <time>2021-04-28T14:06:04Z</time>
      </trkpt>
      <trkpt lat="49.86581" lon="2.30233">
        <ele>87.9</ele>
        <time>2021-04-28T14:06:05Z</time>
      </trkpt>
      <trkpt lat="49.86581" lon="2.30231">
        <ele>87.9</ele>
        <time>2021-04-28T14:06:07Z</time>
      </trkpt>
      <trkpt lat="49.8658" lon="2.3023">
        <ele>87.9</ele>
        <time>2021-04-28T14:06:08Z</time>
      </trkpt>
      <trkpt lat="49.86579" lon="2.30228">
        <ele>87.9</ele>
        <time>2021-04-28T14:06:09Z</time>
      </trkpt>
      <trkpt lat="49.86579" lon="2.30227">
        <ele>88</ele>
        <time>2021-04-28T14:06:10Z</time>
      </trkpt>
      <trkpt lat="49.86578" lon="2.30226">
        <ele>88</ele>
        <time>2021-04-28T14:06:12Z</time>
      </trkpt>
      <trkpt lat="49.86578" lon="2.30224">
        <ele>88</ele>
        <time>2021-04-28T14:06:13Z</time>
      </trkpt>
      <trkpt lat="49.86577" lon="2.30222">
        <ele>88</ele>
        <time>2021-04-28T14:06:14Z</time>
      </trkpt>
      <trkpt lat="49.86576" lon="2.3022">
        <ele>88.2</ele>
        <time>2021-04-28T14:06:15Z</time>
      </trkpt>
      <trkpt lat="49.86576" lon="2.30218">
        <ele>88.2</ele>
        <time>2021-04-28T14:06:17Z</time>
      </trkpt>
      <trkpt lat="49.86575" lon="2.30217">
        <ele>88.2</ele>
        <time>2021-04-28T14:06:18Z</time>
      </trkpt>
      <trkpt lat="49.86574" lon="2.30215">
        <ele>88.1</ele>
        <time>2021-04-28T14:06:20Z</time>
      </trkpt>
      <trkpt lat="49.86574" lon="2.30213">
        <ele>88.1</ele>
        <time>2021-04-28T14:06:21Z</time>
      </trkpt>
      <trkpt lat="49.86573" lon="2.30212">
        <ele>88.4</ele>
        <time>2021-04-28T14:06:22Z</time>
      </trkpt>
      <trkpt lat="49.86573" lon="2.3021">
        <ele>88.3</ele>
        <time>2021-04-28T14:06:24Z</time>
      </trkpt>
      <trkpt lat="49.86572" lon="2.3021">
        <ele>88.4</ele>
        <time>2021-04-28T14:06:25Z</time>
      </trkpt>
      <trkpt lat="49.86572" lon="2.30208">
        <ele>88.4</ele>
        <time>2021-04-28T14:06:26Z</time>
      </trkpt>
      <trkpt lat="49.86571" lon="2.30207">
        <ele>88.4</ele>
        <time>2021-04-28T14:06:28Z</time>
      </trkpt>
      <trkpt lat="49.8657" lon="2.30206">
        <ele>88.6</ele>
        <time>2021-04-28T14:06:29Z</time>
      </trkpt>
      <trkpt lat="49.8657" lon="2.30205">
        <ele>88.6</ele>
        <time>2021-04-28T14:06:30Z</time>
      </trkpt>
      <trkpt lat="49.86569" lon="2.30205">
        <ele>88.6</ele>
        <time>2021-04-28T14:06:31Z</time>
      </trkpt>
      <trkpt lat="49.86569" lon="2.30205">
        <ele>88.6</ele>
        <time>2021-04-28T14:06:32Z</time>
      </trkpt>
      <trkpt lat="49.86568" lon="2.30204">
        <ele>88.8</ele>
        <time>2021-04-28T14:06:33Z</time>
      </trkpt>
      <trkpt lat="49.86567" lon="2.30204">
        <ele>88.8</ele>
        <time>2021-04-28T14:06:34Z</time>
      </trkpt>
      <trkpt lat="49.86567" lon="2.30204">
        <ele>88.8</ele>
        <time>2021-04-28T14:06:36Z</time>
      </trkpt>
      <trkpt lat="49.86566" lon="2.30204">
        <ele>88.8</ele>
        <time>2021-04-28T14:06:37Z</time>
      </trkpt>
      <trkpt lat="49.86565" lon="2.30203">
        <ele>89</ele>
        <time>2021-04-28T14:06:38Z</time>
      </trkpt>
      <trkpt lat="49.86565" lon="2.30203">
        <ele>89.1</ele>
        <time>2021-04-28T14:06:40Z</time>
      </trkpt>
      <trkpt lat="49.86565" lon="2.30203">
        <ele>89.1</ele>
        <time>2021-04-28T14:06:41Z</time>
      </trkpt>
      <trkpt lat="49.86565" lon="2.30203">
        <ele>89.1</ele>
        <time>2021-04-28T14:06:42Z</time>
      </trkpt>
      <trkpt lat="49.86564" lon="2.30203">
        <ele>89.1</ele>
        <time>2021-04-28T14:06:43Z</time>
      </trkpt>
      <trkpt lat="49.86563" lon="2.30202">
        <ele>89.1</ele>
        <time>2021-04-28T14:06:44Z</time>
      </trkpt>
      <trkpt lat="49.86562" lon="2.30201">
        <ele>89.3</ele>
        <time>2021-04-28T14:06:45Z</time>
      </trkpt>
      <trkpt lat="49.86562" lon="2.302">
        <ele>89.3</ele>
        <time>2021-04-28T14:06:47Z</time>
      </trkpt>
      <trkpt lat="49.86561" lon="2.302">
        <ele>89.3</ele>
        <time>2021-04-28T14:06:48Z</time>
      </trkpt>
      <trkpt lat="49.8656" lon="2.30199">
        <ele>89.5</ele>
        <time>2021-04-28T14:06:49Z</time>
      </trkpt>
      <trkpt lat="49.86559" lon="2.30198">
        <ele>89.5</ele>
        <time>2021-04-28T14:06:51Z</time>
      </trkpt>
      <trkpt lat="49.86558" lon="2.30198">
        <ele>89.5</ele>
        <time>2021-04-28T14:06:52Z</time>
      </trkpt>
      <trkpt lat="49.86558" lon="2.30197">
        <ele>89.5</ele>
        <time>2021-04-28T14:06:53Z</time>
      </trkpt>
      <trkpt lat="49.86557" lon="2.30196">
        <ele>89.7</ele>
        <time>2021-04-28T14:06:54Z</time>
      </trkpt>
      <trkpt lat="49.86556" lon="2.30195">
        <ele>89.7</ele>
        <time>2021-04-28T14:06:55Z</time>
      </trkpt>
      <trkpt lat="49.86556" lon="2.30194">
        <ele>89.7</ele>
        <time>2021-04-28T14:06:56Z</time>
      </trkpt>
      <trkpt lat="49.86555" lon="2.30192">
        <ele>89.7</ele>
        <time>2021-04-28T14:06:58Z</time>
      </trkpt>
      <trkpt lat="49.86554" lon="2.30191">
        <ele>89.9</ele>
        <time>2021-04-28T14:06:59Z</time>
      </trkpt>
      <trkpt lat="49.86553" lon="2.30189">
        <ele>89.9</ele>
        <time>2021-04-28T14:07:00Z</time>
      </trkpt>
      <trkpt lat="49.86552" lon="2.30188">
        <ele>89.9</ele>
        <time>2021-04-28T14:07:02Z</time>
      </trkpt>
      <trkpt lat="49.86552" lon="2.30187">
        <ele>89.9</ele>
        <time>2021-04-28T14:07:03Z</time>
      </trkpt>
      <trkpt lat="49.86551" lon="2.30185">
        <ele>90.1</ele>
        <time>2021-04-28T14:07:04Z</time>
      </trkpt>
      <trkpt lat="49.8655" lon="2.30184">
        <ele>90.1</ele>
        <time>2021-04-28T14:07:05Z</time>
      </trkpt>
      <trkpt lat="49.86549" lon="2.30182">
        <ele>90.3</ele>
        <time>2021-04-28T14:07:07Z</time>
      </trkpt>
      <trkpt lat="49.86548" lon="2.30181">
        <ele>90.3</ele>
        <time>2021-04-28T14:07:08Z</time>
      </trkpt>
      <trkpt lat="49.86547" lon="2.3018">
        <ele>90.3</ele>
        <time>2021-04-28T14:07:09Z</time>
      </trkpt>
      <trkpt lat="49.86547" lon="2.30179">
        <ele>90.4</ele>
        <time>2021-04-28T14:07:10Z</time>
      </trkpt>
      <trkpt lat="49.86546" lon="2.30178">
        <ele>90.5</ele>
        <time>2021-04-28T14:07:12Z</time>
      </trkpt>
      <trkpt lat="49.86545" lon="2.30177">
        <ele>90.5</ele>
        <time>2021-04-28T14:07:13Z</time>
      </trkpt>
      <trkpt lat="49.86543" lon="2.30175">
        <ele>90.6</ele>
        <time>2021-04-28T14:07:15Z</time>
      </trkpt>
      <trkpt lat="49.86543" lon="2.30175">
        <ele>90.7</ele>
        <time>2021-04-28T14:07:16Z</time>
      </trkpt>
      <trkpt lat="49.86542" lon="2.30174">
        <ele>90.7</ele>
        <time>2021-04-28T14:07:18Z</time>
      </trkpt>
      <trkpt lat="49.86541" lon="2.30173">
        <ele>90.7</ele>
        <time>2021-04-28T14:07:19Z</time>
      </trkpt>
      <trkpt lat="49.8654" lon="2.30173">
        <ele>90.9</ele>
        <time>2021-04-28T14:07:20Z</time>
      </trkpt>
      <trkpt lat="49.8654" lon="2.30172">
        <ele>91</ele>
        <time>2021-04-28T14:07:21Z</time>
      </trkpt>
      <trkpt lat="49.86539" lon="2.30171">
        <ele>91</ele>
        <time>2021-04-28T14:07:23Z</time>
      </trkpt>
      <trkpt lat="49.86539" lon="2.3017">
        <ele>91</ele>
        <time>2021-04-28T14:07:24Z</time>
      </trkpt>
      <trkpt lat="49.86539" lon="2.30169">
        <ele>91</ele>
        <time>2021-04-28T14:07:25Z</time>
      </trkpt>
      <trkpt lat="49.86539" lon="2.30169">
        <ele>91</ele>
        <time>2021-04-28T14:07:26Z</time>
      </trkpt>
      <trkpt lat="49.86539" lon="2.30168">
        <ele>91</ele>
        <time>2021-04-28T14:07:28Z</time>
      </trkpt>
      <trkpt lat="49.86539" lon="2.30168">
        <ele>91.1</ele>
        <time>2021-04-28T14:07:29Z</time>
      </trkpt>
      <trkpt lat="49.86538" lon="2.30166">
        <ele>91.1</ele>
        <time>2021-04-28T14:07:30Z</time>
      </trkpt>
      <trkpt lat="49.86538" lon="2.30165">
        <ele>91.1</ele>
        <time>2021-04-28T14:07:31Z</time>
      </trkpt>
      <trkpt lat="49.86538" lon="2.30164">
        <ele>91.1</ele>
        <time>2021-04-28T14:07:33Z</time>
      </trkpt>
      <trkpt lat="49.86538" lon="2.30163">
        <ele>91.1</ele>
        <time>2021-04-28T14:07:34Z</time>
      </trkpt>
      <trkpt lat="49.86538" lon="2.30162">
        <ele>91.3</ele>
        <time>2021-04-28T14:07:35Z</time>
      </trkpt>
      <trkpt lat="49.86537" lon="2.3016">
        <ele>91.3</ele>
        <time>2021-04-28T14:07:36Z</time>
      </trkpt>
      <trkpt lat="49.86536" lon="2.30158">
        <ele>91.4</ele>
        <time>2021-04-28T14:07:38Z</time>
      </trkpt>
      <trkpt lat="49.86536" lon="2.30156">
        <ele>91.4</ele>
        <time>2021-04-28T14:07:39Z</time>
      </trkpt>
      <trkpt lat="49.86534" lon="2.30154">
        <ele>91.5</ele>
        <time>2021-04-28T14:07:41Z</time>
      </trkpt>
      <trkpt lat="49.86534" lon="2.30152">
        <ele>91.5</ele>
        <time>2021-04-28T14:07:42Z</time>
      </trkpt>
      <trkpt lat="49.86533" lon="2.30151">
        <ele>91.5</ele>
        <time>2021-04-28T14:07:43Z</time>
      </trkpt>
      <trkpt lat="49.86532" lon="2.30149">
        <ele>91.6</ele>
        <time>2021-04-28T14:07:45Z</time>
      </trkpt>
      <trkpt lat="49.86531" lon="2.30148">
        <ele>91.6</ele>
        <time>2021-04-28T14:07:46Z</time>
      </trkpt>
      <trkpt lat="49.8653" lon="2.30147">
        <ele>91.6</ele>
        <time>2021-04-28T14:07:47Z</time>
      </trkpt>
      <trkpt lat="49.86529" lon="2.30146">
        <ele>91.6</ele>
        <time>2021-04-28T14:07:48Z</time>
      </trkpt>
      <trkpt lat="49.86529" lon="2.30146">
        <ele>91.7</ele>
        <time>2021-04-28T14:07:49Z</time>
      </trkpt>
      <trkpt lat="49.86528" lon="2.30145">
        <ele>91.7</ele>
        <time>2021-04-28T14:07:51Z</time>
      </trkpt>
      <trkpt lat="49.86528" lon="2.30144">
        <ele>91.7</ele>
        <time>2021-04-28T14:07:52Z</time>
      </trkpt>
      <trkpt lat="49.86526" lon="2.30142">
        <ele>91.7</ele>
        <time>2021-04-28T14:07:54Z</time>
      </trkpt>
      <trkpt lat="49.86526" lon="2.30141">
        <ele>91.7</ele>
        <time>2021-04-28T14:07:55Z</time>
      </trkpt>
      <trkpt lat="49.86525" lon="2.3014">
        <ele>91.7</ele>
        <time>2021-04-28T14:07:56Z</time>
      </trkpt>
      <trkpt lat="49.86524" lon="2.30139">
        <ele>91.7</ele>
        <time>2021-04-28T14:07:58Z</time>
      </trkpt>
      <trkpt lat="49.86524" lon="2.30138">
        <ele>91.8</ele>
        <time>2021-04-28T14:07:59Z</time>
      </trkpt>
      <trkpt lat="49.86524" lon="2.30138">
        <ele>91.8</ele>
        <time>2021-04-28T14:08:00Z</time>
      </trkpt>
      <trkpt lat="49.86523" lon="2.30137">
        <ele>91.7</ele>
        <time>2021-04-28T14:08:01Z</time>
      </trkpt>
      <trkpt lat="49.86522" lon="2.30136">
        <ele>91.7</ele>
        <time>2021-04-28T14:08:03Z</time>
      </trkpt>
      <trkpt lat="49.86521" lon="2.30134">
        <ele>91.7</ele>
        <time>2021-04-28T14:08:04Z</time>
      </trkpt>
      <trkpt lat="49.8652" lon="2.30134">
        <ele>91.8</ele>
        <time>2021-04-28T14:08:05Z</time>
      </trkpt>
      <trkpt lat="49.8652" lon="2.30133">
        <ele>91.6</ele>
        <time>2021-04-28T14:08:06Z</time>
      </trkpt>
      <trkpt lat="49.86519" lon="2.30132">
        <ele>91.6</ele>
        <time>2021-04-28T14:08:08Z</time>
      </trkpt>
      <trkpt lat="49.86518" lon="2.3013">
        <ele>91.6</ele>
        <time>2021-04-28T14:08:09Z</time>
      </trkpt>
      <trkpt lat="49.86517" lon="2.3013">
        <ele>91.7</ele>
        <time>2021-04-28T14:08:10Z</time>
      </trkpt>
      <trkpt lat="49.86516" lon="2.30128">
        <ele>91.5</ele>
        <time>2021-04-28T14:08:11Z</time>
      </trkpt>
      <trkpt lat="49.86515" lon="2.30127">
        <ele>91.5</ele>
        <time>2021-04-28T14:08:13Z</time>
      </trkpt>
      <trkpt lat="49.86514" lon="2.30125">
        <ele>91.5</ele>
        <time>2021-04-28T14:08:14Z</time>
      </trkpt>
      <trkpt lat="49.86512" lon="2.30124">
        <ele>91.3</ele>
        <time>2021-04-28T14:08:16Z</time>
      </trkpt>
      <trkpt lat="49.86511" lon="2.30123">
        <ele>91.3</ele>
        <time>2021-04-28T14:08:17Z</time>
      </trkpt>
      <trkpt lat="49.86509" lon="2.30123">
        <ele>91.3</ele>
        <time>2021-04-28T14:08:18Z</time>
      </trkpt>
      <trkpt lat="49.86507" lon="2.30122">
        <ele>91.3</ele>
        <time>2021-04-28T14:08:20Z</time>
      </trkpt>
      <trkpt lat="49.86506" lon="2.30121">
        <ele>91.4</ele>
        <time>2021-04-28T14:08:21Z</time>
      </trkpt>
      <trkpt lat="49.86503" lon="2.30119">
        <ele>91.1</ele>
        <time>2021-04-28T14:08:23Z</time>
      </trkpt>
      <trkpt lat="49.86503" lon="2.30118">
        <ele>91.1</ele>
        <time>2021-04-28T14:08:24Z</time>
      </trkpt>
      <trkpt lat="49.86502" lon="2.30116">
        <ele>90.9</ele>
        <time>2021-04-28T14:08:25Z</time>
      </trkpt>
      <trkpt lat="49.86501" lon="2.30115">
        <ele>90.9</ele>
        <time>2021-04-28T14:08:27Z</time>
      </trkpt>
      <trkpt lat="49.865" lon="2.30114">
        <ele>90.9</ele>
        <time>2021-04-28T14:08:28Z</time>
      </trkpt>
      <trkpt lat="49.86499" lon="2.30112">
        <ele>90.7</ele>
        <time>2021-04-28T14:08:30Z</time>
      </trkpt>
      <trkpt lat="49.86499" lon="2.3011">
        <ele>90.7</ele>
        <time>2021-04-28T14:08:31Z</time>
      </trkpt>
      <trkpt lat="49.86497" lon="2.30108">
        <ele>90.7</ele>
        <time>2021-04-28T14:08:33Z</time>
      </trkpt>
      <trkpt lat="49.86496" lon="2.30106">
        <ele>90.5</ele>
        <time>2021-04-28T14:08:34Z</time>
      </trkpt>
      <trkpt lat="49.86496" lon="2.30105">
        <ele>90.5</ele>
        <time>2021-04-28T14:08:36Z</time>
      </trkpt>
      <trkpt lat="49.86495" lon="2.30103">
        <ele>90.3</ele>
        <time>2021-04-28T14:08:37Z</time>
      </trkpt>
      <trkpt lat="49.86495" lon="2.30102">
        <ele>90.3</ele>
        <time>2021-04-28T14:08:38Z</time>
      </trkpt>
      <trkpt lat="49.86494" lon="2.301">
        <ele>90.3</ele>
        <time>2021-04-28T14:08:39Z</time>
      </trkpt>
      <trkpt lat="49.86493" lon="2.30099">
        <ele>90.4</ele>
        <time>2021-04-28T14:08:41Z</time>
      </trkpt>
      <trkpt lat="49.86492" lon="2.30098">
        <ele>90.2</ele>
        <time>2021-04-28T14:08:43Z</time>
      </trkpt>
      <trkpt lat="49.86491" lon="2.30097">
        <ele>90.2</ele>
        <time>2021-04-28T14:08:44Z</time>
      </trkpt>
      <trkpt lat="49.8649" lon="2.30096">
        <ele>90.3</ele>
        <time>2021-04-28T14:08:45Z</time>
      </trkpt>
      <trkpt lat="49.86489" lon="2.30095">
        <ele>90.3</ele>
        <time>2021-04-28T14:08:46Z</time>
      </trkpt>
      <trkpt lat="49.86488" lon="2.30094">
        <ele>90.1</ele>
        <time>2021-04-28T14:08:47Z</time>
      </trkpt>
      <trkpt lat="49.86488" lon="2.30092">
        <ele>90.2</ele>
        <time>2021-04-28T14:08:49Z</time>
      </trkpt>
      <trkpt lat="49.86487" lon="2.30091">
        <ele>90.2</ele>
        <time>2021-04-28T14:08:50Z</time>
      </trkpt>
      <trkpt lat="49.86487" lon="2.3009">
        <ele>90.1</ele>
        <time>2021-04-28T14:08:52Z</time>
      </trkpt>
      <trkpt lat="49.86487" lon="2.3009">
        <ele>90.1</ele>
        <time>2021-04-28T14:08:53Z</time>
      </trkpt>
      <trkpt lat="49.86486" lon="2.30088">
        <ele>90.1</ele>
        <time>2021-04-28T14:08:54Z</time>
      </trkpt>
      <trkpt lat="49.86486" lon="2.30088">
        <ele>90.1</ele>
        <time>2021-04-28T14:08:55Z</time>
      </trkpt>
      <trkpt lat="49.86485" lon="2.30087">
        <ele>90.2</ele>
        <time>2021-04-28T14:08:56Z</time>
      </trkpt>
      <trkpt lat="49.86484" lon="2.30085">
        <ele>90.1</ele>
        <time>2021-04-28T14:08:57Z</time>
      </trkpt>
      <trkpt lat="49.86484" lon="2.30085">
        <ele>90.1</ele>
        <time>2021-04-28T14:08:59Z</time>
      </trkpt>
      <trkpt lat="49.86483" lon="2.30084">
        <ele>90.1</ele>
        <time>2021-04-28T14:09:00Z</time>
      </trkpt>
      <trkpt lat="49.86482" lon="2.30083">
        <ele>90.2</ele>
        <time>2021-04-28T14:09:01Z</time>
      </trkpt>
      <trkpt lat="49.86481" lon="2.30083">
        <ele>90.2</ele>
        <time>2021-04-28T14:09:02Z</time>
      </trkpt>
      <trkpt lat="49.8648" lon="2.30082">
        <ele>90.1</ele>
        <time>2021-04-28T14:09:04Z</time>
      </trkpt>
      <trkpt lat="49.8648" lon="2.30081">
        <ele>90.1</ele>
        <time>2021-04-28T14:09:05Z</time>
      </trkpt>
      <trkpt lat="49.86479" lon="2.3008">
        <ele>90.3</ele>
        <time>2021-04-28T14:09:06Z</time>
      </trkpt>
      <trkpt lat="49.86479" lon="2.3008">
        <ele>90.3</ele>
        <time>2021-04-28T14:09:07Z</time>
      </trkpt>
      <trkpt lat="49.86477" lon="2.30078">
        <ele>90.3</ele>
        <time>2021-04-28T14:09:09Z</time>
      </trkpt>
      <trkpt lat="49.86477" lon="2.30078">
        <ele>90.4</ele>
        <time>2021-04-28T14:09:10Z</time>
      </trkpt>
      <trkpt lat="49.86476" lon="2.30077">
        <ele>90.4</ele>
        <time>2021-04-28T14:09:11Z</time>
      </trkpt>
      <trkpt lat="49.86475" lon="2.30076">
        <ele>90.4</ele>
        <time>2021-04-28T14:09:12Z</time>
      </trkpt>
      <trkpt lat="49.86474" lon="2.30076">
        <ele>90.4</ele>
        <time>2021-04-28T14:09:13Z</time>
      </trkpt>
      <trkpt lat="49.86473" lon="2.30075">
        <ele>90.5</ele>
        <time>2021-04-28T14:09:15Z</time>
      </trkpt>
      <trkpt lat="49.86472" lon="2.30074">
        <ele>90.5</ele>
        <time>2021-04-28T14:09:16Z</time>
      </trkpt>
      <trkpt lat="49.8647" lon="2.30072">
        <ele>90.6</ele>
        <time>2021-04-28T14:09:18Z</time>
      </trkpt>
      <trkpt lat="49.86469" lon="2.30072">
        <ele>90.6</ele>
        <time>2021-04-28T14:09:19Z</time>
      </trkpt>
      <trkpt lat="49.86468" lon="2.30071">
        <ele>90.8</ele>
        <time>2021-04-28T14:09:20Z</time>
      </trkpt>
      <trkpt lat="49.86467" lon="2.30071">
        <ele>90.8</ele>
        <time>2021-04-28T14:09:22Z</time>
      </trkpt>
      <trkpt lat="49.86466" lon="2.3007">
        <ele>90.8</ele>
        <time>2021-04-28T14:09:23Z</time>
      </trkpt>
      <trkpt lat="49.86464" lon="2.30068">
        <ele>90.9</ele>
        <time>2021-04-28T14:09:24Z</time>
      </trkpt>
      <trkpt lat="49.86463" lon="2.30068">
        <ele>90.9</ele>
        <time>2021-04-28T14:09:25Z</time>
      </trkpt>
      <trkpt lat="49.86462" lon="2.30067">
        <ele>91</ele>
        <time>2021-04-28T14:09:26Z</time>
      </trkpt>
      <trkpt lat="49.86462" lon="2.30066">
        <ele>91</ele>
        <time>2021-04-28T14:09:28Z</time>
      </trkpt>
      <trkpt lat="49.8646" lon="2.30065">
        <ele>91.1</ele>
        <time>2021-04-28T14:09:30Z</time>
      </trkpt>
      <trkpt lat="49.86459" lon="2.30064">
        <ele>91.1</ele>
        <time>2021-04-28T14:09:31Z</time>
      </trkpt>
      <trkpt lat="49.86459" lon="2.30063">
        <ele>91.1</ele>
        <time>2021-04-28T14:09:32Z</time>
      </trkpt>
      <trkpt lat="49.86458" lon="2.30062">
        <ele>91.1</ele>
        <time>2021-04-28T14:09:33Z</time>
      </trkpt>
      <trkpt lat="49.86457" lon="2.30061">
        <ele>91.3</ele>
        <time>2021-04-28T14:09:34Z</time>
      </trkpt>
      <trkpt lat="49.86456" lon="2.30059">
        <ele>91.2</ele>
        <time>2021-04-28T14:09:36Z</time>
      </trkpt>
      <trkpt lat="49.86455" lon="2.30059">
        <ele>91.2</ele>
        <time>2021-04-28T14:09:37Z</time>
      </trkpt>
      <trkpt lat="49.86455" lon="2.30058">
        <ele>91.2</ele>
        <time>2021-04-28T14:09:38Z</time>
      </trkpt>
      <trkpt lat="49.86454" lon="2.30057">
        <ele>91.4</ele>
        <time>2021-04-28T14:09:39Z</time>
      </trkpt>
      <trkpt lat="49.86454" lon="2.30056">
        <ele>91.3</ele>
        <time>2021-04-28T14:09:41Z</time>
      </trkpt>
      <trkpt lat="49.86454" lon="2.30055">
        <ele>91.3</ele>
        <time>2021-04-28T14:09:42Z</time>
      </trkpt>
      <trkpt lat="49.86453" lon="2.30054">
        <ele>91.4</ele>
        <time>2021-04-28T14:09:43Z</time>
      </trkpt>
      <trkpt lat="49.86452" lon="2.30053">
        <ele>91.4</ele>
        <time>2021-04-28T14:09:44Z</time>
      </trkpt>
      <trkpt lat="49.86452" lon="2.30053">
        <ele>91.4</ele>
        <time>2021-04-28T14:09:46Z</time>
      </trkpt>
      <trkpt lat="49.86452" lon="2.30052">
        <ele>91.5</ele>
        <time>2021-04-28T14:09:47Z</time>
      </trkpt>
      <trkpt lat="49.86452" lon="2.30051">
        <ele>91.5</ele>
        <time>2021-04-28T14:09:49Z</time>
      </trkpt>
      <trkpt lat="49.86452" lon="2.3005">
        <ele>91.3</ele>
        <time>2021-04-28T14:09:50Z</time>
      </trkpt>
      <trkpt lat="49.86452" lon="2.30049">
        <ele>91.3</ele>
        <time>2021-04-28T14:09:51Z</time>
      </trkpt>
      <trkpt lat="49.86452" lon="2.30048">
        <ele>91.3</ele>
        <time>2021-04-28T14:09:52Z</time>
      </trkpt>
      <trkpt lat="49.86452" lon="2.30047">
        <ele>91.3</ele>
        <time>2021-04-28T14:09:53Z</time>
      </trkpt>
      <trkpt lat="49.86452" lon="2.30046">
        <ele>91.4</ele>
        <time>2021-04-28T14:09:55Z</time>
      </trkpt>
      <trkpt lat="49.86451" lon="2.30045">
        <ele>91.4</ele>
        <time>2021-04-28T14:09:56Z</time>
      </trkpt>
      <trkpt lat="49.86451" lon="2.30044">
        <ele>91.5</ele>
        <time>2021-04-28T14:09:57Z</time>
      </trkpt>
      <trkpt lat="49.8645" lon="2.30041">
        <ele>91.4</ele>
        <time>2021-04-28T14:09:58Z</time>
      </trkpt>
      <trkpt lat="49.86449" lon="2.3004">
        <ele>91.4</ele>
        <time>2021-04-28T14:09:59Z</time>
      </trkpt>
      <trkpt lat="49.86449" lon="2.30039">
        <ele>91.5</ele>
        <time>2021-04-28T14:10:00Z</time>
      </trkpt>
      <trkpt lat="49.86448" lon="2.30035">
        <ele>91.5</ele>
        <time>2021-04-28T14:10:02Z</time>
      </trkpt>
      <trkpt lat="49.86447" lon="2.30033">
        <ele>91.5</ele>
        <time>2021-04-28T14:10:03Z</time>
      </trkpt>
      <trkpt lat="49.86447" lon="2.30032">
        <ele>91.5</ele>
        <time>2021-04-28T14:10:04Z</time>
      </trkpt>
      <trkpt lat="49.86446" lon="2.3003">
        <ele>91.6</ele>
        <time>2021-04-28T14:10:06Z</time>
      </trkpt>
      <trkpt lat="49.86445" lon="2.30029">
        <ele>91.6</ele>
        <time>2021-04-28T14:10:07Z</time>
      </trkpt>
      <trkpt lat="49.86444" lon="2.30028">
        <ele>91.6</ele>
        <time>2021-04-28T14:10:08Z</time>
      </trkpt>
      <trkpt lat="49.86443" lon="2.30026">
        <ele>91.7</ele>
        <time>2021-04-28T14:10:10Z</time>
      </trkpt>
      <trkpt lat="49.86442" lon="2.30025">
        <ele>91.7</ele>
        <time>2021-04-28T14:10:11Z</time>
      </trkpt>
      <trkpt lat="49.86441" lon="2.30023">
        <ele>91.7</ele>
        <time>2021-04-28T14:10:12Z</time>
      </trkpt>
      <trkpt lat="49.8644" lon="2.30022">
        <ele>91.8</ele>
        <time>2021-04-28T14:10:13Z</time>
      </trkpt>
      <trkpt lat="49.86439" lon="2.3002">
        <ele>91.8</ele>
        <time>2021-04-28T14:10:15Z</time>
      </trkpt>
      <trkpt lat="49.86437" lon="2.30018">
        <ele>92</ele>
        <time>2021-04-28T14:10:16Z</time>
      </trkpt>
      <trkpt lat="49.86436" lon="2.30017">
        <ele>91.9</ele>
        <time>2021-04-28T14:10:18Z</time>
      </trkpt>
      <trkpt lat="49.86435" lon="2.30016">
        <ele>92.1</ele>
        <time>2021-04-28T14:10:19Z</time>
      </trkpt>
      <trkpt lat="49.86434" lon="2.30015">
        <ele>92.1</ele>
        <time>2021-04-28T14:10:21Z</time>
      </trkpt>
      <trkpt lat="49.86433" lon="2.30014">
        <ele>92.3</ele>
        <time>2021-04-28T14:10:22Z</time>
      </trkpt>
      <trkpt lat="49.86431" lon="2.30013">
        <ele>92.3</ele>
        <time>2021-04-28T14:10:24Z</time>
      </trkpt>
      <trkpt lat="49.8643" lon="2.30012">
        <ele>92.3</ele>
        <time>2021-04-28T14:10:25Z</time>
      </trkpt>
      <trkpt lat="49.86429" lon="2.3001">
        <ele>92.5</ele>
        <time>2021-04-28T14:10:26Z</time>
      </trkpt>
      <trkpt lat="49.86428" lon="2.30009">
        <ele>92.5</ele>
        <time>2021-04-28T14:10:27Z</time>
      </trkpt>
      <trkpt lat="49.86428" lon="2.30009">
        <ele>92.5</ele>
        <time>2021-04-28T14:10:28Z</time>
      </trkpt>
      <trkpt lat="49.86427" lon="2.30008">
        <ele>92.5</ele>
        <time>2021-04-28T14:10:29Z</time>
      </trkpt>
      <trkpt lat="49.86426" lon="2.30007">
        <ele>92.7</ele>
        <time>2021-04-28T14:10:31Z</time>
      </trkpt>
      <trkpt lat="49.86426" lon="2.30006">
        <ele>92.7</ele>
        <time>2021-04-28T14:10:32Z</time>
      </trkpt>
      <trkpt lat="49.86425" lon="2.30005">
        <ele>92.7</ele>
        <time>2021-04-28T14:10:33Z</time>
      </trkpt>
      <trkpt lat="49.86423" lon="2.30003">
        <ele>92.9</ele>
        <time>2021-04-28T14:10:34Z</time>
      </trkpt>
      <trkpt lat="49.86423" lon="2.30002">
        <ele>92.9</ele>
        <time>2021-04-28T14:10:36Z</time>
      </trkpt>
      <trkpt lat="49.86422" lon="2.30001">
        <ele>92.9</ele>
        <time>2021-04-28T14:10:37Z</time>
      </trkpt>
      <trkpt lat="49.86421" lon="2.3">
        <ele>93.1</ele>
        <time>2021-04-28T14:10:38Z</time>
      </trkpt>
      <trkpt lat="49.8642" lon="2.29998">
        <ele>93.1</ele>
        <time>2021-04-28T14:10:39Z</time>
      </trkpt>
      <trkpt lat="49.8642" lon="2.29996">
        <ele>93.1</ele>
        <time>2021-04-28T14:10:41Z</time>
      </trkpt>
      <trkpt lat="49.8642" lon="2.29995">
        <ele>93.1</ele>
        <time>2021-04-28T14:10:42Z</time>
      </trkpt>
      <trkpt lat="49.8642" lon="2.29994">
        <ele>93.1</ele>
        <time>2021-04-28T14:10:44Z</time>
      </trkpt>
      <trkpt lat="49.86419" lon="2.29993">
        <ele>93.1</ele>
        <time>2021-04-28T14:10:45Z</time>
      </trkpt>
      <trkpt lat="49.86419" lon="2.29991">
        <ele>93.1</ele>
        <time>2021-04-28T14:10:46Z</time>
      </trkpt>
      <trkpt lat="49.86419" lon="2.2999">
        <ele>93.1</ele>
        <time>2021-04-28T14:10:48Z</time>
      </trkpt>
      <trkpt lat="49.86419" lon="2.29989">
        <ele>93.1</ele>
        <time>2021-04-28T14:10:49Z</time>
      </trkpt>
      <trkpt lat="49.86419" lon="2.29988">
        <ele>93.1</ele>
        <time>2021-04-28T14:10:50Z</time>
      </trkpt>
      <trkpt lat="49.86419" lon="2.29987">
        <ele>93.1</ele>
        <time>2021-04-28T14:10:51Z</time>
      </trkpt>
      <trkpt lat="49.86419" lon="2.29985">
        <ele>93.2</ele>
        <time>2021-04-28T14:10:53Z</time>
      </trkpt>
      <trkpt lat="49.86419" lon="2.29984">
        <ele>93.4</ele>
        <time>2021-04-28T14:10:54Z</time>
      </trkpt>
      <trkpt lat="49.86419" lon="2.29983">
        <ele>93.4</ele>
        <time>2021-04-28T14:10:55Z</time>
      </trkpt>
      <trkpt lat="49.86418" lon="2.29982">
        <ele>93.4</ele>
        <time>2021-04-28T14:10:56Z</time>
      </trkpt>
      <trkpt lat="49.86418" lon="2.29981">
        <ele>93.4</ele>
        <time>2021-04-28T14:10:58Z</time>
      </trkpt>
      <trkpt lat="49.86418" lon="2.2998">
        <ele>93.4</ele>
        <time>2021-04-28T14:10:59Z</time>
      </trkpt>
      <trkpt lat="49.86418" lon="2.29978">
        <ele>93.4</ele>
        <time>2021-04-28T14:11:00Z</time>
      </trkpt>
      <trkpt lat="49.86418" lon="2.29977">
        <ele>93.4</ele>
        <time>2021-04-28T14:11:01Z</time>
      </trkpt>
      <trkpt lat="49.86419" lon="2.29975">
        <ele>93.2</ele>
        <time>2021-04-28T14:11:03Z</time>
      </trkpt>
      <trkpt lat="49.8642" lon="2.29974">
        <ele>93.3</ele>
        <time>2021-04-28T14:11:04Z</time>
      </trkpt>
      <trkpt lat="49.86421" lon="2.29973">
        <ele>93.3</ele>
        <time>2021-04-28T14:11:05Z</time>
      </trkpt>
      <trkpt lat="49.86422" lon="2.29973">
        <ele>93.1</ele>
        <time>2021-04-28T14:11:06Z</time>
      </trkpt>
      <trkpt lat="49.86423" lon="2.29973">
        <ele>93.1</ele>
        <time>2021-04-28T14:11:08Z</time>
      </trkpt>
      <trkpt lat="49.86425" lon="2.29973">
        <ele>92.9</ele>
        <time>2021-04-28T14:11:09Z</time>
      </trkpt>
      <trkpt lat="49.86426" lon="2.29972">
        <ele>92.9</ele>
        <time>2021-04-28T14:11:10Z</time>
      </trkpt>
      <trkpt lat="49.86427" lon="2.29971">
        <ele>92.9</ele>
        <time>2021-04-28T14:11:11Z</time>
      </trkpt>
      <trkpt lat="49.86428" lon="2.2997">
        <ele>92.8</ele>
        <time>2021-04-28T14:11:13Z</time>
      </trkpt>
      <trkpt lat="49.86428" lon="2.29968">
        <ele>92.8</ele>
        <time>2021-04-28T14:11:14Z</time>
      </trkpt>
      <trkpt lat="49.86429" lon="2.29965">
        <ele>92.9</ele>
        <time>2021-04-28T14:11:15Z</time>
      </trkpt>
      <trkpt lat="49.86428" lon="2.29962">
        <ele>92.9</ele>
        <time>2021-04-28T14:11:16Z</time>
      </trkpt>
      <trkpt lat="49.86428" lon="2.2996">
        <ele>92.9</ele>
        <time>2021-04-28T14:11:18Z</time>
      </trkpt>
      <trkpt lat="49.86427" lon="2.29958">
        <ele>93.1</ele>
        <time>2021-04-28T14:11:19Z</time>
      </trkpt>
      <trkpt lat="49.86426" lon="2.29955">
        <ele>93.1</ele>
        <time>2021-04-28T14:11:20Z</time>
      </trkpt>
      <trkpt lat="49.86425" lon="2.29954">
        <ele>93.1</ele>
        <time>2021-04-28T14:11:22Z</time>
      </trkpt>
      <trkpt lat="49.86424" lon="2.29953">
        <ele>93.3</ele>
        <time>2021-04-28T14:11:23Z</time>
      </trkpt>
      <trkpt lat="49.86423" lon="2.2995">
        <ele>93.3</ele>
        <time>2021-04-28T14:11:25Z</time>
      </trkpt>
      <trkpt lat="49.86423" lon="2.29949">
        <ele>93.3</ele>
        <time>2021-04-28T14:11:26Z</time>
      </trkpt>
      <trkpt lat="49.86423" lon="2.29948">
        <ele>93.4</ele>
        <time>2021-04-28T14:11:27Z</time>
      </trkpt>
      <trkpt lat="49.86423" lon="2.29947">
        <ele>93.4</ele>
        <time>2021-04-28T14:11:29Z</time>
      </trkpt>
      <trkpt lat="49.86423" lon="2.29945">
        <ele>93.4</ele>
        <time>2021-04-28T14:11:30Z</time>
      </trkpt>
      <trkpt lat="49.86423" lon="2.29944">
        <ele>93.4</ele>
        <time>2021-04-28T14:11:31Z</time>
      </trkpt>
      <trkpt lat="49.86423" lon="2.29943">
        <ele>93.5</ele>
        <time>2021-04-28T14:11:32Z</time>
      </trkpt>
      <trkpt lat="49.86423" lon="2.29942">
        <ele>93.5</ele>
        <time>2021-04-28T14:11:34Z</time>
      </trkpt>
      <trkpt lat="49.86422" lon="2.29941">
        <ele>93.5</ele>
        <time>2021-04-28T14:11:35Z</time>
      </trkpt>
      <trkpt lat="49.86421" lon="2.29941">
        <ele>93.6</ele>
        <time>2021-04-28T14:11:36Z</time>
      </trkpt>
      <trkpt lat="49.8642" lon="2.29941">
        <ele>93.6</ele>
        <time>2021-04-28T14:11:37Z</time>
      </trkpt>
      <trkpt lat="49.86419" lon="2.2994">
        <ele>93.6</ele>
        <time>2021-04-28T14:11:39Z</time>
      </trkpt>
      <trkpt lat="49.86418" lon="2.2994">
        <ele>93.6</ele>
        <time>2021-04-28T14:11:40Z</time>
      </trkpt>
      <trkpt lat="49.86418" lon="2.29941">
        <ele>93.6</ele>
        <time>2021-04-28T14:11:41Z</time>
      </trkpt>
      <trkpt lat="49.86417" lon="2.29941">
        <ele>93.6</ele>
        <time>2021-04-28T14:11:42Z</time>
      </trkpt>
      <trkpt lat="49.86416" lon="2.29941">
        <ele>93.7</ele>
        <time>2021-04-28T14:11:43Z</time>
      </trkpt>
      <trkpt lat="49.86415" lon="2.2994">
        <ele>93.7</ele>
        <time>2021-04-28T14:11:44Z</time>
      </trkpt>
      <trkpt lat="49.86414" lon="2.2994">
        <ele>93.7</ele>
        <time>2021-04-28T14:11:46Z</time>
      </trkpt>
      <trkpt lat="49.86414" lon="2.29939">
        <ele>93.7</ele>
        <time>2021-04-28T14:11:47Z</time>
      </trkpt>
      <trkpt lat="49.86413" lon="2.29939">
        <ele>93.7</ele>
        <time>2021-04-28T14:11:48Z</time>
      </trkpt>
      <trkpt lat="49.86413" lon="2.29938">
        <ele>93.7</ele>
        <time>2021-04-28T14:11:49Z</time>
      </trkpt>
      <trkpt lat="49.86414" lon="2.29936">
        <ele>93.7</ele>
        <time>2021-04-28T14:11:50Z</time>
      </trkpt>
      <trkpt lat="49.86415" lon="2.29935">
        <ele>93.7</ele>
        <time>2021-04-28T14:11:51Z</time>
      </trkpt>
      <trkpt lat="49.86416" lon="2.29934">
        <ele>93.7</ele>
        <time>2021-04-28T14:11:52Z</time>
      </trkpt>
      <trkpt lat="49.86417" lon="2.29933">
        <ele>93.8</ele>
        <time>2021-04-28T14:11:54Z</time>
      </trkpt>
      <trkpt lat="49.86418" lon="2.2993">
        <ele>93.8</ele>
        <time>2021-04-28T14:11:55Z</time>
      </trkpt>
      <trkpt lat="49.86419" lon="2.2993">
        <ele>93.8</ele>
        <time>2021-04-28T14:11:56Z</time>
      </trkpt>
      <trkpt lat="49.8642" lon="2.29928">
        <ele>93.8</ele>
        <time>2021-04-28T14:11:57Z</time>
      </trkpt>
      <trkpt lat="49.86421" lon="2.29927">
        <ele>93.9</ele>
        <time>2021-04-28T14:11:58Z</time>
      </trkpt>
      <trkpt lat="49.86422" lon="2.29924">
        <ele>93.9</ele>
        <time>2021-04-28T14:12:00Z</time>
      </trkpt>
      <trkpt lat="49.86422" lon="2.29924">
        <ele>93.9</ele>
        <time>2021-04-28T14:12:01Z</time>
      </trkpt>
      <trkpt lat="49.86423" lon="2.29922">
        <ele>94</ele>
        <time>2021-04-28T14:12:02Z</time>
      </trkpt>
      <trkpt lat="49.86424" lon="2.29921">
        <ele>94</ele>
        <time>2021-04-28T14:12:03Z</time>
      </trkpt>
      <trkpt lat="49.86424" lon="2.29919">
        <ele>94</ele>
        <time>2021-04-28T14:12:05Z</time>
      </trkpt>
      <trkpt lat="49.86425" lon="2.29918">
        <ele>94.1</ele>
        <time>2021-04-28T14:12:06Z</time>
      </trkpt>
      <trkpt lat="49.86426" lon="2.29915">
        <ele>94.1</ele>
        <time>2021-04-28T14:12:08Z</time>
      </trkpt>
      <trkpt lat="49.86425" lon="2.29913">
        <ele>94.2</ele>
        <time>2021-04-28T14:12:10Z</time>
      </trkpt>
      <trkpt lat="49.86424" lon="2.29913">
        <ele>94.2</ele>
        <time>2021-04-28T14:12:12Z</time>
      </trkpt>
      <trkpt lat="49.86423" lon="2.29914">
        <ele>94.2</ele>
        <time>2021-04-28T14:12:13Z</time>
      </trkpt>
      <trkpt lat="49.86423" lon="2.29914">
        <ele>94.2</ele>
        <time>2021-04-28T14:12:14Z</time>
      </trkpt>
      <trkpt lat="49.86423" lon="2.29914">
        <ele>94.2</ele>
        <time>2021-04-28T14:12:16Z</time>
      </trkpt>
      <trkpt lat="49.86423" lon="2.29914">
        <ele>94.2</ele>
        <time>2021-04-28T14:12:18Z</time>
      </trkpt>
      <trkpt lat="49.86423" lon="2.29914">
        <ele>94.2</ele>
        <time>2021-04-28T14:12:20Z</time>
      </trkpt>
      <trkpt lat="49.86423" lon="2.29914">
        <ele>94.2</ele>
        <time>2021-04-28T14:12:21Z</time>
      </trkpt>
      <trkpt lat="49.86423" lon="2.29914">
        <ele>94.2</ele>
        <time>2021-04-28T14:12:23Z</time>
      </trkpt>
      <trkpt lat="49.86423" lon="2.29914">
        <ele>94.2</ele>
        <time>2021-04-28T14:12:24Z</time>
      </trkpt>
      <trkpt lat="49.86423" lon="2.29913">
        <ele>94.3</ele>
        <time>2021-04-28T14:12:26Z</time>
      </trkpt>
      <trkpt lat="49.86424" lon="2.29913">
        <ele>94.3</ele>
        <time>2021-04-28T14:12:27Z</time>
      </trkpt>
      <trkpt lat="49.86424" lon="2.29912">
        <ele>94.3</ele>
        <time>2021-04-28T14:12:28Z</time>
      </trkpt>
      <trkpt lat="49.86424" lon="2.29911">
        <ele>94.3</ele>
        <time>2021-04-28T14:12:29Z</time>
      </trkpt>
      <trkpt lat="49.86425" lon="2.29908">
        <ele>94.4</ele>
        <time>2021-04-28T14:12:30Z</time>
      </trkpt>
      <trkpt lat="49.86425" lon="2.29908">
        <ele>94.4</ele>
        <time>2021-04-28T14:12:32Z</time>
      </trkpt>
      <trkpt lat="49.86425" lon="2.29907">
        <ele>94.4</ele>
        <time>2021-04-28T14:12:33Z</time>
      </trkpt>
      <trkpt lat="49.86425" lon="2.29907">
        <ele>94.5</ele>
        <time>2021-04-28T14:12:35Z</time>
      </trkpt>
      <trkpt lat="49.86426" lon="2.29906">
        <ele>94.5</ele>
        <time>2021-04-28T14:12:36Z</time>
      </trkpt>
      <trkpt lat="49.86426" lon="2.29906">
        <ele>94.5</ele>
        <time>2021-04-28T14:12:38Z</time>
      </trkpt>
      <trkpt lat="49.86426" lon="2.29905">
        <ele>94.5</ele>
        <time>2021-04-28T14:12:39Z</time>
      </trkpt>
      <trkpt lat="49.86426" lon="2.29905">
        <ele>94.5</ele>
        <time>2021-04-28T14:12:41Z</time>
      </trkpt>
      <trkpt lat="49.86426" lon="2.29905">
        <ele>94.5</ele>
        <time>2021-04-28T14:12:42Z</time>
      </trkpt>
      <trkpt lat="49.86426" lon="2.29904">
        <ele>94.5</ele>
        <time>2021-04-28T14:12:43Z</time>
      </trkpt>
      <trkpt lat="49.86426" lon="2.29904">
        <ele>94.5</ele>
        <time>2021-04-28T14:12:45Z</time>
      </trkpt>
      <trkpt lat="49.86426" lon="2.29903">
        <ele>94.5</ele>
        <time>2021-04-28T14:12:47Z</time>
      </trkpt>
      <trkpt lat="49.86426" lon="2.29903">
        <ele>94.6</ele>
        <time>2021-04-28T14:12:49Z</time>
      </trkpt>
      <trkpt lat="49.86427" lon="2.29902">
        <ele>94.6</ele>
        <time>2021-04-28T14:12:50Z</time>
      </trkpt>
      <trkpt lat="49.86427" lon="2.29902">
        <ele>94.6</ele>
        <time>2021-04-28T14:12:51Z</time>
      </trkpt>
      <trkpt lat="49.86427" lon="2.29902">
        <ele>94.6</ele>
        <time>2021-04-28T14:12:53Z</time>
      </trkpt>
      <trkpt lat="49.86427" lon="2.29901">
        <ele>94.6</ele>
        <time>2021-04-28T14:12:54Z</time>
      </trkpt>
      <trkpt lat="49.86427" lon="2.29901">
        <ele>94.6</ele>
        <time>2021-04-28T14:12:56Z</time>
      </trkpt>
      <trkpt lat="49.86427" lon="2.299">
        <ele>94.6</ele>
        <time>2021-04-28T14:12:58Z</time>
      </trkpt>
      <trkpt lat="49.86427" lon="2.299">
        <ele>94.6</ele>
        <time>2021-04-28T14:12:59Z</time>
      </trkpt>
      <trkpt lat="49.86427" lon="2.299">
        <ele>94.7</ele>
        <time>2021-04-28T14:13:01Z</time>
      </trkpt>
      <trkpt lat="49.86428" lon="2.29899">
        <ele>94.7</ele>
        <time>2021-04-28T14:13:02Z</time>
      </trkpt>
      <trkpt lat="49.86428" lon="2.29899">
        <ele>94.7</ele>
        <time>2021-04-28T14:13:03Z</time>
      </trkpt>
      <trkpt lat="49.86428" lon="2.29898">
        <ele>94.7</ele>
        <time>2021-04-28T14:13:04Z</time>
      </trkpt>
      <trkpt lat="49.86428" lon="2.29898">
        <ele>94.7</ele>
        <time>2021-04-28T14:13:06Z</time>
      </trkpt>
      <trkpt lat="49.86428" lon="2.29897">
        <ele>94.7</ele>
        <time>2021-04-28T14:13:07Z</time>
      </trkpt>
      <trkpt lat="49.86428" lon="2.29897">
        <ele>94.7</ele>
        <time>2021-04-28T14:13:09Z</time>
      </trkpt>
      <trkpt lat="49.86428" lon="2.29897">
        <ele>94.7</ele>
        <time>2021-04-28T14:13:10Z</time>
      </trkpt>
      <trkpt lat="49.86428" lon="2.29896">
        <ele>94.7</ele>
        <time>2021-04-28T14:13:11Z</time>
      </trkpt>
      <trkpt lat="49.86428" lon="2.29896">
        <ele>94.8</ele>
        <time>2021-04-28T14:13:13Z</time>
      </trkpt>
      <trkpt lat="49.86429" lon="2.29895">
        <ele>94.8</ele>
        <time>2021-04-28T14:13:14Z</time>
      </trkpt>
      <trkpt lat="49.86429" lon="2.29895">
        <ele>94.8</ele>
        <time>2021-04-28T14:13:16Z</time>
      </trkpt>
      <trkpt lat="49.86429" lon="2.29894">
        <ele>94.8</ele>
        <time>2021-04-28T14:13:18Z</time>
      </trkpt>
      <trkpt lat="49.86429" lon="2.29894">
        <ele>94.8</ele>
        <time>2021-04-28T14:13:19Z</time>
      </trkpt>
      <trkpt lat="49.86429" lon="2.29894">
        <ele>94.8</ele>
        <time>2021-04-28T14:13:20Z</time>
      </trkpt>
      <trkpt lat="49.86429" lon="2.2989">
        <ele>94.9</ele>
        <time>2021-04-28T14:13:22Z</time>
      </trkpt>
      <trkpt lat="49.86429" lon="2.29889">
        <ele>94.9</ele>
        <time>2021-04-28T14:13:23Z</time>
      </trkpt>
      <trkpt lat="49.86428" lon="2.29888">
        <ele>95</ele>
        <time>2021-04-28T14:13:25Z</time>
      </trkpt>
      <trkpt lat="49.86428" lon="2.29886">
        <ele>95</ele>
        <time>2021-04-28T14:13:26Z</time>
      </trkpt>
      <trkpt lat="49.86428" lon="2.29885">
        <ele>95</ele>
        <time>2021-04-28T14:13:27Z</time>
      </trkpt>
      <trkpt lat="49.86427" lon="2.29884">
        <ele>95.1</ele>
        <time>2021-04-28T14:13:29Z</time>
      </trkpt>
      <trkpt lat="49.86427" lon="2.29882">
        <ele>95.1</ele>
        <time>2021-04-28T14:13:30Z</time>
      </trkpt>
      <trkpt lat="49.86427" lon="2.29878">
        <ele>95.2</ele>
        <time>2021-04-28T14:13:31Z</time>
      </trkpt>
      <trkpt lat="49.86427" lon="2.29877">
        <ele>95.2</ele>
        <time>2021-04-28T14:13:32Z</time>
      </trkpt>
      <trkpt lat="49.86427" lon="2.29872">
        <ele>95.3</ele>
        <time>2021-04-28T14:13:33Z</time>
      </trkpt>
      <trkpt lat="49.86427" lon="2.29871">
        <ele>95.4</ele>
        <time>2021-04-28T14:13:34Z</time>
      </trkpt>
      <trkpt lat="49.86426" lon="2.29868">
        <ele>95.4</ele>
        <time>2021-04-28T14:13:36Z</time>
      </trkpt>
      <trkpt lat="49.86426" lon="2.29866">
        <ele>95.5</ele>
        <time>2021-04-28T14:13:37Z</time>
      </trkpt>
      <trkpt lat="49.86426" lon="2.29865">
        <ele>95.5</ele>
        <time>2021-04-28T14:13:38Z</time>
      </trkpt>
      <trkpt lat="49.86426" lon="2.29861">
        <ele>95.6</ele>
        <time>2021-04-28T14:13:40Z</time>
      </trkpt>
      <trkpt lat="49.86426" lon="2.29859">
        <ele>95.6</ele>
        <time>2021-04-28T14:13:41Z</time>
      </trkpt>
      <trkpt lat="49.86426" lon="2.29855">
        <ele>95.7</ele>
        <time>2021-04-28T14:13:42Z</time>
      </trkpt>
      <trkpt lat="49.86426" lon="2.29854">
        <ele>95.7</ele>
        <time>2021-04-28T14:13:43Z</time>
      </trkpt>
      <trkpt lat="49.86426" lon="2.29852">
        <ele>95.8</ele>
        <time>2021-04-28T14:13:44Z</time>
      </trkpt>
      <trkpt lat="49.86426" lon="2.29851">
        <ele>95.8</ele>
        <time>2021-04-28T14:13:46Z</time>
      </trkpt>
      <trkpt lat="49.86426" lon="2.29849">
        <ele>95.8</ele>
        <time>2021-04-28T14:13:47Z</time>
      </trkpt>
      <trkpt lat="49.86426" lon="2.29847">
        <ele>95.9</ele>
        <time>2021-04-28T14:13:48Z</time>
      </trkpt>
      <trkpt lat="49.86425" lon="2.29844">
        <ele>95.9</ele>
        <time>2021-04-28T14:13:49Z</time>
      </trkpt>
      <trkpt lat="49.86425" lon="2.29842">
        <ele>96</ele>
        <time>2021-04-28T14:13:50Z</time>
      </trkpt>
      <trkpt lat="49.86425" lon="2.29841">
        <ele>96</ele>
        <time>2021-04-28T14:13:51Z</time>
      </trkpt>
      <trkpt lat="49.86424" lon="2.29838">
        <ele>96</ele>
        <time>2021-04-28T14:13:53Z</time>
      </trkpt>
      <trkpt lat="49.86424" lon="2.29837">
        <ele>96.1</ele>
        <time>2021-04-28T14:13:54Z</time>
      </trkpt>
      <trkpt lat="49.86424" lon="2.29836">
        <ele>96.1</ele>
        <time>2021-04-28T14:13:55Z</time>
      </trkpt>
      <trkpt lat="49.86424" lon="2.29833">
        <ele>96.1</ele>
        <time>2021-04-28T14:13:56Z</time>
      </trkpt>
      <trkpt lat="49.86424" lon="2.29831">
        <ele>96.2</ele>
        <time>2021-04-28T14:13:57Z</time>
      </trkpt>
      <trkpt lat="49.86424" lon="2.2983">
        <ele>96.2</ele>
        <time>2021-04-28T14:13:58Z</time>
      </trkpt>
      <trkpt lat="49.86423" lon="2.29827">
        <ele>96.2</ele>
        <time>2021-04-28T14:14:00Z</time>
      </trkpt>
      <trkpt lat="49.86423" lon="2.29826">
        <ele>96.2</ele>
        <time>2021-04-28T14:14:01Z</time>
      </trkpt>
      <trkpt lat="49.86423" lon="2.29824">
        <ele>96.3</ele>
        <time>2021-04-28T14:14:02Z</time>
      </trkpt>
      <trkpt lat="49.86423" lon="2.29823">
        <ele>96.3</ele>
        <time>2021-04-28T14:14:03Z</time>
      </trkpt>
      <trkpt lat="49.86423" lon="2.2982">
        <ele>96.3</ele>
        <time>2021-04-28T14:14:04Z</time>
      </trkpt>
      <trkpt lat="49.86423" lon="2.29819">
        <ele>96.3</ele>
        <time>2021-04-28T14:14:06Z</time>
      </trkpt>
      <trkpt lat="49.86423" lon="2.29817">
        <ele>96.4</ele>
        <time>2021-04-28T14:14:07Z</time>
      </trkpt>
      <trkpt lat="49.86423" lon="2.29815">
        <ele>96.4</ele>
        <time>2021-04-28T14:14:08Z</time>
      </trkpt>
      <trkpt lat="49.86422" lon="2.29811">
        <ele>96.4</ele>
        <time>2021-04-28T14:14:10Z</time>
      </trkpt>
      <trkpt lat="49.86422" lon="2.2981">
        <ele>96.4</ele>
        <time>2021-04-28T14:14:11Z</time>
      </trkpt>
      <trkpt lat="49.86422" lon="2.29808">
        <ele>96.5</ele>
        <time>2021-04-28T14:14:12Z</time>
      </trkpt>
      <trkpt lat="49.86422" lon="2.29806">
        <ele>96.5</ele>
        <time>2021-04-28T14:14:13Z</time>
      </trkpt>
      <trkpt lat="49.86422" lon="2.29803">
        <ele>96.5</ele>
        <time>2021-04-28T14:14:15Z</time>
      </trkpt>
      <trkpt lat="49.86423" lon="2.29803">
        <ele>96.5</ele>
        <time>2021-04-28T14:14:16Z</time>
      </trkpt>
      <trkpt lat="49.86423" lon="2.29801">
        <ele>96.5</ele>
        <time>2021-04-28T14:14:17Z</time>
      </trkpt>
      <trkpt lat="49.86423" lon="2.298">
        <ele>96.5</ele>
        <time>2021-04-28T14:14:18Z</time>
      </trkpt>
      <trkpt lat="49.86423" lon="2.29796">
        <ele>96.6</ele>
        <time>2021-04-28T14:14:20Z</time>
      </trkpt>
      <trkpt lat="49.86423" lon="2.29794">
        <ele>96.6</ele>
        <time>2021-04-28T14:14:21Z</time>
      </trkpt>
      <trkpt lat="49.86423" lon="2.29792">
        <ele>96.6</ele>
        <time>2021-04-28T14:14:22Z</time>
      </trkpt>
      <trkpt lat="49.86424" lon="2.29791">
        <ele>96.6</ele>
        <time>2021-04-28T14:14:24Z</time>
      </trkpt>
      <trkpt lat="49.86424" lon="2.2979">
        <ele>96.6</ele>
        <time>2021-04-28T14:14:25Z</time>
      </trkpt>
      <trkpt lat="49.86424" lon="2.29788">
        <ele>96.6</ele>
        <time>2021-04-28T14:14:26Z</time>
      </trkpt>
      <trkpt lat="49.86424" lon="2.29787">
        <ele>96.6</ele>
        <time>2021-04-28T14:14:27Z</time>
      </trkpt>
      <trkpt lat="49.86424" lon="2.29785">
        <ele>96.6</ele>
        <time>2021-04-28T14:14:28Z</time>
      </trkpt>
      <trkpt lat="49.86424" lon="2.29783">
        <ele>96.6</ele>
        <time>2021-04-28T14:14:30Z</time>
      </trkpt>
      <trkpt lat="49.86424" lon="2.29782">
        <ele>96.6</ele>
        <time>2021-04-28T14:14:31Z</time>
      </trkpt>
      <trkpt lat="49.86425" lon="2.2978">
        <ele>96.7</ele>
        <time>2021-04-28T14:14:32Z</time>
      </trkpt>
      <trkpt lat="49.86425" lon="2.29779">
        <ele>96.7</ele>
        <time>2021-04-28T14:14:33Z</time>
      </trkpt>
      <trkpt lat="49.86425" lon="2.29775">
        <ele>96.7</ele>
        <time>2021-04-28T14:14:35Z</time>
      </trkpt>
      <trkpt lat="49.86425" lon="2.29774">
        <ele>96.7</ele>
        <time>2021-04-28T14:14:36Z</time>
      </trkpt>
      <trkpt lat="49.86425" lon="2.29773">
        <ele>96.7</ele>
        <time>2021-04-28T14:14:37Z</time>
      </trkpt>
      <trkpt lat="49.86425" lon="2.29771">
        <ele>96.7</ele>
        <time>2021-04-28T14:14:38Z</time>
      </trkpt>
      <trkpt lat="49.86425" lon="2.29769">
        <ele>96.7</ele>
        <time>2021-04-28T14:14:40Z</time>
      </trkpt>
      <trkpt lat="49.86425" lon="2.29768">
        <ele>96.7</ele>
        <time>2021-04-28T14:14:41Z</time>
      </trkpt>
      <trkpt lat="49.86425" lon="2.29766">
        <ele>96.7</ele>
        <time>2021-04-28T14:14:42Z</time>
      </trkpt>
      <trkpt lat="49.86425" lon="2.29765">
        <ele>96.7</ele>
        <time>2021-04-28T14:14:43Z</time>
      </trkpt>
      <trkpt lat="49.86425" lon="2.29763">
        <ele>96.7</ele>
        <time>2021-04-28T14:14:44Z</time>
      </trkpt>
      <trkpt lat="49.86425" lon="2.29761">
        <ele>96.7</ele>
        <time>2021-04-28T14:14:45Z</time>
      </trkpt>
      <trkpt lat="49.86425" lon="2.2976">
        <ele>96.7</ele>
        <time>2021-04-28T14:14:47Z</time>
      </trkpt>
      <trkpt lat="49.86425" lon="2.29759">
        <ele>96.7</ele>
        <time>2021-04-28T14:14:48Z</time>
      </trkpt>
      <trkpt lat="49.86424" lon="2.29757">
        <ele>96.7</ele>
        <time>2021-04-28T14:14:49Z</time>
      </trkpt>
      <trkpt lat="49.86424" lon="2.29754">
        <ele>96.7</ele>
        <time>2021-04-28T14:14:50Z</time>
      </trkpt>
      <trkpt lat="49.86424" lon="2.29752">
        <ele>96.7</ele>
        <time>2021-04-28T14:14:51Z</time>
      </trkpt>
      <trkpt lat="49.86423" lon="2.29751">
        <ele>96.7</ele>
        <time>2021-04-28T14:14:52Z</time>
      </trkpt>
      <trkpt lat="49.86423" lon="2.2975">
        <ele>96.7</ele>
        <time>2021-04-28T14:14:54Z</time>
      </trkpt>
      <trkpt lat="49.86423" lon="2.29747">
        <ele>96.7</ele>
        <time>2021-04-28T14:14:55Z</time>
      </trkpt>
      <trkpt lat="49.86422" lon="2.29746">
        <ele>96.7</ele>
        <time>2021-04-28T14:14:56Z</time>
      </trkpt>
      <trkpt lat="49.86422" lon="2.29744">
        <ele>96.7</ele>
        <time>2021-04-28T14:14:57Z</time>
      </trkpt>
      <trkpt lat="49.86422" lon="2.29743">
        <ele>96.7</ele>
        <time>2021-04-28T14:14:58Z</time>
      </trkpt>
      <trkpt lat="49.86421" lon="2.29741">
        <ele>96.7</ele>
        <time>2021-04-28T14:14:59Z</time>
      </trkpt>
      <trkpt lat="49.86421" lon="2.29737">
        <ele>96.7</ele>
        <time>2021-04-28T14:15:01Z</time>
      </trkpt>
      <trkpt lat="49.86421" lon="2.29736">
        <ele>96.7</ele>
        <time>2021-04-28T14:15:02Z</time>
      </trkpt>
      <trkpt lat="49.86421" lon="2.29735">
        <ele>96.7</ele>
        <time>2021-04-28T14:15:03Z</time>
      </trkpt>
      <trkpt lat="49.86421" lon="2.29733">
        <ele>96.7</ele>
        <time>2021-04-28T14:15:04Z</time>
      </trkpt>
      <trkpt lat="49.86421" lon="2.29731">
        <ele>96.7</ele>
        <time>2021-04-28T14:15:05Z</time>
      </trkpt>
      <trkpt lat="49.86421" lon="2.29729">
        <ele>96.7</ele>
        <time>2021-04-28T14:15:06Z</time>
      </trkpt>
      <trkpt lat="49.8642" lon="2.29727">
        <ele>96.7</ele>
        <time>2021-04-28T14:15:08Z</time>
      </trkpt>
      <trkpt lat="49.8642" lon="2.29725">
        <ele>96.7</ele>
        <time>2021-04-28T14:15:09Z</time>
      </trkpt>
      <trkpt lat="49.8642" lon="2.29722">
        <ele>96.7</ele>
        <time>2021-04-28T14:15:10Z</time>
      </trkpt>
      <trkpt lat="49.8642" lon="2.29721">
        <ele>96.7</ele>
        <time>2021-04-28T14:15:11Z</time>
      </trkpt>
      <trkpt lat="49.8642" lon="2.2972">
        <ele>96.7</ele>
        <time>2021-04-28T14:15:12Z</time>
      </trkpt>
      <trkpt lat="49.8642" lon="2.29718">
        <ele>96.7</ele>
        <time>2021-04-28T14:15:13Z</time>
      </trkpt>
      <trkpt lat="49.86421" lon="2.29715">
        <ele>96.7</ele>
        <time>2021-04-28T14:15:15Z</time>
      </trkpt>
      <trkpt lat="49.86421" lon="2.29713">
        <ele>96.7</ele>
        <time>2021-04-28T14:15:16Z</time>
      </trkpt>
      <trkpt lat="49.86421" lon="2.29711">
        <ele>96.7</ele>
        <time>2021-04-28T14:15:17Z</time>
      </trkpt>
      <trkpt lat="49.86421" lon="2.2971">
        <ele>96.7</ele>
        <time>2021-04-28T14:15:18Z</time>
      </trkpt>
      <trkpt lat="49.86421" lon="2.29708">
        <ele>96.7</ele>
        <time>2021-04-28T14:15:20Z</time>
      </trkpt>
      <trkpt lat="49.86421" lon="2.29707">
        <ele>96.7</ele>
        <time>2021-04-28T14:15:21Z</time>
      </trkpt>
      <trkpt lat="49.86422" lon="2.29706">
        <ele>96.8</ele>
        <time>2021-04-28T14:15:22Z</time>
      </trkpt>
      <trkpt lat="49.86422" lon="2.29705">
        <ele>96.8</ele>
        <time>2021-04-28T14:15:23Z</time>
      </trkpt>
      <trkpt lat="49.86422" lon="2.29703">
        <ele>96.8</ele>
        <time>2021-04-28T14:15:24Z</time>
      </trkpt>
      <trkpt lat="49.86422" lon="2.29701">
        <ele>96.8</ele>
        <time>2021-04-28T14:15:26Z</time>
      </trkpt>
      <trkpt lat="49.86422" lon="2.29699">
        <ele>96.8</ele>
        <time>2021-04-28T14:15:27Z</time>
      </trkpt>
      <trkpt lat="49.86422" lon="2.29698">
        <ele>96.8</ele>
        <time>2021-04-28T14:15:28Z</time>
      </trkpt>
      <trkpt lat="49.86422" lon="2.29696">
        <ele>96.8</ele>
        <time>2021-04-28T14:15:29Z</time>
      </trkpt>
      <trkpt lat="49.86422" lon="2.29694">
        <ele>96.8</ele>
        <time>2021-04-28T14:15:30Z</time>
      </trkpt>
      <trkpt lat="49.86422" lon="2.29691">
        <ele>96.8</ele>
        <time>2021-04-28T14:15:31Z</time>
      </trkpt>
      <trkpt lat="49.86422" lon="2.2969">
        <ele>96.8</ele>
        <time>2021-04-28T14:15:33Z</time>
      </trkpt>
      <trkpt lat="49.86422" lon="2.29689">
        <ele>96.8</ele>
        <time>2021-04-28T14:15:34Z</time>
      </trkpt>
      <trkpt lat="49.86422" lon="2.29687">
        <ele>96.8</ele>
        <time>2021-04-28T14:15:35Z</time>
      </trkpt>
      <trkpt lat="49.86422" lon="2.29685">
        <ele>96.8</ele>
        <time>2021-04-28T14:15:36Z</time>
      </trkpt>
      <trkpt lat="49.86422" lon="2.29684">
        <ele>96.8</ele>
        <time>2021-04-28T14:15:37Z</time>
      </trkpt>
      <trkpt lat="49.86422" lon="2.29682">
        <ele>96.8</ele>
        <time>2021-04-28T14:15:38Z</time>
      </trkpt>
      <trkpt lat="49.86422" lon="2.2968">
        <ele>96.8</ele>
        <time>2021-04-28T14:15:40Z</time>
      </trkpt>
      <trkpt lat="49.86422" lon="2.29677">
        <ele>96.8</ele>
        <time>2021-04-28T14:15:41Z</time>
      </trkpt>
      <trkpt lat="49.86422" lon="2.29676">
        <ele>96.8</ele>
        <time>2021-04-28T14:15:42Z</time>
      </trkpt>
      <trkpt lat="49.86422" lon="2.29674">
        <ele>96.8</ele>
        <time>2021-04-28T14:15:43Z</time>
      </trkpt>
      <trkpt lat="49.86422" lon="2.29673">
        <ele>96.8</ele>
        <time>2021-04-28T14:15:44Z</time>
      </trkpt>
      <trkpt lat="49.86422" lon="2.2967">
        <ele>96.9</ele>
        <time>2021-04-28T14:15:45Z</time>
      </trkpt>
      <trkpt lat="49.86422" lon="2.29669">
        <ele>96.9</ele>
        <time>2021-04-28T14:15:46Z</time>
      </trkpt>
      <trkpt lat="49.86422" lon="2.29667">
        <ele>96.9</ele>
        <time>2021-04-28T14:15:48Z</time>
      </trkpt>
      <trkpt lat="49.86422" lon="2.29666">
        <ele>96.9</ele>
        <time>2021-04-28T14:15:49Z</time>
      </trkpt>
      <trkpt lat="49.86422" lon="2.29664">
        <ele>96.9</ele>
        <time>2021-04-28T14:15:50Z</time>
      </trkpt>
      <trkpt lat="49.86422" lon="2.29662">
        <ele>96.9</ele>
        <time>2021-04-28T14:15:51Z</time>
      </trkpt>
      <trkpt lat="49.86422" lon="2.2966">
        <ele>96.9</ele>
        <time>2021-04-28T14:15:52Z</time>
      </trkpt>
      <trkpt lat="49.86422" lon="2.29657">
        <ele>96.9</ele>
        <time>2021-04-28T14:15:53Z</time>
      </trkpt>
      <trkpt lat="49.86422" lon="2.29656">
        <ele>96.9</ele>
        <time>2021-04-28T14:15:55Z</time>
      </trkpt>
      <trkpt lat="49.86422" lon="2.29654">
        <ele>96.9</ele>
        <time>2021-04-28T14:15:56Z</time>
      </trkpt>
      <trkpt lat="49.86422" lon="2.29652">
        <ele>97</ele>
        <time>2021-04-28T14:15:58Z</time>
      </trkpt>
      <trkpt lat="49.86422" lon="2.29651">
        <ele>97</ele>
        <time>2021-04-28T14:15:59Z</time>
      </trkpt>
      <trkpt lat="49.86422" lon="2.29649">
        <ele>97</ele>
        <time>2021-04-28T14:16:00Z</time>
      </trkpt>
      <trkpt lat="49.86421" lon="2.29647">
        <ele>97</ele>
        <time>2021-04-28T14:16:01Z</time>
      </trkpt>
      <trkpt lat="49.86421" lon="2.29645">
        <ele>97</ele>
        <time>2021-04-28T14:16:02Z</time>
      </trkpt>
      <trkpt lat="49.86421" lon="2.29643">
        <ele>97</ele>
        <time>2021-04-28T14:16:04Z</time>
      </trkpt>
      <trkpt lat="49.8642" lon="2.29642">
        <ele>97</ele>
        <time>2021-04-28T14:16:05Z</time>
      </trkpt>
      <trkpt lat="49.86419" lon="2.29639">
        <ele>97.1</ele>
        <time>2021-04-28T14:16:06Z</time>
      </trkpt>
      <trkpt lat="49.86419" lon="2.29638">
        <ele>97.1</ele>
        <time>2021-04-28T14:16:07Z</time>
      </trkpt>
      <trkpt lat="49.86418" lon="2.29636">
        <ele>97.2</ele>
        <time>2021-04-28T14:16:09Z</time>
      </trkpt>
      <trkpt lat="49.86417" lon="2.29635">
        <ele>97.2</ele>
        <time>2021-04-28T14:16:10Z</time>
      </trkpt>
      <trkpt lat="49.86416" lon="2.29633">
        <ele>97.2</ele>
        <time>2021-04-28T14:16:11Z</time>
      </trkpt>
      <trkpt lat="49.86415" lon="2.29632">
        <ele>97.3</ele>
        <time>2021-04-28T14:16:12Z</time>
      </trkpt>
      <trkpt lat="49.86414" lon="2.29629">
        <ele>97.3</ele>
        <time>2021-04-28T14:16:14Z</time>
      </trkpt>
      <trkpt lat="49.86413" lon="2.29628">
        <ele>97.4</ele>
        <time>2021-04-28T14:16:15Z</time>
      </trkpt>
      <trkpt lat="49.86412" lon="2.29627">
        <ele>97.4</ele>
        <time>2021-04-28T14:16:16Z</time>
      </trkpt>
      <trkpt lat="49.86411" lon="2.29626">
        <ele>97.4</ele>
        <time>2021-04-28T14:16:18Z</time>
      </trkpt>
      <trkpt lat="49.86409" lon="2.29626">
        <ele>97.5</ele>
        <time>2021-04-28T14:16:19Z</time>
      </trkpt>
      <trkpt lat="49.86409" lon="2.29625">
        <ele>97.5</ele>
        <time>2021-04-28T14:16:20Z</time>
      </trkpt>
      <trkpt lat="49.86407" lon="2.29625">
        <ele>97.5</ele>
        <time>2021-04-28T14:16:21Z</time>
      </trkpt>
      <trkpt lat="49.86406" lon="2.29625">
        <ele>97.5</ele>
        <time>2021-04-28T14:16:22Z</time>
      </trkpt>
      <trkpt lat="49.86405" lon="2.29624">
        <ele>97.6</ele>
        <time>2021-04-28T14:16:24Z</time>
      </trkpt>
      <trkpt lat="49.86404" lon="2.29624">
        <ele>97.6</ele>
        <time>2021-04-28T14:16:25Z</time>
      </trkpt>
      <trkpt lat="49.86403" lon="2.29624">
        <ele>97.6</ele>
        <time>2021-04-28T14:16:26Z</time>
      </trkpt>
      <trkpt lat="49.86402" lon="2.29624">
        <ele>97.6</ele>
        <time>2021-04-28T14:16:27Z</time>
      </trkpt>
      <trkpt lat="49.86401" lon="2.29624">
        <ele>97.7</ele>
        <time>2021-04-28T14:16:28Z</time>
      </trkpt>
      <trkpt lat="49.864" lon="2.29624">
        <ele>97.7</ele>
        <time>2021-04-28T14:16:29Z</time>
      </trkpt>
      <trkpt lat="49.86398" lon="2.29624">
        <ele>97.7</ele>
        <time>2021-04-28T14:16:31Z</time>
      </trkpt>
      <trkpt lat="49.86396" lon="2.29624">
        <ele>97.8</ele>
        <time>2021-04-28T14:16:32Z</time>
      </trkpt>
      <trkpt lat="49.86395" lon="2.29624">
        <ele>97.8</ele>
        <time>2021-04-28T14:16:34Z</time>
      </trkpt>
      <trkpt lat="49.86395" lon="2.29624">
        <ele>97.8</ele>
        <time>2021-04-28T14:16:35Z</time>
      </trkpt>
      <trkpt lat="49.86393" lon="2.29624">
        <ele>97.8</ele>
        <time>2021-04-28T14:16:36Z</time>
      </trkpt>
      <trkpt lat="49.86392" lon="2.29623">
        <ele>97.9</ele>
        <time>2021-04-28T14:16:38Z</time>
      </trkpt>
      <trkpt lat="49.86391" lon="2.29623">
        <ele>97.9</ele>
        <time>2021-04-28T14:16:39Z</time>
      </trkpt>
      <trkpt lat="49.8639" lon="2.29623">
        <ele>97.9</ele>
        <time>2021-04-28T14:16:40Z</time>
      </trkpt>
      <trkpt lat="49.86388" lon="2.29623">
        <ele>98</ele>
        <time>2021-04-28T14:16:41Z</time>
      </trkpt>
      <trkpt lat="49.86387" lon="2.29622">
        <ele>98</ele>
        <time>2021-04-28T14:16:42Z</time>
      </trkpt>
      <trkpt lat="49.86386" lon="2.29622">
        <ele>98</ele>
        <time>2021-04-28T14:16:43Z</time>
      </trkpt>
      <trkpt lat="49.86385" lon="2.29622">
        <ele>98</ele>
        <time>2021-04-28T14:16:45Z</time>
      </trkpt>
      <trkpt lat="49.86384" lon="2.29622">
        <ele>98</ele>
        <time>2021-04-28T14:16:46Z</time>
      </trkpt>
      <trkpt lat="49.86383" lon="2.29622">
        <ele>98.1</ele>
        <time>2021-04-28T14:16:47Z</time>
      </trkpt>
      <trkpt lat="49.86382" lon="2.29621">
        <ele>98.1</ele>
        <time>2021-04-28T14:16:48Z</time>
      </trkpt>
      <trkpt lat="49.8638" lon="2.29621">
        <ele>98.1</ele>
        <time>2021-04-28T14:16:49Z</time>
      </trkpt>
      <trkpt lat="49.86379" lon="2.2962">
        <ele>98.1</ele>
        <time>2021-04-28T14:16:51Z</time>
      </trkpt>
      <trkpt lat="49.86377" lon="2.29619">
        <ele>98.2</ele>
        <time>2021-04-28T14:16:52Z</time>
      </trkpt>
      <trkpt lat="49.86376" lon="2.29619">
        <ele>98.2</ele>
        <time>2021-04-28T14:16:53Z</time>
      </trkpt>
      <trkpt lat="49.86376" lon="2.29619">
        <ele>98.2</ele>
        <time>2021-04-28T14:16:54Z</time>
      </trkpt>
      <trkpt lat="49.86375" lon="2.29619">
        <ele>98.2</ele>
        <time>2021-04-28T14:16:55Z</time>
      </trkpt>
      <trkpt lat="49.86373" lon="2.29618">
        <ele>98.2</ele>
        <time>2021-04-28T14:16:56Z</time>
      </trkpt>
      <trkpt lat="49.86372" lon="2.29618">
        <ele>98.3</ele>
        <time>2021-04-28T14:16:58Z</time>
      </trkpt>
      <trkpt lat="49.86371" lon="2.29618">
        <ele>98.3</ele>
        <time>2021-04-28T14:16:59Z</time>
      </trkpt>
      <trkpt lat="49.8637" lon="2.29618">
        <ele>98.3</ele>
        <time>2021-04-28T14:17:00Z</time>
      </trkpt>
      <trkpt lat="49.86369" lon="2.29618">
        <ele>98.3</ele>
        <time>2021-04-28T14:17:01Z</time>
      </trkpt>
      <trkpt lat="49.86368" lon="2.29617">
        <ele>98.3</ele>
        <time>2021-04-28T14:17:02Z</time>
      </trkpt>
      <trkpt lat="49.86366" lon="2.29617">
        <ele>98.4</ele>
        <time>2021-04-28T14:17:03Z</time>
      </trkpt>
      <trkpt lat="49.86365" lon="2.29617">
        <ele>98.4</ele>
        <time>2021-04-28T14:17:04Z</time>
      </trkpt>
      <trkpt lat="49.86364" lon="2.29617">
        <ele>98.4</ele>
        <time>2021-04-28T14:17:06Z</time>
      </trkpt>
      <trkpt lat="49.86363" lon="2.29617">
        <ele>98.4</ele>
        <time>2021-04-28T14:17:07Z</time>
      </trkpt>
      <trkpt lat="49.86362" lon="2.29617">
        <ele>98.4</ele>
        <time>2021-04-28T14:17:08Z</time>
      </trkpt>
      <trkpt lat="49.86361" lon="2.29617">
        <ele>98.5</ele>
        <time>2021-04-28T14:17:09Z</time>
      </trkpt>
      <trkpt lat="49.86359" lon="2.29616">
        <ele>98.5</ele>
        <time>2021-04-28T14:17:11Z</time>
      </trkpt>
      <trkpt lat="49.86357" lon="2.29616">
        <ele>98.5</ele>
        <time>2021-04-28T14:17:12Z</time>
      </trkpt>
      <trkpt lat="49.86356" lon="2.29615">
        <ele>98.5</ele>
        <time>2021-04-28T14:17:13Z</time>
      </trkpt>
      <trkpt lat="49.86355" lon="2.29615">
        <ele>98.5</ele>
        <time>2021-04-28T14:17:15Z</time>
      </trkpt>
      <trkpt lat="49.86354" lon="2.29614">
        <ele>98.6</ele>
        <time>2021-04-28T14:17:16Z</time>
      </trkpt>
      <trkpt lat="49.86353" lon="2.29614">
        <ele>98.6</ele>
        <time>2021-04-28T14:17:17Z</time>
      </trkpt>
      <trkpt lat="49.86351" lon="2.29613">
        <ele>98.6</ele>
        <time>2021-04-28T14:17:19Z</time>
      </trkpt>
      <trkpt lat="49.86351" lon="2.29613">
        <ele>98.6</ele>
        <time>2021-04-28T14:17:20Z</time>
      </trkpt>
      <trkpt lat="49.8635" lon="2.29612">
        <ele>98.6</ele>
        <time>2021-04-28T14:17:21Z</time>
      </trkpt>
      <trkpt lat="49.86349" lon="2.29612">
        <ele>98.7</ele>
        <time>2021-04-28T14:17:22Z</time>
      </trkpt>
      <trkpt lat="49.86347" lon="2.2961">
        <ele>98.7</ele>
        <time>2021-04-28T14:17:23Z</time>
      </trkpt>
      <trkpt lat="49.86346" lon="2.2961">
        <ele>98.7</ele>
        <time>2021-04-28T14:17:25Z</time>
      </trkpt>
      <trkpt lat="49.86345" lon="2.29609">
        <ele>98.7</ele>
        <time>2021-04-28T14:17:26Z</time>
      </trkpt>
      <trkpt lat="49.86344" lon="2.29609">
        <ele>98.7</ele>
        <time>2021-04-28T14:17:27Z</time>
      </trkpt>
      <trkpt lat="49.86343" lon="2.29608">
        <ele>98.7</ele>
        <time>2021-04-28T14:17:28Z</time>
      </trkpt>
      <trkpt lat="49.86342" lon="2.29607">
        <ele>98.8</ele>
        <time>2021-04-28T14:17:29Z</time>
      </trkpt>
      <trkpt lat="49.86341" lon="2.29606">
        <ele>98.8</ele>
        <time>2021-04-28T14:17:30Z</time>
      </trkpt>
      <trkpt lat="49.8634" lon="2.29604">
        <ele>98.8</ele>
        <time>2021-04-28T14:17:31Z</time>
      </trkpt>
      <trkpt lat="49.86339" lon="2.29603">
        <ele>98.8</ele>
        <time>2021-04-28T14:17:33Z</time>
      </trkpt>
      <trkpt lat="49.86338" lon="2.29602">
        <ele>98.8</ele>
        <time>2021-04-28T14:17:34Z</time>
      </trkpt>
      <trkpt lat="49.86338" lon="2.29601">
        <ele>98.8</ele>
        <time>2021-04-28T14:17:35Z</time>
      </trkpt>
      <trkpt lat="49.86337" lon="2.29598">
        <ele>98.9</ele>
        <time>2021-04-28T14:17:36Z</time>
      </trkpt>
      <trkpt lat="49.86336" lon="2.29597">
        <ele>98.9</ele>
        <time>2021-04-28T14:17:37Z</time>
      </trkpt>
      <trkpt lat="49.86336" lon="2.29596">
        <ele>98.9</ele>
        <time>2021-04-28T14:17:38Z</time>
      </trkpt>
      <trkpt lat="49.86335" lon="2.29594">
        <ele>98.9</ele>
        <time>2021-04-28T14:17:40Z</time>
      </trkpt>
      <trkpt lat="49.86335" lon="2.29592">
        <ele>98.9</ele>
        <time>2021-04-28T14:17:41Z</time>
      </trkpt>
      <trkpt lat="49.86335" lon="2.29591">
        <ele>98.9</ele>
        <time>2021-04-28T14:17:42Z</time>
      </trkpt>
      <trkpt lat="49.86334" lon="2.2959">
        <ele>99</ele>
        <time>2021-04-28T14:17:43Z</time>
      </trkpt>
      <trkpt lat="49.86334" lon="2.29588">
        <ele>99</ele>
        <time>2021-04-28T14:17:44Z</time>
      </trkpt>
      <trkpt lat="49.86334" lon="2.29585">
        <ele>99</ele>
        <time>2021-04-28T14:17:46Z</time>
      </trkpt>
      <trkpt lat="49.86334" lon="2.29583">
        <ele>99</ele>
        <time>2021-04-28T14:17:47Z</time>
      </trkpt>
      <trkpt lat="49.86334" lon="2.29581">
        <ele>99</ele>
        <time>2021-04-28T14:17:48Z</time>
      </trkpt>
      <trkpt lat="49.86334" lon="2.29579">
        <ele>99</ele>
        <time>2021-04-28T14:17:50Z</time>
      </trkpt>
      <trkpt lat="49.86335" lon="2.29576">
        <ele>99</ele>
        <time>2021-04-28T14:17:51Z</time>
      </trkpt>
      <trkpt lat="49.86335" lon="2.29574">
        <ele>99</ele>
        <time>2021-04-28T14:17:52Z</time>
      </trkpt>
      <trkpt lat="49.86335" lon="2.29571">
        <ele>99.1</ele>
        <time>2021-04-28T14:17:54Z</time>
      </trkpt>
      <trkpt lat="49.86336" lon="2.29569">
        <ele>99.1</ele>
        <time>2021-04-28T14:17:55Z</time>
      </trkpt>
      <trkpt lat="49.86336" lon="2.29568">
        <ele>99.1</ele>
        <time>2021-04-28T14:17:56Z</time>
      </trkpt>
      <trkpt lat="49.86336" lon="2.29567">
        <ele>99.1</ele>
        <time>2021-04-28T14:17:57Z</time>
      </trkpt>
      <trkpt lat="49.86336" lon="2.29565">
        <ele>99.1</ele>
        <time>2021-04-28T14:17:58Z</time>
      </trkpt>
      <trkpt lat="49.86337" lon="2.29563">
        <ele>99.1</ele>
        <time>2021-04-28T14:17:59Z</time>
      </trkpt>
      <trkpt lat="49.86337" lon="2.2956">
        <ele>99.1</ele>
        <time>2021-04-28T14:18:01Z</time>
      </trkpt>
      <trkpt lat="49.86337" lon="2.29558">
        <ele>99.1</ele>
        <time>2021-04-28T14:18:02Z</time>
      </trkpt>
      <trkpt lat="49.86338" lon="2.29555">
        <ele>99.1</ele>
        <time>2021-04-28T14:18:03Z</time>
      </trkpt>
      <trkpt lat="49.86338" lon="2.29553">
        <ele>99.1</ele>
        <time>2021-04-28T14:18:05Z</time>
      </trkpt>
      <trkpt lat="49.86338" lon="2.29552">
        <ele>99.1</ele>
        <time>2021-04-28T14:18:06Z</time>
      </trkpt>
      <trkpt lat="49.86338" lon="2.29551">
        <ele>99.1</ele>
        <time>2021-04-28T14:18:07Z</time>
      </trkpt>
      <trkpt lat="49.86338" lon="2.2955">
        <ele>99.1</ele>
        <time>2021-04-28T14:18:08Z</time>
      </trkpt>
      <trkpt lat="49.86338" lon="2.29548">
        <ele>99.1</ele>
        <time>2021-04-28T14:18:09Z</time>
      </trkpt>
      <trkpt lat="49.86338" lon="2.29546">
        <ele>99.1</ele>
        <time>2021-04-28T14:18:10Z</time>
      </trkpt>
      <trkpt lat="49.86338" lon="2.29545">
        <ele>99.2</ele>
        <time>2021-04-28T14:18:12Z</time>
      </trkpt>
      <trkpt lat="49.86339" lon="2.29543">
        <ele>99.2</ele>
        <time>2021-04-28T14:18:13Z</time>
      </trkpt>
      <trkpt lat="49.86339" lon="2.29541">
        <ele>99.2</ele>
        <time>2021-04-28T14:18:14Z</time>
      </trkpt>
      <trkpt lat="49.8634" lon="2.29539">
        <ele>99.2</ele>
        <time>2021-04-28T14:18:15Z</time>
      </trkpt>
      <trkpt lat="49.8634" lon="2.29537">
        <ele>99.2</ele>
        <time>2021-04-28T14:18:16Z</time>
      </trkpt>
      <trkpt lat="49.8634" lon="2.29536">
        <ele>99.2</ele>
        <time>2021-04-28T14:18:17Z</time>
      </trkpt>
      <trkpt lat="49.8634" lon="2.29534">
        <ele>99.2</ele>
        <time>2021-04-28T14:18:18Z</time>
      </trkpt>
      <trkpt lat="49.8634" lon="2.29532">
        <ele>99.2</ele>
        <time>2021-04-28T14:18:20Z</time>
      </trkpt>
      <trkpt lat="49.8634" lon="2.29529">
        <ele>99.2</ele>
        <time>2021-04-28T14:18:21Z</time>
      </trkpt>
      <trkpt lat="49.8634" lon="2.29527">
        <ele>99.2</ele>
        <time>2021-04-28T14:18:22Z</time>
      </trkpt>
      <trkpt lat="49.8634" lon="2.29524">
        <ele>99.2</ele>
        <time>2021-04-28T14:18:23Z</time>
      </trkpt>
      <trkpt lat="49.8634" lon="2.29523">
        <ele>99.2</ele>
        <time>2021-04-28T14:18:24Z</time>
      </trkpt>
      <trkpt lat="49.8634" lon="2.29522">
        <ele>99.2</ele>
        <time>2021-04-28T14:18:25Z</time>
      </trkpt>
      <trkpt lat="49.8634" lon="2.2952">
        <ele>99.2</ele>
        <time>2021-04-28T14:18:26Z</time>
      </trkpt>
      <trkpt lat="49.8634" lon="2.29518">
        <ele>99.2</ele>
        <time>2021-04-28T14:18:28Z</time>
      </trkpt>
      <trkpt lat="49.8634" lon="2.29516">
        <ele>99.2</ele>
        <time>2021-04-28T14:18:29Z</time>
      </trkpt>
      <trkpt lat="49.8634" lon="2.29515">
        <ele>99.2</ele>
        <time>2021-04-28T14:18:30Z</time>
      </trkpt>
      <trkpt lat="49.8634" lon="2.29512">
        <ele>99.2</ele>
        <time>2021-04-28T14:18:31Z</time>
      </trkpt>
      <trkpt lat="49.8634" lon="2.2951">
        <ele>99.2</ele>
        <time>2021-04-28T14:18:32Z</time>
      </trkpt>
      <trkpt lat="49.8634" lon="2.29509">
        <ele>99.2</ele>
        <time>2021-04-28T14:18:33Z</time>
      </trkpt>
      <trkpt lat="49.8634" lon="2.29507">
        <ele>99.2</ele>
        <time>2021-04-28T14:18:35Z</time>
      </trkpt>
      <trkpt lat="49.8634" lon="2.29504">
        <ele>99.2</ele>
        <time>2021-04-28T14:18:36Z</time>
      </trkpt>
      <trkpt lat="49.8634" lon="2.29503">
        <ele>99.2</ele>
        <time>2021-04-28T14:18:37Z</time>
      </trkpt>
      <trkpt lat="49.86341" lon="2.295">
        <ele>99.2</ele>
        <time>2021-04-28T14:18:39Z</time>
      </trkpt>
      <trkpt lat="49.86341" lon="2.29498">
        <ele>99.2</ele>
        <time>2021-04-28T14:18:40Z</time>
      </trkpt>
      <trkpt lat="49.86342" lon="2.29497">
        <ele>99.2</ele>
        <time>2021-04-28T14:18:41Z</time>
      </trkpt>
      <trkpt lat="49.86342" lon="2.29496">
        <ele>99.2</ele>
        <time>2021-04-28T14:18:42Z</time>
      </trkpt>
      <trkpt lat="49.86342" lon="2.29494">
        <ele>99.2</ele>
        <time>2021-04-28T14:18:43Z</time>
      </trkpt>
      <trkpt lat="49.86342" lon="2.29492">
        <ele>99.2</ele>
        <time>2021-04-28T14:18:44Z</time>
      </trkpt>
      <trkpt lat="49.86342" lon="2.2949">
        <ele>99.2</ele>
        <time>2021-04-28T14:18:45Z</time>
      </trkpt>
      <trkpt lat="49.86343" lon="2.29488">
        <ele>99.2</ele>
        <time>2021-04-28T14:18:46Z</time>
      </trkpt>
      <trkpt lat="49.86343" lon="2.29486">
        <ele>99.2</ele>
        <time>2021-04-28T14:18:48Z</time>
      </trkpt>
      <trkpt lat="49.86343" lon="2.29485">
        <ele>99.2</ele>
        <time>2021-04-28T14:18:49Z</time>
      </trkpt>
      <trkpt lat="49.86343" lon="2.29484">
        <ele>99.2</ele>
        <time>2021-04-28T14:18:50Z</time>
      </trkpt>
      <trkpt lat="49.86344" lon="2.29482">
        <ele>99.2</ele>
        <time>2021-04-28T14:18:51Z</time>
      </trkpt>
      <trkpt lat="49.86344" lon="2.2948">
        <ele>99.2</ele>
        <time>2021-04-28T14:18:52Z</time>
      </trkpt>
      <trkpt lat="49.86344" lon="2.29479">
        <ele>99.2</ele>
        <time>2021-04-28T14:18:53Z</time>
      </trkpt>
      <trkpt lat="49.86345" lon="2.29476">
        <ele>99.2</ele>
        <time>2021-04-28T14:18:54Z</time>
      </trkpt>
      <trkpt lat="49.86346" lon="2.29474">
        <ele>99.2</ele>
        <time>2021-04-28T14:18:56Z</time>
      </trkpt>
      <trkpt lat="49.86346" lon="2.29473">
        <ele>99.2</ele>
        <time>2021-04-28T14:18:57Z</time>
      </trkpt>
      <trkpt lat="49.86347" lon="2.29471">
        <ele>99.2</ele>
        <time>2021-04-28T14:18:58Z</time>
      </trkpt>
      <trkpt lat="49.86347" lon="2.2947">
        <ele>99.2</ele>
        <time>2021-04-28T14:18:59Z</time>
      </trkpt>
      <trkpt lat="49.86347" lon="2.29468">
        <ele>99.2</ele>
        <time>2021-04-28T14:19:00Z</time>
      </trkpt>
      <trkpt lat="49.86347" lon="2.29467">
        <ele>99.2</ele>
        <time>2021-04-28T14:19:01Z</time>
      </trkpt>
      <trkpt lat="49.86347" lon="2.29465">
        <ele>99.2</ele>
        <time>2021-04-28T14:19:02Z</time>
      </trkpt>
      <trkpt lat="49.86347" lon="2.29464">
        <ele>99.2</ele>
        <time>2021-04-28T14:19:04Z</time>
      </trkpt>
      <trkpt lat="49.86347" lon="2.29462">
        <ele>99.2</ele>
        <time>2021-04-28T14:19:05Z</time>
      </trkpt>
      <trkpt lat="49.86348" lon="2.29459">
        <ele>99.1</ele>
        <time>2021-04-28T14:19:06Z</time>
      </trkpt>
      <trkpt lat="49.86348" lon="2.29458">
        <ele>99.1</ele>
        <time>2021-04-28T14:19:08Z</time>
      </trkpt>
      <trkpt lat="49.86348" lon="2.29457">
        <ele>99.1</ele>
        <time>2021-04-28T14:19:09Z</time>
      </trkpt>
      <trkpt lat="49.86348" lon="2.29455">
        <ele>99.1</ele>
        <time>2021-04-28T14:19:10Z</time>
      </trkpt>
      <trkpt lat="49.86349" lon="2.29452">
        <ele>99.1</ele>
        <time>2021-04-28T14:19:11Z</time>
      </trkpt>
      <trkpt lat="49.86349" lon="2.29451">
        <ele>99.1</ele>
        <time>2021-04-28T14:19:12Z</time>
      </trkpt>
      <trkpt lat="49.86349" lon="2.2945">
        <ele>99.1</ele>
        <time>2021-04-28T14:19:13Z</time>
      </trkpt>
      <trkpt lat="49.86349" lon="2.29448">
        <ele>99.1</ele>
        <time>2021-04-28T14:19:14Z</time>
      </trkpt>
      <trkpt lat="49.86349" lon="2.29447">
        <ele>99.1</ele>
        <time>2021-04-28T14:19:16Z</time>
      </trkpt>
      <trkpt lat="49.8635" lon="2.29445">
        <ele>99</ele>
        <time>2021-04-28T14:19:17Z</time>
      </trkpt>
      <trkpt lat="49.8635" lon="2.29444">
        <ele>99</ele>
        <time>2021-04-28T14:19:18Z</time>
      </trkpt>
      <trkpt lat="49.8635" lon="2.29441">
        <ele>99</ele>
        <time>2021-04-28T14:19:19Z</time>
      </trkpt>
      <trkpt lat="49.8635" lon="2.29439">
        <ele>99</ele>
        <time>2021-04-28T14:19:20Z</time>
      </trkpt>
      <trkpt lat="49.86351" lon="2.29438">
        <ele>99</ele>
        <time>2021-04-28T14:19:21Z</time>
      </trkpt>
      <trkpt lat="49.86351" lon="2.29436">
        <ele>99</ele>
        <time>2021-04-28T14:19:22Z</time>
      </trkpt>
      <trkpt lat="49.86351" lon="2.29435">
        <ele>99</ele>
        <time>2021-04-28T14:19:23Z</time>
      </trkpt>
      <trkpt lat="49.86351" lon="2.29434">
        <ele>99</ele>
        <time>2021-04-28T14:19:24Z</time>
      </trkpt>
      <trkpt lat="49.86351" lon="2.29432">
        <ele>98.9</ele>
        <time>2021-04-28T14:19:26Z</time>
      </trkpt>
      <trkpt lat="49.86352" lon="2.29429">
        <ele>98.9</ele>
        <time>2021-04-28T14:19:27Z</time>
      </trkpt>
      <trkpt lat="49.86352" lon="2.29427">
        <ele>98.9</ele>
        <time>2021-04-28T14:19:28Z</time>
      </trkpt>
      <trkpt lat="49.86352" lon="2.29424">
        <ele>98.9</ele>
        <time>2021-04-28T14:19:29Z</time>
      </trkpt>
      <trkpt lat="49.86352" lon="2.29422">
        <ele>98.9</ele>
        <time>2021-04-28T14:19:30Z</time>
      </trkpt>
      <trkpt lat="49.86352" lon="2.29421">
        <ele>98.9</ele>
        <time>2021-04-28T14:19:31Z</time>
      </trkpt>
      <trkpt lat="49.86352" lon="2.29419">
        <ele>98.8</ele>
        <time>2021-04-28T14:19:32Z</time>
      </trkpt>
      <trkpt lat="49.86353" lon="2.29417">
        <ele>98.8</ele>
        <time>2021-04-28T14:19:33Z</time>
      </trkpt>
      <trkpt lat="49.86353" lon="2.29416">
        <ele>98.8</ele>
        <time>2021-04-28T14:19:35Z</time>
      </trkpt>
      <trkpt lat="49.86353" lon="2.29415">
        <ele>98.8</ele>
        <time>2021-04-28T14:19:36Z</time>
      </trkpt>
      <trkpt lat="49.86354" lon="2.29413">
        <ele>98.8</ele>
        <time>2021-04-28T14:19:37Z</time>
      </trkpt>
      <trkpt lat="49.86354" lon="2.29411">
        <ele>98.8</ele>
        <time>2021-04-28T14:19:38Z</time>
      </trkpt>
      <trkpt lat="49.86354" lon="2.2941">
        <ele>98.8</ele>
        <time>2021-04-28T14:19:39Z</time>
      </trkpt>
      <trkpt lat="49.86354" lon="2.29408">
        <ele>98.7</ele>
        <time>2021-04-28T14:19:40Z</time>
      </trkpt>
      <trkpt lat="49.86355" lon="2.29404">
        <ele>98.7</ele>
        <time>2021-04-28T14:19:41Z</time>
      </trkpt>
      <trkpt lat="49.86355" lon="2.29403">
        <ele>98.7</ele>
        <time>2021-04-28T14:19:42Z</time>
      </trkpt>
      <trkpt lat="49.86355" lon="2.29402">
        <ele>98.7</ele>
        <time>2021-04-28T14:19:44Z</time>
      </trkpt>
      <trkpt lat="49.86355" lon="2.294">
        <ele>98.7</ele>
        <time>2021-04-28T14:19:45Z</time>
      </trkpt>
      <trkpt lat="49.86355" lon="2.29398">
        <ele>98.7</ele>
        <time>2021-04-28T14:19:46Z</time>
      </trkpt>
      <trkpt lat="49.86355" lon="2.29396">
        <ele>98.7</ele>
        <time>2021-04-28T14:19:47Z</time>
      </trkpt>
      <trkpt lat="49.86355" lon="2.29395">
        <ele>98.6</ele>
        <time>2021-04-28T14:19:48Z</time>
      </trkpt>
      <trkpt lat="49.86356" lon="2.29391">
        <ele>98.6</ele>
        <time>2021-04-28T14:19:49Z</time>
      </trkpt>
      <trkpt lat="49.86356" lon="2.29389">
        <ele>98.6</ele>
        <time>2021-04-28T14:19:50Z</time>
      </trkpt>
      <trkpt lat="49.86356" lon="2.29388">
        <ele>98.6</ele>
        <time>2021-04-28T14:19:51Z</time>
      </trkpt>
      <trkpt lat="49.86356" lon="2.29387">
        <ele>98.6</ele>
        <time>2021-04-28T14:19:53Z</time>
      </trkpt>
      <trkpt lat="49.86356" lon="2.29385">
        <ele>98.6</ele>
        <time>2021-04-28T14:19:54Z</time>
      </trkpt>
      <trkpt lat="49.86356" lon="2.29383">
        <ele>98.6</ele>
        <time>2021-04-28T14:19:55Z</time>
      </trkpt>
      <trkpt lat="49.86356" lon="2.2938">
        <ele>98.6</ele>
        <time>2021-04-28T14:19:56Z</time>
      </trkpt>
      <trkpt lat="49.86356" lon="2.29379">
        <ele>98.6</ele>
        <time>2021-04-28T14:19:57Z</time>
      </trkpt>
      <trkpt lat="49.86356" lon="2.29377">
        <ele>98.6</ele>
        <time>2021-04-28T14:19:58Z</time>
      </trkpt>
      <trkpt lat="49.86356" lon="2.29375">
        <ele>98.5</ele>
        <time>2021-04-28T14:19:59Z</time>
      </trkpt>
      <trkpt lat="49.86356" lon="2.29374">
        <ele>98.5</ele>
        <time>2021-04-28T14:20:01Z</time>
      </trkpt>
      <trkpt lat="49.86356" lon="2.29371">
        <ele>98.5</ele>
        <time>2021-04-28T14:20:02Z</time>
      </trkpt>
      <trkpt lat="49.86355" lon="2.2937">
        <ele>98.5</ele>
        <time>2021-04-28T14:20:03Z</time>
      </trkpt>
      <trkpt lat="49.86356" lon="2.29366">
        <ele>98.5</ele>
        <time>2021-04-28T14:20:04Z</time>
      </trkpt>
      <trkpt lat="49.86356" lon="2.29365">
        <ele>98.5</ele>
        <time>2021-04-28T14:20:05Z</time>
      </trkpt>
      <trkpt lat="49.86356" lon="2.29363">
        <ele>98.5</ele>
        <time>2021-04-28T14:20:06Z</time>
      </trkpt>
      <trkpt lat="49.86356" lon="2.29362">
        <ele>98.5</ele>
        <time>2021-04-28T14:20:07Z</time>
      </trkpt>
      <trkpt lat="49.86357" lon="2.29361">
        <ele>98.5</ele>
        <time>2021-04-28T14:20:09Z</time>
      </trkpt>
      <trkpt lat="49.86357" lon="2.29359">
        <ele>98.5</ele>
        <time>2021-04-28T14:20:10Z</time>
      </trkpt>
      <trkpt lat="49.86357" lon="2.29357">
        <ele>98.5</ele>
        <time>2021-04-28T14:20:11Z</time>
      </trkpt>
      <trkpt lat="49.86357" lon="2.29354">
        <ele>98.5</ele>
        <time>2021-04-28T14:20:12Z</time>
      </trkpt>
      <trkpt lat="49.86357" lon="2.29353">
        <ele>98.5</ele>
        <time>2021-04-28T14:20:13Z</time>
      </trkpt>
      <trkpt lat="49.86358" lon="2.29351">
        <ele>98.5</ele>
        <time>2021-04-28T14:20:14Z</time>
      </trkpt>
      <trkpt lat="49.86358" lon="2.29349">
        <ele>98.5</ele>
        <time>2021-04-28T14:20:15Z</time>
      </trkpt>
      <trkpt lat="49.86358" lon="2.29347">
        <ele>98.5</ele>
        <time>2021-04-28T14:20:16Z</time>
      </trkpt>
      <trkpt lat="49.86358" lon="2.29346">
        <ele>98.5</ele>
        <time>2021-04-28T14:20:18Z</time>
      </trkpt>
      <trkpt lat="49.86358" lon="2.29344">
        <ele>98.5</ele>
        <time>2021-04-28T14:20:19Z</time>
      </trkpt>
      <trkpt lat="49.86359" lon="2.29341">
        <ele>98.4</ele>
        <time>2021-04-28T14:20:20Z</time>
      </trkpt>
      <trkpt lat="49.86359" lon="2.29339">
        <ele>98.4</ele>
        <time>2021-04-28T14:20:21Z</time>
      </trkpt>
      <trkpt lat="49.86359" lon="2.29338">
        <ele>98.4</ele>
        <time>2021-04-28T14:20:22Z</time>
      </trkpt>
      <trkpt lat="49.86359" lon="2.29336">
        <ele>98.4</ele>
        <time>2021-04-28T14:20:23Z</time>
      </trkpt>
      <trkpt lat="49.86359" lon="2.29335">
        <ele>98.4</ele>
        <time>2021-04-28T14:20:24Z</time>
      </trkpt>
      <trkpt lat="49.86359" lon="2.29333">
        <ele>98.4</ele>
        <time>2021-04-28T14:20:26Z</time>
      </trkpt>
      <trkpt lat="49.86359" lon="2.2933">
        <ele>98.4</ele>
        <time>2021-04-28T14:20:27Z</time>
      </trkpt>
      <trkpt lat="49.86359" lon="2.29329">
        <ele>98.4</ele>
        <time>2021-04-28T14:20:28Z</time>
      </trkpt>
      <trkpt lat="49.86359" lon="2.29328">
        <ele>98.4</ele>
        <time>2021-04-28T14:20:29Z</time>
      </trkpt>
      <trkpt lat="49.86359" lon="2.29326">
        <ele>98.4</ele>
        <time>2021-04-28T14:20:30Z</time>
      </trkpt>
      <trkpt lat="49.8636" lon="2.29324">
        <ele>98.4</ele>
        <time>2021-04-28T14:20:31Z</time>
      </trkpt>
      <trkpt lat="49.8636" lon="2.29323">
        <ele>98.4</ele>
        <time>2021-04-28T14:20:32Z</time>
      </trkpt>
      <trkpt lat="49.8636" lon="2.29321">
        <ele>98.4</ele>
        <time>2021-04-28T14:20:33Z</time>
      </trkpt>
      <trkpt lat="49.8636" lon="2.29319">
        <ele>98.4</ele>
        <time>2021-04-28T14:20:35Z</time>
      </trkpt>
      <trkpt lat="49.86361" lon="2.29317">
        <ele>98.4</ele>
        <time>2021-04-28T14:20:36Z</time>
      </trkpt>
      <trkpt lat="49.86361" lon="2.29314">
        <ele>98.4</ele>
        <time>2021-04-28T14:20:37Z</time>
      </trkpt>
      <trkpt lat="49.86361" lon="2.29313">
        <ele>98.4</ele>
        <time>2021-04-28T14:20:38Z</time>
      </trkpt>
      <trkpt lat="49.86362" lon="2.29312">
        <ele>98.4</ele>
        <time>2021-04-28T14:20:39Z</time>
      </trkpt>
      <trkpt lat="49.86362" lon="2.2931">
        <ele>98.4</ele>
        <time>2021-04-28T14:20:40Z</time>
      </trkpt>
      <trkpt lat="49.86362" lon="2.29307">
        <ele>98.4</ele>
        <time>2021-04-28T14:20:41Z</time>
      </trkpt>
      <trkpt lat="49.86362" lon="2.29307">
        <ele>98.4</ele>
        <time>2021-04-28T14:20:43Z</time>
      </trkpt>
      <trkpt lat="49.86363" lon="2.29305">
        <ele>98.3</ele>
        <time>2021-04-28T14:20:44Z</time>
      </trkpt>
      <trkpt lat="49.86363" lon="2.29303">
        <ele>98.3</ele>
        <time>2021-04-28T14:20:45Z</time>
      </trkpt>
      <trkpt lat="49.86363" lon="2.29301">
        <ele>98.3</ele>
        <time>2021-04-28T14:20:46Z</time>
      </trkpt>
      <trkpt lat="49.86364" lon="2.29299">
        <ele>98.3</ele>
        <time>2021-04-28T14:20:47Z</time>
      </trkpt>
      <trkpt lat="49.86364" lon="2.29297">
        <ele>98.3</ele>
        <time>2021-04-28T14:20:48Z</time>
      </trkpt>
      <trkpt lat="49.86364" lon="2.29295">
        <ele>98.3</ele>
        <time>2021-04-28T14:20:49Z</time>
      </trkpt>
      <trkpt lat="49.86364" lon="2.29294">
        <ele>98.3</ele>
        <time>2021-04-28T14:20:50Z</time>
      </trkpt>
      <trkpt lat="49.86365" lon="2.2929">
        <ele>98.3</ele>
        <time>2021-04-28T14:20:52Z</time>
      </trkpt>
      <trkpt lat="49.86365" lon="2.29289">
        <ele>98.3</ele>
        <time>2021-04-28T14:20:53Z</time>
      </trkpt>
      <trkpt lat="49.86365" lon="2.29288">
        <ele>98.3</ele>
        <time>2021-04-28T14:20:54Z</time>
      </trkpt>
      <trkpt lat="49.86365" lon="2.29285">
        <ele>98.3</ele>
        <time>2021-04-28T14:20:55Z</time>
      </trkpt>
      <trkpt lat="49.86366" lon="2.29284">
        <ele>98.3</ele>
        <time>2021-04-28T14:20:56Z</time>
      </trkpt>
      <trkpt lat="49.86366" lon="2.29282">
        <ele>98.3</ele>
        <time>2021-04-28T14:20:57Z</time>
      </trkpt>
      <trkpt lat="49.86366" lon="2.29281">
        <ele>98.3</ele>
        <time>2021-04-28T14:20:58Z</time>
      </trkpt>
      <trkpt lat="49.86366" lon="2.29279">
        <ele>98.3</ele>
        <time>2021-04-28T14:20:59Z</time>
      </trkpt>
      <trkpt lat="49.86366" lon="2.29277">
        <ele>98.3</ele>
        <time>2021-04-28T14:21:01Z</time>
      </trkpt>
      <trkpt lat="49.86367" lon="2.29274">
        <ele>98.3</ele>
        <time>2021-04-28T14:21:02Z</time>
      </trkpt>
      <trkpt lat="49.86367" lon="2.29273">
        <ele>98.3</ele>
        <time>2021-04-28T14:21:03Z</time>
      </trkpt>
      <trkpt lat="49.86367" lon="2.2927">
        <ele>98.2</ele>
        <time>2021-04-28T14:21:04Z</time>
      </trkpt>
      <trkpt lat="49.86367" lon="2.29269">
        <ele>98.2</ele>
        <time>2021-04-28T14:21:05Z</time>
      </trkpt>
      <trkpt lat="49.86367" lon="2.29267">
        <ele>98.2</ele>
        <time>2021-04-28T14:21:06Z</time>
      </trkpt>
      <trkpt lat="49.86368" lon="2.29265">
        <ele>98.2</ele>
        <time>2021-04-28T14:21:07Z</time>
      </trkpt>
      <trkpt lat="49.86368" lon="2.29264">
        <ele>98.2</ele>
        <time>2021-04-28T14:21:09Z</time>
      </trkpt>
      <trkpt lat="49.86368" lon="2.29262">
        <ele>98.2</ele>
        <time>2021-04-28T14:21:10Z</time>
      </trkpt>
      <trkpt lat="49.86367" lon="2.2926">
        <ele>98.2</ele>
        <time>2021-04-28T14:21:11Z</time>
      </trkpt>
      <trkpt lat="49.86367" lon="2.29258">
        <ele>98.2</ele>
        <time>2021-04-28T14:21:12Z</time>
      </trkpt>
      <trkpt lat="49.86367" lon="2.29256">
        <ele>98.2</ele>
        <time>2021-04-28T14:21:13Z</time>
      </trkpt>
      <trkpt lat="49.86367" lon="2.29254">
        <ele>98.2</ele>
        <time>2021-04-28T14:21:14Z</time>
      </trkpt>
      <trkpt lat="49.86367" lon="2.29253">
        <ele>98.2</ele>
        <time>2021-04-28T14:21:15Z</time>
      </trkpt>
      <trkpt lat="49.86368" lon="2.29251">
        <ele>98.2</ele>
        <time>2021-04-28T14:21:17Z</time>
      </trkpt>
      <trkpt lat="49.86368" lon="2.2925">
        <ele>98.2</ele>
        <time>2021-04-28T14:21:18Z</time>
      </trkpt>
      <trkpt lat="49.86368" lon="2.29248">
        <ele>98.2</ele>
        <time>2021-04-28T14:21:19Z</time>
      </trkpt>
      <trkpt lat="49.86368" lon="2.29246">
        <ele>98.2</ele>
        <time>2021-04-28T14:21:20Z</time>
      </trkpt>
      <trkpt lat="49.86369" lon="2.29245">
        <ele>98.2</ele>
        <time>2021-04-28T14:21:21Z</time>
      </trkpt>
      <trkpt lat="49.86369" lon="2.29243">
        <ele>98.2</ele>
        <time>2021-04-28T14:21:22Z</time>
      </trkpt>
      <trkpt lat="49.86369" lon="2.29241">
        <ele>98.2</ele>
        <time>2021-04-28T14:21:23Z</time>
      </trkpt>
      <trkpt lat="49.86369" lon="2.29239">
        <ele>98.2</ele>
        <time>2021-04-28T14:21:24Z</time>
      </trkpt>
      <trkpt lat="49.8637" lon="2.29238">
        <ele>98.2</ele>
        <time>2021-04-28T14:21:26Z</time>
      </trkpt>
      <trkpt lat="49.8637" lon="2.29235">
        <ele>98.2</ele>
        <time>2021-04-28T14:21:27Z</time>
      </trkpt>
      <trkpt lat="49.86371" lon="2.29235">
        <ele>98.2</ele>
        <time>2021-04-28T14:21:28Z</time>
      </trkpt>
      <trkpt lat="49.86371" lon="2.29233">
        <ele>98.2</ele>
        <time>2021-04-28T14:21:29Z</time>
      </trkpt>
      <trkpt lat="49.86371" lon="2.29231">
        <ele>98.2</ele>
        <time>2021-04-28T14:21:30Z</time>
      </trkpt>
      <trkpt lat="49.86372" lon="2.29229">
        <ele>98.2</ele>
        <time>2021-04-28T14:21:32Z</time>
      </trkpt>
      <trkpt lat="49.86372" lon="2.29228">
        <ele>98.2</ele>
        <time>2021-04-28T14:21:33Z</time>
      </trkpt>
      <trkpt lat="49.86373" lon="2.29226">
        <ele>98.2</ele>
        <time>2021-04-28T14:21:34Z</time>
      </trkpt>
      <trkpt lat="49.86374" lon="2.29225">
        <ele>98.3</ele>
        <time>2021-04-28T14:21:36Z</time>
      </trkpt>
      <trkpt lat="49.86374" lon="2.29223">
        <ele>98.3</ele>
        <time>2021-04-28T14:21:37Z</time>
      </trkpt>
      <trkpt lat="49.86374" lon="2.29222">
        <ele>98.3</ele>
        <time>2021-04-28T14:21:39Z</time>
      </trkpt>
      <trkpt lat="49.86375" lon="2.2922">
        <ele>98.3</ele>
        <time>2021-04-28T14:21:40Z</time>
      </trkpt>
      <trkpt lat="49.86375" lon="2.29217">
        <ele>98.3</ele>
        <time>2021-04-28T14:21:42Z</time>
      </trkpt>
      <trkpt lat="49.86376" lon="2.29216">
        <ele>98.3</ele>
        <time>2021-04-28T14:21:43Z</time>
      </trkpt>
      <trkpt lat="49.86376" lon="2.29213">
        <ele>98.3</ele>
        <time>2021-04-28T14:21:44Z</time>
      </trkpt>
      <trkpt lat="49.86376" lon="2.29211">
        <ele>98.3</ele>
        <time>2021-04-28T14:21:46Z</time>
      </trkpt>
      <trkpt lat="49.86376" lon="2.2921">
        <ele>98.3</ele>
        <time>2021-04-28T14:21:47Z</time>
      </trkpt>
      <trkpt lat="49.86377" lon="2.29208">
        <ele>98.4</ele>
        <time>2021-04-28T14:21:49Z</time>
      </trkpt>
      <trkpt lat="49.86377" lon="2.29206">
        <ele>98.4</ele>
        <time>2021-04-28T14:21:50Z</time>
      </trkpt>
      <trkpt lat="49.86377" lon="2.29205">
        <ele>98.4</ele>
        <time>2021-04-28T14:21:51Z</time>
      </trkpt>
      <trkpt lat="49.86378" lon="2.29202">
        <ele>98.4</ele>
        <time>2021-04-28T14:21:53Z</time>
      </trkpt>
      <trkpt lat="49.86378" lon="2.29201">
        <ele>98.4</ele>
        <time>2021-04-28T14:21:54Z</time>
      </trkpt>
      <trkpt lat="49.86378" lon="2.29197">
        <ele>98.5</ele>
        <time>2021-04-28T14:21:55Z</time>
      </trkpt>
      <trkpt lat="49.86378" lon="2.29196">
        <ele>98.5</ele>
        <time>2021-04-28T14:21:56Z</time>
      </trkpt>
      <trkpt lat="49.86379" lon="2.29195">
        <ele>98.5</ele>
        <time>2021-04-28T14:21:57Z</time>
      </trkpt>
      <trkpt lat="49.86378" lon="2.29194">
        <ele>98.5</ele>
        <time>2021-04-28T14:21:59Z</time>
      </trkpt>
      <trkpt lat="49.86378" lon="2.29192">
        <ele>98.5</ele>
        <time>2021-04-28T14:22:00Z</time>
      </trkpt>
      <trkpt lat="49.86378" lon="2.29188">
        <ele>98.6</ele>
        <time>2021-04-28T14:22:02Z</time>
      </trkpt>
      <trkpt lat="49.86378" lon="2.29186">
        <ele>98.6</ele>
        <time>2021-04-28T14:22:03Z</time>
      </trkpt>
      <trkpt lat="49.86378" lon="2.29184">
        <ele>98.6</ele>
        <time>2021-04-28T14:22:05Z</time>
      </trkpt>
      <trkpt lat="49.86378" lon="2.29183">
        <ele>98.6</ele>
        <time>2021-04-28T14:22:06Z</time>
      </trkpt>
      <trkpt lat="49.86379" lon="2.2918">
        <ele>98.6</ele>
        <time>2021-04-28T14:22:07Z</time>
      </trkpt>
      <trkpt lat="49.86379" lon="2.29179">
        <ele>98.6</ele>
        <time>2021-04-28T14:22:08Z</time>
      </trkpt>
      <trkpt lat="49.86379" lon="2.29177">
        <ele>98.7</ele>
        <time>2021-04-28T14:22:09Z</time>
      </trkpt>
      <trkpt lat="49.86379" lon="2.29174">
        <ele>98.7</ele>
        <time>2021-04-28T14:22:10Z</time>
      </trkpt>
      <trkpt lat="49.86379" lon="2.29172">
        <ele>98.7</ele>
        <time>2021-04-28T14:22:12Z</time>
      </trkpt>
      <trkpt lat="49.86379" lon="2.29171">
        <ele>98.7</ele>
        <time>2021-04-28T14:22:13Z</time>
      </trkpt>
      <trkpt lat="49.86379" lon="2.2917">
        <ele>98.7</ele>
        <time>2021-04-28T14:22:14Z</time>
      </trkpt>
      <trkpt lat="49.86379" lon="2.29168">
        <ele>98.7</ele>
        <time>2021-04-28T14:22:15Z</time>
      </trkpt>
      <trkpt lat="49.86379" lon="2.29166">
        <ele>98.8</ele>
        <time>2021-04-28T14:22:16Z</time>
      </trkpt>
      <trkpt lat="49.8638" lon="2.29164">
        <ele>98.8</ele>
        <time>2021-04-28T14:22:17Z</time>
      </trkpt>
      <trkpt lat="49.8638" lon="2.29162">
        <ele>98.8</ele>
        <time>2021-04-28T14:22:19Z</time>
      </trkpt>
      <trkpt lat="49.8638" lon="2.29161">
        <ele>98.8</ele>
        <time>2021-04-28T14:22:20Z</time>
      </trkpt>
      <trkpt lat="49.8638" lon="2.29159">
        <ele>98.8</ele>
        <time>2021-04-28T14:22:21Z</time>
      </trkpt>
      <trkpt lat="49.8638" lon="2.29156">
        <ele>98.8</ele>
        <time>2021-04-28T14:22:22Z</time>
      </trkpt>
      <trkpt lat="49.8638" lon="2.29155">
        <ele>98.9</ele>
        <time>2021-04-28T14:22:23Z</time>
      </trkpt>
      <trkpt lat="49.86381" lon="2.29153">
        <ele>98.9</ele>
        <time>2021-04-28T14:22:24Z</time>
      </trkpt>
      <trkpt lat="49.86381" lon="2.29152">
        <ele>98.9</ele>
        <time>2021-04-28T14:22:26Z</time>
      </trkpt>
      <trkpt lat="49.86381" lon="2.29149">
        <ele>98.9</ele>
        <time>2021-04-28T14:22:27Z</time>
      </trkpt>
      <trkpt lat="49.86382" lon="2.29147">
        <ele>98.9</ele>
        <time>2021-04-28T14:22:28Z</time>
      </trkpt>
      <trkpt lat="49.86382" lon="2.29144">
        <ele>99</ele>
        <time>2021-04-28T14:22:30Z</time>
      </trkpt>
      <trkpt lat="49.86382" lon="2.29143">
        <ele>99</ele>
        <time>2021-04-28T14:22:31Z</time>
      </trkpt>
      <trkpt lat="49.86382" lon="2.29142">
        <ele>99</ele>
        <time>2021-04-28T14:22:32Z</time>
      </trkpt>
      <trkpt lat="49.86382" lon="2.2914">
        <ele>99</ele>
        <time>2021-04-28T14:22:33Z</time>
      </trkpt>
      <trkpt lat="49.86383" lon="2.29139">
        <ele>99</ele>
        <time>2021-04-28T14:22:34Z</time>
      </trkpt>
      <trkpt lat="49.86383" lon="2.29137">
        <ele>99</ele>
        <time>2021-04-28T14:22:36Z</time>
      </trkpt>
      <trkpt lat="49.86383" lon="2.29135">
        <ele>99</ele>
        <time>2021-04-28T14:22:37Z</time>
      </trkpt>
      <trkpt lat="49.86384" lon="2.29133">
        <ele>99.1</ele>
        <time>2021-04-28T14:22:38Z</time>
      </trkpt>
      <trkpt lat="49.86385" lon="2.29132">
        <ele>99.1</ele>
        <time>2021-04-28T14:22:40Z</time>
      </trkpt>
      <trkpt lat="49.86385" lon="2.2913">
        <ele>99.1</ele>
        <time>2021-04-28T14:22:41Z</time>
      </trkpt>
      <trkpt lat="49.86385" lon="2.29129">
        <ele>99.1</ele>
        <time>2021-04-28T14:22:42Z</time>
      </trkpt>
      <trkpt lat="49.86385" lon="2.29126">
        <ele>99.2</ele>
        <time>2021-04-28T14:22:43Z</time>
      </trkpt>
      <trkpt lat="49.86386" lon="2.29125">
        <ele>99.2</ele>
        <time>2021-04-28T14:22:45Z</time>
      </trkpt>
      <trkpt lat="49.86386" lon="2.29123">
        <ele>99.2</ele>
        <time>2021-04-28T14:22:46Z</time>
      </trkpt>
      <trkpt lat="49.86386" lon="2.29122">
        <ele>99.2</ele>
        <time>2021-04-28T14:22:47Z</time>
      </trkpt>
      <trkpt lat="49.86386" lon="2.2912">
        <ele>99.2</ele>
        <time>2021-04-28T14:22:48Z</time>
      </trkpt>
      <trkpt lat="49.86387" lon="2.29117">
        <ele>99.3</ele>
        <time>2021-04-28T14:22:50Z</time>
      </trkpt>
      <trkpt lat="49.86387" lon="2.29116">
        <ele>99.3</ele>
        <time>2021-04-28T14:22:51Z</time>
      </trkpt>
      <trkpt lat="49.86387" lon="2.29114">
        <ele>99.3</ele>
        <time>2021-04-28T14:22:52Z</time>
      </trkpt>
      <trkpt lat="49.86387" lon="2.29112">
        <ele>99.3</ele>
        <time>2021-04-28T14:22:53Z</time>
      </trkpt>
      <trkpt lat="49.86388" lon="2.2911">
        <ele>99.4</ele>
        <time>2021-04-28T14:22:54Z</time>
      </trkpt>
      <trkpt lat="49.86388" lon="2.29108">
        <ele>99.4</ele>
        <time>2021-04-28T14:22:56Z</time>
      </trkpt>
      <trkpt lat="49.86388" lon="2.29106">
        <ele>99.4</ele>
        <time>2021-04-28T14:22:57Z</time>
      </trkpt>
      <trkpt lat="49.86388" lon="2.29104">
        <ele>99.4</ele>
        <time>2021-04-28T14:22:58Z</time>
      </trkpt>
      <trkpt lat="49.86388" lon="2.29103">
        <ele>99.5</ele>
        <time>2021-04-28T14:22:59Z</time>
      </trkpt>
      <trkpt lat="49.86388" lon="2.29101">
        <ele>99.5</ele>
        <time>2021-04-28T14:23:00Z</time>
      </trkpt>
      <trkpt lat="49.86388" lon="2.29099">
        <ele>99.5</ele>
        <time>2021-04-28T14:23:02Z</time>
      </trkpt>
      <trkpt lat="49.86388" lon="2.29096">
        <ele>99.5</ele>
        <time>2021-04-28T14:23:03Z</time>
      </trkpt>
      <trkpt lat="49.86388" lon="2.29095">
        <ele>99.6</ele>
        <time>2021-04-28T14:23:05Z</time>
      </trkpt>
      <trkpt lat="49.86388" lon="2.29093">
        <ele>99.6</ele>
        <time>2021-04-28T14:23:06Z</time>
      </trkpt>
      <trkpt lat="49.86389" lon="2.29091">
        <ele>99.6</ele>
        <time>2021-04-28T14:23:07Z</time>
      </trkpt>
      <trkpt lat="49.86389" lon="2.29089">
        <ele>99.7</ele>
        <time>2021-04-28T14:23:08Z</time>
      </trkpt>
      <trkpt lat="49.86389" lon="2.29087">
        <ele>99.7</ele>
        <time>2021-04-28T14:23:09Z</time>
      </trkpt>
      <trkpt lat="49.86389" lon="2.29086">
        <ele>99.7</ele>
        <time>2021-04-28T14:23:10Z</time>
      </trkpt>
      <trkpt lat="49.86389" lon="2.29084">
        <ele>99.7</ele>
        <time>2021-04-28T14:23:12Z</time>
      </trkpt>
      <trkpt lat="49.8639" lon="2.29081">
        <ele>99.8</ele>
        <time>2021-04-28T14:23:13Z</time>
      </trkpt>
      <trkpt lat="49.8639" lon="2.29077">
        <ele>99.8</ele>
        <time>2021-04-28T14:23:14Z</time>
      </trkpt>
      <trkpt lat="49.8639" lon="2.29076">
        <ele>99.8</ele>
        <time>2021-04-28T14:23:16Z</time>
      </trkpt>
      <trkpt lat="49.8639" lon="2.29075">
        <ele>99.9</ele>
        <time>2021-04-28T14:23:17Z</time>
      </trkpt>
      <trkpt lat="49.86391" lon="2.29071">
        <ele>99.9</ele>
        <time>2021-04-28T14:23:18Z</time>
      </trkpt>
      <trkpt lat="49.86391" lon="2.2907">
        <ele>99.9</ele>
        <time>2021-04-28T14:23:19Z</time>
      </trkpt>
      <trkpt lat="49.86391" lon="2.29069">
        <ele>100</ele>
        <time>2021-04-28T14:23:20Z</time>
      </trkpt>
      <trkpt lat="49.86391" lon="2.29067">
        <ele>100</ele>
        <time>2021-04-28T14:23:22Z</time>
      </trkpt>
      <trkpt lat="49.86391" lon="2.29064">
        <ele>100.1</ele>
        <time>2021-04-28T14:23:23Z</time>
      </trkpt>
      <trkpt lat="49.86391" lon="2.29062">
        <ele>100.1</ele>
        <time>2021-04-28T14:23:25Z</time>
      </trkpt>
      <trkpt lat="49.86392" lon="2.2906">
        <ele>100.1</ele>
        <time>2021-04-28T14:23:26Z</time>
      </trkpt>
      <trkpt lat="49.86392" lon="2.29058">
        <ele>100.1</ele>
        <time>2021-04-28T14:23:27Z</time>
      </trkpt>
      <trkpt lat="49.86392" lon="2.29055">
        <ele>100.2</ele>
        <time>2021-04-28T14:23:29Z</time>
      </trkpt>
      <trkpt lat="49.86392" lon="2.29053">
        <ele>100.2</ele>
        <time>2021-04-28T14:23:30Z</time>
      </trkpt>
      <trkpt lat="49.86392" lon="2.29052">
        <ele>100.2</ele>
        <time>2021-04-28T14:23:31Z</time>
      </trkpt>
      <trkpt lat="49.86392" lon="2.2905">
        <ele>100.2</ele>
        <time>2021-04-28T14:23:32Z</time>
      </trkpt>
      <trkpt lat="49.86392" lon="2.29048">
        <ele>100.3</ele>
        <time>2021-04-28T14:23:33Z</time>
      </trkpt>
      <trkpt lat="49.86393" lon="2.29046">
        <ele>100.3</ele>
        <time>2021-04-28T14:23:34Z</time>
      </trkpt>
      <trkpt lat="49.86393" lon="2.29044">
        <ele>100.3</ele>
        <time>2021-04-28T14:23:36Z</time>
      </trkpt>
      <trkpt lat="49.86393" lon="2.29043">
        <ele>100.3</ele>
        <time>2021-04-28T14:23:37Z</time>
      </trkpt>
      <trkpt lat="49.86393" lon="2.29041">
        <ele>100.3</ele>
        <time>2021-04-28T14:23:38Z</time>
      </trkpt>
      <trkpt lat="49.86393" lon="2.29039">
        <ele>100.4</ele>
        <time>2021-04-28T14:23:39Z</time>
      </trkpt>
      <trkpt lat="49.86394" lon="2.29038">
        <ele>100.4</ele>
        <time>2021-04-28T14:23:40Z</time>
      </trkpt>
      <trkpt lat="49.86394" lon="2.29036">
        <ele>100.4</ele>
        <time>2021-04-28T14:23:41Z</time>
      </trkpt>
      <trkpt lat="49.86394" lon="2.29034">
        <ele>100.4</ele>
        <time>2021-04-28T14:23:43Z</time>
      </trkpt>
      <trkpt lat="49.86394" lon="2.29032">
        <ele>100.4</ele>
        <time>2021-04-28T14:23:44Z</time>
      </trkpt>
      <trkpt lat="49.86394" lon="2.29031">
        <ele>100.4</ele>
        <time>2021-04-28T14:23:45Z</time>
      </trkpt>
      <trkpt lat="49.86394" lon="2.2903">
        <ele>100.5</ele>
        <time>2021-04-28T14:23:46Z</time>
      </trkpt>
      <trkpt lat="49.86395" lon="2.29028">
        <ele>100.5</ele>
        <time>2021-04-28T14:23:47Z</time>
      </trkpt>
      <trkpt lat="49.86395" lon="2.29026">
        <ele>100.5</ele>
        <time>2021-04-28T14:23:49Z</time>
      </trkpt>
      <trkpt lat="49.86396" lon="2.29025">
        <ele>100.5</ele>
        <time>2021-04-28T14:23:50Z</time>
      </trkpt>
      <trkpt lat="49.86397" lon="2.29023">
        <ele>100.5</ele>
        <time>2021-04-28T14:23:52Z</time>
      </trkpt>
      <trkpt lat="49.86397" lon="2.29021">
        <ele>100.6</ele>
        <time>2021-04-28T14:23:53Z</time>
      </trkpt>
      <trkpt lat="49.86398" lon="2.2902">
        <ele>100.6</ele>
        <time>2021-04-28T14:23:54Z</time>
      </trkpt>
      <trkpt lat="49.86398" lon="2.29018">
        <ele>100.6</ele>
        <time>2021-04-28T14:23:55Z</time>
      </trkpt>
      <trkpt lat="49.86398" lon="2.29017">
        <ele>100.6</ele>
        <time>2021-04-28T14:23:57Z</time>
      </trkpt>
      <trkpt lat="49.86399" lon="2.29015">
        <ele>100.6</ele>
        <time>2021-04-28T14:23:58Z</time>
      </trkpt>
      <trkpt lat="49.86399" lon="2.29014">
        <ele>100.7</ele>
        <time>2021-04-28T14:23:59Z</time>
      </trkpt>
      <trkpt lat="49.86399" lon="2.29012">
        <ele>100.7</ele>
        <time>2021-04-28T14:24:00Z</time>
      </trkpt>
      <trkpt lat="49.86399" lon="2.2901">
        <ele>100.7</ele>
        <time>2021-04-28T14:24:01Z</time>
      </trkpt>
      <trkpt lat="49.86399" lon="2.29009">
        <ele>100.7</ele>
        <time>2021-04-28T14:24:02Z</time>
      </trkpt>
      <trkpt lat="49.86399" lon="2.29007">
        <ele>100.7</ele>
        <time>2021-04-28T14:24:03Z</time>
      </trkpt>
      <trkpt lat="49.86399" lon="2.29005">
        <ele>100.7</ele>
        <time>2021-04-28T14:24:05Z</time>
      </trkpt>
      <trkpt lat="49.86399" lon="2.29003">
        <ele>100.8</ele>
        <time>2021-04-28T14:24:06Z</time>
      </trkpt>
      <trkpt lat="49.864" lon="2.29">
        <ele>100.8</ele>
        <time>2021-04-28T14:24:08Z</time>
      </trkpt>
      <trkpt lat="49.864" lon="2.28998">
        <ele>100.8</ele>
        <time>2021-04-28T14:24:09Z</time>
      </trkpt>
      <trkpt lat="49.864" lon="2.28995">
        <ele>100.8</ele>
        <time>2021-04-28T14:24:10Z</time>
      </trkpt>
      <trkpt lat="49.86401" lon="2.28993">
        <ele>100.8</ele>
        <time>2021-04-28T14:24:12Z</time>
      </trkpt>
      <trkpt lat="49.86401" lon="2.28991">
        <ele>100.9</ele>
        <time>2021-04-28T14:24:13Z</time>
      </trkpt>
      <trkpt lat="49.86401" lon="2.28989">
        <ele>100.9</ele>
        <time>2021-04-28T14:24:14Z</time>
      </trkpt>
      <trkpt lat="49.86401" lon="2.28988">
        <ele>100.9</ele>
        <time>2021-04-28T14:24:15Z</time>
      </trkpt>
      <trkpt lat="49.86401" lon="2.28986">
        <ele>100.9</ele>
        <time>2021-04-28T14:24:16Z</time>
      </trkpt>
      <trkpt lat="49.86401" lon="2.28984">
        <ele>100.9</ele>
        <time>2021-04-28T14:24:18Z</time>
      </trkpt>
      <trkpt lat="49.86401" lon="2.28982">
        <ele>100.9</ele>
        <time>2021-04-28T14:24:19Z</time>
      </trkpt>
      <trkpt lat="49.86402" lon="2.28981">
        <ele>100.9</ele>
        <time>2021-04-28T14:24:20Z</time>
      </trkpt>
      <trkpt lat="49.86402" lon="2.28979">
        <ele>100.9</ele>
        <time>2021-04-28T14:24:21Z</time>
      </trkpt>
      <trkpt lat="49.86402" lon="2.28977">
        <ele>100.9</ele>
        <time>2021-04-28T14:24:22Z</time>
      </trkpt>
      <trkpt lat="49.86402" lon="2.28974">
        <ele>101</ele>
        <time>2021-04-28T14:24:23Z</time>
      </trkpt>
      <trkpt lat="49.86402" lon="2.28973">
        <ele>101</ele>
        <time>2021-04-28T14:24:25Z</time>
      </trkpt>
      <trkpt lat="49.86402" lon="2.28972">
        <ele>101</ele>
        <time>2021-04-28T14:24:26Z</time>
      </trkpt>
      <trkpt lat="49.86402" lon="2.2897">
        <ele>101</ele>
        <time>2021-04-28T14:24:27Z</time>
      </trkpt>
      <trkpt lat="49.86403" lon="2.28967">
        <ele>101</ele>
        <time>2021-04-28T14:24:29Z</time>
      </trkpt>
      <trkpt lat="49.86403" lon="2.28965">
        <ele>101</ele>
        <time>2021-04-28T14:24:30Z</time>
      </trkpt>
      <trkpt lat="49.86403" lon="2.28964">
        <ele>101</ele>
        <time>2021-04-28T14:24:31Z</time>
      </trkpt>
      <trkpt lat="49.86403" lon="2.28962">
        <ele>101</ele>
        <time>2021-04-28T14:24:32Z</time>
      </trkpt>
      <trkpt lat="49.86403" lon="2.28959">
        <ele>101</ele>
        <time>2021-04-28T14:24:33Z</time>
      </trkpt>
      <trkpt lat="49.86403" lon="2.28957">
        <ele>101</ele>
        <time>2021-04-28T14:24:34Z</time>
      </trkpt>
      <trkpt lat="49.86404" lon="2.28956">
        <ele>101.1</ele>
        <time>2021-04-28T14:24:35Z</time>
      </trkpt>
      <trkpt lat="49.86404" lon="2.28954">
        <ele>101.1</ele>
        <time>2021-04-28T14:24:37Z</time>
      </trkpt>
      <trkpt lat="49.86404" lon="2.28952">
        <ele>101.1</ele>
        <time>2021-04-28T14:24:38Z</time>
      </trkpt>
      <trkpt lat="49.86405" lon="2.2895">
        <ele>101.1</ele>
        <time>2021-04-28T14:24:39Z</time>
      </trkpt>
      <trkpt lat="49.86405" lon="2.28949">
        <ele>101.1</ele>
        <time>2021-04-28T14:24:40Z</time>
      </trkpt>
      <trkpt lat="49.86405" lon="2.28947">
        <ele>101.1</ele>
        <time>2021-04-28T14:24:41Z</time>
      </trkpt>
      <trkpt lat="49.86405" lon="2.28945">
        <ele>101.1</ele>
        <time>2021-04-28T14:24:42Z</time>
      </trkpt>
      <trkpt lat="49.86406" lon="2.28943">
        <ele>101.1</ele>
        <time>2021-04-28T14:24:44Z</time>
      </trkpt>
      <trkpt lat="49.86406" lon="2.28942">
        <ele>101.1</ele>
        <time>2021-04-28T14:24:45Z</time>
      </trkpt>
      <trkpt lat="49.86406" lon="2.28941">
        <ele>101.1</ele>
        <time>2021-04-28T14:24:46Z</time>
      </trkpt>
      <trkpt lat="49.86406" lon="2.28939">
        <ele>101.1</ele>
        <time>2021-04-28T14:24:47Z</time>
      </trkpt>
      <trkpt lat="49.86407" lon="2.28936">
        <ele>101.1</ele>
        <time>2021-04-28T14:24:48Z</time>
      </trkpt>
      <trkpt lat="49.86407" lon="2.28935">
        <ele>101.1</ele>
        <time>2021-04-28T14:24:49Z</time>
      </trkpt>
      <trkpt lat="49.86407" lon="2.28934">
        <ele>101.1</ele>
        <time>2021-04-28T14:24:50Z</time>
      </trkpt>
      <trkpt lat="49.86408" lon="2.28931">
        <ele>101.1</ele>
        <time>2021-04-28T14:24:52Z</time>
      </trkpt>
      <trkpt lat="49.86408" lon="2.28929">
        <ele>101.1</ele>
        <time>2021-04-28T14:24:53Z</time>
      </trkpt>
      <trkpt lat="49.86408" lon="2.28928">
        <ele>101.1</ele>
        <time>2021-04-28T14:24:54Z</time>
      </trkpt>
      <trkpt lat="49.86408" lon="2.28927">
        <ele>101.1</ele>
        <time>2021-04-28T14:24:55Z</time>
      </trkpt>
      <trkpt lat="49.86409" lon="2.28926">
        <ele>101.2</ele>
        <time>2021-04-28T14:24:56Z</time>
      </trkpt>
      <trkpt lat="49.86409" lon="2.28924">
        <ele>101.2</ele>
        <time>2021-04-28T14:24:57Z</time>
      </trkpt>
      <trkpt lat="49.86409" lon="2.28921">
        <ele>101.2</ele>
        <time>2021-04-28T14:24:58Z</time>
      </trkpt>
      <trkpt lat="49.86409" lon="2.28919">
        <ele>101.2</ele>
        <time>2021-04-28T14:24:59Z</time>
      </trkpt>
      <trkpt lat="49.86409" lon="2.28917">
        <ele>101.2</ele>
        <time>2021-04-28T14:25:01Z</time>
      </trkpt>
      <trkpt lat="49.86409" lon="2.28916">
        <ele>101.2</ele>
        <time>2021-04-28T14:25:02Z</time>
      </trkpt>
      <trkpt lat="49.86409" lon="2.28914">
        <ele>101.2</ele>
        <time>2021-04-28T14:25:03Z</time>
      </trkpt>
      <trkpt lat="49.86409" lon="2.28912">
        <ele>101.2</ele>
        <time>2021-04-28T14:25:04Z</time>
      </trkpt>
      <trkpt lat="49.86409" lon="2.28911">
        <ele>101.2</ele>
        <time>2021-04-28T14:25:05Z</time>
      </trkpt>
      <trkpt lat="49.8641" lon="2.28909">
        <ele>101.2</ele>
        <time>2021-04-28T14:25:06Z</time>
      </trkpt>
      <trkpt lat="49.8641" lon="2.28907">
        <ele>101.2</ele>
        <time>2021-04-28T14:25:07Z</time>
      </trkpt>
      <trkpt lat="49.8641" lon="2.28905">
        <ele>101.2</ele>
        <time>2021-04-28T14:25:09Z</time>
      </trkpt>
      <trkpt lat="49.8641" lon="2.28903">
        <ele>101.2</ele>
        <time>2021-04-28T14:25:10Z</time>
      </trkpt>
      <trkpt lat="49.86411" lon="2.28902">
        <ele>101.2</ele>
        <time>2021-04-28T14:25:11Z</time>
      </trkpt>
      <trkpt lat="49.86411" lon="2.289">
        <ele>101.2</ele>
        <time>2021-04-28T14:25:12Z</time>
      </trkpt>
      <trkpt lat="49.86411" lon="2.28897">
        <ele>101.2</ele>
        <time>2021-04-28T14:25:13Z</time>
      </trkpt>
      <trkpt lat="49.86411" lon="2.28896">
        <ele>101.2</ele>
        <time>2021-04-28T14:25:15Z</time>
      </trkpt>
      <trkpt lat="49.86411" lon="2.28893">
        <ele>101.2</ele>
        <time>2021-04-28T14:25:16Z</time>
      </trkpt>
      <trkpt lat="49.86411" lon="2.28891">
        <ele>101.2</ele>
        <time>2021-04-28T14:25:17Z</time>
      </trkpt>
      <trkpt lat="49.86411" lon="2.28887">
        <ele>101.2</ele>
        <time>2021-04-28T14:25:18Z</time>
      </trkpt>
      <trkpt lat="49.86412" lon="2.28886">
        <ele>101.2</ele>
        <time>2021-04-28T14:25:19Z</time>
      </trkpt>
      <trkpt lat="49.86412" lon="2.28884">
        <ele>101.2</ele>
        <time>2021-04-28T14:25:21Z</time>
      </trkpt>
      <trkpt lat="49.86412" lon="2.28883">
        <ele>101.2</ele>
        <time>2021-04-28T14:25:22Z</time>
      </trkpt>
      <trkpt lat="49.86413" lon="2.28881">
        <ele>101.2</ele>
        <time>2021-04-28T14:25:23Z</time>
      </trkpt>
      <trkpt lat="49.86413" lon="2.2888">
        <ele>101.2</ele>
        <time>2021-04-28T14:25:24Z</time>
      </trkpt>
      <trkpt lat="49.86413" lon="2.28878">
        <ele>101.2</ele>
        <time>2021-04-28T14:25:25Z</time>
      </trkpt>
      <trkpt lat="49.86413" lon="2.28877">
        <ele>101.2</ele>
        <time>2021-04-28T14:25:26Z</time>
      </trkpt>
      <trkpt lat="49.86413" lon="2.28875">
        <ele>101.2</ele>
        <time>2021-04-28T14:25:28Z</time>
      </trkpt>
      <trkpt lat="49.86413" lon="2.28873">
        <ele>101.2</ele>
        <time>2021-04-28T14:25:29Z</time>
      </trkpt>
      <trkpt lat="49.86413" lon="2.28872">
        <ele>101.2</ele>
        <time>2021-04-28T14:25:30Z</time>
      </trkpt>
      <trkpt lat="49.86413" lon="2.2887">
        <ele>101.2</ele>
        <time>2021-04-28T14:25:31Z</time>
      </trkpt>
      <trkpt lat="49.86413" lon="2.28868">
        <ele>101.2</ele>
        <time>2021-04-28T14:25:32Z</time>
      </trkpt>
      <trkpt lat="49.86413" lon="2.28866">
        <ele>101.2</ele>
        <time>2021-04-28T14:25:33Z</time>
      </trkpt>
      <trkpt lat="49.86414" lon="2.28865">
        <ele>101.2</ele>
        <time>2021-04-28T14:25:34Z</time>
      </trkpt>
      <trkpt lat="49.86414" lon="2.28864">
        <ele>101.2</ele>
        <time>2021-04-28T14:25:35Z</time>
      </trkpt>
      <trkpt lat="49.86414" lon="2.28862">
        <ele>101.2</ele>
        <time>2021-04-28T14:25:37Z</time>
      </trkpt>
      <trkpt lat="49.86414" lon="2.28861">
        <ele>101.2</ele>
        <time>2021-04-28T14:25:38Z</time>
      </trkpt>
      <trkpt lat="49.86415" lon="2.28858">
        <ele>101.2</ele>
        <time>2021-04-28T14:25:39Z</time>
      </trkpt>
      <trkpt lat="49.86415" lon="2.28857">
        <ele>101.2</ele>
        <time>2021-04-28T14:25:40Z</time>
      </trkpt>
      <trkpt lat="49.86415" lon="2.28856">
        <ele>101.2</ele>
        <time>2021-04-28T14:25:41Z</time>
      </trkpt>
      <trkpt lat="49.86416" lon="2.28854">
        <ele>101.2</ele>
        <time>2021-04-28T14:25:42Z</time>
      </trkpt>
      <trkpt lat="49.86416" lon="2.28853">
        <ele>101.2</ele>
        <time>2021-04-28T14:25:43Z</time>
      </trkpt>
      <trkpt lat="49.86416" lon="2.28851">
        <ele>101.2</ele>
        <time>2021-04-28T14:25:45Z</time>
      </trkpt>
      <trkpt lat="49.86417" lon="2.2885">
        <ele>101.2</ele>
        <time>2021-04-28T14:25:46Z</time>
      </trkpt>
      <trkpt lat="49.86417" lon="2.28848">
        <ele>101.2</ele>
        <time>2021-04-28T14:25:47Z</time>
      </trkpt>
      <trkpt lat="49.86417" lon="2.28846">
        <ele>101.2</ele>
        <time>2021-04-28T14:25:48Z</time>
      </trkpt>
      <trkpt lat="49.86417" lon="2.28844">
        <ele>101.2</ele>
        <time>2021-04-28T14:25:49Z</time>
      </trkpt>
      <trkpt lat="49.86417" lon="2.28842">
        <ele>101.2</ele>
        <time>2021-04-28T14:25:50Z</time>
      </trkpt>
      <trkpt lat="49.86418" lon="2.28841">
        <ele>101.2</ele>
        <time>2021-04-28T14:25:52Z</time>
      </trkpt>
      <trkpt lat="49.86418" lon="2.28839">
        <ele>101.2</ele>
        <time>2021-04-28T14:25:53Z</time>
      </trkpt>
      <trkpt lat="49.86419" lon="2.28837">
        <ele>101.2</ele>
        <time>2021-04-28T14:25:54Z</time>
      </trkpt>
      <trkpt lat="49.86419" lon="2.28835">
        <ele>101.2</ele>
        <time>2021-04-28T14:25:55Z</time>
      </trkpt>
      <trkpt lat="49.86419" lon="2.28833">
        <ele>101.2</ele>
        <time>2021-04-28T14:25:56Z</time>
      </trkpt>
      <trkpt lat="49.86419" lon="2.28831">
        <ele>101.2</ele>
        <time>2021-04-28T14:25:57Z</time>
      </trkpt>
      <trkpt lat="49.8642" lon="2.28829">
        <ele>101.2</ele>
        <time>2021-04-28T14:25:59Z</time>
      </trkpt>
      <trkpt lat="49.8642" lon="2.28827">
        <ele>101.2</ele>
        <time>2021-04-28T14:26:00Z</time>
      </trkpt>
      <trkpt lat="49.8642" lon="2.28823">
        <ele>101.2</ele>
        <time>2021-04-28T14:26:01Z</time>
      </trkpt>
      <trkpt lat="49.8642" lon="2.28822">
        <ele>101.2</ele>
        <time>2021-04-28T14:26:03Z</time>
      </trkpt>
      <trkpt lat="49.8642" lon="2.2882">
        <ele>101.2</ele>
        <time>2021-04-28T14:26:04Z</time>
      </trkpt>
      <trkpt lat="49.8642" lon="2.28818">
        <ele>101.2</ele>
        <time>2021-04-28T14:26:06Z</time>
      </trkpt>
      <trkpt lat="49.8642" lon="2.28817">
        <ele>101.2</ele>
        <time>2021-04-28T14:26:07Z</time>
      </trkpt>
      <trkpt lat="49.8642" lon="2.28815">
        <ele>101.3</ele>
        <time>2021-04-28T14:26:08Z</time>
      </trkpt>
      <trkpt lat="49.86421" lon="2.28811">
        <ele>101.3</ele>
        <time>2021-04-28T14:26:09Z</time>
      </trkpt>
      <trkpt lat="49.8642" lon="2.2881">
        <ele>101.3</ele>
        <time>2021-04-28T14:26:10Z</time>
      </trkpt>
      <trkpt lat="49.8642" lon="2.28809">
        <ele>101.3</ele>
        <time>2021-04-28T14:26:11Z</time>
      </trkpt>
      <trkpt lat="49.8642" lon="2.28807">
        <ele>101.3</ele>
        <time>2021-04-28T14:26:13Z</time>
      </trkpt>
      <trkpt lat="49.8642" lon="2.28804">
        <ele>101.3</ele>
        <time>2021-04-28T14:26:14Z</time>
      </trkpt>
      <trkpt lat="49.8642" lon="2.28802">
        <ele>101.3</ele>
        <time>2021-04-28T14:26:15Z</time>
      </trkpt>
      <trkpt lat="49.8642" lon="2.288">
        <ele>101.3</ele>
        <time>2021-04-28T14:26:17Z</time>
      </trkpt>
      <trkpt lat="49.8642" lon="2.28798">
        <ele>101.3</ele>
        <time>2021-04-28T14:26:18Z</time>
      </trkpt>
      <trkpt lat="49.86421" lon="2.28795">
        <ele>101.3</ele>
        <time>2021-04-28T14:26:19Z</time>
      </trkpt>
      <trkpt lat="49.86421" lon="2.28793">
        <ele>101.3</ele>
        <time>2021-04-28T14:26:20Z</time>
      </trkpt>
      <trkpt lat="49.86421" lon="2.28792">
        <ele>101.3</ele>
        <time>2021-04-28T14:26:21Z</time>
      </trkpt>
      <trkpt lat="49.86421" lon="2.28789">
        <ele>101.3</ele>
        <time>2021-04-28T14:26:22Z</time>
      </trkpt>
      <trkpt lat="49.86421" lon="2.28787">
        <ele>101.3</ele>
        <time>2021-04-28T14:26:24Z</time>
      </trkpt>
      <trkpt lat="49.86421" lon="2.28786">
        <ele>101.3</ele>
        <time>2021-04-28T14:26:25Z</time>
      </trkpt>
      <trkpt lat="49.86421" lon="2.28785">
        <ele>101.3</ele>
        <time>2021-04-28T14:26:26Z</time>
      </trkpt>
      <trkpt lat="49.86422" lon="2.28783">
        <ele>101.3</ele>
        <time>2021-04-28T14:26:27Z</time>
      </trkpt>
      <trkpt lat="49.86422" lon="2.28781">
        <ele>101.3</ele>
        <time>2021-04-28T14:26:28Z</time>
      </trkpt>
      <trkpt lat="49.86423" lon="2.28778">
        <ele>101.3</ele>
        <time>2021-04-28T14:26:29Z</time>
      </trkpt>
      <trkpt lat="49.86423" lon="2.28777">
        <ele>101.3</ele>
        <time>2021-04-28T14:26:31Z</time>
      </trkpt>
      <trkpt lat="49.86423" lon="2.28775">
        <ele>101.3</ele>
        <time>2021-04-28T14:26:32Z</time>
      </trkpt>
      <trkpt lat="49.86424" lon="2.28774">
        <ele>101.3</ele>
        <time>2021-04-28T14:26:33Z</time>
      </trkpt>
      <trkpt lat="49.86424" lon="2.28773">
        <ele>101.3</ele>
        <time>2021-04-28T14:26:34Z</time>
      </trkpt>
      <trkpt lat="49.86424" lon="2.28772">
        <ele>101.3</ele>
        <time>2021-04-28T14:26:35Z</time>
      </trkpt>
      <trkpt lat="49.86424" lon="2.2877">
        <ele>101.3</ele>
        <time>2021-04-28T14:26:36Z</time>
      </trkpt>
      <trkpt lat="49.86425" lon="2.28769">
        <ele>101.3</ele>
        <time>2021-04-28T14:26:38Z</time>
      </trkpt>
      <trkpt lat="49.86425" lon="2.28767">
        <ele>101.3</ele>
        <time>2021-04-28T14:26:39Z</time>
      </trkpt>
      <trkpt lat="49.86425" lon="2.28765">
        <ele>101.3</ele>
        <time>2021-04-28T14:26:40Z</time>
      </trkpt>
      <trkpt lat="49.86425" lon="2.28764">
        <ele>101.3</ele>
        <time>2021-04-28T14:26:41Z</time>
      </trkpt>
      <trkpt lat="49.86426" lon="2.28763">
        <ele>101.3</ele>
        <time>2021-04-28T14:26:42Z</time>
      </trkpt>
      <trkpt lat="49.86426" lon="2.28761">
        <ele>101.3</ele>
        <time>2021-04-28T14:26:43Z</time>
      </trkpt>
      <trkpt lat="49.86426" lon="2.28759">
        <ele>101.3</ele>
        <time>2021-04-28T14:26:45Z</time>
      </trkpt>
      <trkpt lat="49.86426" lon="2.28758">
        <ele>101.3</ele>
        <time>2021-04-28T14:26:46Z</time>
      </trkpt>
      <trkpt lat="49.86427" lon="2.28757">
        <ele>101.3</ele>
        <time>2021-04-28T14:26:47Z</time>
      </trkpt>
      <trkpt lat="49.86427" lon="2.28756">
        <ele>101.3</ele>
        <time>2021-04-28T14:26:48Z</time>
      </trkpt>
      <trkpt lat="49.86428" lon="2.28753">
        <ele>101.3</ele>
        <time>2021-04-28T14:26:49Z</time>
      </trkpt>
      <trkpt lat="49.86428" lon="2.28752">
        <ele>101.3</ele>
        <time>2021-04-28T14:26:50Z</time>
      </trkpt>
      <trkpt lat="49.86428" lon="2.2875">
        <ele>101.3</ele>
        <time>2021-04-28T14:26:52Z</time>
      </trkpt>
      <trkpt lat="49.86429" lon="2.28749">
        <ele>101.3</ele>
        <time>2021-04-28T14:26:53Z</time>
      </trkpt>
      <trkpt lat="49.86429" lon="2.28747">
        <ele>101.3</ele>
        <time>2021-04-28T14:26:54Z</time>
      </trkpt>
      <trkpt lat="49.8643" lon="2.28746">
        <ele>101.3</ele>
        <time>2021-04-28T14:26:55Z</time>
      </trkpt>
      <trkpt lat="49.8643" lon="2.28744">
        <ele>101.3</ele>
        <time>2021-04-28T14:26:56Z</time>
      </trkpt>
      <trkpt lat="49.8643" lon="2.28741">
        <ele>101.3</ele>
        <time>2021-04-28T14:26:57Z</time>
      </trkpt>
      <trkpt lat="49.8643" lon="2.28739">
        <ele>101.3</ele>
        <time>2021-04-28T14:26:59Z</time>
      </trkpt>
      <trkpt lat="49.8643" lon="2.28738">
        <ele>101.3</ele>
        <time>2021-04-28T14:27:00Z</time>
      </trkpt>
      <trkpt lat="49.8643" lon="2.28735">
        <ele>101.3</ele>
        <time>2021-04-28T14:27:01Z</time>
      </trkpt>
      <trkpt lat="49.8643" lon="2.28734">
        <ele>101.4</ele>
        <time>2021-04-28T14:27:02Z</time>
      </trkpt>
      <trkpt lat="49.8643" lon="2.28732">
        <ele>101.4</ele>
        <time>2021-04-28T14:27:03Z</time>
      </trkpt>
      <trkpt lat="49.8643" lon="2.28731">
        <ele>101.4</ele>
        <time>2021-04-28T14:27:04Z</time>
      </trkpt>
      <trkpt lat="49.8643" lon="2.28728">
        <ele>101.4</ele>
        <time>2021-04-28T14:27:06Z</time>
      </trkpt>
      <trkpt lat="49.86431" lon="2.28727">
        <ele>101.4</ele>
        <time>2021-04-28T14:27:07Z</time>
      </trkpt>
      <trkpt lat="49.86431" lon="2.28726">
        <ele>101.4</ele>
        <time>2021-04-28T14:27:08Z</time>
      </trkpt>
      <trkpt lat="49.86431" lon="2.28725">
        <ele>101.4</ele>
        <time>2021-04-28T14:27:09Z</time>
      </trkpt>
      <trkpt lat="49.86431" lon="2.28723">
        <ele>101.4</ele>
        <time>2021-04-28T14:27:10Z</time>
      </trkpt>
      <trkpt lat="49.86431" lon="2.28722">
        <ele>101.4</ele>
        <time>2021-04-28T14:27:12Z</time>
      </trkpt>
      <trkpt lat="49.86432" lon="2.2872">
        <ele>101.4</ele>
        <time>2021-04-28T14:27:13Z</time>
      </trkpt>
      <trkpt lat="49.86432" lon="2.28719">
        <ele>101.4</ele>
        <time>2021-04-28T14:27:14Z</time>
      </trkpt>
      <trkpt lat="49.86432" lon="2.28717">
        <ele>101.4</ele>
        <time>2021-04-28T14:27:15Z</time>
      </trkpt>
      <trkpt lat="49.86432" lon="2.28715">
        <ele>101.4</ele>
        <time>2021-04-28T14:27:16Z</time>
      </trkpt>
      <trkpt lat="49.86433" lon="2.28712">
        <ele>101.4</ele>
        <time>2021-04-28T14:27:17Z</time>
      </trkpt>
      <trkpt lat="49.86434" lon="2.28711">
        <ele>101.4</ele>
        <time>2021-04-28T14:27:19Z</time>
      </trkpt>
      <trkpt lat="49.86434" lon="2.28709">
        <ele>101.4</ele>
        <time>2021-04-28T14:27:20Z</time>
      </trkpt>
      <trkpt lat="49.86435" lon="2.28706">
        <ele>101.5</ele>
        <time>2021-04-28T14:27:22Z</time>
      </trkpt>
      <trkpt lat="49.86436" lon="2.28705">
        <ele>101.5</ele>
        <time>2021-04-28T14:27:23Z</time>
      </trkpt>
      <trkpt lat="49.86436" lon="2.28704">
        <ele>101.5</ele>
        <time>2021-04-28T14:27:24Z</time>
      </trkpt>
      <trkpt lat="49.86437" lon="2.28704">
        <ele>101.5</ele>
        <time>2021-04-28T14:27:25Z</time>
      </trkpt>
      <trkpt lat="49.86438" lon="2.28704">
        <ele>101.5</ele>
        <time>2021-04-28T14:27:27Z</time>
      </trkpt>
      <trkpt lat="49.86439" lon="2.28704">
        <ele>101.5</ele>
        <time>2021-04-28T14:27:28Z</time>
      </trkpt>
      <trkpt lat="49.8644" lon="2.28703">
        <ele>101.4</ele>
        <time>2021-04-28T14:27:29Z</time>
      </trkpt>
      <trkpt lat="49.86442" lon="2.28702">
        <ele>101.4</ele>
        <time>2021-04-28T14:27:31Z</time>
      </trkpt>
      <trkpt lat="49.86443" lon="2.28701">
        <ele>101.4</ele>
        <time>2021-04-28T14:27:32Z</time>
      </trkpt>
      <trkpt lat="49.86443" lon="2.287">
        <ele>101.4</ele>
        <time>2021-04-28T14:27:33Z</time>
      </trkpt>
      <trkpt lat="49.86446" lon="2.28699">
        <ele>101.4</ele>
        <time>2021-04-28T14:27:35Z</time>
      </trkpt>
      <trkpt lat="49.86446" lon="2.28698">
        <ele>101.4</ele>
        <time>2021-04-28T14:27:36Z</time>
      </trkpt>
      <trkpt lat="49.86447" lon="2.28698">
        <ele>101.4</ele>
        <time>2021-04-28T14:27:37Z</time>
      </trkpt>
      <trkpt lat="49.86448" lon="2.28697">
        <ele>101.4</ele>
        <time>2021-04-28T14:27:38Z</time>
      </trkpt>
      <trkpt lat="49.8645" lon="2.28696">
        <ele>101.3</ele>
        <time>2021-04-28T14:27:40Z</time>
      </trkpt>
      <trkpt lat="49.86451" lon="2.28696">
        <ele>101.3</ele>
        <time>2021-04-28T14:27:41Z</time>
      </trkpt>
      <trkpt lat="49.86452" lon="2.28695">
        <ele>101.3</ele>
        <time>2021-04-28T14:27:42Z</time>
      </trkpt>
      <trkpt lat="49.86453" lon="2.28694">
        <ele>101.3</ele>
        <time>2021-04-28T14:27:44Z</time>
      </trkpt>
      <trkpt lat="49.86453" lon="2.28692">
        <ele>101.3</ele>
        <time>2021-04-28T14:27:45Z</time>
      </trkpt>
      <trkpt lat="49.86454" lon="2.28691">
        <ele>101.3</ele>
        <time>2021-04-28T14:27:47Z</time>
      </trkpt>
      <trkpt lat="49.86455" lon="2.28691">
        <ele>101.3</ele>
        <time>2021-04-28T14:27:48Z</time>
      </trkpt>
      <trkpt lat="49.86456" lon="2.28692">
        <ele>101.3</ele>
        <time>2021-04-28T14:27:50Z</time>
      </trkpt>
      <trkpt lat="49.86458" lon="2.28693">
        <ele>101.3</ele>
        <time>2021-04-28T14:27:52Z</time>
      </trkpt>
      <trkpt lat="49.86459" lon="2.28693">
        <ele>101.2</ele>
        <time>2021-04-28T14:27:53Z</time>
      </trkpt>
      <trkpt lat="49.8646" lon="2.28693">
        <ele>101.2</ele>
        <time>2021-04-28T14:27:54Z</time>
      </trkpt>
      <trkpt lat="49.86461" lon="2.28693">
        <ele>101.2</ele>
        <time>2021-04-28T14:27:55Z</time>
      </trkpt>
      <trkpt lat="49.86463" lon="2.28694">
        <ele>101.2</ele>
        <time>2021-04-28T14:27:57Z</time>
      </trkpt>
      <trkpt lat="49.86464" lon="2.28694">
        <ele>101.2</ele>
        <time>2021-04-28T14:27:59Z</time>
      </trkpt>
      <trkpt lat="49.86466" lon="2.28694">
        <ele>101.2</ele>
        <time>2021-04-28T14:28:00Z</time>
      </trkpt>
      <trkpt lat="49.86467" lon="2.28693">
        <ele>101.2</ele>
        <time>2021-04-28T14:28:01Z</time>
      </trkpt>
      <trkpt lat="49.86468" lon="2.28693">
        <ele>101.1</ele>
        <time>2021-04-28T14:28:02Z</time>
      </trkpt>
      <trkpt lat="49.86469" lon="2.28693">
        <ele>101.1</ele>
        <time>2021-04-28T14:28:03Z</time>
      </trkpt>
      <trkpt lat="49.86471" lon="2.28693">
        <ele>101.1</ele>
        <time>2021-04-28T14:28:04Z</time>
      </trkpt>
      <trkpt lat="49.86471" lon="2.28693">
        <ele>101.1</ele>
        <time>2021-04-28T14:28:05Z</time>
      </trkpt>
      <trkpt lat="49.86473" lon="2.28693">
        <ele>101.1</ele>
        <time>2021-04-28T14:28:07Z</time>
      </trkpt>
      <trkpt lat="49.86474" lon="2.28693">
        <ele>101.1</ele>
        <time>2021-04-28T14:28:08Z</time>
      </trkpt>
      <trkpt lat="49.86475" lon="2.28693">
        <ele>101</ele>
        <time>2021-04-28T14:28:09Z</time>
      </trkpt>
      <trkpt lat="49.86476" lon="2.28692">
        <ele>101</ele>
        <time>2021-04-28T14:28:10Z</time>
      </trkpt>
      <trkpt lat="49.86477" lon="2.28692">
        <ele>101</ele>
        <time>2021-04-28T14:28:11Z</time>
      </trkpt>
      <trkpt lat="49.86478" lon="2.28693">
        <ele>101</ele>
        <time>2021-04-28T14:28:12Z</time>
      </trkpt>
      <trkpt lat="49.86479" lon="2.28693">
        <ele>101</ele>
        <time>2021-04-28T14:28:13Z</time>
      </trkpt>
      <trkpt lat="49.86481" lon="2.28692">
        <ele>101</ele>
        <time>2021-04-28T14:28:15Z</time>
      </trkpt>
      <trkpt lat="49.86481" lon="2.28692">
        <ele>100.9</ele>
        <time>2021-04-28T14:28:16Z</time>
      </trkpt>
      <trkpt lat="49.86482" lon="2.28692">
        <ele>100.9</ele>
        <time>2021-04-28T14:28:17Z</time>
      </trkpt>
      <trkpt lat="49.86483" lon="2.28692">
        <ele>100.9</ele>
        <time>2021-04-28T14:28:18Z</time>
      </trkpt>
      <trkpt lat="49.86484" lon="2.28692">
        <ele>100.9</ele>
        <time>2021-04-28T14:28:19Z</time>
      </trkpt>
      <trkpt lat="49.86486" lon="2.28692">
        <ele>100.9</ele>
        <time>2021-04-28T14:28:20Z</time>
      </trkpt>
      <trkpt lat="49.86487" lon="2.28692">
        <ele>100.9</ele>
        <time>2021-04-28T14:28:21Z</time>
      </trkpt>
      <trkpt lat="49.86488" lon="2.28691">
        <ele>100.8</ele>
        <time>2021-04-28T14:28:23Z</time>
      </trkpt>
      <trkpt lat="49.86489" lon="2.28691">
        <ele>100.8</ele>
        <time>2021-04-28T14:28:24Z</time>
      </trkpt>
      <trkpt lat="49.8649" lon="2.28691">
        <ele>100.8</ele>
        <time>2021-04-28T14:28:25Z</time>
      </trkpt>
      <trkpt lat="49.86491" lon="2.28692">
        <ele>100.8</ele>
        <time>2021-04-28T14:28:26Z</time>
      </trkpt>
      <trkpt lat="49.86492" lon="2.28692">
        <ele>100.8</ele>
        <time>2021-04-28T14:28:27Z</time>
      </trkpt>
      <trkpt lat="49.86493" lon="2.28692">
        <ele>100.8</ele>
        <time>2021-04-28T14:28:28Z</time>
      </trkpt>
      <trkpt lat="49.86495" lon="2.28692">
        <ele>100.7</ele>
        <time>2021-04-28T14:28:30Z</time>
      </trkpt>
      <trkpt lat="49.86496" lon="2.28692">
        <ele>100.7</ele>
        <time>2021-04-28T14:28:31Z</time>
      </trkpt>
      <trkpt lat="49.86497" lon="2.28693">
        <ele>100.7</ele>
        <time>2021-04-28T14:28:32Z</time>
      </trkpt>
      <trkpt lat="49.86498" lon="2.28693">
        <ele>100.7</ele>
        <time>2021-04-28T14:28:33Z</time>
      </trkpt>
      <trkpt lat="49.865" lon="2.28693">
        <ele>100.7</ele>
        <time>2021-04-28T14:28:34Z</time>
      </trkpt>
      <trkpt lat="49.86501" lon="2.28693">
        <ele>100.6</ele>
        <time>2021-04-28T14:28:35Z</time>
      </trkpt>
      <trkpt lat="49.86502" lon="2.28694">
        <ele>100.6</ele>
        <time>2021-04-28T14:28:37Z</time>
      </trkpt>
      <trkpt lat="49.86503" lon="2.28695">
        <ele>100.6</ele>
        <time>2021-04-28T14:28:38Z</time>
      </trkpt>
      <trkpt lat="49.86504" lon="2.28695">
        <ele>100.6</ele>
        <time>2021-04-28T14:28:39Z</time>
      </trkpt>
      <trkpt lat="49.86505" lon="2.28696">
        <ele>100.6</ele>
        <time>2021-04-28T14:28:40Z</time>
      </trkpt>
      <trkpt lat="49.86506" lon="2.28696">
        <ele>100.5</ele>
        <time>2021-04-28T14:28:41Z</time>
      </trkpt>
      <trkpt lat="49.86508" lon="2.28696">
        <ele>100.5</ele>
        <time>2021-04-28T14:28:42Z</time>
      </trkpt>
      <trkpt lat="49.86509" lon="2.28696">
        <ele>100.5</ele>
        <time>2021-04-28T14:28:44Z</time>
      </trkpt>
      <trkpt lat="49.8651" lon="2.28696">
        <ele>100.5</ele>
        <time>2021-04-28T14:28:45Z</time>
      </trkpt>
      <trkpt lat="49.86511" lon="2.28696">
        <ele>100.5</ele>
        <time>2021-04-28T14:28:46Z</time>
      </trkpt>
      <trkpt lat="49.86512" lon="2.28696">
        <ele>100.4</ele>
        <time>2021-04-28T14:28:47Z</time>
      </trkpt>
      <trkpt lat="49.86513" lon="2.28696">
        <ele>100.4</ele>
        <time>2021-04-28T14:28:48Z</time>
      </trkpt>
      <trkpt lat="49.86515" lon="2.28696">
        <ele>100.4</ele>
        <time>2021-04-28T14:28:49Z</time>
      </trkpt>
      <trkpt lat="49.86516" lon="2.28696">
        <ele>100.4</ele>
        <time>2021-04-28T14:28:50Z</time>
      </trkpt>
      <trkpt lat="49.86517" lon="2.28697">
        <ele>100.4</ele>
        <time>2021-04-28T14:28:52Z</time>
      </trkpt>
      <trkpt lat="49.86518" lon="2.28697">
        <ele>100.3</ele>
        <time>2021-04-28T14:28:53Z</time>
      </trkpt>
      <trkpt lat="49.86518" lon="2.28697">
        <ele>100.3</ele>
        <time>2021-04-28T14:28:54Z</time>
      </trkpt>
      <trkpt lat="49.86521" lon="2.28697">
        <ele>100.3</ele>
        <time>2021-04-28T14:28:55Z</time>
      </trkpt>
      <trkpt lat="49.86521" lon="2.28697">
        <ele>100.3</ele>
        <time>2021-04-28T14:28:56Z</time>
      </trkpt>
      <trkpt lat="49.86522" lon="2.28697">
        <ele>100.3</ele>
        <time>2021-04-28T14:28:57Z</time>
      </trkpt>
      <trkpt lat="49.86524" lon="2.28697">
        <ele>100.3</ele>
        <time>2021-04-28T14:28:59Z</time>
      </trkpt>
      <trkpt lat="49.86525" lon="2.28698">
        <ele>100.2</ele>
        <time>2021-04-28T14:29:00Z</time>
      </trkpt>
      <trkpt lat="49.86526" lon="2.28698">
        <ele>100.2</ele>
        <time>2021-04-28T14:29:01Z</time>
      </trkpt>
      <trkpt lat="49.86527" lon="2.28698">
        <ele>100.2</ele>
        <time>2021-04-28T14:29:02Z</time>
      </trkpt>
      <trkpt lat="49.86528" lon="2.28698">
        <ele>100.2</ele>
        <time>2021-04-28T14:29:03Z</time>
      </trkpt>
      <trkpt lat="49.86529" lon="2.28699">
        <ele>100.2</ele>
        <time>2021-04-28T14:29:04Z</time>
      </trkpt>
      <trkpt lat="49.8653" lon="2.28699">
        <ele>100.2</ele>
        <time>2021-04-28T14:29:06Z</time>
      </trkpt>
      <trkpt lat="49.86532" lon="2.28699">
        <ele>100.1</ele>
        <time>2021-04-28T14:29:07Z</time>
      </trkpt>
      <trkpt lat="49.86533" lon="2.28699">
        <ele>100.1</ele>
        <time>2021-04-28T14:29:08Z</time>
      </trkpt>
      <trkpt lat="49.86534" lon="2.28699">
        <ele>100.1</ele>
        <time>2021-04-28T14:29:10Z</time>
      </trkpt>
      <trkpt lat="49.86535" lon="2.28699">
        <ele>100.1</ele>
        <time>2021-04-28T14:29:11Z</time>
      </trkpt>
      <trkpt lat="49.86536" lon="2.287">
        <ele>100.1</ele>
        <time>2021-04-28T14:29:12Z</time>
      </trkpt>
      <trkpt lat="49.86538" lon="2.287">
        <ele>100</ele>
        <time>2021-04-28T14:29:13Z</time>
      </trkpt>
      <trkpt lat="49.86539" lon="2.287">
        <ele>100</ele>
        <time>2021-04-28T14:29:14Z</time>
      </trkpt>
      <trkpt lat="49.8654" lon="2.287">
        <ele>100</ele>
        <time>2021-04-28T14:29:15Z</time>
      </trkpt>
      <trkpt lat="49.86541" lon="2.28699">
        <ele>100</ele>
        <time>2021-04-28T14:29:16Z</time>
      </trkpt>
      <trkpt lat="49.86542" lon="2.28699">
        <ele>100</ele>
        <time>2021-04-28T14:29:18Z</time>
      </trkpt>
      <trkpt lat="49.86543" lon="2.28699">
        <ele>100</ele>
        <time>2021-04-28T14:29:19Z</time>
      </trkpt>
      <trkpt lat="49.86545" lon="2.28699">
        <ele>99.9</ele>
        <time>2021-04-28T14:29:20Z</time>
      </trkpt>
      <trkpt lat="49.86546" lon="2.28699">
        <ele>99.9</ele>
        <time>2021-04-28T14:29:21Z</time>
      </trkpt>
      <trkpt lat="49.86547" lon="2.28699">
        <ele>99.9</ele>
        <time>2021-04-28T14:29:22Z</time>
      </trkpt>
      <trkpt lat="49.86548" lon="2.28699">
        <ele>99.9</ele>
        <time>2021-04-28T14:29:24Z</time>
      </trkpt>
      <trkpt lat="49.86549" lon="2.28699">
        <ele>99.9</ele>
        <time>2021-04-28T14:29:25Z</time>
      </trkpt>
      <trkpt lat="49.8655" lon="2.28698">
        <ele>99.9</ele>
        <time>2021-04-28T14:29:26Z</time>
      </trkpt>
      <trkpt lat="49.86551" lon="2.28698">
        <ele>99.9</ele>
        <time>2021-04-28T14:29:27Z</time>
      </trkpt>
      <trkpt lat="49.86552" lon="2.28698">
        <ele>99.9</ele>
        <time>2021-04-28T14:29:28Z</time>
      </trkpt>
      <trkpt lat="49.86553" lon="2.28698">
        <ele>99.8</ele>
        <time>2021-04-28T14:29:29Z</time>
      </trkpt>
      <trkpt lat="49.86555" lon="2.28698">
        <ele>99.8</ele>
        <time>2021-04-28T14:29:30Z</time>
      </trkpt>
      <trkpt lat="49.86556" lon="2.28698">
        <ele>99.8</ele>
        <time>2021-04-28T14:29:32Z</time>
      </trkpt>
      <trkpt lat="49.86557" lon="2.28698">
        <ele>99.8</ele>
        <time>2021-04-28T14:29:33Z</time>
      </trkpt>
      <trkpt lat="49.86559" lon="2.28698">
        <ele>99.7</ele>
        <time>2021-04-28T14:29:34Z</time>
      </trkpt>
      <trkpt lat="49.8656" lon="2.28698">
        <ele>99.7</ele>
        <time>2021-04-28T14:29:35Z</time>
      </trkpt>
      <trkpt lat="49.86561" lon="2.28698">
        <ele>99.7</ele>
        <time>2021-04-28T14:29:36Z</time>
      </trkpt>
      <trkpt lat="49.86562" lon="2.28698">
        <ele>99.7</ele>
        <time>2021-04-28T14:29:37Z</time>
      </trkpt>
      <trkpt lat="49.86563" lon="2.28698">
        <ele>99.7</ele>
        <time>2021-04-28T14:29:38Z</time>
      </trkpt>
      <trkpt lat="49.86564" lon="2.28697">
        <ele>99.6</ele>
        <time>2021-04-28T14:29:40Z</time>
      </trkpt>
      <trkpt lat="49.86565" lon="2.28697">
        <ele>99.6</ele>
        <time>2021-04-28T14:29:41Z</time>
      </trkpt>
      <trkpt lat="49.86566" lon="2.28697">
        <ele>99.6</ele>
        <time>2021-04-28T14:29:42Z</time>
      </trkpt>
      <trkpt lat="49.86567" lon="2.28697">
        <ele>99.6</ele>
        <time>2021-04-28T14:29:43Z</time>
      </trkpt>
      <trkpt lat="49.86568" lon="2.28697">
        <ele>99.5</ele>
        <time>2021-04-28T14:29:44Z</time>
      </trkpt>
      <trkpt lat="49.86569" lon="2.28697">
        <ele>99.5</ele>
        <time>2021-04-28T14:29:45Z</time>
      </trkpt>
      <trkpt lat="49.8657" lon="2.28697">
        <ele>99.5</ele>
        <time>2021-04-28T14:29:46Z</time>
      </trkpt>
      <trkpt lat="49.86571" lon="2.28697">
        <ele>99.5</ele>
        <time>2021-04-28T14:29:47Z</time>
      </trkpt>
      <trkpt lat="49.86572" lon="2.28697">
        <ele>99.4</ele>
        <time>2021-04-28T14:29:49Z</time>
      </trkpt>
      <trkpt lat="49.86574" lon="2.28697">
        <ele>99.4</ele>
        <time>2021-04-28T14:29:50Z</time>
      </trkpt>
      <trkpt lat="49.86576" lon="2.28697">
        <ele>99.3</ele>
        <time>2021-04-28T14:29:51Z</time>
      </trkpt>
      <trkpt lat="49.86577" lon="2.28698">
        <ele>99.3</ele>
        <time>2021-04-28T14:29:52Z</time>
      </trkpt>
      <trkpt lat="49.86577" lon="2.28698">
        <ele>99.3</ele>
        <time>2021-04-28T14:29:53Z</time>
      </trkpt>
      <trkpt lat="49.86579" lon="2.28698">
        <ele>99.2</ele>
        <time>2021-04-28T14:29:54Z</time>
      </trkpt>
      <trkpt lat="49.8658" lon="2.28698">
        <ele>99.2</ele>
        <time>2021-04-28T14:29:55Z</time>
      </trkpt>
      <trkpt lat="49.86581" lon="2.28698">
        <ele>99.2</ele>
        <time>2021-04-28T14:29:57Z</time>
      </trkpt>
      <trkpt lat="49.86582" lon="2.28698">
        <ele>99.2</ele>
        <time>2021-04-28T14:29:58Z</time>
      </trkpt>
      <trkpt lat="49.86583" lon="2.28698">
        <ele>99.1</ele>
        <time>2021-04-28T14:29:59Z</time>
      </trkpt>
      <trkpt lat="49.86584" lon="2.28698">
        <ele>99.1</ele>
        <time>2021-04-28T14:30:00Z</time>
      </trkpt>
      <trkpt lat="49.86587" lon="2.28697">
        <ele>99</ele>
        <time>2021-04-28T14:30:01Z</time>
      </trkpt>
      <trkpt lat="49.86587" lon="2.28697">
        <ele>99</ele>
        <time>2021-04-28T14:30:02Z</time>
      </trkpt>
      <trkpt lat="49.86588" lon="2.28697">
        <ele>98.9</ele>
        <time>2021-04-28T14:30:03Z</time>
      </trkpt>
      <trkpt lat="49.8659" lon="2.28697">
        <ele>98.9</ele>
        <time>2021-04-28T14:30:04Z</time>
      </trkpt>
      <trkpt lat="49.86591" lon="2.28696">
        <ele>98.8</ele>
        <time>2021-04-28T14:30:06Z</time>
      </trkpt>
      <trkpt lat="49.86592" lon="2.28696">
        <ele>98.8</ele>
        <time>2021-04-28T14:30:07Z</time>
      </trkpt>
      <trkpt lat="49.86594" lon="2.28696">
        <ele>98.7</ele>
        <time>2021-04-28T14:30:08Z</time>
      </trkpt>
      <trkpt lat="49.86594" lon="2.28696">
        <ele>98.7</ele>
        <time>2021-04-28T14:30:09Z</time>
      </trkpt>
      <trkpt lat="49.86595" lon="2.28696">
        <ele>98.6</ele>
        <time>2021-04-28T14:30:10Z</time>
      </trkpt>
      <trkpt lat="49.86596" lon="2.28696">
        <ele>98.6</ele>
        <time>2021-04-28T14:30:11Z</time>
      </trkpt>
      <trkpt lat="49.86597" lon="2.28696">
        <ele>98.5</ele>
        <time>2021-04-28T14:30:12Z</time>
      </trkpt>
      <trkpt lat="49.86598" lon="2.28696">
        <ele>98.5</ele>
        <time>2021-04-28T14:30:14Z</time>
      </trkpt>
      <trkpt lat="49.86599" lon="2.28696">
        <ele>98.4</ele>
        <time>2021-04-28T14:30:15Z</time>
      </trkpt>
      <trkpt lat="49.86601" lon="2.28696">
        <ele>98.4</ele>
        <time>2021-04-28T14:30:16Z</time>
      </trkpt>
      <trkpt lat="49.86602" lon="2.28696">
        <ele>98.3</ele>
        <time>2021-04-28T14:30:17Z</time>
      </trkpt>
      <trkpt lat="49.86603" lon="2.28696">
        <ele>98.3</ele>
        <time>2021-04-28T14:30:18Z</time>
      </trkpt>
      <trkpt lat="49.86604" lon="2.28696">
        <ele>98.3</ele>
        <time>2021-04-28T14:30:19Z</time>
      </trkpt>
      <trkpt lat="49.86605" lon="2.28696">
        <ele>98.2</ele>
        <time>2021-04-28T14:30:20Z</time>
      </trkpt>
      <trkpt lat="49.86606" lon="2.28696">
        <ele>98.2</ele>
        <time>2021-04-28T14:30:22Z</time>
      </trkpt>
      <trkpt lat="49.86607" lon="2.28696">
        <ele>98.1</ele>
        <time>2021-04-28T14:30:23Z</time>
      </trkpt>
      <trkpt lat="49.86608" lon="2.28695">
        <ele>98.1</ele>
        <time>2021-04-28T14:30:24Z</time>
      </trkpt>
      <trkpt lat="49.86608" lon="2.28695">
        <ele>98.1</ele>
        <time>2021-04-28T14:30:25Z</time>
      </trkpt>
      <trkpt lat="49.86609" lon="2.28694">
        <ele>98</ele>
        <time>2021-04-28T14:30:26Z</time>
      </trkpt>
      <trkpt lat="49.8661" lon="2.28694">
        <ele>98</ele>
        <time>2021-04-28T14:30:28Z</time>
      </trkpt>
      <trkpt lat="49.86611" lon="2.28694">
        <ele>97.9</ele>
        <time>2021-04-28T14:30:29Z</time>
      </trkpt>
      <trkpt lat="49.86612" lon="2.28694">
        <ele>97.9</ele>
        <time>2021-04-28T14:30:30Z</time>
      </trkpt>
      <trkpt lat="49.86614" lon="2.28694">
        <ele>97.8</ele>
        <time>2021-04-28T14:30:32Z</time>
      </trkpt>
      <trkpt lat="49.86615" lon="2.28694">
        <ele>97.8</ele>
        <time>2021-04-28T14:30:33Z</time>
      </trkpt>
      <trkpt lat="49.86616" lon="2.28693">
        <ele>97.7</ele>
        <time>2021-04-28T14:30:34Z</time>
      </trkpt>
      <trkpt lat="49.86617" lon="2.28693">
        <ele>97.6</ele>
        <time>2021-04-28T14:30:36Z</time>
      </trkpt>
      <trkpt lat="49.86618" lon="2.28692">
        <ele>97.6</ele>
        <time>2021-04-28T14:30:37Z</time>
      </trkpt>
      <trkpt lat="49.8662" lon="2.28692">
        <ele>97.5</ele>
        <time>2021-04-28T14:30:39Z</time>
      </trkpt>
      <trkpt lat="49.86621" lon="2.28692">
        <ele>97.5</ele>
        <time>2021-04-28T14:30:40Z</time>
      </trkpt>
      <trkpt lat="49.86622" lon="2.28692">
        <ele>97.4</ele>
        <time>2021-04-28T14:30:41Z</time>
      </trkpt>
      <trkpt lat="49.86623" lon="2.28692">
        <ele>97.4</ele>
        <time>2021-04-28T14:30:42Z</time>
      </trkpt>
      <trkpt lat="49.86625" lon="2.28692">
        <ele>97.3</ele>
        <time>2021-04-28T14:30:43Z</time>
      </trkpt>
      <trkpt lat="49.86626" lon="2.28692">
        <ele>97.2</ele>
        <time>2021-04-28T14:30:44Z</time>
      </trkpt>
      <trkpt lat="49.86627" lon="2.28692">
        <ele>97.2</ele>
        <time>2021-04-28T14:30:46Z</time>
      </trkpt>
      <trkpt lat="49.8663" lon="2.28693">
        <ele>97.1</ele>
        <time>2021-04-28T14:30:47Z</time>
      </trkpt>
      <trkpt lat="49.86631" lon="2.28693">
        <ele>97</ele>
        <time>2021-04-28T14:30:49Z</time>
      </trkpt>
      <trkpt lat="49.86633" lon="2.28694">
        <ele>96.9</ele>
        <time>2021-04-28T14:30:50Z</time>
      </trkpt>
      <trkpt lat="49.86634" lon="2.28694">
        <ele>96.9</ele>
        <time>2021-04-28T14:30:51Z</time>
      </trkpt>
      <trkpt lat="49.86636" lon="2.28695">
        <ele>96.7</ele>
        <time>2021-04-28T14:30:53Z</time>
      </trkpt>
      <trkpt lat="49.86637" lon="2.28696">
        <ele>96.7</ele>
        <time>2021-04-28T14:30:54Z</time>
      </trkpt>
      <trkpt lat="49.86638" lon="2.28696">
        <ele>96.7</ele>
        <time>2021-04-28T14:30:55Z</time>
      </trkpt>
      <trkpt lat="49.86639" lon="2.28697">
        <ele>96.6</ele>
        <time>2021-04-28T14:30:56Z</time>
      </trkpt>
      <trkpt lat="49.86641" lon="2.28698">
        <ele>96.5</ele>
        <time>2021-04-28T14:30:57Z</time>
      </trkpt>
      <trkpt lat="49.86643" lon="2.28698">
        <ele>96.4</ele>
        <time>2021-04-28T14:30:58Z</time>
      </trkpt>
      <trkpt lat="49.86644" lon="2.28699">
        <ele>96.3</ele>
        <time>2021-04-28T14:31:00Z</time>
      </trkpt>
      <trkpt lat="49.86645" lon="2.28699">
        <ele>96.3</ele>
        <time>2021-04-28T14:31:01Z</time>
      </trkpt>
      <trkpt lat="49.86646" lon="2.28699">
        <ele>96.2</ele>
        <time>2021-04-28T14:31:02Z</time>
      </trkpt>
      <trkpt lat="49.86647" lon="2.287">
        <ele>96.2</ele>
        <time>2021-04-28T14:31:03Z</time>
      </trkpt>
      <trkpt lat="49.86648" lon="2.287">
        <ele>96.2</ele>
        <time>2021-04-28T14:31:04Z</time>
      </trkpt>
      <trkpt lat="49.8665" lon="2.287">
        <ele>96.1</ele>
        <time>2021-04-28T14:31:05Z</time>
      </trkpt>
      <trkpt lat="49.86651" lon="2.287">
        <ele>96</ele>
        <time>2021-04-28T14:31:07Z</time>
      </trkpt>
      <trkpt lat="49.86652" lon="2.287">
        <ele>96</ele>
        <time>2021-04-28T14:31:08Z</time>
      </trkpt>
      <trkpt lat="49.86653" lon="2.287">
        <ele>95.9</ele>
        <time>2021-04-28T14:31:09Z</time>
      </trkpt>
      <trkpt lat="49.86654" lon="2.287">
        <ele>95.9</ele>
        <time>2021-04-28T14:31:10Z</time>
      </trkpt>
      <trkpt lat="49.86655" lon="2.28699">
        <ele>95.8</ele>
        <time>2021-04-28T14:31:11Z</time>
      </trkpt>
      <trkpt lat="49.86656" lon="2.287">
        <ele>95.8</ele>
        <time>2021-04-28T14:31:12Z</time>
      </trkpt>
      <trkpt lat="49.86657" lon="2.287">
        <ele>95.7</ele>
        <time>2021-04-28T14:31:13Z</time>
      </trkpt>
      <trkpt lat="49.86658" lon="2.287">
        <ele>95.7</ele>
        <time>2021-04-28T14:31:15Z</time>
      </trkpt>
      <trkpt lat="49.8666" lon="2.287">
        <ele>95.6</ele>
        <time>2021-04-28T14:31:16Z</time>
      </trkpt>
      <trkpt lat="49.86661" lon="2.287">
        <ele>95.6</ele>
        <time>2021-04-28T14:31:17Z</time>
      </trkpt>
      <trkpt lat="49.86662" lon="2.287">
        <ele>95.5</ele>
        <time>2021-04-28T14:31:18Z</time>
      </trkpt>
      <trkpt lat="49.86663" lon="2.287">
        <ele>95.5</ele>
        <time>2021-04-28T14:31:19Z</time>
      </trkpt>
      <trkpt lat="49.86664" lon="2.287">
        <ele>95.4</ele>
        <time>2021-04-28T14:31:20Z</time>
      </trkpt>
      <trkpt lat="49.86664" lon="2.287">
        <ele>95.4</ele>
        <time>2021-04-28T14:31:21Z</time>
      </trkpt>
      <trkpt lat="49.86665" lon="2.287">
        <ele>95.3</ele>
        <time>2021-04-28T14:31:23Z</time>
      </trkpt>
      <trkpt lat="49.86666" lon="2.287">
        <ele>95.3</ele>
        <time>2021-04-28T14:31:24Z</time>
      </trkpt>
      <trkpt lat="49.86667" lon="2.287">
        <ele>95.2</ele>
        <time>2021-04-28T14:31:25Z</time>
      </trkpt>
      <trkpt lat="49.86668" lon="2.287">
        <ele>95.2</ele>
        <time>2021-04-28T14:31:26Z</time>
      </trkpt>
      <trkpt lat="49.86669" lon="2.287">
        <ele>95.1</ele>
        <time>2021-04-28T14:31:27Z</time>
      </trkpt>
      <trkpt lat="49.8667" lon="2.287">
        <ele>95.1</ele>
        <time>2021-04-28T14:31:28Z</time>
      </trkpt>
      <trkpt lat="49.86672" lon="2.287">
        <ele>95</ele>
        <time>2021-04-28T14:31:29Z</time>
      </trkpt>
      <trkpt lat="49.86673" lon="2.287">
        <ele>95</ele>
        <time>2021-04-28T14:31:31Z</time>
      </trkpt>
      <trkpt lat="49.86674" lon="2.287">
        <ele>94.9</ele>
        <time>2021-04-28T14:31:32Z</time>
      </trkpt>
      <trkpt lat="49.86675" lon="2.28701">
        <ele>94.8</ele>
        <time>2021-04-28T14:31:34Z</time>
      </trkpt>
      <trkpt lat="49.86676" lon="2.28701">
        <ele>94.8</ele>
        <time>2021-04-28T14:31:35Z</time>
      </trkpt>
      <trkpt lat="49.86678" lon="2.28701">
        <ele>94.7</ele>
        <time>2021-04-28T14:31:36Z</time>
      </trkpt>
      <trkpt lat="49.86679" lon="2.28702">
        <ele>94.7</ele>
        <time>2021-04-28T14:31:37Z</time>
      </trkpt>
      <trkpt lat="49.8668" lon="2.28702">
        <ele>94.6</ele>
        <time>2021-04-28T14:31:38Z</time>
      </trkpt>
      <trkpt lat="49.86681" lon="2.28702">
        <ele>94.5</ele>
        <time>2021-04-28T14:31:39Z</time>
      </trkpt>
      <trkpt lat="49.86682" lon="2.28702">
        <ele>94.5</ele>
        <time>2021-04-28T14:31:41Z</time>
      </trkpt>
      <trkpt lat="49.86683" lon="2.28702">
        <ele>94.4</ele>
        <time>2021-04-28T14:31:42Z</time>
      </trkpt>
      <trkpt lat="49.86684" lon="2.28702">
        <ele>94.4</ele>
        <time>2021-04-28T14:31:43Z</time>
      </trkpt>
      <trkpt lat="49.86685" lon="2.28702">
        <ele>94.3</ele>
        <time>2021-04-28T14:31:44Z</time>
      </trkpt>
      <trkpt lat="49.86687" lon="2.28702">
        <ele>94.3</ele>
        <time>2021-04-28T14:31:45Z</time>
      </trkpt>
      <trkpt lat="49.86687" lon="2.28701">
        <ele>94.2</ele>
        <time>2021-04-28T14:31:46Z</time>
      </trkpt>
      <trkpt lat="49.86688" lon="2.28701">
        <ele>94.2</ele>
        <time>2021-04-28T14:31:48Z</time>
      </trkpt>
      <trkpt lat="49.86689" lon="2.28701">
        <ele>94.1</ele>
        <time>2021-04-28T14:31:49Z</time>
      </trkpt>
      <trkpt lat="49.8669" lon="2.28701">
        <ele>94.1</ele>
        <time>2021-04-28T14:31:50Z</time>
      </trkpt>
      <trkpt lat="49.86691" lon="2.28701">
        <ele>94.1</ele>
        <time>2021-04-28T14:31:51Z</time>
      </trkpt>
      <trkpt lat="49.86692" lon="2.28702">
        <ele>94</ele>
        <time>2021-04-28T14:31:52Z</time>
      </trkpt>
      <trkpt lat="49.86693" lon="2.28702">
        <ele>93.9</ele>
        <time>2021-04-28T14:31:53Z</time>
      </trkpt>
      <trkpt lat="49.86694" lon="2.28702">
        <ele>93.9</ele>
        <time>2021-04-28T14:31:55Z</time>
      </trkpt>
      <trkpt lat="49.86695" lon="2.28702">
        <ele>93.8</ele>
        <time>2021-04-28T14:31:56Z</time>
      </trkpt>
      <trkpt lat="49.86696" lon="2.28702">
        <ele>93.8</ele>
        <time>2021-04-28T14:31:57Z</time>
      </trkpt>
      <trkpt lat="49.86697" lon="2.28702">
        <ele>93.7</ele>
        <time>2021-04-28T14:31:58Z</time>
      </trkpt>
      <trkpt lat="49.86698" lon="2.28702">
        <ele>93.7</ele>
        <time>2021-04-28T14:31:59Z</time>
      </trkpt>
      <trkpt lat="49.86699" lon="2.28702">
        <ele>93.6</ele>
        <time>2021-04-28T14:32:00Z</time>
      </trkpt>
      <trkpt lat="49.867" lon="2.28702">
        <ele>93.6</ele>
        <time>2021-04-28T14:32:02Z</time>
      </trkpt>
      <trkpt lat="49.86701" lon="2.28702">
        <ele>93.5</ele>
        <time>2021-04-28T14:32:03Z</time>
      </trkpt>
      <trkpt lat="49.86703" lon="2.28702">
        <ele>93.5</ele>
        <time>2021-04-28T14:32:04Z</time>
      </trkpt>
      <trkpt lat="49.86703" lon="2.28702">
        <ele>93.4</ele>
        <time>2021-04-28T14:32:05Z</time>
      </trkpt>
      <trkpt lat="49.86704" lon="2.28702">
        <ele>93.4</ele>
        <time>2021-04-28T14:32:06Z</time>
      </trkpt>
      <trkpt lat="49.86706" lon="2.28702">
        <ele>93.3</ele>
        <time>2021-04-28T14:32:07Z</time>
      </trkpt>
      <trkpt lat="49.86706" lon="2.28702">
        <ele>93.3</ele>
        <time>2021-04-28T14:32:08Z</time>
      </trkpt>
      <trkpt lat="49.86707" lon="2.28702">
        <ele>93.2</ele>
        <time>2021-04-28T14:32:10Z</time>
      </trkpt>
      <trkpt lat="49.86708" lon="2.28701">
        <ele>93.2</ele>
        <time>2021-04-28T14:32:11Z</time>
      </trkpt>
      <trkpt lat="49.86709" lon="2.28701">
        <ele>93.1</ele>
        <time>2021-04-28T14:32:12Z</time>
      </trkpt>
      <trkpt lat="49.8671" lon="2.28702">
        <ele>93.1</ele>
        <time>2021-04-28T14:32:13Z</time>
      </trkpt>
      <trkpt lat="49.86711" lon="2.28702">
        <ele>93.1</ele>
        <time>2021-04-28T14:32:14Z</time>
      </trkpt>
      <trkpt lat="49.86712" lon="2.28701">
        <ele>93</ele>
        <time>2021-04-28T14:32:15Z</time>
      </trkpt>
      <trkpt lat="49.86713" lon="2.28701">
        <ele>92.9</ele>
        <time>2021-04-28T14:32:16Z</time>
      </trkpt>
      <trkpt lat="49.86715" lon="2.28701">
        <ele>92.9</ele>
        <time>2021-04-28T14:32:18Z</time>
      </trkpt>
      <trkpt lat="49.86716" lon="2.28702">
        <ele>92.8</ele>
        <time>2021-04-28T14:32:19Z</time>
      </trkpt>
      <trkpt lat="49.86717" lon="2.28702">
        <ele>92.8</ele>
        <time>2021-04-28T14:32:20Z</time>
      </trkpt>
      <trkpt lat="49.86716" lon="2.28702">
        <ele>92.7</ele>
        <time>2021-04-28T14:32:21Z</time>
      </trkpt>
      <trkpt lat="49.86718" lon="2.28703">
        <ele>92.6</ele>
        <time>2021-04-28T14:32:23Z</time>
      </trkpt>
      <trkpt lat="49.8672" lon="2.28703">
        <ele>92.5</ele>
        <time>2021-04-28T14:32:25Z</time>
      </trkpt>
      <trkpt lat="49.86721" lon="2.28703">
        <ele>92.5</ele>
        <time>2021-04-28T14:32:26Z</time>
      </trkpt>
      <trkpt lat="49.86723" lon="2.28704">
        <ele>92.4</ele>
        <time>2021-04-28T14:32:27Z</time>
      </trkpt>
      <trkpt lat="49.86723" lon="2.28704">
        <ele>92.4</ele>
        <time>2021-04-28T14:32:28Z</time>
      </trkpt>
      <trkpt lat="49.86724" lon="2.28704">
        <ele>92.3</ele>
        <time>2021-04-28T14:32:30Z</time>
      </trkpt>
      <trkpt lat="49.86726" lon="2.28704">
        <ele>92.2</ele>
        <time>2021-04-28T14:32:31Z</time>
      </trkpt>
      <trkpt lat="49.86727" lon="2.28704">
        <ele>92.2</ele>
        <time>2021-04-28T14:32:32Z</time>
      </trkpt>
      <trkpt lat="49.8673" lon="2.28704">
        <ele>92</ele>
        <time>2021-04-28T14:32:33Z</time>
      </trkpt>
      <trkpt lat="49.86731" lon="2.28704">
        <ele>92</ele>
        <time>2021-04-28T14:32:34Z</time>
      </trkpt>
      <trkpt lat="49.86733" lon="2.28704">
        <ele>91.9</ele>
        <time>2021-04-28T14:32:35Z</time>
      </trkpt>
      <trkpt lat="49.86734" lon="2.28705">
        <ele>91.8</ele>
        <time>2021-04-28T14:32:37Z</time>
      </trkpt>
      <trkpt lat="49.86736" lon="2.28705">
        <ele>91.7</ele>
        <time>2021-04-28T14:32:38Z</time>
      </trkpt>
      <trkpt lat="49.86737" lon="2.28705">
        <ele>91.7</ele>
        <time>2021-04-28T14:32:39Z</time>
      </trkpt>
      <trkpt lat="49.86738" lon="2.28705">
        <ele>91.6</ele>
        <time>2021-04-28T14:32:40Z</time>
      </trkpt>
      <trkpt lat="49.8674" lon="2.28705">
        <ele>91.5</ele>
        <time>2021-04-28T14:32:41Z</time>
      </trkpt>
      <trkpt lat="49.86741" lon="2.28705">
        <ele>91.5</ele>
        <time>2021-04-28T14:32:42Z</time>
      </trkpt>
      <trkpt lat="49.86742" lon="2.28705">
        <ele>91.4</ele>
        <time>2021-04-28T14:32:43Z</time>
      </trkpt>
      <trkpt lat="49.86743" lon="2.28705">
        <ele>91.3</ele>
        <time>2021-04-28T14:32:45Z</time>
      </trkpt>
      <trkpt lat="49.86744" lon="2.28705">
        <ele>91.3</ele>
        <time>2021-04-28T14:32:46Z</time>
      </trkpt>
      <trkpt lat="49.86745" lon="2.28705">
        <ele>91.2</ele>
        <time>2021-04-28T14:32:47Z</time>
      </trkpt>
      <trkpt lat="49.86746" lon="2.28705">
        <ele>91.2</ele>
        <time>2021-04-28T14:32:48Z</time>
      </trkpt>
      <trkpt lat="49.86747" lon="2.28705">
        <ele>91.1</ele>
        <time>2021-04-28T14:32:49Z</time>
      </trkpt>
      <trkpt lat="49.86748" lon="2.28705">
        <ele>91.1</ele>
        <time>2021-04-28T14:32:50Z</time>
      </trkpt>
      <trkpt lat="49.86749" lon="2.28705">
        <ele>91</ele>
        <time>2021-04-28T14:32:52Z</time>
      </trkpt>
      <trkpt lat="49.8675" lon="2.28704">
        <ele>91</ele>
        <time>2021-04-28T14:32:53Z</time>
      </trkpt>
      <trkpt lat="49.8675" lon="2.28704">
        <ele>90.9</ele>
        <time>2021-04-28T14:32:54Z</time>
      </trkpt>
      <trkpt lat="49.86751" lon="2.28704">
        <ele>90.9</ele>
        <time>2021-04-28T14:32:55Z</time>
      </trkpt>
      <trkpt lat="49.86752" lon="2.28704">
        <ele>90.8</ele>
        <time>2021-04-28T14:32:56Z</time>
      </trkpt>
      <trkpt lat="49.86753" lon="2.28704">
        <ele>90.8</ele>
        <time>2021-04-28T14:32:58Z</time>
      </trkpt>
      <trkpt lat="49.86754" lon="2.28704">
        <ele>90.7</ele>
        <time>2021-04-28T14:32:59Z</time>
      </trkpt>
      <trkpt lat="49.86755" lon="2.28704">
        <ele>90.7</ele>
        <time>2021-04-28T14:33:00Z</time>
      </trkpt>
      <trkpt lat="49.86755" lon="2.28704">
        <ele>90.7</ele>
        <time>2021-04-28T14:33:01Z</time>
      </trkpt>
      <trkpt lat="49.86756" lon="2.28704">
        <ele>90.6</ele>
        <time>2021-04-28T14:33:02Z</time>
      </trkpt>
      <trkpt lat="49.86759" lon="2.28704">
        <ele>90.5</ele>
        <time>2021-04-28T14:33:04Z</time>
      </trkpt>
      <trkpt lat="49.86759" lon="2.28705">
        <ele>90.4</ele>
        <time>2021-04-28T14:33:05Z</time>
      </trkpt>
      <trkpt lat="49.8676" lon="2.28705">
        <ele>90.4</ele>
        <time>2021-04-28T14:33:06Z</time>
      </trkpt>
      <trkpt lat="49.86762" lon="2.28705">
        <ele>90.3</ele>
        <time>2021-04-28T14:33:08Z</time>
      </trkpt>
      <trkpt lat="49.86763" lon="2.28706">
        <ele>90.2</ele>
        <time>2021-04-28T14:33:09Z</time>
      </trkpt>
      <trkpt lat="49.86764" lon="2.28707">
        <ele>90.1</ele>
        <time>2021-04-28T14:33:10Z</time>
      </trkpt>
      <trkpt lat="49.86765" lon="2.28707">
        <ele>90.1</ele>
        <time>2021-04-28T14:33:11Z</time>
      </trkpt>
      <trkpt lat="49.86766" lon="2.28707">
        <ele>90</ele>
        <time>2021-04-28T14:33:13Z</time>
      </trkpt>
      <trkpt lat="49.86767" lon="2.28707">
        <ele>90</ele>
        <time>2021-04-28T14:33:14Z</time>
      </trkpt>
      <trkpt lat="49.86768" lon="2.28707">
        <ele>89.9</ele>
        <time>2021-04-28T14:33:15Z</time>
      </trkpt>
      <trkpt lat="49.86769" lon="2.28707">
        <ele>89.8</ele>
        <time>2021-04-28T14:33:16Z</time>
      </trkpt>
      <trkpt lat="49.86771" lon="2.28707">
        <ele>89.8</ele>
        <time>2021-04-28T14:33:17Z</time>
      </trkpt>
      <trkpt lat="49.86772" lon="2.28707">
        <ele>89.7</ele>
        <time>2021-04-28T14:33:18Z</time>
      </trkpt>
      <trkpt lat="49.86773" lon="2.28708">
        <ele>89.6</ele>
        <time>2021-04-28T14:33:20Z</time>
      </trkpt>
      <trkpt lat="49.86775" lon="2.28708">
        <ele>89.5</ele>
        <time>2021-04-28T14:33:21Z</time>
      </trkpt>
      <trkpt lat="49.86776" lon="2.28708">
        <ele>89.5</ele>
        <time>2021-04-28T14:33:22Z</time>
      </trkpt>
      <trkpt lat="49.86777" lon="2.28708">
        <ele>89.4</ele>
        <time>2021-04-28T14:33:23Z</time>
      </trkpt>
      <trkpt lat="49.86778" lon="2.28708">
        <ele>89.3</ele>
        <time>2021-04-28T14:33:24Z</time>
      </trkpt>
      <trkpt lat="49.86779" lon="2.28708">
        <ele>89.3</ele>
        <time>2021-04-28T14:33:25Z</time>
      </trkpt>
      <trkpt lat="49.8678" lon="2.28709">
        <ele>89.2</ele>
        <time>2021-04-28T14:33:27Z</time>
      </trkpt>
      <trkpt lat="49.86782" lon="2.28709">
        <ele>89.1</ele>
        <time>2021-04-28T14:33:28Z</time>
      </trkpt>
      <trkpt lat="49.86782" lon="2.28709">
        <ele>89.1</ele>
        <time>2021-04-28T14:33:29Z</time>
      </trkpt>
      <trkpt lat="49.86783" lon="2.28709">
        <ele>89</ele>
        <time>2021-04-28T14:33:30Z</time>
      </trkpt>
      <trkpt lat="49.86785" lon="2.2871">
        <ele>88.9</ele>
        <time>2021-04-28T14:33:32Z</time>
      </trkpt>
      <trkpt lat="49.86785" lon="2.2871">
        <ele>88.9</ele>
        <time>2021-04-28T14:33:33Z</time>
      </trkpt>
      <trkpt lat="49.86786" lon="2.2871">
        <ele>88.8</ele>
        <time>2021-04-28T14:33:34Z</time>
      </trkpt>
      <trkpt lat="49.86788" lon="2.28711">
        <ele>88.7</ele>
        <time>2021-04-28T14:33:35Z</time>
      </trkpt>
      <trkpt lat="49.86789" lon="2.28711">
        <ele>88.7</ele>
        <time>2021-04-28T14:33:37Z</time>
      </trkpt>
      <trkpt lat="49.8679" lon="2.28711">
        <ele>88.6</ele>
        <time>2021-04-28T14:33:38Z</time>
      </trkpt>
      <trkpt lat="49.86791" lon="2.28711">
        <ele>88.6</ele>
        <time>2021-04-28T14:33:39Z</time>
      </trkpt>
      <trkpt lat="49.86792" lon="2.28712">
        <ele>88.5</ele>
        <time>2021-04-28T14:33:41Z</time>
      </trkpt>
      <trkpt lat="49.86793" lon="2.28712">
        <ele>88.4</ele>
        <time>2021-04-28T14:33:42Z</time>
      </trkpt>
      <trkpt lat="49.86794" lon="2.28712">
        <ele>88.4</ele>
        <time>2021-04-28T14:33:43Z</time>
      </trkpt>
      <trkpt lat="49.86795" lon="2.28711">
        <ele>88.3</ele>
        <time>2021-04-28T14:33:44Z</time>
      </trkpt>
      <trkpt lat="49.86796" lon="2.28711">
        <ele>88.3</ele>
        <time>2021-04-28T14:33:46Z</time>
      </trkpt>
      <trkpt lat="49.86797" lon="2.28711">
        <ele>88.2</ele>
        <time>2021-04-28T14:33:47Z</time>
      </trkpt>
      <trkpt lat="49.86798" lon="2.28711">
        <ele>88.1</ele>
        <time>2021-04-28T14:33:48Z</time>
      </trkpt>
      <trkpt lat="49.86799" lon="2.28711">
        <ele>88</ele>
        <time>2021-04-28T14:33:49Z</time>
      </trkpt>
      <trkpt lat="49.86801" lon="2.28711">
        <ele>88</ele>
        <time>2021-04-28T14:33:50Z</time>
      </trkpt>
      <trkpt lat="49.86802" lon="2.28712">
        <ele>87.9</ele>
        <time>2021-04-28T14:33:52Z</time>
      </trkpt>
      <trkpt lat="49.86803" lon="2.28712">
        <ele>87.8</ele>
        <time>2021-04-28T14:33:53Z</time>
      </trkpt>
      <trkpt lat="49.86804" lon="2.28712">
        <ele>87.8</ele>
        <time>2021-04-28T14:33:54Z</time>
      </trkpt>
      <trkpt lat="49.86805" lon="2.28712">
        <ele>87.7</ele>
        <time>2021-04-28T14:33:55Z</time>
      </trkpt>
      <trkpt lat="49.86806" lon="2.28713">
        <ele>87.6</ele>
        <time>2021-04-28T14:33:56Z</time>
      </trkpt>
      <trkpt lat="49.86808" lon="2.28713">
        <ele>87.5</ele>
        <time>2021-04-28T14:33:57Z</time>
      </trkpt>
      <trkpt lat="49.86809" lon="2.28713">
        <ele>87.5</ele>
        <time>2021-04-28T14:33:58Z</time>
      </trkpt>
      <trkpt lat="49.86809" lon="2.28713">
        <ele>87.5</ele>
        <time>2021-04-28T14:34:00Z</time>
      </trkpt>
      <trkpt lat="49.8681" lon="2.28714">
        <ele>87.4</ele>
        <time>2021-04-28T14:34:01Z</time>
      </trkpt>
      <trkpt lat="49.86811" lon="2.28714">
        <ele>87.4</ele>
        <time>2021-04-28T14:34:03Z</time>
      </trkpt>
      <trkpt lat="49.86811" lon="2.28714">
        <ele>87.4</ele>
        <time>2021-04-28T14:34:05Z</time>
      </trkpt>
      <trkpt lat="49.86812" lon="2.28714">
        <ele>87.3</ele>
        <time>2021-04-28T14:34:06Z</time>
      </trkpt>
      <trkpt lat="49.86812" lon="2.28714">
        <ele>87.3</ele>
        <time>2021-04-28T14:34:07Z</time>
      </trkpt>
      <trkpt lat="49.86813" lon="2.28714">
        <ele>87.3</ele>
        <time>2021-04-28T14:34:08Z</time>
      </trkpt>
      <trkpt lat="49.86814" lon="2.28714">
        <ele>87.2</ele>
        <time>2021-04-28T14:34:10Z</time>
      </trkpt>
      <trkpt lat="49.86814" lon="2.28714">
        <ele>87.2</ele>
        <time>2021-04-28T14:34:11Z</time>
      </trkpt>
      <trkpt lat="49.86815" lon="2.28714">
        <ele>87.2</ele>
        <time>2021-04-28T14:34:12Z</time>
      </trkpt>
      <trkpt lat="49.86816" lon="2.28714">
        <ele>87.1</ele>
        <time>2021-04-28T14:34:13Z</time>
      </trkpt>
      <trkpt lat="49.86816" lon="2.28714">
        <ele>87.1</ele>
        <time>2021-04-28T14:34:14Z</time>
      </trkpt>
      <trkpt lat="49.86817" lon="2.28716">
        <ele>87</ele>
        <time>2021-04-28T14:34:16Z</time>
      </trkpt>
      <trkpt lat="49.86819" lon="2.28717">
        <ele>86.9</ele>
        <time>2021-04-28T14:34:17Z</time>
      </trkpt>
      <trkpt lat="49.86821" lon="2.28718">
        <ele>86.8</ele>
        <time>2021-04-28T14:34:19Z</time>
      </trkpt>
      <trkpt lat="49.86822" lon="2.28719">
        <ele>86.8</ele>
        <time>2021-04-28T14:34:20Z</time>
      </trkpt>
      <trkpt lat="49.86824" lon="2.2872">
        <ele>86.7</ele>
        <time>2021-04-28T14:34:22Z</time>
      </trkpt>
      <trkpt lat="49.86825" lon="2.2872">
        <ele>86.7</ele>
        <time>2021-04-28T14:34:23Z</time>
      </trkpt>
      <trkpt lat="49.86828" lon="2.28721">
        <ele>86.6</ele>
        <time>2021-04-28T14:34:24Z</time>
      </trkpt>
      <trkpt lat="49.86829" lon="2.28721">
        <ele>86.5</ele>
        <time>2021-04-28T14:34:26Z</time>
      </trkpt>
      <trkpt lat="49.8683" lon="2.28722">
        <ele>86.5</ele>
        <time>2021-04-28T14:34:27Z</time>
      </trkpt>
      <trkpt lat="49.86831" lon="2.28722">
        <ele>86.4</ele>
        <time>2021-04-28T14:34:28Z</time>
      </trkpt>
      <trkpt lat="49.86832" lon="2.28723">
        <ele>86.4</ele>
        <time>2021-04-28T14:34:29Z</time>
      </trkpt>
      <trkpt lat="49.86833" lon="2.28723">
        <ele>86.3</ele>
        <time>2021-04-28T14:34:30Z</time>
      </trkpt>
      <trkpt lat="49.86834" lon="2.28724">
        <ele>86.3</ele>
        <time>2021-04-28T14:34:32Z</time>
      </trkpt>
      <trkpt lat="49.86835" lon="2.28724">
        <ele>86.2</ele>
        <time>2021-04-28T14:34:33Z</time>
      </trkpt>
      <trkpt lat="49.86837" lon="2.28725">
        <ele>86.2</ele>
        <time>2021-04-28T14:34:34Z</time>
      </trkpt>
      <trkpt lat="49.86838" lon="2.28725">
        <ele>86.1</ele>
        <time>2021-04-28T14:34:35Z</time>
      </trkpt>
      <trkpt lat="49.86839" lon="2.28726">
        <ele>86.1</ele>
        <time>2021-04-28T14:34:36Z</time>
      </trkpt>
      <trkpt lat="49.8684" lon="2.28726">
        <ele>86</ele>
        <time>2021-04-28T14:34:37Z</time>
      </trkpt>
      <trkpt lat="49.86841" lon="2.28726">
        <ele>86</ele>
        <time>2021-04-28T14:34:39Z</time>
      </trkpt>
      <trkpt lat="49.86842" lon="2.28725">
        <ele>85.9</ele>
        <time>2021-04-28T14:34:40Z</time>
      </trkpt>
      <trkpt lat="49.86843" lon="2.28725">
        <ele>85.9</ele>
        <time>2021-04-28T14:34:41Z</time>
      </trkpt>
      <trkpt lat="49.86844" lon="2.28723">
        <ele>85.8</ele>
        <time>2021-04-28T14:34:42Z</time>
      </trkpt>
      <trkpt lat="49.86846" lon="2.28723">
        <ele>85.8</ele>
        <time>2021-04-28T14:34:44Z</time>
      </trkpt>
      <trkpt lat="49.86847" lon="2.28723">
        <ele>85.7</ele>
        <time>2021-04-28T14:34:45Z</time>
      </trkpt>
      <trkpt lat="49.86848" lon="2.28724">
        <ele>85.7</ele>
        <time>2021-04-28T14:34:46Z</time>
      </trkpt>
      <trkpt lat="49.86849" lon="2.28724">
        <ele>85.6</ele>
        <time>2021-04-28T14:34:47Z</time>
      </trkpt>
      <trkpt lat="49.8685" lon="2.28724">
        <ele>85.6</ele>
        <time>2021-04-28T14:34:48Z</time>
      </trkpt>
      <trkpt lat="49.86851" lon="2.28724">
        <ele>85.6</ele>
        <time>2021-04-28T14:34:50Z</time>
      </trkpt>
      <trkpt lat="49.86852" lon="2.28723">
        <ele>85.5</ele>
        <time>2021-04-28T14:34:51Z</time>
      </trkpt>
      <trkpt lat="49.86852" lon="2.28724">
        <ele>85.5</ele>
        <time>2021-04-28T14:34:52Z</time>
      </trkpt>
      <trkpt lat="49.86853" lon="2.28725">
        <ele>85.5</ele>
        <time>2021-04-28T14:34:53Z</time>
      </trkpt>
      <trkpt lat="49.86853" lon="2.28725">
        <ele>85.5</ele>
        <time>2021-04-28T14:34:55Z</time>
      </trkpt>
      <trkpt lat="49.86854" lon="2.28726">
        <ele>85.4</ele>
        <time>2021-04-28T14:34:56Z</time>
      </trkpt>
      <trkpt lat="49.86855" lon="2.28727">
        <ele>85.4</ele>
        <time>2021-04-28T14:34:58Z</time>
      </trkpt>
      <trkpt lat="49.86855" lon="2.28728">
        <ele>85.4</ele>
        <time>2021-04-28T14:34:59Z</time>
      </trkpt>
      <trkpt lat="49.86856" lon="2.28728">
        <ele>85.3</ele>
        <time>2021-04-28T14:35:00Z</time>
      </trkpt>
      <trkpt lat="49.86858" lon="2.28729">
        <ele>85.3</ele>
        <time>2021-04-28T14:35:01Z</time>
      </trkpt>
      <trkpt lat="49.86859" lon="2.28729">
        <ele>85.2</ele>
        <time>2021-04-28T14:35:02Z</time>
      </trkpt>
      <trkpt lat="49.8686" lon="2.28729">
        <ele>85.2</ele>
        <time>2021-04-28T14:35:04Z</time>
      </trkpt>
      <trkpt lat="49.86861" lon="2.28729">
        <ele>85.2</ele>
        <time>2021-04-28T14:35:05Z</time>
      </trkpt>
      <trkpt lat="49.86862" lon="2.28729">
        <ele>85.1</ele>
        <time>2021-04-28T14:35:06Z</time>
      </trkpt>
      <trkpt lat="49.86863" lon="2.2873">
        <ele>85.1</ele>
        <time>2021-04-28T14:35:07Z</time>
      </trkpt>
      <trkpt lat="49.86864" lon="2.2873">
        <ele>85</ele>
        <time>2021-04-28T14:35:09Z</time>
      </trkpt>
      <trkpt lat="49.86865" lon="2.28731">
        <ele>85</ele>
        <time>2021-04-28T14:35:10Z</time>
      </trkpt>
      <trkpt lat="49.86866" lon="2.28731">
        <ele>85</ele>
        <time>2021-04-28T14:35:11Z</time>
      </trkpt>
      <trkpt lat="49.86867" lon="2.2873">
        <ele>85</ele>
        <time>2021-04-28T14:35:12Z</time>
      </trkpt>
      <trkpt lat="49.86868" lon="2.28731">
        <ele>84.9</ele>
        <time>2021-04-28T14:35:14Z</time>
      </trkpt>
      <trkpt lat="49.86869" lon="2.28731">
        <ele>84.9</ele>
        <time>2021-04-28T14:35:15Z</time>
      </trkpt>
      <trkpt lat="49.8687" lon="2.28731">
        <ele>84.9</ele>
        <time>2021-04-28T14:35:16Z</time>
      </trkpt>
      <trkpt lat="49.86871" lon="2.28732">
        <ele>84.9</ele>
        <time>2021-04-28T14:35:17Z</time>
      </trkpt>
      <trkpt lat="49.86872" lon="2.28733">
        <ele>84.8</ele>
        <time>2021-04-28T14:35:19Z</time>
      </trkpt>
      <trkpt lat="49.86873" lon="2.28734">
        <ele>84.8</ele>
        <time>2021-04-28T14:35:20Z</time>
      </trkpt>
      <trkpt lat="49.86874" lon="2.28735">
        <ele>84.8</ele>
        <time>2021-04-28T14:35:22Z</time>
      </trkpt>
      <trkpt lat="49.86875" lon="2.28735">
        <ele>84.8</ele>
        <time>2021-04-28T14:35:23Z</time>
      </trkpt>
      <trkpt lat="49.86875" lon="2.28736">
        <ele>84.8</ele>
        <time>2021-04-28T14:35:24Z</time>
      </trkpt>
      <trkpt lat="49.86876" lon="2.28736">
        <ele>84.7</ele>
        <time>2021-04-28T14:35:25Z</time>
      </trkpt>
      <trkpt lat="49.86877" lon="2.28737">
        <ele>84.7</ele>
        <time>2021-04-28T14:35:26Z</time>
      </trkpt>
      <trkpt lat="49.86878" lon="2.28739">
        <ele>84.7</ele>
        <time>2021-04-28T14:35:27Z</time>
      </trkpt>
      <trkpt lat="49.86879" lon="2.2874">
        <ele>84.7</ele>
        <time>2021-04-28T14:35:29Z</time>
      </trkpt>
      <trkpt lat="49.8688" lon="2.2874">
        <ele>84.7</ele>
        <time>2021-04-28T14:35:30Z</time>
      </trkpt>
      <trkpt lat="49.86881" lon="2.2874">
        <ele>84.7</ele>
        <time>2021-04-28T14:35:31Z</time>
      </trkpt>
      <trkpt lat="49.86881" lon="2.28741">
        <ele>84.7</ele>
        <time>2021-04-28T14:35:32Z</time>
      </trkpt>
      <trkpt lat="49.86882" lon="2.28741">
        <ele>84.7</ele>
        <time>2021-04-28T14:35:33Z</time>
      </trkpt>
      <trkpt lat="49.86883" lon="2.28742">
        <ele>84.6</ele>
        <time>2021-04-28T14:35:35Z</time>
      </trkpt>
      <trkpt lat="49.86884" lon="2.28742">
        <ele>84.6</ele>
        <time>2021-04-28T14:35:36Z</time>
      </trkpt>
      <trkpt lat="49.86885" lon="2.28742">
        <ele>84.6</ele>
        <time>2021-04-28T14:35:37Z</time>
      </trkpt>
      <trkpt lat="49.86886" lon="2.28742">
        <ele>84.6</ele>
        <time>2021-04-28T14:35:38Z</time>
      </trkpt>
      <trkpt lat="49.86886" lon="2.2874">
        <ele>84.6</ele>
        <time>2021-04-28T14:35:39Z</time>
      </trkpt>
      <trkpt lat="49.86887" lon="2.28739">
        <ele>84.6</ele>
        <time>2021-04-28T14:35:40Z</time>
      </trkpt>
      <trkpt lat="49.86887" lon="2.28737">
        <ele>84.6</ele>
        <time>2021-04-28T14:35:42Z</time>
      </trkpt>
      <trkpt lat="49.86887" lon="2.28736">
        <ele>84.6</ele>
        <time>2021-04-28T14:35:43Z</time>
      </trkpt>
      <trkpt lat="49.86887" lon="2.28734">
        <ele>84.6</ele>
        <time>2021-04-28T14:35:44Z</time>
      </trkpt>
      <trkpt lat="49.86887" lon="2.28731">
        <ele>84.6</ele>
        <time>2021-04-28T14:35:45Z</time>
      </trkpt>
      <trkpt lat="49.86886" lon="2.28729">
        <ele>84.6</ele>
        <time>2021-04-28T14:35:46Z</time>
      </trkpt>
      <trkpt lat="49.86885" lon="2.28726">
        <ele>84.6</ele>
        <time>2021-04-28T14:35:48Z</time>
      </trkpt>
      <trkpt lat="49.86885" lon="2.28726">
        <ele>84.6</ele>
        <time>2021-04-28T14:35:49Z</time>
      </trkpt>
      <trkpt lat="49.86884" lon="2.28725">
        <ele>84.6</ele>
        <time>2021-04-28T14:35:50Z</time>
      </trkpt>
      <trkpt lat="49.86882" lon="2.28723">
        <ele>84.6</ele>
        <time>2021-04-28T14:35:52Z</time>
      </trkpt>
      <trkpt lat="49.86881" lon="2.28721">
        <ele>84.6</ele>
        <time>2021-04-28T14:35:53Z</time>
      </trkpt>
      <trkpt lat="49.86881" lon="2.2872">
        <ele>84.6</ele>
        <time>2021-04-28T14:35:54Z</time>
      </trkpt>
      <trkpt lat="49.8688" lon="2.28718">
        <ele>84.6</ele>
        <time>2021-04-28T14:35:55Z</time>
      </trkpt>
      <trkpt lat="49.8688" lon="2.28716">
        <ele>84.6</ele>
        <time>2021-04-28T14:35:57Z</time>
      </trkpt>
      <trkpt lat="49.8688" lon="2.28715">
        <ele>84.6</ele>
        <time>2021-04-28T14:35:58Z</time>
      </trkpt>
      <trkpt lat="49.86879" lon="2.28713">
        <ele>84.6</ele>
        <time>2021-04-28T14:35:59Z</time>
      </trkpt>
      <trkpt lat="49.86879" lon="2.28712">
        <ele>84.6</ele>
        <time>2021-04-28T14:36:00Z</time>
      </trkpt>
      <trkpt lat="49.86879" lon="2.2871">
        <ele>84.6</ele>
        <time>2021-04-28T14:36:01Z</time>
      </trkpt>
      <trkpt lat="49.86878" lon="2.28709">
        <ele>84.6</ele>
        <time>2021-04-28T14:36:02Z</time>
      </trkpt>
      <trkpt lat="49.86878" lon="2.28708">
        <ele>84.6</ele>
        <time>2021-04-28T14:36:04Z</time>
      </trkpt>
      <trkpt lat="49.86877" lon="2.28708">
        <ele>84.6</ele>
        <time>2021-04-28T14:36:05Z</time>
      </trkpt>
      <trkpt lat="49.86877" lon="2.28707">
        <ele>84.6</ele>
        <time>2021-04-28T14:36:06Z</time>
      </trkpt>
      <trkpt lat="49.86876" lon="2.28706">
        <ele>84.7</ele>
        <time>2021-04-28T14:36:08Z</time>
      </trkpt>
      <trkpt lat="49.86876" lon="2.28705">
        <ele>84.7</ele>
        <time>2021-04-28T14:36:09Z</time>
      </trkpt>
      <trkpt lat="49.86875" lon="2.28702">
        <ele>84.7</ele>
        <time>2021-04-28T14:36:11Z</time>
      </trkpt>
      <trkpt lat="49.86875" lon="2.28701">
        <ele>84.7</ele>
        <time>2021-04-28T14:36:12Z</time>
      </trkpt>
      <trkpt lat="49.86875" lon="2.287">
        <ele>84.7</ele>
        <time>2021-04-28T14:36:13Z</time>
      </trkpt>
      <trkpt lat="49.86876" lon="2.28698">
        <ele>84.7</ele>
        <time>2021-04-28T14:36:14Z</time>
      </trkpt>
      <trkpt lat="49.86876" lon="2.28697">
        <ele>84.7</ele>
        <time>2021-04-28T14:36:16Z</time>
      </trkpt>
      <trkpt lat="49.86876" lon="2.28696">
        <ele>84.7</ele>
        <time>2021-04-28T14:36:17Z</time>
      </trkpt>
      <trkpt lat="49.86876" lon="2.28695">
        <ele>84.7</ele>
        <time>2021-04-28T14:36:18Z</time>
      </trkpt>
      <trkpt lat="49.86876" lon="2.28693">
        <ele>84.6</ele>
        <time>2021-04-28T14:36:20Z</time>
      </trkpt>
      <trkpt lat="49.86876" lon="2.28692">
        <ele>84.6</ele>
        <time>2021-04-28T14:36:21Z</time>
      </trkpt>
      <trkpt lat="49.86876" lon="2.28689">
        <ele>84.6</ele>
        <time>2021-04-28T14:36:23Z</time>
      </trkpt>
      <trkpt lat="49.86876" lon="2.28688">
        <ele>84.6</ele>
        <time>2021-04-28T14:36:24Z</time>
      </trkpt>
      <trkpt lat="49.86876" lon="2.28686">
        <ele>84.6</ele>
        <time>2021-04-28T14:36:26Z</time>
      </trkpt>
      <trkpt lat="49.86876" lon="2.28685">
        <ele>84.6</ele>
        <time>2021-04-28T14:36:27Z</time>
      </trkpt>
      <trkpt lat="49.86876" lon="2.28683">
        <ele>84.6</ele>
        <time>2021-04-28T14:36:28Z</time>
      </trkpt>
      <trkpt lat="49.86876" lon="2.28681">
        <ele>84.6</ele>
        <time>2021-04-28T14:36:30Z</time>
      </trkpt>
      <trkpt lat="49.86876" lon="2.28679">
        <ele>84.6</ele>
        <time>2021-04-28T14:36:31Z</time>
      </trkpt>
      <trkpt lat="49.86876" lon="2.28678">
        <ele>84.6</ele>
        <time>2021-04-28T14:36:32Z</time>
      </trkpt>
      <trkpt lat="49.86876" lon="2.28676">
        <ele>84.6</ele>
        <time>2021-04-28T14:36:33Z</time>
      </trkpt>
      <trkpt lat="49.86876" lon="2.28675">
        <ele>84.6</ele>
        <time>2021-04-28T14:36:34Z</time>
      </trkpt>
      <trkpt lat="49.86875" lon="2.28673">
        <ele>84.6</ele>
        <time>2021-04-28T14:36:35Z</time>
      </trkpt>
      <trkpt lat="49.86875" lon="2.2867">
        <ele>84.6</ele>
        <time>2021-04-28T14:36:37Z</time>
      </trkpt>
      <trkpt lat="49.86874" lon="2.28667">
        <ele>84.6</ele>
        <time>2021-04-28T14:36:38Z</time>
      </trkpt>
      <trkpt lat="49.86874" lon="2.28666">
        <ele>84.6</ele>
        <time>2021-04-28T14:36:39Z</time>
      </trkpt>
      <trkpt lat="49.86874" lon="2.28665">
        <ele>84.6</ele>
        <time>2021-04-28T14:36:40Z</time>
      </trkpt>
      <trkpt lat="49.86873" lon="2.28663">
        <ele>84.6</ele>
        <time>2021-04-28T14:36:41Z</time>
      </trkpt>
      <trkpt lat="49.86873" lon="2.2866">
        <ele>84.6</ele>
        <time>2021-04-28T14:36:42Z</time>
      </trkpt>
      <trkpt lat="49.86872" lon="2.28658">
        <ele>84.6</ele>
        <time>2021-04-28T14:36:44Z</time>
      </trkpt>
      <trkpt lat="49.86872" lon="2.28656">
        <ele>84.6</ele>
        <time>2021-04-28T14:36:45Z</time>
      </trkpt>
      <trkpt lat="49.86872" lon="2.28655">
        <ele>84.6</ele>
        <time>2021-04-28T14:36:46Z</time>
      </trkpt>
      <trkpt lat="49.86871" lon="2.28653">
        <ele>84.6</ele>
        <time>2021-04-28T14:36:47Z</time>
      </trkpt>
      <trkpt lat="49.86871" lon="2.28651">
        <ele>84.6</ele>
        <time>2021-04-28T14:36:48Z</time>
      </trkpt>
      <trkpt lat="49.86871" lon="2.28649">
        <ele>84.6</ele>
        <time>2021-04-28T14:36:50Z</time>
      </trkpt>
      <trkpt lat="49.86871" lon="2.28648">
        <ele>84.6</ele>
        <time>2021-04-28T14:36:51Z</time>
      </trkpt>
      <trkpt lat="49.8687" lon="2.28646">
        <ele>84.6</ele>
        <time>2021-04-28T14:36:52Z</time>
      </trkpt>
      <trkpt lat="49.8687" lon="2.28645">
        <ele>84.6</ele>
        <time>2021-04-28T14:36:53Z</time>
      </trkpt>
      <trkpt lat="49.8687" lon="2.28643">
        <ele>84.6</ele>
        <time>2021-04-28T14:36:54Z</time>
      </trkpt>
      <trkpt lat="49.8687" lon="2.28642">
        <ele>84.6</ele>
        <time>2021-04-28T14:36:55Z</time>
      </trkpt>
      <trkpt lat="49.8687" lon="2.2864">
        <ele>84.5</ele>
        <time>2021-04-28T14:36:57Z</time>
      </trkpt>
      <trkpt lat="49.8687" lon="2.28639">
        <ele>84.5</ele>
        <time>2021-04-28T14:36:58Z</time>
      </trkpt>
      <trkpt lat="49.86869" lon="2.28638">
        <ele>84.5</ele>
        <time>2021-04-28T14:36:59Z</time>
      </trkpt>
      <trkpt lat="49.86869" lon="2.28635">
        <ele>84.5</ele>
        <time>2021-04-28T14:37:01Z</time>
      </trkpt>
      <trkpt lat="49.86869" lon="2.28634">
        <ele>84.5</ele>
        <time>2021-04-28T14:37:02Z</time>
      </trkpt>
      <trkpt lat="49.86869" lon="2.28632">
        <ele>84.5</ele>
        <time>2021-04-28T14:37:03Z</time>
      </trkpt>
      <trkpt lat="49.86868" lon="2.2863">
        <ele>84.5</ele>
        <time>2021-04-28T14:37:04Z</time>
      </trkpt>
      <trkpt lat="49.86868" lon="2.28627">
        <ele>84.5</ele>
        <time>2021-04-28T14:37:05Z</time>
      </trkpt>
      <trkpt lat="49.86868" lon="2.28625">
        <ele>84.5</ele>
        <time>2021-04-28T14:37:06Z</time>
      </trkpt>
      <trkpt lat="49.86867" lon="2.28624">
        <ele>84.5</ele>
        <time>2021-04-28T14:37:08Z</time>
      </trkpt>
      <trkpt lat="49.86867" lon="2.28622">
        <ele>84.5</ele>
        <time>2021-04-28T14:37:09Z</time>
      </trkpt>
      <trkpt lat="49.86867" lon="2.28621">
        <ele>84.5</ele>
        <time>2021-04-28T14:37:10Z</time>
      </trkpt>
      <trkpt lat="49.86866" lon="2.28619">
        <ele>84.5</ele>
        <time>2021-04-28T14:37:11Z</time>
      </trkpt>
      <trkpt lat="49.86866" lon="2.28617">
        <ele>84.5</ele>
        <time>2021-04-28T14:37:12Z</time>
      </trkpt>
      <trkpt lat="49.86865" lon="2.28615">
        <ele>84.5</ele>
        <time>2021-04-28T14:37:14Z</time>
      </trkpt>
      <trkpt lat="49.86865" lon="2.28614">
        <ele>84.5</ele>
        <time>2021-04-28T14:37:15Z</time>
      </trkpt>
      <trkpt lat="49.86865" lon="2.28612">
        <ele>84.5</ele>
        <time>2021-04-28T14:37:16Z</time>
      </trkpt>
      <trkpt lat="49.86864" lon="2.2861">
        <ele>84.5</ele>
        <time>2021-04-28T14:37:17Z</time>
      </trkpt>
      <trkpt lat="49.86863" lon="2.28608">
        <ele>84.5</ele>
        <time>2021-04-28T14:37:18Z</time>
      </trkpt>
      <trkpt lat="49.86863" lon="2.28606">
        <ele>84.5</ele>
        <time>2021-04-28T14:37:19Z</time>
      </trkpt>
      <trkpt lat="49.86862" lon="2.28604">
        <ele>84.4</ele>
        <time>2021-04-28T14:37:21Z</time>
      </trkpt>
      <trkpt lat="49.86861" lon="2.28603">
        <ele>84.4</ele>
        <time>2021-04-28T14:37:22Z</time>
      </trkpt>
      <trkpt lat="49.8686" lon="2.286">
        <ele>84.3</ele>
        <time>2021-04-28T14:37:24Z</time>
      </trkpt>
      <trkpt lat="49.86859" lon="2.28599">
        <ele>84.3</ele>
        <time>2021-04-28T14:37:25Z</time>
      </trkpt>
      <trkpt lat="49.86858" lon="2.28596">
        <ele>84.3</ele>
        <time>2021-04-28T14:37:27Z</time>
      </trkpt>
      <trkpt lat="49.86858" lon="2.28595">
        <ele>84.3</ele>
        <time>2021-04-28T14:37:28Z</time>
      </trkpt>
      <trkpt lat="49.86858" lon="2.28592">
        <ele>84.2</ele>
        <time>2021-04-28T14:37:30Z</time>
      </trkpt>
      <trkpt lat="49.86857" lon="2.2859">
        <ele>84.2</ele>
        <time>2021-04-28T14:37:31Z</time>
      </trkpt>
      <trkpt lat="49.86857" lon="2.28589">
        <ele>84.2</ele>
        <time>2021-04-28T14:37:32Z</time>
      </trkpt>
      <trkpt lat="49.86857" lon="2.28586">
        <ele>84.1</ele>
        <time>2021-04-28T14:37:34Z</time>
      </trkpt>
      <trkpt lat="49.86857" lon="2.28585">
        <ele>84.1</ele>
        <time>2021-04-28T14:37:35Z</time>
      </trkpt>
      <trkpt lat="49.86856" lon="2.28583">
        <ele>84</ele>
        <time>2021-04-28T14:37:36Z</time>
      </trkpt>
      <trkpt lat="49.86856" lon="2.28581">
        <ele>84</ele>
        <time>2021-04-28T14:37:38Z</time>
      </trkpt>
      <trkpt lat="49.86856" lon="2.2858">
        <ele>84</ele>
        <time>2021-04-28T14:37:39Z</time>
      </trkpt>
      <trkpt lat="49.86855" lon="2.28578">
        <ele>83.9</ele>
        <time>2021-04-28T14:37:40Z</time>
      </trkpt>
      <trkpt lat="49.86856" lon="2.28577">
        <ele>83.9</ele>
        <time>2021-04-28T14:37:42Z</time>
      </trkpt>
      <trkpt lat="49.86856" lon="2.28576">
        <ele>83.9</ele>
        <time>2021-04-28T14:37:43Z</time>
      </trkpt>
      <trkpt lat="49.86856" lon="2.28574">
        <ele>83.9</ele>
        <time>2021-04-28T14:37:44Z</time>
      </trkpt>
      <trkpt lat="49.86856" lon="2.28573">
        <ele>83.8</ele>
        <time>2021-04-28T14:37:45Z</time>
      </trkpt>
      <trkpt lat="49.86856" lon="2.28571">
        <ele>83.8</ele>
        <time>2021-04-28T14:37:46Z</time>
      </trkpt>
      <trkpt lat="49.86857" lon="2.28568">
        <ele>83.7</ele>
        <time>2021-04-28T14:37:48Z</time>
      </trkpt>
      <trkpt lat="49.86857" lon="2.28567">
        <ele>83.7</ele>
        <time>2021-04-28T14:37:49Z</time>
      </trkpt>
      <trkpt lat="49.86857" lon="2.28565">
        <ele>83.7</ele>
        <time>2021-04-28T14:37:51Z</time>
      </trkpt>
      <trkpt lat="49.86858" lon="2.28563">
        <ele>83.6</ele>
        <time>2021-04-28T14:37:52Z</time>
      </trkpt>
      <trkpt lat="49.86858" lon="2.28561">
        <ele>83.6</ele>
        <time>2021-04-28T14:37:54Z</time>
      </trkpt>
      <trkpt lat="49.86858" lon="2.28559">
        <ele>83.5</ele>
        <time>2021-04-28T14:37:55Z</time>
      </trkpt>
      <trkpt lat="49.86858" lon="2.28558">
        <ele>83.5</ele>
        <time>2021-04-28T14:37:56Z</time>
      </trkpt>
      <trkpt lat="49.86859" lon="2.28556">
        <ele>83.4</ele>
        <time>2021-04-28T14:37:57Z</time>
      </trkpt>
      <trkpt lat="49.86859" lon="2.28552">
        <ele>83.4</ele>
        <time>2021-04-28T14:37:58Z</time>
      </trkpt>
      <trkpt lat="49.86859" lon="2.28551">
        <ele>83.3</ele>
        <time>2021-04-28T14:38:00Z</time>
      </trkpt>
      <trkpt lat="49.86859" lon="2.2855">
        <ele>83.3</ele>
        <time>2021-04-28T14:38:01Z</time>
      </trkpt>
      <trkpt lat="49.86859" lon="2.28547">
        <ele>83.2</ele>
        <time>2021-04-28T14:38:02Z</time>
      </trkpt>
      <trkpt lat="49.86859" lon="2.28544">
        <ele>83.1</ele>
        <time>2021-04-28T14:38:04Z</time>
      </trkpt>
      <trkpt lat="49.86858" lon="2.2854">
        <ele>83.1</ele>
        <time>2021-04-28T14:38:05Z</time>
      </trkpt>
      <trkpt lat="49.86858" lon="2.28538">
        <ele>83</ele>
        <time>2021-04-28T14:38:07Z</time>
      </trkpt>
      <trkpt lat="49.86858" lon="2.28537">
        <ele>83</ele>
        <time>2021-04-28T14:38:08Z</time>
      </trkpt>
      <trkpt lat="49.86858" lon="2.28535">
        <ele>82.9</ele>
        <time>2021-04-28T14:38:09Z</time>
      </trkpt>
      <trkpt lat="49.86857" lon="2.28533">
        <ele>82.9</ele>
        <time>2021-04-28T14:38:10Z</time>
      </trkpt>
      <trkpt lat="49.86857" lon="2.28531">
        <ele>82.8</ele>
        <time>2021-04-28T14:38:11Z</time>
      </trkpt>
      <trkpt lat="49.86856" lon="2.2853">
        <ele>82.8</ele>
        <time>2021-04-28T14:38:12Z</time>
      </trkpt>
      <trkpt lat="49.86856" lon="2.28528">
        <ele>82.7</ele>
        <time>2021-04-28T14:38:14Z</time>
      </trkpt>
      <trkpt lat="49.86856" lon="2.28527">
        <ele>82.7</ele>
        <time>2021-04-28T14:38:15Z</time>
      </trkpt>
      <trkpt lat="49.86855" lon="2.28525">
        <ele>82.6</ele>
        <time>2021-04-28T14:38:17Z</time>
      </trkpt>
      <trkpt lat="49.86855" lon="2.28523">
        <ele>82.6</ele>
        <time>2021-04-28T14:38:18Z</time>
      </trkpt>
      <trkpt lat="49.86855" lon="2.28522">
        <ele>82.6</ele>
        <time>2021-04-28T14:38:19Z</time>
      </trkpt>
      <trkpt lat="49.86855" lon="2.2852">
        <ele>82.5</ele>
        <time>2021-04-28T14:38:20Z</time>
      </trkpt>
      <trkpt lat="49.86854" lon="2.28519">
        <ele>82.5</ele>
        <time>2021-04-28T14:38:21Z</time>
      </trkpt>
      <trkpt lat="49.86854" lon="2.28517">
        <ele>82.5</ele>
        <time>2021-04-28T14:38:22Z</time>
      </trkpt>
      <trkpt lat="49.86854" lon="2.28515">
        <ele>82.4</ele>
        <time>2021-04-28T14:38:24Z</time>
      </trkpt>
      <trkpt lat="49.86854" lon="2.28514">
        <ele>82.4</ele>
        <time>2021-04-28T14:38:25Z</time>
      </trkpt>
      <trkpt lat="49.86854" lon="2.28513">
        <ele>82.3</ele>
        <time>2021-04-28T14:38:26Z</time>
      </trkpt>
      <trkpt lat="49.86854" lon="2.28511">
        <ele>82.3</ele>
        <time>2021-04-28T14:38:27Z</time>
      </trkpt>
      <trkpt lat="49.86854" lon="2.28508">
        <ele>82.2</ele>
        <time>2021-04-28T14:38:28Z</time>
      </trkpt>
      <trkpt lat="49.86854" lon="2.28507">
        <ele>82.2</ele>
        <time>2021-04-28T14:38:30Z</time>
      </trkpt>
      <trkpt lat="49.86854" lon="2.28506">
        <ele>82.2</ele>
        <time>2021-04-28T14:38:31Z</time>
      </trkpt>
      <trkpt lat="49.86854" lon="2.28504">
        <ele>82.1</ele>
        <time>2021-04-28T14:38:33Z</time>
      </trkpt>
      <trkpt lat="49.86854" lon="2.28503">
        <ele>82.1</ele>
        <time>2021-04-28T14:38:34Z</time>
      </trkpt>
      <trkpt lat="49.86854" lon="2.28502">
        <ele>82.1</ele>
        <time>2021-04-28T14:38:35Z</time>
      </trkpt>
      <trkpt lat="49.86853" lon="2.285">
        <ele>82</ele>
        <time>2021-04-28T14:38:36Z</time>
      </trkpt>
      <trkpt lat="49.86853" lon="2.28499">
        <ele>82</ele>
        <time>2021-04-28T14:38:37Z</time>
      </trkpt>
      <trkpt lat="49.86853" lon="2.28497">
        <ele>82</ele>
        <time>2021-04-28T14:38:39Z</time>
      </trkpt>
      <trkpt lat="49.86852" lon="2.28496">
        <ele>81.9</ele>
        <time>2021-04-28T14:38:40Z</time>
      </trkpt>
      <trkpt lat="49.86852" lon="2.28494">
        <ele>81.9</ele>
        <time>2021-04-28T14:38:41Z</time>
      </trkpt>
      <trkpt lat="49.86852" lon="2.28492">
        <ele>81.8</ele>
        <time>2021-04-28T14:38:42Z</time>
      </trkpt>
      <trkpt lat="49.86852" lon="2.2849">
        <ele>81.8</ele>
        <time>2021-04-28T14:38:43Z</time>
      </trkpt>
      <trkpt lat="49.86851" lon="2.28489">
        <ele>81.8</ele>
        <time>2021-04-28T14:38:45Z</time>
      </trkpt>
      <trkpt lat="49.86851" lon="2.28488">
        <ele>81.7</ele>
        <time>2021-04-28T14:38:46Z</time>
      </trkpt>
      <trkpt lat="49.86851" lon="2.28486">
        <ele>81.7</ele>
        <time>2021-04-28T14:38:47Z</time>
      </trkpt>
      <trkpt lat="49.8685" lon="2.28483">
        <ele>81.6</ele>
        <time>2021-04-28T14:38:49Z</time>
      </trkpt>
      <trkpt lat="49.8685" lon="2.28481">
        <ele>81.6</ele>
        <time>2021-04-28T14:38:51Z</time>
      </trkpt>
      <trkpt lat="49.8685" lon="2.2848">
        <ele>81.5</ele>
        <time>2021-04-28T14:38:52Z</time>
      </trkpt>
      <trkpt lat="49.86849" lon="2.28478">
        <ele>81.5</ele>
        <time>2021-04-28T14:38:53Z</time>
      </trkpt>
      <trkpt lat="49.86849" lon="2.28477">
        <ele>81.5</ele>
        <time>2021-04-28T14:38:54Z</time>
      </trkpt>
      <trkpt lat="49.86849" lon="2.28475">
        <ele>81.4</ele>
        <time>2021-04-28T14:38:55Z</time>
      </trkpt>
      <trkpt lat="49.86849" lon="2.28473">
        <ele>81.4</ele>
        <time>2021-04-28T14:38:56Z</time>
      </trkpt>
      <trkpt lat="49.86849" lon="2.28472">
        <ele>81.3</ele>
        <time>2021-04-28T14:38:58Z</time>
      </trkpt>
      <trkpt lat="49.86849" lon="2.2847">
        <ele>81.3</ele>
        <time>2021-04-28T14:38:59Z</time>
      </trkpt>
      <trkpt lat="49.86849" lon="2.28468">
        <ele>81.3</ele>
        <time>2021-04-28T14:39:00Z</time>
      </trkpt>
      <trkpt lat="49.86848" lon="2.28465">
        <ele>81.2</ele>
        <time>2021-04-28T14:39:02Z</time>
      </trkpt>
      <trkpt lat="49.86848" lon="2.28464">
        <ele>81.1</ele>
        <time>2021-04-28T14:39:03Z</time>
      </trkpt>
      <trkpt lat="49.86849" lon="2.28462">
        <ele>81.1</ele>
        <time>2021-04-28T14:39:04Z</time>
      </trkpt>
      <trkpt lat="49.86849" lon="2.2846">
        <ele>81</ele>
        <time>2021-04-28T14:39:05Z</time>
      </trkpt>
      <trkpt lat="49.86849" lon="2.28459">
        <ele>81</ele>
        <time>2021-04-28T14:39:06Z</time>
      </trkpt>
      <trkpt lat="49.86849" lon="2.28457">
        <ele>81</ele>
        <time>2021-04-28T14:39:07Z</time>
      </trkpt>
      <trkpt lat="49.86849" lon="2.28456">
        <ele>80.9</ele>
        <time>2021-04-28T14:39:09Z</time>
      </trkpt>
      <trkpt lat="49.86849" lon="2.28454">
        <ele>80.9</ele>
        <time>2021-04-28T14:39:10Z</time>
      </trkpt>
      <trkpt lat="49.86849" lon="2.28452">
        <ele>80.9</ele>
        <time>2021-04-28T14:39:11Z</time>
      </trkpt>
      <trkpt lat="49.86849" lon="2.2845">
        <ele>80.8</ele>
        <time>2021-04-28T14:39:12Z</time>
      </trkpt>
      <trkpt lat="49.86849" lon="2.28449">
        <ele>80.8</ele>
        <time>2021-04-28T14:39:13Z</time>
      </trkpt>
      <trkpt lat="49.86849" lon="2.28447">
        <ele>80.7</ele>
        <time>2021-04-28T14:39:14Z</time>
      </trkpt>
      <trkpt lat="49.86849" lon="2.28445">
        <ele>80.7</ele>
        <time>2021-04-28T14:39:16Z</time>
      </trkpt>
      <trkpt lat="49.86848" lon="2.28443">
        <ele>80.6</ele>
        <time>2021-04-28T14:39:17Z</time>
      </trkpt>
      <trkpt lat="49.86848" lon="2.28442">
        <ele>80.6</ele>
        <time>2021-04-28T14:39:18Z</time>
      </trkpt>
      <trkpt lat="49.86848" lon="2.2844">
        <ele>80.6</ele>
        <time>2021-04-28T14:39:19Z</time>
      </trkpt>
      <trkpt lat="49.86848" lon="2.28439">
        <ele>80.5</ele>
        <time>2021-04-28T14:39:20Z</time>
      </trkpt>
      <trkpt lat="49.86848" lon="2.28437">
        <ele>80.5</ele>
        <time>2021-04-28T14:39:21Z</time>
      </trkpt>
      <trkpt lat="49.86848" lon="2.28435">
        <ele>80.4</ele>
        <time>2021-04-28T14:39:23Z</time>
      </trkpt>
      <trkpt lat="49.86848" lon="2.28434">
        <ele>80.4</ele>
        <time>2021-04-28T14:39:24Z</time>
      </trkpt>
      <trkpt lat="49.86848" lon="2.28432">
        <ele>80.4</ele>
        <time>2021-04-28T14:39:25Z</time>
      </trkpt>
      <trkpt lat="49.86848" lon="2.2843">
        <ele>80.4</ele>
        <time>2021-04-28T14:39:27Z</time>
      </trkpt>
      <trkpt lat="49.86848" lon="2.28429">
        <ele>80.4</ele>
        <time>2021-04-28T14:39:28Z</time>
      </trkpt>
      <trkpt lat="49.86848" lon="2.28427">
        <ele>80.4</ele>
        <time>2021-04-28T14:39:29Z</time>
      </trkpt>
      <trkpt lat="49.86848" lon="2.28425">
        <ele>80.4</ele>
        <time>2021-04-28T14:39:30Z</time>
      </trkpt>
      <trkpt lat="49.86848" lon="2.28423">
        <ele>80.3</ele>
        <time>2021-04-28T14:39:31Z</time>
      </trkpt>
      <trkpt lat="49.86848" lon="2.28422">
        <ele>80.3</ele>
        <time>2021-04-28T14:39:33Z</time>
      </trkpt>
      <trkpt lat="49.86848" lon="2.2842">
        <ele>80.3</ele>
        <time>2021-04-28T14:39:34Z</time>
      </trkpt>
      <trkpt lat="49.86848" lon="2.28418">
        <ele>80.3</ele>
        <time>2021-04-28T14:39:35Z</time>
      </trkpt>
      <trkpt lat="49.86848" lon="2.28416">
        <ele>80.3</ele>
        <time>2021-04-28T14:39:36Z</time>
      </trkpt>
      <trkpt lat="49.86848" lon="2.28415">
        <ele>80.3</ele>
        <time>2021-04-28T14:39:37Z</time>
      </trkpt>
      <trkpt lat="49.86848" lon="2.28412">
        <ele>80.3</ele>
        <time>2021-04-28T14:39:38Z</time>
      </trkpt>
      <trkpt lat="49.86847" lon="2.2841">
        <ele>80.3</ele>
        <time>2021-04-28T14:39:40Z</time>
      </trkpt>
      <trkpt lat="49.86847" lon="2.28409">
        <ele>80.3</ele>
        <time>2021-04-28T14:39:41Z</time>
      </trkpt>
      <trkpt lat="49.86847" lon="2.28407">
        <ele>80.3</ele>
        <time>2021-04-28T14:39:42Z</time>
      </trkpt>
      <trkpt lat="49.86846" lon="2.28406">
        <ele>80.3</ele>
        <time>2021-04-28T14:39:44Z</time>
      </trkpt>
      <trkpt lat="49.86846" lon="2.28404">
        <ele>80.3</ele>
        <time>2021-04-28T14:39:45Z</time>
      </trkpt>
      <trkpt lat="49.86846" lon="2.28403">
        <ele>80.3</ele>
        <time>2021-04-28T14:39:46Z</time>
      </trkpt>
      <trkpt lat="49.86846" lon="2.28402">
        <ele>80.3</ele>
        <time>2021-04-28T14:39:47Z</time>
      </trkpt>
      <trkpt lat="49.86845" lon="2.284">
        <ele>80.3</ele>
        <time>2021-04-28T14:39:48Z</time>
      </trkpt>
      <trkpt lat="49.86845" lon="2.28399">
        <ele>80.3</ele>
        <time>2021-04-28T14:39:49Z</time>
      </trkpt>
      <trkpt lat="49.86845" lon="2.28397">
        <ele>80.2</ele>
        <time>2021-04-28T14:39:51Z</time>
      </trkpt>
      <trkpt lat="49.86845" lon="2.28395">
        <ele>80.2</ele>
        <time>2021-04-28T14:39:52Z</time>
      </trkpt>
      <trkpt lat="49.86844" lon="2.28393">
        <ele>80.2</ele>
        <time>2021-04-28T14:39:53Z</time>
      </trkpt>
      <trkpt lat="49.86844" lon="2.28392">
        <ele>80.2</ele>
        <time>2021-04-28T14:39:54Z</time>
      </trkpt>
      <trkpt lat="49.86843" lon="2.28391">
        <ele>80.2</ele>
        <time>2021-04-28T14:39:55Z</time>
      </trkpt>
      <trkpt lat="49.86843" lon="2.2839">
        <ele>80.2</ele>
        <time>2021-04-28T14:39:56Z</time>
      </trkpt>
      <trkpt lat="49.86843" lon="2.28388">
        <ele>80.2</ele>
        <time>2021-04-28T14:39:58Z</time>
      </trkpt>
      <trkpt lat="49.86843" lon="2.28386">
        <ele>80.2</ele>
        <time>2021-04-28T14:39:59Z</time>
      </trkpt>
      <trkpt lat="49.86842" lon="2.28385">
        <ele>80.2</ele>
        <time>2021-04-28T14:40:00Z</time>
      </trkpt>
      <trkpt lat="49.86842" lon="2.28383">
        <ele>80.2</ele>
        <time>2021-04-28T14:40:01Z</time>
      </trkpt>
      <trkpt lat="49.86841" lon="2.28382">
        <ele>80.2</ele>
        <time>2021-04-28T14:40:02Z</time>
      </trkpt>
      <trkpt lat="49.86841" lon="2.2838">
        <ele>80.2</ele>
        <time>2021-04-28T14:40:04Z</time>
      </trkpt>
      <trkpt lat="49.86841" lon="2.28379">
        <ele>80.2</ele>
        <time>2021-04-28T14:40:05Z</time>
      </trkpt>
      <trkpt lat="49.86841" lon="2.28376">
        <ele>80.2</ele>
        <time>2021-04-28T14:40:07Z</time>
      </trkpt>
      <trkpt lat="49.86841" lon="2.28375">
        <ele>80.2</ele>
        <time>2021-04-28T14:40:08Z</time>
      </trkpt>
      <trkpt lat="49.86842" lon="2.28374">
        <ele>80.3</ele>
        <time>2021-04-28T14:40:09Z</time>
      </trkpt>
      <trkpt lat="49.86843" lon="2.28371">
        <ele>80.3</ele>
        <time>2021-04-28T14:40:11Z</time>
      </trkpt>
      <trkpt lat="49.86843" lon="2.2837">
        <ele>80.3</ele>
        <time>2021-04-28T14:40:13Z</time>
      </trkpt>
      <trkpt lat="49.86843" lon="2.28368">
        <ele>80.3</ele>
        <time>2021-04-28T14:40:14Z</time>
      </trkpt>
      <trkpt lat="49.86843" lon="2.28367">
        <ele>80.3</ele>
        <time>2021-04-28T14:40:15Z</time>
      </trkpt>
      <trkpt lat="49.86843" lon="2.28365">
        <ele>80.3</ele>
        <time>2021-04-28T14:40:16Z</time>
      </trkpt>
      <trkpt lat="49.86842" lon="2.28364">
        <ele>80.3</ele>
        <time>2021-04-28T14:40:17Z</time>
      </trkpt>
      <trkpt lat="49.86842" lon="2.28363">
        <ele>80.3</ele>
        <time>2021-04-28T14:40:19Z</time>
      </trkpt>
      <trkpt lat="49.86842" lon="2.28362">
        <ele>80.4</ele>
        <time>2021-04-28T14:40:20Z</time>
      </trkpt>
      <trkpt lat="49.86842" lon="2.28359">
        <ele>80.4</ele>
        <time>2021-04-28T14:40:22Z</time>
      </trkpt>
      <trkpt lat="49.86842" lon="2.28358">
        <ele>80.4</ele>
        <time>2021-04-28T14:40:23Z</time>
      </trkpt>
      <trkpt lat="49.86843" lon="2.28358">
        <ele>80.4</ele>
        <time>2021-04-28T14:40:24Z</time>
      </trkpt>
      <trkpt lat="49.86844" lon="2.28359">
        <ele>80.4</ele>
        <time>2021-04-28T14:40:25Z</time>
      </trkpt>
      <trkpt lat="49.86845" lon="2.2836">
        <ele>80.4</ele>
        <time>2021-04-28T14:40:26Z</time>
      </trkpt>
      <trkpt lat="49.86846" lon="2.28361">
        <ele>80.5</ele>
        <time>2021-04-28T14:40:28Z</time>
      </trkpt>
      <trkpt lat="49.86846" lon="2.28362">
        <ele>80.5</ele>
        <time>2021-04-28T14:40:29Z</time>
      </trkpt>
      <trkpt lat="49.86846" lon="2.28362">
        <ele>80.5</ele>
        <time>2021-04-28T14:40:30Z</time>
      </trkpt>
      <trkpt lat="49.86847" lon="2.2836">
        <ele>80.5</ele>
        <time>2021-04-28T14:40:32Z</time>
      </trkpt>
      <trkpt lat="49.86847" lon="2.28359">
        <ele>80.5</ele>
        <time>2021-04-28T14:40:33Z</time>
      </trkpt>
      <trkpt lat="49.86847" lon="2.28357">
        <ele>80.5</ele>
        <time>2021-04-28T14:40:34Z</time>
      </trkpt>
      <trkpt lat="49.86847" lon="2.28355">
        <ele>80.6</ele>
        <time>2021-04-28T14:40:36Z</time>
      </trkpt>
      <trkpt lat="49.86847" lon="2.28353">
        <ele>80.6</ele>
        <time>2021-04-28T14:40:37Z</time>
      </trkpt>
      <trkpt lat="49.86847" lon="2.2835">
        <ele>80.6</ele>
        <time>2021-04-28T14:40:38Z</time>
      </trkpt>
      <trkpt lat="49.86848" lon="2.28347">
        <ele>80.7</ele>
        <time>2021-04-28T14:40:40Z</time>
      </trkpt>
      <trkpt lat="49.86848" lon="2.28344">
        <ele>80.7</ele>
        <time>2021-04-28T14:40:41Z</time>
      </trkpt>
      <trkpt lat="49.86849" lon="2.28343">
        <ele>80.8</ele>
        <time>2021-04-28T14:40:43Z</time>
      </trkpt>
      <trkpt lat="49.8685" lon="2.28343">
        <ele>80.8</ele>
        <time>2021-04-28T14:40:44Z</time>
      </trkpt>
      <trkpt lat="49.86851" lon="2.28343">
        <ele>80.8</ele>
        <time>2021-04-28T14:40:45Z</time>
      </trkpt>
      <trkpt lat="49.86852" lon="2.28342">
        <ele>80.7</ele>
        <time>2021-04-28T14:40:46Z</time>
      </trkpt>
      <trkpt lat="49.86853" lon="2.28342">
        <ele>80.7</ele>
        <time>2021-04-28T14:40:47Z</time>
      </trkpt>
      <trkpt lat="49.86854" lon="2.28342">
        <ele>80.7</ele>
        <time>2021-04-28T14:40:49Z</time>
      </trkpt>
      <trkpt lat="49.86855" lon="2.28341">
        <ele>80.6</ele>
        <time>2021-04-28T14:40:50Z</time>
      </trkpt>
      <trkpt lat="49.86857" lon="2.2834">
        <ele>80.6</ele>
        <time>2021-04-28T14:40:52Z</time>
      </trkpt>
      <trkpt lat="49.86857" lon="2.2834">
        <ele>80.6</ele>
        <time>2021-04-28T14:40:53Z</time>
      </trkpt>
      <trkpt lat="49.86858" lon="2.28339">
        <ele>80.5</ele>
        <time>2021-04-28T14:40:54Z</time>
      </trkpt>
      <trkpt lat="49.86859" lon="2.28339">
        <ele>80.5</ele>
        <time>2021-04-28T14:40:55Z</time>
      </trkpt>
      <trkpt lat="49.86861" lon="2.28338">
        <ele>80.4</ele>
        <time>2021-04-28T14:40:57Z</time>
      </trkpt>
      <trkpt lat="49.86863" lon="2.28338">
        <ele>80.3</ele>
        <time>2021-04-28T14:40:58Z</time>
      </trkpt>
      <trkpt lat="49.86864" lon="2.28338">
        <ele>80.3</ele>
        <time>2021-04-28T14:40:59Z</time>
      </trkpt>
      <trkpt lat="49.86865" lon="2.28338">
        <ele>80.2</ele>
        <time>2021-04-28T14:41:00Z</time>
      </trkpt>
      <trkpt lat="49.86866" lon="2.28337">
        <ele>79.8</ele>
        <time>2021-04-28T14:41:01Z</time>
      </trkpt>
      <trkpt lat="49.86866" lon="2.28337">
        <ele>79.8</ele>
        <time>2021-04-28T14:41:03Z</time>
      </trkpt>
      <trkpt lat="49.86867" lon="2.28337">
        <ele>79.8</ele>
        <time>2021-04-28T14:41:04Z</time>
      </trkpt>
      <trkpt lat="49.86868" lon="2.28336">
        <ele>79.7</ele>
        <time>2021-04-28T14:41:05Z</time>
      </trkpt>
      <trkpt lat="49.8687" lon="2.28336">
        <ele>79.7</ele>
        <time>2021-04-28T14:41:07Z</time>
      </trkpt>
      <trkpt lat="49.8687" lon="2.28335">
        <ele>79.6</ele>
        <time>2021-04-28T14:41:08Z</time>
      </trkpt>
      <trkpt lat="49.86871" lon="2.28334">
        <ele>79.6</ele>
        <time>2021-04-28T14:41:10Z</time>
      </trkpt>
      <trkpt lat="49.86872" lon="2.28333">
        <ele>79.6</ele>
        <time>2021-04-28T14:41:11Z</time>
      </trkpt>
      <trkpt lat="49.86873" lon="2.28333">
        <ele>79.5</ele>
        <time>2021-04-28T14:41:12Z</time>
      </trkpt>
      <trkpt lat="49.86873" lon="2.28333">
        <ele>79.5</ele>
        <time>2021-04-28T14:41:13Z</time>
      </trkpt>
      <trkpt lat="49.86874" lon="2.28333">
        <ele>79.5</ele>
        <time>2021-04-28T14:41:14Z</time>
      </trkpt>
      <trkpt lat="49.86875" lon="2.28333">
        <ele>79.5</ele>
        <time>2021-04-28T14:41:16Z</time>
      </trkpt>
      <trkpt lat="49.86876" lon="2.28334">
        <ele>79.4</ele>
        <time>2021-04-28T14:41:17Z</time>
      </trkpt>
      <trkpt lat="49.86876" lon="2.28334">
        <ele>79.4</ele>
        <time>2021-04-28T14:41:18Z</time>
      </trkpt>
      <trkpt lat="49.86877" lon="2.28334">
        <ele>79.4</ele>
        <time>2021-04-28T14:41:19Z</time>
      </trkpt>
      <trkpt lat="49.86878" lon="2.28334">
        <ele>79.4</ele>
        <time>2021-04-28T14:41:20Z</time>
      </trkpt>
      <trkpt lat="49.86881" lon="2.28334">
        <ele>79.3</ele>
        <time>2021-04-28T14:41:21Z</time>
      </trkpt>
      <trkpt lat="49.86882" lon="2.28334">
        <ele>79.2</ele>
        <time>2021-04-28T14:41:22Z</time>
      </trkpt>
      <trkpt lat="49.86882" lon="2.28334">
        <ele>79.2</ele>
        <time>2021-04-28T14:41:24Z</time>
      </trkpt>
      <trkpt lat="49.86883" lon="2.28334">
        <ele>79.2</ele>
        <time>2021-04-28T14:41:25Z</time>
      </trkpt>
      <trkpt lat="49.86884" lon="2.28334">
        <ele>79.2</ele>
        <time>2021-04-28T14:41:26Z</time>
      </trkpt>
      <trkpt lat="49.86885" lon="2.28334">
        <ele>79.1</ele>
        <time>2021-04-28T14:41:27Z</time>
      </trkpt>
      <trkpt lat="49.86886" lon="2.28334">
        <ele>79.1</ele>
        <time>2021-04-28T14:41:28Z</time>
      </trkpt>
      <trkpt lat="49.86888" lon="2.28334">
        <ele>79</ele>
        <time>2021-04-28T14:41:29Z</time>
      </trkpt>
      <trkpt lat="49.86889" lon="2.28335">
        <ele>79</ele>
        <time>2021-04-28T14:41:31Z</time>
      </trkpt>
      <trkpt lat="49.86891" lon="2.28335">
        <ele>78.9</ele>
        <time>2021-04-28T14:41:32Z</time>
      </trkpt>
      <trkpt lat="49.86893" lon="2.28335">
        <ele>78.9</ele>
        <time>2021-04-28T14:41:33Z</time>
      </trkpt>
      <trkpt lat="49.86895" lon="2.28335">
        <ele>78.8</ele>
        <time>2021-04-28T14:41:34Z</time>
      </trkpt>
      <trkpt lat="49.86896" lon="2.28335">
        <ele>78.7</ele>
        <time>2021-04-28T14:41:35Z</time>
      </trkpt>
      <trkpt lat="49.86898" lon="2.28335">
        <ele>78.7</ele>
        <time>2021-04-28T14:41:37Z</time>
      </trkpt>
      <trkpt lat="49.869" lon="2.28334">
        <ele>78.6</ele>
        <time>2021-04-28T14:41:38Z</time>
      </trkpt>
      <trkpt lat="49.86901" lon="2.28334">
        <ele>78.6</ele>
        <time>2021-04-28T14:41:39Z</time>
      </trkpt>
      <trkpt lat="49.86903" lon="2.28335">
        <ele>78.5</ele>
        <time>2021-04-28T14:41:41Z</time>
      </trkpt>
      <trkpt lat="49.86905" lon="2.28336">
        <ele>78.4</ele>
        <time>2021-04-28T14:41:42Z</time>
      </trkpt>
      <trkpt lat="49.86906" lon="2.28336">
        <ele>78.4</ele>
        <time>2021-04-28T14:41:43Z</time>
      </trkpt>
      <trkpt lat="49.86908" lon="2.28337">
        <ele>78.4</ele>
        <time>2021-04-28T14:41:44Z</time>
      </trkpt>
      <trkpt lat="49.86909" lon="2.28337">
        <ele>78.3</ele>
        <time>2021-04-28T14:41:45Z</time>
      </trkpt>
      <trkpt lat="49.8691" lon="2.28337">
        <ele>78.3</ele>
        <time>2021-04-28T14:41:46Z</time>
      </trkpt>
      <trkpt lat="49.86911" lon="2.28337">
        <ele>78.3</ele>
        <time>2021-04-28T14:41:48Z</time>
      </trkpt>
      <trkpt lat="49.86912" lon="2.28338">
        <ele>78.2</ele>
        <time>2021-04-28T14:41:49Z</time>
      </trkpt>
      <trkpt lat="49.86913" lon="2.28338">
        <ele>78.2</ele>
        <time>2021-04-28T14:41:50Z</time>
      </trkpt>
      <trkpt lat="49.86914" lon="2.28338">
        <ele>78.2</ele>
        <time>2021-04-28T14:41:51Z</time>
      </trkpt>
      <trkpt lat="49.86916" lon="2.28338">
        <ele>78.1</ele>
        <time>2021-04-28T14:41:52Z</time>
      </trkpt>
      <trkpt lat="49.86917" lon="2.28338">
        <ele>78.1</ele>
        <time>2021-04-28T14:41:53Z</time>
      </trkpt>
      <trkpt lat="49.86919" lon="2.28338">
        <ele>78.1</ele>
        <time>2021-04-28T14:41:54Z</time>
      </trkpt>
      <trkpt lat="49.8692" lon="2.28338">
        <ele>78</ele>
        <time>2021-04-28T14:41:56Z</time>
      </trkpt>
      <trkpt lat="49.8692" lon="2.28339">
        <ele>78</ele>
        <time>2021-04-28T14:41:57Z</time>
      </trkpt>
      <trkpt lat="49.86921" lon="2.28338">
        <ele>78</ele>
        <time>2021-04-28T14:41:58Z</time>
      </trkpt>
      <trkpt lat="49.86922" lon="2.28338">
        <ele>78</ele>
        <time>2021-04-28T14:41:59Z</time>
      </trkpt>
      <trkpt lat="49.86923" lon="2.28337">
        <ele>78</ele>
        <time>2021-04-28T14:42:00Z</time>
      </trkpt>
      <trkpt lat="49.86924" lon="2.28336">
        <ele>77.9</ele>
        <time>2021-04-28T14:42:01Z</time>
      </trkpt>
      <trkpt lat="49.86923" lon="2.28334">
        <ele>77.9</ele>
        <time>2021-04-28T14:42:02Z</time>
      </trkpt>
      <trkpt lat="49.86924" lon="2.28332">
        <ele>77.9</ele>
        <time>2021-04-28T14:42:03Z</time>
      </trkpt>
      <trkpt lat="49.86926" lon="2.28332">
        <ele>77.8</ele>
        <time>2021-04-28T14:42:04Z</time>
      </trkpt>
      <trkpt lat="49.86927" lon="2.28332">
        <ele>77.8</ele>
        <time>2021-04-28T14:42:06Z</time>
      </trkpt>
      <trkpt lat="49.86928" lon="2.28331">
        <ele>77.8</ele>
        <time>2021-04-28T14:42:07Z</time>
      </trkpt>
      <trkpt lat="49.86928" lon="2.28332">
        <ele>77.8</ele>
        <time>2021-04-28T14:42:08Z</time>
      </trkpt>
      <trkpt lat="49.86929" lon="2.28332">
        <ele>77.8</ele>
        <time>2021-04-28T14:42:09Z</time>
      </trkpt>
      <trkpt lat="49.86931" lon="2.28332">
        <ele>77.7</ele>
        <time>2021-04-28T14:42:10Z</time>
      </trkpt>
      <trkpt lat="49.86932" lon="2.28331">
        <ele>77.7</ele>
        <time>2021-04-28T14:42:11Z</time>
      </trkpt>
      <trkpt lat="49.86933" lon="2.28331">
        <ele>77.7</ele>
        <time>2021-04-28T14:42:12Z</time>
      </trkpt>
      <trkpt lat="49.86934" lon="2.28331">
        <ele>77.7</ele>
        <time>2021-04-28T14:42:13Z</time>
      </trkpt>
      <trkpt lat="49.86936" lon="2.28332">
        <ele>77.6</ele>
        <time>2021-04-28T14:42:14Z</time>
      </trkpt>
      <trkpt lat="49.86937" lon="2.28332">
        <ele>77.6</ele>
        <time>2021-04-28T14:42:16Z</time>
      </trkpt>
      <trkpt lat="49.86938" lon="2.28333">
        <ele>77.6</ele>
        <time>2021-04-28T14:42:17Z</time>
      </trkpt>
      <trkpt lat="49.86938" lon="2.28333">
        <ele>77.6</ele>
        <time>2021-04-28T14:42:18Z</time>
      </trkpt>
      <trkpt lat="49.86939" lon="2.28334">
        <ele>77.5</ele>
        <time>2021-04-28T14:42:19Z</time>
      </trkpt>
      <trkpt lat="49.8694" lon="2.28334">
        <ele>77.5</ele>
        <time>2021-04-28T14:42:20Z</time>
      </trkpt>
      <trkpt lat="49.86941" lon="2.28334">
        <ele>77.5</ele>
        <time>2021-04-28T14:42:21Z</time>
      </trkpt>
      <trkpt lat="49.86942" lon="2.28334">
        <ele>77.5</ele>
        <time>2021-04-28T14:42:22Z</time>
      </trkpt>
      <trkpt lat="49.86943" lon="2.28335">
        <ele>77.4</ele>
        <time>2021-04-28T14:42:24Z</time>
      </trkpt>
      <trkpt lat="49.86944" lon="2.28336">
        <ele>77.4</ele>
        <time>2021-04-28T14:42:25Z</time>
      </trkpt>
      <trkpt lat="49.86945" lon="2.28336">
        <ele>77.4</ele>
        <time>2021-04-28T14:42:26Z</time>
      </trkpt>
      <trkpt lat="49.86947" lon="2.28337">
        <ele>77.4</ele>
        <time>2021-04-28T14:42:27Z</time>
      </trkpt>
      <trkpt lat="49.86947" lon="2.28337">
        <ele>77.3</ele>
        <time>2021-04-28T14:42:28Z</time>
      </trkpt>
      <trkpt lat="49.86949" lon="2.28338">
        <ele>77.3</ele>
        <time>2021-04-28T14:42:29Z</time>
      </trkpt>
      <trkpt lat="49.8695" lon="2.28339">
        <ele>77.3</ele>
        <time>2021-04-28T14:42:30Z</time>
      </trkpt>
      <trkpt lat="49.86951" lon="2.2834">
        <ele>77.2</ele>
        <time>2021-04-28T14:42:32Z</time>
      </trkpt>
      <trkpt lat="49.86952" lon="2.28341">
        <ele>77.2</ele>
        <time>2021-04-28T14:42:33Z</time>
      </trkpt>
      <trkpt lat="49.86953" lon="2.28342">
        <ele>77.2</ele>
        <time>2021-04-28T14:42:34Z</time>
      </trkpt>
      <trkpt lat="49.86954" lon="2.28342">
        <ele>77.2</ele>
        <time>2021-04-28T14:42:35Z</time>
      </trkpt>
      <trkpt lat="49.86955" lon="2.28342">
        <ele>77.1</ele>
        <time>2021-04-28T14:42:36Z</time>
      </trkpt>
      <trkpt lat="49.86956" lon="2.28343">
        <ele>77.1</ele>
        <time>2021-04-28T14:42:38Z</time>
      </trkpt>
      <trkpt lat="49.86957" lon="2.28344">
        <ele>77.1</ele>
        <time>2021-04-28T14:42:39Z</time>
      </trkpt>
      <trkpt lat="49.86957" lon="2.28345">
        <ele>77.1</ele>
        <time>2021-04-28T14:42:40Z</time>
      </trkpt>
      <trkpt lat="49.86958" lon="2.28346">
        <ele>77</ele>
        <time>2021-04-28T14:42:41Z</time>
      </trkpt>
      <trkpt lat="49.86959" lon="2.28347">
        <ele>77</ele>
        <time>2021-04-28T14:42:42Z</time>
      </trkpt>
      <trkpt lat="49.8696" lon="2.28348">
        <ele>77</ele>
        <time>2021-04-28T14:42:43Z</time>
      </trkpt>
      <trkpt lat="49.86961" lon="2.28349">
        <ele>76.9</ele>
        <time>2021-04-28T14:42:45Z</time>
      </trkpt>
      <trkpt lat="49.86962" lon="2.2835">
        <ele>76.9</ele>
        <time>2021-04-28T14:42:46Z</time>
      </trkpt>
      <trkpt lat="49.86964" lon="2.28351">
        <ele>76.9</ele>
        <time>2021-04-28T14:42:47Z</time>
      </trkpt>
      <trkpt lat="49.86964" lon="2.28352">
        <ele>76.9</ele>
        <time>2021-04-28T14:42:48Z</time>
      </trkpt>
      <trkpt lat="49.86965" lon="2.28352">
        <ele>76.8</ele>
        <time>2021-04-28T14:42:49Z</time>
      </trkpt>
      <trkpt lat="49.86966" lon="2.28353">
        <ele>76.8</ele>
        <time>2021-04-28T14:42:50Z</time>
      </trkpt>
      <trkpt lat="49.86967" lon="2.28354">
        <ele>76.8</ele>
        <time>2021-04-28T14:42:51Z</time>
      </trkpt>
      <trkpt lat="49.86968" lon="2.28355">
        <ele>76.8</ele>
        <time>2021-04-28T14:42:53Z</time>
      </trkpt>
      <trkpt lat="49.8697" lon="2.28356">
        <ele>76.7</ele>
        <time>2021-04-28T14:42:54Z</time>
      </trkpt>
      <trkpt lat="49.86971" lon="2.28357">
        <ele>76.7</ele>
        <time>2021-04-28T14:42:55Z</time>
      </trkpt>
      <trkpt lat="49.86972" lon="2.28358">
        <ele>76.7</ele>
        <time>2021-04-28T14:42:56Z</time>
      </trkpt>
      <trkpt lat="49.86973" lon="2.28359">
        <ele>76.6</ele>
        <time>2021-04-28T14:42:57Z</time>
      </trkpt>
      <trkpt lat="49.86974" lon="2.2836">
        <ele>76.6</ele>
        <time>2021-04-28T14:42:58Z</time>
      </trkpt>
      <trkpt lat="49.86976" lon="2.28361">
        <ele>76.6</ele>
        <time>2021-04-28T14:42:59Z</time>
      </trkpt>
      <trkpt lat="49.86977" lon="2.28362">
        <ele>76.5</ele>
        <time>2021-04-28T14:43:01Z</time>
      </trkpt>
      <trkpt lat="49.86978" lon="2.28363">
        <ele>76.5</ele>
        <time>2021-04-28T14:43:02Z</time>
      </trkpt>
      <trkpt lat="49.86979" lon="2.28363">
        <ele>76.5</ele>
        <time>2021-04-28T14:43:03Z</time>
      </trkpt>
      <trkpt lat="49.8698" lon="2.28364">
        <ele>76.5</ele>
        <time>2021-04-28T14:43:04Z</time>
      </trkpt>
      <trkpt lat="49.86981" lon="2.28365">
        <ele>76.5</ele>
        <time>2021-04-28T14:43:05Z</time>
      </trkpt>
      <trkpt lat="49.86982" lon="2.28366">
        <ele>76.4</ele>
        <time>2021-04-28T14:43:06Z</time>
      </trkpt>
      <trkpt lat="49.86984" lon="2.28366">
        <ele>76.4</ele>
        <time>2021-04-28T14:43:07Z</time>
      </trkpt>
      <trkpt lat="49.86986" lon="2.28367">
        <ele>76.4</ele>
        <time>2021-04-28T14:43:09Z</time>
      </trkpt>
      <trkpt lat="49.86987" lon="2.28367">
        <ele>76.4</ele>
        <time>2021-04-28T14:43:10Z</time>
      </trkpt>
      <trkpt lat="49.86988" lon="2.28367">
        <ele>76.4</ele>
        <time>2021-04-28T14:43:11Z</time>
      </trkpt>
      <trkpt lat="49.8699" lon="2.28367">
        <ele>76.3</ele>
        <time>2021-04-28T14:43:12Z</time>
      </trkpt>
      <trkpt lat="49.86991" lon="2.28367">
        <ele>76.3</ele>
        <time>2021-04-28T14:43:13Z</time>
      </trkpt>
      <trkpt lat="49.86992" lon="2.28367">
        <ele>76.3</ele>
        <time>2021-04-28T14:43:14Z</time>
      </trkpt>
      <trkpt lat="49.86993" lon="2.28367">
        <ele>76.3</ele>
        <time>2021-04-28T14:43:15Z</time>
      </trkpt>
      <trkpt lat="49.86995" lon="2.28367">
        <ele>76.3</ele>
        <time>2021-04-28T14:43:17Z</time>
      </trkpt>
      <trkpt lat="49.86996" lon="2.28367">
        <ele>76.3</ele>
        <time>2021-04-28T14:43:18Z</time>
      </trkpt>
      <trkpt lat="49.86997" lon="2.28367">
        <ele>76.3</ele>
        <time>2021-04-28T14:43:20Z</time>
      </trkpt>
      <trkpt lat="49.86998" lon="2.28368">
        <ele>76.3</ele>
        <time>2021-04-28T14:43:21Z</time>
      </trkpt>
      <trkpt lat="49.87" lon="2.28368">
        <ele>76.3</ele>
        <time>2021-04-28T14:43:22Z</time>
      </trkpt>
      <trkpt lat="49.87" lon="2.28368">
        <ele>76.3</ele>
        <time>2021-04-28T14:43:23Z</time>
      </trkpt>
      <trkpt lat="49.87001" lon="2.28369">
        <ele>76.3</ele>
        <time>2021-04-28T14:43:24Z</time>
      </trkpt>
      <trkpt lat="49.87002" lon="2.28369">
        <ele>76.3</ele>
        <time>2021-04-28T14:43:25Z</time>
      </trkpt>
      <trkpt lat="49.87004" lon="2.2837">
        <ele>76.3</ele>
        <time>2021-04-28T14:43:26Z</time>
      </trkpt>
      <trkpt lat="49.87005" lon="2.28371">
        <ele>76.3</ele>
        <time>2021-04-28T14:43:28Z</time>
      </trkpt>
      <trkpt lat="49.87006" lon="2.28372">
        <ele>76.3</ele>
        <time>2021-04-28T14:43:29Z</time>
      </trkpt>
      <trkpt lat="49.87007" lon="2.28373">
        <ele>76.2</ele>
        <time>2021-04-28T14:43:30Z</time>
      </trkpt>
      <trkpt lat="49.87007" lon="2.28374">
        <ele>76.2</ele>
        <time>2021-04-28T14:43:31Z</time>
      </trkpt>
      <trkpt lat="49.87008" lon="2.28375">
        <ele>76.2</ele>
        <time>2021-04-28T14:43:32Z</time>
      </trkpt>
      <trkpt lat="49.8701" lon="2.28376">
        <ele>76.2</ele>
        <time>2021-04-28T14:43:33Z</time>
      </trkpt>
      <trkpt lat="49.87011" lon="2.28377">
        <ele>76.2</ele>
        <time>2021-04-28T14:43:35Z</time>
      </trkpt>
      <trkpt lat="49.87012" lon="2.28378">
        <ele>76.2</ele>
        <time>2021-04-28T14:43:36Z</time>
      </trkpt>
      <trkpt lat="49.87013" lon="2.28379">
        <ele>76.2</ele>
        <time>2021-04-28T14:43:37Z</time>
      </trkpt>
      <trkpt lat="49.87014" lon="2.2838">
        <ele>76.2</ele>
        <time>2021-04-28T14:43:38Z</time>
      </trkpt>
      <trkpt lat="49.87015" lon="2.28381">
        <ele>76.2</ele>
        <time>2021-04-28T14:43:39Z</time>
      </trkpt>
      <trkpt lat="49.87016" lon="2.28382">
        <ele>76.2</ele>
        <time>2021-04-28T14:43:40Z</time>
      </trkpt>
      <trkpt lat="49.87017" lon="2.28383">
        <ele>76.2</ele>
        <time>2021-04-28T14:43:42Z</time>
      </trkpt>
      <trkpt lat="49.87018" lon="2.28384">
        <ele>76.2</ele>
        <time>2021-04-28T14:43:43Z</time>
      </trkpt>
      <trkpt lat="49.87019" lon="2.28384">
        <ele>76.2</ele>
        <time>2021-04-28T14:43:44Z</time>
      </trkpt>
      <trkpt lat="49.8702" lon="2.28386">
        <ele>76.2</ele>
        <time>2021-04-28T14:43:45Z</time>
      </trkpt>
      <trkpt lat="49.87021" lon="2.28387">
        <ele>76.2</ele>
        <time>2021-04-28T14:43:46Z</time>
      </trkpt>
      <trkpt lat="49.87022" lon="2.28389">
        <ele>76.2</ele>
        <time>2021-04-28T14:43:47Z</time>
      </trkpt>
      <trkpt lat="49.87022" lon="2.28392">
        <ele>76.2</ele>
        <time>2021-04-28T14:43:48Z</time>
      </trkpt>
      <trkpt lat="49.87022" lon="2.28393">
        <ele>76.2</ele>
        <time>2021-04-28T14:43:50Z</time>
      </trkpt>
      <trkpt lat="49.87022" lon="2.28395">
        <ele>76.2</ele>
        <time>2021-04-28T14:43:51Z</time>
      </trkpt>
      <trkpt lat="49.87022" lon="2.28397">
        <ele>76.2</ele>
        <time>2021-04-28T14:43:52Z</time>
      </trkpt>
      <trkpt lat="49.87022" lon="2.284">
        <ele>76.2</ele>
        <time>2021-04-28T14:43:54Z</time>
      </trkpt>
      <trkpt lat="49.8702" lon="2.28401">
        <ele>76.1</ele>
        <time>2021-04-28T14:43:55Z</time>
      </trkpt>
      <trkpt lat="49.87018" lon="2.28401">
        <ele>76.1</ele>
        <time>2021-04-28T14:43:57Z</time>
      </trkpt>
      <trkpt lat="49.87017" lon="2.28401">
        <ele>76.1</ele>
        <time>2021-04-28T14:43:58Z</time>
      </trkpt>
      <trkpt lat="49.87017" lon="2.28402">
        <ele>76.1</ele>
        <time>2021-04-28T14:43:59Z</time>
      </trkpt>
      <trkpt lat="49.87018" lon="2.28404">
        <ele>76.1</ele>
        <time>2021-04-28T14:44:00Z</time>
      </trkpt>
      <trkpt lat="49.87018" lon="2.28406">
        <ele>76</ele>
        <time>2021-04-28T14:44:01Z</time>
      </trkpt>
      <trkpt lat="49.87019" lon="2.28408">
        <ele>76</ele>
        <time>2021-04-28T14:44:03Z</time>
      </trkpt>
      <trkpt lat="49.87019" lon="2.2841">
        <ele>76</ele>
        <time>2021-04-28T14:44:04Z</time>
      </trkpt>
      <trkpt lat="49.8702" lon="2.28412">
        <ele>76</ele>
        <time>2021-04-28T14:44:05Z</time>
      </trkpt>
      <trkpt lat="49.87021" lon="2.28414">
        <ele>75.9</ele>
        <time>2021-04-28T14:44:06Z</time>
      </trkpt>
      <trkpt lat="49.87023" lon="2.28421">
        <ele>75.9</ele>
        <time>2021-04-28T14:44:08Z</time>
      </trkpt>
      <trkpt lat="49.87023" lon="2.28422">
        <ele>75.9</ele>
        <time>2021-04-28T14:44:09Z</time>
      </trkpt>
      <trkpt lat="49.87024" lon="2.28424">
        <ele>75.8</ele>
        <time>2021-04-28T14:44:10Z</time>
      </trkpt>
      <trkpt lat="49.87024" lon="2.28425">
        <ele>75.8</ele>
        <time>2021-04-28T14:44:11Z</time>
      </trkpt>
      <trkpt lat="49.87026" lon="2.28428">
        <ele>75.8</ele>
        <time>2021-04-28T14:44:12Z</time>
      </trkpt>
      <trkpt lat="49.87026" lon="2.2843">
        <ele>75.8</ele>
        <time>2021-04-28T14:44:14Z</time>
      </trkpt>
      <trkpt lat="49.87027" lon="2.28431">
        <ele>75.8</ele>
        <time>2021-04-28T14:44:15Z</time>
      </trkpt>
      <trkpt lat="49.87028" lon="2.28432">
        <ele>75.8</ele>
        <time>2021-04-28T14:44:16Z</time>
      </trkpt>
      <trkpt lat="49.8703" lon="2.28435">
        <ele>75.7</ele>
        <time>2021-04-28T14:44:18Z</time>
      </trkpt>
      <trkpt lat="49.8703" lon="2.28436">
        <ele>75.7</ele>
        <time>2021-04-28T14:44:19Z</time>
      </trkpt>
      <trkpt lat="49.87032" lon="2.28437">
        <ele>75.7</ele>
        <time>2021-04-28T14:44:21Z</time>
      </trkpt>
      <trkpt lat="49.87033" lon="2.28438">
        <ele>75.7</ele>
        <time>2021-04-28T14:44:22Z</time>
      </trkpt>
      <trkpt lat="49.87035" lon="2.28439">
        <ele>75.6</ele>
        <time>2021-04-28T14:44:23Z</time>
      </trkpt>
      <trkpt lat="49.87035" lon="2.28439">
        <ele>75.6</ele>
        <time>2021-04-28T14:44:24Z</time>
      </trkpt>
      <trkpt lat="49.87035" lon="2.28438">
        <ele>75.6</ele>
        <time>2021-04-28T14:44:25Z</time>
      </trkpt>
      <trkpt lat="49.87034" lon="2.28437">
        <ele>75.6</ele>
        <time>2021-04-28T14:44:27Z</time>
      </trkpt>
      <trkpt lat="49.87034" lon="2.28437">
        <ele>75.6</ele>
        <time>2021-04-28T14:44:28Z</time>
      </trkpt>
      <trkpt lat="49.87032" lon="2.28438">
        <ele>75.6</ele>
        <time>2021-04-28T14:44:30Z</time>
      </trkpt>
      <trkpt lat="49.87032" lon="2.28438">
        <ele>75.6</ele>
        <time>2021-04-28T14:44:32Z</time>
      </trkpt>
      <trkpt lat="49.87031" lon="2.28438">
        <ele>75.6</ele>
        <time>2021-04-28T14:44:33Z</time>
      </trkpt>
      <trkpt lat="49.87031" lon="2.28438">
        <ele>75.6</ele>
        <time>2021-04-28T14:44:34Z</time>
      </trkpt>
      <trkpt lat="49.87032" lon="2.28438">
        <ele>75.6</ele>
        <time>2021-04-28T14:44:36Z</time>
      </trkpt>
      <trkpt lat="49.87033" lon="2.28438">
        <ele>75.6</ele>
        <time>2021-04-28T14:44:37Z</time>
      </trkpt>
      <trkpt lat="49.87033" lon="2.28439">
        <ele>75.6</ele>
        <time>2021-04-28T14:44:39Z</time>
      </trkpt>
      <trkpt lat="49.87033" lon="2.2844">
        <ele>75.6</ele>
        <time>2021-04-28T14:44:40Z</time>
      </trkpt>
      <trkpt lat="49.87032" lon="2.28442">
        <ele>75.6</ele>
        <time>2021-04-28T14:44:42Z</time>
      </trkpt>
      <trkpt lat="49.87032" lon="2.28442">
        <ele>75.6</ele>
        <time>2021-04-28T14:44:43Z</time>
      </trkpt>
      <trkpt lat="49.87032" lon="2.28442">
        <ele>75.6</ele>
        <time>2021-04-28T14:44:45Z</time>
      </trkpt>
      <trkpt lat="49.87032" lon="2.28442">
        <ele>75.6</ele>
        <time>2021-04-28T14:44:47Z</time>
      </trkpt>
      <trkpt lat="49.87031" lon="2.28442">
        <ele>75.6</ele>
        <time>2021-04-28T14:44:48Z</time>
      </trkpt>
      <trkpt lat="49.87031" lon="2.28442">
        <ele>75.6</ele>
        <time>2021-04-28T14:44:50Z</time>
      </trkpt>
      <trkpt lat="49.87031" lon="2.28442">
        <ele>75.6</ele>
        <time>2021-04-28T14:44:52Z</time>
      </trkpt>
      <trkpt lat="49.87031" lon="2.28443">
        <ele>75.6</ele>
        <time>2021-04-28T14:44:53Z</time>
      </trkpt>
      <trkpt lat="49.87031" lon="2.28443">
        <ele>75.6</ele>
        <time>2021-04-28T14:44:54Z</time>
      </trkpt>
      <trkpt lat="49.87031" lon="2.28443">
        <ele>75.6</ele>
        <time>2021-04-28T14:44:55Z</time>
      </trkpt>
      <trkpt lat="49.87031" lon="2.28443">
        <ele>75.6</ele>
        <time>2021-04-28T14:44:56Z</time>
      </trkpt>
      <trkpt lat="49.87031" lon="2.28442">
        <ele>75.6</ele>
        <time>2021-04-28T14:44:58Z</time>
      </trkpt>
      <trkpt lat="49.87031" lon="2.28442">
        <ele>75.6</ele>
        <time>2021-04-28T14:44:59Z</time>
      </trkpt>
      <trkpt lat="49.87031" lon="2.28442">
        <ele>75.6</ele>
        <time>2021-04-28T14:45:00Z</time>
      </trkpt>
      <trkpt lat="49.87032" lon="2.28442">
        <ele>75.6</ele>
        <time>2021-04-28T14:45:01Z</time>
      </trkpt>
      <trkpt lat="49.87032" lon="2.28442">
        <ele>75.6</ele>
        <time>2021-04-28T14:45:02Z</time>
      </trkpt>
      <trkpt lat="49.87032" lon="2.28442">
        <ele>75.6</ele>
        <time>2021-04-28T14:45:04Z</time>
      </trkpt>
      <trkpt lat="49.87032" lon="2.28442">
        <ele>75.6</ele>
        <time>2021-04-28T14:45:05Z</time>
      </trkpt>
      <trkpt lat="49.87032" lon="2.28442">
        <ele>75.6</ele>
        <time>2021-04-28T14:45:06Z</time>
      </trkpt>
      <trkpt lat="49.87032" lon="2.28442">
        <ele>75.6</ele>
        <time>2021-04-28T14:45:08Z</time>
      </trkpt>
      <trkpt lat="49.87032" lon="2.28442">
        <ele>75.6</ele>
        <time>2021-04-28T14:45:09Z</time>
      </trkpt>
      <trkpt lat="49.87032" lon="2.28442">
        <ele>75.6</ele>
        <time>2021-04-28T14:45:10Z</time>
      </trkpt>
      <trkpt lat="49.87032" lon="2.28442">
        <ele>75.6</ele>
        <time>2021-04-28T14:45:12Z</time>
      </trkpt>
      <trkpt lat="49.87032" lon="2.28442">
        <ele>75.6</ele>
        <time>2021-04-28T14:45:14Z</time>
      </trkpt>
      <trkpt lat="49.87032" lon="2.28442">
        <ele>75.6</ele>
        <time>2021-04-28T14:45:16Z</time>
      </trkpt>
      <trkpt lat="49.87032" lon="2.28442">
        <ele>75.6</ele>
        <time>2021-04-28T14:45:18Z</time>
      </trkpt>
      <trkpt lat="49.87032" lon="2.28442">
        <ele>75.6</ele>
        <time>2021-04-28T14:45:20Z</time>
      </trkpt>
      <trkpt lat="49.87032" lon="2.28442">
        <ele>75.6</ele>
        <time>2021-04-28T14:45:22Z</time>
      </trkpt>
      <trkpt lat="49.8703" lon="2.28443">
        <ele>75.5</ele>
        <time>2021-04-28T14:45:24Z</time>
      </trkpt>
      <trkpt lat="49.87029" lon="2.28442">
        <ele>75.5</ele>
        <time>2021-04-28T14:45:25Z</time>
      </trkpt>
      <trkpt lat="49.87029" lon="2.28442">
        <ele>75.5</ele>
        <time>2021-04-28T14:45:26Z</time>
      </trkpt>
      <trkpt lat="49.87028" lon="2.28442">
        <ele>75.5</ele>
        <time>2021-04-28T14:45:28Z</time>
      </trkpt>
      <trkpt lat="49.87028" lon="2.28442">
        <ele>75.5</ele>
        <time>2021-04-28T14:45:30Z</time>
      </trkpt>
      <trkpt lat="49.8703" lon="2.28442">
        <ele>75.5</ele>
        <time>2021-04-28T14:45:32Z</time>
      </trkpt>
      <trkpt lat="49.87031" lon="2.28443">
        <ele>75.5</ele>
        <time>2021-04-28T14:45:33Z</time>
      </trkpt>
      <trkpt lat="49.87031" lon="2.28443">
        <ele>75.5</ele>
        <time>2021-04-28T14:45:34Z</time>
      </trkpt>
      <trkpt lat="49.87032" lon="2.28444">
        <ele>75.5</ele>
        <time>2021-04-28T14:45:35Z</time>
      </trkpt>
      <trkpt lat="49.87033" lon="2.28445">
        <ele>75.5</ele>
        <time>2021-04-28T14:45:36Z</time>
      </trkpt>
      <trkpt lat="49.87033" lon="2.28446">
        <ele>75.5</ele>
        <time>2021-04-28T14:45:37Z</time>
      </trkpt>
      <trkpt lat="49.87034" lon="2.28445">
        <ele>75.5</ele>
        <time>2021-04-28T14:45:39Z</time>
      </trkpt>
      <trkpt lat="49.87036" lon="2.28445">
        <ele>75.5</ele>
        <time>2021-04-28T14:45:41Z</time>
      </trkpt>
      <trkpt lat="49.87038" lon="2.28446">
        <ele>75.5</ele>
        <time>2021-04-28T14:45:42Z</time>
      </trkpt>
      <trkpt lat="49.87039" lon="2.28446">
        <ele>75.5</ele>
        <time>2021-04-28T14:45:44Z</time>
      </trkpt>
      <trkpt lat="49.87039" lon="2.28446">
        <ele>75.5</ele>
        <time>2021-04-28T14:45:45Z</time>
      </trkpt>
      <trkpt lat="49.8704" lon="2.28447">
        <ele>75.5</ele>
        <time>2021-04-28T14:45:46Z</time>
      </trkpt>
      <trkpt lat="49.87042" lon="2.28447">
        <ele>75.5</ele>
        <time>2021-04-28T14:45:47Z</time>
      </trkpt>
      <trkpt lat="49.87043" lon="2.28447">
        <ele>75.5</ele>
        <time>2021-04-28T14:45:49Z</time>
      </trkpt>
      <trkpt lat="49.87044" lon="2.28447">
        <ele>75.5</ele>
        <time>2021-04-28T14:45:50Z</time>
      </trkpt>
      <trkpt lat="49.87044" lon="2.28447">
        <ele>75.5</ele>
        <time>2021-04-28T14:45:51Z</time>
      </trkpt>
      <trkpt lat="49.87046" lon="2.28447">
        <ele>75.5</ele>
        <time>2021-04-28T14:45:53Z</time>
      </trkpt>
      <trkpt lat="49.87047" lon="2.28448">
        <ele>75.5</ele>
        <time>2021-04-28T14:45:54Z</time>
      </trkpt>
      <trkpt lat="49.87047" lon="2.28448">
        <ele>75.5</ele>
        <time>2021-04-28T14:45:55Z</time>
      </trkpt>
      <trkpt lat="49.87047" lon="2.28449">
        <ele>75.6</ele>
        <time>2021-04-28T14:45:57Z</time>
      </trkpt>
      <trkpt lat="49.87046" lon="2.2845">
        <ele>75.6</ele>
        <time>2021-04-28T14:45:58Z</time>
      </trkpt>
      <trkpt lat="49.87046" lon="2.2845">
        <ele>75.6</ele>
        <time>2021-04-28T14:45:59Z</time>
      </trkpt>
      <trkpt lat="49.87045" lon="2.28449">
        <ele>75.6</ele>
        <time>2021-04-28T14:46:00Z</time>
      </trkpt>
      <trkpt lat="49.87044" lon="2.28449">
        <ele>75.6</ele>
        <time>2021-04-28T14:46:01Z</time>
      </trkpt>
      <trkpt lat="49.87043" lon="2.28449">
        <ele>75.6</ele>
        <time>2021-04-28T14:46:03Z</time>
      </trkpt>
      <trkpt lat="49.87042" lon="2.28449">
        <ele>75.6</ele>
        <time>2021-04-28T14:46:05Z</time>
      </trkpt>
      <trkpt lat="49.87042" lon="2.28449">
        <ele>75.6</ele>
        <time>2021-04-28T14:46:06Z</time>
      </trkpt>
      <trkpt lat="49.87042" lon="2.28449">
        <ele>75.6</ele>
        <time>2021-04-28T14:46:07Z</time>
      </trkpt>
      <trkpt lat="49.87043" lon="2.28448">
        <ele>75.6</ele>
        <time>2021-04-28T14:46:08Z</time>
      </trkpt>
      <trkpt lat="49.87044" lon="2.28447">
        <ele>75.6</ele>
        <time>2021-04-28T14:46:10Z</time>
      </trkpt>
      <trkpt lat="49.87045" lon="2.28446">
        <ele>75.6</ele>
        <time>2021-04-28T14:46:11Z</time>
      </trkpt>
      <trkpt lat="49.87046" lon="2.28445">
        <ele>75.6</ele>
        <time>2021-04-28T14:46:12Z</time>
      </trkpt>
      <trkpt lat="49.87047" lon="2.28443">
        <ele>75.6</ele>
        <time>2021-04-28T14:46:13Z</time>
      </trkpt>
      <trkpt lat="49.87048" lon="2.28442">
        <ele>75.6</ele>
        <time>2021-04-28T14:46:14Z</time>
      </trkpt>
      <trkpt lat="49.87048" lon="2.28441">
        <ele>75.6</ele>
        <time>2021-04-28T14:46:15Z</time>
      </trkpt>
      <trkpt lat="49.8705" lon="2.2844">
        <ele>75.6</ele>
        <time>2021-04-28T14:46:16Z</time>
      </trkpt>
      <trkpt lat="49.8705" lon="2.28439">
        <ele>75.6</ele>
        <time>2021-04-28T14:46:18Z</time>
      </trkpt>
      <trkpt lat="49.87051" lon="2.28438">
        <ele>75.6</ele>
        <time>2021-04-28T14:46:19Z</time>
      </trkpt>
      <trkpt lat="49.87052" lon="2.28435">
        <ele>75.6</ele>
        <time>2021-04-28T14:46:20Z</time>
      </trkpt>
      <trkpt lat="49.87053" lon="2.28433">
        <ele>75.7</ele>
        <time>2021-04-28T14:46:22Z</time>
      </trkpt>
      <trkpt lat="49.87053" lon="2.28431">
        <ele>75.7</ele>
        <time>2021-04-28T14:46:24Z</time>
      </trkpt>
      <trkpt lat="49.87054" lon="2.2843">
        <ele>75.7</ele>
        <time>2021-04-28T14:46:25Z</time>
      </trkpt>
      <trkpt lat="49.87054" lon="2.28428">
        <ele>75.7</ele>
        <time>2021-04-28T14:46:26Z</time>
      </trkpt>
      <trkpt lat="49.87055" lon="2.28427">
        <ele>75.7</ele>
        <time>2021-04-28T14:46:27Z</time>
      </trkpt>
      <trkpt lat="49.87055" lon="2.28426">
        <ele>75.7</ele>
        <time>2021-04-28T14:46:28Z</time>
      </trkpt>
      <trkpt lat="49.87055" lon="2.28424">
        <ele>75.7</ele>
        <time>2021-04-28T14:46:30Z</time>
      </trkpt>
      <trkpt lat="49.87055" lon="2.28424">
        <ele>75.7</ele>
        <time>2021-04-28T14:46:31Z</time>
      </trkpt>
      <trkpt lat="49.87056" lon="2.28422">
        <ele>75.7</ele>
        <time>2021-04-28T14:46:32Z</time>
      </trkpt>
      <trkpt lat="49.87056" lon="2.28421">
        <ele>75.7</ele>
        <time>2021-04-28T14:46:33Z</time>
      </trkpt>
      <trkpt lat="49.87057" lon="2.2842">
        <ele>75.7</ele>
        <time>2021-04-28T14:46:34Z</time>
      </trkpt>
      <trkpt lat="49.87058" lon="2.28418">
        <ele>75.7</ele>
        <time>2021-04-28T14:46:35Z</time>
      </trkpt>
      <trkpt lat="49.87059" lon="2.28417">
        <ele>75.7</ele>
        <time>2021-04-28T14:46:36Z</time>
      </trkpt>
      <trkpt lat="49.87059" lon="2.28417">
        <ele>75.7</ele>
        <time>2021-04-28T14:46:38Z</time>
      </trkpt>
      <trkpt lat="49.87061" lon="2.28416">
        <ele>75.7</ele>
        <time>2021-04-28T14:46:39Z</time>
      </trkpt>
      <trkpt lat="49.87062" lon="2.28416">
        <ele>75.7</ele>
        <time>2021-04-28T14:46:40Z</time>
      </trkpt>
      <trkpt lat="49.87063" lon="2.28417">
        <ele>75.7</ele>
        <time>2021-04-28T14:46:41Z</time>
      </trkpt>
      <trkpt lat="49.87065" lon="2.28417">
        <ele>75.7</ele>
        <time>2021-04-28T14:46:42Z</time>
      </trkpt>
      <trkpt lat="49.87066" lon="2.28418">
        <ele>75.7</ele>
        <time>2021-04-28T14:46:43Z</time>
      </trkpt>
      <trkpt lat="49.87067" lon="2.28418">
        <ele>75.7</ele>
        <time>2021-04-28T14:46:45Z</time>
      </trkpt>
      <trkpt lat="49.87068" lon="2.28419">
        <ele>75.7</ele>
        <time>2021-04-28T14:46:46Z</time>
      </trkpt>
      <trkpt lat="49.87069" lon="2.2842">
        <ele>75.7</ele>
        <time>2021-04-28T14:46:47Z</time>
      </trkpt>
      <trkpt lat="49.8707" lon="2.28421">
        <ele>75.6</ele>
        <time>2021-04-28T14:46:48Z</time>
      </trkpt>
      <trkpt lat="49.87071" lon="2.28421">
        <ele>75.6</ele>
        <time>2021-04-28T14:46:49Z</time>
      </trkpt>
      <trkpt lat="49.87072" lon="2.28422">
        <ele>75.6</ele>
        <time>2021-04-28T14:46:50Z</time>
      </trkpt>
      <trkpt lat="49.87074" lon="2.28422">
        <ele>75.6</ele>
        <time>2021-04-28T14:46:52Z</time>
      </trkpt>
      <trkpt lat="49.87074" lon="2.28422">
        <ele>75.6</ele>
        <time>2021-04-28T14:46:53Z</time>
      </trkpt>
      <trkpt lat="49.87075" lon="2.28422">
        <ele>75.6</ele>
        <time>2021-04-28T14:46:54Z</time>
      </trkpt>
      <trkpt lat="49.87076" lon="2.28421">
        <ele>75.6</ele>
        <time>2021-04-28T14:46:55Z</time>
      </trkpt>
      <trkpt lat="49.87077" lon="2.28422">
        <ele>75.6</ele>
        <time>2021-04-28T14:46:56Z</time>
      </trkpt>
      <trkpt lat="49.87077" lon="2.28423">
        <ele>75.6</ele>
        <time>2021-04-28T14:46:58Z</time>
      </trkpt>
      <trkpt lat="49.87077" lon="2.28425">
        <ele>75.6</ele>
        <time>2021-04-28T14:46:59Z</time>
      </trkpt>
      <trkpt lat="49.87077" lon="2.28426">
        <ele>75.6</ele>
        <time>2021-04-28T14:47:01Z</time>
      </trkpt>
      <trkpt lat="49.87077" lon="2.28427">
        <ele>75.5</ele>
        <time>2021-04-28T14:47:02Z</time>
      </trkpt>
      <trkpt lat="49.87078" lon="2.28427">
        <ele>75.5</ele>
        <time>2021-04-28T14:47:03Z</time>
      </trkpt>
      <trkpt lat="49.87079" lon="2.28427">
        <ele>75.5</ele>
        <time>2021-04-28T14:47:04Z</time>
      </trkpt>
      <trkpt lat="49.87079" lon="2.28427">
        <ele>75.5</ele>
        <time>2021-04-28T14:47:06Z</time>
      </trkpt>
      <trkpt lat="49.8708" lon="2.28427">
        <ele>75.5</ele>
        <time>2021-04-28T14:47:07Z</time>
      </trkpt>
      <trkpt lat="49.87081" lon="2.28427">
        <ele>75.5</ele>
        <time>2021-04-28T14:47:08Z</time>
      </trkpt>
      <trkpt lat="49.87082" lon="2.28428">
        <ele>75.5</ele>
        <time>2021-04-28T14:47:10Z</time>
      </trkpt>
      <trkpt lat="49.87083" lon="2.28428">
        <ele>75.5</ele>
        <time>2021-04-28T14:47:11Z</time>
      </trkpt>
      <trkpt lat="49.87084" lon="2.28429">
        <ele>75.5</ele>
        <time>2021-04-28T14:47:12Z</time>
      </trkpt>
      <trkpt lat="49.87085" lon="2.28429">
        <ele>75.5</ele>
        <time>2021-04-28T14:47:13Z</time>
      </trkpt>
      <trkpt lat="49.87086" lon="2.28429">
        <ele>75.5</ele>
        <time>2021-04-28T14:47:14Z</time>
      </trkpt>
      <trkpt lat="49.87087" lon="2.28429">
        <ele>75.5</ele>
        <time>2021-04-28T14:47:16Z</time>
      </trkpt>
      <trkpt lat="49.87089" lon="2.28429">
        <ele>75.5</ele>
        <time>2021-04-28T14:47:17Z</time>
      </trkpt>
      <trkpt lat="49.8709" lon="2.28428">
        <ele>75.5</ele>
        <time>2021-04-28T14:47:18Z</time>
      </trkpt>
      <trkpt lat="49.87091" lon="2.28428">
        <ele>75.4</ele>
        <time>2021-04-28T14:47:19Z</time>
      </trkpt>
      <trkpt lat="49.87093" lon="2.28428">
        <ele>75.4</ele>
        <time>2021-04-28T14:47:20Z</time>
      </trkpt>
      <trkpt lat="49.87094" lon="2.28428">
        <ele>75.4</ele>
        <time>2021-04-28T14:47:21Z</time>
      </trkpt>
      <trkpt lat="49.87096" lon="2.28428">
        <ele>75.4</ele>
        <time>2021-04-28T14:47:23Z</time>
      </trkpt>
      <trkpt lat="49.87098" lon="2.28427">
        <ele>75.4</ele>
        <time>2021-04-28T14:47:24Z</time>
      </trkpt>
      <trkpt lat="49.87099" lon="2.28428">
        <ele>75.4</ele>
        <time>2021-04-28T14:47:25Z</time>
      </trkpt>
      <trkpt lat="49.87102" lon="2.28428">
        <ele>75.4</ele>
        <time>2021-04-28T14:47:26Z</time>
      </trkpt>
      <trkpt lat="49.87103" lon="2.28429">
        <ele>75.4</ele>
        <time>2021-04-28T14:47:27Z</time>
      </trkpt>
      <trkpt lat="49.87105" lon="2.28429">
        <ele>75.3</ele>
        <time>2021-04-28T14:47:28Z</time>
      </trkpt>
      <trkpt lat="49.87108" lon="2.28431">
        <ele>75.3</ele>
        <time>2021-04-28T14:47:30Z</time>
      </trkpt>
      <trkpt lat="49.8711" lon="2.28433">
        <ele>75.3</ele>
        <time>2021-04-28T14:47:32Z</time>
      </trkpt>
      <trkpt lat="49.87111" lon="2.28434">
        <ele>75.3</ele>
        <time>2021-04-28T14:47:33Z</time>
      </trkpt>
      <trkpt lat="49.87112" lon="2.28434">
        <ele>75.3</ele>
        <time>2021-04-28T14:47:34Z</time>
      </trkpt>
      <trkpt lat="49.87114" lon="2.28434">
        <ele>75.3</ele>
        <time>2021-04-28T14:47:35Z</time>
      </trkpt>
      <trkpt lat="49.87114" lon="2.28436">
        <ele>75.3</ele>
        <time>2021-04-28T14:47:37Z</time>
      </trkpt>
      <trkpt lat="49.87112" lon="2.28437">
        <ele>75.2</ele>
        <time>2021-04-28T14:47:38Z</time>
      </trkpt>
      <trkpt lat="49.87112" lon="2.28435">
        <ele>75.2</ele>
        <time>2021-04-28T14:47:40Z</time>
      </trkpt>
      <trkpt lat="49.87113" lon="2.28434">
        <ele>75.2</ele>
        <time>2021-04-28T14:47:41Z</time>
      </trkpt>
      <trkpt lat="49.87114" lon="2.28434">
        <ele>75.2</ele>
        <time>2021-04-28T14:47:42Z</time>
      </trkpt>
      <trkpt lat="49.87115" lon="2.28434">
        <ele>75.2</ele>
        <time>2021-04-28T14:47:43Z</time>
      </trkpt>
      <trkpt lat="49.87117" lon="2.28434">
        <ele>75.2</ele>
        <time>2021-04-28T14:47:44Z</time>
      </trkpt>
      <trkpt lat="49.87118" lon="2.28434">
        <ele>75.2</ele>
        <time>2021-04-28T14:47:45Z</time>
      </trkpt>
      <trkpt lat="49.87119" lon="2.28434">
        <ele>75.2</ele>
        <time>2021-04-28T14:47:46Z</time>
      </trkpt>
      <trkpt lat="49.8712" lon="2.28433">
        <ele>75.2</ele>
        <time>2021-04-28T14:47:48Z</time>
      </trkpt>
      <trkpt lat="49.87121" lon="2.28432">
        <ele>75.2</ele>
        <time>2021-04-28T14:47:49Z</time>
      </trkpt>
      <trkpt lat="49.87121" lon="2.28432">
        <ele>75.2</ele>
        <time>2021-04-28T14:47:50Z</time>
      </trkpt>
      <trkpt lat="49.8712" lon="2.28431">
        <ele>75.2</ele>
        <time>2021-04-28T14:47:51Z</time>
      </trkpt>
      <trkpt lat="49.87119" lon="2.2843">
        <ele>75.2</ele>
        <time>2021-04-28T14:47:53Z</time>
      </trkpt>
      <trkpt lat="49.87119" lon="2.28431">
        <ele>75.2</ele>
        <time>2021-04-28T14:47:55Z</time>
      </trkpt>
      <trkpt lat="49.87118" lon="2.28431">
        <ele>75.1</ele>
        <time>2021-04-28T14:47:57Z</time>
      </trkpt>
      <trkpt lat="49.87118" lon="2.28431">
        <ele>75.1</ele>
        <time>2021-04-28T14:47:59Z</time>
      </trkpt>
      <trkpt lat="49.87118" lon="2.28431">
        <ele>75.1</ele>
        <time>2021-04-28T14:48:01Z</time>
      </trkpt>
      <trkpt lat="49.87118" lon="2.28431">
        <ele>75.1</ele>
        <time>2021-04-28T14:48:02Z</time>
      </trkpt>
      <trkpt lat="49.87117" lon="2.28432">
        <ele>75.1</ele>
        <time>2021-04-28T14:48:04Z</time>
      </trkpt>
      <trkpt lat="49.87117" lon="2.28432">
        <ele>75.1</ele>
        <time>2021-04-28T14:48:06Z</time>
      </trkpt>
      <trkpt lat="49.87117" lon="2.28432">
        <ele>75.1</ele>
        <time>2021-04-28T14:48:07Z</time>
      </trkpt>
      <trkpt lat="49.87118" lon="2.28432">
        <ele>75.1</ele>
        <time>2021-04-28T14:48:08Z</time>
      </trkpt>
      <trkpt lat="49.87118" lon="2.28432">
        <ele>75.1</ele>
        <time>2021-04-28T14:48:09Z</time>
      </trkpt>
      <trkpt lat="49.87118" lon="2.28433">
        <ele>75.1</ele>
        <time>2021-04-28T14:48:11Z</time>
      </trkpt>
      <trkpt lat="49.87118" lon="2.28433">
        <ele>75.1</ele>
        <time>2021-04-28T14:48:12Z</time>
      </trkpt>
      <trkpt lat="49.87118" lon="2.28433">
        <ele>75.1</ele>
        <time>2021-04-28T14:48:14Z</time>
      </trkpt>
      <trkpt lat="49.87118" lon="2.28433">
        <ele>75.1</ele>
        <time>2021-04-28T14:48:15Z</time>
      </trkpt>
      <trkpt lat="49.87118" lon="2.28433">
        <ele>75.1</ele>
        <time>2021-04-28T14:48:17Z</time>
      </trkpt>
      <trkpt lat="49.87119" lon="2.28433">
        <ele>75.1</ele>
        <time>2021-04-28T14:48:18Z</time>
      </trkpt>
      <trkpt lat="49.8712" lon="2.28434">
        <ele>75.1</ele>
        <time>2021-04-28T14:48:19Z</time>
      </trkpt>
      <trkpt lat="49.87121" lon="2.28435">
        <ele>75.1</ele>
        <time>2021-04-28T14:48:20Z</time>
      </trkpt>
      <trkpt lat="49.87123" lon="2.28435">
        <ele>75.1</ele>
        <time>2021-04-28T14:48:21Z</time>
      </trkpt>
      <trkpt lat="49.87125" lon="2.28436">
        <ele>75.1</ele>
        <time>2021-04-28T14:48:22Z</time>
      </trkpt>
      <trkpt lat="49.87126" lon="2.28436">
        <ele>75.1</ele>
        <time>2021-04-28T14:48:24Z</time>
      </trkpt>
      <trkpt lat="49.87127" lon="2.28436">
        <ele>75.1</ele>
        <time>2021-04-28T14:48:25Z</time>
      </trkpt>
      <trkpt lat="49.87128" lon="2.28435">
        <ele>75.1</ele>
        <time>2021-04-28T14:48:26Z</time>
      </trkpt>
      <trkpt lat="49.87129" lon="2.28435">
        <ele>75</ele>
        <time>2021-04-28T14:48:27Z</time>
      </trkpt>
      <trkpt lat="49.8713" lon="2.28436">
        <ele>75</ele>
        <time>2021-04-28T14:48:28Z</time>
      </trkpt>
      <trkpt lat="49.87131" lon="2.28436">
        <ele>75</ele>
        <time>2021-04-28T14:48:30Z</time>
      </trkpt>
      <trkpt lat="49.87133" lon="2.28436">
        <ele>75</ele>
        <time>2021-04-28T14:48:31Z</time>
      </trkpt>
      <trkpt lat="49.87133" lon="2.28436">
        <ele>75</ele>
        <time>2021-04-28T14:48:32Z</time>
      </trkpt>
      <trkpt lat="49.87134" lon="2.28436">
        <ele>75</ele>
        <time>2021-04-28T14:48:33Z</time>
      </trkpt>
      <trkpt lat="49.87135" lon="2.28437">
        <ele>75</ele>
        <time>2021-04-28T14:48:34Z</time>
      </trkpt>
      <trkpt lat="49.87136" lon="2.28437">
        <ele>75</ele>
        <time>2021-04-28T14:48:36Z</time>
      </trkpt>
      <trkpt lat="49.87137" lon="2.28437">
        <ele>75</ele>
        <time>2021-04-28T14:48:37Z</time>
      </trkpt>
      <trkpt lat="49.87138" lon="2.28438">
        <ele>75</ele>
        <time>2021-04-28T14:48:38Z</time>
      </trkpt>
      <trkpt lat="49.87138" lon="2.28438">
        <ele>75</ele>
        <time>2021-04-28T14:48:39Z</time>
      </trkpt>
      <trkpt lat="49.87139" lon="2.28439">
        <ele>75</ele>
        <time>2021-04-28T14:48:41Z</time>
      </trkpt>
      <trkpt lat="49.8714" lon="2.28439">
        <ele>75</ele>
        <time>2021-04-28T14:48:42Z</time>
      </trkpt>
      <trkpt lat="49.87141" lon="2.28441">
        <ele>74.9</ele>
        <time>2021-04-28T14:48:43Z</time>
      </trkpt>
      <trkpt lat="49.87142" lon="2.28442">
        <ele>74.9</ele>
        <time>2021-04-28T14:48:44Z</time>
      </trkpt>
      <trkpt lat="49.87143" lon="2.28444">
        <ele>74.9</ele>
        <time>2021-04-28T14:48:45Z</time>
      </trkpt>
      <trkpt lat="49.87144" lon="2.28446">
        <ele>74.9</ele>
        <time>2021-04-28T14:48:46Z</time>
      </trkpt>
      <trkpt lat="49.87145" lon="2.2845">
        <ele>74.9</ele>
        <time>2021-04-28T14:48:47Z</time>
      </trkpt>
      <trkpt lat="49.87146" lon="2.28452">
        <ele>74.8</ele>
        <time>2021-04-28T14:48:49Z</time>
      </trkpt>
      <trkpt lat="49.87147" lon="2.28453">
        <ele>74.8</ele>
        <time>2021-04-28T14:48:50Z</time>
      </trkpt>
      <trkpt lat="49.87148" lon="2.28455">
        <ele>74.8</ele>
        <time>2021-04-28T14:48:51Z</time>
      </trkpt>
      <trkpt lat="49.87149" lon="2.28457">
        <ele>74.8</ele>
        <time>2021-04-28T14:48:52Z</time>
      </trkpt>
      <trkpt lat="49.8715" lon="2.28459">
        <ele>74.8</ele>
        <time>2021-04-28T14:48:53Z</time>
      </trkpt>
      <trkpt lat="49.87151" lon="2.2846">
        <ele>74.8</ele>
        <time>2021-04-28T14:48:54Z</time>
      </trkpt>
      <trkpt lat="49.87153" lon="2.28461">
        <ele>74.8</ele>
        <time>2021-04-28T14:48:55Z</time>
      </trkpt>
      <trkpt lat="49.87154" lon="2.28461">
        <ele>74.8</ele>
        <time>2021-04-28T14:48:57Z</time>
      </trkpt>
      <trkpt lat="49.87155" lon="2.28462">
        <ele>74.8</ele>
        <time>2021-04-28T14:48:58Z</time>
      </trkpt>
      <trkpt lat="49.87156" lon="2.28462">
        <ele>74.8</ele>
        <time>2021-04-28T14:48:59Z</time>
      </trkpt>
      <trkpt lat="49.87158" lon="2.28462">
        <ele>74.8</ele>
        <time>2021-04-28T14:49:00Z</time>
      </trkpt>
      <trkpt lat="49.87159" lon="2.28462">
        <ele>74.8</ele>
        <time>2021-04-28T14:49:01Z</time>
      </trkpt>
      <trkpt lat="49.8716" lon="2.28462">
        <ele>74.8</ele>
        <time>2021-04-28T14:49:02Z</time>
      </trkpt>
      <trkpt lat="49.87162" lon="2.28462">
        <ele>74.8</ele>
        <time>2021-04-28T14:49:03Z</time>
      </trkpt>
      <trkpt lat="49.87163" lon="2.28461">
        <ele>74.8</ele>
        <time>2021-04-28T14:49:05Z</time>
      </trkpt>
      <trkpt lat="49.87165" lon="2.28461">
        <ele>74.8</ele>
        <time>2021-04-28T14:49:06Z</time>
      </trkpt>
      <trkpt lat="49.87165" lon="2.2846">
        <ele>74.8</ele>
        <time>2021-04-28T14:49:07Z</time>
      </trkpt>
      <trkpt lat="49.87167" lon="2.28459">
        <ele>74.8</ele>
        <time>2021-04-28T14:49:08Z</time>
      </trkpt>
      <trkpt lat="49.87168" lon="2.28458">
        <ele>74.8</ele>
        <time>2021-04-28T14:49:09Z</time>
      </trkpt>
      <trkpt lat="49.87169" lon="2.28458">
        <ele>74.8</ele>
        <time>2021-04-28T14:49:11Z</time>
      </trkpt>
      <trkpt lat="49.8717" lon="2.28458">
        <ele>74.8</ele>
        <time>2021-04-28T14:49:12Z</time>
      </trkpt>
      <trkpt lat="49.87171" lon="2.28458">
        <ele>74.8</ele>
        <time>2021-04-28T14:49:13Z</time>
      </trkpt>
      <trkpt lat="49.87172" lon="2.28458">
        <ele>74.8</ele>
        <time>2021-04-28T14:49:14Z</time>
      </trkpt>
      <trkpt lat="49.87173" lon="2.28458">
        <ele>74.8</ele>
        <time>2021-04-28T14:49:15Z</time>
      </trkpt>
      <trkpt lat="49.87175" lon="2.28459">
        <ele>74.8</ele>
        <time>2021-04-28T14:49:16Z</time>
      </trkpt>
      <trkpt lat="49.87175" lon="2.2846">
        <ele>74.7</ele>
        <time>2021-04-28T14:49:18Z</time>
      </trkpt>
      <trkpt lat="49.87176" lon="2.28461">
        <ele>74.7</ele>
        <time>2021-04-28T14:49:19Z</time>
      </trkpt>
      <trkpt lat="49.87177" lon="2.28461">
        <ele>74.7</ele>
        <time>2021-04-28T14:49:20Z</time>
      </trkpt>
      <trkpt lat="49.87179" lon="2.28461">
        <ele>74.7</ele>
        <time>2021-04-28T14:49:21Z</time>
      </trkpt>
      <trkpt lat="49.8718" lon="2.28462">
        <ele>74.7</ele>
        <time>2021-04-28T14:49:22Z</time>
      </trkpt>
      <trkpt lat="49.87181" lon="2.28462">
        <ele>74.7</ele>
        <time>2021-04-28T14:49:24Z</time>
      </trkpt>
      <trkpt lat="49.87182" lon="2.28462">
        <ele>74.7</ele>
        <time>2021-04-28T14:49:25Z</time>
      </trkpt>
      <trkpt lat="49.87183" lon="2.28463">
        <ele>74.7</ele>
        <time>2021-04-28T14:49:26Z</time>
      </trkpt>
      <trkpt lat="49.87183" lon="2.28462">
        <ele>74.7</ele>
        <time>2021-04-28T14:49:27Z</time>
      </trkpt>
      <trkpt lat="49.87184" lon="2.2846">
        <ele>74.7</ele>
        <time>2021-04-28T14:49:28Z</time>
      </trkpt>
      <trkpt lat="49.87184" lon="2.28458">
        <ele>74.7</ele>
        <time>2021-04-28T14:49:29Z</time>
      </trkpt>
      <trkpt lat="49.87185" lon="2.28455">
        <ele>74.7</ele>
        <time>2021-04-28T14:49:31Z</time>
      </trkpt>
      <trkpt lat="49.87185" lon="2.28453">
        <ele>74.7</ele>
        <time>2021-04-28T14:49:32Z</time>
      </trkpt>
      <trkpt lat="49.87186" lon="2.28452">
        <ele>74.7</ele>
        <time>2021-04-28T14:49:33Z</time>
      </trkpt>
      <trkpt lat="49.87187" lon="2.28451">
        <ele>74.7</ele>
        <time>2021-04-28T14:49:34Z</time>
      </trkpt>
      <trkpt lat="49.87189" lon="2.28451">
        <ele>74.7</ele>
        <time>2021-04-28T14:49:36Z</time>
      </trkpt>
      <trkpt lat="49.8719" lon="2.28451">
        <ele>74.7</ele>
        <time>2021-04-28T14:49:37Z</time>
      </trkpt>
      <trkpt lat="49.8719" lon="2.28451">
        <ele>74.7</ele>
        <time>2021-04-28T14:49:38Z</time>
      </trkpt>
      <trkpt lat="49.87191" lon="2.28451">
        <ele>74.7</ele>
        <time>2021-04-28T14:49:39Z</time>
      </trkpt>
      <trkpt lat="49.87192" lon="2.28452">
        <ele>74.6</ele>
        <time>2021-04-28T14:49:40Z</time>
      </trkpt>
      <trkpt lat="49.87193" lon="2.28452">
        <ele>74.6</ele>
        <time>2021-04-28T14:49:41Z</time>
      </trkpt>
      <trkpt lat="49.87194" lon="2.28453">
        <ele>74.6</ele>
        <time>2021-04-28T14:49:42Z</time>
      </trkpt>
      <trkpt lat="49.87195" lon="2.28453">
        <ele>74.6</ele>
        <time>2021-04-28T14:49:44Z</time>
      </trkpt>
      <trkpt lat="49.87196" lon="2.28453">
        <ele>74.6</ele>
        <time>2021-04-28T14:49:45Z</time>
      </trkpt>
      <trkpt lat="49.87197" lon="2.28454">
        <ele>74.5</ele>
        <time>2021-04-28T14:49:46Z</time>
      </trkpt>
      <trkpt lat="49.87198" lon="2.28454">
        <ele>74.5</ele>
        <time>2021-04-28T14:49:47Z</time>
      </trkpt>
      <trkpt lat="49.87199" lon="2.28454">
        <ele>74.5</ele>
        <time>2021-04-28T14:49:48Z</time>
      </trkpt>
      <trkpt lat="49.872" lon="2.28455">
        <ele>74.5</ele>
        <time>2021-04-28T14:49:49Z</time>
      </trkpt>
      <trkpt lat="49.87202" lon="2.28456">
        <ele>74.4</ele>
        <time>2021-04-28T14:49:51Z</time>
      </trkpt>
      <trkpt lat="49.87203" lon="2.28457">
        <ele>74.4</ele>
        <time>2021-04-28T14:49:52Z</time>
      </trkpt>
      <trkpt lat="49.87203" lon="2.28458">
        <ele>74.4</ele>
        <time>2021-04-28T14:49:53Z</time>
      </trkpt>
      <trkpt lat="49.87204" lon="2.28459">
        <ele>74.4</ele>
        <time>2021-04-28T14:49:54Z</time>
      </trkpt>
      <trkpt lat="49.87206" lon="2.28459">
        <ele>74.4</ele>
        <time>2021-04-28T14:49:55Z</time>
      </trkpt>
      <trkpt lat="49.87207" lon="2.2846">
        <ele>74.3</ele>
        <time>2021-04-28T14:49:57Z</time>
      </trkpt>
      <trkpt lat="49.87207" lon="2.28459">
        <ele>74.3</ele>
        <time>2021-04-28T14:49:58Z</time>
      </trkpt>
      <trkpt lat="49.87206" lon="2.28459">
        <ele>74.3</ele>
        <time>2021-04-28T14:50:00Z</time>
      </trkpt>
      <trkpt lat="49.87205" lon="2.2846">
        <ele>74.3</ele>
        <time>2021-04-28T14:50:01Z</time>
      </trkpt>
      <trkpt lat="49.87205" lon="2.28461">
        <ele>74.3</ele>
        <time>2021-04-28T14:50:02Z</time>
      </trkpt>
      <trkpt lat="49.87206" lon="2.28462">
        <ele>74.2</ele>
        <time>2021-04-28T14:50:03Z</time>
      </trkpt>
      <trkpt lat="49.87208" lon="2.28463">
        <ele>74.2</ele>
        <time>2021-04-28T14:50:04Z</time>
      </trkpt>
      <trkpt lat="49.87209" lon="2.28464">
        <ele>74.2</ele>
        <time>2021-04-28T14:50:05Z</time>
      </trkpt>
      <trkpt lat="49.87211" lon="2.28465">
        <ele>74.1</ele>
        <time>2021-04-28T14:50:06Z</time>
      </trkpt>
      <trkpt lat="49.87212" lon="2.28466">
        <ele>74.1</ele>
        <time>2021-04-28T14:50:08Z</time>
      </trkpt>
      <trkpt lat="49.87212" lon="2.28466">
        <ele>74.1</ele>
        <time>2021-04-28T14:50:09Z</time>
      </trkpt>
      <trkpt lat="49.87214" lon="2.28467">
        <ele>74.1</ele>
        <time>2021-04-28T14:50:10Z</time>
      </trkpt>
      <trkpt lat="49.87216" lon="2.28467">
        <ele>74</ele>
        <time>2021-04-28T14:50:12Z</time>
      </trkpt>
      <trkpt lat="49.87216" lon="2.28465">
        <ele>74</ele>
        <time>2021-04-28T14:50:13Z</time>
      </trkpt>
      <trkpt lat="49.87217" lon="2.28465">
        <ele>74</ele>
        <time>2021-04-28T14:50:14Z</time>
      </trkpt>
      <trkpt lat="49.87218" lon="2.28465">
        <ele>74</ele>
        <time>2021-04-28T14:50:15Z</time>
      </trkpt>
      <trkpt lat="49.87219" lon="2.28465">
        <ele>73.9</ele>
        <time>2021-04-28T14:50:17Z</time>
      </trkpt>
      <trkpt lat="49.8722" lon="2.28466">
        <ele>73.9</ele>
        <time>2021-04-28T14:50:18Z</time>
      </trkpt>
      <trkpt lat="49.87221" lon="2.28466">
        <ele>73.9</ele>
        <time>2021-04-28T14:50:19Z</time>
      </trkpt>
      <trkpt lat="49.87223" lon="2.28467">
        <ele>73.9</ele>
        <time>2021-04-28T14:50:20Z</time>
      </trkpt>
      <trkpt lat="49.87224" lon="2.28469">
        <ele>73.8</ele>
        <time>2021-04-28T14:50:21Z</time>
      </trkpt>
      <trkpt lat="49.87225" lon="2.2847">
        <ele>73.8</ele>
        <time>2021-04-28T14:50:22Z</time>
      </trkpt>
      <trkpt lat="49.87226" lon="2.28471">
        <ele>73.8</ele>
        <time>2021-04-28T14:50:23Z</time>
      </trkpt>
      <trkpt lat="49.87227" lon="2.28472">
        <ele>73.8</ele>
        <time>2021-04-28T14:50:24Z</time>
      </trkpt>
      <trkpt lat="49.87229" lon="2.28474">
        <ele>73.7</ele>
        <time>2021-04-28T14:50:25Z</time>
      </trkpt>
      <trkpt lat="49.8723" lon="2.28475">
        <ele>73.7</ele>
        <time>2021-04-28T14:50:27Z</time>
      </trkpt>
      <trkpt lat="49.8723" lon="2.28476">
        <ele>73.7</ele>
        <time>2021-04-28T14:50:28Z</time>
      </trkpt>
      <trkpt lat="49.87231" lon="2.28477">
        <ele>73.6</ele>
        <time>2021-04-28T14:50:29Z</time>
      </trkpt>
      <trkpt lat="49.87232" lon="2.28478">
        <ele>73.6</ele>
        <time>2021-04-28T14:50:30Z</time>
      </trkpt>
      <trkpt lat="49.87234" lon="2.2848">
        <ele>73.5</ele>
        <time>2021-04-28T14:50:31Z</time>
      </trkpt>
      <trkpt lat="49.87235" lon="2.2848">
        <ele>73.5</ele>
        <time>2021-04-28T14:50:32Z</time>
      </trkpt>
      <trkpt lat="49.87235" lon="2.28481">
        <ele>73.5</ele>
        <time>2021-04-28T14:50:33Z</time>
      </trkpt>
      <trkpt lat="49.87236" lon="2.28481">
        <ele>73.5</ele>
        <time>2021-04-28T14:50:34Z</time>
      </trkpt>
      <trkpt lat="49.87237" lon="2.28482">
        <ele>73.4</ele>
        <time>2021-04-28T14:50:36Z</time>
      </trkpt>
      <trkpt lat="49.87239" lon="2.28483">
        <ele>73.4</ele>
        <time>2021-04-28T14:50:37Z</time>
      </trkpt>
      <trkpt lat="49.8724" lon="2.28483">
        <ele>73.4</ele>
        <time>2021-04-28T14:50:38Z</time>
      </trkpt>
      <trkpt lat="49.8724" lon="2.28484">
        <ele>73.4</ele>
        <time>2021-04-28T14:50:39Z</time>
      </trkpt>
      <trkpt lat="49.87241" lon="2.28484">
        <ele>73.3</ele>
        <time>2021-04-28T14:50:40Z</time>
      </trkpt>
      <trkpt lat="49.87243" lon="2.28484">
        <ele>73.3</ele>
        <time>2021-04-28T14:50:42Z</time>
      </trkpt>
      <trkpt lat="49.87244" lon="2.28485">
        <ele>73.3</ele>
        <time>2021-04-28T14:50:43Z</time>
      </trkpt>
      <trkpt lat="49.87245" lon="2.28485">
        <ele>73.2</ele>
        <time>2021-04-28T14:50:44Z</time>
      </trkpt>
      <trkpt lat="49.87246" lon="2.28485">
        <ele>73.2</ele>
        <time>2021-04-28T14:50:45Z</time>
      </trkpt>
      <trkpt lat="49.87248" lon="2.28486">
        <ele>73.1</ele>
        <time>2021-04-28T14:50:46Z</time>
      </trkpt>
      <trkpt lat="49.87249" lon="2.28487">
        <ele>73.1</ele>
        <time>2021-04-28T14:50:47Z</time>
      </trkpt>
      <trkpt lat="49.8725" lon="2.28487">
        <ele>73.1</ele>
        <time>2021-04-28T14:50:48Z</time>
      </trkpt>
      <trkpt lat="49.87251" lon="2.28488">
        <ele>73.1</ele>
        <time>2021-04-28T14:50:49Z</time>
      </trkpt>
      <trkpt lat="49.87252" lon="2.28488">
        <ele>73</ele>
        <time>2021-04-28T14:50:51Z</time>
      </trkpt>
      <trkpt lat="49.87253" lon="2.28489">
        <ele>73</ele>
        <time>2021-04-28T14:50:52Z</time>
      </trkpt>
      <trkpt lat="49.87254" lon="2.28489">
        <ele>73</ele>
        <time>2021-04-28T14:50:53Z</time>
      </trkpt>
      <trkpt lat="49.87255" lon="2.28489">
        <ele>73</ele>
        <time>2021-04-28T14:50:54Z</time>
      </trkpt>
      <trkpt lat="49.87256" lon="2.28489">
        <ele>72.9</ele>
        <time>2021-04-28T14:50:56Z</time>
      </trkpt>
      <trkpt lat="49.87258" lon="2.2849">
        <ele>72.9</ele>
        <time>2021-04-28T14:50:57Z</time>
      </trkpt>
      <trkpt lat="49.87259" lon="2.2849">
        <ele>72.9</ele>
        <time>2021-04-28T14:50:58Z</time>
      </trkpt>
      <trkpt lat="49.8726" lon="2.28491">
        <ele>72.9</ele>
        <time>2021-04-28T14:50:59Z</time>
      </trkpt>
      <trkpt lat="49.87261" lon="2.28491">
        <ele>72.8</ele>
        <time>2021-04-28T14:51:00Z</time>
      </trkpt>
      <trkpt lat="49.87263" lon="2.28491">
        <ele>72.8</ele>
        <time>2021-04-28T14:51:01Z</time>
      </trkpt>
      <trkpt lat="49.87263" lon="2.28491">
        <ele>72.8</ele>
        <time>2021-04-28T14:51:02Z</time>
      </trkpt>
      <trkpt lat="49.87265" lon="2.28492">
        <ele>72.8</ele>
        <time>2021-04-28T14:51:03Z</time>
      </trkpt>
      <trkpt lat="49.87266" lon="2.28492">
        <ele>72.7</ele>
        <time>2021-04-28T14:51:04Z</time>
      </trkpt>
      <trkpt lat="49.87267" lon="2.28492">
        <ele>72.7</ele>
        <time>2021-04-28T14:51:06Z</time>
      </trkpt>
      <trkpt lat="49.87268" lon="2.28492">
        <ele>72.7</ele>
        <time>2021-04-28T14:51:07Z</time>
      </trkpt>
      <trkpt lat="49.87269" lon="2.28492">
        <ele>72.7</ele>
        <time>2021-04-28T14:51:08Z</time>
      </trkpt>
      <trkpt lat="49.8727" lon="2.28492">
        <ele>72.6</ele>
        <time>2021-04-28T14:51:09Z</time>
      </trkpt>
      <trkpt lat="49.8727" lon="2.28492">
        <ele>72.6</ele>
        <time>2021-04-28T14:51:10Z</time>
      </trkpt>
      <trkpt lat="49.87272" lon="2.28492">
        <ele>72.6</ele>
        <time>2021-04-28T14:51:11Z</time>
      </trkpt>
      <trkpt lat="49.87272" lon="2.28492">
        <ele>72.6</ele>
        <time>2021-04-28T14:51:12Z</time>
      </trkpt>
      <trkpt lat="49.87273" lon="2.28492">
        <ele>72.5</ele>
        <time>2021-04-28T14:51:13Z</time>
      </trkpt>
      <trkpt lat="49.87274" lon="2.28492">
        <ele>72.5</ele>
        <time>2021-04-28T14:51:14Z</time>
      </trkpt>
      <trkpt lat="49.87275" lon="2.28493">
        <ele>72.5</ele>
        <time>2021-04-28T14:51:15Z</time>
      </trkpt>
      <trkpt lat="49.87277" lon="2.28493">
        <ele>72.4</ele>
        <time>2021-04-28T14:51:17Z</time>
      </trkpt>
      <trkpt lat="49.87278" lon="2.28493">
        <ele>72.4</ele>
        <time>2021-04-28T14:51:18Z</time>
      </trkpt>
      <trkpt lat="49.87279" lon="2.28494">
        <ele>72.4</ele>
        <time>2021-04-28T14:51:19Z</time>
      </trkpt>
      <trkpt lat="49.8728" lon="2.28494">
        <ele>72.4</ele>
        <time>2021-04-28T14:51:20Z</time>
      </trkpt>
      <trkpt lat="49.87281" lon="2.28495">
        <ele>72.3</ele>
        <time>2021-04-28T14:51:21Z</time>
      </trkpt>
      <trkpt lat="49.87282" lon="2.28495">
        <ele>72.3</ele>
        <time>2021-04-28T14:51:22Z</time>
      </trkpt>
      <trkpt lat="49.87283" lon="2.28496">
        <ele>72.3</ele>
        <time>2021-04-28T14:51:23Z</time>
      </trkpt>
      <trkpt lat="49.87284" lon="2.28496">
        <ele>72.3</ele>
        <time>2021-04-28T14:51:24Z</time>
      </trkpt>
      <trkpt lat="49.87286" lon="2.28496">
        <ele>72.2</ele>
        <time>2021-04-28T14:51:25Z</time>
      </trkpt>
      <trkpt lat="49.87287" lon="2.28496">
        <ele>72.2</ele>
        <time>2021-04-28T14:51:26Z</time>
      </trkpt>
      <trkpt lat="49.87287" lon="2.28496">
        <ele>72.2</ele>
        <time>2021-04-28T14:51:28Z</time>
      </trkpt>
      <trkpt lat="49.87288" lon="2.28496">
        <ele>72.1</ele>
        <time>2021-04-28T14:51:29Z</time>
      </trkpt>
      <trkpt lat="49.87289" lon="2.28495">
        <ele>72.1</ele>
        <time>2021-04-28T14:51:30Z</time>
      </trkpt>
      <trkpt lat="49.8729" lon="2.28495">
        <ele>72.1</ele>
        <time>2021-04-28T14:51:31Z</time>
      </trkpt>
      <trkpt lat="49.87291" lon="2.28495">
        <ele>72.1</ele>
        <time>2021-04-28T14:51:32Z</time>
      </trkpt>
      <trkpt lat="49.87292" lon="2.28494">
        <ele>72</ele>
        <time>2021-04-28T14:51:34Z</time>
      </trkpt>
      <trkpt lat="49.87293" lon="2.28494">
        <ele>72</ele>
        <time>2021-04-28T14:51:35Z</time>
      </trkpt>
      <trkpt lat="49.87294" lon="2.28493">
        <ele>72</ele>
        <time>2021-04-28T14:51:36Z</time>
      </trkpt>
      <trkpt lat="49.87296" lon="2.28492">
        <ele>71.9</ele>
        <time>2021-04-28T14:51:37Z</time>
      </trkpt>
      <trkpt lat="49.87297" lon="2.28492">
        <ele>71.9</ele>
        <time>2021-04-28T14:51:38Z</time>
      </trkpt>
      <trkpt lat="49.87298" lon="2.28492">
        <ele>71.9</ele>
        <time>2021-04-28T14:51:39Z</time>
      </trkpt>
      <trkpt lat="49.87299" lon="2.28491">
        <ele>71.9</ele>
        <time>2021-04-28T14:51:40Z</time>
      </trkpt>
      <trkpt lat="49.87301" lon="2.28491">
        <ele>71.8</ele>
        <time>2021-04-28T14:51:41Z</time>
      </trkpt>
      <trkpt lat="49.87302" lon="2.2849">
        <ele>71.8</ele>
        <time>2021-04-28T14:51:42Z</time>
      </trkpt>
      <trkpt lat="49.87303" lon="2.28489">
        <ele>71.8</ele>
        <time>2021-04-28T14:51:44Z</time>
      </trkpt>
      <trkpt lat="49.87303" lon="2.28489">
        <ele>71.8</ele>
        <time>2021-04-28T14:51:45Z</time>
      </trkpt>
      <trkpt lat="49.87304" lon="2.28488">
        <ele>71.7</ele>
        <time>2021-04-28T14:51:46Z</time>
      </trkpt>
      <trkpt lat="49.87305" lon="2.28487">
        <ele>71.7</ele>
        <time>2021-04-28T14:51:47Z</time>
      </trkpt>
      <trkpt lat="49.87306" lon="2.28486">
        <ele>71.7</ele>
        <time>2021-04-28T14:51:48Z</time>
      </trkpt>
      <trkpt lat="49.87307" lon="2.28485">
        <ele>71.7</ele>
        <time>2021-04-28T14:51:49Z</time>
      </trkpt>
      <trkpt lat="49.87307" lon="2.28484">
        <ele>71.7</ele>
        <time>2021-04-28T14:51:51Z</time>
      </trkpt>
      <trkpt lat="49.87309" lon="2.28483">
        <ele>71.6</ele>
        <time>2021-04-28T14:51:52Z</time>
      </trkpt>
      <trkpt lat="49.87309" lon="2.28482">
        <ele>71.6</ele>
        <time>2021-04-28T14:51:53Z</time>
      </trkpt>
      <trkpt lat="49.8731" lon="2.28481">
        <ele>71.6</ele>
        <time>2021-04-28T14:51:54Z</time>
      </trkpt>
      <trkpt lat="49.87311" lon="2.28481">
        <ele>71.6</ele>
        <time>2021-04-28T14:51:55Z</time>
      </trkpt>
      <trkpt lat="49.87312" lon="2.2848">
        <ele>71.6</ele>
        <time>2021-04-28T14:51:56Z</time>
      </trkpt>
      <trkpt lat="49.87313" lon="2.2848">
        <ele>71.6</ele>
        <time>2021-04-28T14:51:58Z</time>
      </trkpt>
      <trkpt lat="49.87314" lon="2.2848">
        <ele>71.5</ele>
        <time>2021-04-28T14:51:59Z</time>
      </trkpt>
      <trkpt lat="49.87315" lon="2.28479">
        <ele>71.5</ele>
        <time>2021-04-28T14:52:01Z</time>
      </trkpt>
      <trkpt lat="49.87316" lon="2.28478">
        <ele>71.5</ele>
        <time>2021-04-28T14:52:02Z</time>
      </trkpt>
      <trkpt lat="49.87317" lon="2.28477">
        <ele>71.5</ele>
        <time>2021-04-28T14:52:03Z</time>
      </trkpt>
      <trkpt lat="49.87317" lon="2.28476">
        <ele>71.5</ele>
        <time>2021-04-28T14:52:05Z</time>
      </trkpt>
      <trkpt lat="49.87318" lon="2.28475">
        <ele>71.5</ele>
        <time>2021-04-28T14:52:06Z</time>
      </trkpt>
      <trkpt lat="49.87318" lon="2.28475">
        <ele>71.5</ele>
        <time>2021-04-28T14:52:07Z</time>
      </trkpt>
      <trkpt lat="49.87319" lon="2.28475">
        <ele>71.5</ele>
        <time>2021-04-28T14:52:08Z</time>
      </trkpt>
      <trkpt lat="49.8732" lon="2.28475">
        <ele>71.4</ele>
        <time>2021-04-28T14:52:09Z</time>
      </trkpt>
      <trkpt lat="49.87321" lon="2.28475">
        <ele>71.4</ele>
        <time>2021-04-28T14:52:11Z</time>
      </trkpt>
      <trkpt lat="49.87321" lon="2.28474">
        <ele>71.4</ele>
        <time>2021-04-28T14:52:13Z</time>
      </trkpt>
      <trkpt lat="49.8732" lon="2.28474">
        <ele>71.4</ele>
        <time>2021-04-28T14:52:14Z</time>
      </trkpt>
      <trkpt lat="49.87319" lon="2.28473">
        <ele>71.4</ele>
        <time>2021-04-28T14:52:15Z</time>
      </trkpt>
      <trkpt lat="49.87319" lon="2.28473">
        <ele>71.4</ele>
        <time>2021-04-28T14:52:17Z</time>
      </trkpt>
      <trkpt lat="49.87319" lon="2.28473">
        <ele>71.4</ele>
        <time>2021-04-28T14:52:18Z</time>
      </trkpt>
      <trkpt lat="49.87319" lon="2.28473">
        <ele>71.4</ele>
        <time>2021-04-28T14:52:20Z</time>
      </trkpt>
      <trkpt lat="49.87319" lon="2.28473">
        <ele>71.4</ele>
        <time>2021-04-28T14:52:21Z</time>
      </trkpt>
      <trkpt lat="49.87319" lon="2.28473">
        <ele>71.4</ele>
        <time>2021-04-28T14:52:22Z</time>
      </trkpt>
      <trkpt lat="49.87319" lon="2.28473">
        <ele>71.4</ele>
        <time>2021-04-28T14:52:24Z</time>
      </trkpt>
      <trkpt lat="49.87319" lon="2.28473">
        <ele>71.4</ele>
        <time>2021-04-28T14:52:25Z</time>
      </trkpt>
      <trkpt lat="49.87319" lon="2.28473">
        <ele>71.4</ele>
        <time>2021-04-28T14:52:26Z</time>
      </trkpt>
      <trkpt lat="49.87319" lon="2.28473">
        <ele>71.4</ele>
        <time>2021-04-28T14:52:27Z</time>
      </trkpt>
      <trkpt lat="49.87319" lon="2.28473">
        <ele>71.4</ele>
        <time>2021-04-28T14:52:28Z</time>
      </trkpt>
      <trkpt lat="49.87318" lon="2.28473">
        <ele>71.4</ele>
        <time>2021-04-28T14:52:29Z</time>
      </trkpt>
      <trkpt lat="49.87318" lon="2.28473">
        <ele>71.4</ele>
        <time>2021-04-28T14:52:30Z</time>
      </trkpt>
      <trkpt lat="49.87317" lon="2.28473">
        <ele>71.4</ele>
        <time>2021-04-28T14:52:32Z</time>
      </trkpt>
      <trkpt lat="49.87317" lon="2.28472">
        <ele>71.4</ele>
        <time>2021-04-28T14:52:33Z</time>
      </trkpt>
      <trkpt lat="49.87316" lon="2.28472">
        <ele>71.4</ele>
        <time>2021-04-28T14:52:35Z</time>
      </trkpt>
      <trkpt lat="49.87315" lon="2.28474">
        <ele>71.4</ele>
        <time>2021-04-28T14:52:37Z</time>
      </trkpt>
      <trkpt lat="49.87314" lon="2.28475">
        <ele>71.4</ele>
        <time>2021-04-28T14:52:38Z</time>
      </trkpt>
      <trkpt lat="49.87314" lon="2.28475">
        <ele>71.4</ele>
        <time>2021-04-28T14:52:39Z</time>
      </trkpt>
      <trkpt lat="49.87314" lon="2.28476">
        <ele>71.4</ele>
        <time>2021-04-28T14:52:41Z</time>
      </trkpt>
      <trkpt lat="49.87314" lon="2.28476">
        <ele>71.4</ele>
        <time>2021-04-28T14:52:43Z</time>
      </trkpt>
      <trkpt lat="49.87315" lon="2.28477">
        <ele>71.4</ele>
        <time>2021-04-28T14:52:44Z</time>
      </trkpt>
      <trkpt lat="49.87315" lon="2.28477">
        <ele>71.3</ele>
        <time>2021-04-28T14:52:45Z</time>
      </trkpt>
      <trkpt lat="49.87315" lon="2.28477">
        <ele>71.3</ele>
        <time>2021-04-28T14:52:46Z</time>
      </trkpt>
      <trkpt lat="49.87315" lon="2.28477">
        <ele>71.3</ele>
        <time>2021-04-28T14:52:48Z</time>
      </trkpt>
      <trkpt lat="49.87315" lon="2.28478">
        <ele>71.3</ele>
        <time>2021-04-28T14:52:49Z</time>
      </trkpt>
      <trkpt lat="49.87315" lon="2.28478">
        <ele>71.3</ele>
        <time>2021-04-28T14:52:51Z</time>
      </trkpt>
      <trkpt lat="49.87315" lon="2.28478">
        <ele>71.3</ele>
        <time>2021-04-28T14:52:53Z</time>
      </trkpt>
      <trkpt lat="49.87315" lon="2.28478">
        <ele>71.3</ele>
        <time>2021-04-28T14:52:54Z</time>
      </trkpt>
      <trkpt lat="49.87315" lon="2.28478">
        <ele>71.3</ele>
        <time>2021-04-28T14:52:55Z</time>
      </trkpt>
      <trkpt lat="49.87315" lon="2.28478">
        <ele>71.3</ele>
        <time>2021-04-28T14:52:56Z</time>
      </trkpt>
      <trkpt lat="49.87315" lon="2.28478">
        <ele>71.3</ele>
        <time>2021-04-28T14:52:57Z</time>
      </trkpt>
      <trkpt lat="49.87315" lon="2.28478">
        <ele>71.3</ele>
        <time>2021-04-28T14:52:58Z</time>
      </trkpt>
      <trkpt lat="49.87315" lon="2.28477">
        <ele>71.3</ele>
        <time>2021-04-28T14:53:00Z</time>
      </trkpt>
      <trkpt lat="49.87315" lon="2.28477">
        <ele>71.3</ele>
        <time>2021-04-28T14:53:02Z</time>
      </trkpt>
      <trkpt lat="49.87315" lon="2.28477">
        <ele>71.3</ele>
        <time>2021-04-28T14:53:03Z</time>
      </trkpt>
      <trkpt lat="49.87315" lon="2.28477">
        <ele>71.3</ele>
        <time>2021-04-28T14:53:05Z</time>
      </trkpt>
      <trkpt lat="49.87315" lon="2.28477">
        <ele>71.3</ele>
        <time>2021-04-28T14:53:07Z</time>
      </trkpt>
      <trkpt lat="49.87315" lon="2.28477">
        <ele>71.3</ele>
        <time>2021-04-28T14:53:08Z</time>
      </trkpt>
      <trkpt lat="49.87315" lon="2.28477">
        <ele>71.3</ele>
        <time>2021-04-28T14:53:10Z</time>
      </trkpt>
      <trkpt lat="49.87315" lon="2.28477">
        <ele>71.3</ele>
        <time>2021-04-28T14:53:12Z</time>
      </trkpt>
      <trkpt lat="49.87315" lon="2.28477">
        <ele>71.3</ele>
        <time>2021-04-28T14:53:14Z</time>
      </trkpt>
      <trkpt lat="49.87315" lon="2.28477">
        <ele>71.3</ele>
        <time>2021-04-28T14:53:15Z</time>
      </trkpt>
      <trkpt lat="49.87315" lon="2.28477">
        <ele>71.3</ele>
        <time>2021-04-28T14:53:17Z</time>
      </trkpt>
      <trkpt lat="49.87315" lon="2.28477">
        <ele>71.3</ele>
        <time>2021-04-28T14:53:19Z</time>
      </trkpt>
      <trkpt lat="49.87315" lon="2.28477">
        <ele>71.3</ele>
        <time>2021-04-28T14:53:20Z</time>
      </trkpt>
      <trkpt lat="49.87315" lon="2.28477">
        <ele>71.3</ele>
        <time>2021-04-28T14:53:21Z</time>
      </trkpt>
      <trkpt lat="49.87315" lon="2.28477">
        <ele>71.3</ele>
        <time>2021-04-28T14:53:23Z</time>
      </trkpt>
      <trkpt lat="49.87315" lon="2.28477">
        <ele>71.3</ele>
        <time>2021-04-28T14:53:24Z</time>
      </trkpt>
      <trkpt lat="49.87315" lon="2.28477">
        <ele>71.3</ele>
        <time>2021-04-28T14:53:26Z</time>
      </trkpt>
      <trkpt lat="49.87315" lon="2.28477">
        <ele>71.3</ele>
        <time>2021-04-28T14:53:28Z</time>
      </trkpt>
      <trkpt lat="49.87315" lon="2.28477">
        <ele>71.3</ele>
        <time>2021-04-28T14:53:29Z</time>
      </trkpt>
      <trkpt lat="49.87315" lon="2.28477">
        <ele>71.3</ele>
        <time>2021-04-28T14:53:30Z</time>
      </trkpt>
      <trkpt lat="49.87315" lon="2.28477">
        <ele>71.3</ele>
        <time>2021-04-28T14:53:32Z</time>
      </trkpt>
      <trkpt lat="49.87315" lon="2.28477">
        <ele>71.3</ele>
        <time>2021-04-28T14:53:33Z</time>
      </trkpt>
      <trkpt lat="49.87315" lon="2.28477">
        <ele>71.3</ele>
        <time>2021-04-28T14:53:35Z</time>
      </trkpt>
      <trkpt lat="49.87315" lon="2.28477">
        <ele>71.3</ele>
        <time>2021-04-28T14:53:36Z</time>
      </trkpt>
      <trkpt lat="49.87315" lon="2.28476">
        <ele>71.3</ele>
        <time>2021-04-28T14:53:38Z</time>
      </trkpt>
      <trkpt lat="49.87316" lon="2.28476">
        <ele>71.3</ele>
        <time>2021-04-28T14:53:39Z</time>
      </trkpt>
      <trkpt lat="49.87316" lon="2.28476">
        <ele>71.3</ele>
        <time>2021-04-28T14:53:40Z</time>
      </trkpt>
      <trkpt lat="49.87317" lon="2.28475">
        <ele>71.3</ele>
        <time>2021-04-28T14:53:41Z</time>
      </trkpt>
      <trkpt lat="49.87317" lon="2.28475">
        <ele>71.3</ele>
        <time>2021-04-28T14:53:42Z</time>
      </trkpt>
      <trkpt lat="49.87317" lon="2.28477">
        <ele>71.3</ele>
        <time>2021-04-28T14:53:44Z</time>
      </trkpt>
      <trkpt lat="49.87318" lon="2.28478">
        <ele>71.3</ele>
        <time>2021-04-28T14:53:46Z</time>
      </trkpt>
      <trkpt lat="49.87318" lon="2.28478">
        <ele>71.3</ele>
        <time>2021-04-28T14:53:47Z</time>
      </trkpt>
      <trkpt lat="49.87318" lon="2.2848">
        <ele>71.3</ele>
        <time>2021-04-28T14:53:49Z</time>
      </trkpt>
      <trkpt lat="49.87318" lon="2.2848">
        <ele>71.3</ele>
        <time>2021-04-28T14:53:50Z</time>
      </trkpt>
      <trkpt lat="49.87318" lon="2.2848">
        <ele>71.3</ele>
        <time>2021-04-28T14:53:52Z</time>
      </trkpt>
      <trkpt lat="49.87318" lon="2.2848">
        <ele>71.3</ele>
        <time>2021-04-28T14:53:53Z</time>
      </trkpt>
      <trkpt lat="49.87318" lon="2.2848">
        <ele>71.3</ele>
        <time>2021-04-28T14:53:54Z</time>
      </trkpt>
      <trkpt lat="49.87317" lon="2.28481">
        <ele>71.3</ele>
        <time>2021-04-28T14:53:56Z</time>
      </trkpt>
      <trkpt lat="49.87317" lon="2.28481">
        <ele>71.3</ele>
        <time>2021-04-28T14:53:57Z</time>
      </trkpt>
      <trkpt lat="49.87317" lon="2.28483">
        <ele>71.3</ele>
        <time>2021-04-28T14:53:59Z</time>
      </trkpt>
      <trkpt lat="49.87317" lon="2.28485">
        <ele>71.3</ele>
        <time>2021-04-28T14:54:00Z</time>
      </trkpt>
      <trkpt lat="49.87316" lon="2.28486">
        <ele>71.3</ele>
        <time>2021-04-28T14:54:01Z</time>
      </trkpt>
      <trkpt lat="49.87316" lon="2.28487">
        <ele>71.3</ele>
        <time>2021-04-28T14:54:02Z</time>
      </trkpt>
      <trkpt lat="49.87316" lon="2.28489">
        <ele>71.3</ele>
        <time>2021-04-28T14:54:03Z</time>
      </trkpt>
      <trkpt lat="49.87316" lon="2.28489">
        <ele>71.3</ele>
        <time>2021-04-28T14:54:04Z</time>
      </trkpt>
      <trkpt lat="49.87316" lon="2.28488">
        <ele>71.3</ele>
        <time>2021-04-28T14:54:05Z</time>
      </trkpt>
      <trkpt lat="49.87316" lon="2.28489">
        <ele>71.3</ele>
        <time>2021-04-28T14:54:07Z</time>
      </trkpt>
      <trkpt lat="49.87316" lon="2.28491">
        <ele>71.3</ele>
        <time>2021-04-28T14:54:08Z</time>
      </trkpt>
      <trkpt lat="49.87316" lon="2.28492">
        <ele>71.3</ele>
        <time>2021-04-28T14:54:09Z</time>
      </trkpt>
      <trkpt lat="49.87316" lon="2.28494">
        <ele>71.3</ele>
        <time>2021-04-28T14:54:10Z</time>
      </trkpt>
      <trkpt lat="49.87316" lon="2.28495">
        <ele>71.3</ele>
        <time>2021-04-28T14:54:12Z</time>
      </trkpt>
      <trkpt lat="49.87316" lon="2.28497">
        <ele>71.3</ele>
        <time>2021-04-28T14:54:13Z</time>
      </trkpt>
      <trkpt lat="49.87316" lon="2.28497">
        <ele>71.3</ele>
        <time>2021-04-28T14:54:14Z</time>
      </trkpt>
      <trkpt lat="49.87315" lon="2.28497">
        <ele>71.3</ele>
        <time>2021-04-28T14:54:15Z</time>
      </trkpt>
      <trkpt lat="49.87315" lon="2.28497">
        <ele>71.3</ele>
        <time>2021-04-28T14:54:16Z</time>
      </trkpt>
      <trkpt lat="49.87314" lon="2.28497">
        <ele>71.3</ele>
        <time>2021-04-28T14:54:18Z</time>
      </trkpt>
      <trkpt lat="49.87314" lon="2.28497">
        <ele>71.3</ele>
        <time>2021-04-28T14:54:19Z</time>
      </trkpt>
      <trkpt lat="49.87314" lon="2.28498">
        <ele>71.3</ele>
        <time>2021-04-28T14:54:20Z</time>
      </trkpt>
      <trkpt lat="49.87314" lon="2.28498">
        <ele>71.3</ele>
        <time>2021-04-28T14:54:21Z</time>
      </trkpt>
      <trkpt lat="49.87315" lon="2.28498">
        <ele>71.3</ele>
        <time>2021-04-28T14:54:23Z</time>
      </trkpt>
      <trkpt lat="49.87315" lon="2.28497">
        <ele>71.3</ele>
        <time>2021-04-28T14:54:24Z</time>
      </trkpt>
      <trkpt lat="49.87316" lon="2.28497">
        <ele>71.3</ele>
        <time>2021-04-28T14:54:25Z</time>
      </trkpt>
      <trkpt lat="49.87317" lon="2.28497">
        <ele>71.3</ele>
        <time>2021-04-28T14:54:26Z</time>
      </trkpt>
      <trkpt lat="49.87318" lon="2.28497">
        <ele>71.3</ele>
        <time>2021-04-28T14:54:28Z</time>
      </trkpt>
      <trkpt lat="49.87318" lon="2.28497">
        <ele>71.3</ele>
        <time>2021-04-28T14:54:30Z</time>
      </trkpt>
      <trkpt lat="49.87318" lon="2.28498">
        <ele>71.3</ele>
        <time>2021-04-28T14:54:31Z</time>
      </trkpt>
      <trkpt lat="49.87319" lon="2.28499">
        <ele>71.3</ele>
        <time>2021-04-28T14:54:32Z</time>
      </trkpt>
      <trkpt lat="49.87319" lon="2.285">
        <ele>71.3</ele>
        <time>2021-04-28T14:54:34Z</time>
      </trkpt>
      <trkpt lat="49.8732" lon="2.28501">
        <ele>71.3</ele>
        <time>2021-04-28T14:54:35Z</time>
      </trkpt>
      <trkpt lat="49.87321" lon="2.28502">
        <ele>71.3</ele>
        <time>2021-04-28T14:54:36Z</time>
      </trkpt>
      <trkpt lat="49.87323" lon="2.28505">
        <ele>71.3</ele>
        <time>2021-04-28T14:54:38Z</time>
      </trkpt>
      <trkpt lat="49.87324" lon="2.28507">
        <ele>71.3</ele>
        <time>2021-04-28T14:54:39Z</time>
      </trkpt>
      <trkpt lat="49.87326" lon="2.28509">
        <ele>71.3</ele>
        <time>2021-04-28T14:54:40Z</time>
      </trkpt>
      <trkpt lat="49.87327" lon="2.2851">
        <ele>71.3</ele>
        <time>2021-04-28T14:54:41Z</time>
      </trkpt>
      <trkpt lat="49.87328" lon="2.28512">
        <ele>71.3</ele>
        <time>2021-04-28T14:54:42Z</time>
      </trkpt>
      <trkpt lat="49.87329" lon="2.28512">
        <ele>71.3</ele>
        <time>2021-04-28T14:54:44Z</time>
      </trkpt>
      <trkpt lat="49.87329" lon="2.28512">
        <ele>71.3</ele>
        <time>2021-04-28T14:54:45Z</time>
      </trkpt>
      <trkpt lat="49.87331" lon="2.28512">
        <ele>71.3</ele>
        <time>2021-04-28T14:54:47Z</time>
      </trkpt>
      <trkpt lat="49.87331" lon="2.28512">
        <ele>71.3</ele>
        <time>2021-04-28T14:54:48Z</time>
      </trkpt>
      <trkpt lat="49.8733" lon="2.28514">
        <ele>71.3</ele>
        <time>2021-04-28T14:54:49Z</time>
      </trkpt>
      <trkpt lat="49.8733" lon="2.28515">
        <ele>71.3</ele>
        <time>2021-04-28T14:54:50Z</time>
      </trkpt>
      <trkpt lat="49.8733" lon="2.28516">
        <ele>71.3</ele>
        <time>2021-04-28T14:54:51Z</time>
      </trkpt>
      <trkpt lat="49.8733" lon="2.28517">
        <ele>71.3</ele>
        <time>2021-04-28T14:54:53Z</time>
      </trkpt>
      <trkpt lat="49.8733" lon="2.28518">
        <ele>71.3</ele>
        <time>2021-04-28T14:54:54Z</time>
      </trkpt>
      <trkpt lat="49.8733" lon="2.28519">
        <ele>71.3</ele>
        <time>2021-04-28T14:54:55Z</time>
      </trkpt>
      <trkpt lat="49.87331" lon="2.2852">
        <ele>71.3</ele>
        <time>2021-04-28T14:54:56Z</time>
      </trkpt>
      <trkpt lat="49.87331" lon="2.28521">
        <ele>71.3</ele>
        <time>2021-04-28T14:54:57Z</time>
      </trkpt>
      <trkpt lat="49.87333" lon="2.28523">
        <ele>71.2</ele>
        <time>2021-04-28T14:54:58Z</time>
      </trkpt>
      <trkpt lat="49.87334" lon="2.28524">
        <ele>71.2</ele>
        <time>2021-04-28T14:54:59Z</time>
      </trkpt>
      <trkpt lat="49.87335" lon="2.28524">
        <ele>71.2</ele>
        <time>2021-04-28T14:55:01Z</time>
      </trkpt>
      <trkpt lat="49.87336" lon="2.28525">
        <ele>71.2</ele>
        <time>2021-04-28T14:55:02Z</time>
      </trkpt>
      <trkpt lat="49.87337" lon="2.28525">
        <ele>71.2</ele>
        <time>2021-04-28T14:55:03Z</time>
      </trkpt>
      <trkpt lat="49.87338" lon="2.28526">
        <ele>71.2</ele>
        <time>2021-04-28T14:55:04Z</time>
      </trkpt>
      <trkpt lat="49.87339" lon="2.28526">
        <ele>71.2</ele>
        <time>2021-04-28T14:55:06Z</time>
      </trkpt>
      <trkpt lat="49.8734" lon="2.28526">
        <ele>71.2</ele>
        <time>2021-04-28T14:55:07Z</time>
      </trkpt>
      <trkpt lat="49.87341" lon="2.28525">
        <ele>71.2</ele>
        <time>2021-04-28T14:55:08Z</time>
      </trkpt>
      <trkpt lat="49.87342" lon="2.28526">
        <ele>71.1</ele>
        <time>2021-04-28T14:55:09Z</time>
      </trkpt>
      <trkpt lat="49.87343" lon="2.28527">
        <ele>71.1</ele>
        <time>2021-04-28T14:55:11Z</time>
      </trkpt>
      <trkpt lat="49.87344" lon="2.28527">
        <ele>71.1</ele>
        <time>2021-04-28T14:55:12Z</time>
      </trkpt>
      <trkpt lat="49.87345" lon="2.28527">
        <ele>71.1</ele>
        <time>2021-04-28T14:55:13Z</time>
      </trkpt>
      <trkpt lat="49.87346" lon="2.28528">
        <ele>71.1</ele>
        <time>2021-04-28T14:55:15Z</time>
      </trkpt>
      <trkpt lat="49.87347" lon="2.28528">
        <ele>71.1</ele>
        <time>2021-04-28T14:55:16Z</time>
      </trkpt>
      <trkpt lat="49.87348" lon="2.28528">
        <ele>71</ele>
        <time>2021-04-28T14:55:17Z</time>
      </trkpt>
      <trkpt lat="49.87349" lon="2.28527">
        <ele>71</ele>
        <time>2021-04-28T14:55:18Z</time>
      </trkpt>
      <trkpt lat="49.8735" lon="2.28527">
        <ele>71</ele>
        <time>2021-04-28T14:55:20Z</time>
      </trkpt>
      <trkpt lat="49.8735" lon="2.28527">
        <ele>71</ele>
        <time>2021-04-28T14:55:21Z</time>
      </trkpt>
      <trkpt lat="49.87352" lon="2.28527">
        <ele>71</ele>
        <time>2021-04-28T14:55:23Z</time>
      </trkpt>
      <trkpt lat="49.87353" lon="2.28526">
        <ele>71</ele>
        <time>2021-04-28T14:55:24Z</time>
      </trkpt>
      <trkpt lat="49.87354" lon="2.28526">
        <ele>70.9</ele>
        <time>2021-04-28T14:55:26Z</time>
      </trkpt>
      <trkpt lat="49.87355" lon="2.28525">
        <ele>70.9</ele>
        <time>2021-04-28T14:55:27Z</time>
      </trkpt>
      <trkpt lat="49.87357" lon="2.28524">
        <ele>70.9</ele>
        <time>2021-04-28T14:55:29Z</time>
      </trkpt>
      <trkpt lat="49.87358" lon="2.28524">
        <ele>70.8</ele>
        <time>2021-04-28T14:55:30Z</time>
      </trkpt>
      <trkpt lat="49.87361" lon="2.28523">
        <ele>70.8</ele>
        <time>2021-04-28T14:55:31Z</time>
      </trkpt>
      <trkpt lat="49.87362" lon="2.28523">
        <ele>70.8</ele>
        <time>2021-04-28T14:55:32Z</time>
      </trkpt>
      <trkpt lat="49.87363" lon="2.28523">
        <ele>70.8</ele>
        <time>2021-04-28T14:55:33Z</time>
      </trkpt>
      <trkpt lat="49.87364" lon="2.28523">
        <ele>70.7</ele>
        <time>2021-04-28T14:55:34Z</time>
      </trkpt>
      <trkpt lat="49.87365" lon="2.28523">
        <ele>70.7</ele>
        <time>2021-04-28T14:55:35Z</time>
      </trkpt>
      <trkpt lat="49.87366" lon="2.28523">
        <ele>70.7</ele>
        <time>2021-04-28T14:55:37Z</time>
      </trkpt>
      <trkpt lat="49.87368" lon="2.28523">
        <ele>70.6</ele>
        <time>2021-04-28T14:55:38Z</time>
      </trkpt>
      <trkpt lat="49.87369" lon="2.28524">
        <ele>70.6</ele>
        <time>2021-04-28T14:55:39Z</time>
      </trkpt>
      <trkpt lat="49.8737" lon="2.28524">
        <ele>70.6</ele>
        <time>2021-04-28T14:55:40Z</time>
      </trkpt>
      <trkpt lat="49.87371" lon="2.28525">
        <ele>70.6</ele>
        <time>2021-04-28T14:55:41Z</time>
      </trkpt>
      <trkpt lat="49.87371" lon="2.28526">
        <ele>70.6</ele>
        <time>2021-04-28T14:55:42Z</time>
      </trkpt>
      <trkpt lat="49.87372" lon="2.28527">
        <ele>70.6</ele>
        <time>2021-04-28T14:55:43Z</time>
      </trkpt>
      <trkpt lat="49.87372" lon="2.28528">
        <ele>70.5</ele>
        <time>2021-04-28T14:55:45Z</time>
      </trkpt>
      <trkpt lat="49.87373" lon="2.28529">
        <ele>70.5</ele>
        <time>2021-04-28T14:55:46Z</time>
      </trkpt>
      <trkpt lat="49.87373" lon="2.2853">
        <ele>70.5</ele>
        <time>2021-04-28T14:55:47Z</time>
      </trkpt>
      <trkpt lat="49.87374" lon="2.28531">
        <ele>70.5</ele>
        <time>2021-04-28T14:55:48Z</time>
      </trkpt>
      <trkpt lat="49.87375" lon="2.28532">
        <ele>70.4</ele>
        <time>2021-04-28T14:55:49Z</time>
      </trkpt>
      <trkpt lat="49.87376" lon="2.28533">
        <ele>70.4</ele>
        <time>2021-04-28T14:55:50Z</time>
      </trkpt>
      <trkpt lat="49.87376" lon="2.28534">
        <ele>70.4</ele>
        <time>2021-04-28T14:55:51Z</time>
      </trkpt>
      <trkpt lat="49.87376" lon="2.28536">
        <ele>70.4</ele>
        <time>2021-04-28T14:55:53Z</time>
      </trkpt>
      <trkpt lat="49.87377" lon="2.28537">
        <ele>70.4</ele>
        <time>2021-04-28T14:55:54Z</time>
      </trkpt>
      <trkpt lat="49.87378" lon="2.28539">
        <ele>70.3</ele>
        <time>2021-04-28T14:55:55Z</time>
      </trkpt>
      <trkpt lat="49.87378" lon="2.2854">
        <ele>70.3</ele>
        <time>2021-04-28T14:55:56Z</time>
      </trkpt>
      <trkpt lat="49.87379" lon="2.28541">
        <ele>70.3</ele>
        <time>2021-04-28T14:55:57Z</time>
      </trkpt>
      <trkpt lat="49.8738" lon="2.28542">
        <ele>70.3</ele>
        <time>2021-04-28T14:55:58Z</time>
      </trkpt>
      <trkpt lat="49.8738" lon="2.28543">
        <ele>70.3</ele>
        <time>2021-04-28T14:56:00Z</time>
      </trkpt>
      <trkpt lat="49.87381" lon="2.28544">
        <ele>70.3</ele>
        <time>2021-04-28T14:56:01Z</time>
      </trkpt>
      <trkpt lat="49.87381" lon="2.28544">
        <ele>70.3</ele>
        <time>2021-04-28T14:56:02Z</time>
      </trkpt>
      <trkpt lat="49.87382" lon="2.28544">
        <ele>70.3</ele>
        <time>2021-04-28T14:56:03Z</time>
      </trkpt>
      <trkpt lat="49.87382" lon="2.28544">
        <ele>70.3</ele>
        <time>2021-04-28T14:56:04Z</time>
      </trkpt>
      <trkpt lat="49.87382" lon="2.28544">
        <ele>70.3</ele>
        <time>2021-04-28T14:56:06Z</time>
      </trkpt>
      <trkpt lat="49.87382" lon="2.28545">
        <ele>70.3</ele>
        <time>2021-04-28T14:56:07Z</time>
      </trkpt>
      <trkpt lat="49.87382" lon="2.28546">
        <ele>70.3</ele>
        <time>2021-04-28T14:56:08Z</time>
      </trkpt>
      <trkpt lat="49.87383" lon="2.28549">
        <ele>70.3</ele>
        <time>2021-04-28T14:56:09Z</time>
      </trkpt>
      <trkpt lat="49.87383" lon="2.2855">
        <ele>70.2</ele>
        <time>2021-04-28T14:56:11Z</time>
      </trkpt>
      <trkpt lat="49.87384" lon="2.28551">
        <ele>70.2</ele>
        <time>2021-04-28T14:56:12Z</time>
      </trkpt>
      <trkpt lat="49.87385" lon="2.28553">
        <ele>70.2</ele>
        <time>2021-04-28T14:56:13Z</time>
      </trkpt>
      <trkpt lat="49.87387" lon="2.28555">
        <ele>70.2</ele>
        <time>2021-04-28T14:56:15Z</time>
      </trkpt>
      <trkpt lat="49.87388" lon="2.28557">
        <ele>70.2</ele>
        <time>2021-04-28T14:56:17Z</time>
      </trkpt>
      <trkpt lat="49.87389" lon="2.2856">
        <ele>70.2</ele>
        <time>2021-04-28T14:56:18Z</time>
      </trkpt>
      <trkpt lat="49.8739" lon="2.28561">
        <ele>70.2</ele>
        <time>2021-04-28T14:56:19Z</time>
      </trkpt>
      <trkpt lat="49.8739" lon="2.28562">
        <ele>70.2</ele>
        <time>2021-04-28T14:56:20Z</time>
      </trkpt>
      <trkpt lat="49.87391" lon="2.28563">
        <ele>70.1</ele>
        <time>2021-04-28T14:56:21Z</time>
      </trkpt>
      <trkpt lat="49.87392" lon="2.28564">
        <ele>70.1</ele>
        <time>2021-04-28T14:56:22Z</time>
      </trkpt>
      <trkpt lat="49.87393" lon="2.28564">
        <ele>70.1</ele>
        <time>2021-04-28T14:56:24Z</time>
      </trkpt>
      <trkpt lat="49.87393" lon="2.28565">
        <ele>70.1</ele>
        <time>2021-04-28T14:56:26Z</time>
      </trkpt>
      <trkpt lat="49.87394" lon="2.28566">
        <ele>70.1</ele>
        <time>2021-04-28T14:56:27Z</time>
      </trkpt>
      <trkpt lat="49.87394" lon="2.28567">
        <ele>70.1</ele>
        <time>2021-04-28T14:56:28Z</time>
      </trkpt>
      <trkpt lat="49.87395" lon="2.28567">
        <ele>70</ele>
        <time>2021-04-28T14:56:29Z</time>
      </trkpt>
      <trkpt lat="49.87396" lon="2.28568">
        <ele>70</ele>
        <time>2021-04-28T14:56:31Z</time>
      </trkpt>
      <trkpt lat="49.87396" lon="2.28569">
        <ele>70</ele>
        <time>2021-04-28T14:56:32Z</time>
      </trkpt>
      <trkpt lat="49.87397" lon="2.2857">
        <ele>70</ele>
        <time>2021-04-28T14:56:33Z</time>
      </trkpt>
      <trkpt lat="49.87398" lon="2.2857">
        <ele>70</ele>
        <time>2021-04-28T14:56:34Z</time>
      </trkpt>
      <trkpt lat="49.87398" lon="2.28572">
        <ele>70</ele>
        <time>2021-04-28T14:56:35Z</time>
      </trkpt>
      <trkpt lat="49.87399" lon="2.28573">
        <ele>70</ele>
        <time>2021-04-28T14:56:36Z</time>
      </trkpt>
      <trkpt lat="49.87399" lon="2.28574">
        <ele>70</ele>
        <time>2021-04-28T14:56:37Z</time>
      </trkpt>
      <trkpt lat="49.874" lon="2.28576">
        <ele>69.9</ele>
        <time>2021-04-28T14:56:39Z</time>
      </trkpt>
      <trkpt lat="49.87401" lon="2.28579">
        <ele>69.9</ele>
        <time>2021-04-28T14:56:40Z</time>
      </trkpt>
      <trkpt lat="49.87401" lon="2.2858">
        <ele>69.9</ele>
        <time>2021-04-28T14:56:41Z</time>
      </trkpt>
      <trkpt lat="49.87401" lon="2.28581">
        <ele>69.8</ele>
        <time>2021-04-28T14:56:42Z</time>
      </trkpt>
      <trkpt lat="49.87402" lon="2.28583">
        <ele>69.8</ele>
        <time>2021-04-28T14:56:43Z</time>
      </trkpt>
      <trkpt lat="49.87402" lon="2.28584">
        <ele>69.8</ele>
        <time>2021-04-28T14:56:44Z</time>
      </trkpt>
      <trkpt lat="49.87403" lon="2.28586">
        <ele>69.8</ele>
        <time>2021-04-28T14:56:45Z</time>
      </trkpt>
      <trkpt lat="49.87404" lon="2.28586">
        <ele>69.8</ele>
        <time>2021-04-28T14:56:46Z</time>
      </trkpt>
      <trkpt lat="49.87405" lon="2.28589">
        <ele>69.7</ele>
        <time>2021-04-28T14:56:47Z</time>
      </trkpt>
      <trkpt lat="49.87405" lon="2.2859">
        <ele>69.7</ele>
        <time>2021-04-28T14:56:48Z</time>
      </trkpt>
      <trkpt lat="49.87406" lon="2.28592">
        <ele>69.7</ele>
        <time>2021-04-28T14:56:49Z</time>
      </trkpt>
      <trkpt lat="49.87406" lon="2.28595">
        <ele>69.6</ele>
        <time>2021-04-28T14:56:50Z</time>
      </trkpt>
      <trkpt lat="49.87407" lon="2.28596">
        <ele>69.6</ele>
        <time>2021-04-28T14:56:52Z</time>
      </trkpt>
      <trkpt lat="49.87407" lon="2.28598">
        <ele>69.5</ele>
        <time>2021-04-28T14:56:53Z</time>
      </trkpt>
      <trkpt lat="49.87408" lon="2.286">
        <ele>69.5</ele>
        <time>2021-04-28T14:56:54Z</time>
      </trkpt>
      <trkpt lat="49.87408" lon="2.28601">
        <ele>69.5</ele>
        <time>2021-04-28T14:56:55Z</time>
      </trkpt>
      <trkpt lat="49.87409" lon="2.28603">
        <ele>69.5</ele>
        <time>2021-04-28T14:56:56Z</time>
      </trkpt>
      <trkpt lat="49.87409" lon="2.28604">
        <ele>69.4</ele>
        <time>2021-04-28T14:56:57Z</time>
      </trkpt>
      <trkpt lat="49.8741" lon="2.28606">
        <ele>69.4</ele>
        <time>2021-04-28T14:56:58Z</time>
      </trkpt>
      <trkpt lat="49.8741" lon="2.28607">
        <ele>69.4</ele>
        <time>2021-04-28T14:56:59Z</time>
      </trkpt>
      <trkpt lat="49.87411" lon="2.2861">
        <ele>69.4</ele>
        <time>2021-04-28T14:57:00Z</time>
      </trkpt>
      <trkpt lat="49.87411" lon="2.28612">
        <ele>69.3</ele>
        <time>2021-04-28T14:57:01Z</time>
      </trkpt>
      <trkpt lat="49.87411" lon="2.28614">
        <ele>69.3</ele>
        <time>2021-04-28T14:57:03Z</time>
      </trkpt>
      <trkpt lat="49.87411" lon="2.28617">
        <ele>69.2</ele>
        <time>2021-04-28T14:57:04Z</time>
      </trkpt>
      <trkpt lat="49.87412" lon="2.28619">
        <ele>69.1</ele>
        <time>2021-04-28T14:57:05Z</time>
      </trkpt>
      <trkpt lat="49.87412" lon="2.28621">
        <ele>69.1</ele>
        <time>2021-04-28T14:57:06Z</time>
      </trkpt>
      <trkpt lat="49.87412" lon="2.28623">
        <ele>69</ele>
        <time>2021-04-28T14:57:07Z</time>
      </trkpt>
      <trkpt lat="49.87412" lon="2.28626">
        <ele>69</ele>
        <time>2021-04-28T14:57:08Z</time>
      </trkpt>
      <trkpt lat="49.87413" lon="2.28628">
        <ele>69</ele>
        <time>2021-04-28T14:57:09Z</time>
      </trkpt>
      <trkpt lat="49.87413" lon="2.28631">
        <ele>68.9</ele>
        <time>2021-04-28T14:57:10Z</time>
      </trkpt>
      <trkpt lat="49.87414" lon="2.28633">
        <ele>68.9</ele>
        <time>2021-04-28T14:57:11Z</time>
      </trkpt>
      <trkpt lat="49.87415" lon="2.28635">
        <ele>68.9</ele>
        <time>2021-04-28T14:57:13Z</time>
      </trkpt>
      <trkpt lat="49.87416" lon="2.2864">
        <ele>68.8</ele>
        <time>2021-04-28T14:57:15Z</time>
      </trkpt>
      <trkpt lat="49.87417" lon="2.28642">
        <ele>68.8</ele>
        <time>2021-04-28T14:57:16Z</time>
      </trkpt>
      <trkpt lat="49.87417" lon="2.28644">
        <ele>68.8</ele>
        <time>2021-04-28T14:57:17Z</time>
      </trkpt>
      <trkpt lat="49.87417" lon="2.28647">
        <ele>68.8</ele>
        <time>2021-04-28T14:57:18Z</time>
      </trkpt>
      <trkpt lat="49.87417" lon="2.2865">
        <ele>68.8</ele>
        <time>2021-04-28T14:57:19Z</time>
      </trkpt>
      <trkpt lat="49.87417" lon="2.28651">
        <ele>68.8</ele>
        <time>2021-04-28T14:57:21Z</time>
      </trkpt>
      <trkpt lat="49.87417" lon="2.28654">
        <ele>68.7</ele>
        <time>2021-04-28T14:57:22Z</time>
      </trkpt>
      <trkpt lat="49.87417" lon="2.28656">
        <ele>68.7</ele>
        <time>2021-04-28T14:57:23Z</time>
      </trkpt>
      <trkpt lat="49.87417" lon="2.28659">
        <ele>68.7</ele>
        <time>2021-04-28T14:57:24Z</time>
      </trkpt>
      <trkpt lat="49.87416" lon="2.28662">
        <ele>68.7</ele>
        <time>2021-04-28T14:57:25Z</time>
      </trkpt>
      <trkpt lat="49.87416" lon="2.28664">
        <ele>68.7</ele>
        <time>2021-04-28T14:57:26Z</time>
      </trkpt>
      <trkpt lat="49.87415" lon="2.28667">
        <ele>68.6</ele>
        <time>2021-04-28T14:57:27Z</time>
      </trkpt>
      <trkpt lat="49.87415" lon="2.28668">
        <ele>68.6</ele>
        <time>2021-04-28T14:57:29Z</time>
      </trkpt>
      <trkpt lat="49.87414" lon="2.28671">
        <ele>68.6</ele>
        <time>2021-04-28T14:57:30Z</time>
      </trkpt>
      <trkpt lat="49.87414" lon="2.28673">
        <ele>68.6</ele>
        <time>2021-04-28T14:57:31Z</time>
      </trkpt>
      <trkpt lat="49.87414" lon="2.28675">
        <ele>68.6</ele>
        <time>2021-04-28T14:57:32Z</time>
      </trkpt>
      <trkpt lat="49.87414" lon="2.28677">
        <ele>68.6</ele>
        <time>2021-04-28T14:57:33Z</time>
      </trkpt>
      <trkpt lat="49.87414" lon="2.2868">
        <ele>68.6</ele>
        <time>2021-04-28T14:57:34Z</time>
      </trkpt>
      <trkpt lat="49.87414" lon="2.28682">
        <ele>68.5</ele>
        <time>2021-04-28T14:57:35Z</time>
      </trkpt>
      <trkpt lat="49.87414" lon="2.28684">
        <ele>68.5</ele>
        <time>2021-04-28T14:57:36Z</time>
      </trkpt>
      <trkpt lat="49.87414" lon="2.28686">
        <ele>68.5</ele>
        <time>2021-04-28T14:57:37Z</time>
      </trkpt>
      <trkpt lat="49.87413" lon="2.28688">
        <ele>68.5</ele>
        <time>2021-04-28T14:57:39Z</time>
      </trkpt>
      <trkpt lat="49.87412" lon="2.2869">
        <ele>68.5</ele>
        <time>2021-04-28T14:57:40Z</time>
      </trkpt>
      <trkpt lat="49.87411" lon="2.2869">
        <ele>68.5</ele>
        <time>2021-04-28T14:57:42Z</time>
      </trkpt>
      <trkpt lat="49.8741" lon="2.28688">
        <ele>68.5</ele>
        <time>2021-04-28T14:57:43Z</time>
      </trkpt>
      <trkpt lat="49.8741" lon="2.28688">
        <ele>68.5</ele>
        <time>2021-04-28T14:57:44Z</time>
      </trkpt>
      <trkpt lat="49.87409" lon="2.28689">
        <ele>68.5</ele>
        <time>2021-04-28T14:57:45Z</time>
      </trkpt>
      <trkpt lat="49.87409" lon="2.2869">
        <ele>68.5</ele>
        <time>2021-04-28T14:57:46Z</time>
      </trkpt>
      <trkpt lat="49.87409" lon="2.28692">
        <ele>68.4</ele>
        <time>2021-04-28T14:57:48Z</time>
      </trkpt>
      <trkpt lat="49.87409" lon="2.28694">
        <ele>68.4</ele>
        <time>2021-04-28T14:57:49Z</time>
      </trkpt>
      <trkpt lat="49.87409" lon="2.28696">
        <ele>68.4</ele>
        <time>2021-04-28T14:57:50Z</time>
      </trkpt>
      <trkpt lat="49.87409" lon="2.287">
        <ele>68.4</ele>
        <time>2021-04-28T14:57:52Z</time>
      </trkpt>
      <trkpt lat="49.87409" lon="2.28702">
        <ele>68.4</ele>
        <time>2021-04-28T14:57:53Z</time>
      </trkpt>
      <trkpt lat="49.87408" lon="2.28704">
        <ele>68.4</ele>
        <time>2021-04-28T14:57:54Z</time>
      </trkpt>
      <trkpt lat="49.87408" lon="2.28706">
        <ele>68.4</ele>
        <time>2021-04-28T14:57:55Z</time>
      </trkpt>
      <trkpt lat="49.87407" lon="2.28708">
        <ele>68.3</ele>
        <time>2021-04-28T14:57:56Z</time>
      </trkpt>
      <trkpt lat="49.87407" lon="2.28712">
        <ele>68.3</ele>
        <time>2021-04-28T14:57:57Z</time>
      </trkpt>
      <trkpt lat="49.87406" lon="2.28713">
        <ele>68.3</ele>
        <time>2021-04-28T14:57:59Z</time>
      </trkpt>
      <trkpt lat="49.87406" lon="2.28715">
        <ele>68.3</ele>
        <time>2021-04-28T14:58:00Z</time>
      </trkpt>
      <trkpt lat="49.87405" lon="2.28716">
        <ele>68.3</ele>
        <time>2021-04-28T14:58:01Z</time>
      </trkpt>
      <trkpt lat="49.87405" lon="2.28717">
        <ele>68.3</ele>
        <time>2021-04-28T14:58:02Z</time>
      </trkpt>
      <trkpt lat="49.87405" lon="2.28719">
        <ele>68.3</ele>
        <time>2021-04-28T14:58:03Z</time>
      </trkpt>
      <trkpt lat="49.87405" lon="2.2872">
        <ele>68.3</ele>
        <time>2021-04-28T14:58:04Z</time>
      </trkpt>
      <trkpt lat="49.87404" lon="2.28722">
        <ele>68.3</ele>
        <time>2021-04-28T14:58:06Z</time>
      </trkpt>
      <trkpt lat="49.87404" lon="2.28723">
        <ele>68.2</ele>
        <time>2021-04-28T14:58:07Z</time>
      </trkpt>
      <trkpt lat="49.87404" lon="2.28725">
        <ele>68.2</ele>
        <time>2021-04-28T14:58:08Z</time>
      </trkpt>
      <trkpt lat="49.87403" lon="2.28726">
        <ele>68.2</ele>
        <time>2021-04-28T14:58:09Z</time>
      </trkpt>
      <trkpt lat="49.87402" lon="2.28727">
        <ele>68.2</ele>
        <time>2021-04-28T14:58:10Z</time>
      </trkpt>
      <trkpt lat="49.87401" lon="2.28728">
        <ele>68.2</ele>
        <time>2021-04-28T14:58:11Z</time>
      </trkpt>
      <trkpt lat="49.87401" lon="2.2873">
        <ele>68.1</ele>
        <time>2021-04-28T14:58:12Z</time>
      </trkpt>
      <trkpt lat="49.874" lon="2.28732">
        <ele>68.1</ele>
        <time>2021-04-28T14:58:14Z</time>
      </trkpt>
      <trkpt lat="49.874" lon="2.28733">
        <ele>68.1</ele>
        <time>2021-04-28T14:58:15Z</time>
      </trkpt>
      <trkpt lat="49.87399" lon="2.28735">
        <ele>68.1</ele>
        <time>2021-04-28T14:58:16Z</time>
      </trkpt>
      <trkpt lat="49.87399" lon="2.28737">
        <ele>68.1</ele>
        <time>2021-04-28T14:58:17Z</time>
      </trkpt>
      <trkpt lat="49.87399" lon="2.28738">
        <ele>68</ele>
        <time>2021-04-28T14:58:18Z</time>
      </trkpt>
      <trkpt lat="49.87398" lon="2.2874">
        <ele>68</ele>
        <time>2021-04-28T14:58:19Z</time>
      </trkpt>
      <trkpt lat="49.87398" lon="2.28741">
        <ele>68</ele>
        <time>2021-04-28T14:58:20Z</time>
      </trkpt>
      <trkpt lat="49.87398" lon="2.28742">
        <ele>68</ele>
        <time>2021-04-28T14:58:22Z</time>
      </trkpt>
      <trkpt lat="49.87397" lon="2.28744">
        <ele>68</ele>
        <time>2021-04-28T14:58:23Z</time>
      </trkpt>
      <trkpt lat="49.87397" lon="2.28745">
        <ele>68</ele>
        <time>2021-04-28T14:58:24Z</time>
      </trkpt>
      <trkpt lat="49.87396" lon="2.28747">
        <ele>68</ele>
        <time>2021-04-28T14:58:25Z</time>
      </trkpt>
      <trkpt lat="49.87396" lon="2.28749">
        <ele>67.9</ele>
        <time>2021-04-28T14:58:26Z</time>
      </trkpt>
      <trkpt lat="49.87395" lon="2.28752">
        <ele>67.9</ele>
        <time>2021-04-28T14:58:27Z</time>
      </trkpt>
      <trkpt lat="49.87394" lon="2.28753">
        <ele>67.9</ele>
        <time>2021-04-28T14:58:28Z</time>
      </trkpt>
      <trkpt lat="49.87393" lon="2.28754">
        <ele>67.9</ele>
        <time>2021-04-28T14:58:30Z</time>
      </trkpt>
      <trkpt lat="49.87393" lon="2.28755">
        <ele>67.8</ele>
        <time>2021-04-28T14:58:31Z</time>
      </trkpt>
      <trkpt lat="49.87392" lon="2.28756">
        <ele>67.8</ele>
        <time>2021-04-28T14:58:32Z</time>
      </trkpt>
      <trkpt lat="49.87391" lon="2.28757">
        <ele>67.8</ele>
        <time>2021-04-28T14:58:33Z</time>
      </trkpt>
      <trkpt lat="49.87391" lon="2.28759">
        <ele>67.8</ele>
        <time>2021-04-28T14:58:34Z</time>
      </trkpt>
      <trkpt lat="49.8739" lon="2.28762">
        <ele>67.8</ele>
        <time>2021-04-28T14:58:35Z</time>
      </trkpt>
      <trkpt lat="49.87389" lon="2.28762">
        <ele>67.7</ele>
        <time>2021-04-28T14:58:36Z</time>
      </trkpt>
      <trkpt lat="49.87389" lon="2.28764">
        <ele>67.7</ele>
        <time>2021-04-28T14:58:38Z</time>
      </trkpt>
      <trkpt lat="49.87388" lon="2.28765">
        <ele>67.7</ele>
        <time>2021-04-28T14:58:39Z</time>
      </trkpt>
      <trkpt lat="49.87387" lon="2.28766">
        <ele>67.7</ele>
        <time>2021-04-28T14:58:40Z</time>
      </trkpt>
      <trkpt lat="49.87385" lon="2.28767">
        <ele>67.7</ele>
        <time>2021-04-28T14:58:41Z</time>
      </trkpt>
      <trkpt lat="49.87384" lon="2.28768">
        <ele>67.7</ele>
        <time>2021-04-28T14:58:42Z</time>
      </trkpt>
      <trkpt lat="49.87383" lon="2.28769">
        <ele>67.7</ele>
        <time>2021-04-28T14:58:43Z</time>
      </trkpt>
      <trkpt lat="49.87383" lon="2.2877">
        <ele>67.7</ele>
        <time>2021-04-28T14:58:44Z</time>
      </trkpt>
      <trkpt lat="49.87382" lon="2.28772">
        <ele>67.6</ele>
        <time>2021-04-28T14:58:45Z</time>
      </trkpt>
      <trkpt lat="49.87382" lon="2.28773">
        <ele>67.6</ele>
        <time>2021-04-28T14:58:47Z</time>
      </trkpt>
      <trkpt lat="49.87381" lon="2.28775">
        <ele>67.6</ele>
        <time>2021-04-28T14:58:48Z</time>
      </trkpt>
      <trkpt lat="49.87382" lon="2.28778">
        <ele>67.6</ele>
        <time>2021-04-28T14:58:49Z</time>
      </trkpt>
      <trkpt lat="49.87382" lon="2.28779">
        <ele>67.6</ele>
        <time>2021-04-28T14:58:50Z</time>
      </trkpt>
      <trkpt lat="49.87382" lon="2.2878">
        <ele>67.6</ele>
        <time>2021-04-28T14:58:51Z</time>
      </trkpt>
      <trkpt lat="49.87383" lon="2.28781">
        <ele>67.6</ele>
        <time>2021-04-28T14:58:52Z</time>
      </trkpt>
      <trkpt lat="49.87384" lon="2.28781">
        <ele>67.6</ele>
        <time>2021-04-28T14:58:53Z</time>
      </trkpt>
      <trkpt lat="49.87385" lon="2.28781">
        <ele>67.6</ele>
        <time>2021-04-28T14:58:55Z</time>
      </trkpt>
      <trkpt lat="49.87387" lon="2.28782">
        <ele>67.5</ele>
        <time>2021-04-28T14:58:56Z</time>
      </trkpt>
      <trkpt lat="49.87388" lon="2.28782">
        <ele>67.5</ele>
        <time>2021-04-28T14:58:57Z</time>
      </trkpt>
      <trkpt lat="49.87389" lon="2.28782">
        <ele>67.5</ele>
        <time>2021-04-28T14:58:58Z</time>
      </trkpt>
      <trkpt lat="49.8739" lon="2.28783">
        <ele>67.5</ele>
        <time>2021-04-28T14:58:59Z</time>
      </trkpt>
      <trkpt lat="49.87391" lon="2.28783">
        <ele>67.5</ele>
        <time>2021-04-28T14:59:00Z</time>
      </trkpt>
      <trkpt lat="49.87392" lon="2.28783">
        <ele>67.5</ele>
        <time>2021-04-28T14:59:01Z</time>
      </trkpt>
      <trkpt lat="49.87393" lon="2.28783">
        <ele>67.5</ele>
        <time>2021-04-28T14:59:02Z</time>
      </trkpt>
      <trkpt lat="49.87394" lon="2.28783">
        <ele>67.4</ele>
        <time>2021-04-28T14:59:03Z</time>
      </trkpt>
      <trkpt lat="49.87395" lon="2.28783">
        <ele>67.4</ele>
        <time>2021-04-28T14:59:04Z</time>
      </trkpt>
      <trkpt lat="49.87396" lon="2.28783">
        <ele>67.4</ele>
        <time>2021-04-28T14:59:05Z</time>
      </trkpt>
      <trkpt lat="49.87398" lon="2.28783">
        <ele>67.3</ele>
        <time>2021-04-28T14:59:07Z</time>
      </trkpt>
      <trkpt lat="49.87399" lon="2.28783">
        <ele>67.3</ele>
        <time>2021-04-28T14:59:08Z</time>
      </trkpt>
      <trkpt lat="49.87401" lon="2.28783">
        <ele>67.3</ele>
        <time>2021-04-28T14:59:09Z</time>
      </trkpt>
      <trkpt lat="49.87402" lon="2.28783">
        <ele>67.2</ele>
        <time>2021-04-28T14:59:10Z</time>
      </trkpt>
      <trkpt lat="49.87403" lon="2.28783">
        <ele>67.2</ele>
        <time>2021-04-28T14:59:11Z</time>
      </trkpt>
      <trkpt lat="49.87405" lon="2.28783">
        <ele>67.2</ele>
        <time>2021-04-28T14:59:12Z</time>
      </trkpt>
      <trkpt lat="49.87406" lon="2.28783">
        <ele>67.1</ele>
        <time>2021-04-28T14:59:13Z</time>
      </trkpt>
      <trkpt lat="49.87407" lon="2.28783">
        <ele>67.1</ele>
        <time>2021-04-28T14:59:14Z</time>
      </trkpt>
      <trkpt lat="49.87409" lon="2.28784">
        <ele>67.1</ele>
        <time>2021-04-28T14:59:15Z</time>
      </trkpt>
      <trkpt lat="49.8741" lon="2.28784">
        <ele>67</ele>
        <time>2021-04-28T14:59:16Z</time>
      </trkpt>
      <trkpt lat="49.87411" lon="2.28785">
        <ele>67</ele>
        <time>2021-04-28T14:59:18Z</time>
      </trkpt>
      <trkpt lat="49.87412" lon="2.28785">
        <ele>67</ele>
        <time>2021-04-28T14:59:19Z</time>
      </trkpt>
      <trkpt lat="49.87413" lon="2.28786">
        <ele>66.9</ele>
        <time>2021-04-28T14:59:20Z</time>
      </trkpt>
      <trkpt lat="49.87415" lon="2.28787">
        <ele>66.9</ele>
        <time>2021-04-28T14:59:21Z</time>
      </trkpt>
      <trkpt lat="49.87416" lon="2.28787">
        <ele>66.8</ele>
        <time>2021-04-28T14:59:22Z</time>
      </trkpt>
      <trkpt lat="49.87417" lon="2.28788">
        <ele>66.8</ele>
        <time>2021-04-28T14:59:23Z</time>
      </trkpt>
      <trkpt lat="49.87419" lon="2.28788">
        <ele>66.8</ele>
        <time>2021-04-28T14:59:24Z</time>
      </trkpt>
      <trkpt lat="49.8742" lon="2.28789">
        <ele>66.7</ele>
        <time>2021-04-28T14:59:25Z</time>
      </trkpt>
      <trkpt lat="49.87421" lon="2.2879">
        <ele>66.7</ele>
        <time>2021-04-28T14:59:26Z</time>
      </trkpt>
      <trkpt lat="49.87421" lon="2.2879">
        <ele>66.7</ele>
        <time>2021-04-28T14:59:27Z</time>
      </trkpt>
      <trkpt lat="49.87422" lon="2.28791">
        <ele>66.7</ele>
        <time>2021-04-28T14:59:28Z</time>
      </trkpt>
      <trkpt lat="49.87423" lon="2.28791">
        <ele>66.6</ele>
        <time>2021-04-28T14:59:30Z</time>
      </trkpt>
      <trkpt lat="49.87424" lon="2.28792">
        <ele>66.6</ele>
        <time>2021-04-28T14:59:31Z</time>
      </trkpt>
      <trkpt lat="49.87425" lon="2.28794">
        <ele>66.6</ele>
        <time>2021-04-28T14:59:32Z</time>
      </trkpt>
      <trkpt lat="49.87425" lon="2.28795">
        <ele>66.5</ele>
        <time>2021-04-28T14:59:33Z</time>
      </trkpt>
      <trkpt lat="49.87426" lon="2.28797">
        <ele>66.4</ele>
        <time>2021-04-28T14:59:34Z</time>
      </trkpt>
      <trkpt lat="49.87426" lon="2.28798">
        <ele>66.4</ele>
        <time>2021-04-28T14:59:35Z</time>
      </trkpt>
      <trkpt lat="49.87427" lon="2.28801">
        <ele>66.4</ele>
        <time>2021-04-28T14:59:36Z</time>
      </trkpt>
      <trkpt lat="49.87427" lon="2.28802">
        <ele>66.3</ele>
        <time>2021-04-28T14:59:37Z</time>
      </trkpt>
      <trkpt lat="49.87426" lon="2.28804">
        <ele>66.3</ele>
        <time>2021-04-28T14:59:38Z</time>
      </trkpt>
      <trkpt lat="49.87426" lon="2.28806">
        <ele>66.3</ele>
        <time>2021-04-28T14:59:39Z</time>
      </trkpt>
      <trkpt lat="49.87425" lon="2.28808">
        <ele>66.3</ele>
        <time>2021-04-28T14:59:40Z</time>
      </trkpt>
      <trkpt lat="49.87425" lon="2.2881">
        <ele>66.3</ele>
        <time>2021-04-28T14:59:42Z</time>
      </trkpt>
      <trkpt lat="49.87424" lon="2.28814">
        <ele>66.3</ele>
        <time>2021-04-28T14:59:44Z</time>
      </trkpt>
      <trkpt lat="49.87423" lon="2.28816">
        <ele>66.3</ele>
        <time>2021-04-28T14:59:45Z</time>
      </trkpt>
      <trkpt lat="49.87423" lon="2.28818">
        <ele>66.2</ele>
        <time>2021-04-28T14:59:46Z</time>
      </trkpt>
      <trkpt lat="49.87422" lon="2.28821">
        <ele>66.2</ele>
        <time>2021-04-28T14:59:47Z</time>
      </trkpt>
      <trkpt lat="49.87422" lon="2.28822">
        <ele>66.2</ele>
        <time>2021-04-28T14:59:48Z</time>
      </trkpt>
      <trkpt lat="49.87421" lon="2.28824">
        <ele>66.2</ele>
        <time>2021-04-28T14:59:49Z</time>
      </trkpt>
      <trkpt lat="49.87421" lon="2.28826">
        <ele>66.2</ele>
        <time>2021-04-28T14:59:50Z</time>
      </trkpt>
      <trkpt lat="49.87421" lon="2.28829">
        <ele>66.2</ele>
        <time>2021-04-28T14:59:51Z</time>
      </trkpt>
      <trkpt lat="49.8742" lon="2.2883">
        <ele>66.2</ele>
        <time>2021-04-28T14:59:52Z</time>
      </trkpt>
      <trkpt lat="49.8742" lon="2.28831">
        <ele>66.2</ele>
        <time>2021-04-28T14:59:53Z</time>
      </trkpt>
      <trkpt lat="49.8742" lon="2.28832">
        <ele>66.1</ele>
        <time>2021-04-28T14:59:54Z</time>
      </trkpt>
      <trkpt lat="49.8742" lon="2.28834">
        <ele>66.1</ele>
        <time>2021-04-28T14:59:56Z</time>
      </trkpt>
      <trkpt lat="49.87419" lon="2.28836">
        <ele>66.1</ele>
        <time>2021-04-28T14:59:57Z</time>
      </trkpt>
      <trkpt lat="49.87419" lon="2.28837">
        <ele>66.1</ele>
        <time>2021-04-28T14:59:58Z</time>
      </trkpt>
      <trkpt lat="49.87419" lon="2.28839">
        <ele>66.1</ele>
        <time>2021-04-28T14:59:59Z</time>
      </trkpt>
      <trkpt lat="49.87419" lon="2.28842">
        <ele>66.1</ele>
        <time>2021-04-28T15:00:00Z</time>
      </trkpt>
      <trkpt lat="49.87419" lon="2.28845">
        <ele>66.1</ele>
        <time>2021-04-28T15:00:01Z</time>
      </trkpt>
      <trkpt lat="49.87419" lon="2.28846">
        <ele>66.1</ele>
        <time>2021-04-28T15:00:02Z</time>
      </trkpt>
      <trkpt lat="49.87418" lon="2.28849">
        <ele>66.1</ele>
        <time>2021-04-28T15:00:03Z</time>
      </trkpt>
      <trkpt lat="49.87418" lon="2.2885">
        <ele>66</ele>
        <time>2021-04-28T15:00:05Z</time>
      </trkpt>
      <trkpt lat="49.87418" lon="2.28852">
        <ele>66</ele>
        <time>2021-04-28T15:00:06Z</time>
      </trkpt>
      <trkpt lat="49.87417" lon="2.28856">
        <ele>66</ele>
        <time>2021-04-28T15:00:07Z</time>
      </trkpt>
      <trkpt lat="49.87417" lon="2.28857">
        <ele>66</ele>
        <time>2021-04-28T15:00:08Z</time>
      </trkpt>
      <trkpt lat="49.87417" lon="2.28858">
        <ele>66</ele>
        <time>2021-04-28T15:00:09Z</time>
      </trkpt>
      <trkpt lat="49.87417" lon="2.2886">
        <ele>66</ele>
        <time>2021-04-28T15:00:10Z</time>
      </trkpt>
      <trkpt lat="49.87416" lon="2.28863">
        <ele>66</ele>
        <time>2021-04-28T15:00:12Z</time>
      </trkpt>
      <trkpt lat="49.87416" lon="2.28864">
        <ele>66</ele>
        <time>2021-04-28T15:00:13Z</time>
      </trkpt>
      <trkpt lat="49.87416" lon="2.28866">
        <ele>66</ele>
        <time>2021-04-28T15:00:14Z</time>
      </trkpt>
      <trkpt lat="49.87416" lon="2.28869">
        <ele>65.9</ele>
        <time>2021-04-28T15:00:15Z</time>
      </trkpt>
      <trkpt lat="49.87416" lon="2.28871">
        <ele>65.9</ele>
        <time>2021-04-28T15:00:16Z</time>
      </trkpt>
      <trkpt lat="49.87415" lon="2.28873">
        <ele>65.9</ele>
        <time>2021-04-28T15:00:17Z</time>
      </trkpt>
      <trkpt lat="49.87415" lon="2.28876">
        <ele>65.9</ele>
        <time>2021-04-28T15:00:18Z</time>
      </trkpt>
      <trkpt lat="49.87414" lon="2.28878">
        <ele>65.9</ele>
        <time>2021-04-28T15:00:19Z</time>
      </trkpt>
      <trkpt lat="49.87414" lon="2.2888">
        <ele>65.9</ele>
        <time>2021-04-28T15:00:20Z</time>
      </trkpt>
      <trkpt lat="49.87413" lon="2.28883">
        <ele>65.9</ele>
        <time>2021-04-28T15:00:22Z</time>
      </trkpt>
      <trkpt lat="49.87413" lon="2.28884">
        <ele>65.9</ele>
        <time>2021-04-28T15:00:23Z</time>
      </trkpt>
      <trkpt lat="49.87412" lon="2.28886">
        <ele>65.8</ele>
        <time>2021-04-28T15:00:24Z</time>
      </trkpt>
      <trkpt lat="49.87412" lon="2.28888">
        <ele>65.8</ele>
        <time>2021-04-28T15:00:25Z</time>
      </trkpt>
      <trkpt lat="49.87411" lon="2.2889">
        <ele>65.8</ele>
        <time>2021-04-28T15:00:26Z</time>
      </trkpt>
      <trkpt lat="49.8741" lon="2.28892">
        <ele>65.8</ele>
        <time>2021-04-28T15:00:27Z</time>
      </trkpt>
      <trkpt lat="49.87409" lon="2.28895">
        <ele>65.8</ele>
        <time>2021-04-28T15:00:29Z</time>
      </trkpt>
      <trkpt lat="49.87409" lon="2.28897">
        <ele>65.8</ele>
        <time>2021-04-28T15:00:30Z</time>
      </trkpt>
      <trkpt lat="49.87408" lon="2.28899">
        <ele>65.8</ele>
        <time>2021-04-28T15:00:31Z</time>
      </trkpt>
      <trkpt lat="49.87408" lon="2.28902">
        <ele>65.8</ele>
        <time>2021-04-28T15:00:32Z</time>
      </trkpt>
      <trkpt lat="49.87407" lon="2.28903">
        <ele>65.8</ele>
        <time>2021-04-28T15:00:33Z</time>
      </trkpt>
      <trkpt lat="49.87406" lon="2.28904">
        <ele>65.7</ele>
        <time>2021-04-28T15:00:34Z</time>
      </trkpt>
      <trkpt lat="49.87405" lon="2.28905">
        <ele>65.7</ele>
        <time>2021-04-28T15:00:35Z</time>
      </trkpt>
      <trkpt lat="49.87405" lon="2.28906">
        <ele>65.7</ele>
        <time>2021-04-28T15:00:36Z</time>
      </trkpt>
      <trkpt lat="49.87404" lon="2.28907">
        <ele>65.7</ele>
        <time>2021-04-28T15:00:38Z</time>
      </trkpt>
      <trkpt lat="49.87403" lon="2.28908">
        <ele>65.7</ele>
        <time>2021-04-28T15:00:39Z</time>
      </trkpt>
      <trkpt lat="49.87402" lon="2.28909">
        <ele>65.7</ele>
        <time>2021-04-28T15:00:40Z</time>
      </trkpt>
      <trkpt lat="49.874" lon="2.28912">
        <ele>65.7</ele>
        <time>2021-04-28T15:00:42Z</time>
      </trkpt>
      <trkpt lat="49.87399" lon="2.28913">
        <ele>65.7</ele>
        <time>2021-04-28T15:00:43Z</time>
      </trkpt>
      <trkpt lat="49.87398" lon="2.28915">
        <ele>65.7</ele>
        <time>2021-04-28T15:00:44Z</time>
      </trkpt>
      <trkpt lat="49.87398" lon="2.28916">
        <ele>65.6</ele>
        <time>2021-04-28T15:00:45Z</time>
      </trkpt>
      <trkpt lat="49.87396" lon="2.28919">
        <ele>65.6</ele>
        <time>2021-04-28T15:00:46Z</time>
      </trkpt>
      <trkpt lat="49.87395" lon="2.2892">
        <ele>65.6</ele>
        <time>2021-04-28T15:00:48Z</time>
      </trkpt>
      <trkpt lat="49.87395" lon="2.28921">
        <ele>65.6</ele>
        <time>2021-04-28T15:00:49Z</time>
      </trkpt>
      <trkpt lat="49.87394" lon="2.28922">
        <ele>65.6</ele>
        <time>2021-04-28T15:00:50Z</time>
      </trkpt>
      <trkpt lat="49.87393" lon="2.28923">
        <ele>65.6</ele>
        <time>2021-04-28T15:00:52Z</time>
      </trkpt>
      <trkpt lat="49.87392" lon="2.28924">
        <ele>65.6</ele>
        <time>2021-04-28T15:00:53Z</time>
      </trkpt>
      <trkpt lat="49.87392" lon="2.28925">
        <ele>65.6</ele>
        <time>2021-04-28T15:00:54Z</time>
      </trkpt>
      <trkpt lat="49.87391" lon="2.28927">
        <ele>65.6</ele>
        <time>2021-04-28T15:00:55Z</time>
      </trkpt>
      <trkpt lat="49.8739" lon="2.28928">
        <ele>65.6</ele>
        <time>2021-04-28T15:00:57Z</time>
      </trkpt>
      <trkpt lat="49.8739" lon="2.28929">
        <ele>65.6</ele>
        <time>2021-04-28T15:00:58Z</time>
      </trkpt>
      <trkpt lat="49.87389" lon="2.28929">
        <ele>65.6</ele>
        <time>2021-04-28T15:01:00Z</time>
      </trkpt>
      <trkpt lat="49.87388" lon="2.28928">
        <ele>65.6</ele>
        <time>2021-04-28T15:01:02Z</time>
      </trkpt>
      <trkpt lat="49.87388" lon="2.28927">
        <ele>65.6</ele>
        <time>2021-04-28T15:01:04Z</time>
      </trkpt>
      <trkpt lat="49.87388" lon="2.28926">
        <ele>65.6</ele>
        <time>2021-04-28T15:01:06Z</time>
      </trkpt>
      <trkpt lat="49.87388" lon="2.28926">
        <ele>65.6</ele>
        <time>2021-04-28T15:01:08Z</time>
      </trkpt>
      <trkpt lat="49.87388" lon="2.28926">
        <ele>65.6</ele>
        <time>2021-04-28T15:01:10Z</time>
      </trkpt>
      <trkpt lat="49.87388" lon="2.28926">
        <ele>65.6</ele>
        <time>2021-04-28T15:01:11Z</time>
      </trkpt>
      <trkpt lat="49.87388" lon="2.28926">
        <ele>65.6</ele>
        <time>2021-04-28T15:01:13Z</time>
      </trkpt>
      <trkpt lat="49.87388" lon="2.28925">
        <ele>65.6</ele>
        <time>2021-04-28T15:01:15Z</time>
      </trkpt>
      <trkpt lat="49.87388" lon="2.28924">
        <ele>65.6</ele>
        <time>2021-04-28T15:01:16Z</time>
      </trkpt>
      <trkpt lat="49.87389" lon="2.28923">
        <ele>65.6</ele>
        <time>2021-04-28T15:01:18Z</time>
      </trkpt>
      <trkpt lat="49.8739" lon="2.28921">
        <ele>65.6</ele>
        <time>2021-04-28T15:01:20Z</time>
      </trkpt>
      <trkpt lat="49.8739" lon="2.28921">
        <ele>65.6</ele>
        <time>2021-04-28T15:01:22Z</time>
      </trkpt>
      <trkpt lat="49.8739" lon="2.28921">
        <ele>65.6</ele>
        <time>2021-04-28T15:01:24Z</time>
      </trkpt>
      <trkpt lat="49.8739" lon="2.28921">
        <ele>65.6</ele>
        <time>2021-04-28T15:01:25Z</time>
      </trkpt>
      <trkpt lat="49.8739" lon="2.28921">
        <ele>65.6</ele>
        <time>2021-04-28T15:01:27Z</time>
      </trkpt>
      <trkpt lat="49.8739" lon="2.28921">
        <ele>65.6</ele>
        <time>2021-04-28T15:01:29Z</time>
      </trkpt>
      <trkpt lat="49.8739" lon="2.28921">
        <ele>65.6</ele>
        <time>2021-04-28T15:01:30Z</time>
      </trkpt>
      <trkpt lat="49.87712" lon="2.31464">
        <ele>65.2</ele>
        <time>2021-05-29T14:49:10Z</time>
      </trkpt>
      <trkpt lat="49.87718" lon="2.31466">
        <ele>65.3</ele>
        <time>2021-05-29T14:49:11Z</time>
      </trkpt>
      <trkpt lat="49.87723" lon="2.31469">
        <ele>65.4</ele>
        <time>2021-05-29T14:49:13Z</time>
      </trkpt>
      <trkpt lat="49.87727" lon="2.3147">
        <ele>65.4</ele>
        <time>2021-05-29T14:49:14Z</time>
      </trkpt>
      <trkpt lat="49.87728" lon="2.31482">
        <ele>65.5</ele>
        <time>2021-05-29T14:49:16Z</time>
      </trkpt>
    </trkseg>
  </trk>
</gpx>